<?xml version='1.0' encoding='UTF-8'?><gpx version="1.1" creator="JPX - https://github.com/jenetics/jpx" xmlns="http://www.topografix.com/GPX/1/1"><trk><trkseg><trkpt lat="45.055758938216314" lon="9.885454374595236"><ele>42.0</ele><time>2026-04-29T11:16:35Z</time></trkpt><trkpt lat="45.05572975150526" lon="9.885357033369598"><ele>42.0</ele><time>2026-04-29T11:16:36Z</time></trkpt><trkpt lat="45.05569531737513" lon="9.88522238020154"><ele>42.0</ele><time>2026-04-29T11:16:37Z</time></trkpt><trkpt lat="45.05563798294771" lon="9.885074782969054"><ele>42.0</ele><time>2026-04-29T11:16:38Z</time></trkpt><trkpt lat="45.05557092911485" lon="9.884909203636871"><ele>42.0</ele><time>2026-04-29T11:16:39Z</time></trkpt><trkpt lat="45.055471538752165" lon="9.884712522184477"><ele>41.666666666666664</ele><time>2026-04-29T11:16:40Z</time></trkpt><trkpt lat="45.055374585173574" lon="9.884519676735152"><ele>41.33333333333333</ele><time>2026-04-29T11:16:41Z</time></trkpt><trkpt lat="45.05527181720125" lon="9.884315515528831"><ele>41.0</ele><time>2026-04-29T11:16:42Z</time></trkpt><trkpt lat="45.055161931079176" lon="9.884098262227333"><ele>40.666666666666664</ele><time>2026-04-29T11:16:43Z</time></trkpt><trkpt lat="45.05505069116539" lon="9.883887871080333"><ele>40.333333333333336</ele><time>2026-04-29T11:16:44Z</time></trkpt><trkpt lat="45.05493751650179" lon="9.883669298175219"><ele>40.0</ele><time>2026-04-29T11:16:45Z</time></trkpt><trkpt lat="45.05482942890697" lon="9.883455909110486"><ele>41.0</ele><time>2026-04-29T11:16:46Z</time></trkpt><trkpt lat="45.05472633473759" lon="9.883255796548628"><ele>42.0</ele><time>2026-04-29T11:16:47Z</time></trkpt><trkpt lat="45.05463443912147" lon="9.883069341086577"><ele>43.0</ele><time>2026-04-29T11:16:48Z</time></trkpt><trkpt lat="45.05454584533353" lon="9.882889821322525"><ele>43.0</ele><time>2026-04-29T11:16:49Z</time></trkpt><trkpt lat="45.0544636856566" lon="9.88271484923501"><ele>43.0</ele><time>2026-04-29T11:16:50Z</time></trkpt><trkpt lat="45.05438930986409" lon="9.882544849642198"><ele>43.0</ele><time>2026-04-29T11:16:51Z</time></trkpt><trkpt lat="45.05432591012709" lon="9.882373240310612"><ele>43.0</ele><time>2026-04-29T11:16:52Z</time></trkpt><trkpt lat="45.05427615048643" lon="9.88218739534056"><ele>43.0</ele><time>2026-04-29T11:16:53Z</time></trkpt><trkpt lat="45.054232296234176" lon="9.88199363813679"><ele>43.0</ele><time>2026-04-29T11:16:54Z</time></trkpt><trkpt lat="45.05421626557884" lon="9.881803456944388"><ele>43.0</ele><time>2026-04-29T11:16:55Z</time></trkpt><trkpt lat="45.05418016997248" lon="9.88163134234151"><ele>43.0</ele><time>2026-04-29T11:16:56Z</time></trkpt><trkpt lat="45.05416844021682" lon="9.881457341468861"><ele>43.2</ele><time>2026-04-29T11:16:57Z</time></trkpt><trkpt lat="45.054168100833536" lon="9.88129078615336"><ele>43.4</ele><time>2026-04-29T11:16:58Z</time></trkpt><trkpt lat="45.0541577802017" lon="9.881136932778585"><ele>43.6</ele><time>2026-04-29T11:16:59Z</time></trkpt><trkpt lat="45.054139643949405" lon="9.88099671538353"><ele>43.800000000000004</ele><time>2026-04-29T11:17:00Z</time></trkpt><trkpt lat="45.05414649993304" lon="9.880866537360047"><ele>44.0</ele><time>2026-04-29T11:17:01Z</time></trkpt><trkpt lat="45.05415836216489" lon="9.88075646206628"><ele>43.666666666666664</ele><time>2026-04-29T11:17:02Z</time></trkpt><trkpt lat="45.05418500843634" lon="9.880663518080565"><ele>43.33333333333333</ele><time>2026-04-29T11:17:03Z</time></trkpt><trkpt lat="45.05421116252428" lon="9.880558316252952"><ele>43.0</ele><time>2026-04-29T11:17:04Z</time></trkpt><trkpt lat="45.05429112709777" lon="9.88047835701074"><ele>42.666666666666664</ele><time>2026-04-29T11:17:05Z</time></trkpt><trkpt lat="45.054325431031934" lon="9.880361141329956"><ele>42.333333333333336</ele><time>2026-04-29T11:17:06Z</time></trkpt><trkpt lat="45.05435487008167" lon="9.880242650460694"><ele>42.0</ele><time>2026-04-29T11:17:07Z</time></trkpt><trkpt lat="45.05435152312819" lon="9.880117015760197"><ele>42.0</ele><time>2026-04-29T11:17:08Z</time></trkpt><trkpt lat="45.05431592102416" lon="9.87999316297516"><ele>42.0</ele><time>2026-04-29T11:17:09Z</time></trkpt><trkpt lat="45.054258164286324" lon="9.879896000207742"><ele>42.0</ele><time>2026-04-29T11:17:10Z</time></trkpt><trkpt lat="45.05418666350196" lon="9.87982232342837"><ele>42.0</ele><time>2026-04-29T11:17:11Z</time></trkpt><trkpt lat="45.054086962756216" lon="9.879782996712425"><ele>42.0</ele><time>2026-04-29T11:17:12Z</time></trkpt><trkpt lat="45.05397730277092" lon="9.879784526140398"><ele>41.75</ele><time>2026-04-29T11:17:13Z</time></trkpt><trkpt lat="45.05386452612351" lon="9.879833585780338"><ele>41.5</ele><time>2026-04-29T11:17:14Z</time></trkpt><trkpt lat="45.05375327686731" lon="9.879899705618376"><ele>41.25</ele><time>2026-04-29T11:17:15Z</time></trkpt><trkpt lat="45.05364663653742" lon="9.879922350947872"><ele>41.0</ele><time>2026-04-29T11:17:16Z</time></trkpt><trkpt lat="45.05351453553552" lon="9.879898006313338"><ele>41.0</ele><time>2026-04-29T11:17:17Z</time></trkpt><trkpt lat="45.0533721494294" lon="9.879840447710716"><ele>41.0</ele><time>2026-04-29T11:17:18Z</time></trkpt><trkpt lat="45.05323408040056" lon="9.879763610783227"><ele>41.0</ele><time>2026-04-29T11:17:19Z</time></trkpt><trkpt lat="45.053083139851644" lon="9.879675786847558"><ele>41.25</ele><time>2026-04-29T11:17:20Z</time></trkpt><trkpt lat="45.05292427877738" lon="9.87959578623218"><ele>41.5</ele><time>2026-04-29T11:17:21Z</time></trkpt><trkpt lat="45.05279969340762" lon="9.879528946546694"><ele>41.75</ele><time>2026-04-29T11:17:22Z</time></trkpt><trkpt lat="45.052685786658415" lon="9.879468004012411"><ele>42.0</ele><time>2026-04-29T11:17:23Z</time></trkpt><trkpt lat="45.05258137582013" lon="9.87941031849634"><ele>42.0</ele><time>2026-04-29T11:17:24Z</time></trkpt><trkpt lat="45.05247996187615" lon="9.879357107873114"><ele>42.0</ele><time>2026-04-29T11:17:25Z</time></trkpt><trkpt lat="45.052375348630974" lon="9.879301630688252"><ele>42.0</ele><time>2026-04-29T11:17:26Z</time></trkpt><trkpt lat="45.05226674729992" lon="9.879245876865616"><ele>42.0</ele><time>2026-04-29T11:17:27Z</time></trkpt><trkpt lat="45.052158523837846" lon="9.879192653407468"><ele>42.6</ele><time>2026-04-29T11:17:28Z</time></trkpt><trkpt lat="45.05205423429285" lon="9.879139952972883"><ele>43.2</ele><time>2026-04-29T11:17:29Z</time></trkpt><trkpt lat="45.051953325091134" lon="9.879087962574157"><ele>43.8</ele><time>2026-04-29T11:17:30Z</time></trkpt><trkpt lat="45.05186012805668" lon="9.879032663401917"><ele>44.4</ele><time>2026-04-29T11:17:31Z</time></trkpt><trkpt lat="45.05177702534092" lon="9.878979242313765"><ele>45.0</ele><time>2026-04-29T11:17:32Z</time></trkpt><trkpt lat="45.05170889641345" lon="9.878937077885295"><ele>44.25</ele><time>2026-04-29T11:17:32.998Z</time></trkpt><trkpt lat="45.05162090093485" lon="9.878878662636762"><ele>43.5</ele><time>2026-04-29T11:17:34.998Z</time></trkpt><trkpt lat="45.051519819233775" lon="9.878811841531203"><ele>42.75</ele><time>2026-04-29T11:18:08.999Z</time></trkpt><trkpt lat="45.0514176530328" lon="9.878748692567374"><ele>42.0</ele><time>2026-04-29T11:18:09.999Z</time></trkpt><trkpt lat="45.051299452941294" lon="9.87866671237127"><ele>42.0</ele><time>2026-04-29T11:18:10.999Z</time></trkpt><trkpt lat="45.051165365441" lon="9.878584038021918"><ele>42.0</ele><time>2026-04-29T11:18:11.999Z</time></trkpt><trkpt lat="45.050993950110254" lon="9.878491252397861"><ele>42.0</ele><time>2026-04-29T11:18:12.999Z</time></trkpt><trkpt lat="45.05082674439762" lon="9.878399947897622"><ele>43.0</ele><time>2026-04-29T11:18:13.999Z</time></trkpt><trkpt lat="45.05066013038398" lon="9.878307596014533"><ele>44.0</ele><time>2026-04-29T11:18:14.999Z</time></trkpt><trkpt lat="45.050503893578366" lon="9.878219273615404"><ele>45.0</ele><time>2026-04-29T11:18:15.999Z</time></trkpt><trkpt lat="45.05036172369139" lon="9.878144981454636"><ele>45.0</ele><time>2026-04-29T11:18:16.999Z</time></trkpt><trkpt lat="45.05023405031367" lon="9.878075639934236"><ele>45.0</ele><time>2026-04-29T11:18:17.999Z</time></trkpt><trkpt lat="45.05011727881757" lon="9.878007126212468"><ele>45.0</ele><time>2026-04-29T11:18:18.999Z</time></trkpt><trkpt lat="45.050013337245794" lon="9.87794860851693"><ele>45.0</ele><time>2026-04-29T11:18:19.999Z</time></trkpt><trkpt lat="45.04992308767125" lon="9.877895072050705"><ele>44.833333333333336</ele><time>2026-04-29T11:18:20.999Z</time></trkpt><trkpt lat="45.049834556601034" lon="9.877838142449642"><ele>44.666666666666664</ele><time>2026-04-29T11:18:21.999Z</time></trkpt><trkpt lat="45.049752622959886" lon="9.87779831834277"><ele>44.5</ele><time>2026-04-29T11:18:22.999Z</time></trkpt><trkpt lat="45.04967293124094" lon="9.877757498275344"><ele>44.33333333333333</ele><time>2026-04-29T11:18:23.999Z</time></trkpt><trkpt lat="45.04960145197853" lon="9.877719935807935"><ele>44.166666666666664</ele><time>2026-04-29T11:18:25Z</time></trkpt><trkpt lat="45.04953426271759" lon="9.87768323552867"><ele>44.0</ele><time>2026-04-29T11:18:26Z</time></trkpt><trkpt lat="45.049469274610644" lon="9.87764666345927"><ele>44.5</ele><time>2026-04-29T11:18:27Z</time></trkpt><trkpt lat="45.04936916789802" lon="9.877590766974405"><ele>45.0</ele><time>2026-04-29T11:18:29Z</time></trkpt><trkpt lat="45.049251554962765" lon="9.877551920611404"><ele>45.5</ele><time>2026-04-29T11:18:48Z</time></trkpt><trkpt lat="45.049137294631926" lon="9.877488464009435"><ele>46.0</ele><time>2026-04-29T11:18:49Z</time></trkpt><trkpt lat="45.04901334151112" lon="9.877411137515606"><ele>46.0</ele><time>2026-04-29T11:18:50Z</time></trkpt><trkpt lat="45.04886925191323" lon="9.87732279128661"><ele>46.0</ele><time>2026-04-29T11:18:51Z</time></trkpt><trkpt lat="45.048725790351256" lon="9.87723792098495"><ele>46.0</ele><time>2026-04-29T11:18:52Z</time></trkpt><trkpt lat="45.048612002264214" lon="9.877156332996194"><ele>46.0</ele><time>2026-04-29T11:18:53Z</time></trkpt><trkpt lat="45.04851377468949" lon="9.877064042462527"><ele>46.0</ele><time>2026-04-29T11:18:54Z</time></trkpt><trkpt lat="45.04843061777849" lon="9.876956681748494"><ele>46.0</ele><time>2026-04-29T11:18:55Z</time></trkpt><trkpt lat="45.04835076802598" lon="9.876818160035496"><ele>46.0</ele><time>2026-04-29T11:18:56Z</time></trkpt><trkpt lat="45.04829490505795" lon="9.8766441645817"><ele>46.0</ele><time>2026-04-29T11:18:57Z</time></trkpt><trkpt lat="45.04824779059618" lon="9.876454668463795"><ele>45.25</ele><time>2026-04-29T11:18:58Z</time></trkpt><trkpt lat="45.04820742228715" lon="9.876284502873345"><ele>44.5</ele><time>2026-04-29T11:18:59Z</time></trkpt><trkpt lat="45.04818055458959" lon="9.876088688012633"><ele>43.75</ele><time>2026-04-29T11:19:00Z</time></trkpt><trkpt lat="45.048153703756576" lon="9.875891608934353"><ele>43.0</ele><time>2026-04-29T11:19:01Z</time></trkpt><trkpt lat="45.048126847227856" lon="9.87568697323871"><ele>43.0</ele><time>2026-04-29T11:19:02Z</time></trkpt><trkpt lat="45.04809790598627" lon="9.875474722125217"><ele>43.0</ele><time>2026-04-29T11:19:03Z</time></trkpt><trkpt lat="45.04806492133203" lon="9.87525462306213"><ele>43.0</ele><time>2026-04-29T11:19:04Z</time></trkpt><trkpt lat="45.04803025123951" lon="9.875018741159716"><ele>43.66666666666667</ele><time>2026-04-29T11:19:05Z</time></trkpt><trkpt lat="45.04799369024592" lon="9.874770907826209"><ele>44.333333333333336</ele><time>2026-04-29T11:19:06Z</time></trkpt><trkpt lat="45.04795754373343" lon="9.87452078558301"><ele>45.0</ele><time>2026-04-29T11:19:07Z</time></trkpt><trkpt lat="45.047923588286075" lon="9.87426150686133"><ele>45.666666666666664</ele><time>2026-04-29T11:19:08Z</time></trkpt><trkpt lat="45.04788238539552" lon="9.873992086021026"><ele>46.33333333333333</ele><time>2026-04-29T11:19:09Z</time></trkpt><trkpt lat="45.04783964834961" lon="9.873707685035182"><ele>47.0</ele><time>2026-04-29T11:19:10Z</time></trkpt><trkpt lat="45.04779638944477" lon="9.873424293150919"><ele>47.0</ele><time>2026-04-29T11:19:11Z</time></trkpt><trkpt lat="45.04775174563054" lon="9.873135748831096"><ele>47.0</ele><time>2026-04-29T11:19:12Z</time></trkpt><trkpt lat="45.04770416214809" lon="9.872844629747652"><ele>47.0</ele><time>2026-04-29T11:19:13Z</time></trkpt><trkpt lat="45.04765583897449" lon="9.87254770314131"><ele>47.0</ele><time>2026-04-29T11:19:14Z</time></trkpt><trkpt lat="45.047608988948106" lon="9.872244497431247"><ele>47.0</ele><time>2026-04-29T11:19:15Z</time></trkpt><trkpt lat="45.04756644658317" lon="9.871944781532925"><ele>47.0</ele><time>2026-04-29T11:19:16Z</time></trkpt><trkpt lat="45.04752595606673" lon="9.871668956571916"><ele>47.0</ele><time>2026-04-29T11:19:17Z</time></trkpt><trkpt lat="45.0474848756712" lon="9.871410885182776"><ele>47.0</ele><time>2026-04-29T11:19:18Z</time></trkpt><trkpt lat="45.0474459969687" lon="9.871159765065183"><ele>47.0</ele><time>2026-04-29T11:19:19Z</time></trkpt><trkpt lat="45.047403433170345" lon="9.870891809180494"><ele>47.0</ele><time>2026-04-29T11:19:20Z</time></trkpt><trkpt lat="45.04735842470175" lon="9.870603275252149"><ele>47.0</ele><time>2026-04-29T11:19:21Z</time></trkpt><trkpt lat="45.047310028902345" lon="9.870311363616196"><ele>47.0</ele><time>2026-04-29T11:19:22Z</time></trkpt><trkpt lat="45.04725608404119" lon="9.870024647844838"><ele>46.666666666666664</ele><time>2026-04-29T11:19:23Z</time></trkpt><trkpt lat="45.04719938774841" lon="9.869735607432725"><ele>46.333333333333336</ele><time>2026-04-29T11:19:24Z</time></trkpt><trkpt lat="45.04714479544203" lon="9.869456616013235"><ele>46.0</ele><time>2026-04-29T11:19:25Z</time></trkpt><trkpt lat="45.04708713237353" lon="9.869169758350035"><ele>46.0</ele><time>2026-04-29T11:19:26Z</time></trkpt><trkpt lat="45.04701916082772" lon="9.868875997133715"><ele>46.0</ele><time>2026-04-29T11:19:27Z</time></trkpt><trkpt lat="45.04695099008749" lon="9.868591384984596"><ele>46.0</ele><time>2026-04-29T11:19:28Z</time></trkpt><trkpt lat="45.046889554879655" lon="9.868324680746605"><ele>46.0</ele><time>2026-04-29T11:19:29Z</time></trkpt><trkpt lat="45.04683519198376" lon="9.868071415858948"><ele>46.0</ele><time>2026-04-29T11:19:30Z</time></trkpt><trkpt lat="45.04677607315441" lon="9.867811923454623"><ele>46.0</ele><time>2026-04-29T11:19:31Z</time></trkpt><trkpt lat="45.046720192026335" lon="9.867554082644418"><ele>46.0</ele><time>2026-04-29T11:19:32Z</time></trkpt><trkpt lat="45.046660024494585" lon="9.867278082486212"><ele>46.0</ele><time>2026-04-29T11:19:33Z</time></trkpt><trkpt lat="45.04659942428233" lon="9.867014031083201"><ele>46.0</ele><time>2026-04-29T11:19:34Z</time></trkpt><trkpt lat="45.04654058264998" lon="9.866759205586908"><ele>45.66666666666667</ele><time>2026-04-29T11:19:35Z</time></trkpt><trkpt lat="45.04648541077032" lon="9.866511306716953"><ele>45.333333333333336</ele><time>2026-04-29T11:19:36Z</time></trkpt><trkpt lat="45.04642952823239" lon="9.866260729480834"><ele>45.0</ele><time>2026-04-29T11:19:37Z</time></trkpt><trkpt lat="45.046367491389084" lon="9.866005639493839"><ele>44.0</ele><time>2026-04-29T11:19:38Z</time></trkpt><trkpt lat="45.04630317941706" lon="9.865746464472444"><ele>43.0</ele><time>2026-04-29T11:19:38.999Z</time></trkpt><trkpt lat="45.04624301812897" lon="9.865463972080635"><ele>42.0</ele><time>2026-04-29T11:19:39.999Z</time></trkpt><trkpt lat="45.046185390387045" lon="9.865167125255583"><ele>43.0</ele><time>2026-04-29T11:19:40.999Z</time></trkpt><trkpt lat="45.04612479519817" lon="9.864863860862837"><ele>44.0</ele><time>2026-04-29T11:19:41.999Z</time></trkpt><trkpt lat="45.04605774100949" lon="9.864553065201887"><ele>44.0</ele><time>2026-04-29T11:19:42.999Z</time></trkpt><trkpt lat="45.04598936523992" lon="9.86423556678427"><ele>44.0</ele><time>2026-04-29T11:19:43.999Z</time></trkpt><trkpt lat="45.04592095531014" lon="9.863920500504156"><ele>44.0</ele><time>2026-04-29T11:19:44.999Z</time></trkpt><trkpt lat="45.04584772091638" lon="9.863590292026997"><ele>44.0</ele><time>2026-04-29T11:19:45.999Z</time></trkpt><trkpt lat="45.045772776092534" lon="9.86326087034083"><ele>43.5</ele><time>2026-04-29T11:19:46.999Z</time></trkpt><trkpt lat="45.045698891615515" lon="9.862931948166656"><ele>43.0</ele><time>2026-04-29T11:19:47.999Z</time></trkpt><trkpt lat="45.04562802362985" lon="9.862596204952393"><ele>42.5</ele><time>2026-04-29T11:19:48.999Z</time></trkpt><trkpt lat="45.04555290516272" lon="9.862259800777606"><ele>42.0</ele><time>2026-04-29T11:19:49.999Z</time></trkpt><trkpt lat="45.04547830125437" lon="9.861924367461954"><ele>40.5</ele><time>2026-04-29T11:19:50.999Z</time></trkpt><trkpt lat="45.04540289329218" lon="9.861589727249374"><ele>39.0</ele><time>2026-04-29T11:19:51.999Z</time></trkpt><trkpt lat="45.045328148510386" lon="9.861247325824536"><ele>39.5</ele><time>2026-04-29T11:19:52.999Z</time></trkpt><trkpt lat="45.04525334795272" lon="9.860903354565972"><ele>40.0</ele><time>2026-04-29T11:19:53.999Z</time></trkpt><trkpt lat="45.04517577173797" lon="9.86055861863434"><ele>40.0</ele><time>2026-04-29T11:19:54.999Z</time></trkpt><trkpt lat="45.04510035035184" lon="9.860214275023294"><ele>40.0</ele><time>2026-04-29T11:19:55.999Z</time></trkpt><trkpt lat="45.045023444129704" lon="9.85987006687834"><ele>40.5</ele><time>2026-04-29T11:19:56.999Z</time></trkpt><trkpt lat="45.04494624626176" lon="9.859521276121379"><ele>41.0</ele><time>2026-04-29T11:19:57.999Z</time></trkpt><trkpt lat="45.044870395461665" lon="9.859169021750747"><ele>41.5</ele><time>2026-04-29T11:19:58.999Z</time></trkpt><trkpt lat="45.04479455673781" lon="9.85881060125287"><ele>42.0</ele><time>2026-04-29T11:19:59.999Z</time></trkpt><trkpt lat="45.04471813654074" lon="9.858445689479652"><ele>42.5</ele><time>2026-04-29T11:20:00.999Z</time></trkpt><trkpt lat="45.0446422211176" lon="9.858084768361294"><ele>43.0</ele><time>2026-04-29T11:20:01.999Z</time></trkpt><trkpt lat="45.04456461882625" lon="9.857690370066571"><ele>42.0</ele><time>2026-04-29T11:20:02.999Z</time></trkpt><trkpt lat="45.044486706563035" lon="9.857293040998599"><ele>41.0</ele><time>2026-04-29T11:20:03.999Z</time></trkpt><trkpt lat="45.04440647759895" lon="9.857010755100518"><ele>42.0</ele><time>2026-04-29T11:20:04.999Z</time></trkpt><trkpt lat="45.044324920241706" lon="9.856645275871788"><ele>43.0</ele><time>2026-04-29T11:20:05.999Z</time></trkpt><trkpt lat="45.04424742321224" lon="9.85628084717651"><ele>43.5</ele><time>2026-04-29T11:20:07Z</time></trkpt><trkpt lat="45.04417068271482" lon="9.855919653893505"><ele>44.0</ele><time>2026-04-29T11:20:08Z</time></trkpt><trkpt lat="45.04409361158484" lon="9.855564207637993"><ele>44.0</ele><time>2026-04-29T11:20:09Z</time></trkpt><trkpt lat="45.0440118444821" lon="9.855207666776495"><ele>44.0</ele><time>2026-04-29T11:20:10Z</time></trkpt><trkpt lat="45.04393008403724" lon="9.854858435583376"><ele>43.5</ele><time>2026-04-29T11:20:11Z</time></trkpt><trkpt lat="45.043854434236316" lon="9.854506067582294"><ele>43.0</ele><time>2026-04-29T11:20:12Z</time></trkpt><trkpt lat="45.043775026189984" lon="9.854159449085653"><ele>43.0</ele><time>2026-04-29T11:20:13Z</time></trkpt><trkpt lat="45.04369286636173" lon="9.853811473354188"><ele>43.0</ele><time>2026-04-29T11:20:14Z</time></trkpt><trkpt lat="45.04363061837396" lon="9.853449838890654"><ele>43.0</ele><time>2026-04-29T11:20:15Z</time></trkpt><trkpt lat="45.04353475211856" lon="9.853105207362775"><ele>43.0</ele><time>2026-04-29T11:20:16Z</time></trkpt><trkpt lat="45.043459874988265" lon="9.852752874365464"><ele>42.5</ele><time>2026-04-29T11:20:17Z</time></trkpt><trkpt lat="45.043384617336834" lon="9.852397431303954"><ele>42.0</ele><time>2026-04-29T11:20:18Z</time></trkpt><trkpt lat="45.04331250368973" lon="9.852045317621139"><ele>42.5</ele><time>2026-04-29T11:20:19Z</time></trkpt><trkpt lat="45.043241319270756" lon="9.85169118756917"><ele>43.0</ele><time>2026-04-29T11:20:20Z</time></trkpt><trkpt lat="45.0431652356895" lon="9.85133624356727"><ele>43.0</ele><time>2026-04-29T11:20:21Z</time></trkpt><trkpt lat="45.043085667801286" lon="9.850980328508324"><ele>43.0</ele><time>2026-04-29T11:20:22Z</time></trkpt><trkpt lat="45.04300796635391" lon="9.850622344499776"><ele>43.0</ele><time>2026-04-29T11:20:23Z</time></trkpt><trkpt lat="45.04293029777803" lon="9.850262257166198"><ele>43.0</ele><time>2026-04-29T11:20:24Z</time></trkpt><trkpt lat="45.04285473041244" lon="9.849899710637926"><ele>43.0</ele><time>2026-04-29T11:20:25Z</time></trkpt><trkpt lat="45.04277664034447" lon="9.849536422055737"><ele>43.0</ele><time>2026-04-29T11:20:26Z</time></trkpt><trkpt lat="45.04269866471446" lon="9.849186298152352"><ele>43.5</ele><time>2026-04-29T11:20:27Z</time></trkpt><trkpt lat="45.04261974781294" lon="9.848828879251531"><ele>44.0</ele><time>2026-04-29T11:20:28Z</time></trkpt><trkpt lat="45.04253919690786" lon="9.848469915429096"><ele>43.5</ele><time>2026-04-29T11:20:29Z</time></trkpt><trkpt lat="45.042460593856255" lon="9.848108959495718"><ele>43.0</ele><time>2026-04-29T11:20:30Z</time></trkpt><trkpt lat="45.042381251029674" lon="9.847744344098187"><ele>43.5</ele><time>2026-04-29T11:20:31Z</time></trkpt><trkpt lat="45.0423025965587" lon="9.84737808815038"><ele>44.0</ele><time>2026-04-29T11:20:32Z</time></trkpt><trkpt lat="45.04222448838013" lon="9.847011908245099"><ele>44.0</ele><time>2026-04-29T11:20:33Z</time></trkpt><trkpt lat="45.04214630631534" lon="9.84664368320594"><ele>44.0</ele><time>2026-04-29T11:20:34Z</time></trkpt><trkpt lat="45.04206851518338" lon="9.846274816416292"><ele>44.0</ele><time>2026-04-29T11:20:35Z</time></trkpt><trkpt lat="45.04198827057271" lon="9.845910262641068"><ele>44.0</ele><time>2026-04-29T11:20:36Z</time></trkpt><trkpt lat="45.041906832024274" lon="9.845542465915662"><ele>44.0</ele><time>2026-04-29T11:20:37Z</time></trkpt><trkpt lat="45.04182736292271" lon="9.845172936869194"><ele>44.0</ele><time>2026-04-29T11:20:38Z</time></trkpt><trkpt lat="45.04174744480921" lon="9.844804211344872"><ele>43.5</ele><time>2026-04-29T11:20:39Z</time></trkpt><trkpt lat="45.04166773365524" lon="9.844435138609327"><ele>43.0</ele><time>2026-04-29T11:20:40Z</time></trkpt><trkpt lat="45.04159082129889" lon="9.84406801651799"><ele>43.0</ele><time>2026-04-29T11:20:41Z</time></trkpt><trkpt lat="45.041512241268386" lon="9.843706988536669"><ele>43.0</ele><time>2026-04-29T11:20:42Z</time></trkpt><trkpt lat="45.04143192379912" lon="9.843348205741314"><ele>44.5</ele><time>2026-04-29T11:20:43Z</time></trkpt><trkpt lat="45.04135199823829" lon="9.8429954841653"><ele>46.0</ele><time>2026-04-29T11:20:44Z</time></trkpt><trkpt lat="45.041274188954944" lon="9.84265073762509"><ele>45.5</ele><time>2026-04-29T11:20:45Z</time></trkpt><trkpt lat="45.04119960725862" lon="9.84231760036948"><ele>45.0</ele><time>2026-04-29T11:20:46Z</time></trkpt><trkpt lat="45.041128518089835" lon="9.8419964537154"><ele>45.5</ele><time>2026-04-29T11:20:47Z</time></trkpt><trkpt lat="45.04107478386898" lon="9.841673221227166"><ele>46.0</ele><time>2026-04-29T11:20:48Z</time></trkpt><trkpt lat="45.041012226479644" lon="9.841375298954857"><ele>46.0</ele><time>2026-04-29T11:20:49Z</time></trkpt><trkpt lat="45.040939125041525" lon="9.841094861598727"><ele>46.0</ele><time>2026-04-29T11:20:50Z</time></trkpt><trkpt lat="45.04091544923482" lon="9.840816785311292"><ele>46.0</ele><time>2026-04-29T11:20:51Z</time></trkpt><trkpt lat="45.04089475881648" lon="9.840548663889459"><ele>46.0</ele><time>2026-04-29T11:20:52Z</time></trkpt><trkpt lat="45.040876947754704" lon="9.84026428056198"><ele>46.0</ele><time>2026-04-29T11:20:53Z</time></trkpt><trkpt lat="45.04089419381547" lon="9.839955621521932"><ele>46.0</ele><time>2026-04-29T11:20:54Z</time></trkpt><trkpt lat="45.04092841009424" lon="9.839621097629147"><ele>45.5</ele><time>2026-04-29T11:20:55Z</time></trkpt><trkpt lat="45.04098104252545" lon="9.839271733532959"><ele>45.0</ele><time>2026-04-29T11:20:56Z</time></trkpt><trkpt lat="45.041051137678565" lon="9.838917130050897"><ele>45.0</ele><time>2026-04-29T11:20:57Z</time></trkpt><trkpt lat="45.041125649192274" lon="9.838573376449325"><ele>45.0</ele><time>2026-04-29T11:20:58Z</time></trkpt><trkpt lat="45.04119444236892" lon="9.838235674387068"><ele>45.0</ele><time>2026-04-29T11:20:59Z</time></trkpt><trkpt lat="45.04126415901225" lon="9.837891921103667"><ele>45.0</ele><time>2026-04-29T11:21:00Z</time></trkpt><trkpt lat="45.04132960675697" lon="9.83754273712865"><ele>44.5</ele><time>2026-04-29T11:21:01Z</time></trkpt><trkpt lat="45.04139127384893" lon="9.837192153357456"><ele>44.0</ele><time>2026-04-29T11:21:02Z</time></trkpt><trkpt lat="45.041452267287596" lon="9.83684081858442"><ele>43.5</ele><time>2026-04-29T11:21:03Z</time></trkpt><trkpt lat="45.04151170235458" lon="9.836484159421074"><ele>43.0</ele><time>2026-04-29T11:21:04Z</time></trkpt><trkpt lat="45.041578042272484" lon="9.836121127446122"><ele>43.0</ele><time>2026-04-29T11:21:05Z</time></trkpt><trkpt lat="45.04164592892943" lon="9.83575530814374"><ele>43.0</ele><time>2026-04-29T11:21:06Z</time></trkpt><trkpt lat="45.04171743183663" lon="9.83538517609907"><ele>43.0</ele><time>2026-04-29T11:21:07Z</time></trkpt><trkpt lat="45.041790558928795" lon="9.835013266609176"><ele>43.0</ele><time>2026-04-29T11:21:08Z</time></trkpt><trkpt lat="45.041862672449646" lon="9.834637447984166"><ele>43.0</ele><time>2026-04-29T11:21:09Z</time></trkpt><trkpt lat="45.04193016833192" lon="9.834260985303493"><ele>43.0</ele><time>2026-04-29T11:21:10Z</time></trkpt><trkpt lat="45.042001022058464" lon="9.833885757290703"><ele>43.0</ele><time>2026-04-29T11:21:11Z</time></trkpt><trkpt lat="45.04207554096792" lon="9.833510864839946"><ele>43.0</ele><time>2026-04-29T11:21:12Z</time></trkpt><trkpt lat="45.042147765765144" lon="9.83314071439403"><ele>42.5</ele><time>2026-04-29T11:21:13Z</time></trkpt><trkpt lat="45.0422184281003" lon="9.832773384901918"><ele>42.0</ele><time>2026-04-29T11:21:14Z</time></trkpt><trkpt lat="45.04228505515854" lon="9.832409759974368"><ele>42.0</ele><time>2026-04-29T11:21:15Z</time></trkpt><trkpt lat="45.04234391624167" lon="9.832046552237573"><ele>42.0</ele><time>2026-04-29T11:21:16Z</time></trkpt><trkpt lat="45.04239917637" lon="9.831683347953467"><ele>42.0</ele><time>2026-04-29T11:21:17Z</time></trkpt><trkpt lat="45.042443458631084" lon="9.831318413792186"><ele>42.0</ele><time>2026-04-29T11:21:18Z</time></trkpt><trkpt lat="45.042476879004205" lon="9.830947373395022"><ele>43.5</ele><time>2026-04-29T11:21:19.001Z</time></trkpt><trkpt lat="45.04250234075701" lon="9.830583273970579"><ele>45.0</ele><time>2026-04-29T11:21:20.001Z</time></trkpt><trkpt lat="45.04251961803119" lon="9.830215698578199"><ele>43.5</ele><time>2026-04-29T11:21:21.001Z</time></trkpt><trkpt lat="45.04253860460547" lon="9.829851799055287"><ele>42.0</ele><time>2026-04-29T11:21:22.001Z</time></trkpt><trkpt lat="45.04255992815068" lon="9.829488208645731"><ele>42.0</ele><time>2026-04-29T11:21:23.001Z</time></trkpt><trkpt lat="45.04258198864902" lon="9.829121720574499"><ele>42.0</ele><time>2026-04-29T11:21:24.001Z</time></trkpt><trkpt lat="45.04260438389629" lon="9.82875544443476"><ele>43.5</ele><time>2026-04-29T11:21:25.001Z</time></trkpt><trkpt lat="45.04262826116093" lon="9.828392901418642"><ele>45.0</ele><time>2026-04-29T11:21:26.001Z</time></trkpt><trkpt lat="45.04265055378484" lon="9.828027770599556"><ele>45.0</ele><time>2026-04-29T11:21:27.001Z</time></trkpt><trkpt lat="45.042667404413116" lon="9.827665787480214"><ele>45.0</ele><time>2026-04-29T11:21:28.001Z</time></trkpt><trkpt lat="45.04268677158618" lon="9.8273035030404"><ele>45.0</ele><time>2026-04-29T11:21:29.001Z</time></trkpt><trkpt lat="45.042710222877474" lon="9.826939844779343"><ele>45.0</ele><time>2026-04-29T11:21:30.001Z</time></trkpt><trkpt lat="45.04273587593941" lon="9.826578408070025"><ele>45.0</ele><time>2026-04-29T11:21:31.001Z</time></trkpt><trkpt lat="45.042757751593385" lon="9.82621639769061"><ele>45.0</ele><time>2026-04-29T11:21:32.001Z</time></trkpt><trkpt lat="45.042777291860986" lon="9.825849838922199"><ele>45.0</ele><time>2026-04-29T11:21:33.001Z</time></trkpt><trkpt lat="45.042798572827046" lon="9.825488794840117"><ele>45.0</ele><time>2026-04-29T11:21:34.001Z</time></trkpt><trkpt lat="45.04282448297867" lon="9.825125022562162"><ele>46.0</ele><time>2026-04-29T11:21:35.001Z</time></trkpt><trkpt lat="45.04285202076703" lon="9.824764916551512"><ele>47.0</ele><time>2026-04-29T11:21:36.001Z</time></trkpt><trkpt lat="45.04287586954882" lon="9.824400854823674"><ele>46.5</ele><time>2026-04-29T11:21:37.001Z</time></trkpt><trkpt lat="45.042894517179136" lon="9.824036039617631"><ele>46.0</ele><time>2026-04-29T11:21:38.001Z</time></trkpt><trkpt lat="45.04291461834727" lon="9.823671635815439"><ele>46.0</ele><time>2026-04-29T11:21:39.001Z</time></trkpt><trkpt lat="45.042933770492155" lon="9.823308123358217"><ele>46.0</ele><time>2026-04-29T11:21:40.001Z</time></trkpt><trkpt lat="45.042953330639364" lon="9.822945071560774"><ele>47.0</ele><time>2026-04-29T11:21:41.001Z</time></trkpt><trkpt lat="45.042972440705384" lon="9.822581697320581"><ele>48.0</ele><time>2026-04-29T11:21:42.001Z</time></trkpt><trkpt lat="45.042994199201864" lon="9.822213322989564"><ele>48.0</ele><time>2026-04-29T11:21:43.001Z</time></trkpt><trkpt lat="45.04301544109775" lon="9.82184920646291"><ele>48.0</ele><time>2026-04-29T11:21:44.001Z</time></trkpt><trkpt lat="45.04303900728792" lon="9.82148283079267"><ele>48.0</ele><time>2026-04-29T11:21:44.999Z</time></trkpt><trkpt lat="45.043060010595354" lon="9.82111683430179"><ele>48.0</ele><time>2026-04-29T11:21:45.999Z</time></trkpt><trkpt lat="45.0430787179358" lon="9.820751255213398"><ele>47.0</ele><time>2026-04-29T11:21:46.999Z</time></trkpt><trkpt lat="45.04309698899297" lon="9.820386354601705"><ele>46.0</ele><time>2026-04-29T11:21:47.999Z</time></trkpt><trkpt lat="45.04311785226131" lon="9.820018070015115"><ele>45.5</ele><time>2026-04-29T11:21:48.999Z</time></trkpt><trkpt lat="45.04313889850757" lon="9.819648749054428"><ele>45.0</ele><time>2026-04-29T11:21:49.999Z</time></trkpt><trkpt lat="45.043167425112884" lon="9.819274185315532"><ele>45.0</ele><time>2026-04-29T11:21:50.999Z</time></trkpt><trkpt lat="45.0431867097675" lon="9.818906984454767"><ele>45.0</ele><time>2026-04-29T11:21:51.999Z</time></trkpt><trkpt lat="45.04321115486469" lon="9.818532810887305"><ele>44.0</ele><time>2026-04-29T11:21:52.999Z</time></trkpt><trkpt lat="45.043235904774065" lon="9.818171481631886"><ele>43.0</ele><time>2026-04-29T11:21:53.999Z</time></trkpt><trkpt lat="45.04325580795389" lon="9.817809185639266"><ele>42.5</ele><time>2026-04-29T11:21:54.999Z</time></trkpt><trkpt lat="45.04327867894063" lon="9.817447490770629"><ele>42.0</ele><time>2026-04-29T11:21:55.999Z</time></trkpt><trkpt lat="45.043301319757646" lon="9.817087441848363"><ele>43.5</ele><time>2026-04-29T11:21:56.999Z</time></trkpt><trkpt lat="45.043325081254274" lon="9.816728080681177"><ele>45.0</ele><time>2026-04-29T11:21:57.999Z</time></trkpt><trkpt lat="45.043345687821656" lon="9.81637869981427"><ele>45.0</ele><time>2026-04-29T11:21:58.999Z</time></trkpt><trkpt lat="45.04336403737339" lon="9.816037360923282"><ele>45.0</ele><time>2026-04-29T11:21:59.999Z</time></trkpt><trkpt lat="45.04338006153531" lon="9.815707878341113"><ele>45.5</ele><time>2026-04-29T11:22:00.999Z</time></trkpt><trkpt lat="45.04340041318554" lon="9.815377521219796"><ele>46.0</ele><time>2026-04-29T11:22:01.999Z</time></trkpt><trkpt lat="45.043436930172454" lon="9.815047114471621"><ele>46.5</ele><time>2026-04-29T11:22:02.999Z</time></trkpt><trkpt lat="45.043456236530965" lon="9.814720783475973"><ele>47.0</ele><time>2026-04-29T11:22:03.999Z</time></trkpt><trkpt lat="45.04347416207846" lon="9.814398700278733"><ele>47.0</ele><time>2026-04-29T11:22:04.999Z</time></trkpt><trkpt lat="45.04349109763857" lon="9.814073130136743"><ele>47.0</ele><time>2026-04-29T11:22:05.999Z</time></trkpt><trkpt lat="45.043493902544625" lon="9.81374799973485"><ele>47.0</ele><time>2026-04-29T11:22:06.999Z</time></trkpt><trkpt lat="45.043512284799085" lon="9.813425934176143"><ele>47.0</ele><time>2026-04-29T11:22:08Z</time></trkpt><trkpt lat="45.04352877516986" lon="9.813116899538684"><ele>47.0</ele><time>2026-04-29T11:22:09Z</time></trkpt><trkpt lat="45.04354135762593" lon="9.812816967946398"><ele>47.666666666666664</ele><time>2026-04-29T11:22:10Z</time></trkpt><trkpt lat="45.04354893208501" lon="9.812524909827536"><ele>48.33333333333333</ele><time>2026-04-29T11:22:11Z</time></trkpt><trkpt lat="45.04357483108102" lon="9.812228323084458"><ele>49.0</ele><time>2026-04-29T11:22:12Z</time></trkpt><trkpt lat="45.04358524476112" lon="9.81194057427856"><ele>48.666666666666664</ele><time>2026-04-29T11:22:13Z</time></trkpt><trkpt lat="45.04359610758308" lon="9.811635032342942"><ele>48.33333333333333</ele><time>2026-04-29T11:22:14Z</time></trkpt><trkpt lat="45.04360762265077" lon="9.811306331610886"><ele>48.0</ele><time>2026-04-29T11:22:15Z</time></trkpt><trkpt lat="45.043587121869095" lon="9.810961145362427"><ele>48.0</ele><time>2026-04-29T11:22:16Z</time></trkpt><trkpt lat="45.04360158483502" lon="9.810612237200775"><ele>48.0</ele><time>2026-04-29T11:22:17Z</time></trkpt><trkpt lat="45.043621771252596" lon="9.810253506203795"><ele>47.5</ele><time>2026-04-29T11:22:18Z</time></trkpt><trkpt lat="45.043646861685914" lon="9.80989508316144"><ele>47.0</ele><time>2026-04-29T11:22:19Z</time></trkpt><trkpt lat="45.043666468456955" lon="9.809537390552718"><ele>47.0</ele><time>2026-04-29T11:22:20Z</time></trkpt><trkpt lat="45.043679924840106" lon="9.809180102803415"><ele>47.0</ele><time>2026-04-29T11:22:21Z</time></trkpt><trkpt lat="45.04369198210331" lon="9.80882653706002"><ele>47.5</ele><time>2026-04-29T11:22:22Z</time></trkpt><trkpt lat="45.04370137217757" lon="9.80847017357249"><ele>48.0</ele><time>2026-04-29T11:22:23Z</time></trkpt><trkpt lat="45.04371081708188" lon="9.80811325829686"><ele>48.0</ele><time>2026-04-29T11:22:24Z</time></trkpt><trkpt lat="45.04372109123816" lon="9.80776200025238"><ele>48.0</ele><time>2026-04-29T11:22:25Z</time></trkpt><trkpt lat="45.043732373079386" lon="9.807413121606167"><ele>49.0</ele><time>2026-04-29T11:22:26Z</time></trkpt><trkpt lat="45.043743259163946" lon="9.807066157574184"><ele>50.0</ele><time>2026-04-29T11:22:27Z</time></trkpt><trkpt lat="45.04375077912759" lon="9.806724903881468"><ele>51.0</ele><time>2026-04-29T11:22:28Z</time></trkpt><trkpt lat="45.043760673555816" lon="9.806380300594796"><ele>52.0</ele><time>2026-04-29T11:22:29Z</time></trkpt><trkpt lat="45.04377088296054" lon="9.80603912454183"><ele>51.5</ele><time>2026-04-29T11:22:30Z</time></trkpt><trkpt lat="45.0437826896877" lon="9.805702341467573"><ele>51.0</ele><time>2026-04-29T11:22:31Z</time></trkpt><trkpt lat="45.04379484265061" lon="9.805367709683233"><ele>49.5</ele><time>2026-04-29T11:22:32Z</time></trkpt><trkpt lat="45.043807280303646" lon="9.805033295066524"><ele>48.0</ele><time>2026-04-29T11:22:33Z</time></trkpt><trkpt lat="45.04382071856392" lon="9.804704308413726"><ele>48.0</ele><time>2026-04-29T11:22:34Z</time></trkpt><trkpt lat="45.04383209597017" lon="9.804373369862434"><ele>48.0</ele><time>2026-04-29T11:22:35Z</time></trkpt><trkpt lat="45.04384322098039" lon="9.804043494294447"><ele>48.0</ele><time>2026-04-29T11:22:36Z</time></trkpt><trkpt lat="45.04385515438045" lon="9.803712641768074"><ele>48.0</ele><time>2026-04-29T11:22:37Z</time></trkpt><trkpt lat="45.0438665745777" lon="9.80338253408876"><ele>48.5</ele><time>2026-04-29T11:22:38Z</time></trkpt><trkpt lat="45.04387441762681" lon="9.80305541304069"><ele>49.0</ele><time>2026-04-29T11:22:39Z</time></trkpt><trkpt lat="45.043888695376445" lon="9.80272146191383"><ele>48.666666666666664</ele><time>2026-04-29T11:22:40Z</time></trkpt><trkpt lat="45.04389971579264" lon="9.80239877504784"><ele>48.33333333333333</ele><time>2026-04-29T11:22:41Z</time></trkpt><trkpt lat="45.04390960939604" lon="9.802093298041454"><ele>48.0</ele><time>2026-04-29T11:22:42Z</time></trkpt><trkpt lat="45.04391855474453" lon="9.801802144583773"><ele>47.666666666666664</ele><time>2026-04-29T11:22:43Z</time></trkpt><trkpt lat="45.043928575776526" lon="9.801541552219195"><ele>47.33333333333333</ele><time>2026-04-29T11:22:44Z</time></trkpt><trkpt lat="45.043940257035054" lon="9.801287350070167"><ele>47.0</ele><time>2026-04-29T11:22:45Z</time></trkpt><trkpt lat="45.04397409166889" lon="9.801042650915875"><ele>46.33333333333333</ele><time>2026-04-29T11:22:46Z</time></trkpt><trkpt lat="45.043991038286066" lon="9.800802702993064"><ele>45.666666666666664</ele><time>2026-04-29T11:22:47Z</time></trkpt><trkpt lat="45.04399251043397" lon="9.80056843737083"><ele>45.0</ele><time>2026-04-29T11:22:48Z</time></trkpt><trkpt lat="45.04400899362141" lon="9.800351447849389"><ele>46.66666666666667</ele><time>2026-04-29T11:22:49Z</time></trkpt><trkpt lat="45.044020384521346" lon="9.800135507647704"><ele>48.333333333333336</ele><time>2026-04-29T11:22:50Z</time></trkpt><trkpt lat="45.0440399835872" lon="9.799916930995975"><ele>50.0</ele><time>2026-04-29T11:22:51Z</time></trkpt><trkpt lat="45.044005611788066" lon="9.799708076144734"><ele>50.0</ele><time>2026-04-29T11:22:52Z</time></trkpt><trkpt lat="45.04398312954788" lon="9.799487798391198"><ele>50.0</ele><time>2026-04-29T11:22:53Z</time></trkpt><trkpt lat="45.043959952070935" lon="9.799242825300118"><ele>50.0</ele><time>2026-04-29T11:22:54Z</time></trkpt><trkpt lat="45.04395102870287" lon="9.798982198813578"><ele>50.0</ele><time>2026-04-29T11:22:55Z</time></trkpt><trkpt lat="45.043951094073485" lon="9.798730324048034"><ele>50.0</ele><time>2026-04-29T11:22:56Z</time></trkpt><trkpt lat="45.04395510861997" lon="9.798509769224426"><ele>50.0</ele><time>2026-04-29T11:22:57Z</time></trkpt><trkpt lat="45.043950456009014" lon="9.798306470777623"><ele>49.75</ele><time>2026-04-29T11:22:58Z</time></trkpt><trkpt lat="45.04394711036952" lon="9.798105008463622"><ele>49.5</ele><time>2026-04-29T11:22:59Z</time></trkpt><trkpt lat="45.043951558937515" lon="9.797928218976352"><ele>49.25</ele><time>2026-04-29T11:23:00.001Z</time></trkpt><trkpt lat="45.0439591572633" lon="9.797752651075792"><ele>49.0</ele><time>2026-04-29T11:23:01.001Z</time></trkpt><trkpt lat="45.043962701934575" lon="9.797582998984986"><ele>49.0</ele><time>2026-04-29T11:23:02.001Z</time></trkpt><trkpt lat="45.043969169584535" lon="9.797429617383635"><ele>49.0</ele><time>2026-04-29T11:23:03.001Z</time></trkpt><trkpt lat="45.04397607355106" lon="9.79730909170091"><ele>49.0</ele><time>2026-04-29T11:23:04.001Z</time></trkpt><trkpt lat="45.04399030709102" lon="9.797192143303286"><ele>49.0</ele><time>2026-04-29T11:23:05.001Z</time></trkpt><trkpt lat="45.04400318364003" lon="9.79703749702113"><ele>49.0</ele><time>2026-04-29T11:23:07.001Z</time></trkpt><trkpt lat="45.04404252015876" lon="9.796842882396863"><ele>49.0</ele><time>2026-04-29T11:23:09.001Z</time></trkpt><trkpt lat="45.04406162045644" lon="9.796733081586806"><ele>49.0</ele><time>2026-04-29T11:23:10.001Z</time></trkpt><trkpt lat="45.044084462606676" lon="9.796606062757082"><ele>49.0</ele><time>2026-04-29T11:23:11.001Z</time></trkpt><trkpt lat="45.04410235863252" lon="9.796467440968026"><ele>49.0</ele><time>2026-04-29T11:23:12.001Z</time></trkpt><trkpt lat="45.044119521182665" lon="9.79634567760479"><ele>49.0</ele><time>2026-04-29T11:23:13.001Z</time></trkpt><trkpt lat="45.04414840459571" lon="9.796206197986015"><ele>49.0</ele><time>2026-04-29T11:23:14.001Z</time></trkpt><trkpt lat="45.04417699211888" lon="9.796025194391534"><ele>49.0</ele><time>2026-04-29T11:23:15.001Z</time></trkpt><trkpt lat="45.044203146388284" lon="9.795828415515935"><ele>49.0</ele><time>2026-04-29T11:23:16.001Z</time></trkpt><trkpt lat="45.04422582379612" lon="9.795633218957478"><ele>49.0</ele><time>2026-04-29T11:23:17.001Z</time></trkpt><trkpt lat="45.04424312380831" lon="9.795427027550145"><ele>49.0</ele><time>2026-04-29T11:23:18.001Z</time></trkpt><trkpt lat="45.04425090940272" lon="9.795209047820254"><ele>49.0</ele><time>2026-04-29T11:23:19.001Z</time></trkpt><trkpt lat="45.04425100750744" lon="9.79497142853074"><ele>49.0</ele><time>2026-04-29T11:23:20.001Z</time></trkpt><trkpt lat="45.04423686566184" lon="9.79472299424972"><ele>49.0</ele><time>2026-04-29T11:23:21.001Z</time></trkpt><trkpt lat="45.04420364840235" lon="9.794461443475742"><ele>49.0</ele><time>2026-04-29T11:23:22.001Z</time></trkpt><trkpt lat="45.044159391105794" lon="9.794206892457307"><ele>49.0</ele><time>2026-04-29T11:23:23.001Z</time></trkpt><trkpt lat="45.04410197334167" lon="9.79392815888081"><ele>49.0</ele><time>2026-04-29T11:23:24.001Z</time></trkpt><trkpt lat="45.044035313057925" lon="9.793639551157945"><ele>49.0</ele><time>2026-04-29T11:23:25.001Z</time></trkpt><trkpt lat="45.043958400554594" lon="9.793343639447166"><ele>49.0</ele><time>2026-04-29T11:23:26.001Z</time></trkpt><trkpt lat="45.04388009979817" lon="9.793043745304121"><ele>49.0</ele><time>2026-04-29T11:23:27.001Z</time></trkpt><trkpt lat="45.04380120415053" lon="9.792730255874224"><ele>49.0</ele><time>2026-04-29T11:23:28.001Z</time></trkpt><trkpt lat="45.043730595066236" lon="9.792443226428318"><ele>49.0</ele><time>2026-04-29T11:23:29.001Z</time></trkpt><trkpt lat="45.04365936333773" lon="9.792155509329758"><ele>49.0</ele><time>2026-04-29T11:23:30.001Z</time></trkpt><trkpt lat="45.043587082506654" lon="9.79187008779278"><ele>49.0</ele><time>2026-04-29T11:23:31.001Z</time></trkpt><trkpt lat="45.04351542241979" lon="9.791578666019758"><ele>49.0</ele><time>2026-04-29T11:23:32.001Z</time></trkpt><trkpt lat="45.04344790158169" lon="9.791281554321008"><ele>49.0</ele><time>2026-04-29T11:23:33.001Z</time></trkpt><trkpt lat="45.04337981121489" lon="9.7909681153495"><ele>48.0</ele><time>2026-04-29T11:23:34.001Z</time></trkpt><trkpt lat="45.04332437255207" lon="9.790640105747825"><ele>47.0</ele><time>2026-04-29T11:23:35.001Z</time></trkpt><trkpt lat="45.04326959676791" lon="9.79031179075943"><ele>47.5</ele><time>2026-04-29T11:23:36.001Z</time></trkpt><trkpt lat="45.04322312961175" lon="9.789994495427507"><ele>48.0</ele><time>2026-04-29T11:23:37.001Z</time></trkpt><trkpt lat="45.04317958609752" lon="9.789686068796797"><ele>48.0</ele><time>2026-04-29T11:23:38.001Z</time></trkpt><trkpt lat="45.04314041882013" lon="9.789380222940949"><ele>48.0</ele><time>2026-04-29T11:23:39.001Z</time></trkpt><trkpt lat="45.04310057526041" lon="9.789078989816304"><ele>48.0</ele><time>2026-04-29T11:23:40.001Z</time></trkpt><trkpt lat="45.04305653319571" lon="9.788778131844515"><ele>47.666666666666664</ele><time>2026-04-29T11:23:41.001Z</time></trkpt><trkpt lat="45.043013950797295" lon="9.788483575895084"><ele>47.33333333333333</ele><time>2026-04-29T11:23:42.001Z</time></trkpt><trkpt lat="45.04297221990677" lon="9.788188439628227"><ele>47.0</ele><time>2026-04-29T11:23:43.001Z</time></trkpt><trkpt lat="45.04293066210608" lon="9.787905093200886"><ele>47.0</ele><time>2026-04-29T11:23:44.001Z</time></trkpt><trkpt lat="45.0428907561809" lon="9.787625559023253"><ele>47.0</ele><time>2026-04-29T11:23:45.001Z</time></trkpt><trkpt lat="45.042853469717926" lon="9.787359951463271"><ele>47.0</ele><time>2026-04-29T11:23:46.001Z</time></trkpt><trkpt lat="45.042817292694515" lon="9.787101270991164"><ele>47.0</ele><time>2026-04-29T11:23:47.001Z</time></trkpt><trkpt lat="45.04278212423437" lon="9.786838623140872"><ele>47.0</ele><time>2026-04-29T11:23:48.001Z</time></trkpt><trkpt lat="45.04274162306513" lon="9.786561927220141"><ele>47.0</ele><time>2026-04-29T11:23:49.001Z</time></trkpt><trkpt lat="45.04269845154363" lon="9.786271731234256"><ele>47.0</ele><time>2026-04-29T11:23:50.001Z</time></trkpt><trkpt lat="45.04267619087312" lon="9.785973855484144"><ele>47.0</ele><time>2026-04-29T11:23:51Z</time></trkpt><trkpt lat="45.04264156837827" lon="9.78570306001838"><ele>47.0</ele><time>2026-04-29T11:23:52Z</time></trkpt><trkpt lat="45.042610484562026" lon="9.785460505856335"><ele>47.0</ele><time>2026-04-29T11:23:53Z</time></trkpt><trkpt lat="45.042583092856454" lon="9.785246761940481"><ele>47.0</ele><time>2026-04-29T11:23:54Z</time></trkpt><trkpt lat="45.04255637116707" lon="9.785038246364937"><ele>47.0</ele><time>2026-04-29T11:23:55Z</time></trkpt><trkpt lat="45.04252753042252" lon="9.784819040241453"><ele>47.0</ele><time>2026-04-29T11:23:56Z</time></trkpt><trkpt lat="45.04249218761451" lon="9.784557162301878"><ele>47.0</ele><time>2026-04-29T11:23:57Z</time></trkpt><trkpt lat="45.042451957419914" lon="9.784277672270523"><ele>47.0</ele><time>2026-04-29T11:23:58Z</time></trkpt><trkpt lat="45.042407893235534" lon="9.78396158046662"><ele>48.0</ele><time>2026-04-29T11:23:59Z</time></trkpt><trkpt lat="45.04237312019775" lon="9.783672733281742"><ele>49.0</ele><time>2026-04-29T11:24:00Z</time></trkpt><trkpt lat="45.04234170946249" lon="9.783405474726665"><ele>50.0</ele><time>2026-04-29T11:24:01Z</time></trkpt><trkpt lat="45.04230834966455" lon="9.783121636243255"><ele>50.0</ele><time>2026-04-29T11:24:02Z</time></trkpt><trkpt lat="45.04227193497036" lon="9.782793967543855"><ele>50.0</ele><time>2026-04-29T11:24:03Z</time></trkpt><trkpt lat="45.04223273781109" lon="9.782436173197555"><ele>49.5</ele><time>2026-04-29T11:24:04Z</time></trkpt><trkpt lat="45.04219064599947" lon="9.782051956283814"><ele>49.0</ele><time>2026-04-29T11:24:05Z</time></trkpt><trkpt lat="45.04214540631775" lon="9.781639005438132"><ele>48.5</ele><time>2026-04-29T11:24:06Z</time></trkpt><trkpt lat="45.04209776907791" lon="9.781204169553606"><ele>48.0</ele><time>2026-04-29T11:24:07Z</time></trkpt><trkpt lat="45.04205015148519" lon="9.780769511924829"><ele>47.5</ele><time>2026-04-29T11:24:08Z</time></trkpt><trkpt lat="45.04200635872602" lon="9.780369768909992"><ele>47.0</ele><time>2026-04-29T11:24:09Z</time></trkpt><trkpt lat="45.04196553904756" lon="9.779997163902696"><ele>46.5</ele><time>2026-04-29T11:24:10Z</time></trkpt><trkpt lat="45.041927318363165" lon="9.779647432362312"><ele>46.0</ele><time>2026-04-29T11:24:11Z</time></trkpt><trkpt lat="45.04187705172029" lon="9.779313174239052"><ele>46.0</ele><time>2026-04-29T11:24:12Z</time></trkpt><trkpt lat="45.04184919487006" lon="9.778990406372456"><ele>46.0</ele><time>2026-04-29T11:24:13Z</time></trkpt><trkpt lat="45.041816290956454" lon="9.77868204074894"><ele>46.66666666666667</ele><time>2026-04-29T11:24:14Z</time></trkpt><trkpt lat="45.041783859861226" lon="9.778390687534477"><ele>47.333333333333336</ele><time>2026-04-29T11:24:15Z</time></trkpt><trkpt lat="45.041754075562444" lon="9.778108696571712"><ele>48.0</ele><time>2026-04-29T11:24:16Z</time></trkpt><trkpt lat="45.04172368419387" lon="9.777841385127756"><ele>47.333333333333336</ele><time>2026-04-29T11:24:17Z</time></trkpt><trkpt lat="45.04169619724971" lon="9.777580459615377"><ele>46.66666666666667</ele><time>2026-04-29T11:24:18Z</time></trkpt><trkpt lat="45.041666872689426" lon="9.777319977809974"><ele>46.0</ele><time>2026-04-29T11:24:19Z</time></trkpt><trkpt lat="45.041639278019744" lon="9.777073913833133"><ele>46.333333333333336</ele><time>2026-04-29T11:24:20Z</time></trkpt><trkpt lat="45.041602233161576" lon="9.7768393052109"><ele>46.666666666666664</ele><time>2026-04-29T11:24:21Z</time></trkpt><trkpt lat="45.041566923950704" lon="9.77661735124902"><ele>47.0</ele><time>2026-04-29T11:24:22Z</time></trkpt><trkpt lat="45.04152765497595" lon="9.776403083209084"><ele>47.0</ele><time>2026-04-29T11:24:23Z</time></trkpt><trkpt lat="45.04148889858639" lon="9.776197441285222"><ele>47.0</ele><time>2026-04-29T11:24:24Z</time></trkpt><trkpt lat="45.04143500908267" lon="9.775993990279481"><ele>47.0</ele><time>2026-04-29T11:24:25Z</time></trkpt><trkpt lat="45.04137278734007" lon="9.7757874209698"><ele>47.666666666666664</ele><time>2026-04-29T11:24:26Z</time></trkpt><trkpt lat="45.04130781989069" lon="9.775587395889177"><ele>48.33333333333333</ele><time>2026-04-29T11:24:27Z</time></trkpt><trkpt lat="45.04123652126297" lon="9.77539799352127"><ele>49.0</ele><time>2026-04-29T11:24:28Z</time></trkpt><trkpt lat="45.0411629921567" lon="9.775210217108022"><ele>49.33333333333333</ele><time>2026-04-29T11:24:29Z</time></trkpt><trkpt lat="45.04107956190535" lon="9.775022398717708"><ele>49.66666666666667</ele><time>2026-04-29T11:24:30Z</time></trkpt><trkpt lat="45.04099227330167" lon="9.77482935660886"><ele>50.0</ele><time>2026-04-29T11:24:31Z</time></trkpt><trkpt lat="45.04090814588332" lon="9.774634322705467"><ele>50.0</ele><time>2026-04-29T11:24:32Z</time></trkpt><trkpt lat="45.0408126076461" lon="9.774441176957872"><ele>50.0</ele><time>2026-04-29T11:24:33Z</time></trkpt><trkpt lat="45.040710104326955" lon="9.774249193948815"><ele>50.0</ele><time>2026-04-29T11:24:34Z</time></trkpt><trkpt lat="45.04059987498318" lon="9.774063905420773"><ele>50.333333333333336</ele><time>2026-04-29T11:24:35Z</time></trkpt><trkpt lat="45.040485731350955" lon="9.773879651991008"><ele>50.66666666666667</ele><time>2026-04-29T11:24:36Z</time></trkpt><trkpt lat="45.040368563895946" lon="9.773687696480163"><ele>51.0</ele><time>2026-04-29T11:24:37Z</time></trkpt><trkpt lat="45.04025583126734" lon="9.773495715386106"><ele>51.0</ele><time>2026-04-29T11:24:38Z</time></trkpt><trkpt lat="45.040144170702014" lon="9.773307116746043"><ele>51.0</ele><time>2026-04-29T11:24:39Z</time></trkpt><trkpt lat="45.040038773736846" lon="9.773128800494218"><ele>51.0</ele><time>2026-04-29T11:24:40Z</time></trkpt><trkpt lat="45.03993620805687" lon="9.772959080158028"><ele>50.66666666666667</ele><time>2026-04-29T11:24:41Z</time></trkpt><trkpt lat="45.039831384244124" lon="9.772780419486534"><ele>50.333333333333336</ele><time>2026-04-29T11:24:42Z</time></trkpt><trkpt lat="45.03972343053937" lon="9.772596560292165"><ele>50.0</ele><time>2026-04-29T11:24:43Z</time></trkpt><trkpt lat="45.03959892807807" lon="9.7723944592657"><ele>50.0</ele><time>2026-04-29T11:24:44Z</time></trkpt><trkpt lat="45.03945789250094" lon="9.772167775576493"><ele>50.0</ele><time>2026-04-29T11:24:45Z</time></trkpt><trkpt lat="45.03932833062637" lon="9.771914140580755"><ele>50.0</ele><time>2026-04-29T11:24:46Z</time></trkpt><trkpt lat="45.03919928544473" lon="9.771688625087242"><ele>50.333333333333336</ele><time>2026-04-29T11:24:47.001Z</time></trkpt><trkpt lat="45.039064056624575" lon="9.771486995112776"><ele>50.66666666666667</ele><time>2026-04-29T11:24:48.001Z</time></trkpt><trkpt lat="45.038950495442336" lon="9.771276814287214"><ele>51.0</ele><time>2026-04-29T11:24:49.001Z</time></trkpt><trkpt lat="45.03884063828181" lon="9.771067346275968"><ele>51.0</ele><time>2026-04-29T11:24:50.001Z</time></trkpt><trkpt lat="45.038733928136956" lon="9.770865860574867"><ele>51.0</ele><time>2026-04-29T11:24:51.001Z</time></trkpt><trkpt lat="45.038637160358654" lon="9.77068194889412"><ele>51.0</ele><time>2026-04-29T11:24:52.001Z</time></trkpt><trkpt lat="45.03855115905946" lon="9.77048886203932"><ele>51.0</ele><time>2026-04-29T11:24:53.001Z</time></trkpt><trkpt lat="45.03847671204869" lon="9.770249005907731"><ele>51.0</ele><time>2026-04-29T11:24:54.001Z</time></trkpt><trkpt lat="45.038415734344106" lon="9.770058808142943"><ele>51.0</ele><time>2026-04-29T11:24:55.001Z</time></trkpt><trkpt lat="45.038371842738194" lon="9.76985080498895"><ele>51.0</ele><time>2026-04-29T11:24:56.001Z</time></trkpt><trkpt lat="45.038341156316434" lon="9.76964128397321"><ele>51.0</ele><time>2026-04-29T11:24:57.001Z</time></trkpt><trkpt lat="45.038326167221456" lon="9.769416900863119"><ele>51.0</ele><time>2026-04-29T11:24:58.001Z</time></trkpt><trkpt lat="45.038323143771414" lon="9.769170094117694"><ele>50.66666666666667</ele><time>2026-04-29T11:24:59.001Z</time></trkpt><trkpt lat="45.038344568306286" lon="9.768884723587496"><ele>50.333333333333336</ele><time>2026-04-29T11:25:00.001Z</time></trkpt><trkpt lat="45.03834949452116" lon="9.76862519257916"><ele>50.0</ele><time>2026-04-29T11:25:01.001Z</time></trkpt><trkpt lat="45.038375272010235" lon="9.768344747436844"><ele>50.333333333333336</ele><time>2026-04-29T11:25:02.001Z</time></trkpt><trkpt lat="45.03839582794047" lon="9.768067282184592"><ele>50.66666666666667</ele><time>2026-04-29T11:25:03.001Z</time></trkpt><trkpt lat="45.03841426753315" lon="9.767783150942794"><ele>51.0</ele><time>2026-04-29T11:25:04.001Z</time></trkpt><trkpt lat="45.0384313539561" lon="9.767497684794172"><ele>51.0</ele><time>2026-04-29T11:25:05.001Z</time></trkpt><trkpt lat="45.03845211120236" lon="9.76721570088828"><ele>51.0</ele><time>2026-04-29T11:25:06.001Z</time></trkpt><trkpt lat="45.03846670760862" lon="9.766894607886504"><ele>51.0</ele><time>2026-04-29T11:25:07.001Z</time></trkpt><trkpt lat="45.03849273897659" lon="9.766583960436607"><ele>50.33333333333333</ele><time>2026-04-29T11:25:08.001Z</time></trkpt><trkpt lat="45.038518819167734" lon="9.766268203726126"><ele>49.666666666666664</ele><time>2026-04-29T11:25:09.001Z</time></trkpt><trkpt lat="45.03853565576357" lon="9.765971041506573"><ele>49.0</ele><time>2026-04-29T11:25:10.001Z</time></trkpt><trkpt lat="45.0385578672969" lon="9.765671657457938"><ele>48.666666666666664</ele><time>2026-04-29T11:25:11.001Z</time></trkpt><trkpt lat="45.03857025709961" lon="9.765363821390627"><ele>48.33333333333333</ele><time>2026-04-29T11:25:12.001Z</time></trkpt><trkpt lat="45.03859008199568" lon="9.765050103921022"><ele>48.0</ele><time>2026-04-29T11:25:13.001Z</time></trkpt><trkpt lat="45.03860916792948" lon="9.76473121529127"><ele>48.0</ele><time>2026-04-29T11:25:14.001Z</time></trkpt><trkpt lat="45.03862726199806" lon="9.764393724181751"><ele>48.0</ele><time>2026-04-29T11:25:15.001Z</time></trkpt><trkpt lat="45.038667914347144" lon="9.764046760760095"><ele>48.5</ele><time>2026-04-29T11:25:16.001Z</time></trkpt><trkpt lat="45.038693270131816" lon="9.763687950005787"><ele>49.0</ele><time>2026-04-29T11:25:17.001Z</time></trkpt><trkpt lat="45.03872268564864" lon="9.76332418337868"><ele>50.0</ele><time>2026-04-29T11:25:18.001Z</time></trkpt><trkpt lat="45.03875345719705" lon="9.762956442243397"><ele>51.0</ele><time>2026-04-29T11:25:19.001Z</time></trkpt><trkpt lat="45.038768776942554" lon="9.76258793373339"><ele>51.5</ele><time>2026-04-29T11:25:20.001Z</time></trkpt><trkpt lat="45.0388023155659" lon="9.762230810155138"><ele>52.0</ele><time>2026-04-29T11:25:21.001Z</time></trkpt><trkpt lat="45.03882851999242" lon="9.761883749222328"><ele>51.5</ele><time>2026-04-29T11:25:22.001Z</time></trkpt><trkpt lat="45.03884775962857" lon="9.76154590477286"><ele>51.0</ele><time>2026-04-29T11:25:23.001Z</time></trkpt><trkpt lat="45.03886169915544" lon="9.76120791855498"><ele>50.0</ele><time>2026-04-29T11:25:24.001Z</time></trkpt><trkpt lat="45.03887388190542" lon="9.760877380812557"><ele>49.0</ele><time>2026-04-29T11:25:25.001Z</time></trkpt><trkpt lat="45.03888457604838" lon="9.76056832471286"><ele>49.0</ele><time>2026-04-29T11:25:26.001Z</time></trkpt><trkpt lat="45.0388947659445" lon="9.76027673103052"><ele>49.0</ele><time>2026-04-29T11:25:27.001Z</time></trkpt><trkpt lat="45.03890105707901" lon="9.759997561609163"><ele>49.0</ele><time>2026-04-29T11:25:28.001Z</time></trkpt><trkpt lat="45.03892498392624" lon="9.759723840529022"><ele>49.0</ele><time>2026-04-29T11:25:29.001Z</time></trkpt><trkpt lat="45.038932927544515" lon="9.75945889941632"><ele>49.0</ele><time>2026-04-29T11:25:30.001Z</time></trkpt><trkpt lat="45.038946602211546" lon="9.759202316588517"><ele>49.0</ele><time>2026-04-29T11:25:31.001Z</time></trkpt><trkpt lat="45.03896733602048" lon="9.758951432793072"><ele>49.0</ele><time>2026-04-29T11:25:32.001Z</time></trkpt><trkpt lat="45.03899919606475" lon="9.758708466676124"><ele>49.0</ele><time>2026-04-29T11:25:33.001Z</time></trkpt><trkpt lat="45.03903899782402" lon="9.758462216784805"><ele>49.0</ele><time>2026-04-29T11:25:34.001Z</time></trkpt><trkpt lat="45.03908617136744" lon="9.75823091540938"><ele>49.0</ele><time>2026-04-29T11:25:35.001Z</time></trkpt><trkpt lat="45.039137970216686" lon="9.758021398644717"><ele>49.0</ele><time>2026-04-29T11:25:36.001Z</time></trkpt><trkpt lat="45.03919340829367" lon="9.757819889767163"><ele>49.0</ele><time>2026-04-29T11:25:37.001Z</time></trkpt><trkpt lat="45.039250396288786" lon="9.757631931408879"><ele>48.75</ele><time>2026-04-29T11:25:38.001Z</time></trkpt><trkpt lat="45.039306450682176" lon="9.757457442285997"><ele>48.5</ele><time>2026-04-29T11:25:39.001Z</time></trkpt><trkpt lat="45.039356037974045" lon="9.757309970340648"><ele>48.25</ele><time>2026-04-29T11:25:40.001Z</time></trkpt><trkpt lat="45.039410099677916" lon="9.757151546011531"><ele>48.0</ele><time>2026-04-29T11:25:41.001Z</time></trkpt><trkpt lat="45.03944475344015" lon="9.756997232079428"><ele>48.333333333333336</ele><time>2026-04-29T11:25:42.001Z</time></trkpt><trkpt lat="45.039499594179006" lon="9.756863096641506"><ele>48.66666666666667</ele><time>2026-04-29T11:25:43.001Z</time></trkpt><trkpt lat="45.03954669462231" lon="9.756738088378333"><ele>49.0</ele><time>2026-04-29T11:25:44.001Z</time></trkpt><trkpt lat="45.039591148170004" lon="9.756635400638904"><ele>49.333333333333336</ele><time>2026-04-29T11:25:45.001Z</time></trkpt><trkpt lat="45.03963859328357" lon="9.756560251069292"><ele>49.66666666666667</ele><time>2026-04-29T11:25:46.001Z</time></trkpt><trkpt lat="45.039688428693296" lon="9.756481640765342"><ele>50.0</ele><time>2026-04-29T11:25:47.001Z</time></trkpt><trkpt lat="45.03972817030759" lon="9.756397097459494"><ele>50.00000000000001</ele><time>2026-04-29T11:25:48.001Z</time></trkpt><trkpt lat="45.03975608551787" lon="9.756296043214126"><ele>50.0</ele><time>2026-04-29T11:25:49.002Z</time></trkpt><trkpt lat="45.03978123397954" lon="9.756192034937486"><ele>50.0</ele><time>2026-04-29T11:25:50.002Z</time></trkpt><trkpt lat="45.03978362675287" lon="9.756085167883903"><ele>50.0</ele><time>2026-04-29T11:25:51.002Z</time></trkpt><trkpt lat="45.039791907905915" lon="9.755964170950458"><ele>50.00000000000001</ele><time>2026-04-29T11:25:52.002Z</time></trkpt><trkpt lat="45.039813767118815" lon="9.755838962385715"><ele>50.0</ele><time>2026-04-29T11:25:53.002Z</time></trkpt><trkpt lat="45.03984931218457" lon="9.755707347516095"><ele>50.0</ele><time>2026-04-29T11:25:54.002Z</time></trkpt><trkpt lat="45.03989188273001" lon="9.755575962403391"><ele>50.0</ele><time>2026-04-29T11:25:55.002Z</time></trkpt><trkpt lat="45.0399274630176" lon="9.755443254852048"><ele>50.0</ele><time>2026-04-29T11:25:56.002Z</time></trkpt><trkpt lat="45.03995730326546" lon="9.755312671557727"><ele>50.0</ele><time>2026-04-29T11:25:57Z</time></trkpt><trkpt lat="45.039991953384906" lon="9.755174958905757"><ele>50.0</ele><time>2026-04-29T11:25:58Z</time></trkpt><trkpt lat="45.04002898226579" lon="9.755018804137913"><ele>49.75</ele><time>2026-04-29T11:25:59Z</time></trkpt><trkpt lat="45.040062712118946" lon="9.754866148786599"><ele>49.5</ele><time>2026-04-29T11:26:00Z</time></trkpt><trkpt lat="45.040095463860865" lon="9.754715289090795"><ele>49.25</ele><time>2026-04-29T11:26:01Z</time></trkpt><trkpt lat="45.04013118219567" lon="9.754548232344067"><ele>49.0</ele><time>2026-04-29T11:26:02Z</time></trkpt><trkpt lat="45.040164575242926" lon="9.754386513132605"><ele>49.0</ele><time>2026-04-29T11:26:03Z</time></trkpt><trkpt lat="45.04019331491372" lon="9.75422659537803"><ele>49.0</ele><time>2026-04-29T11:26:04Z</time></trkpt><trkpt lat="45.04023574827252" lon="9.754081557210304"><ele>49.0</ele><time>2026-04-29T11:26:05Z</time></trkpt><trkpt lat="45.040267091819466" lon="9.75392830816426"><ele>49.0</ele><time>2026-04-29T11:26:06Z</time></trkpt><trkpt lat="45.04030276447444" lon="9.75375047413255"><ele>49.0</ele><time>2026-04-29T11:26:07Z</time></trkpt><trkpt lat="45.04034013449356" lon="9.753557918557288"><ele>49.0</ele><time>2026-04-29T11:26:08Z</time></trkpt><trkpt lat="45.040381466982424" lon="9.753337832753246"><ele>49.0</ele><time>2026-04-29T11:26:09Z</time></trkpt><trkpt lat="45.04042746298117" lon="9.75308286065661"><ele>49.666666666666664</ele><time>2026-04-29T11:26:10Z</time></trkpt><trkpt lat="45.04047055724381" lon="9.752839679163204"><ele>50.33333333333333</ele><time>2026-04-29T11:26:11Z</time></trkpt><trkpt lat="45.04050764486557" lon="9.75262823579025"><ele>51.0</ele><time>2026-04-29T11:26:12Z</time></trkpt><trkpt lat="45.04052704571583" lon="9.752421531046899"><ele>51.0</ele><time>2026-04-29T11:26:13Z</time></trkpt><trkpt lat="45.04057709181977" lon="9.752231372889945"><ele>51.0</ele><time>2026-04-29T11:26:14Z</time></trkpt><trkpt lat="45.04061505776012" lon="9.752011939395006"><ele>51.0</ele><time>2026-04-29T11:26:15Z</time></trkpt><trkpt lat="45.04065219238442" lon="9.751796625705119"><ele>50.75</ele><time>2026-04-29T11:26:16Z</time></trkpt><trkpt lat="45.04067498010309" lon="9.751566501143898"><ele>50.5</ele><time>2026-04-29T11:26:17Z</time></trkpt><trkpt lat="45.04071241383499" lon="9.751375880438133"><ele>50.25</ele><time>2026-04-29T11:26:18Z</time></trkpt><trkpt lat="45.040740999019185" lon="9.751229006187174"><ele>50.0</ele><time>2026-04-29T11:26:19Z</time></trkpt><trkpt lat="45.040765386262855" lon="9.751105472173046"><ele>50.333333333333336</ele><time>2026-04-29T11:26:20Z</time></trkpt><trkpt lat="45.040797378923834" lon="9.750937720298014"><ele>50.66666666666667</ele><time>2026-04-29T11:26:22Z</time></trkpt><trkpt lat="45.040811809038466" lon="9.750850263275405"><ele>51.0</ele><time>2026-04-29T11:26:23Z</time></trkpt><trkpt lat="45.04083688527883" lon="9.750746238189768"><ele>51.33333333333333</ele><time>2026-04-29T11:26:24Z</time></trkpt><trkpt lat="45.04087487162607" lon="9.750639171883376"><ele>51.666666666666664</ele><time>2026-04-29T11:26:25Z</time></trkpt><trkpt lat="45.04092246872787" lon="9.750554818914111"><ele>52.0</ele><time>2026-04-29T11:26:26Z</time></trkpt><trkpt lat="45.04097201249541" lon="9.750480337334073"><ele>51.33333333333333</ele><time>2026-04-29T11:26:27Z</time></trkpt><trkpt lat="45.041012618362544" lon="9.750405599757189"><ele>50.666666666666664</ele><time>2026-04-29T11:26:28Z</time></trkpt><trkpt lat="45.04104196993342" lon="9.750309681940438"><ele>50.0</ele><time>2026-04-29T11:26:29Z</time></trkpt><trkpt lat="45.041061023438004" lon="9.750189571901918"><ele>49.33333333333333</ele><time>2026-04-29T11:26:30Z</time></trkpt><trkpt lat="45.041068012548926" lon="9.750046897311016"><ele>48.666666666666664</ele><time>2026-04-29T11:26:31Z</time></trkpt><trkpt lat="45.04106224596242" lon="9.749893499744338"><ele>48.0</ele><time>2026-04-29T11:26:32Z</time></trkpt><trkpt lat="45.041068025664266" lon="9.74974020199567"><ele>48.0</ele><time>2026-04-29T11:26:33Z</time></trkpt><trkpt lat="45.04109679524111" lon="9.74955718449005"><ele>48.0</ele><time>2026-04-29T11:26:34Z</time></trkpt><trkpt lat="45.041145598967425" lon="9.74934599645776"><ele>48.0</ele><time>2026-04-29T11:26:35Z</time></trkpt><trkpt lat="45.0411965916376" lon="9.749149211202107"><ele>48.0</ele><time>2026-04-29T11:26:36Z</time></trkpt><trkpt lat="45.04124823411264" lon="9.748965577157032"><ele>48.0</ele><time>2026-04-29T11:26:37Z</time></trkpt><trkpt lat="45.04129610997321" lon="9.74879863867579"><ele>48.0</ele><time>2026-04-29T11:26:38Z</time></trkpt><trkpt lat="45.04134560187634" lon="9.748641295879143"><ele>48.0</ele><time>2026-04-29T11:26:39Z</time></trkpt><trkpt lat="45.04139826332241" lon="9.748472555910812"><ele>48.0</ele><time>2026-04-29T11:26:40Z</time></trkpt><trkpt lat="45.0414561521583" lon="9.748275649014031"><ele>48.0</ele><time>2026-04-29T11:26:41Z</time></trkpt><trkpt lat="45.04151756958697" lon="9.748063626102201"><ele>48.0</ele><time>2026-04-29T11:26:42Z</time></trkpt><trkpt lat="45.041584738927" lon="9.747825383289383"><ele>48.0</ele><time>2026-04-29T11:26:43Z</time></trkpt><trkpt lat="45.04164547504461" lon="9.747593429841517"><ele>48.0</ele><time>2026-04-29T11:26:44Z</time></trkpt><trkpt lat="45.04170344223988" lon="9.747360853190031"><ele>48.0</ele><time>2026-04-29T11:26:45Z</time></trkpt><trkpt lat="45.04176981060443" lon="9.747106510681535"><ele>48.0</ele><time>2026-04-29T11:26:46.001Z</time></trkpt><trkpt lat="45.041838931095214" lon="9.746862457072037"><ele>49.0</ele><time>2026-04-29T11:26:47.001Z</time></trkpt><trkpt lat="45.04190159386799" lon="9.746640248790138"><ele>50.0</ele><time>2026-04-29T11:26:48.001Z</time></trkpt><trkpt lat="45.041954425672785" lon="9.746426118755586"><ele>51.0</ele><time>2026-04-29T11:26:49.001Z</time></trkpt><trkpt lat="45.04199097331193" lon="9.746202086845408"><ele>50.66666666666667</ele><time>2026-04-29T11:26:50.001Z</time></trkpt><trkpt lat="45.04201944876476" lon="9.745926690440848"><ele>50.333333333333336</ele><time>2026-04-29T11:26:51.001Z</time></trkpt><trkpt lat="45.042035890482836" lon="9.745611249826213"><ele>50.0</ele><time>2026-04-29T11:26:52.001Z</time></trkpt><trkpt lat="45.04206595780641" lon="9.745299010590843"><ele>50.333333333333336</ele><time>2026-04-29T11:26:53.001Z</time></trkpt><trkpt lat="45.04210056197151" lon="9.74499661667681"><ele>50.66666666666667</ele><time>2026-04-29T11:26:54.001Z</time></trkpt><trkpt lat="45.04213337402687" lon="9.744707332705698"><ele>51.0</ele><time>2026-04-29T11:26:55.001Z</time></trkpt><trkpt lat="45.0421657463949" lon="9.744427694740427"><ele>51.33333333333333</ele><time>2026-04-29T11:26:56.001Z</time></trkpt><trkpt lat="45.04219714905096" lon="9.744148518009776"><ele>51.666666666666664</ele><time>2026-04-29T11:26:57.001Z</time></trkpt><trkpt lat="45.042234359250074" lon="9.743865400271812"><ele>52.0</ele><time>2026-04-29T11:26:58.001Z</time></trkpt><trkpt lat="45.04227265154847" lon="9.743597654381576"><ele>52.0</ele><time>2026-04-29T11:26:59.001Z</time></trkpt><trkpt lat="45.04231100857087" lon="9.74335122327662"><ele>52.0</ele><time>2026-04-29T11:27:00.001Z</time></trkpt><trkpt lat="45.042357569301736" lon="9.743107799021676"><ele>52.0</ele><time>2026-04-29T11:27:01.001Z</time></trkpt><trkpt lat="45.04240619737707" lon="9.742880218943725"><ele>52.33333333333333</ele><time>2026-04-29T11:27:02.001Z</time></trkpt><trkpt lat="45.04245329378223" lon="9.7426623400148"><ele>52.66666666666667</ele><time>2026-04-29T11:27:03.001Z</time></trkpt><trkpt lat="45.04249163246198" lon="9.742458469168982"><ele>53.0</ele><time>2026-04-29T11:27:04.001Z</time></trkpt><trkpt lat="45.0425286149442" lon="9.74225868331586"><ele>53.0</ele><time>2026-04-29T11:27:05.001Z</time></trkpt><trkpt lat="45.042561926290375" lon="9.742079737561925"><ele>53.0</ele><time>2026-04-29T11:27:06.001Z</time></trkpt><trkpt lat="45.04259602148627" lon="9.741916802808145"><ele>53.0</ele><time>2026-04-29T11:27:07.001Z</time></trkpt><trkpt lat="45.042626824704456" lon="9.741765918845386"><ele>53.0</ele><time>2026-04-29T11:27:08.001Z</time></trkpt><trkpt lat="45.0426562885006" lon="9.741631858698803"><ele>53.0</ele><time>2026-04-29T11:27:09.001Z</time></trkpt><trkpt lat="45.04268002299788" lon="9.74152766575856"><ele>53.0</ele><time>2026-04-29T11:27:10.001Z</time></trkpt><trkpt lat="45.04270472016155" lon="9.741442657020764"><ele>53.0</ele><time>2026-04-29T11:27:11.001Z</time></trkpt><trkpt lat="45.04276586828621" lon="9.741309974303277"><ele>53.0</ele><time>2026-04-29T11:27:13.001Z</time></trkpt><trkpt lat="45.04284574795964" lon="9.741221562042854"><ele>53.0</ele><time>2026-04-29T11:27:15.001Z</time></trkpt><trkpt lat="45.04293721771855" lon="9.741165749315945"><ele>53.00000000000001</ele><time>2026-04-29T11:27:17.001Z</time></trkpt><trkpt lat="45.04293629656781" lon="9.741030796599878"><ele>53.0</ele><time>2026-04-29T11:27:18.001Z</time></trkpt><trkpt lat="45.042926093137005" lon="9.740929601768729"><ele>53.0</ele><time>2026-04-29T11:27:19.001Z</time></trkpt><trkpt lat="45.04290545298836" lon="9.740830196360129"><ele>53.0</ele><time>2026-04-29T11:27:20.001Z</time></trkpt><trkpt lat="45.0428879633332" lon="9.740741044464341"><ele>53.00000000000001</ele><time>2026-04-29T11:27:21.001Z</time></trkpt><trkpt lat="45.042883876756335" lon="9.740641359118985"><ele>53.0</ele><time>2026-04-29T11:27:22.001Z</time></trkpt><trkpt lat="45.04289170119864" lon="9.74050593822581"><ele>53.0</ele><time>2026-04-29T11:27:23.001Z</time></trkpt><trkpt lat="45.04291512287578" lon="9.740368238295533"><ele>53.0</ele><time>2026-04-29T11:27:24.001Z</time></trkpt><trkpt lat="45.04294574043758" lon="9.740197747234598"><ele>53.0</ele><time>2026-04-29T11:27:25.001Z</time></trkpt><trkpt lat="45.04298674918783" lon="9.739994560606252"><ele>53.0</ele><time>2026-04-29T11:27:26.001Z</time></trkpt><trkpt lat="45.0430367292684" lon="9.739809463868186"><ele>52.75</ele><time>2026-04-29T11:27:27.001Z</time></trkpt><trkpt lat="45.04307573640597" lon="9.739633687861955"><ele>52.5</ele><time>2026-04-29T11:27:28.001Z</time></trkpt><trkpt lat="45.043105635209756" lon="9.739471295073423"><ele>52.25</ele><time>2026-04-29T11:27:29.001Z</time></trkpt><trkpt lat="45.04313914207111" lon="9.739314769696204"><ele>52.0</ele><time>2026-04-29T11:27:30.001Z</time></trkpt><trkpt lat="45.043172238488154" lon="9.739153292588055"><ele>52.0</ele><time>2026-04-29T11:27:31.001Z</time></trkpt><trkpt lat="45.04320865502213" lon="9.738996721929416"><ele>52.0</ele><time>2026-04-29T11:27:32.001Z</time></trkpt><trkpt lat="45.043241167256504" lon="9.738829941156903"><ele>52.0</ele><time>2026-04-29T11:27:33.001Z</time></trkpt><trkpt lat="45.043280271226095" lon="9.73863302573606"><ele>52.0</ele><time>2026-04-29T11:27:34.001Z</time></trkpt><trkpt lat="45.04330482117839" lon="9.73848359065245"><ele>51.25</ele><time>2026-04-29T11:27:35.001Z</time></trkpt><trkpt lat="45.04333554806805" lon="9.738319110249376"><ele>50.5</ele><time>2026-04-29T11:27:36.001Z</time></trkpt><trkpt lat="45.04336619585795" lon="9.738154319367498"><ele>49.75</ele><time>2026-04-29T11:27:37.001Z</time></trkpt><trkpt lat="45.043398810825174" lon="9.737992215024978"><ele>49.0</ele><time>2026-04-29T11:27:38.001Z</time></trkpt><trkpt lat="45.04343444931317" lon="9.737819444310462"><ele>49.0</ele><time>2026-04-29T11:27:39.001Z</time></trkpt><trkpt lat="45.043470268561684" lon="9.73764288531188"><ele>49.0</ele><time>2026-04-29T11:27:40.001Z</time></trkpt><trkpt lat="45.043507798098744" lon="9.737466156922611"><ele>49.0</ele><time>2026-04-29T11:27:41.001Z</time></trkpt><trkpt lat="45.04354472211833" lon="9.737281887459092"><ele>49.0</ele><time>2026-04-29T11:27:42.001Z</time></trkpt><trkpt lat="45.043582997425574" lon="9.737092374031416"><ele>49.0</ele><time>2026-04-29T11:27:43.001Z</time></trkpt><trkpt lat="45.04362599503571" lon="9.73689645243175"><ele>49.0</ele><time>2026-04-29T11:27:44.001Z</time></trkpt><trkpt lat="45.043666181095865" lon="9.73669850775004"><ele>49.0</ele><time>2026-04-29T11:27:45.001Z</time></trkpt><trkpt lat="45.04370642399561" lon="9.736502567416505"><ele>49.0</ele><time>2026-04-29T11:27:46.001Z</time></trkpt><trkpt lat="45.04374208667575" lon="9.73631949968909"><ele>49.25</ele><time>2026-04-29T11:27:47.001Z</time></trkpt><trkpt lat="45.043774458652535" lon="9.736149122779771"><ele>49.5</ele><time>2026-04-29T11:27:48.001Z</time></trkpt><trkpt lat="45.04380418973777" lon="9.73598627070429"><ele>49.75</ele><time>2026-04-29T11:27:49.001Z</time></trkpt><trkpt lat="45.043838318460864" lon="9.7358258003221"><ele>50.0</ele><time>2026-04-29T11:27:50.001Z</time></trkpt><trkpt lat="45.04387530845609" lon="9.7356586341057"><ele>50.5</ele><time>2026-04-29T11:27:51.001Z</time></trkpt><trkpt lat="45.043906726930565" lon="9.735487697832314"><ele>51.0</ele><time>2026-04-29T11:27:52.002Z</time></trkpt><trkpt lat="45.043936875016485" lon="9.73531129133537"><ele>51.5</ele><time>2026-04-29T11:27:53.002Z</time></trkpt><trkpt lat="45.04397514228441" lon="9.73513989072943"><ele>52.0</ele><time>2026-04-29T11:27:54.002Z</time></trkpt><trkpt lat="45.04401426235885" lon="9.734966937365456"><ele>52.0</ele><time>2026-04-29T11:27:55.002Z</time></trkpt><trkpt lat="45.044041431907296" lon="9.734804446021514"><ele>52.0</ele><time>2026-04-29T11:27:56.002Z</time></trkpt><trkpt lat="45.04406825636593" lon="9.734643494827003"><ele>52.0</ele><time>2026-04-29T11:27:57.002Z</time></trkpt><trkpt lat="45.04409761370396" lon="9.734495392256978"><ele>52.0</ele><time>2026-04-29T11:27:58.002Z</time></trkpt><trkpt lat="45.04413425705174" lon="9.734338389471787"><ele>51.6</ele><time>2026-04-29T11:27:59.002Z</time></trkpt><trkpt lat="45.04416175234379" lon="9.734198863991857"><ele>51.2</ele><time>2026-04-29T11:28:00.002Z</time></trkpt><trkpt lat="45.044195544757166" lon="9.734053683599969"><ele>50.8</ele><time>2026-04-29T11:28:01.002Z</time></trkpt><trkpt lat="45.044226813137726" lon="9.73390340645599"><ele>50.4</ele><time>2026-04-29T11:28:02.002Z</time></trkpt><trkpt lat="45.044259100426345" lon="9.733744920217141"><ele>50.0</ele><time>2026-04-29T11:28:03Z</time></trkpt><trkpt lat="45.04428649093493" lon="9.733598142603123"><ele>49.6</ele><time>2026-04-29T11:28:04Z</time></trkpt><trkpt lat="45.04431472153342" lon="9.733454107096756"><ele>49.2</ele><time>2026-04-29T11:28:05Z</time></trkpt><trkpt lat="45.044341474238394" lon="9.733321111362422"><ele>48.8</ele><time>2026-04-29T11:28:06Z</time></trkpt><trkpt lat="45.04436636334793" lon="9.733200588593132"><ele>48.4</ele><time>2026-04-29T11:28:07Z</time></trkpt><trkpt lat="45.044391308172315" lon="9.733082819414415"><ele>48.0</ele><time>2026-04-29T11:28:08Z</time></trkpt><trkpt lat="45.04441217747927" lon="9.732972781952762"><ele>48.0</ele><time>2026-04-29T11:28:09Z</time></trkpt><trkpt lat="45.04443282164977" lon="9.732864052383368"><ele>48.0</ele><time>2026-04-29T11:28:10Z</time></trkpt><trkpt lat="45.04445115914417" lon="9.732768454731543"><ele>48.0</ele><time>2026-04-29T11:28:11Z</time></trkpt><trkpt lat="45.0444716142291" lon="9.732673894496573"><ele>48.0</ele><time>2026-04-29T11:28:12Z</time></trkpt><trkpt lat="45.04448808620148" lon="9.732587483928956"><ele>48.0</ele><time>2026-04-29T11:28:13Z</time></trkpt><trkpt lat="45.04453208707959" lon="9.73242467792356"><ele>48.0</ele><time>2026-04-29T11:28:15Z</time></trkpt><trkpt lat="45.04457981084256" lon="9.732305980372354"><ele>48.333333333333336</ele><time>2026-04-29T11:28:17Z</time></trkpt><trkpt lat="45.04464367305274" lon="9.732188525644643"><ele>48.66666666666667</ele><time>2026-04-29T11:28:21Z</time></trkpt><trkpt lat="45.04470723461726" lon="9.732113370618501"><ele>49.0</ele><time>2026-04-29T11:28:22Z</time></trkpt><trkpt lat="45.04473672934776" lon="9.732016471223675"><ele>49.333333333333336</ele><time>2026-04-29T11:28:23Z</time></trkpt><trkpt lat="45.04474054534231" lon="9.73190374553574"><ele>49.66666666666667</ele><time>2026-04-29T11:28:24Z</time></trkpt><trkpt lat="45.04472398194637" lon="9.73176985125561"><ele>50.0</ele><time>2026-04-29T11:28:25Z</time></trkpt><trkpt lat="45.0447070550973" lon="9.731631139091554"><ele>50.0</ele><time>2026-04-29T11:28:26Z</time></trkpt><trkpt lat="45.04471779657724" lon="9.731506009665237"><ele>50.0</ele><time>2026-04-29T11:28:27Z</time></trkpt><trkpt lat="45.04472827922445" lon="9.73140217768967"><ele>50.0</ele><time>2026-04-29T11:28:28Z</time></trkpt><trkpt lat="45.04476067529037" lon="9.731272650771833"><ele>50.0</ele><time>2026-04-29T11:28:29Z</time></trkpt><trkpt lat="45.04479086401759" lon="9.73113040277417"><ele>50.0</ele><time>2026-04-29T11:28:30Z</time></trkpt><trkpt lat="45.04481927308509" lon="9.730977194635942"><ele>50.6</ele><time>2026-04-29T11:28:31Z</time></trkpt><trkpt lat="45.04484771257557" lon="9.730824105541704"><ele>51.2</ele><time>2026-04-29T11:28:32Z</time></trkpt><trkpt lat="45.04487599509518" lon="9.730679757308542"><ele>51.8</ele><time>2026-04-29T11:28:33Z</time></trkpt><trkpt lat="45.044898671308445" lon="9.730547271171492"><ele>52.4</ele><time>2026-04-29T11:28:34Z</time></trkpt><trkpt lat="45.044927750464204" lon="9.730425314162757"><ele>53.0</ele><time>2026-04-29T11:28:35Z</time></trkpt><trkpt lat="45.04495504449836" lon="9.730294366290021"><ele>52.599999999999994</ele><time>2026-04-29T11:28:36Z</time></trkpt><trkpt lat="45.04498484415495" lon="9.730148056143063"><ele>52.199999999999996</ele><time>2026-04-29T11:28:37Z</time></trkpt><trkpt lat="45.04501062627031" lon="9.73000559785366"><ele>51.8</ele><time>2026-04-29T11:28:38Z</time></trkpt><trkpt lat="45.0450387075993" lon="9.729860227259625"><ele>51.4</ele><time>2026-04-29T11:28:39Z</time></trkpt><trkpt lat="45.04506495590127" lon="9.729718498788197"><ele>51.0</ele><time>2026-04-29T11:28:40Z</time></trkpt><trkpt lat="45.04509687704506" lon="9.729573545005154"><ele>51.0</ele><time>2026-04-29T11:28:41Z</time></trkpt><trkpt lat="45.045124230762546" lon="9.729439872328593"><ele>51.0</ele><time>2026-04-29T11:28:42Z</time></trkpt><trkpt lat="45.04514841588843" lon="9.729316358149958"><ele>51.0</ele><time>2026-04-29T11:28:43Z</time></trkpt><trkpt lat="45.04517193232681" lon="9.729194423381005"><ele>51.0</ele><time>2026-04-29T11:28:44Z</time></trkpt><trkpt lat="45.04520339313333" lon="9.72905918629132"><ele>51.0</ele><time>2026-04-29T11:28:45Z</time></trkpt><trkpt lat="45.045234444333936" lon="9.728931910074959"><ele>51.0</ele><time>2026-04-29T11:28:46Z</time></trkpt><trkpt lat="45.04526006194181" lon="9.7287909191657"><ele>51.0</ele><time>2026-04-29T11:28:47Z</time></trkpt><trkpt lat="45.045291235310366" lon="9.728646464016814"><ele>51.0</ele><time>2026-04-29T11:28:48Z</time></trkpt><trkpt lat="45.045318610423465" lon="9.728507760549387"><ele>51.0</ele><time>2026-04-29T11:28:49Z</time></trkpt><trkpt lat="45.045343447305605" lon="9.728367309825087"><ele>51.0</ele><time>2026-04-29T11:28:50Z</time></trkpt><trkpt lat="45.045368688173156" lon="9.728234156130329"><ele>51.0</ele><time>2026-04-29T11:28:51.001Z</time></trkpt><trkpt lat="45.04539453337002" lon="9.728103498324264"><ele>51.0</ele><time>2026-04-29T11:28:52.001Z</time></trkpt><trkpt lat="45.045423011036895" lon="9.727972362906264"><ele>51.0</ele><time>2026-04-29T11:28:53.001Z</time></trkpt><trkpt lat="45.0454479413779" lon="9.72784493356447"><ele>51.0</ele><time>2026-04-29T11:28:54.001Z</time></trkpt><trkpt lat="45.04546765565646" lon="9.727732408846753"><ele>51.0</ele><time>2026-04-29T11:28:55.001Z</time></trkpt><trkpt lat="45.04549245922005" lon="9.72762347642713"><ele>51.0</ele><time>2026-04-29T11:28:56.001Z</time></trkpt><trkpt lat="45.04551125220876" lon="9.727521997117066"><ele>51.0</ele><time>2026-04-29T11:28:57.001Z</time></trkpt><trkpt lat="45.045529029953954" lon="9.727424772402651"><ele>51.0</ele><time>2026-04-29T11:28:58.001Z</time></trkpt><trkpt lat="45.04555310375591" lon="9.727333811725272"><ele>51.0</ele><time>2026-04-29T11:28:59.001Z</time></trkpt><trkpt lat="45.04557395727296" lon="9.727243797953046"><ele>51.0</ele><time>2026-04-29T11:29:00.001Z</time></trkpt><trkpt lat="45.04560169449264" lon="9.727078776569046"><ele>51.0</ele><time>2026-04-29T11:29:02.001Z</time></trkpt><trkpt lat="45.04565862221471" lon="9.726938512783669"><ele>51.0</ele><time>2026-04-29T11:29:04.001Z</time></trkpt><trkpt lat="45.045731077595946" lon="9.726807244291459"><ele>51.0</ele><time>2026-04-29T11:29:06.001Z</time></trkpt><trkpt lat="45.04577521158613" lon="9.726740304453216"><ele>51.0</ele><time>2026-04-29T11:29:07.001Z</time></trkpt><trkpt lat="45.04582590123156" lon="9.726585833748308"><ele>51.0</ele><time>2026-04-29T11:29:09.001Z</time></trkpt><trkpt lat="45.04581736541467" lon="9.726490418021793"><ele>51.0</ele><time>2026-04-29T11:29:10.001Z</time></trkpt><trkpt lat="45.04579581190434" lon="9.72638689066643"><ele>51.0</ele><time>2026-04-29T11:29:11.001Z</time></trkpt><trkpt lat="45.04576288845809" lon="9.726269268192798"><ele>51.0</ele><time>2026-04-29T11:29:12.001Z</time></trkpt><trkpt lat="45.04574391413738" lon="9.726159512749383"><ele>51.0</ele><time>2026-04-29T11:29:13.001Z</time></trkpt><trkpt lat="45.045746145006184" lon="9.726039927570778"><ele>51.0</ele><time>2026-04-29T11:29:14.001Z</time></trkpt><trkpt lat="45.04575844561305" lon="9.725910360990756"><ele>51.0</ele><time>2026-04-29T11:29:15.001Z</time></trkpt><trkpt lat="45.045771137786495" lon="9.725770993460355"><ele>51.0</ele><time>2026-04-29T11:29:16.001Z</time></trkpt><trkpt lat="45.04578242757668" lon="9.725651931965876"><ele>51.0</ele><time>2026-04-29T11:29:17.001Z</time></trkpt><trkpt lat="45.04579729194398" lon="9.725522517676216"><ele>51.0</ele><time>2026-04-29T11:29:18.001Z</time></trkpt><trkpt lat="45.04581996826195" lon="9.72539466103618"><ele>51.0</ele><time>2026-04-29T11:29:19.001Z</time></trkpt><trkpt lat="45.045847645890746" lon="9.725264311469708"><ele>51.0</ele><time>2026-04-29T11:29:20.001Z</time></trkpt><trkpt lat="45.04587736377369" lon="9.725139043362185"><ele>51.0</ele><time>2026-04-29T11:29:21.001Z</time></trkpt><trkpt lat="45.04590608933551" lon="9.725009885485976"><ele>51.0</ele><time>2026-04-29T11:29:22.001Z</time></trkpt><trkpt lat="45.04592868710442" lon="9.72487418262706"><ele>51.199999999999996</ele><time>2026-04-29T11:29:23.001Z</time></trkpt><trkpt lat="45.045955605362664" lon="9.724720866951104"><ele>51.4</ele><time>2026-04-29T11:29:24.001Z</time></trkpt><trkpt lat="45.045985777701844" lon="9.724563526903324"><ele>51.6</ele><time>2026-04-29T11:29:25.001Z</time></trkpt><trkpt lat="45.04601373931954" lon="9.724416543555238"><ele>51.8</ele><time>2026-04-29T11:29:26.001Z</time></trkpt><trkpt lat="45.04603967469136" lon="9.724277934836739"><ele>52.0</ele><time>2026-04-29T11:29:27.001Z</time></trkpt><trkpt lat="45.046062994325126" lon="9.724152761439052"><ele>51.99999999999999</ele><time>2026-04-29T11:29:28.001Z</time></trkpt><trkpt lat="45.046084695446076" lon="9.724030325069638"><ele>52.0</ele><time>2026-04-29T11:29:29.001Z</time></trkpt><trkpt lat="45.04610978426418" lon="9.723901947242972"><ele>52.0</ele><time>2026-04-29T11:29:30.001Z</time></trkpt><trkpt lat="45.046137826710876" lon="9.72377649534321"><ele>52.0</ele><time>2026-04-29T11:29:31.001Z</time></trkpt><trkpt lat="45.04615840029349" lon="9.723657175639644"><ele>51.99999999999999</ele><time>2026-04-29T11:29:32.001Z</time></trkpt><trkpt lat="45.04618008242381" lon="9.72353940795527"><ele>52.0</ele><time>2026-04-29T11:29:33.001Z</time></trkpt><trkpt lat="45.04618931115155" lon="9.723419593991505"><ele>51.83333333333333</ele><time>2026-04-29T11:29:34.001Z</time></trkpt><trkpt lat="45.0461938159237" lon="9.723291170637566"><ele>51.666666666666664</ele><time>2026-04-29T11:29:35.001Z</time></trkpt><trkpt lat="45.04619314973352" lon="9.723173967438909"><ele>51.5</ele><time>2026-04-29T11:29:36.001Z</time></trkpt><trkpt lat="45.0461850553347" lon="9.723062982490582"><ele>51.33333333333333</ele><time>2026-04-29T11:29:37.001Z</time></trkpt><trkpt lat="45.04617415043957" lon="9.722968744569286"><ele>51.166666666666664</ele><time>2026-04-29T11:29:38.001Z</time></trkpt><trkpt lat="45.04615547043446" lon="9.722873755536215"><ele>51.0</ele><time>2026-04-29T11:29:39.001Z</time></trkpt><trkpt lat="45.04613558908615" lon="9.72276159572791"><ele>51.199999999999996</ele><time>2026-04-29T11:29:40.001Z</time></trkpt><trkpt lat="45.046131946705174" lon="9.722599415506844"><ele>51.4</ele><time>2026-04-29T11:29:42.001Z</time></trkpt><trkpt lat="45.04615572078418" lon="9.722457847116953"><ele>51.6</ele><time>2026-04-29T11:29:44.001Z</time></trkpt><trkpt lat="45.04616935641662" lon="9.722368838389222"><ele>51.8</ele><time>2026-04-29T11:29:45.001Z</time></trkpt><trkpt lat="45.046173009552916" lon="9.72222370612281"><ele>52.0</ele><time>2026-04-29T11:29:47.001Z</time></trkpt><trkpt lat="45.04606414605176" lon="9.72210342662089"><ele>52.0</ele><time>2026-04-29T11:29:49.001Z</time></trkpt><trkpt lat="45.04597832080856" lon="9.722035822767348"><ele>52.0</ele><time>2026-04-29T11:29:50.001Z</time></trkpt><trkpt lat="45.04589758380919" lon="9.721943413664729"><ele>52.0</ele><time>2026-04-29T11:29:51.001Z</time></trkpt><trkpt lat="45.04582922998222" lon="9.72183597036538"><ele>52.0</ele><time>2026-04-29T11:29:52.001Z</time></trkpt><trkpt lat="45.04575755991935" lon="9.721715883222378"><ele>52.0</ele><time>2026-04-29T11:29:53.001Z</time></trkpt><trkpt lat="45.04568459574577" lon="9.721586896742494"><ele>52.25</ele><time>2026-04-29T11:29:54.001Z</time></trkpt><trkpt lat="45.04560236781982" lon="9.72145362347963"><ele>52.5</ele><time>2026-04-29T11:29:55.002Z</time></trkpt><trkpt lat="45.04550955498934" lon="9.721323146831587"><ele>52.75</ele><time>2026-04-29T11:29:56.002Z</time></trkpt><trkpt lat="45.04542091055966" lon="9.721202508811064"><ele>53.0</ele><time>2026-04-29T11:29:57.002Z</time></trkpt><trkpt lat="45.045331607298905" lon="9.721096255099788"><ele>53.25</ele><time>2026-04-29T11:29:58.002Z</time></trkpt><trkpt lat="45.045231682293064" lon="9.720996103379854"><ele>53.5</ele><time>2026-04-29T11:29:59.002Z</time></trkpt><trkpt lat="45.04512875815841" lon="9.72090534236873"><ele>53.75</ele><time>2026-04-29T11:30:00.002Z</time></trkpt><trkpt lat="45.0450236074383" lon="9.720818997640768"><ele>54.0</ele><time>2026-04-29T11:30:01.002Z</time></trkpt><trkpt lat="45.044919467944595" lon="9.720731710983292"><ele>53.5</ele><time>2026-04-29T11:30:02.002Z</time></trkpt><trkpt lat="45.04481296964051" lon="9.720648530402016"><ele>53.0</ele><time>2026-04-29T11:30:03.002Z</time></trkpt><trkpt lat="45.04470299192644" lon="9.720563003581223"><ele>52.5</ele><time>2026-04-29T11:30:04.002Z</time></trkpt><trkpt lat="45.044576184015014" lon="9.720457007747026"><ele>52.0</ele><time>2026-04-29T11:30:05.002Z</time></trkpt><trkpt lat="45.04443243375246" lon="9.720344299343534"><ele>52.0</ele><time>2026-04-29T11:30:06.002Z</time></trkpt><trkpt lat="45.04429000201059" lon="9.720234225311088"><ele>52.0</ele><time>2026-04-29T11:30:07.002Z</time></trkpt><trkpt lat="45.04411650667098" lon="9.72010178736342"><ele>52.0</ele><time>2026-04-29T11:30:08.002Z</time></trkpt><trkpt lat="45.0439285213777" lon="9.719955419202048"><ele>52.33333333333333</ele><time>2026-04-29T11:30:09Z</time></trkpt><trkpt lat="45.0437395290547" lon="9.719813567737859"><ele>52.66666666666667</ele><time>2026-04-29T11:30:10Z</time></trkpt><trkpt lat="45.04356114335599" lon="9.719677656680709"><ele>53.0</ele><time>2026-04-29T11:30:11Z</time></trkpt><trkpt lat="45.04338797878489" lon="9.719543232327398"><ele>53.0</ele><time>2026-04-29T11:30:12Z</time></trkpt><trkpt lat="45.04321798845586" lon="9.719409702457211"><ele>53.0</ele><time>2026-04-29T11:30:13Z</time></trkpt><trkpt lat="45.04305033432526" lon="9.719272132385429"><ele>53.0</ele><time>2026-04-29T11:30:14Z</time></trkpt><trkpt lat="45.04288514775509" lon="9.719131571316426"><ele>53.0</ele><time>2026-04-29T11:30:15Z</time></trkpt><trkpt lat="45.04274028178086" lon="9.718982044894904"><ele>53.0</ele><time>2026-04-29T11:30:16Z</time></trkpt><trkpt lat="45.04260816091539" lon="9.718821427962672"><ele>53.0</ele><time>2026-04-29T11:30:17Z</time></trkpt><trkpt lat="45.042481246221264" lon="9.718647196009124"><ele>54.333333333333336</ele><time>2026-04-29T11:30:18Z</time></trkpt><trkpt lat="45.04236527221422" lon="9.718474414383333"><ele>55.66666666666667</ele><time>2026-04-29T11:30:19Z</time></trkpt><trkpt lat="45.0422594979629" lon="9.718315054503837"><ele>57.0</ele><time>2026-04-29T11:30:20Z</time></trkpt><trkpt lat="45.04215294375648" lon="9.718165645717898"><ele>57.0</ele><time>2026-04-29T11:30:21Z</time></trkpt><trkpt lat="45.04203853324894" lon="9.71800068102153"><ele>57.0</ele><time>2026-04-29T11:30:22Z</time></trkpt><trkpt lat="45.041923740437916" lon="9.717833958997996"><ele>57.0</ele><time>2026-04-29T11:30:23Z</time></trkpt><trkpt lat="45.04180962601028" lon="9.71766058861458"><ele>57.0</ele><time>2026-04-29T11:30:24Z</time></trkpt><trkpt lat="45.04169985386723" lon="9.717478212489532"><ele>57.0</ele><time>2026-04-29T11:30:25Z</time></trkpt><trkpt lat="45.04160178170962" lon="9.717310438729202"><ele>57.0</ele><time>2026-04-29T11:30:26Z</time></trkpt><trkpt lat="45.04152036837106" lon="9.717171921783384"><ele>56.6</ele><time>2026-04-29T11:30:27Z</time></trkpt><trkpt lat="45.04145779962565" lon="9.717039906580819"><ele>56.2</ele><time>2026-04-29T11:30:28Z</time></trkpt><trkpt lat="45.04140456375376" lon="9.716911783077403"><ele>55.8</ele><time>2026-04-29T11:30:29Z</time></trkpt><trkpt lat="45.041369789971185" lon="9.71678955797317"><ele>55.4</ele><time>2026-04-29T11:30:30Z</time></trkpt><trkpt lat="45.04135845144349" lon="9.716664566475952"><ele>55.0</ele><time>2026-04-29T11:30:31Z</time></trkpt><trkpt lat="45.041356778296255" lon="9.716522149348972"><ele>55.0</ele><time>2026-04-29T11:30:32Z</time></trkpt><trkpt lat="45.041371182299756" lon="9.716362049673599"><ele>55.0</ele><time>2026-04-29T11:30:33Z</time></trkpt><trkpt lat="45.04140623646895" lon="9.716202982262114"><ele>55.0</ele><time>2026-04-29T11:30:34Z</time></trkpt><trkpt lat="45.041465221155825" lon="9.716044664545985"><ele>55.0</ele><time>2026-04-29T11:30:35Z</time></trkpt><trkpt lat="45.04155158944166" lon="9.715863884908268"><ele>55.33333333333333</ele><time>2026-04-29T11:30:36Z</time></trkpt><trkpt lat="45.041646311994754" lon="9.715699193455771"><ele>55.66666666666667</ele><time>2026-04-29T11:30:37Z</time></trkpt><trkpt lat="45.04174056186582" lon="9.71552864200847"><ele>56.0</ele><time>2026-04-29T11:30:38Z</time></trkpt><trkpt lat="45.041847734736066" lon="9.715335107007341"><ele>56.333333333333336</ele><time>2026-04-29T11:30:39Z</time></trkpt><trkpt lat="45.041967376823926" lon="9.715131830480619"><ele>56.66666666666667</ele><time>2026-04-29T11:30:40Z</time></trkpt><trkpt lat="45.04207873829505" lon="9.714945096322253"><ele>57.0</ele><time>2026-04-29T11:30:41Z</time></trkpt><trkpt lat="45.042180804540116" lon="9.714763182765674"><ele>57.0</ele><time>2026-04-29T11:30:42Z</time></trkpt><trkpt lat="45.042276088141136" lon="9.714603312101735"><ele>57.0</ele><time>2026-04-29T11:30:43Z</time></trkpt><trkpt lat="45.04236729152047" lon="9.714451849301634"><ele>57.0</ele><time>2026-04-29T11:30:44Z</time></trkpt><trkpt lat="45.04244491001997" lon="9.714334209662344"><ele>57.0</ele><time>2026-04-29T11:30:45Z</time></trkpt><trkpt lat="45.04251277551319" lon="9.714247780519413"><ele>56.8</ele><time>2026-04-29T11:30:46Z</time></trkpt><trkpt lat="45.0425870893551" lon="9.714177545593929"><ele>56.6</ele><time>2026-04-29T11:30:47Z</time></trkpt><trkpt lat="45.042655545499656" lon="9.714092448065582"><ele>56.39999999999999</ele><time>2026-04-29T11:30:48Z</time></trkpt><trkpt lat="45.04271245087169" lon="9.713970624915332"><ele>56.199999999999996</ele><time>2026-04-29T11:30:49Z</time></trkpt><trkpt lat="45.04277383347828" lon="9.713807444488408"><ele>56.0</ele><time>2026-04-29T11:30:50Z</time></trkpt><trkpt lat="45.0428435398428" lon="9.713634373650406"><ele>56.199999999999996</ele><time>2026-04-29T11:30:51Z</time></trkpt><trkpt lat="45.04291824497042" lon="9.71348621473169"><ele>56.39999999999999</ele><time>2026-04-29T11:30:52Z</time></trkpt><trkpt lat="45.042991344580656" lon="9.713361631097314"><ele>56.6</ele><time>2026-04-29T11:30:53Z</time></trkpt><trkpt lat="45.043058620531774" lon="9.713246545261274"><ele>56.8</ele><time>2026-04-29T11:30:54Z</time></trkpt><trkpt lat="45.043123058237406" lon="9.71313875393248"><ele>57.0</ele><time>2026-04-29T11:30:55Z</time></trkpt><trkpt lat="45.04318157908328" lon="9.713033820793962"><ele>57.0</ele><time>2026-04-29T11:30:56Z</time></trkpt><trkpt lat="45.04323531315325" lon="9.712927440700367"><ele>57.0</ele><time>2026-04-29T11:30:57Z</time></trkpt><trkpt lat="45.043292130318825" lon="9.712818106884173"><ele>57.0</ele><time>2026-04-29T11:30:58Z</time></trkpt><trkpt lat="45.043350144502206" lon="9.712709024306498"><ele>57.0</ele><time>2026-04-29T11:30:59.001Z</time></trkpt><trkpt lat="45.04341460473502" lon="9.71260456987936"><ele>57.0</ele><time>2026-04-29T11:31:00.001Z</time></trkpt><trkpt lat="45.043474312216844" lon="9.712493575186192"><ele>57.0</ele><time>2026-04-29T11:31:01.001Z</time></trkpt><trkpt lat="45.04354783605143" lon="9.71239390482222"><ele>57.0</ele><time>2026-04-29T11:31:02.001Z</time></trkpt><trkpt lat="45.043609683270525" lon="9.712279956324647"><ele>57.0</ele><time>2026-04-29T11:31:03.001Z</time></trkpt><trkpt lat="45.04367087788215" lon="9.712141262408402"><ele>57.0</ele><time>2026-04-29T11:31:04.001Z</time></trkpt><trkpt lat="45.043763315976435" lon="9.712011862604967"><ele>57.0</ele><time>2026-04-29T11:31:05.001Z</time></trkpt><trkpt lat="45.043843048663625" lon="9.711819982013962"><ele>57.0</ele><time>2026-04-29T11:31:06.001Z</time></trkpt><trkpt lat="45.04390393199675" lon="9.711743784391698"><ele>57.0</ele><time>2026-04-29T11:31:07.001Z</time></trkpt><trkpt lat="45.04396458156042" lon="9.711635616487802"><ele>57.0</ele><time>2026-04-29T11:31:08.001Z</time></trkpt><trkpt lat="45.044019724759444" lon="9.71153395999392"><ele>57.0</ele><time>2026-04-29T11:31:09.001Z</time></trkpt><trkpt lat="45.04408054844722" lon="9.711425254874454"><ele>57.0</ele><time>2026-04-29T11:31:10.001Z</time></trkpt><trkpt lat="45.04415092768338" lon="9.711308351188036"><ele>56.75</ele><time>2026-04-29T11:31:11.001Z</time></trkpt><trkpt lat="45.04423863870108" lon="9.71118648147109"><ele>56.5</ele><time>2026-04-29T11:31:12.001Z</time></trkpt><trkpt lat="45.044316045505965" lon="9.711027700011172"><ele>56.25</ele><time>2026-04-29T11:31:13.001Z</time></trkpt><trkpt lat="45.04440644477087" lon="9.710875941006773"><ele>56.0</ele><time>2026-04-29T11:31:14.001Z</time></trkpt><trkpt lat="45.04449621373206" lon="9.710727611255361"><ele>56.0</ele><time>2026-04-29T11:31:15.001Z</time></trkpt><trkpt lat="45.04457615915512" lon="9.710581464545049"><ele>56.0</ele><time>2026-04-29T11:31:16.001Z</time></trkpt><trkpt lat="45.04465941373458" lon="9.710452835925897"><ele>56.0</ele><time>2026-04-29T11:31:17.001Z</time></trkpt><trkpt lat="45.04472316067155" lon="9.710323817724623"><ele>56.0</ele><time>2026-04-29T11:31:18.001Z</time></trkpt><trkpt lat="45.044784487278605" lon="9.71020215285073"><ele>56.16666666666667</ele><time>2026-04-29T11:31:19.001Z</time></trkpt><trkpt lat="45.04486034673191" lon="9.710105316061693"><ele>56.333333333333336</ele><time>2026-04-29T11:31:20.001Z</time></trkpt><trkpt lat="45.04491419629098" lon="9.71001294583517"><ele>56.5</ele><time>2026-04-29T11:31:21.001Z</time></trkpt><trkpt lat="45.04496129861781" lon="9.70993193135916"><ele>56.66666666666667</ele><time>2026-04-29T11:31:22.001Z</time></trkpt><trkpt lat="45.04500718085838" lon="9.709851607835347"><ele>56.833333333333336</ele><time>2026-04-29T11:31:23.001Z</time></trkpt><trkpt lat="45.04504101027068" lon="9.709757654056272"><ele>57.0</ele><time>2026-04-29T11:31:24.001Z</time></trkpt><trkpt lat="45.04509245033358" lon="9.709671923710545"><ele>57.0</ele><time>2026-04-29T11:31:25.001Z</time></trkpt><trkpt lat="45.045158579550716" lon="9.709589580159772"><ele>57.0</ele><time>2026-04-29T11:31:26.001Z</time></trkpt><trkpt lat="45.045213221810236" lon="9.709492050528041"><ele>57.0</ele><time>2026-04-29T11:31:27.001Z</time></trkpt><trkpt lat="45.04526260513531" lon="9.709405361838154"><ele>57.0</ele><time>2026-04-29T11:31:28.001Z</time></trkpt><trkpt lat="45.04529881666959" lon="9.709312580504706"><ele>57.0</ele><time>2026-04-29T11:31:29.001Z</time></trkpt><trkpt lat="45.045349341860124" lon="9.709231460344055"><ele>57.0</ele><time>2026-04-29T11:31:30.001Z</time></trkpt><trkpt lat="45.04539914568628" lon="9.709143896443393"><ele>57.0</ele><time>2026-04-29T11:31:31.001Z</time></trkpt><trkpt lat="45.04544677037798" lon="9.709074641897123"><ele>57.0</ele><time>2026-04-29T11:31:32.001Z</time></trkpt><trkpt lat="45.04552841721225" lon="9.70893925980464"><ele>57.0</ele><time>2026-04-29T11:31:34.001Z</time></trkpt><trkpt lat="45.04560354433253" lon="9.708805388189015"><ele>57.0</ele><time>2026-04-29T11:31:36.001Z</time></trkpt><trkpt lat="45.045675761847455" lon="9.70866860295023"><ele>57.0</ele><time>2026-04-29T11:31:38.001Z</time></trkpt><trkpt lat="45.04571626986843" lon="9.708597481781505"><ele>56.8</ele><time>2026-04-29T11:31:39.001Z</time></trkpt><trkpt lat="45.04579200952597" lon="9.708464515183092"><ele>56.6</ele><time>2026-04-29T11:31:41.001Z</time></trkpt><trkpt lat="45.045871767051295" lon="9.708330656868897"><ele>56.39999999999999</ele><time>2026-04-29T11:31:43.001Z</time></trkpt><trkpt lat="45.04591724977971" lon="9.708251689198498"><ele>56.199999999999996</ele><time>2026-04-29T11:31:44.001Z</time></trkpt><trkpt lat="45.045957561021126" lon="9.70817085792226"><ele>56.0</ele><time>2026-04-29T11:31:45.001Z</time></trkpt><trkpt lat="45.04600083072253" lon="9.708098217739572"><ele>56.333333333333336</ele><time>2026-04-29T11:31:46.001Z</time></trkpt><trkpt lat="45.04604151684145" lon="9.708027852901049"><ele>56.66666666666667</ele><time>2026-04-29T11:31:47.001Z</time></trkpt><trkpt lat="45.04608299826265" lon="9.70795252692435"><ele>57.0</ele><time>2026-04-29T11:31:48.001Z</time></trkpt><trkpt lat="45.046156730330836" lon="9.707822290816372"><ele>57.33333333333333</ele><time>2026-04-29T11:31:50.001Z</time></trkpt><trkpt lat="45.046204111584956" lon="9.707755438116155"><ele>57.666666666666664</ele><time>2026-04-29T11:31:51.001Z</time></trkpt><trkpt lat="45.04627647832398" lon="9.707627867382335"><ele>58.0</ele><time>2026-04-29T11:31:53.001Z</time></trkpt><trkpt lat="45.04632556175069" lon="9.707564720891659"><ele>57.99999999999999</ele><time>2026-04-29T11:31:54.001Z</time></trkpt><trkpt lat="45.046382402264335" lon="9.707517204064603"><ele>58.0</ele><time>2026-04-29T11:31:55.001Z</time></trkpt><trkpt lat="45.0464317770558" lon="9.707459476742471"><ele>58.0</ele><time>2026-04-29T11:32:00.001Z</time></trkpt><trkpt lat="45.04651379718322" lon="9.707360123491679"><ele>58.0</ele><time>2026-04-29T11:32:02.002Z</time></trkpt><trkpt lat="45.04656484568496" lon="9.707261122631106"><ele>57.99999999999999</ele><time>2026-04-29T11:32:03.002Z</time></trkpt><trkpt lat="45.046619350167745" lon="9.707137482422738"><ele>58.0</ele><time>2026-04-29T11:32:04.002Z</time></trkpt><trkpt lat="45.046670420673294" lon="9.707036172755101"><ele>57.49999999999999</ele><time>2026-04-29T11:32:05.002Z</time></trkpt><trkpt lat="45.046722864479825" lon="9.70693956518808"><ele>57.0</ele><time>2026-04-29T11:32:06.002Z</time></trkpt><trkpt lat="45.04676756956678" lon="9.706858275298854"><ele>56.5</ele><time>2026-04-29T11:32:07.002Z</time></trkpt><trkpt lat="45.046818263115746" lon="9.706773253498355"><ele>56.0</ele><time>2026-04-29T11:32:08.002Z</time></trkpt><trkpt lat="45.04686283838519" lon="9.706697045173174"><ele>55.49999999999999</ele><time>2026-04-29T11:32:09.002Z</time></trkpt><trkpt lat="45.04690389053209" lon="9.706623366310142"><ele>55.0</ele><time>2026-04-29T11:32:10.002Z</time></trkpt><trkpt lat="45.046966252411416" lon="9.706512613323861"><ele>54.99999999999999</ele><time>2026-04-29T11:32:12.002Z</time></trkpt><trkpt lat="45.04701104226654" lon="9.706428781522154"><ele>55.0</ele><time>2026-04-29T11:32:14.002Z</time></trkpt><trkpt lat="45.047058770384034" lon="9.70633805869981"><ele>55.0</ele><time>2026-04-29T11:32:15.999Z</time></trkpt><trkpt lat="45.04714425401805" lon="9.706259030953314"><ele>55.0</ele><time>2026-04-29T11:32:17.999Z</time></trkpt><trkpt lat="45.047178535175625" lon="9.706175606111545"><ele>54.99999999999999</ele><time>2026-04-29T11:32:18.999Z</time></trkpt><trkpt lat="45.04722329223815" lon="9.706109492205915"><ele>55.0</ele><time>2026-04-29T11:32:19.999Z</time></trkpt><trkpt lat="45.04731317867717" lon="9.70597982037953"><ele>55.49999999999999</ele><time>2026-04-29T11:32:21.999Z</time></trkpt><trkpt lat="45.047367282901895" lon="9.705897961672934"><ele>56.0</ele><time>2026-04-29T11:32:22.999Z</time></trkpt><trkpt lat="45.04742378024441" lon="9.705814406931525"><ele>56.5</ele><time>2026-04-29T11:32:23.999Z</time></trkpt><trkpt lat="45.04748015471613" lon="9.705733159734047"><ele>57.0</ele><time>2026-04-29T11:32:24.999Z</time></trkpt><trkpt lat="45.04753541447809" lon="9.705660348186903"><ele>57.49999999999999</ele><time>2026-04-29T11:32:25.999Z</time></trkpt><trkpt lat="45.04758097935571" lon="9.70558983044461"><ele>58.0</ele><time>2026-04-29T11:32:26.999Z</time></trkpt><trkpt lat="45.0476061289433" lon="9.70543889760096"><ele>57.99999999999999</ele><time>2026-04-29T11:32:28.999Z</time></trkpt><trkpt lat="45.04755203662155" lon="9.705339951550508"><ele>58.0</ele><time>2026-04-29T11:32:31Z</time></trkpt><trkpt lat="45.0474905946289" lon="9.705253010372997"><ele>58.0</ele><time>2026-04-29T11:32:34Z</time></trkpt><trkpt lat="45.04740207143613" lon="9.705292365023102"><ele>58.0</ele><time>2026-04-29T11:32:35Z</time></trkpt><trkpt lat="45.04732730782262" lon="9.70531144319786"><ele>57.99999999999999</ele><time>2026-04-29T11:32:37Z</time></trkpt><trkpt lat="45.04726525448721" lon="9.705226494578737"><ele>58.0</ele><time>2026-04-29T11:32:44Z</time></trkpt><trkpt lat="45.04722959284841" lon="9.70514741664488"><ele>57.599999999999994</ele><time>2026-04-29T11:32:45Z</time></trkpt><trkpt lat="45.04717975892252" lon="9.705046369406288"><ele>57.199999999999996</ele><time>2026-04-29T11:32:46Z</time></trkpt><trkpt lat="45.04712619660268" lon="9.704953661766227"><ele>56.8</ele><time>2026-04-29T11:32:47Z</time></trkpt><trkpt lat="45.04704652427428" lon="9.704834326616528"><ele>56.4</ele><time>2026-04-29T11:32:49Z</time></trkpt><trkpt lat="45.04695275524001" lon="9.704728059849685"><ele>56.0</ele><time>2026-04-29T11:32:51Z</time></trkpt><trkpt lat="45.04690109469774" lon="9.70463434711319"><ele>56.0</ele><time>2026-04-29T11:32:52Z</time></trkpt><trkpt lat="45.046822733294235" lon="9.704531930748688"><ele>55.99999999999999</ele><time>2026-04-29T11:32:53Z</time></trkpt><trkpt lat="45.04677453181094" lon="9.704427734989391"><ele>55.99999999999999</ele><time>2026-04-29T11:32:54Z</time></trkpt><trkpt lat="45.04673704864599" lon="9.704308672325798"><ele>56.0</ele><time>2026-04-29T11:32:55Z</time></trkpt><trkpt lat="45.04667951789999" lon="9.70422423045571"><ele>56.0</ele><time>2026-04-29T11:32:56Z</time></trkpt><trkpt lat="45.04662636253689" lon="9.704123088932977"><ele>56.00000000000001</ele><time>2026-04-29T11:32:57Z</time></trkpt><trkpt lat="45.04657259533135" lon="9.70403959945242"><ele>56.0</ele><time>2026-04-29T11:32:58Z</time></trkpt><trkpt lat="45.046533519068184" lon="9.70394618622414"><ele>56.0</ele><time>2026-04-29T11:32:59Z</time></trkpt><trkpt lat="45.04648255573211" lon="9.703862258670778"><ele>56.0</ele><time>2026-04-29T11:33:00Z</time></trkpt><trkpt lat="45.046434835022616" lon="9.703788146778802"><ele>56.00000000000001</ele><time>2026-04-29T11:33:01Z</time></trkpt><trkpt lat="45.046375764057814" lon="9.703662860875383"><ele>56.0</ele><time>2026-04-29T11:33:03Z</time></trkpt><trkpt lat="45.04632041117629" lon="9.703569461317748"><ele>56.0</ele><time>2026-04-29T11:33:05Z</time></trkpt><trkpt lat="45.04626302097601" lon="9.703477964644408"><ele>56.0</ele><time>2026-04-29T11:33:07Z</time></trkpt><trkpt lat="45.046214964278725" lon="9.703401348280536"><ele>56.0</ele><time>2026-04-29T11:33:09Z</time></trkpt><trkpt lat="45.04631221585709" lon="9.703468816663003"><ele>56.0</ele><time>2026-04-29T11:33:14.001Z</time></trkpt><trkpt lat="45.046143392389595" lon="9.702860165763433"><ele>56.4</ele><time>2026-04-29T11:33:42.001Z</time></trkpt><trkpt lat="45.046161193058595" lon="9.702741286246722"><ele>56.8</ele><time>2026-04-29T11:33:44.001Z</time></trkpt><trkpt lat="45.04616927963331" lon="9.702608295396637"><ele>57.199999999999996</ele><time>2026-04-29T11:33:47.001Z</time></trkpt><trkpt lat="45.046189182505465" lon="9.70243065107913"><ele>57.599999999999994</ele><time>2026-04-29T11:33:49.001Z</time></trkpt><trkpt lat="45.046205768302805" lon="9.702322528473152"><ele>58.0</ele><time>2026-04-29T11:33:50.001Z</time></trkpt><trkpt lat="45.04625311106348" lon="9.702208313411564"><ele>58.0</ele><time>2026-04-29T11:33:51.001Z</time></trkpt><trkpt lat="45.046260356980625" lon="9.702075907340165"><ele>58.0</ele><time>2026-04-29T11:33:52.001Z</time></trkpt><trkpt lat="45.04627873282538" lon="9.70193219700329"><ele>58.0</ele><time>2026-04-29T11:33:53.001Z</time></trkpt><trkpt lat="45.04631510251034" lon="9.701801436264658"><ele>58.0</ele><time>2026-04-29T11:33:54.001Z</time></trkpt><trkpt lat="45.04633396378856" lon="9.70167764155111"><ele>58.0</ele><time>2026-04-29T11:33:55.001Z</time></trkpt><trkpt lat="45.04635193517638" lon="9.701559687452571"><ele>58.33333333333333</ele><time>2026-04-29T11:33:56.001Z</time></trkpt><trkpt lat="45.04636998849053" lon="9.70144119687156"><ele>58.666666666666664</ele><time>2026-04-29T11:33:57.001Z</time></trkpt><trkpt lat="45.046389970921375" lon="9.701313767321864"><ele>59.0</ele><time>2026-04-29T11:33:58.001Z</time></trkpt><trkpt lat="45.04640998776517" lon="9.701185222813933"><ele>59.33333333333333</ele><time>2026-04-29T11:33:59.001Z</time></trkpt><trkpt lat="45.046428202196886" lon="9.701068252988913"><ele>59.666666666666664</ele><time>2026-04-29T11:34:00.001Z</time></trkpt><trkpt lat="45.04644296918981" lon="9.700973422046838"><ele>60.0</ele><time>2026-04-29T11:34:01.001Z</time></trkpt><trkpt lat="45.046466512644024" lon="9.700884018820249"><ele>60.333333333333336</ele><time>2026-04-29T11:34:03.001Z</time></trkpt><trkpt lat="45.04656914365518" lon="9.700906788319639"><ele>60.66666666666667</ele><time>2026-04-29T11:34:06.001Z</time></trkpt><trkpt lat="45.04662719369205" lon="9.700967561027051"><ele>61.0</ele><time>2026-04-29T11:34:07.001Z</time></trkpt><trkpt lat="45.046690253486894" lon="9.701027537777295"><ele>61.333333333333336</ele><time>2026-04-29T11:34:08.002Z</time></trkpt><trkpt lat="45.046761657990466" lon="9.701087482466688"><ele>61.66666666666667</ele><time>2026-04-29T11:34:09.002Z</time></trkpt><trkpt lat="45.0468490618019" lon="9.701140689710812"><ele>62.0</ele><time>2026-04-29T11:34:10.002Z</time></trkpt><trkpt lat="45.046966236441556" lon="9.701224029467019"><ele>61.0</ele><time>2026-04-29T11:34:11.002Z</time></trkpt><trkpt lat="45.04707824194246" lon="9.701306461845968"><ele>60.0</ele><time>2026-04-29T11:34:12.002Z</time></trkpt><trkpt lat="45.047168836346316" lon="9.701369354166205"><ele>59.0</ele><time>2026-04-29T11:34:13.002Z</time></trkpt><trkpt lat="45.04724714532807" lon="9.701445387042703"><ele>58.0</ele><time>2026-04-29T11:34:14.002Z</time></trkpt><trkpt lat="45.047322653180416" lon="9.70149406770461"><ele>57.0</ele><time>2026-04-29T11:34:15.002Z</time></trkpt><trkpt lat="45.047393733275186" lon="9.701537774481844"><ele>57.5</ele><time>2026-04-29T11:34:16.002Z</time></trkpt><trkpt lat="45.047469675272865" lon="9.701594899641949"><ele>58.0</ele><time>2026-04-29T11:34:17.002Z</time></trkpt><trkpt lat="45.047547743856995" lon="9.70165448544234"><ele>58.5</ele><time>2026-04-29T11:34:18.002Z</time></trkpt><trkpt lat="45.0476235734977" lon="9.70170641815512"><ele>59.0</ele><time>2026-04-29T11:34:19.002Z</time></trkpt><trkpt lat="45.04769254589051" lon="9.701743902368761"><ele>59.5</ele><time>2026-04-29T11:34:20.002Z</time></trkpt><trkpt lat="45.04777663757776" lon="9.701807032827249"><ele>60.0</ele><time>2026-04-29T11:34:20.999Z</time></trkpt><trkpt lat="45.04783914441987" lon="9.701861007572585"><ele>59.833333333333336</ele><time>2026-04-29T11:34:21.999Z</time></trkpt><trkpt lat="45.04788775515065" lon="9.70194140937731"><ele>59.66666666666667</ele><time>2026-04-29T11:34:23.999Z</time></trkpt><trkpt lat="45.04794819614337" lon="9.702014256214234"><ele>59.5</ele><time>2026-04-29T11:34:26.999Z</time></trkpt><trkpt lat="45.04790094283199" lon="9.70212722648943"><ele>59.333333333333336</ele><time>2026-04-29T11:34:28.999Z</time></trkpt><trkpt lat="45.04786960364801" lon="9.702267788571808"><ele>59.16666666666667</ele><time>2026-04-29T11:34:30.999Z</time></trkpt><trkpt lat="45.047841502187396" lon="9.702353697251029"><ele>59.0</ele><time>2026-04-29T11:34:31.999Z</time></trkpt><trkpt lat="45.04779617797211" lon="9.702451087763832"><ele>59.0</ele><time>2026-04-29T11:34:32.999Z</time></trkpt><trkpt lat="45.04776675875474" lon="9.702565455738283"><ele>59.00000000000001</ele><time>2026-04-29T11:34:33.999Z</time></trkpt><trkpt lat="45.04772435564068" lon="9.702694591888429"><ele>59.00000000000001</ele><time>2026-04-29T11:34:34.999Z</time></trkpt><trkpt lat="45.047697733921936" lon="9.702851920368522"><ele>59.0</ele><time>2026-04-29T11:34:35.999Z</time></trkpt><trkpt lat="45.047661854212606" lon="9.703000097806044"><ele>59.0</ele><time>2026-04-29T11:34:36.999Z</time></trkpt><trkpt lat="45.04763197655363" lon="9.703145835283047"><ele>59.00000000000001</ele><time>2026-04-29T11:34:37.999Z</time></trkpt><trkpt lat="45.047595617857226" lon="9.703270035869547"><ele>59.0</ele><time>2026-04-29T11:34:38.999Z</time></trkpt><trkpt lat="45.0475531720883" lon="9.703384132037547"><ele>59.0</ele><time>2026-04-29T11:34:39.999Z</time></trkpt><trkpt lat="45.04752834293714" lon="9.703496997594778"><ele>59.0</ele><time>2026-04-29T11:34:40.999Z</time></trkpt><trkpt lat="45.047506318926665" lon="9.703608241120559"><ele>59.00000000000001</ele><time>2026-04-29T11:34:41.999Z</time></trkpt><trkpt lat="45.04749894240055" lon="9.703718938254548"><ele>59.0</ele><time>2026-04-29T11:34:42.999Z</time></trkpt><trkpt lat="45.047480821696176" lon="9.703825503954723"><ele>59.16666666666667</ele><time>2026-04-29T11:34:43.999Z</time></trkpt><trkpt lat="45.0474637960222" lon="9.703931499332613"><ele>59.333333333333336</ele><time>2026-04-29T11:34:45Z</time></trkpt><trkpt lat="45.047454658914305" lon="9.704043942312422"><ele>59.5</ele><time>2026-04-29T11:34:46Z</time></trkpt><trkpt lat="45.04744546644041" lon="9.704150707760279"><ele>59.66666666666667</ele><time>2026-04-29T11:34:47Z</time></trkpt><trkpt lat="45.047439551511225" lon="9.704263011479712"><ele>59.833333333333336</ele><time>2026-04-29T11:34:48Z</time></trkpt><trkpt lat="45.047430590568965" lon="9.704372838410766"><ele>60.0</ele><time>2026-04-29T11:34:49Z</time></trkpt><trkpt lat="45.0474233500649" lon="9.704476211125707"><ele>59.333333333333336</ele><time>2026-04-29T11:34:50Z</time></trkpt><trkpt lat="45.04741701257466" lon="9.704576949111724"><ele>58.66666666666667</ele><time>2026-04-29T11:34:51Z</time></trkpt><trkpt lat="45.04741568416905" lon="9.704683088102403"><ele>58.0</ele><time>2026-04-29T11:34:52Z</time></trkpt><trkpt lat="45.047409451899426" lon="9.704784298958677"><ele>57.333333333333336</ele><time>2026-04-29T11:34:53Z</time></trkpt><trkpt lat="45.04740986933486" lon="9.704885760714571"><ele>56.66666666666667</ele><time>2026-04-29T11:34:54Z</time></trkpt><trkpt lat="45.047410151399184" lon="9.70497735833923"><ele>56.0</ele><time>2026-04-29T11:34:55Z</time></trkpt><trkpt lat="45.04739241661356" lon="9.705137575216417"><ele>56.333333333333336</ele><time>2026-04-29T11:34:57Z</time></trkpt><trkpt lat="45.04738208802101" lon="9.705258404625335"><ele>56.66666666666667</ele><time>2026-04-29T11:34:59Z</time></trkpt><trkpt lat="45.04734466138853" lon="9.705351246019669"><ele>57.0</ele><time>2026-04-29T11:35:01Z</time></trkpt><trkpt lat="45.047299554243885" lon="9.705452592068163"><ele>57.33333333333333</ele><time>2026-04-29T11:35:03Z</time></trkpt><trkpt lat="45.04725333111744" lon="9.70555588233506"><ele>57.666666666666664</ele><time>2026-04-29T11:35:05Z</time></trkpt><trkpt lat="45.047188867387526" lon="9.70567707481391"><ele>58.0</ele><time>2026-04-29T11:35:07Z</time></trkpt><trkpt lat="45.047101983196974" lon="9.705767239406931"><ele>58.0</ele><time>2026-04-29T11:35:09Z</time></trkpt><trkpt lat="45.04700662317601" lon="9.705776098068187"><ele>58.0</ele><time>2026-04-29T11:35:11Z</time></trkpt><trkpt lat="45.046898401335625" lon="9.705718157192168"><ele>58.0</ele><time>2026-04-29T11:35:13Z</time></trkpt><trkpt lat="45.04683102249199" lon="9.705660726581943"><ele>58.0</ele><time>2026-04-29T11:35:14Z</time></trkpt><trkpt lat="45.04676789653386" lon="9.705582450323329"><ele>58.0</ele><time>2026-04-29T11:35:15Z</time></trkpt><trkpt lat="45.04669863820606" lon="9.705498836276405"><ele>57.99999999999999</ele><time>2026-04-29T11:35:16Z</time></trkpt><trkpt lat="45.04663493242426" lon="9.705431628918461"><ele>58.0</ele><time>2026-04-29T11:35:17Z</time></trkpt><trkpt lat="45.04658754038876" lon="9.705359600683376"><ele>58.0</ele><time>2026-04-29T11:35:18Z</time></trkpt><trkpt lat="45.04651652437997" lon="9.705276120070764"><ele>58.0</ele><time>2026-04-29T11:35:19Z</time></trkpt><trkpt lat="45.046440483872686" lon="9.705181592139743"><ele>57.99999999999999</ele><time>2026-04-29T11:35:20Z</time></trkpt><trkpt lat="45.04636311083023" lon="9.70508824712784"><ele>58.0</ele><time>2026-04-29T11:35:21Z</time></trkpt><trkpt lat="45.04629057601209" lon="9.70498948754271"><ele>57.83333333333333</ele><time>2026-04-29T11:35:22Z</time></trkpt><trkpt lat="45.046219313689576" lon="9.70489986583033"><ele>57.666666666666664</ele><time>2026-04-29T11:35:23.001Z</time></trkpt><trkpt lat="45.046158002605274" lon="9.704813935213657"><ele>57.5</ele><time>2026-04-29T11:35:24.001Z</time></trkpt><trkpt lat="45.04610350264044" lon="9.70473177606527"><ele>57.33333333333333</ele><time>2026-04-29T11:35:25.001Z</time></trkpt><trkpt lat="45.04604623957558" lon="9.704662320935872"><ele>57.166666666666664</ele><time>2026-04-29T11:35:26.001Z</time></trkpt><trkpt lat="45.04598916400284" lon="9.704595411901106"><ele>57.0</ele><time>2026-04-29T11:35:27.001Z</time></trkpt><trkpt lat="45.045934193951744" lon="9.704532958244778"><ele>57.0</ele><time>2026-04-29T11:35:28.001Z</time></trkpt><trkpt lat="45.04588238326652" lon="9.704479039810396"><ele>57.0</ele><time>2026-04-29T11:35:29.001Z</time></trkpt><trkpt lat="45.0458172482625" lon="9.70436171504022"><ele>57.0</ele><time>2026-04-29T11:35:31.001Z</time></trkpt><trkpt lat="45.04576846781939" lon="9.70427368890045"><ele>57.0</ele><time>2026-04-29T11:35:36.001Z</time></trkpt><trkpt lat="45.0457298812255" lon="9.704191593048437"><ele>57.0</ele><time>2026-04-29T11:35:38.001Z</time></trkpt><trkpt lat="45.04569012494716" lon="9.704106541623386"><ele>57.0</ele><time>2026-04-29T11:35:40.001Z</time></trkpt><trkpt lat="45.045646841337856" lon="9.703976902192219"><ele>57.0</ele><time>2026-04-29T11:35:42.001Z</time></trkpt><trkpt lat="45.04552081939198" lon="9.703925009623058"><ele>57.0</ele><time>2026-04-29T11:35:44.001Z</time></trkpt><trkpt lat="45.04546918256183" lon="9.703862363367135"><ele>57.0</ele><time>2026-04-29T11:35:45.001Z</time></trkpt><trkpt lat="45.04539521537269" lon="9.703815107110017"><ele>57.0</ele><time>2026-04-29T11:35:46.001Z</time></trkpt><trkpt lat="45.04531931183104" lon="9.703718678827059"><ele>57.0</ele><time>2026-04-29T11:35:47.001Z</time></trkpt><trkpt lat="45.04524541087302" lon="9.703592131896897"><ele>57.0</ele><time>2026-04-29T11:35:48.001Z</time></trkpt><trkpt lat="45.045148311334266" lon="9.703494792313377"><ele>57.0</ele><time>2026-04-29T11:35:49.001Z</time></trkpt><trkpt lat="45.045085328812846" lon="9.703370441204855"><ele>57.0</ele><time>2026-04-29T11:35:50.001Z</time></trkpt><trkpt lat="45.044992936849916" lon="9.703258502836876"><ele>57.0</ele><time>2026-04-29T11:35:51.001Z</time></trkpt><trkpt lat="45.044904537559304" lon="9.703157027386792"><ele>56.833333333333336</ele><time>2026-04-29T11:35:52.001Z</time></trkpt><trkpt lat="45.04482789447589" lon="9.703056183867393"><ele>56.66666666666667</ele><time>2026-04-29T11:35:53.001Z</time></trkpt><trkpt lat="45.04476124014888" lon="9.702959450984663"><ele>56.5</ele><time>2026-04-29T11:35:54.001Z</time></trkpt><trkpt lat="45.04470351826826" lon="9.702874069273852"><ele>56.333333333333336</ele><time>2026-04-29T11:35:55.001Z</time></trkpt><trkpt lat="45.04465598807204" lon="9.702800521116918"><ele>56.16666666666667</ele><time>2026-04-29T11:35:56.001Z</time></trkpt><trkpt lat="45.0446031769982" lon="9.702734874653444"><ele>56.0</ele><time>2026-04-29T11:35:57.001Z</time></trkpt><trkpt lat="45.04454477467163" lon="9.702679095810643"><ele>56.333333333333336</ele><time>2026-04-29T11:35:58.001Z</time></trkpt><trkpt lat="45.044495388173324" lon="9.702604349163154"><ele>56.66666666666667</ele><time>2026-04-29T11:35:59.001Z</time></trkpt><trkpt lat="45.044435144505684" lon="9.7025330197365"><ele>57.0</ele><time>2026-04-29T11:36:00.001Z</time></trkpt><trkpt lat="45.04437346946113" lon="9.702453432534103"><ele>57.33333333333333</ele><time>2026-04-29T11:36:01.001Z</time></trkpt><trkpt lat="45.044310533213434" lon="9.702371388559415"><ele>57.666666666666664</ele><time>2026-04-29T11:36:02.001Z</time></trkpt><trkpt lat="45.044243530320784" lon="9.702288653484267"><ele>58.0</ele><time>2026-04-29T11:36:03.001Z</time></trkpt><trkpt lat="45.044177234678855" lon="9.702189500551816"><ele>57.99999999999999</ele><time>2026-04-29T11:36:04.001Z</time></trkpt><trkpt lat="45.044119096963236" lon="9.702097448683542"><ele>58.0</ele><time>2026-04-29T11:36:05.001Z</time></trkpt><trkpt lat="45.04403272189354" lon="9.701954621602656"><ele>58.0</ele><time>2026-04-29T11:36:07.001Z</time></trkpt><trkpt lat="45.04397825435157" lon="9.701880541815775"><ele>58.0</ele><time>2026-04-29T11:36:08.001Z</time></trkpt><trkpt lat="45.043924201724764" lon="9.701808314009075"><ele>57.99999999999999</ele><time>2026-04-29T11:36:09.001Z</time></trkpt><trkpt lat="45.043872707411204" lon="9.701744414529797"><ele>58.0</ele><time>2026-04-29T11:36:10.002Z</time></trkpt><trkpt lat="45.04382388232747" lon="9.701680437513025"><ele>57.99999999999999</ele><time>2026-04-29T11:36:11.002Z</time></trkpt><trkpt lat="45.0437723428321" lon="9.701602828894673"><ele>58.0</ele><time>2026-04-29T11:36:12.002Z</time></trkpt><trkpt lat="45.0437205407146" lon="9.701517284149967"><ele>58.0</ele><time>2026-04-29T11:36:13.002Z</time></trkpt><trkpt lat="45.0436756568849" lon="9.701422324335937"><ele>58.0</ele><time>2026-04-29T11:36:14.002Z</time></trkpt><trkpt lat="45.04364130562245" lon="9.701314271668984"><ele>57.99999999999999</ele><time>2026-04-29T11:36:15.002Z</time></trkpt><trkpt lat="45.04358895336538" lon="9.701196588848147"><ele>58.0</ele><time>2026-04-29T11:36:16.002Z</time></trkpt><trkpt lat="45.04360274092045" lon="9.70102729147228"><ele>57.5</ele><time>2026-04-29T11:36:17.002Z</time></trkpt><trkpt lat="45.043599321232406" lon="9.700866715562976"><ele>57.0</ele><time>2026-04-29T11:36:18.002Z</time></trkpt><trkpt lat="45.04357851304757" lon="9.70069342445338"><ele>56.5</ele><time>2026-04-29T11:36:19.002Z</time></trkpt><trkpt lat="45.04363765210759" lon="9.700509415418967"><ele>56.0</ele><time>2026-04-29T11:36:20.002Z</time></trkpt><trkpt lat="45.04364938267315" lon="9.700330842025737"><ele>56.25</ele><time>2026-04-29T11:36:21.002Z</time></trkpt><trkpt lat="45.04369071575182" lon="9.700174344951906"><ele>56.5</ele><time>2026-04-29T11:36:22.002Z</time></trkpt><trkpt lat="45.043731291395424" lon="9.700014002410985"><ele>56.75</ele><time>2026-04-29T11:36:23.002Z</time></trkpt><trkpt lat="45.043763792108074" lon="9.699858656642471"><ele>57.0</ele><time>2026-04-29T11:36:24.002Z</time></trkpt><trkpt lat="45.043791006123634" lon="9.69971263409407"><ele>57.0</ele><time>2026-04-29T11:36:25.002Z</time></trkpt><trkpt lat="45.043818541923926" lon="9.699571891099705"><ele>57.0</ele><time>2026-04-29T11:36:26.002Z</time></trkpt><trkpt lat="45.04385632822668" lon="9.699437488241523"><ele>57.0</ele><time>2026-04-29T11:36:26.999Z</time></trkpt><trkpt lat="45.043872320266615" lon="9.699344112756954"><ele>57.0</ele><time>2026-04-29T11:36:27.999Z</time></trkpt><trkpt lat="45.04388612678417" lon="9.699255433372555"><ele>57.0</ele><time>2026-04-29T11:36:28.999Z</time></trkpt><trkpt lat="45.04390185463018" lon="9.699161197910435"><ele>57.0</ele><time>2026-04-29T11:36:29.999Z</time></trkpt><trkpt lat="45.04392588603872" lon="9.699063075135287"><ele>57.333333333333336</ele><time>2026-04-29T11:36:30.999Z</time></trkpt><trkpt lat="45.04394397641646" lon="9.698969004656462"><ele>57.66666666666667</ele><time>2026-04-29T11:36:31.999Z</time></trkpt><trkpt lat="45.04396393032049" lon="9.698880568129216"><ele>58.0</ele><time>2026-04-29T11:36:32.999Z</time></trkpt><trkpt lat="45.04398526817584" lon="9.698778795245053"><ele>58.333333333333336</ele><time>2026-04-29T11:36:33.999Z</time></trkpt><trkpt lat="45.04401275904434" lon="9.698668123828556"><ele>58.66666666666667</ele><time>2026-04-29T11:36:34.999Z</time></trkpt><trkpt lat="45.044038289771294" lon="9.698557202233902"><ele>59.0</ele><time>2026-04-29T11:36:35.999Z</time></trkpt><trkpt lat="45.04406293288339" lon="9.698445310533007"><ele>59.0</ele><time>2026-04-29T11:36:36.999Z</time></trkpt><trkpt lat="45.04408561280258" lon="9.698334498678042"><ele>59.0</ele><time>2026-04-29T11:36:37.999Z</time></trkpt><trkpt lat="45.044107871371146" lon="9.69822760405574"><ele>59.0</ele><time>2026-04-29T11:36:38.999Z</time></trkpt><trkpt lat="45.04412919294536" lon="9.69812225736467"><ele>59.0</ele><time>2026-04-29T11:36:39.999Z</time></trkpt><trkpt lat="45.04415241073525" lon="9.69802417807348"><ele>59.0</ele><time>2026-04-29T11:36:40.999Z</time></trkpt><trkpt lat="45.044172275494674" lon="9.697930527075268"><ele>59.0</ele><time>2026-04-29T11:36:41.999Z</time></trkpt><trkpt lat="45.044188586227556" lon="9.697842803793167"><ele>59.0</ele><time>2026-04-29T11:36:42.999Z</time></trkpt><trkpt lat="45.04420413820241" lon="9.697672670192365"><ele>59.400000000000006</ele><time>2026-04-29T11:36:45Z</time></trkpt><trkpt lat="45.04422435118858" lon="9.697512837484455"><ele>59.800000000000004</ele><time>2026-04-29T11:36:47Z</time></trkpt><trkpt lat="45.04424828800578" lon="9.697368130419937"><ele>60.199999999999996</ele><time>2026-04-29T11:36:49Z</time></trkpt><trkpt lat="45.044259180672825" lon="9.69728037665596"><ele>60.599999999999994</ele><time>2026-04-29T11:36:50Z</time></trkpt><trkpt lat="45.044272932279455" lon="9.697184188268501"><ele>61.0</ele><time>2026-04-29T11:36:51Z</time></trkpt><trkpt lat="45.04429403450116" lon="9.697026456091496"><ele>60.99999999999999</ele><time>2026-04-29T11:36:53Z</time></trkpt><trkpt lat="45.04430235153126" lon="9.696938085652182"><ele>61.0</ele><time>2026-04-29T11:36:54Z</time></trkpt><trkpt lat="45.04432602464431" lon="9.696844043717121"><ele>61.0</ele><time>2026-04-29T11:36:55Z</time></trkpt><trkpt lat="45.044329298504756" lon="9.696745860894387"><ele>61.0</ele><time>2026-04-29T11:36:56Z</time></trkpt><trkpt lat="45.04434032210688" lon="9.696657143696832"><ele>60.99999999999999</ele><time>2026-04-29T11:36:57Z</time></trkpt><trkpt lat="45.04436464946749" lon="9.69650905575645"><ele>61.0</ele><time>2026-04-29T11:36:59Z</time></trkpt><trkpt lat="45.04438781546956" lon="9.69638546926428"><ele>60.75</ele><time>2026-04-29T11:37:01Z</time></trkpt><trkpt lat="45.044206944828346" lon="9.696282698766275"><ele>60.5</ele><time>2026-04-29T11:37:04Z</time></trkpt><trkpt lat="45.04411794437129" lon="9.696261344271726"><ele>60.25</ele><time>2026-04-29T11:37:05Z</time></trkpt><trkpt lat="45.04403369326125" lon="9.696238791618985"><ele>60.0</ele><time>2026-04-29T11:37:06Z</time></trkpt><trkpt lat="45.04393935047072" lon="9.696212280547062"><ele>60.0</ele><time>2026-04-29T11:37:07Z</time></trkpt><trkpt lat="45.04384761082179" lon="9.696184103021716"><ele>60.0</ele><time>2026-04-29T11:37:08Z</time></trkpt><trkpt lat="45.04376191434146" lon="9.69616285936684"><ele>60.0</ele><time>2026-04-29T11:37:09Z</time></trkpt><trkpt lat="45.043678227695416" lon="9.696145169982147"><ele>60.0</ele><time>2026-04-29T11:37:10Z</time></trkpt><trkpt lat="45.043594324161674" lon="9.696124460911665"><ele>60.0</ele><time>2026-04-29T11:37:11Z</time></trkpt><trkpt lat="45.04350243008063" lon="9.696095593129929"><ele>60.0</ele><time>2026-04-29T11:37:12Z</time></trkpt><trkpt lat="45.0433960250469" lon="9.69606087351591"><ele>60.0</ele><time>2026-04-29T11:37:13Z</time></trkpt><trkpt lat="45.04328267389558" lon="9.696032834149563"><ele>60.0</ele><time>2026-04-29T11:37:14Z</time></trkpt><trkpt lat="45.04316440952532" lon="9.696000557067817"><ele>60.0</ele><time>2026-04-29T11:37:15Z</time></trkpt><trkpt lat="45.04304677989272" lon="9.69597346892315"><ele>60.0</ele><time>2026-04-29T11:37:16Z</time></trkpt><trkpt lat="45.04292939877566" lon="9.69595020634213"><ele>60.0</ele><time>2026-04-29T11:37:17Z</time></trkpt><trkpt lat="45.04282709961512" lon="9.695919699334326"><ele>60.0</ele><time>2026-04-29T11:37:18.001Z</time></trkpt><trkpt lat="45.0427289547037" lon="9.695894254532055"><ele>60.0</ele><time>2026-04-29T11:37:19.001Z</time></trkpt><trkpt lat="45.04264468266903" lon="9.695855958736786"><ele>60.0</ele><time>2026-04-29T11:37:20.001Z</time></trkpt><trkpt lat="45.042564763097424" lon="9.695835533858432"><ele>60.0</ele><time>2026-04-29T11:37:21.001Z</time></trkpt><trkpt lat="45.042488352272045" lon="9.6958317933902"><ele>60.25</ele><time>2026-04-29T11:37:22.001Z</time></trkpt><trkpt lat="45.04241036906437" lon="9.695805372241727"><ele>60.5</ele><time>2026-04-29T11:37:24.001Z</time></trkpt><trkpt lat="45.0423459549969" lon="9.695790306892915"><ele>60.75</ele><time>2026-04-29T11:37:29.001Z</time></trkpt><trkpt lat="45.04236669363228" lon="9.695492438146644"><ele>61.0</ele><time>2026-04-29T11:37:31.001Z</time></trkpt><trkpt lat="45.04236730985311" lon="9.6953331338461"><ele>60.75</ele><time>2026-04-29T11:37:32.001Z</time></trkpt><trkpt lat="45.042362718279456" lon="9.695169843038087"><ele>60.5</ele><time>2026-04-29T11:37:33.001Z</time></trkpt><trkpt lat="45.042371958057835" lon="9.695000375869439"><ele>60.25</ele><time>2026-04-29T11:37:34.001Z</time></trkpt><trkpt lat="45.042378140001155" lon="9.69483862775201"><ele>60.0</ele><time>2026-04-29T11:37:35.001Z</time></trkpt><trkpt lat="45.042375666154655" lon="9.69467446298151"><ele>60.0</ele><time>2026-04-29T11:37:36.001Z</time></trkpt><trkpt lat="45.04237185099895" lon="9.69450608053904"><ele>60.0</ele><time>2026-04-29T11:37:37.001Z</time></trkpt><trkpt lat="45.042367631805874" lon="9.69433239674959"><ele>60.0</ele><time>2026-04-29T11:37:38.001Z</time></trkpt><trkpt lat="45.04236505905692" lon="9.694157891958067"><ele>60.0</ele><time>2026-04-29T11:37:39.001Z</time></trkpt><trkpt lat="45.04236868019861" lon="9.693996554276195"><ele>60.166666666666664</ele><time>2026-04-29T11:37:40.001Z</time></trkpt><trkpt lat="45.042372995618585" lon="9.693863081172337"><ele>60.33333333333333</ele><time>2026-04-29T11:37:41.001Z</time></trkpt><trkpt lat="45.04236664780052" lon="9.693737902882594"><ele>60.5</ele><time>2026-04-29T11:37:42.001Z</time></trkpt><trkpt lat="45.04236782157714" lon="9.693628397526057"><ele>60.666666666666664</ele><time>2026-04-29T11:37:43.001Z</time></trkpt><trkpt lat="45.042366835681634" lon="9.693510498491461"><ele>60.83333333333333</ele><time>2026-04-29T11:37:44.001Z</time></trkpt><trkpt lat="45.042371519650935" lon="9.693372907942157"><ele>61.0</ele><time>2026-04-29T11:37:45.001Z</time></trkpt><trkpt lat="45.042377829352326" lon="9.693230745334922"><ele>61.4</ele><time>2026-04-29T11:37:46.001Z</time></trkpt><trkpt lat="45.04238318799659" lon="9.69307884557763"><ele>61.8</ele><time>2026-04-29T11:37:47.001Z</time></trkpt><trkpt lat="45.042387661773546" lon="9.692928490541602"><ele>62.199999999999996</ele><time>2026-04-29T11:37:48.001Z</time></trkpt><trkpt lat="45.04237566837664" lon="9.692790618958465"><ele>62.599999999999994</ele><time>2026-04-29T11:37:49.001Z</time></trkpt><trkpt lat="45.04237637362651" lon="9.69267168437958"><ele>63.0</ele><time>2026-04-29T11:37:50.001Z</time></trkpt><trkpt lat="45.04237978568316" lon="9.692555178311512"><ele>63.166666666666664</ele><time>2026-04-29T11:37:51.001Z</time></trkpt><trkpt lat="45.04238383868728" lon="9.692445295246538"><ele>63.33333333333333</ele><time>2026-04-29T11:37:52.001Z</time></trkpt><trkpt lat="45.04238984110387" lon="9.692349043656035"><ele>63.5</ele><time>2026-04-29T11:37:53.001Z</time></trkpt><trkpt lat="45.0423966352326" lon="9.692258919370056"><ele>63.666666666666664</ele><time>2026-04-29T11:37:54.001Z</time></trkpt><trkpt lat="45.04238750068464" lon="9.692096103779834"><ele>63.83333333333333</ele><time>2026-04-29T11:37:56.001Z</time></trkpt><trkpt lat="45.0423834078452" lon="9.691965084698868"><ele>64.0</ele><time>2026-04-29T11:37:58.001Z</time></trkpt><trkpt lat="45.04239395849705" lon="9.691855148456039"><ele>64.2</ele><time>2026-04-29T11:38:00.002Z</time></trkpt><trkpt lat="45.042397796604675" lon="9.691755798526245"><ele>64.4</ele><time>2026-04-29T11:38:14.002Z</time></trkpt><trkpt lat="45.04239949106653" lon="9.691635431874609"><ele>64.6</ele><time>2026-04-29T11:38:19.002Z</time></trkpt><trkpt lat="45.04239773948493" lon="9.691470354808562"><ele>64.8</ele><time>2026-04-29T11:38:22.002Z</time></trkpt><trkpt lat="45.042396693235915" lon="9.691342011227027"><ele>65.0</ele><time>2026-04-29T11:38:23.002Z</time></trkpt><trkpt lat="45.04239669323471" lon="9.691208694923995"><ele>64.66666666666667</ele><time>2026-04-29T11:38:24.002Z</time></trkpt><trkpt lat="45.04241067622292" lon="9.691018873573736"><ele>64.33333333333333</ele><time>2026-04-29T11:38:25.002Z</time></trkpt><trkpt lat="45.042397645020806" lon="9.690789156405517"><ele>64.0</ele><time>2026-04-29T11:38:26.002Z</time></trkpt><trkpt lat="45.04239899176663" lon="9.690572466203568"><ele>64.0</ele><time>2026-04-29T11:38:27.002Z</time></trkpt><trkpt lat="45.04239829684588" lon="9.69034133290876"><ele>64.0</ele><time>2026-04-29T11:38:28.002Z</time></trkpt><trkpt lat="45.04239901057392" lon="9.690130584549143"><ele>64.0</ele><time>2026-04-29T11:38:29.002Z</time></trkpt><trkpt lat="45.04240279865476" lon="9.689930917636127"><ele>63.5</ele><time>2026-04-29T11:38:30.002Z</time></trkpt><trkpt lat="45.04240865271071" lon="9.689740612915326"><ele>63.0</ele><time>2026-04-29T11:38:31.002Z</time></trkpt><trkpt lat="45.04239898615753" lon="9.689553846942061"><ele>62.5</ele><time>2026-04-29T11:38:32.002Z</time></trkpt><trkpt lat="45.042411676817366" lon="9.68937217670519"><ele>62.0</ele><time>2026-04-29T11:38:33Z</time></trkpt><trkpt lat="45.04240909788359" lon="9.68918272781571"><ele>61.75</ele><time>2026-04-29T11:38:34Z</time></trkpt><trkpt lat="45.04240891821276" lon="9.688990702108734"><ele>61.5</ele><time>2026-04-29T11:38:35Z</time></trkpt><trkpt lat="45.04240843862392" lon="9.688799230664902"><ele>61.25</ele><time>2026-04-29T11:38:36Z</time></trkpt><trkpt lat="45.04240912940522" lon="9.688624954041506"><ele>61.0</ele><time>2026-04-29T11:38:37Z</time></trkpt><trkpt lat="45.04240946487163" lon="9.688458431038853"><ele>61.4</ele><time>2026-04-29T11:38:38Z</time></trkpt><trkpt lat="45.042407057452856" lon="9.688305505844646"><ele>61.8</ele><time>2026-04-29T11:38:39Z</time></trkpt><trkpt lat="45.04239344619138" lon="9.688148321511457"><ele>62.199999999999996</ele><time>2026-04-29T11:38:40Z</time></trkpt><trkpt lat="45.04238877069174" lon="9.687982643121332"><ele>62.599999999999994</ele><time>2026-04-29T11:38:41Z</time></trkpt><trkpt lat="45.042387762132336" lon="9.687840605789885"><ele>63.0</ele><time>2026-04-29T11:38:42Z</time></trkpt><trkpt lat="45.04238797027176" lon="9.687705710990876"><ele>63.0</ele><time>2026-04-29T11:38:43Z</time></trkpt><trkpt lat="45.04240271369105" lon="9.68758493693996"><ele>63.0</ele><time>2026-04-29T11:38:44Z</time></trkpt><trkpt lat="45.04241999354368" lon="9.687467360066394"><ele>63.0</ele><time>2026-04-29T11:38:46Z</time></trkpt><trkpt lat="45.042428530212234" lon="9.687326999531491"><ele>63.0</ele><time>2026-04-29T11:38:49Z</time></trkpt><trkpt lat="45.04246864470105" lon="9.687200513425095"><ele>63.0</ele><time>2026-04-29T11:38:51Z</time></trkpt><trkpt lat="45.04241501907278" lon="9.687096704363393"><ele>63.0</ele><time>2026-04-29T11:38:52Z</time></trkpt><trkpt lat="45.042380080730254" lon="9.686996193280521"><ele>63.0</ele><time>2026-04-29T11:38:53Z</time></trkpt><trkpt lat="45.0423862650573" lon="9.686864743933803"><ele>63.0</ele><time>2026-04-29T11:38:54Z</time></trkpt><trkpt lat="45.04236527901496" lon="9.68673863546161"><ele>63.0</ele><time>2026-04-29T11:38:55Z</time></trkpt><trkpt lat="45.04238546930251" lon="9.686584431060647"><ele>63.0</ele><time>2026-04-29T11:38:56Z</time></trkpt><trkpt lat="45.04238778493699" lon="9.686426101481844"><ele>63.0</ele><time>2026-04-29T11:38:57Z</time></trkpt><trkpt lat="45.04238711736224" lon="9.686256290194803"><ele>63.0</ele><time>2026-04-29T11:38:58Z</time></trkpt><trkpt lat="45.04238953962657" lon="9.686091588568653"><ele>63.0</ele><time>2026-04-29T11:38:59Z</time></trkpt><trkpt lat="45.04239179716302" lon="9.685937436436724"><ele>63.0</ele><time>2026-04-29T11:39:00Z</time></trkpt><trkpt lat="45.042392268674824" lon="9.685788509467958"><ele>63.0</ele><time>2026-04-29T11:39:01Z</time></trkpt><trkpt lat="45.04240593181937" lon="9.68565033304391"><ele>63.0</ele><time>2026-04-29T11:39:02Z</time></trkpt><trkpt lat="45.04240922396305" lon="9.685528422472188"><ele>63.0</ele><time>2026-04-29T11:39:03Z</time></trkpt><trkpt lat="45.042394886523724" lon="9.685430853669484"><ele>63.0</ele><time>2026-04-29T11:39:04Z</time></trkpt><trkpt lat="45.04239023490122" lon="9.685295023692033"><ele>63.0</ele><time>2026-04-29T11:39:06Z</time></trkpt><trkpt lat="45.04238233429397" lon="9.6851297939316"><ele>63.2</ele><time>2026-04-29T11:39:08Z</time></trkpt><trkpt lat="45.04237459391112" lon="9.68501305819571"><ele>63.4</ele><time>2026-04-29T11:39:10Z</time></trkpt><trkpt lat="45.04237531058507" lon="9.684855752278247"><ele>63.60000000000001</ele><time>2026-04-29T11:39:15Z</time></trkpt><trkpt lat="45.042378895130135" lon="9.684694037053315"><ele>63.800000000000004</ele><time>2026-04-29T11:39:16.001Z</time></trkpt><trkpt lat="45.042382380934875" lon="9.68451245964161"><ele>64.0</ele><time>2026-04-29T11:39:17.001Z</time></trkpt><trkpt lat="45.04238097120543" lon="9.684358413477634"><ele>63.99999999999999</ele><time>2026-04-29T11:39:18.001Z</time></trkpt><trkpt lat="45.0423831325571" lon="9.684196031757809"><ele>64.0</ele><time>2026-04-29T11:39:19.001Z</time></trkpt><trkpt lat="45.04238339915771" lon="9.684047138322631"><ele>64.0</ele><time>2026-04-29T11:39:20.001Z</time></trkpt><trkpt lat="45.04238559175373" lon="9.683931624971619"><ele>64.0</ele><time>2026-04-29T11:39:21.001Z</time></trkpt><trkpt lat="45.04238550593743" lon="9.683839811946902"><ele>63.99999999999999</ele><time>2026-04-29T11:39:22.001Z</time></trkpt><trkpt lat="45.042377643771275" lon="9.683750448065044"><ele>64.0</ele><time>2026-04-29T11:39:23.001Z</time></trkpt><trkpt lat="45.0423049663394" lon="9.6836271402938"><ele>64.0</ele><time>2026-04-29T11:39:25.001Z</time></trkpt><trkpt lat="45.04218018238732" lon="9.683644459295106"><ele>64.0</ele><time>2026-04-29T11:39:27.001Z</time></trkpt><trkpt lat="45.04209981815857" lon="9.683677690976085"><ele>64.0</ele><time>2026-04-29T11:39:28.001Z</time></trkpt><trkpt lat="45.04200538212137" lon="9.683691153022126"><ele>64.0</ele><time>2026-04-29T11:39:29.001Z</time></trkpt><trkpt lat="45.04190153041602" lon="9.683703666504275"><ele>64.0</ele><time>2026-04-29T11:39:30.001Z</time></trkpt><trkpt lat="45.04177886484549" lon="9.68371525527924"><ele>64.0</ele><time>2026-04-29T11:39:31.001Z</time></trkpt><trkpt lat="45.041640762089976" lon="9.683724384263835"><ele>64.0</ele><time>2026-04-29T11:39:32.001Z</time></trkpt><trkpt lat="45.04150815424557" lon="9.683751689848055"><ele>64.0</ele><time>2026-04-29T11:39:33.001Z</time></trkpt><trkpt lat="45.04138893925504" lon="9.683765451204021"><ele>64.0</ele><time>2026-04-29T11:39:34.001Z</time></trkpt><trkpt lat="45.04128717861585" lon="9.683784985134912"><ele>64.2</ele><time>2026-04-29T11:39:35.001Z</time></trkpt><trkpt lat="45.041182737184315" lon="9.683774610389605"><ele>64.4</ele><time>2026-04-29T11:39:36.001Z</time></trkpt><trkpt lat="45.04108967549534" lon="9.683782325283657"><ele>64.6</ele><time>2026-04-29T11:39:37.001Z</time></trkpt><trkpt lat="45.04099890888514" lon="9.683798656753613"><ele>64.8</ele><time>2026-04-29T11:39:38.001Z</time></trkpt><trkpt lat="45.04091387962083" lon="9.683814162672057"><ele>65.0</ele><time>2026-04-29T11:39:39.001Z</time></trkpt><trkpt lat="45.0408299271599" lon="9.683826454412637"><ele>64.83333333333334</ele><time>2026-04-29T11:39:40.001Z</time></trkpt><trkpt lat="45.04075571585745" lon="9.68383708584255"><ele>64.66666666666667</ele><time>2026-04-29T11:39:41.001Z</time></trkpt><trkpt lat="45.04068490020099" lon="9.683845919869572"><ele>64.5</ele><time>2026-04-29T11:39:42.001Z</time></trkpt><trkpt lat="45.040614064855056" lon="9.683856808467947"><ele>64.33333333333333</ele><time>2026-04-29T11:39:43.001Z</time></trkpt><trkpt lat="45.0405461275373" lon="9.683867360430304"><ele>64.16666666666666</ele><time>2026-04-29T11:39:44.001Z</time></trkpt><trkpt lat="45.040466978176944" lon="9.68387118778353"><ele>64.0</ele><time>2026-04-29T11:39:45.001Z</time></trkpt><trkpt lat="45.04037314981244" lon="9.683886526860041"><ele>64.0</ele><time>2026-04-29T11:39:46.001Z</time></trkpt><trkpt lat="45.04028437895057" lon="9.683904520111227"><ele>63.99999999999999</ele><time>2026-04-29T11:39:47.001Z</time></trkpt><trkpt lat="45.04020917272628" lon="9.683918020142684"><ele>64.0</ele><time>2026-04-29T11:39:48.001Z</time></trkpt><trkpt lat="45.04013978866041" lon="9.683924461718716"><ele>64.0</ele><time>2026-04-29T11:39:49.001Z</time></trkpt><trkpt lat="45.040073720044525" lon="9.68393503447931"><ele>63.99999999999999</ele><time>2026-04-29T11:39:50.001Z</time></trkpt><trkpt lat="45.04000102463866" lon="9.683938296964453"><ele>64.0</ele><time>2026-04-29T11:39:51.001Z</time></trkpt><trkpt lat="45.03992704155781" lon="9.683937168412239"><ele>64.0</ele><time>2026-04-29T11:39:52.001Z</time></trkpt><trkpt lat="45.03984711742055" lon="9.683928854441703"><ele>63.6</ele><time>2026-04-29T11:39:53.001Z</time></trkpt><trkpt lat="45.039753690883664" lon="9.68391499278526"><ele>63.2</ele><time>2026-04-29T11:39:55.001Z</time></trkpt><trkpt lat="45.03966852901784" lon="9.683889179960243"><ele>62.800000000000004</ele><time>2026-04-29T11:39:57.002Z</time></trkpt><trkpt lat="45.03955901529308" lon="9.683896734182479"><ele>62.400000000000006</ele><time>2026-04-29T11:39:59.002Z</time></trkpt><trkpt lat="45.03946614782134" lon="9.683948739347443"><ele>62.0</ele><time>2026-04-29T11:40:00.002Z</time></trkpt><trkpt lat="45.039349752707075" lon="9.684002053651636"><ele>62.0</ele><time>2026-04-29T11:40:01.002Z</time></trkpt><trkpt lat="45.039228171856244" lon="9.68403699720256"><ele>62.0</ele><time>2026-04-29T11:40:02.002Z</time></trkpt><trkpt lat="45.039065504406985" lon="9.684064425606628"><ele>62.0</ele><time>2026-04-29T11:40:03.002Z</time></trkpt><trkpt lat="45.03888138167806" lon="9.684079912506444"><ele>62.66666666666667</ele><time>2026-04-29T11:40:04.002Z</time></trkpt><trkpt lat="45.0387083898036" lon="9.684092945451125"><ele>63.33333333333333</ele><time>2026-04-29T11:40:05.002Z</time></trkpt><trkpt lat="45.038553710158794" lon="9.684104826764566"><ele>64.0</ele><time>2026-04-29T11:40:06.002Z</time></trkpt><trkpt lat="45.0384005241403" lon="9.684123242114007"><ele>64.0</ele><time>2026-04-29T11:40:07.002Z</time></trkpt><trkpt lat="45.038237491191374" lon="9.684138070269626"><ele>64.0</ele><time>2026-04-29T11:40:08.002Z</time></trkpt><trkpt lat="45.038088646122674" lon="9.684159014975306"><ele>64.0</ele><time>2026-04-29T11:40:09.002Z</time></trkpt><trkpt lat="45.03794315607352" lon="9.684180831239019"><ele>64.0</ele><time>2026-04-29T11:40:10.002Z</time></trkpt><trkpt lat="45.03780867585791" lon="9.684200974258593"><ele>64.0</ele><time>2026-04-29T11:40:11.002Z</time></trkpt><trkpt lat="45.03768221333182" lon="9.684212672572938"><ele>64.0</ele><time>2026-04-29T11:40:12.002Z</time></trkpt><trkpt lat="45.037565205241954" lon="9.684223212801859"><ele>64.0</ele><time>2026-04-29T11:40:13.002Z</time></trkpt><trkpt lat="45.03745176614467" lon="9.68424163509195"><ele>63.800000000000004</ele><time>2026-04-29T11:40:14.002Z</time></trkpt><trkpt lat="45.03734888027134" lon="9.684247834597608"><ele>63.60000000000001</ele><time>2026-04-29T11:40:15.002Z</time></trkpt><trkpt lat="45.03723937190668" lon="9.68424390266245"><ele>63.4</ele><time>2026-04-29T11:40:16.002Z</time></trkpt><trkpt lat="45.03713345653986" lon="9.684268905775166"><ele>63.2</ele><time>2026-04-29T11:40:17.002Z</time></trkpt><trkpt lat="45.03702677850876" lon="9.684278301004534"><ele>63.0</ele><time>2026-04-29T11:40:18.002Z</time></trkpt><trkpt lat="45.03693142459254" lon="9.684291478719002"><ele>63.0</ele><time>2026-04-29T11:40:19.002Z</time></trkpt><trkpt lat="45.03683598120509" lon="9.684306949561613"><ele>63.0</ele><time>2026-04-29T11:40:20.002Z</time></trkpt><trkpt lat="45.03674045074306" lon="9.684322057633985"><ele>63.0</ele><time>2026-04-29T11:40:21.002Z</time></trkpt><trkpt lat="45.03667216680167" lon="9.684328245207213"><ele>63.0</ele><time>2026-04-29T11:40:22.002Z</time></trkpt><trkpt lat="45.03659966512586" lon="9.684336093814684"><ele>63.0</ele><time>2026-04-29T11:40:24.002Z</time></trkpt><trkpt lat="45.03652469970339" lon="9.684349744887298"><ele>63.0</ele><time>2026-04-29T11:40:28.002Z</time></trkpt><trkpt lat="45.0363596321402" lon="9.684358127328961"><ele>63.5</ele><time>2026-04-29T11:41:04Z</time></trkpt><trkpt lat="45.03622817610978" lon="9.684366093757259"><ele>64.0</ele><time>2026-04-29T11:41:05Z</time></trkpt><trkpt lat="45.036103791553565" lon="9.684392485296822"><ele>64.5</ele><time>2026-04-29T11:41:06Z</time></trkpt><trkpt lat="45.035961083162604" lon="9.684418156231526"><ele>65.0</ele><time>2026-04-29T11:41:07Z</time></trkpt><trkpt lat="45.035805642163695" lon="9.684443887834734"><ele>64.66666666666667</ele><time>2026-04-29T11:41:08Z</time></trkpt><trkpt lat="45.03564036012173" lon="9.684463245438106"><ele>64.33333333333333</ele><time>2026-04-29T11:41:09Z</time></trkpt><trkpt lat="45.03545632387726" lon="9.684485331795537"><ele>64.0</ele><time>2026-04-29T11:41:10.001Z</time></trkpt><trkpt lat="45.035281886782506" lon="9.684497066870096"><ele>64.0</ele><time>2026-04-29T11:41:11.001Z</time></trkpt><trkpt lat="45.035120759528596" lon="9.684520002630244"><ele>64.0</ele><time>2026-04-29T11:41:12.001Z</time></trkpt><trkpt lat="45.03495646924524" lon="9.684533982130827"><ele>64.0</ele><time>2026-04-29T11:41:13.001Z</time></trkpt><trkpt lat="45.03478319209262" lon="9.68457468952104"><ele>64.66666666666666</ele><time>2026-04-29T11:41:14.001Z</time></trkpt><trkpt lat="45.034612812506445" lon="9.684605593379754"><ele>65.33333333333333</ele><time>2026-04-29T11:41:15.001Z</time></trkpt><trkpt lat="45.03443998171143" lon="9.684640746214555"><ele>66.0</ele><time>2026-04-29T11:41:16.001Z</time></trkpt><trkpt lat="45.03425454511801" lon="9.684679480422684"><ele>66.66666666666667</ele><time>2026-04-29T11:41:17.001Z</time></trkpt><trkpt lat="45.03405612134139" lon="9.684728331457784"><ele>67.33333333333334</ele><time>2026-04-29T11:41:18.001Z</time></trkpt><trkpt lat="45.03386261348548" lon="9.684773517540473"><ele>68.0</ele><time>2026-04-29T11:41:19.001Z</time></trkpt><trkpt lat="45.0336829648644" lon="9.684819495986476"><ele>68.0</ele><time>2026-04-29T11:41:20.001Z</time></trkpt><trkpt lat="45.033522212805465" lon="9.68486790090514"><ele>68.0</ele><time>2026-04-29T11:41:21.001Z</time></trkpt><trkpt lat="45.03335221239519" lon="9.684921186305882"><ele>68.0</ele><time>2026-04-29T11:41:22.001Z</time></trkpt><trkpt lat="45.0331784629178" lon="9.684978977299252"><ele>67.0</ele><time>2026-04-29T11:41:23.001Z</time></trkpt><trkpt lat="45.03301076154848" lon="9.685036630575482"><ele>66.0</ele><time>2026-04-29T11:41:24.001Z</time></trkpt><trkpt lat="45.03285518597382" lon="9.685091167036541"><ele>65.0</ele><time>2026-04-29T11:41:25.001Z</time></trkpt><trkpt lat="45.03269584171569" lon="9.685153931536375"><ele>65.0</ele><time>2026-04-29T11:41:26.001Z</time></trkpt><trkpt lat="45.0325398716472" lon="9.685218214480837"><ele>65.0</ele><time>2026-04-29T11:41:27.001Z</time></trkpt><trkpt lat="45.03239457612504" lon="9.685259294508471"><ele>65.0</ele><time>2026-04-29T11:41:28.001Z</time></trkpt><trkpt lat="45.032251978564034" lon="9.685299065158326"><ele>64.8</ele><time>2026-04-29T11:41:29.001Z</time></trkpt><trkpt lat="45.03213533570681" lon="9.685349483533491"><ele>64.6</ele><time>2026-04-29T11:41:30.001Z</time></trkpt><trkpt lat="45.03201946430813" lon="9.68539383791722"><ele>64.4</ele><time>2026-04-29T11:41:31.001Z</time></trkpt><trkpt lat="45.03192674925406" lon="9.685420584806096"><ele>64.2</ele><time>2026-04-29T11:41:32.001Z</time></trkpt><trkpt lat="45.03186322939598" lon="9.68544041681388"><ele>64.0</ele><time>2026-04-29T11:41:33.001Z</time></trkpt><trkpt lat="45.031752701678975" lon="9.685498592002729"><ele>63.99999999999999</ele><time>2026-04-29T11:41:35.001Z</time></trkpt><trkpt lat="45.03168974453224" lon="9.685516082585147"><ele>64.0</ele><time>2026-04-29T11:41:36.001Z</time></trkpt><trkpt lat="45.03161345389401" lon="9.685559671220583"><ele>64.0</ele><time>2026-04-29T11:41:37.001Z</time></trkpt><trkpt lat="45.031533017553066" lon="9.685576813025547"><ele>64.0</ele><time>2026-04-29T11:41:38.001Z</time></trkpt><trkpt lat="45.03145151156368" lon="9.685601714923589"><ele>63.99999999999999</ele><time>2026-04-29T11:41:39.001Z</time></trkpt><trkpt lat="45.0313611557418" lon="9.685635454692067"><ele>64.0</ele><time>2026-04-29T11:41:40.001Z</time></trkpt><trkpt lat="45.0312734220499" lon="9.685660829454795"><ele>64.33333333333333</ele><time>2026-04-29T11:41:41.001Z</time></trkpt><trkpt lat="45.03119566760711" lon="9.685685776462215"><ele>64.66666666666666</ele><time>2026-04-29T11:41:42.001Z</time></trkpt><trkpt lat="45.0311206623091" lon="9.685716538877857"><ele>65.0</ele><time>2026-04-29T11:41:43.001Z</time></trkpt><trkpt lat="45.031043128829715" lon="9.685750018419984"><ele>65.33333333333333</ele><time>2026-04-29T11:41:44.001Z</time></trkpt><trkpt lat="45.03097031659925" lon="9.685774983784057"><ele>65.66666666666667</ele><time>2026-04-29T11:41:45.001Z</time></trkpt><trkpt lat="45.03085610526942" lon="9.685795686581248"><ele>66.0</ele><time>2026-04-29T11:41:47.001Z</time></trkpt><trkpt lat="45.03076346396913" lon="9.685771731286604"><ele>66.0</ele><time>2026-04-29T11:41:49.001Z</time></trkpt><trkpt lat="45.03070408994827" lon="9.68571970983058"><ele>66.0</ele><time>2026-04-29T11:41:51.002Z</time></trkpt><trkpt lat="45.03062710560953" lon="9.685629771040519"><ele>66.0</ele><time>2026-04-29T11:41:53.002Z</time></trkpt><trkpt lat="45.030572300371674" lon="9.685553451959494"><ele>66.0</ele><time>2026-04-29T11:41:54.002Z</time></trkpt><trkpt lat="45.03052365089737" lon="9.685449658473686"><ele>66.0</ele><time>2026-04-29T11:41:55.002Z</time></trkpt><trkpt lat="45.03048350183418" lon="9.68534453259835"><ele>66.0</ele><time>2026-04-29T11:41:56.002Z</time></trkpt><trkpt lat="45.030446699011236" lon="9.685247750542995"><ele>66.0</ele><time>2026-04-29T11:41:57.002Z</time></trkpt><trkpt lat="45.03040345808349" lon="9.68510292783991"><ele>66.0</ele><time>2026-04-29T11:41:58.002Z</time></trkpt><trkpt lat="45.03033455083097" lon="9.68494748104932"><ele>66.0</ele><time>2026-04-29T11:41:59.002Z</time></trkpt><trkpt lat="45.03025111580966" lon="9.684772505371217"><ele>66.0</ele><time>2026-04-29T11:42:00.002Z</time></trkpt><trkpt lat="45.03015940037698" lon="9.68458397099124"><ele>66.0</ele><time>2026-04-29T11:42:01.002Z</time></trkpt><trkpt lat="45.0300479289927" lon="9.684386660577843"><ele>66.0</ele><time>2026-04-29T11:42:02.002Z</time></trkpt><trkpt lat="45.029957165348485" lon="9.68418273796011"><ele>66.0</ele><time>2026-04-29T11:42:03.002Z</time></trkpt><trkpt lat="45.02987727790791" lon="9.683991902478239"><ele>65.5</ele><time>2026-04-29T11:42:04.002Z</time></trkpt><trkpt lat="45.02979958652886" lon="9.683815880859456"><ele>65.0</ele><time>2026-04-29T11:42:05.002Z</time></trkpt><trkpt lat="45.02972281971782" lon="9.683648784709295"><ele>64.5</ele><time>2026-04-29T11:42:06.002Z</time></trkpt><trkpt lat="45.02964027931108" lon="9.683490865708894"><ele>64.0</ele><time>2026-04-29T11:42:07.002Z</time></trkpt><trkpt lat="45.02955314915387" lon="9.683373100970165"><ele>64.0</ele><time>2026-04-29T11:42:08.002Z</time></trkpt><trkpt lat="45.02946614505968" lon="9.683279346588801"><ele>64.0</ele><time>2026-04-29T11:42:09.002Z</time></trkpt><trkpt lat="45.02937844132036" lon="9.683200931014936"><ele>64.0</ele><time>2026-04-29T11:42:10.002Z</time></trkpt><trkpt lat="45.029304704489945" lon="9.68311984569224"><ele>64.0</ele><time>2026-04-29T11:42:11.002Z</time></trkpt><trkpt lat="45.029250013909355" lon="9.683052251421977"><ele>64.0</ele><time>2026-04-29T11:42:12.002Z</time></trkpt><trkpt lat="45.02919236564325" lon="9.682981296208853"><ele>64.2</ele><time>2026-04-29T11:42:14.002Z</time></trkpt><trkpt lat="45.029123981698646" lon="9.682910281979286"><ele>64.4</ele><time>2026-04-29T11:42:22.002Z</time></trkpt><trkpt lat="45.02905433557011" lon="9.682766039078466"><ele>64.6</ele><time>2026-04-29T11:42:24.002Z</time></trkpt><trkpt lat="45.02903966434784" lon="9.6826663338798"><ele>64.8</ele><time>2026-04-29T11:42:25.002Z</time></trkpt><trkpt lat="45.02903279330634" lon="9.68254967175252"><ele>65.0</ele><time>2026-04-29T11:42:26.002Z</time></trkpt><trkpt lat="45.02900924763092" lon="9.682408502557495"><ele>65.2</ele><time>2026-04-29T11:42:27.002Z</time></trkpt><trkpt lat="45.0289697009367" lon="9.68227344832966"><ele>65.4</ele><time>2026-04-29T11:42:28.002Z</time></trkpt><trkpt lat="45.0289206187384" lon="9.682152286709936"><ele>65.6</ele><time>2026-04-29T11:42:29.002Z</time></trkpt><trkpt lat="45.028858183374965" lon="9.682031570005186"><ele>65.8</ele><time>2026-04-29T11:42:30.002Z</time></trkpt><trkpt lat="45.028778691637534" lon="9.681923932949813"><ele>66.0</ele><time>2026-04-29T11:42:31.003Z</time></trkpt><trkpt lat="45.02868952693071" lon="9.681832270533866"><ele>66.0</ele><time>2026-04-29T11:42:32.003Z</time></trkpt><trkpt lat="45.02858832383486" lon="9.681759503344315"><ele>66.0</ele><time>2026-04-29T11:42:33.003Z</time></trkpt><trkpt lat="45.02847762382239" lon="9.68171261037826"><ele>66.0</ele><time>2026-04-29T11:42:34.003Z</time></trkpt><trkpt lat="45.02835358143076" lon="9.681680516407756"><ele>66.0</ele><time>2026-04-29T11:42:35.003Z</time></trkpt><trkpt lat="45.028223216794196" lon="9.681667241574756"><ele>66.0</ele><time>2026-04-29T11:42:36.003Z</time></trkpt><trkpt lat="45.02809979971596" lon="9.681688035312476"><ele>66.0</ele><time>2026-04-29T11:42:37.003Z</time></trkpt><trkpt lat="45.02798611163304" lon="9.681732085867536"><ele>66.0</ele><time>2026-04-29T11:42:38.003Z</time></trkpt><trkpt lat="45.02788115811919" lon="9.681789014884345"><ele>66.0</ele><time>2026-04-29T11:42:39.003Z</time></trkpt><trkpt lat="45.02780123324914" lon="9.681827547428782"><ele>66.0</ele><time>2026-04-29T11:42:40.003Z</time></trkpt><trkpt lat="45.02773721604834" lon="9.681845112494205"><ele>66.0</ele><time>2026-04-29T11:42:41.003Z</time></trkpt><trkpt lat="45.02767063913056" lon="9.681853586870185"><ele>66.0</ele><time>2026-04-29T11:42:42.003Z</time></trkpt><trkpt lat="45.02758644519008" lon="9.681850845945377"><ele>66.0</ele><time>2026-04-29T11:42:43.003Z</time></trkpt><trkpt lat="45.02748891689437" lon="9.681825438562774"><ele>66.0</ele><time>2026-04-29T11:42:44.003Z</time></trkpt><trkpt lat="45.02740420080054" lon="9.681776832920647"><ele>66.0</ele><time>2026-04-29T11:42:45.001Z</time></trkpt><trkpt lat="45.0273161388164" lon="9.681701592173301"><ele>66.0</ele><time>2026-04-29T11:42:46.001Z</time></trkpt><trkpt lat="45.02724227922758" lon="9.681603055375847"><ele>65.75</ele><time>2026-04-29T11:42:47.001Z</time></trkpt><trkpt lat="45.02716697503214" lon="9.68147419141191"><ele>65.5</ele><time>2026-04-29T11:42:48.001Z</time></trkpt><trkpt lat="45.02709255290331" lon="9.681332948930446"><ele>65.25</ele><time>2026-04-29T11:42:49.001Z</time></trkpt><trkpt lat="45.027016605636895" lon="9.681210037150837"><ele>65.0</ele><time>2026-04-29T11:42:50.001Z</time></trkpt><trkpt lat="45.02693207038463" lon="9.681100232679063"><ele>65.25</ele><time>2026-04-29T11:42:51.001Z</time></trkpt><trkpt lat="45.026824992720776" lon="9.680977517811751"><ele>65.5</ele><time>2026-04-29T11:42:52.001Z</time></trkpt><trkpt lat="45.026707627402295" lon="9.680866460473927"><ele>65.75</ele><time>2026-04-29T11:42:53.001Z</time></trkpt><trkpt lat="45.02657467673429" lon="9.680771790714507"><ele>66.0</ele><time>2026-04-29T11:42:54.001Z</time></trkpt><trkpt lat="45.026433846089326" lon="9.680693712770184"><ele>66.25</ele><time>2026-04-29T11:42:55.001Z</time></trkpt><trkpt lat="45.026299689445175" lon="9.68063234447274"><ele>66.5</ele><time>2026-04-29T11:42:56.001Z</time></trkpt><trkpt lat="45.026173214015444" lon="9.680580812681415"><ele>66.75</ele><time>2026-04-29T11:42:57.001Z</time></trkpt><trkpt lat="45.02605166433261" lon="9.680524711981272"><ele>67.0</ele><time>2026-04-29T11:42:58.001Z</time></trkpt><trkpt lat="45.0259197685196" lon="9.680458835993825"><ele>67.66666666666666</ele><time>2026-04-29T11:42:59.001Z</time></trkpt><trkpt lat="45.02576638403707" lon="9.680385938410538"><ele>68.33333333333333</ele><time>2026-04-29T11:43:00.001Z</time></trkpt><trkpt lat="45.025627278881274" lon="9.68031469918358"><ele>69.0</ele><time>2026-04-29T11:43:01.001Z</time></trkpt><trkpt lat="45.0254860261377" lon="9.680248623001669"><ele>69.0</ele><time>2026-04-29T11:43:02.001Z</time></trkpt><trkpt lat="45.02534629500513" lon="9.680180545327808"><ele>69.0</ele><time>2026-04-29T11:43:03.001Z</time></trkpt><trkpt lat="45.025208744359965" lon="9.68011562936544"><ele>69.0</ele><time>2026-04-29T11:43:04.001Z</time></trkpt><trkpt lat="45.02506017315332" lon="9.680044994560216"><ele>68.66666666666667</ele><time>2026-04-29T11:43:05.001Z</time></trkpt><trkpt lat="45.02491128876445" lon="9.679965187897842"><ele>68.33333333333334</ele><time>2026-04-29T11:43:06.001Z</time></trkpt><trkpt lat="45.02476758126535" lon="9.679909803838093"><ele>68.0</ele><time>2026-04-29T11:43:07.001Z</time></trkpt><trkpt lat="45.02462305876512" lon="9.679844776681053"><ele>68.0</ele><time>2026-04-29T11:43:08.001Z</time></trkpt><trkpt lat="45.024460240797076" lon="9.679748189924524"><ele>68.0</ele><time>2026-04-29T11:43:09.001Z</time></trkpt><trkpt lat="45.02428176812092" lon="9.679664285426567"><ele>68.0</ele><time>2026-04-29T11:43:10.001Z</time></trkpt><trkpt lat="45.024103137316544" lon="9.679593073381536"><ele>68.33333333333334</ele><time>2026-04-29T11:43:11.001Z</time></trkpt><trkpt lat="45.0239280476887" lon="9.679488849117114"><ele>68.66666666666667</ele><time>2026-04-29T11:43:12.001Z</time></trkpt><trkpt lat="45.02376587266426" lon="9.679387313239992"><ele>69.0</ele><time>2026-04-29T11:43:13.001Z</time></trkpt><trkpt lat="45.02359895656363" lon="9.679299233704082"><ele>69.0</ele><time>2026-04-29T11:43:14.001Z</time></trkpt><trkpt lat="45.02342899580778" lon="9.67922473586368"><ele>69.0</ele><time>2026-04-29T11:43:15.001Z</time></trkpt><trkpt lat="45.02325100831118" lon="9.679167192895473"><ele>69.0</ele><time>2026-04-29T11:43:16.001Z</time></trkpt><trkpt lat="45.02306030083798" lon="9.679111380884647"><ele>69.66666666666667</ele><time>2026-04-29T11:43:17.001Z</time></trkpt><trkpt lat="45.02287414239498" lon="9.679059780337985"><ele>70.33333333333334</ele><time>2026-04-29T11:43:18.001Z</time></trkpt><trkpt lat="45.02268717526232" lon="9.679008218540206"><ele>71.0</ele><time>2026-04-29T11:43:19.001Z</time></trkpt><trkpt lat="45.02250865960272" lon="9.67895492860739"><ele>71.0</ele><time>2026-04-29T11:43:20.001Z</time></trkpt><trkpt lat="45.02232959723716" lon="9.678901465999928"><ele>71.0</ele><time>2026-04-29T11:43:21.001Z</time></trkpt><trkpt lat="45.02216339904741" lon="9.67883791967545"><ele>71.0</ele><time>2026-04-29T11:43:22.001Z</time></trkpt><trkpt lat="45.0219982115724" lon="9.67876164704697"><ele>71.0</ele><time>2026-04-29T11:43:23.001Z</time></trkpt><trkpt lat="45.02182422651941" lon="9.678672322759507"><ele>71.0</ele><time>2026-04-29T11:43:24.001Z</time></trkpt><trkpt lat="45.02165700355953" lon="9.67857788617507"><ele>71.0</ele><time>2026-04-29T11:43:25.001Z</time></trkpt><trkpt lat="45.02148973387894" lon="9.678477869131564"><ele>71.33333333333334</ele><time>2026-04-29T11:43:26.001Z</time></trkpt><trkpt lat="45.02131541859116" lon="9.678379793368373"><ele>71.66666666666667</ele><time>2026-04-29T11:43:27.001Z</time></trkpt><trkpt lat="45.02113771422836" lon="9.678278081885338"><ele>72.0</ele><time>2026-04-29T11:43:28.001Z</time></trkpt><trkpt lat="45.02096215719434" lon="9.678180435171027"><ele>72.0</ele><time>2026-04-29T11:43:29.001Z</time></trkpt><trkpt lat="45.020791088038045" lon="9.67808901551057"><ele>72.0</ele><time>2026-04-29T11:43:30.001Z</time></trkpt><trkpt lat="45.020628472726095" lon="9.678000096734356"><ele>72.0</ele><time>2026-04-29T11:43:31.001Z</time></trkpt><trkpt lat="45.02046829222174" lon="9.677912976440265"><ele>72.0</ele><time>2026-04-29T11:43:32.001Z</time></trkpt><trkpt lat="45.02030925351449" lon="9.677825984009896"><ele>72.0</ele><time>2026-04-29T11:43:33.001Z</time></trkpt><trkpt lat="45.020152413027695" lon="9.677740545312613"><ele>72.0</ele><time>2026-04-29T11:43:34.001Z</time></trkpt><trkpt lat="45.02000880281829" lon="9.677662820317147"><ele>72.33333333333333</ele><time>2026-04-29T11:43:35.001Z</time></trkpt><trkpt lat="45.0198654214685" lon="9.677580227758384"><ele>72.66666666666666</ele><time>2026-04-29T11:43:36.001Z</time></trkpt><trkpt lat="45.0197227967625" lon="9.677495146962091"><ele>73.0</ele><time>2026-04-29T11:43:37.001Z</time></trkpt><trkpt lat="45.01957187812402" lon="9.67742104469543"><ele>73.0</ele><time>2026-04-29T11:43:38.001Z</time></trkpt><trkpt lat="45.01941560649196" lon="9.677321768062047"><ele>73.0</ele><time>2026-04-29T11:43:39.001Z</time></trkpt><trkpt lat="45.019234550532936" lon="9.677220460586696"><ele>73.0</ele><time>2026-04-29T11:43:40.001Z</time></trkpt><trkpt lat="45.01904512515183" lon="9.677105761078542"><ele>73.0</ele><time>2026-04-29T11:43:41.001Z</time></trkpt><trkpt lat="45.01886911246961" lon="9.677001334772578"><ele>73.0</ele><time>2026-04-29T11:43:42.001Z</time></trkpt><trkpt lat="45.018702551278146" lon="9.676904564000022"><ele>73.0</ele><time>2026-04-29T11:43:43.001Z</time></trkpt><trkpt lat="45.01854508902263" lon="9.676818149346191"><ele>73.0</ele><time>2026-04-29T11:43:44.001Z</time></trkpt><trkpt lat="45.0183963275288" lon="9.676726895668512"><ele>73.0</ele><time>2026-04-29T11:43:45.001Z</time></trkpt><trkpt lat="45.01824816641553" lon="9.676641559282183"><ele>73.0</ele><time>2026-04-29T11:43:46.001Z</time></trkpt><trkpt lat="45.01809239019248" lon="9.67656014419986"><ele>73.0</ele><time>2026-04-29T11:43:47.002Z</time></trkpt><trkpt lat="45.017916803050554" lon="9.676474009938028"><ele>73.0</ele><time>2026-04-29T11:43:48.002Z</time></trkpt><trkpt lat="45.01772984882472" lon="9.676366190170745"><ele>73.0</ele><time>2026-04-29T11:43:49.002Z</time></trkpt><trkpt lat="45.0175328190236" lon="9.676257571472744"><ele>73.0</ele><time>2026-04-29T11:43:50.002Z</time></trkpt><trkpt lat="45.017330046818124" lon="9.676147829113603"><ele>73.0</ele><time>2026-04-29T11:43:51.002Z</time></trkpt><trkpt lat="45.01712220700045" lon="9.676040133103545"><ele>73.0</ele><time>2026-04-29T11:43:52.002Z</time></trkpt><trkpt lat="45.01692813903791" lon="9.675945276346836"><ele>73.0</ele><time>2026-04-29T11:43:53.002Z</time></trkpt><trkpt lat="45.01674227351402" lon="9.675864133832812"><ele>73.0</ele><time>2026-04-29T11:43:54.002Z</time></trkpt><trkpt lat="45.016561862041875" lon="9.675784270405916"><ele>73.0</ele><time>2026-04-29T11:43:55.002Z</time></trkpt><trkpt lat="45.01637771641006" lon="9.675698084083248"><ele>73.33333333333333</ele><time>2026-04-29T11:43:56.002Z</time></trkpt><trkpt lat="45.01618339682701" lon="9.675610360829525"><ele>73.66666666666667</ele><time>2026-04-29T11:43:57.002Z</time></trkpt><trkpt lat="45.01598142186551" lon="9.675519151716285"><ele>74.0</ele><time>2026-04-29T11:43:58.002Z</time></trkpt><trkpt lat="45.01577810697331" lon="9.67542952783134"><ele>73.0</ele><time>2026-04-29T11:43:59.002Z</time></trkpt><trkpt lat="45.01557476192441" lon="9.675336215330791"><ele>72.0</ele><time>2026-04-29T11:44:00.002Z</time></trkpt><trkpt lat="45.01535908732231" lon="9.675237743879007"><ele>71.0</ele><time>2026-04-29T11:44:01.002Z</time></trkpt><trkpt lat="45.015142132741495" lon="9.675142419840366"><ele>72.0</ele><time>2026-04-29T11:44:02.002Z</time></trkpt><trkpt lat="45.01491415321901" lon="9.675011492885318"><ele>73.0</ele><time>2026-04-29T11:44:03.002Z</time></trkpt><trkpt lat="45.014670385170994" lon="9.674897416576218"><ele>73.0</ele><time>2026-04-29T11:44:04.002Z</time></trkpt><trkpt lat="45.01442885978942" lon="9.674784389767487"><ele>73.0</ele><time>2026-04-29T11:44:05.002Z</time></trkpt><trkpt lat="45.01417952502038" lon="9.674667603814033"><ele>73.5</ele><time>2026-04-29T11:44:06.002Z</time></trkpt><trkpt lat="45.0139263424744" lon="9.674564380586123"><ele>74.0</ele><time>2026-04-29T11:44:07.002Z</time></trkpt><trkpt lat="45.013678895201814" lon="9.67444173312364"><ele>74.0</ele><time>2026-04-29T11:44:08.002Z</time></trkpt><trkpt lat="45.013428574624946" lon="9.674326007523147"><ele>74.0</ele><time>2026-04-29T11:44:09.002Z</time></trkpt><trkpt lat="45.01317920380714" lon="9.674211748334749"><ele>73.5</ele><time>2026-04-29T11:44:10.002Z</time></trkpt><trkpt lat="45.0129334286842" lon="9.67409555711005"><ele>73.0</ele><time>2026-04-29T11:44:11.002Z</time></trkpt><trkpt lat="45.012698406926035" lon="9.673978429455284"><ele>73.5</ele><time>2026-04-29T11:44:12.002Z</time></trkpt><trkpt lat="45.01247775881461" lon="9.673844924684222"><ele>74.0</ele><time>2026-04-29T11:44:13.002Z</time></trkpt><trkpt lat="45.01226701705513" lon="9.673739962657239"><ele>74.0</ele><time>2026-04-29T11:44:14.002Z</time></trkpt><trkpt lat="45.012049589826766" lon="9.673644953981775"><ele>74.0</ele><time>2026-04-29T11:44:15.002Z</time></trkpt><trkpt lat="45.01183518703574" lon="9.673537240328042"><ele>74.66666666666667</ele><time>2026-04-29T11:44:16.002Z</time></trkpt><trkpt lat="45.01163424524646" lon="9.673429780650277"><ele>75.33333333333333</ele><time>2026-04-29T11:44:17.002Z</time></trkpt><trkpt lat="45.01143941185378" lon="9.673333161395412"><ele>76.0</ele><time>2026-04-29T11:44:18.002Z</time></trkpt><trkpt lat="45.01125199200629" lon="9.673244967380738"><ele>76.0</ele><time>2026-04-29T11:44:19.002Z</time></trkpt><trkpt lat="45.011077933121264" lon="9.67316167952204"><ele>76.0</ele><time>2026-04-29T11:44:20.002Z</time></trkpt><trkpt lat="45.01092323598965" lon="9.673087626851473"><ele>76.0</ele><time>2026-04-29T11:44:21.002Z</time></trkpt><trkpt lat="45.01079555591539" lon="9.673032428779056"><ele>75.39999999999999</ele><time>2026-04-29T11:44:22.002Z</time></trkpt><trkpt lat="45.01067881862149" lon="9.672990640022661"><ele>74.8</ele><time>2026-04-29T11:44:23.002Z</time></trkpt><trkpt lat="45.010587509669335" lon="9.672951021754326"><ele>74.19999999999999</ele><time>2026-04-29T11:44:24.002Z</time></trkpt><trkpt lat="45.01051767000068" lon="9.672883796857457"><ele>73.6</ele><time>2026-04-29T11:44:25.002Z</time></trkpt><trkpt lat="45.010433943403065" lon="9.672819677624435"><ele>73.0</ele><time>2026-04-29T11:44:26.002Z</time></trkpt><trkpt lat="45.0103263128107" lon="9.672800296124727"><ele>73.25</ele><time>2026-04-29T11:44:27.002Z</time></trkpt><trkpt lat="45.010201465230395" lon="9.672763835483577"><ele>73.5</ele><time>2026-04-29T11:44:28.002Z</time></trkpt><trkpt lat="45.01007446166861" lon="9.672675571031727"><ele>73.75</ele><time>2026-04-29T11:44:29.002Z</time></trkpt><trkpt lat="45.009925245437664" lon="9.672567200775438"><ele>74.0</ele><time>2026-04-29T11:44:30.002Z</time></trkpt><trkpt lat="45.009777656445024" lon="9.672478272551565"><ele>74.0</ele><time>2026-04-29T11:44:31.002Z</time></trkpt><trkpt lat="45.00960940750564" lon="9.67239243567006"><ele>74.0</ele><time>2026-04-29T11:44:32.002Z</time></trkpt><trkpt lat="45.00945575908356" lon="9.67230875108093"><ele>74.0</ele><time>2026-04-29T11:44:33.002Z</time></trkpt><trkpt lat="45.009297752970156" lon="9.67222927390756"><ele>75.0</ele><time>2026-04-29T11:44:34.003Z</time></trkpt><trkpt lat="45.00913965945685" lon="9.672146240205985"><ele>76.0</ele><time>2026-04-29T11:44:35.003Z</time></trkpt><trkpt lat="45.00898190945086" lon="9.672064986661312"><ele>77.0</ele><time>2026-04-29T11:44:36.003Z</time></trkpt><trkpt lat="45.00880476702903" lon="9.671982588606607"><ele>77.0</ele><time>2026-04-29T11:44:37.003Z</time></trkpt><trkpt lat="45.00862228220198" lon="9.671895089796058"><ele>77.0</ele><time>2026-04-29T11:44:38.003Z</time></trkpt><trkpt lat="45.008422873208545" lon="9.671802355393162"><ele>77.0</ele><time>2026-04-29T11:44:39.003Z</time></trkpt><trkpt lat="45.00821091213119" lon="9.671685596102737"><ele>77.0</ele><time>2026-04-29T11:44:40.003Z</time></trkpt><trkpt lat="45.0079737162053" lon="9.671571571721811"><ele>77.0</ele><time>2026-04-29T11:44:41.003Z</time></trkpt><trkpt lat="45.00771873696439" lon="9.671452559831385"><ele>77.0</ele><time>2026-04-29T11:44:42.003Z</time></trkpt><trkpt lat="45.007441804318134" lon="9.671344106862898"><ele>77.0</ele><time>2026-04-29T11:44:43.003Z</time></trkpt><trkpt lat="45.007185028838514" lon="9.67122353021213"><ele>77.0</ele><time>2026-04-29T11:44:44.003Z</time></trkpt><trkpt lat="45.00693728079182" lon="9.671105253913263"><ele>77.0</ele><time>2026-04-29T11:44:45.003Z</time></trkpt><trkpt lat="45.00669584690696" lon="9.670994144603002"><ele>77.0</ele><time>2026-04-29T11:44:46.003Z</time></trkpt><trkpt lat="45.00646450336823" lon="9.670888970785347"><ele>77.0</ele><time>2026-04-29T11:44:47.003Z</time></trkpt><trkpt lat="45.006259391221754" lon="9.670802120602312"><ele>77.0</ele><time>2026-04-29T11:44:48.003Z</time></trkpt><trkpt lat="45.0060396447149" lon="9.670704397046759"><ele>77.0</ele><time>2026-04-29T11:44:49.003Z</time></trkpt><trkpt lat="45.00581135261324" lon="9.67060003710635"><ele>77.0</ele><time>2026-04-29T11:44:50.003Z</time></trkpt><trkpt lat="45.00559755515353" lon="9.670500440232042"><ele>77.0</ele><time>2026-04-29T11:44:51.001Z</time></trkpt><trkpt lat="45.0053810756144" lon="9.670401619505052"><ele>77.0</ele><time>2026-04-29T11:44:52.001Z</time></trkpt><trkpt lat="45.00517995112004" lon="9.670308408351401"><ele>77.0</ele><time>2026-04-29T11:44:53.001Z</time></trkpt><trkpt lat="45.00498366197788" lon="9.670222707232426"><ele>77.0</ele><time>2026-04-29T11:44:54.001Z</time></trkpt><trkpt lat="45.004799694480155" lon="9.670145586540121"><ele>77.66666666666667</ele><time>2026-04-29T11:44:55.001Z</time></trkpt><trkpt lat="45.004632204263324" lon="9.670040944382274"><ele>78.33333333333333</ele><time>2026-04-29T11:44:56.001Z</time></trkpt><trkpt lat="45.00445709748564" lon="9.669963023886709"><ele>79.0</ele><time>2026-04-29T11:44:57.001Z</time></trkpt><trkpt lat="45.004295106699736" lon="9.669892485129353"><ele>79.0</ele><time>2026-04-29T11:44:58.001Z</time></trkpt><trkpt lat="45.00413859914986" lon="9.669798017225501"><ele>79.0</ele><time>2026-04-29T11:44:59.001Z</time></trkpt><trkpt lat="45.00390621013279" lon="9.669701979282985"><ele>79.0</ele><time>2026-04-29T11:45:00.001Z</time></trkpt><trkpt lat="45.00369096186077" lon="9.669593094546029"><ele>79.0</ele><time>2026-04-29T11:45:01.001Z</time></trkpt><trkpt lat="45.003489246506646" lon="9.66950510286982"><ele>79.0</ele><time>2026-04-29T11:45:02.001Z</time></trkpt><trkpt lat="45.00330247699193" lon="9.669426392781181"><ele>79.0</ele><time>2026-04-29T11:45:03.001Z</time></trkpt><trkpt lat="45.00313882579251" lon="9.66933825126954"><ele>79.33333333333333</ele><time>2026-04-29T11:45:04.001Z</time></trkpt><trkpt lat="45.00296592251877" lon="9.669252706396339"><ele>79.66666666666667</ele><time>2026-04-29T11:45:05.001Z</time></trkpt><trkpt lat="45.0028143963066" lon="9.669168957469656"><ele>80.0</ele><time>2026-04-29T11:45:06.001Z</time></trkpt><trkpt lat="45.00266010407286" lon="9.669088123731639"><ele>80.0</ele><time>2026-04-29T11:45:07.001Z</time></trkpt><trkpt lat="45.0025139278561" lon="9.669015164654983"><ele>80.0</ele><time>2026-04-29T11:45:08.001Z</time></trkpt><trkpt lat="45.00236598787221" lon="9.668946684839481"><ele>80.0</ele><time>2026-04-29T11:45:09.001Z</time></trkpt><trkpt lat="45.00222166626614" lon="9.66888416360072"><ele>80.33333333333334</ele><time>2026-04-29T11:45:10.001Z</time></trkpt><trkpt lat="45.00207235963839" lon="9.668808179002603"><ele>80.66666666666667</ele><time>2026-04-29T11:45:11.001Z</time></trkpt><trkpt lat="45.001921221909306" lon="9.668735536678888"><ele>81.0</ele><time>2026-04-29T11:45:12.001Z</time></trkpt><trkpt lat="45.001774024844536" lon="9.668664572496281"><ele>80.66666666666667</ele><time>2026-04-29T11:45:13.001Z</time></trkpt><trkpt lat="45.00162285272658" lon="9.668594715715098"><ele>80.33333333333334</ele><time>2026-04-29T11:45:14.001Z</time></trkpt><trkpt lat="45.001477139714176" lon="9.668522143191069"><ele>80.0</ele><time>2026-04-29T11:45:15.001Z</time></trkpt><trkpt lat="45.001329067545264" lon="9.668452740530254"><ele>80.0</ele><time>2026-04-29T11:45:16.001Z</time></trkpt><trkpt lat="45.00118594577798" lon="9.66838156932737"><ele>80.0</ele><time>2026-04-29T11:45:17.001Z</time></trkpt><trkpt lat="45.00103913083504" lon="9.668307801118535"><ele>80.0</ele><time>2026-04-29T11:45:18.001Z</time></trkpt><trkpt lat="45.00087395732468" lon="9.668238452505145"><ele>80.0</ele><time>2026-04-29T11:45:19.001Z</time></trkpt><trkpt lat="45.00069142439858" lon="9.668133939608051"><ele>80.0</ele><time>2026-04-29T11:45:20.001Z</time></trkpt><trkpt lat="45.0004956609592" lon="9.668040518586302"><ele>80.0</ele><time>2026-04-29T11:45:21.001Z</time></trkpt><trkpt lat="45.000319175953585" lon="9.667979645328037"><ele>80.0</ele><time>2026-04-29T11:45:22.001Z</time></trkpt><trkpt lat="45.000161062595765" lon="9.667901515982877"><ele>80.0</ele><time>2026-04-29T11:45:23.001Z</time></trkpt><trkpt lat="45.00001536994296" lon="9.667828061042188"><ele>80.0</ele><time>2026-04-29T11:45:24.001Z</time></trkpt><trkpt lat="44.99988467335006" lon="9.667759525679681"><ele>79.75</ele><time>2026-04-29T11:45:25.001Z</time></trkpt><trkpt lat="44.99976733294198" lon="9.66770240437922"><ele>79.5</ele><time>2026-04-29T11:45:26.001Z</time></trkpt><trkpt lat="44.999652245726715" lon="9.667647675121646"><ele>79.25</ele><time>2026-04-29T11:45:27.001Z</time></trkpt><trkpt lat="44.99953444353938" lon="9.6675885695352"><ele>79.0</ele><time>2026-04-29T11:45:28.001Z</time></trkpt><trkpt lat="44.99939042174122" lon="9.66752696307916"><ele>79.0</ele><time>2026-04-29T11:45:29.001Z</time></trkpt><trkpt lat="44.999221782194546" lon="9.667443857486939"><ele>79.0</ele><time>2026-04-29T11:45:30.001Z</time></trkpt><trkpt lat="44.999028792593776" lon="9.667343705448523"><ele>79.0</ele><time>2026-04-29T11:45:31.001Z</time></trkpt><trkpt lat="44.998815570515816" lon="9.667235953056588"><ele>79.33333333333333</ele><time>2026-04-29T11:45:32.001Z</time></trkpt><trkpt lat="44.9986198604249" lon="9.667137403758893"><ele>79.66666666666667</ele><time>2026-04-29T11:45:33.001Z</time></trkpt><trkpt lat="44.998422447848036" lon="9.667031293147412"><ele>80.0</ele><time>2026-04-29T11:45:34.001Z</time></trkpt><trkpt lat="44.99822949390922" lon="9.666921147106832"><ele>80.33333333333334</ele><time>2026-04-29T11:45:35.001Z</time></trkpt><trkpt lat="44.99804707218588" lon="9.666814683823446"><ele>80.66666666666667</ele><time>2026-04-29T11:45:36.001Z</time></trkpt><trkpt lat="44.99786837733037" lon="9.666712671191595"><ele>81.0</ele><time>2026-04-29T11:45:37.001Z</time></trkpt><trkpt lat="44.997699867446926" lon="9.666614085705504"><ele>81.0</ele><time>2026-04-29T11:45:38.001Z</time></trkpt><trkpt lat="44.997536698917436" lon="9.666511460222063"><ele>81.0</ele><time>2026-04-29T11:45:39.001Z</time></trkpt><trkpt lat="44.99736775532989" lon="9.666403766618835"><ele>81.0</ele><time>2026-04-29T11:45:40.001Z</time></trkpt><trkpt lat="44.99719318631423" lon="9.666294585963188"><ele>81.66666666666667</ele><time>2026-04-29T11:45:41.001Z</time></trkpt><trkpt lat="44.997026769305464" lon="9.666183513897272"><ele>82.33333333333334</ele><time>2026-04-29T11:45:42.001Z</time></trkpt><trkpt lat="44.996874715770865" lon="9.666068558200417"><ele>83.0</ele><time>2026-04-29T11:45:43.001Z</time></trkpt><trkpt lat="44.99672714796552" lon="9.665969915032885"><ele>83.66666666666667</ele><time>2026-04-29T11:45:44.001Z</time></trkpt><trkpt lat="44.99657853625695" lon="9.66588520852766"><ele>84.33333333333333</ele><time>2026-04-29T11:45:45.001Z</time></trkpt><trkpt lat="44.996414950205214" lon="9.665810827783744"><ele>85.0</ele><time>2026-04-29T11:45:46.001Z</time></trkpt><trkpt lat="44.996226782055814" lon="9.66574120786802"><ele>85.0</ele><time>2026-04-29T11:45:47.001Z</time></trkpt><trkpt lat="44.99601968604536" lon="9.665668453885255"><ele>85.0</ele><time>2026-04-29T11:45:48.001Z</time></trkpt><trkpt lat="44.995801594961236" lon="9.665598215102523"><ele>85.0</ele><time>2026-04-29T11:45:49.001Z</time></trkpt><trkpt lat="44.99557891651174" lon="9.665522861161492"><ele>84.5</ele><time>2026-04-29T11:45:50.001Z</time></trkpt><trkpt lat="44.995365956359535" lon="9.665438143869903"><ele>84.0</ele><time>2026-04-29T11:45:51.001Z</time></trkpt><trkpt lat="44.99513031975206" lon="9.665340978569526"><ele>84.5</ele><time>2026-04-29T11:45:52.001Z</time></trkpt><trkpt lat="44.994881298220875" lon="9.665228675566613"><ele>85.0</ele><time>2026-04-29T11:45:53.001Z</time></trkpt><trkpt lat="44.994645940842915" lon="9.665115415729694"><ele>85.0</ele><time>2026-04-29T11:45:54.001Z</time></trkpt><trkpt lat="44.994425976511714" lon="9.665008441160305"><ele>85.0</ele><time>2026-04-29T11:45:55.002Z</time></trkpt><trkpt lat="44.99421513271029" lon="9.66490549326706"><ele>85.0</ele><time>2026-04-29T11:45:56.002Z</time></trkpt><trkpt lat="44.99401256427441" lon="9.664815257318091"><ele>85.0</ele><time>2026-04-29T11:45:57.002Z</time></trkpt><trkpt lat="44.993799667707016" lon="9.664716835442473"><ele>85.0</ele><time>2026-04-29T11:45:58.002Z</time></trkpt><trkpt lat="44.99357051190405" lon="9.6646152929876"><ele>85.0</ele><time>2026-04-29T11:45:59.002Z</time></trkpt><trkpt lat="44.993332466955245" lon="9.664513777116278"><ele>85.0</ele><time>2026-04-29T11:46:00.002Z</time></trkpt><trkpt lat="44.99308870211652" lon="9.664415555340256"><ele>85.0</ele><time>2026-04-29T11:46:01.002Z</time></trkpt><trkpt lat="44.99284079492955" lon="9.664319352707535"><ele>85.0</ele><time>2026-04-29T11:46:02.002Z</time></trkpt><trkpt lat="44.99258920474153" lon="9.664232729217062"><ele>85.0</ele><time>2026-04-29T11:46:03.002Z</time></trkpt><trkpt lat="44.99234070797866" lon="9.664139993209377"><ele>85.0</ele><time>2026-04-29T11:46:04.002Z</time></trkpt><trkpt lat="44.992089023350125" lon="9.664044087239777"><ele>85.0</ele><time>2026-04-29T11:46:05.002Z</time></trkpt><trkpt lat="44.991837190251694" lon="9.663950894078468"><ele>85.0</ele><time>2026-04-29T11:46:06.002Z</time></trkpt><trkpt lat="44.991578962318655" lon="9.663855690868262"><ele>85.0</ele><time>2026-04-29T11:46:07.002Z</time></trkpt><trkpt lat="44.99132160932375" lon="9.663760046679343"><ele>85.0</ele><time>2026-04-29T11:46:08.002Z</time></trkpt><trkpt lat="44.991066383100694" lon="9.663667725299245"><ele>83.5</ele><time>2026-04-29T11:46:09.002Z</time></trkpt><trkpt lat="44.99080660529233" lon="9.66357161897515"><ele>82.0</ele><time>2026-04-29T11:46:10.002Z</time></trkpt><trkpt lat="44.990550669769874" lon="9.663481746788458"><ele>82.0</ele><time>2026-04-29T11:46:11.002Z</time></trkpt><trkpt lat="44.990292673822786" lon="9.66338807649425"><ele>82.0</ele><time>2026-04-29T11:46:12.002Z</time></trkpt><trkpt lat="44.99003392816322" lon="9.663295018527407"><ele>82.0</ele><time>2026-04-29T11:46:13.002Z</time></trkpt><trkpt lat="44.98980482595084" lon="9.663186226773783"><ele>82.0</ele><time>2026-04-29T11:46:14.002Z</time></trkpt><trkpt lat="44.989537531989896" lon="9.663099246592035"><ele>82.0</ele><time>2026-04-29T11:46:15.002Z</time></trkpt><trkpt lat="44.989294003984845" lon="9.663013112268208"><ele>82.0</ele><time>2026-04-29T11:46:16.002Z</time></trkpt><trkpt lat="44.98905978230063" lon="9.662930720862342"><ele>83.0</ele><time>2026-04-29T11:46:17.002Z</time></trkpt><trkpt lat="44.9888270548608" lon="9.662823570631337"><ele>84.0</ele><time>2026-04-29T11:46:18.002Z</time></trkpt><trkpt lat="44.98858652149333" lon="9.662705770921047"><ele>84.0</ele><time>2026-04-29T11:46:19.002Z</time></trkpt><trkpt lat="44.98837778105265" lon="9.662607972621817"><ele>84.0</ele><time>2026-04-29T11:46:20.002Z</time></trkpt><trkpt lat="44.988158820312485" lon="9.66249302132379"><ele>84.33333333333333</ele><time>2026-04-29T11:46:21.002Z</time></trkpt><trkpt lat="44.98795293539722" lon="9.662367438114327"><ele>84.66666666666666</ele><time>2026-04-29T11:46:22.002Z</time></trkpt><trkpt lat="44.987748852875626" lon="9.662255630232803"><ele>85.0</ele><time>2026-04-29T11:46:23.002Z</time></trkpt><trkpt lat="44.987547215314265" lon="9.662145161834463"><ele>85.0</ele><time>2026-04-29T11:46:24.002Z</time></trkpt><trkpt lat="44.98733968940888" lon="9.662034495153861"><ele>85.0</ele><time>2026-04-29T11:46:25.002Z</time></trkpt><trkpt lat="44.98711183189443" lon="9.661963171364523"><ele>85.5</ele><time>2026-04-29T11:46:26.002Z</time></trkpt><trkpt lat="44.98689758916575" lon="9.661822420235966"><ele>86.0</ele><time>2026-04-29T11:46:27.002Z</time></trkpt><trkpt lat="44.98668339126621" lon="9.661715184569259"><ele>86.5</ele><time>2026-04-29T11:46:28.002Z</time></trkpt><trkpt lat="44.98645630089468" lon="9.661604797970924"><ele>87.0</ele><time>2026-04-29T11:46:29.002Z</time></trkpt><trkpt lat="44.98621416993546" lon="9.66149312545448"><ele>87.0</ele><time>2026-04-29T11:46:30.002Z</time></trkpt><trkpt lat="44.985955234983685" lon="9.661372567814203"><ele>87.0</ele><time>2026-04-29T11:46:31.002Z</time></trkpt><trkpt lat="44.98551317388822" lon="9.66113199321122"><ele>87.5</ele><time>2026-04-29T11:46:32.002Z</time></trkpt><trkpt lat="44.98527718041222" lon="9.661063816828722"><ele>88.0</ele><time>2026-04-29T11:46:33.002Z</time></trkpt><trkpt lat="44.9850365014865" lon="9.660999608991574"><ele>88.0</ele><time>2026-04-29T11:46:34.002Z</time></trkpt><trkpt lat="44.98479239995159" lon="9.660941126227494"><ele>88.0</ele><time>2026-04-29T11:46:35.002Z</time></trkpt><trkpt lat="44.984550083877586" lon="9.660883553510596"><ele>88.0</ele><time>2026-04-29T11:46:36.002Z</time></trkpt><trkpt lat="44.98430569746023" lon="9.660817781955949"><ele>88.0</ele><time>2026-04-29T11:46:37.002Z</time></trkpt><trkpt lat="44.98406411939922" lon="9.66075574777915"><ele>87.5</ele><time>2026-04-29T11:46:38.002Z</time></trkpt><trkpt lat="44.983821136311896" lon="9.660685590871157"><ele>87.0</ele><time>2026-04-29T11:46:39.002Z</time></trkpt><trkpt lat="44.98356869478048" lon="9.660614015945383"><ele>88.0</ele><time>2026-04-29T11:46:40.002Z</time></trkpt><trkpt lat="44.983311718625636" lon="9.660547585726455"><ele>89.0</ele><time>2026-04-29T11:46:41.002Z</time></trkpt><trkpt lat="44.98305491403831" lon="9.660474588176081"><ele>89.0</ele><time>2026-04-29T11:46:42.002Z</time></trkpt><trkpt lat="44.982799184563554" lon="9.660404892812904"><ele>89.0</ele><time>2026-04-29T11:46:43.002Z</time></trkpt><trkpt lat="44.98254770639903" lon="9.660332903573455"><ele>89.0</ele><time>2026-04-29T11:46:44.002Z</time></trkpt><trkpt lat="44.98231015288565" lon="9.660268656624714"><ele>89.0</ele><time>2026-04-29T11:46:45.002Z</time></trkpt><trkpt lat="44.98208897564664" lon="9.660202372588325"><ele>89.0</ele><time>2026-04-29T11:46:46.002Z</time></trkpt><trkpt lat="44.981877500537934" lon="9.660145427857554"><ele>89.0</ele><time>2026-04-29T11:46:47.002Z</time></trkpt><trkpt lat="44.98166006140084" lon="9.660088825971325"><ele>89.0</ele><time>2026-04-29T11:46:48.003Z</time></trkpt><trkpt lat="44.9814479896371" lon="9.66004304219181"><ele>89.0</ele><time>2026-04-29T11:46:49.003Z</time></trkpt><trkpt lat="44.9812323540543" lon="9.659983161616323"><ele>89.0</ele><time>2026-04-29T11:46:50.003Z</time></trkpt><trkpt lat="44.98099015116704" lon="9.659924096670766"><ele>89.0</ele><time>2026-04-29T11:46:51.003Z</time></trkpt><trkpt lat="44.980740494389124" lon="9.659861785229467"><ele>89.0</ele><time>2026-04-29T11:46:52.003Z</time></trkpt><trkpt lat="44.98048077601585" lon="9.659790954820064"><ele>89.0</ele><time>2026-04-29T11:46:53.003Z</time></trkpt><trkpt lat="44.98022796420199" lon="9.659709810681779"><ele>89.0</ele><time>2026-04-29T11:46:54.003Z</time></trkpt><trkpt lat="44.97997844950073" lon="9.659638821914065"><ele>89.0</ele><time>2026-04-29T11:46:55.003Z</time></trkpt><trkpt lat="44.97974130285095" lon="9.65957445996517"><ele>89.0</ele><time>2026-04-29T11:46:56.003Z</time></trkpt><trkpt lat="44.97950675119122" lon="9.659510735335248"><ele>89.5</ele><time>2026-04-29T11:46:57.002Z</time></trkpt><trkpt lat="44.979262378350974" lon="9.659443470082854"><ele>90.0</ele><time>2026-04-29T11:46:58.001Z</time></trkpt><trkpt lat="44.979005057601164" lon="9.659371869689693"><ele>91.0</ele><time>2026-04-29T11:46:59.001Z</time></trkpt><trkpt lat="44.97874533635512" lon="9.659303361905945"><ele>92.0</ele><time>2026-04-29T11:47:00.001Z</time></trkpt><trkpt lat="44.97849013680676" lon="9.659239329952966"><ele>91.0</ele><time>2026-04-29T11:47:01.001Z</time></trkpt><trkpt lat="44.97821969103599" lon="9.659171209300503"><ele>90.0</ele><time>2026-04-29T11:47:02.001Z</time></trkpt><trkpt lat="44.97796422870869" lon="9.659101651761786"><ele>90.0</ele><time>2026-04-29T11:47:03.001Z</time></trkpt><trkpt lat="44.97771388612844" lon="9.659027315545824"><ele>90.0</ele><time>2026-04-29T11:47:04.001Z</time></trkpt><trkpt lat="44.97747718768952" lon="9.65895963199491"><ele>90.5</ele><time>2026-04-29T11:47:05.001Z</time></trkpt><trkpt lat="44.9772517151406" lon="9.658895949426796"><ele>91.0</ele><time>2026-04-29T11:47:06.001Z</time></trkpt><trkpt lat="44.97703544158416" lon="9.658831726465637"><ele>91.0</ele><time>2026-04-29T11:47:07.001Z</time></trkpt><trkpt lat="44.97679896320367" lon="9.658767148195743"><ele>91.0</ele><time>2026-04-29T11:47:08.001Z</time></trkpt><trkpt lat="44.9765519664805" lon="9.658704461634445"><ele>91.5</ele><time>2026-04-29T11:47:09.001Z</time></trkpt><trkpt lat="44.97631767983507" lon="9.658643405461477"><ele>92.0</ele><time>2026-04-29T11:47:10.001Z</time></trkpt><trkpt lat="44.97610126241482" lon="9.658579968287663"><ele>92.0</ele><time>2026-04-29T11:47:11.001Z</time></trkpt><trkpt lat="44.97588445824348" lon="9.658515120495451"><ele>92.0</ele><time>2026-04-29T11:47:12.001Z</time></trkpt><trkpt lat="44.97565468743913" lon="9.658435732304438"><ele>92.5</ele><time>2026-04-29T11:47:13.001Z</time></trkpt><trkpt lat="44.97541224226269" lon="9.658326797109927"><ele>93.0</ele><time>2026-04-29T11:47:14.001Z</time></trkpt><trkpt lat="44.975159875714205" lon="9.658211321571187"><ele>93.5</ele><time>2026-04-29T11:47:15.001Z</time></trkpt><trkpt lat="44.97492664455725" lon="9.658071162249524"><ele>94.0</ele><time>2026-04-29T11:47:16.001Z</time></trkpt><trkpt lat="44.9747064073689" lon="9.657951553475794"><ele>94.0</ele><time>2026-04-29T11:47:17.001Z</time></trkpt><trkpt lat="44.974496041439856" lon="9.657845509524973"><ele>94.0</ele><time>2026-04-29T11:47:18.001Z</time></trkpt><trkpt lat="44.97428951318114" lon="9.657739657644996"><ele>94.0</ele><time>2026-04-29T11:47:19.001Z</time></trkpt><trkpt lat="44.97409908608938" lon="9.657636730178009"><ele>93.66666666666666</ele><time>2026-04-29T11:47:20.001Z</time></trkpt><trkpt lat="44.97393876388357" lon="9.65755557986496"><ele>93.33333333333333</ele><time>2026-04-29T11:47:21.001Z</time></trkpt><trkpt lat="44.973794212001216" lon="9.657483570393103"><ele>93.0</ele><time>2026-04-29T11:47:22.001Z</time></trkpt><trkpt lat="44.97365990193916" lon="9.657419387706852"><ele>93.0</ele><time>2026-04-29T11:47:23.001Z</time></trkpt><trkpt lat="44.97353054587921" lon="9.6573523641703"><ele>93.0</ele><time>2026-04-29T11:47:24.001Z</time></trkpt><trkpt lat="44.97341065909872" lon="9.65727719707782"><ele>93.0</ele><time>2026-04-29T11:47:25.001Z</time></trkpt><trkpt lat="44.9732945138112" lon="9.657207282748525"><ele>93.0</ele><time>2026-04-29T11:47:26.001Z</time></trkpt><trkpt lat="44.973183782543266" lon="9.65715043531932"><ele>93.5</ele><time>2026-04-29T11:47:27.001Z</time></trkpt><trkpt lat="44.973074180098294" lon="9.657101814324974"><ele>94.0</ele><time>2026-04-29T11:47:28.001Z</time></trkpt><trkpt lat="44.97297442783597" lon="9.65704302137268"><ele>94.5</ele><time>2026-04-29T11:47:29.001Z</time></trkpt><trkpt lat="44.9728619107248" lon="9.656981339783997"><ele>95.0</ele><time>2026-04-29T11:47:30.001Z</time></trkpt><trkpt lat="44.97275201576608" lon="9.656921127930916"><ele>95.0</ele><time>2026-04-29T11:47:31.001Z</time></trkpt><trkpt lat="44.972652183080704" lon="9.656870475403348"><ele>95.0</ele><time>2026-04-29T11:47:32.001Z</time></trkpt><trkpt lat="44.97255230601887" lon="9.656823977752573"><ele>95.0</ele><time>2026-04-29T11:47:33.001Z</time></trkpt><trkpt lat="44.97245779478189" lon="9.65677923439854"><ele>95.0</ele><time>2026-04-29T11:47:34.001Z</time></trkpt><trkpt lat="44.972370370489315" lon="9.656736585780415"><ele>95.0</ele><time>2026-04-29T11:47:35.001Z</time></trkpt><trkpt lat="44.972280599146025" lon="9.656690498509992"><ele>95.25</ele><time>2026-04-29T11:47:36.001Z</time></trkpt><trkpt lat="44.9721799100566" lon="9.65663648714878"><ele>95.5</ele><time>2026-04-29T11:47:37.001Z</time></trkpt><trkpt lat="44.972076877266105" lon="9.656582058834704"><ele>95.75</ele><time>2026-04-29T11:47:38.001Z</time></trkpt><trkpt lat="44.971967363503396" lon="9.656523544803653"><ele>96.0</ele><time>2026-04-29T11:47:39.001Z</time></trkpt><trkpt lat="44.97185480811462" lon="9.656464042918268"><ele>96.0</ele><time>2026-04-29T11:47:40.001Z</time></trkpt><trkpt lat="44.97174355890407" lon="9.656404532265402"><ele>96.0</ele><time>2026-04-29T11:47:41.001Z</time></trkpt><trkpt lat="44.971635291490415" lon="9.656349161322801"><ele>96.0</ele><time>2026-04-29T11:47:42.001Z</time></trkpt><trkpt lat="44.971503565466854" lon="9.65628507819487"><ele>96.0</ele><time>2026-04-29T11:47:43.001Z</time></trkpt><trkpt lat="44.9713620986775" lon="9.656210588454586"><ele>96.0</ele><time>2026-04-29T11:47:44.001Z</time></trkpt><trkpt lat="44.97122745297879" lon="9.656141511407366"><ele>96.0</ele><time>2026-04-29T11:47:45.001Z</time></trkpt><trkpt lat="44.97109584633019" lon="9.656074393570831"><ele>96.0</ele><time>2026-04-29T11:47:46.001Z</time></trkpt><trkpt lat="44.970957424000545" lon="9.656003474520075"><ele>96.0</ele><time>2026-04-29T11:47:47.001Z</time></trkpt><trkpt lat="44.970817781134514" lon="9.655932743018136"><ele>96.0</ele><time>2026-04-29T11:47:48.001Z</time></trkpt><trkpt lat="44.970675830807444" lon="9.65586042057484"><ele>96.0</ele><time>2026-04-29T11:47:49.001Z</time></trkpt><trkpt lat="44.97054003793312" lon="9.655791539934459"><ele>96.0</ele><time>2026-04-29T11:47:50.001Z</time></trkpt><trkpt lat="44.970399519589165" lon="9.655716688216977"><ele>96.0</ele><time>2026-04-29T11:47:51.001Z</time></trkpt><trkpt lat="44.97026035389591" lon="9.655643034762175"><ele>96.0</ele><time>2026-04-29T11:47:52.001Z</time></trkpt><trkpt lat="44.97011423181777" lon="9.655564420095397"><ele>96.0</ele><time>2026-04-29T11:47:53.001Z</time></trkpt><trkpt lat="44.96996511435863" lon="9.655486990002442"><ele>96.0</ele><time>2026-04-29T11:47:54.001Z</time></trkpt><trkpt lat="44.969799511266565" lon="9.655410276090318"><ele>96.0</ele><time>2026-04-29T11:47:55.001Z</time></trkpt><trkpt lat="44.969613085505316" lon="9.655328493539105"><ele>96.0</ele><time>2026-04-29T11:47:56.001Z</time></trkpt><trkpt lat="44.969432133107716" lon="9.65521142820093"><ele>96.0</ele><time>2026-04-29T11:47:57.001Z</time></trkpt><trkpt lat="44.96919427774574" lon="9.655089323985598"><ele>96.5</ele><time>2026-04-29T11:47:58.001Z</time></trkpt><trkpt lat="44.968955416819796" lon="9.654966500893519"><ele>97.0</ele><time>2026-04-29T11:47:59.001Z</time></trkpt><trkpt lat="44.96869396331686" lon="9.654832060777174"><ele>97.0</ele><time>2026-04-29T11:48:00.001Z</time></trkpt><trkpt lat="44.9684152988086" lon="9.654688770435662"><ele>97.0</ele><time>2026-04-29T11:48:01.001Z</time></trkpt><trkpt lat="44.96812672284286" lon="9.65454038580868"><ele>97.5</ele><time>2026-04-29T11:48:02.001Z</time></trkpt><trkpt lat="44.96785818629806" lon="9.654402303451514"><ele>98.0</ele><time>2026-04-29T11:48:03.001Z</time></trkpt><trkpt lat="44.967605605616164" lon="9.654287546566106"><ele>98.5</ele><time>2026-04-29T11:48:04.001Z</time></trkpt><trkpt lat="44.96737381445095" lon="9.654162221941716"><ele>99.0</ele><time>2026-04-29T11:48:05.001Z</time></trkpt><trkpt lat="44.96715006101485" lon="9.654042550735385"><ele>99.0</ele><time>2026-04-29T11:48:06.001Z</time></trkpt><trkpt lat="44.96691800236462" lon="9.653919069349433"><ele>99.0</ele><time>2026-04-29T11:48:07.001Z</time></trkpt><trkpt lat="44.9666856658738" lon="9.653794738021753"><ele>99.0</ele><time>2026-04-29T11:48:08.001Z</time></trkpt><trkpt lat="44.96645820989158" lon="9.653674564354272"><ele>99.0</ele><time>2026-04-29T11:48:09.002Z</time></trkpt><trkpt lat="44.96623288897537" lon="9.653555976668349"><ele>99.0</ele><time>2026-04-29T11:48:10.002Z</time></trkpt><trkpt lat="44.96601340026245" lon="9.653441587881243"><ele>99.0</ele><time>2026-04-29T11:48:11.002Z</time></trkpt><trkpt lat="44.96579540010627" lon="9.65333120572952"><ele>99.5</ele><time>2026-04-29T11:48:12.002Z</time></trkpt><trkpt lat="44.965577321792516" lon="9.653217801566388"><ele>100.0</ele><time>2026-04-29T11:48:13.002Z</time></trkpt><trkpt lat="44.9653640131817" lon="9.653105989218972"><ele>100.0</ele><time>2026-04-29T11:48:14.002Z</time></trkpt><trkpt lat="44.96514522773618" lon="9.652984987246061"><ele>100.0</ele><time>2026-04-29T11:48:15.002Z</time></trkpt><trkpt lat="44.96492566214126" lon="9.65286295369737"><ele>100.5</ele><time>2026-04-29T11:48:16.002Z</time></trkpt><trkpt lat="44.96470957828685" lon="9.65273423081018"><ele>101.0</ele><time>2026-04-29T11:48:17.002Z</time></trkpt><trkpt lat="44.96449889864797" lon="9.652599757882745"><ele>101.0</ele><time>2026-04-29T11:48:18.002Z</time></trkpt><trkpt lat="44.96428316877726" lon="9.652445598665977"><ele>101.0</ele><time>2026-04-29T11:48:19.002Z</time></trkpt><trkpt lat="44.96406890393652" lon="9.652282005746354"><ele>101.5</ele><time>2026-04-29T11:48:20.002Z</time></trkpt><trkpt lat="44.96386561127242" lon="9.652114004829023"><ele>102.0</ele><time>2026-04-29T11:48:21.002Z</time></trkpt><trkpt lat="44.963652364342245" lon="9.651944107840041"><ele>101.5</ele><time>2026-04-29T11:48:22.002Z</time></trkpt><trkpt lat="44.963437412314676" lon="9.6517777270279"><ele>101.0</ele><time>2026-04-29T11:48:23.002Z</time></trkpt><trkpt lat="44.96323085264266" lon="9.651624560161727"><ele>101.0</ele><time>2026-04-29T11:48:24.002Z</time></trkpt><trkpt lat="44.963034246176925" lon="9.651469603666667"><ele>101.0</ele><time>2026-04-29T11:48:25.002Z</time></trkpt><trkpt lat="44.9628429729303" lon="9.651320219887394"><ele>101.0</ele><time>2026-04-29T11:48:26.002Z</time></trkpt><trkpt lat="44.96265102346749" lon="9.65117051175527"><ele>101.33333333333333</ele><time>2026-04-29T11:48:27.002Z</time></trkpt><trkpt lat="44.96246363886702" lon="9.651029990438195"><ele>101.66666666666666</ele><time>2026-04-29T11:48:28.002Z</time></trkpt><trkpt lat="44.962273047669306" lon="9.65088319627311"><ele>102.0</ele><time>2026-04-29T11:48:29.002Z</time></trkpt><trkpt lat="44.962091502852395" lon="9.650740003838543"><ele>102.0</ele><time>2026-04-29T11:48:30.002Z</time></trkpt><trkpt lat="44.961922720611746" lon="9.650605816781175"><ele>102.0</ele><time>2026-04-29T11:48:31.002Z</time></trkpt><trkpt lat="44.96176362425859" lon="9.650479804693513"><ele>102.0</ele><time>2026-04-29T11:48:32.002Z</time></trkpt><trkpt lat="44.961620110265656" lon="9.650363737000527"><ele>101.66666666666666</ele><time>2026-04-29T11:48:33.002Z</time></trkpt><trkpt lat="44.961497614544456" lon="9.650263837034258"><ele>101.33333333333333</ele><time>2026-04-29T11:48:34.002Z</time></trkpt><trkpt lat="44.96135500117175" lon="9.650154088311478"><ele>101.0</ele><time>2026-04-29T11:48:35.002Z</time></trkpt><trkpt lat="44.9611890573169" lon="9.65001884949958"><ele>101.0</ele><time>2026-04-29T11:48:36.002Z</time></trkpt><trkpt lat="44.961005080341856" lon="9.649855545836818"><ele>101.0</ele><time>2026-04-29T11:48:37.002Z</time></trkpt><trkpt lat="44.96079821604853" lon="9.649683115186923"><ele>101.5</ele><time>2026-04-29T11:48:38.002Z</time></trkpt><trkpt lat="44.960585793191875" lon="9.649518486867207"><ele>102.0</ele><time>2026-04-29T11:48:39.002Z</time></trkpt><trkpt lat="44.96038028146967" lon="9.649354923110097"><ele>102.0</ele><time>2026-04-29T11:48:40.002Z</time></trkpt><trkpt lat="44.96016861656901" lon="9.64918997233378"><ele>102.0</ele><time>2026-04-29T11:48:41.002Z</time></trkpt><trkpt lat="44.95995814548327" lon="9.649022947620903"><ele>103.0</ele><time>2026-04-29T11:48:42.002Z</time></trkpt><trkpt lat="44.95974774958563" lon="9.648860091542357"><ele>104.0</ele><time>2026-04-29T11:48:43.002Z</time></trkpt><trkpt lat="44.959537127511155" lon="9.648695613117225"><ele>104.0</ele><time>2026-04-29T11:48:44.002Z</time></trkpt><trkpt lat="44.95933039893391" lon="9.648530329863293"><ele>104.0</ele><time>2026-04-29T11:48:45.002Z</time></trkpt><trkpt lat="44.95912139808007" lon="9.648367987846484"><ele>104.5</ele><time>2026-04-29T11:48:46.002Z</time></trkpt><trkpt lat="44.958912781689264" lon="9.648201085513302"><ele>105.0</ele><time>2026-04-29T11:48:47.002Z</time></trkpt><trkpt lat="44.958704932433704" lon="9.648036946211967"><ele>105.0</ele><time>2026-04-29T11:48:48.002Z</time></trkpt><trkpt lat="44.9584942416184" lon="9.647873920466209"><ele>105.0</ele><time>2026-04-29T11:48:49.002Z</time></trkpt><trkpt lat="44.95828831001708" lon="9.647710644072736"><ele>105.0</ele><time>2026-04-29T11:48:50.002Z</time></trkpt><trkpt lat="44.95808519424938" lon="9.647547548982336"><ele>105.0</ele><time>2026-04-29T11:48:51.002Z</time></trkpt><trkpt lat="44.95788181997407" lon="9.647387639163968"><ele>105.0</ele><time>2026-04-29T11:48:52.002Z</time></trkpt><trkpt lat="44.95768020489148" lon="9.647232155086051"><ele>105.0</ele><time>2026-04-29T11:48:53.002Z</time></trkpt><trkpt lat="44.95748005043005" lon="9.647080825669207"><ele>105.66666666666666</ele><time>2026-04-29T11:48:54.002Z</time></trkpt><trkpt lat="44.957285402007926" lon="9.646932150816015"><ele>106.33333333333333</ele><time>2026-04-29T11:48:55.002Z</time></trkpt><trkpt lat="44.95710730431464" lon="9.646789918669215"><ele>107.0</ele><time>2026-04-29T11:48:56.002Z</time></trkpt><trkpt lat="44.95693027715572" lon="9.646646704956106"><ele>107.0</ele><time>2026-04-29T11:48:57.002Z</time></trkpt><trkpt lat="44.9567534749626" lon="9.646491455661824"><ele>107.0</ele><time>2026-04-29T11:48:58.002Z</time></trkpt><trkpt lat="44.95657745331328" lon="9.646331206514997"><ele>107.0</ele><time>2026-04-29T11:48:59.002Z</time></trkpt><trkpt lat="44.956394325581094" lon="9.64615545398404"><ele>107.0</ele><time>2026-04-29T11:49:00.002Z</time></trkpt><trkpt lat="44.95620880830228" lon="9.645975965409841"><ele>107.0</ele><time>2026-04-29T11:49:01.002Z</time></trkpt><trkpt lat="44.956024451334436" lon="9.64578619816397"><ele>108.0</ele><time>2026-04-29T11:49:02.002Z</time></trkpt><trkpt lat="44.95584178640506" lon="9.645585501106343"><ele>109.0</ele><time>2026-04-29T11:49:03.001Z</time></trkpt><trkpt lat="44.95565853275216" lon="9.64537830627793"><ele>109.5</ele><time>2026-04-29T11:49:04.001Z</time></trkpt><trkpt lat="44.95547637925291" lon="9.645152679119443"><ele>110.0</ele><time>2026-04-29T11:49:05.001Z</time></trkpt><trkpt lat="44.9553090896975" lon="9.644914485914933"><ele>110.0</ele><time>2026-04-29T11:49:06.001Z</time></trkpt><trkpt lat="44.95512994031078" lon="9.644710024752813"><ele>110.0</ele><time>2026-04-29T11:49:07.001Z</time></trkpt><trkpt lat="44.95495499714406" lon="9.644481001394546"><ele>110.0</ele><time>2026-04-29T11:49:08.001Z</time></trkpt><trkpt lat="44.95478163637166" lon="9.644245021739662"><ele>110.0</ele><time>2026-04-29T11:49:09.001Z</time></trkpt><trkpt lat="44.95461331963841" lon="9.644021400643348"><ele>110.0</ele><time>2026-04-29T11:49:10.001Z</time></trkpt><trkpt lat="44.954444224810196" lon="9.643814813831534"><ele>110.0</ele><time>2026-04-29T11:49:11.001Z</time></trkpt><trkpt lat="44.95427586219784" lon="9.643608035988962"><ele>110.0</ele><time>2026-04-29T11:49:12.001Z</time></trkpt><trkpt lat="44.95411798566743" lon="9.643369823302026"><ele>111.0</ele><time>2026-04-29T11:49:13.001Z</time></trkpt><trkpt lat="44.95395478610163" lon="9.643152631596823"><ele>112.0</ele><time>2026-04-29T11:49:14.001Z</time></trkpt><trkpt lat="44.95379459556544" lon="9.642938868179053"><ele>113.0</ele><time>2026-04-29T11:49:15.001Z</time></trkpt><trkpt lat="44.95363108450504" lon="9.64272033350448"><ele>113.0</ele><time>2026-04-29T11:49:16.001Z</time></trkpt><trkpt lat="44.95346223726196" lon="9.642498363378936"><ele>113.0</ele><time>2026-04-29T11:49:17.001Z</time></trkpt><trkpt lat="44.953287099607095" lon="9.642274103582452"><ele>113.0</ele><time>2026-04-29T11:49:18.001Z</time></trkpt><trkpt lat="44.95308470886988" lon="9.642041150107403"><ele>113.0</ele><time>2026-04-29T11:49:19.001Z</time></trkpt><trkpt lat="44.95287506725262" lon="9.641793483524276"><ele>113.0</ele><time>2026-04-29T11:49:20.001Z</time></trkpt><trkpt lat="44.95281583311314" lon="9.641688082610283"><ele>113.0</ele><time>2026-04-29T11:49:21.001Z</time></trkpt><trkpt lat="44.95265201133207" lon="9.641496870461694"><ele>113.0</ele><time>2026-04-29T11:49:22.001Z</time></trkpt><trkpt lat="44.95249253918858" lon="9.641314436146132"><ele>113.33333333333333</ele><time>2026-04-29T11:49:23.001Z</time></trkpt><trkpt lat="44.952321919595185" lon="9.641139013602448"><ele>113.66666666666666</ele><time>2026-04-29T11:49:24.001Z</time></trkpt><trkpt lat="44.95215165352064" lon="9.640968465030506"><ele>114.0</ele><time>2026-04-29T11:49:25.001Z</time></trkpt><trkpt lat="44.9519898177998" lon="9.640795466651246"><ele>114.0</ele><time>2026-04-29T11:49:26.001Z</time></trkpt><trkpt lat="44.95180985239056" lon="9.640618722714127"><ele>114.0</ele><time>2026-04-29T11:49:27.001Z</time></trkpt><trkpt lat="44.951611042547064" lon="9.640429112465768"><ele>114.0</ele><time>2026-04-29T11:49:28.001Z</time></trkpt><trkpt lat="44.95141157776469" lon="9.640234295998798"><ele>114.0</ele><time>2026-04-29T11:49:29.001Z</time></trkpt><trkpt lat="44.951199928715624" lon="9.640035578251895"><ele>114.0</ele><time>2026-04-29T11:49:30.001Z</time></trkpt><trkpt lat="44.95098133421188" lon="9.639845189447785"><ele>114.0</ele><time>2026-04-29T11:49:31.001Z</time></trkpt><trkpt lat="44.95075048968093" lon="9.6396525495443"><ele>115.5</ele><time>2026-04-29T11:49:32.001Z</time></trkpt><trkpt lat="44.95052011293859" lon="9.639457386111788"><ele>117.0</ele><time>2026-04-29T11:49:33.001Z</time></trkpt><trkpt lat="44.95028725125121" lon="9.63926076134427"><ele>117.0</ele><time>2026-04-29T11:49:34.001Z</time></trkpt><trkpt lat="44.95005531799779" lon="9.639070890714374"><ele>117.0</ele><time>2026-04-29T11:49:35.001Z</time></trkpt><trkpt lat="44.94983330002503" lon="9.638891365423968"><ele>117.0</ele><time>2026-04-29T11:49:36.001Z</time></trkpt><trkpt lat="44.94960669311245" lon="9.63871809634824"><ele>117.0</ele><time>2026-04-29T11:49:37.001Z</time></trkpt><trkpt lat="44.94937939347709" lon="9.638567232549459"><ele>118.0</ele><time>2026-04-29T11:49:38.001Z</time></trkpt><trkpt lat="44.94915811071719" lon="9.638420021363501"><ele>119.0</ele><time>2026-04-29T11:49:39.001Z</time></trkpt><trkpt lat="44.94894924814009" lon="9.638272985015659"><ele>119.0</ele><time>2026-04-29T11:49:40.001Z</time></trkpt><trkpt lat="44.94874139102547" lon="9.638127717728588"><ele>119.0</ele><time>2026-04-29T11:49:41.001Z</time></trkpt><trkpt lat="44.94853721313761" lon="9.637988885090872"><ele>119.0</ele><time>2026-04-29T11:49:42.001Z</time></trkpt><trkpt lat="44.948351097907874" lon="9.637859730210307"><ele>119.0</ele><time>2026-04-29T11:49:43.001Z</time></trkpt><trkpt lat="44.94815421675752" lon="9.637728093151466"><ele>119.0</ele><time>2026-04-29T11:49:44.001Z</time></trkpt><trkpt lat="44.94796208487921" lon="9.63759057476642"><ele>119.0</ele><time>2026-04-29T11:49:45.001Z</time></trkpt><trkpt lat="44.94775987288651" lon="9.637444110217576"><ele>119.0</ele><time>2026-04-29T11:49:46.001Z</time></trkpt><trkpt lat="44.94755201768278" lon="9.637296990002712"><ele>119.0</ele><time>2026-04-29T11:49:47.001Z</time></trkpt><trkpt lat="44.947345604397285" lon="9.637153957350032"><ele>119.0</ele><time>2026-04-29T11:49:48.001Z</time></trkpt><trkpt lat="44.94713929790805" lon="9.63700997923312"><ele>119.0</ele><time>2026-04-29T11:49:49.001Z</time></trkpt><trkpt lat="44.94692821864862" lon="9.636863951381864"><ele>119.0</ele><time>2026-04-29T11:49:50.001Z</time></trkpt><trkpt lat="44.94671582337263" lon="9.63671849999985"><ele>120.5</ele><time>2026-04-29T11:49:51.001Z</time></trkpt><trkpt lat="44.94650134867234" lon="9.636565441858474"><ele>122.0</ele><time>2026-04-29T11:49:52.001Z</time></trkpt><trkpt lat="44.946287632883354" lon="9.63641313971323"><ele>122.0</ele><time>2026-04-29T11:49:53.001Z</time></trkpt><trkpt lat="44.9460692193967" lon="9.636259042209277"><ele>122.0</ele><time>2026-04-29T11:49:54.001Z</time></trkpt><trkpt lat="44.94585111059451" lon="9.636101355991363"><ele>121.5</ele><time>2026-04-29T11:49:55.001Z</time></trkpt><trkpt lat="44.94562952195553" lon="9.635944573417685"><ele>121.0</ele><time>2026-04-29T11:49:56.001Z</time></trkpt><trkpt lat="44.94540698710196" lon="9.635788235975763"><ele>121.0</ele><time>2026-04-29T11:49:57.001Z</time></trkpt><trkpt lat="44.945192609307064" lon="9.635640264434691"><ele>121.0</ele><time>2026-04-29T11:49:58.001Z</time></trkpt><trkpt lat="44.944980901741886" lon="9.635496902922931"><ele>121.0</ele><time>2026-04-29T11:49:59.001Z</time></trkpt><trkpt lat="44.94477271219876" lon="9.635352853084695"><ele>121.0</ele><time>2026-04-29T11:50:00.001Z</time></trkpt><trkpt lat="44.94456457609746" lon="9.635206714732613"><ele>121.0</ele><time>2026-04-29T11:50:01.001Z</time></trkpt><trkpt lat="44.9443646303093" lon="9.635065203254234"><ele>121.0</ele><time>2026-04-29T11:50:02.001Z</time></trkpt><trkpt lat="44.944167219768666" lon="9.634930047630485"><ele>121.0</ele><time>2026-04-29T11:50:03.001Z</time></trkpt><trkpt lat="44.943974529330774" lon="9.634792546414952"><ele>120.66666666666667</ele><time>2026-04-29T11:50:04.001Z</time></trkpt><trkpt lat="44.94378441199777" lon="9.634657427013025"><ele>120.33333333333334</ele><time>2026-04-29T11:50:05.001Z</time></trkpt><trkpt lat="44.94360364839542" lon="9.634522580790893"><ele>120.0</ele><time>2026-04-29T11:50:06.001Z</time></trkpt><trkpt lat="44.94342164928504" lon="9.634389434639566"><ele>120.33333333333334</ele><time>2026-04-29T11:50:07.001Z</time></trkpt><trkpt lat="44.94323426189954" lon="9.634241940772005"><ele>120.66666666666667</ele><time>2026-04-29T11:50:08.001Z</time></trkpt><trkpt lat="44.94306674368986" lon="9.63409063373185"><ele>121.0</ele><time>2026-04-29T11:50:09.001Z</time></trkpt><trkpt lat="44.942917017299315" lon="9.633934446308045"><ele>121.0</ele><time>2026-04-29T11:50:10.001Z</time></trkpt><trkpt lat="44.9427727451295" lon="9.6337903837831"><ele>121.0</ele><time>2026-04-29T11:50:11.001Z</time></trkpt><trkpt lat="44.94264230588356" lon="9.633658435603305"><ele>121.0</ele><time>2026-04-29T11:50:12.001Z</time></trkpt><trkpt lat="44.94253092188275" lon="9.63355060657232"><ele>121.5</ele><time>2026-04-29T11:50:13.001Z</time></trkpt><trkpt lat="44.94242539902341" lon="9.633439474604883"><ele>122.0</ele><time>2026-04-29T11:50:14.001Z</time></trkpt><trkpt lat="44.94229438775441" lon="9.63330807002188"><ele>122.5</ele><time>2026-04-29T11:50:15.001Z</time></trkpt><trkpt lat="44.942167824101055" lon="9.633183998811267"><ele>123.0</ele><time>2026-04-29T11:50:16.001Z</time></trkpt><trkpt lat="44.942044159537794" lon="9.633054537148475"><ele>123.0</ele><time>2026-04-29T11:50:17.001Z</time></trkpt><trkpt lat="44.94192380966382" lon="9.632925568382626"><ele>123.0</ele><time>2026-04-29T11:50:18.001Z</time></trkpt><trkpt lat="44.94181397411733" lon="9.632804798845273"><ele>123.0</ele><time>2026-04-29T11:50:19.001Z</time></trkpt><trkpt lat="44.94169673919123" lon="9.632684536337795"><ele>123.0</ele><time>2026-04-29T11:50:20.001Z</time></trkpt><trkpt lat="44.94157510411494" lon="9.6325618802087"><ele>124.0</ele><time>2026-04-29T11:50:21.001Z</time></trkpt><trkpt lat="44.94144880315746" lon="9.632439799273572"><ele>125.0</ele><time>2026-04-29T11:50:22.001Z</time></trkpt><trkpt lat="44.94130556027092" lon="9.632313253674216"><ele>126.0</ele><time>2026-04-29T11:50:23.001Z</time></trkpt><trkpt lat="44.941169434263976" lon="9.632176583023465"><ele>126.0</ele><time>2026-04-29T11:50:24.001Z</time></trkpt><trkpt lat="44.94103173638625" lon="9.632036187662548"><ele>126.0</ele><time>2026-04-29T11:50:25.001Z</time></trkpt><trkpt lat="44.94089181877942" lon="9.631897813541139"><ele>126.0</ele><time>2026-04-29T11:50:26.001Z</time></trkpt><trkpt lat="44.9407558150391" lon="9.631758620033512"><ele>126.0</ele><time>2026-04-29T11:50:27.001Z</time></trkpt><trkpt lat="44.94062019468115" lon="9.631599003343618"><ele>126.0</ele><time>2026-04-29T11:50:28.001Z</time></trkpt><trkpt lat="44.94048612153246" lon="9.631439460499665"><ele>126.0</ele><time>2026-04-29T11:50:29.001Z</time></trkpt><trkpt lat="44.94034676891211" lon="9.631266885413442"><ele>126.33333333333334</ele><time>2026-04-29T11:50:30.001Z</time></trkpt><trkpt lat="44.94020496843004" lon="9.631089616931225"><ele>126.66666666666667</ele><time>2026-04-29T11:50:31.001Z</time></trkpt><trkpt lat="44.940062639217636" lon="9.630906957257869"><ele>127.0</ele><time>2026-04-29T11:50:32.001Z</time></trkpt><trkpt lat="44.93992812909496" lon="9.630722790873335"><ele>128.0</ele><time>2026-04-29T11:50:33.001Z</time></trkpt><trkpt lat="44.93980684976788" lon="9.63054675384702"><ele>129.0</ele><time>2026-04-29T11:50:34.002Z</time></trkpt><trkpt lat="44.93969802162067" lon="9.630379713552161"><ele>130.0</ele><time>2026-04-29T11:50:35.002Z</time></trkpt><trkpt lat="44.93959099844242" lon="9.630220738122556"><ele>130.0</ele><time>2026-04-29T11:50:36.002Z</time></trkpt><trkpt lat="44.93949396544498" lon="9.630069203945164"><ele>130.0</ele><time>2026-04-29T11:50:37.002Z</time></trkpt><trkpt lat="44.93940364887439" lon="9.629923739283576"><ele>130.0</ele><time>2026-04-29T11:50:38.002Z</time></trkpt><trkpt lat="44.93931619097113" lon="9.629782993831364"><ele>130.0</ele><time>2026-04-29T11:50:39.002Z</time></trkpt><trkpt lat="44.93922950334992" lon="9.629643348805734"><ele>130.25</ele><time>2026-04-29T11:50:40.002Z</time></trkpt><trkpt lat="44.93913935776497" lon="9.629492577371071"><ele>130.5</ele><time>2026-04-29T11:50:41.002Z</time></trkpt><trkpt lat="44.939042937071704" lon="9.629332187231459"><ele>130.75</ele><time>2026-04-29T11:50:42.002Z</time></trkpt><trkpt lat="44.9389388816054" lon="9.629172714895665"><ele>131.0</ele><time>2026-04-29T11:50:43.002Z</time></trkpt><trkpt lat="44.93883978133979" lon="9.629003990808839"><ele>131.0</ele><time>2026-04-29T11:50:44.002Z</time></trkpt><trkpt lat="44.93872974724283" lon="9.628842065887826"><ele>131.0</ele><time>2026-04-29T11:50:45.002Z</time></trkpt><trkpt lat="44.93860998682801" lon="9.628683439798886"><ele>131.0</ele><time>2026-04-29T11:50:46.002Z</time></trkpt><trkpt lat="44.93849223783421" lon="9.628498853936401"><ele>131.33333333333331</ele><time>2026-04-29T11:50:47.002Z</time></trkpt><trkpt lat="44.9383403528361" lon="9.628313632412967"><ele>131.66666666666666</ele><time>2026-04-29T11:50:48.002Z</time></trkpt><trkpt lat="44.93816670861828" lon="9.628113689193347"><ele>132.0</ele><time>2026-04-29T11:50:49.002Z</time></trkpt><trkpt lat="44.93798375815891" lon="9.627908529637532"><ele>131.0</ele><time>2026-04-29T11:50:50.002Z</time></trkpt><trkpt lat="44.93779810958144" lon="9.627708427085796"><ele>130.0</ele><time>2026-04-29T11:50:51.002Z</time></trkpt><trkpt lat="44.93759752286357" lon="9.62749739943058"><ele>131.0</ele><time>2026-04-29T11:50:52.002Z</time></trkpt><trkpt lat="44.93739229296414" lon="9.62727822563809"><ele>132.0</ele><time>2026-04-29T11:50:53.002Z</time></trkpt><trkpt lat="44.93718475280248" lon="9.627074127214895"><ele>132.0</ele><time>2026-04-29T11:50:54.002Z</time></trkpt><trkpt lat="44.93696984549875" lon="9.626855573542159"><ele>132.0</ele><time>2026-04-29T11:50:55.002Z</time></trkpt><trkpt lat="44.93677403164246" lon="9.626619004895513"><ele>133.5</ele><time>2026-04-29T11:50:56.002Z</time></trkpt><trkpt lat="44.93657787304279" lon="9.62641118068011"><ele>135.0</ele><time>2026-04-29T11:50:57.002Z</time></trkpt><trkpt lat="44.93636901529597" lon="9.626217404087177"><ele>135.0</ele><time>2026-04-29T11:50:58.002Z</time></trkpt><trkpt lat="44.93617486184561" lon="9.626001257906546"><ele>135.0</ele><time>2026-04-29T11:50:59.002Z</time></trkpt><trkpt lat="44.93598066926739" lon="9.625789491656732"><ele>134.5</ele><time>2026-04-29T11:51:00.002Z</time></trkpt><trkpt lat="44.9357902107708" lon="9.625574979351956"><ele>134.0</ele><time>2026-04-29T11:51:01.002Z</time></trkpt><trkpt lat="44.935595067769384" lon="9.625359352917942"><ele>134.0</ele><time>2026-04-29T11:51:02.002Z</time></trkpt><trkpt lat="44.93539753714275" lon="9.625151429788184"><ele>134.0</ele><time>2026-04-29T11:51:03.002Z</time></trkpt><trkpt lat="44.93521037314039" lon="9.624960031440423"><ele>133.5</ele><time>2026-04-29T11:51:04.002Z</time></trkpt><trkpt lat="44.935023786396954" lon="9.6247582921415"><ele>133.0</ele><time>2026-04-29T11:51:05.002Z</time></trkpt><trkpt lat="44.934844777387596" lon="9.624549034024174"><ele>132.0</ele><time>2026-04-29T11:51:06.002Z</time></trkpt><trkpt lat="44.934676222332236" lon="9.624382197427774"><ele>131.0</ele><time>2026-04-29T11:51:07.002Z</time></trkpt><trkpt lat="44.93450967820907" lon="9.624210833291372"><ele>130.0</ele><time>2026-04-29T11:51:08.002Z</time></trkpt><trkpt lat="44.9343360106849" lon="9.624003678936317"><ele>131.0</ele><time>2026-04-29T11:51:09.001Z</time></trkpt><trkpt lat="44.93414798290662" lon="9.62379154589874"><ele>132.0</ele><time>2026-04-29T11:51:10.001Z</time></trkpt><trkpt lat="44.93394522706496" lon="9.62358142848981"><ele>132.0</ele><time>2026-04-29T11:51:11.001Z</time></trkpt><trkpt lat="44.93375619279254" lon="9.623338062050511"><ele>132.0</ele><time>2026-04-29T11:51:12.001Z</time></trkpt><trkpt lat="44.93356729700438" lon="9.623112822969603"><ele>133.5</ele><time>2026-04-29T11:51:13.001Z</time></trkpt><trkpt lat="44.93337637757502" lon="9.622900740363221"><ele>135.0</ele><time>2026-04-29T11:51:14.001Z</time></trkpt><trkpt lat="44.933188506845894" lon="9.622696974280016"><ele>135.0</ele><time>2026-04-29T11:51:15.001Z</time></trkpt><trkpt lat="44.93299587544225" lon="9.622491224969853"><ele>135.0</ele><time>2026-04-29T11:51:16.001Z</time></trkpt><trkpt lat="44.932813417956645" lon="9.622280122739927"><ele>135.0</ele><time>2026-04-29T11:51:17.001Z</time></trkpt><trkpt lat="44.93262567458844" lon="9.622069989131496"><ele>135.0</ele><time>2026-04-29T11:51:18.001Z</time></trkpt><trkpt lat="44.93243480979751" lon="9.62185901690512"><ele>135.0</ele><time>2026-04-29T11:51:19.001Z</time></trkpt><trkpt lat="44.932247106530845" lon="9.621645667918447"><ele>135.0</ele><time>2026-04-29T11:51:20.001Z</time></trkpt><trkpt lat="44.93206366314131" lon="9.621432633287071"><ele>135.0</ele><time>2026-04-29T11:51:21.001Z</time></trkpt><trkpt lat="44.931877143808954" lon="9.621221328780642"><ele>135.0</ele><time>2026-04-29T11:51:22.001Z</time></trkpt><trkpt lat="44.93169271440475" lon="9.62101090814742"><ele>134.5</ele><time>2026-04-29T11:51:23.001Z</time></trkpt><trkpt lat="44.93151379653734" lon="9.620770330914246"><ele>134.0</ele><time>2026-04-29T11:51:24.001Z</time></trkpt><trkpt lat="44.93132553772996" lon="9.62057430960958"><ele>134.0</ele><time>2026-04-29T11:51:25.001Z</time></trkpt><trkpt lat="44.931118935766094" lon="9.620387593808863"><ele>134.0</ele><time>2026-04-29T11:51:26.001Z</time></trkpt><trkpt lat="44.93093499009229" lon="9.620162443969754"><ele>135.0</ele><time>2026-04-29T11:51:27.001Z</time></trkpt><trkpt lat="44.93074900371656" lon="9.619955791797365"><ele>136.0</ele><time>2026-04-29T11:51:28.001Z</time></trkpt><trkpt lat="44.93055984980011" lon="9.619753013956657"><ele>136.0</ele><time>2026-04-29T11:51:29.001Z</time></trkpt><trkpt lat="44.930367297845486" lon="9.619551385070908"><ele>136.0</ele><time>2026-04-29T11:51:30.001Z</time></trkpt><trkpt lat="44.93017108742041" lon="9.619352870786656"><ele>135.0</ele><time>2026-04-29T11:51:31.001Z</time></trkpt><trkpt lat="44.929977791367996" lon="9.61915634163478"><ele>134.0</ele><time>2026-04-29T11:51:32.001Z</time></trkpt><trkpt lat="44.9297851479665" lon="9.618986881382005"><ele>134.0</ele><time>2026-04-29T11:51:33.001Z</time></trkpt><trkpt lat="44.92959121950059" lon="9.618815310708099"><ele>134.0</ele><time>2026-04-29T11:51:34.001Z</time></trkpt><trkpt lat="44.929407556438406" lon="9.618624452769971"><ele>135.0</ele><time>2026-04-29T11:51:35.001Z</time></trkpt><trkpt lat="44.92921990468802" lon="9.618430793675744"><ele>136.0</ele><time>2026-04-29T11:51:36.001Z</time></trkpt><trkpt lat="44.929034121558644" lon="9.618233623086287"><ele>136.0</ele><time>2026-04-29T11:51:37.001Z</time></trkpt><trkpt lat="44.92886383333793" lon="9.618036930359589"><ele>136.0</ele><time>2026-04-29T11:51:38.001Z</time></trkpt><trkpt lat="44.92867566560393" lon="9.617865600061783"><ele>136.0</ele><time>2026-04-29T11:51:39.001Z</time></trkpt><trkpt lat="44.928504487446446" lon="9.617683838617232"><ele>136.0</ele><time>2026-04-29T11:51:40.001Z</time></trkpt><trkpt lat="44.92834563181679" lon="9.617489738770768"><ele>136.0</ele><time>2026-04-29T11:51:41.001Z</time></trkpt><trkpt lat="44.92819592623685" lon="9.617273793483989"><ele>136.0</ele><time>2026-04-29T11:51:42.001Z</time></trkpt><trkpt lat="44.92804509765937" lon="9.617041676686803"><ele>135.33333333333334</ele><time>2026-04-29T11:51:43.001Z</time></trkpt><trkpt lat="44.927901014104904" lon="9.616801713464984"><ele>134.66666666666666</ele><time>2026-04-29T11:51:44.001Z</time></trkpt><trkpt lat="44.9277580391272" lon="9.616559516652762"><ele>134.0</ele><time>2026-04-29T11:51:45.001Z</time></trkpt><trkpt lat="44.927611002927314" lon="9.616319243978415"><ele>134.0</ele><time>2026-04-29T11:51:46.001Z</time></trkpt><trkpt lat="44.927460273548355" lon="9.616081461164379"><ele>134.0</ele><time>2026-04-29T11:51:47.001Z</time></trkpt><trkpt lat="44.927307891475955" lon="9.61584375306436"><ele>134.0</ele><time>2026-04-29T11:51:48.001Z</time></trkpt><trkpt lat="44.927157689507176" lon="9.615605508012745"><ele>134.0</ele><time>2026-04-29T11:51:49.001Z</time></trkpt><trkpt lat="44.92700339508109" lon="9.615375270106158"><ele>134.0</ele><time>2026-04-29T11:51:50.001Z</time></trkpt><trkpt lat="44.92684567950472" lon="9.6151542920593"><ele>134.0</ele><time>2026-04-29T11:51:51.001Z</time></trkpt><trkpt lat="44.92666558068739" lon="9.614950571959719"><ele>134.0</ele><time>2026-04-29T11:51:52.001Z</time></trkpt><trkpt lat="44.92647752335479" lon="9.614760418966162"><ele>134.0</ele><time>2026-04-29T11:51:53.001Z</time></trkpt><trkpt lat="44.92628612264365" lon="9.614574791458391"><ele>134.0</ele><time>2026-04-29T11:51:54.001Z</time></trkpt><trkpt lat="44.92608699677523" lon="9.614383659860119"><ele>134.0</ele><time>2026-04-29T11:51:55.001Z</time></trkpt><trkpt lat="44.92588458747836" lon="9.614200188192537"><ele>134.0</ele><time>2026-04-29T11:51:56.001Z</time></trkpt><trkpt lat="44.92568171977543" lon="9.614023132855909"><ele>134.0</ele><time>2026-04-29T11:51:57.001Z</time></trkpt><trkpt lat="44.92547540444718" lon="9.613843480558732"><ele>134.0</ele><time>2026-04-29T11:51:58.001Z</time></trkpt><trkpt lat="44.92526781308593" lon="9.613657344808946"><ele>134.0</ele><time>2026-04-29T11:51:59.001Z</time></trkpt><trkpt lat="44.925059016061375" lon="9.613475049795738"><ele>133.5</ele><time>2026-04-29T11:52:00.001Z</time></trkpt><trkpt lat="44.924846229950994" lon="9.613292628247773"><ele>133.0</ele><time>2026-04-29T11:52:01.001Z</time></trkpt><trkpt lat="44.924637165757005" lon="9.6131118988336"><ele>133.0</ele><time>2026-04-29T11:52:02.001Z</time></trkpt><trkpt lat="44.924435520344794" lon="9.612935165673127"><ele>133.0</ele><time>2026-04-29T11:52:03.001Z</time></trkpt><trkpt lat="44.92424223169458" lon="9.612763969077111"><ele>132.33333333333334</ele><time>2026-04-29T11:52:04.001Z</time></trkpt><trkpt lat="44.92407289350753" lon="9.612602781596795"><ele>131.66666666666666</ele><time>2026-04-29T11:52:05.001Z</time></trkpt><trkpt lat="44.92391788682415" lon="9.612453613697083"><ele>131.0</ele><time>2026-04-29T11:52:06.001Z</time></trkpt><trkpt lat="44.923770521243156" lon="9.612311980157505"><ele>131.0</ele><time>2026-04-29T11:52:07.001Z</time></trkpt><trkpt lat="44.92362564451314" lon="9.612174836733239"><ele>131.0</ele><time>2026-04-29T11:52:08.001Z</time></trkpt><trkpt lat="44.923473170043174" lon="9.612043543855107"><ele>131.0</ele><time>2026-04-29T11:52:09.001Z</time></trkpt><trkpt lat="44.9232976246868" lon="9.611895032752674"><ele>132.0</ele><time>2026-04-29T11:52:10.001Z</time></trkpt><trkpt lat="44.92311499813633" lon="9.611732399831874"><ele>133.0</ele><time>2026-04-29T11:52:11.001Z</time></trkpt><trkpt lat="44.92292287787257" lon="9.611531776068553"><ele>133.0</ele><time>2026-04-29T11:52:12.001Z</time></trkpt><trkpt lat="44.92273120475555" lon="9.61132750958363"><ele>133.0</ele><time>2026-04-29T11:52:13.001Z</time></trkpt><trkpt lat="44.92253684844021" lon="9.611115224859901"><ele>132.0</ele><time>2026-04-29T11:52:14.001Z</time></trkpt><trkpt lat="44.92234021628803" lon="9.610896939538133"><ele>131.0</ele><time>2026-04-29T11:52:15.001Z</time></trkpt><trkpt lat="44.92214533584177" lon="9.610686897756098"><ele>131.0</ele><time>2026-04-29T11:52:16.001Z</time></trkpt><trkpt lat="44.92195459487654" lon="9.610481156926017"><ele>131.0</ele><time>2026-04-29T11:52:17.001Z</time></trkpt><trkpt lat="44.92176650155944" lon="9.61027972160766"><ele>131.33333333333331</ele><time>2026-04-29T11:52:18.001Z</time></trkpt><trkpt lat="44.92160100167214" lon="9.61007120441914"><ele>131.66666666666666</ele><time>2026-04-29T11:52:19.001Z</time></trkpt><trkpt lat="44.921427377900514" lon="9.609880621698176"><ele>132.0</ele><time>2026-04-29T11:52:20.001Z</time></trkpt><trkpt lat="44.921261730438054" lon="9.609697314668885"><ele>132.0</ele><time>2026-04-29T11:52:21.001Z</time></trkpt><trkpt lat="44.92109970057765" lon="9.609521363570721"><ele>132.0</ele><time>2026-04-29T11:52:22.001Z</time></trkpt><trkpt lat="44.920947626136574" lon="9.609357869126425"><ele>132.0</ele><time>2026-04-29T11:52:23.001Z</time></trkpt><trkpt lat="44.9207939131599" lon="9.609187981466883"><ele>132.66666666666666</ele><time>2026-04-29T11:52:24.001Z</time></trkpt><trkpt lat="44.92064027637857" lon="9.609017907638767"><ele>133.33333333333331</ele><time>2026-04-29T11:52:25.001Z</time></trkpt><trkpt lat="44.92048880404612" lon="9.608843211626597"><ele>134.0</ele><time>2026-04-29T11:52:26.001Z</time></trkpt><trkpt lat="44.92031656221935" lon="9.608676004462621"><ele>133.66666666666666</ele><time>2026-04-29T11:52:27.001Z</time></trkpt><trkpt lat="44.92015024353687" lon="9.608516626070246"><ele>133.33333333333334</ele><time>2026-04-29T11:52:28.001Z</time></trkpt><trkpt lat="44.919977464702995" lon="9.608368356541868"><ele>133.0</ele><time>2026-04-29T11:52:29.001Z</time></trkpt><trkpt lat="44.91979916548099" lon="9.608227798680538"><ele>133.66666666666669</ele><time>2026-04-29T11:52:30.001Z</time></trkpt><trkpt lat="44.91961483215177" lon="9.608101504411657"><ele>134.33333333333334</ele><time>2026-04-29T11:52:31.001Z</time></trkpt><trkpt lat="44.91942910346354" lon="9.607976029433647"><ele>135.0</ele><time>2026-04-29T11:52:32.001Z</time></trkpt><trkpt lat="44.919242817066355" lon="9.607858036936085"><ele>135.33333333333334</ele><time>2026-04-29T11:52:33.001Z</time></trkpt><trkpt lat="44.91905718292116" lon="9.607737736742406"><ele>135.66666666666669</ele><time>2026-04-29T11:52:34.001Z</time></trkpt><trkpt lat="44.918870758219484" lon="9.607610653576094"><ele>136.0</ele><time>2026-04-29T11:52:35.001Z</time></trkpt><trkpt lat="44.91868075320712" lon="9.607484854908462"><ele>136.0</ele><time>2026-04-29T11:52:36.001Z</time></trkpt><trkpt lat="44.91848745461587" lon="9.60735444304577"><ele>136.0</ele><time>2026-04-29T11:52:37.001Z</time></trkpt><trkpt lat="44.91829714583325" lon="9.607223262170363"><ele>136.0</ele><time>2026-04-29T11:52:38.001Z</time></trkpt><trkpt lat="44.918099657984854" lon="9.607093650216768"><ele>136.66666666666669</ele><time>2026-04-29T11:52:39.001Z</time></trkpt><trkpt lat="44.9179076226454" lon="9.606964179685704"><ele>137.33333333333334</ele><time>2026-04-29T11:52:40.001Z</time></trkpt><trkpt lat="44.917714293222495" lon="9.606830009716226"><ele>138.0</ele><time>2026-04-29T11:52:41.001Z</time></trkpt><trkpt lat="44.91754229749177" lon="9.60667887297473"><ele>139.0</ele><time>2026-04-29T11:52:42.001Z</time></trkpt><trkpt lat="44.917392500685565" lon="9.606507027253523"><ele>140.0</ele><time>2026-04-29T11:52:43.001Z</time></trkpt><trkpt lat="44.91724642465841" lon="9.606338730005161"><ele>141.0</ele><time>2026-04-29T11:52:44.001Z</time></trkpt><trkpt lat="44.91711240535869" lon="9.606189020494039"><ele>141.0</ele><time>2026-04-29T11:52:45.001Z</time></trkpt><trkpt lat="44.91698033048444" lon="9.606057548272888"><ele>141.0</ele><time>2026-04-29T11:52:46.001Z</time></trkpt><trkpt lat="44.916847106719786" lon="9.605917425330675"><ele>141.0</ele><time>2026-04-29T11:52:47.001Z</time></trkpt><trkpt lat="44.916718250349895" lon="9.60578367990897"><ele>141.0</ele><time>2026-04-29T11:52:48.001Z</time></trkpt><trkpt lat="44.916599594996754" lon="9.605644335519496"><ele>141.0</ele><time>2026-04-29T11:52:49.001Z</time></trkpt><trkpt lat="44.916475969181484" lon="9.605477587120522"><ele>141.0</ele><time>2026-04-29T11:52:50.001Z</time></trkpt><trkpt lat="44.916133914937355" lon="9.605093822717581"><ele>141.0</ele><time>2026-04-29T11:52:51.001Z</time></trkpt><trkpt lat="44.916010996541274" lon="9.604877074454725"><ele>141.0</ele><time>2026-04-29T11:52:52.001Z</time></trkpt><trkpt lat="44.91588923095787" lon="9.60466592949452"><ele>141.0</ele><time>2026-04-29T11:52:53.001Z</time></trkpt><trkpt lat="44.91577961974445" lon="9.604423827124277"><ele>141.66666666666666</ele><time>2026-04-29T11:52:54.001Z</time></trkpt><trkpt lat="44.91570198806596" lon="9.604173538110935"><ele>142.33333333333331</ele><time>2026-04-29T11:52:55.001Z</time></trkpt><trkpt lat="44.9156208909024" lon="9.603928431695737"><ele>143.0</ele><time>2026-04-29T11:52:56.001Z</time></trkpt><trkpt lat="44.91553853594691" lon="9.603693284980277"><ele>142.33333333333331</ele><time>2026-04-29T11:52:57.001Z</time></trkpt><trkpt lat="44.91544805467678" lon="9.603458118994496"><ele>141.66666666666666</ele><time>2026-04-29T11:52:58.001Z</time></trkpt><trkpt lat="44.91535373379716" lon="9.60321802294614"><ele>141.0</ele><time>2026-04-29T11:52:59.001Z</time></trkpt><trkpt lat="44.91525509584026" lon="9.60296847928678"><ele>139.66666666666666</ele><time>2026-04-29T11:53:00.001Z</time></trkpt><trkpt lat="44.915153531071375" lon="9.602719413452173"><ele>138.33333333333331</ele><time>2026-04-29T11:53:01.001Z</time></trkpt><trkpt lat="44.91504961630542" lon="9.602466500742876"><ele>137.0</ele><time>2026-04-29T11:53:02.001Z</time></trkpt><trkpt lat="44.914950411484696" lon="9.602209639136827"><ele>136.33333333333331</ele><time>2026-04-29T11:53:03.001Z</time></trkpt><trkpt lat="44.914854208056425" lon="9.601949255092356"><ele>135.66666666666666</ele><time>2026-04-29T11:53:04.001Z</time></trkpt><trkpt lat="44.9147528132672" lon="9.601692289227945"><ele>135.0</ele><time>2026-04-29T11:53:05.001Z</time></trkpt><trkpt lat="44.91464584892644" lon="9.60142737714008"><ele>134.66666666666666</ele><time>2026-04-29T11:53:06.001Z</time></trkpt><trkpt lat="44.91453564514029" lon="9.601165518602283"><ele>134.33333333333331</ele><time>2026-04-29T11:53:07.001Z</time></trkpt><trkpt lat="44.91442569797596" lon="9.600898497416297"><ele>134.0</ele><time>2026-04-29T11:53:08.001Z</time></trkpt><trkpt lat="44.914323212356514" lon="9.600647399847027"><ele>134.66666666666666</ele><time>2026-04-29T11:53:09.001Z</time></trkpt><trkpt lat="44.914214672901096" lon="9.600388995135331"><ele>135.33333333333334</ele><time>2026-04-29T11:53:10.001Z</time></trkpt><trkpt lat="44.91411857976009" lon="9.600103343408025"><ele>136.0</ele><time>2026-04-29T11:53:11.001Z</time></trkpt><trkpt lat="44.9140050944844" lon="9.599817436127429"><ele>136.0</ele><time>2026-04-29T11:53:12.001Z</time></trkpt><trkpt lat="44.913882401482994" lon="9.59953749080296"><ele>136.0</ele><time>2026-04-29T11:53:13.002Z</time></trkpt><trkpt lat="44.91376811025683" lon="9.599231147495477"><ele>136.5</ele><time>2026-04-29T11:53:14.002Z</time></trkpt><trkpt lat="44.91365681350078" lon="9.598945608684533"><ele>137.0</ele><time>2026-04-29T11:53:15.001Z</time></trkpt><trkpt lat="44.91354218637287" lon="9.59866902187074"><ele>137.33333333333331</ele><time>2026-04-29T11:53:16.001Z</time></trkpt><trkpt lat="44.913428015873436" lon="9.598393974355616"><ele>137.66666666666666</ele><time>2026-04-29T11:53:17.001Z</time></trkpt><trkpt lat="44.913321028284024" lon="9.598116637676702"><ele>138.0</ele><time>2026-04-29T11:53:18.001Z</time></trkpt><trkpt lat="44.91322159458807" lon="9.597858951048515"><ele>137.66666666666666</ele><time>2026-04-29T11:53:19.001Z</time></trkpt><trkpt lat="44.91312645572367" lon="9.597608282121522"><ele>137.33333333333331</ele><time>2026-04-29T11:53:20.001Z</time></trkpt><trkpt lat="44.91303242473653" lon="9.597387035613492"><ele>137.0</ele><time>2026-04-29T11:53:21.001Z</time></trkpt><trkpt lat="44.912930326474736" lon="9.59718258998884"><ele>137.0</ele><time>2026-04-29T11:53:22.001Z</time></trkpt><trkpt lat="44.91281647594491" lon="9.597010456820325"><ele>137.0</ele><time>2026-04-29T11:53:23.001Z</time></trkpt><trkpt lat="44.91269349051801" lon="9.596856099597055"><ele>137.0</ele><time>2026-04-29T11:53:24.001Z</time></trkpt><trkpt lat="44.91256210363885" lon="9.596708266349875"><ele>137.66666666666666</ele><time>2026-04-29T11:53:25.001Z</time></trkpt><trkpt lat="44.912425749022226" lon="9.596569008152171"><ele>138.33333333333334</ele><time>2026-04-29T11:53:26.001Z</time></trkpt><trkpt lat="44.91227417883848" lon="9.59645206556527"><ele>139.0</ele><time>2026-04-29T11:53:27.001Z</time></trkpt><trkpt lat="44.91211502811652" lon="9.596356092936661"><ele>139.0</ele><time>2026-04-29T11:53:28.001Z</time></trkpt><trkpt lat="44.91195380667841" lon="9.596275059638804"><ele>139.0</ele><time>2026-04-29T11:53:29.001Z</time></trkpt><trkpt lat="44.91179657269037" lon="9.596192782902458"><ele>139.0</ele><time>2026-04-29T11:53:30.001Z</time></trkpt><trkpt lat="44.911638163423945" lon="9.596115804553953"><ele>136.66666666666669</ele><time>2026-04-29T11:53:31Z</time></trkpt><trkpt lat="44.91148375145239" lon="9.596043056551528"><ele>134.33333333333334</ele><time>2026-04-29T11:53:32Z</time></trkpt><trkpt lat="44.91134983800568" lon="9.59593991290693"><ele>132.0</ele><time>2026-04-29T11:53:33Z</time></trkpt><trkpt lat="44.91120614321171" lon="9.595876157023065"><ele>132.0</ele><time>2026-04-29T11:53:34Z</time></trkpt><trkpt lat="44.91106791867615" lon="9.59581080574729"><ele>132.0</ele><time>2026-04-29T11:53:35Z</time></trkpt><trkpt lat="44.910938720865786" lon="9.595755507075499"><ele>132.0</ele><time>2026-04-29T11:53:36Z</time></trkpt><trkpt lat="44.91080876347153" lon="9.595678060499655"><ele>132.0</ele><time>2026-04-29T11:53:37Z</time></trkpt><trkpt lat="44.910686321005926" lon="9.595626680950613"><ele>131.75</ele><time>2026-04-29T11:53:38Z</time></trkpt><trkpt lat="44.9105484000628" lon="9.595548352572727"><ele>131.5</ele><time>2026-04-29T11:53:39Z</time></trkpt><trkpt lat="44.91043148466401" lon="9.595467591396133"><ele>131.25</ele><time>2026-04-29T11:53:40Z</time></trkpt><trkpt lat="44.910308107377816" lon="9.5953799089708"><ele>131.0</ele><time>2026-04-29T11:53:41Z</time></trkpt><trkpt lat="44.91018654018669" lon="9.59527534747256"><ele>131.25</ele><time>2026-04-29T11:53:42Z</time></trkpt><trkpt lat="44.91006672309064" lon="9.595151779989742"><ele>131.5</ele><time>2026-04-29T11:53:43Z</time></trkpt><trkpt lat="44.90997123760819" lon="9.595013026963894"><ele>131.75</ele><time>2026-04-29T11:53:44Z</time></trkpt><trkpt lat="44.90987069018372" lon="9.594898158781168"><ele>132.0</ele><time>2026-04-29T11:53:45Z</time></trkpt><trkpt lat="44.90978753660692" lon="9.594765441380027"><ele>132.0</ele><time>2026-04-29T11:53:46Z</time></trkpt><trkpt lat="44.90970740546125" lon="9.59463760392151"><ele>132.0</ele><time>2026-04-29T11:53:47Z</time></trkpt><trkpt lat="44.90962027622232" lon="9.594504464531624"><ele>132.0</ele><time>2026-04-29T11:53:48Z</time></trkpt><trkpt lat="44.90952149939884" lon="9.594360274849306"><ele>132.0</ele><time>2026-04-29T11:53:49Z</time></trkpt><trkpt lat="44.90942192742919" lon="9.594192787926408"><ele>131.75</ele><time>2026-04-29T11:53:50Z</time></trkpt><trkpt lat="44.90930426364575" lon="9.594015198375695"><ele>131.5</ele><time>2026-04-29T11:53:51Z</time></trkpt><trkpt lat="44.909203762746735" lon="9.593876503638135"><ele>131.25</ele><time>2026-04-29T11:53:52Z</time></trkpt><trkpt lat="44.90913080147493" lon="9.593761064971307"><ele>131.0</ele><time>2026-04-29T11:53:53.001Z</time></trkpt><trkpt lat="44.909061560235266" lon="9.593652361846598"><ele>131.6</ele><time>2026-04-29T11:53:54.001Z</time></trkpt><trkpt lat="44.90900139460934" lon="9.593548419419207"><ele>132.2</ele><time>2026-04-29T11:53:55.001Z</time></trkpt><trkpt lat="44.90893538989436" lon="9.593447896436995"><ele>132.8</ele><time>2026-04-29T11:53:56.001Z</time></trkpt><trkpt lat="44.90885973312949" lon="9.59333834020138"><ele>133.4</ele><time>2026-04-29T11:53:57.001Z</time></trkpt><trkpt lat="44.90878056951013" lon="9.593210394147329"><ele>134.0</ele><time>2026-04-29T11:53:58.001Z</time></trkpt><trkpt lat="44.90869624025872" lon="9.593070004169563"><ele>134.0</ele><time>2026-04-29T11:53:59.001Z</time></trkpt><trkpt lat="44.90860952965356" lon="9.592937824782673"><ele>134.0</ele><time>2026-04-29T11:54:00.001Z</time></trkpt><trkpt lat="44.90853078533598" lon="9.592822505373007"><ele>134.0</ele><time>2026-04-29T11:54:01.001Z</time></trkpt><trkpt lat="44.90845145734102" lon="9.592707666770982"><ele>134.0</ele><time>2026-04-29T11:54:02.001Z</time></trkpt><trkpt lat="44.90836862535594" lon="9.592592654322939"><ele>134.0</ele><time>2026-04-29T11:54:03.001Z</time></trkpt><trkpt lat="44.90826470678915" lon="9.592483051471076"><ele>134.0</ele><time>2026-04-29T11:54:04.001Z</time></trkpt><trkpt lat="44.90813861941076" lon="9.592351914513696"><ele>134.0</ele><time>2026-04-29T11:54:05.001Z</time></trkpt><trkpt lat="44.90801183404583" lon="9.592249755186371"><ele>134.0</ele><time>2026-04-29T11:54:06.001Z</time></trkpt><trkpt lat="44.907871771930424" lon="9.592143266085104"><ele>134.0</ele><time>2026-04-29T11:54:07.001Z</time></trkpt><trkpt lat="44.907720935528616" lon="9.592023675628772"><ele>134.0</ele><time>2026-04-29T11:54:08.001Z</time></trkpt><trkpt lat="44.90756635083875" lon="9.591888775300408"><ele>134.0</ele><time>2026-04-29T11:54:09.001Z</time></trkpt><trkpt lat="44.90740820437221" lon="9.591751313154083"><ele>134.33333333333331</ele><time>2026-04-29T11:54:10.001Z</time></trkpt><trkpt lat="44.90724327384332" lon="9.591628280815415"><ele>134.66666666666666</ele><time>2026-04-29T11:54:11.001Z</time></trkpt><trkpt lat="44.90707447226692" lon="9.591494379130587"><ele>135.0</ele><time>2026-04-29T11:54:12.001Z</time></trkpt><trkpt lat="44.90690203852848" lon="9.591358096854666"><ele>136.66666666666666</ele><time>2026-04-29T11:54:13.001Z</time></trkpt><trkpt lat="44.90672746308762" lon="9.591219723269845"><ele>138.33333333333331</ele><time>2026-04-29T11:54:14.001Z</time></trkpt><trkpt lat="44.906554221185225" lon="9.591066839455676"><ele>140.0</ele><time>2026-04-29T11:54:15.001Z</time></trkpt><trkpt lat="44.906387781063614" lon="9.590925789418502"><ele>140.0</ele><time>2026-04-29T11:54:16.001Z</time></trkpt><trkpt lat="44.90620411925841" lon="9.590772640230613"><ele>140.0</ele><time>2026-04-29T11:54:17.001Z</time></trkpt><trkpt lat="44.906018896256754" lon="9.590609852249758"><ele>140.0</ele><time>2026-04-29T11:54:18.001Z</time></trkpt><trkpt lat="44.90582819834098" lon="9.590457749184711"><ele>140.0</ele><time>2026-04-29T11:54:19.001Z</time></trkpt><trkpt lat="44.905641600658065" lon="9.59030977780666"><ele>140.0</ele><time>2026-04-29T11:54:20.001Z</time></trkpt><trkpt lat="44.90545573591265" lon="9.590155947797408"><ele>140.0</ele><time>2026-04-29T11:54:21.001Z</time></trkpt><trkpt lat="44.905276209501935" lon="9.590004061897064"><ele>140.0</ele><time>2026-04-29T11:54:22.001Z</time></trkpt><trkpt lat="44.90509589617652" lon="9.589856889121878"><ele>140.0</ele><time>2026-04-29T11:54:23.001Z</time></trkpt><trkpt lat="44.90491850580087" lon="9.5897067043507"><ele>140.0</ele><time>2026-04-29T11:54:24.001Z</time></trkpt><trkpt lat="44.90474416698887" lon="9.589558058305231"><ele>140.33333333333331</ele><time>2026-04-29T11:54:25.001Z</time></trkpt><trkpt lat="44.90456757541722" lon="9.589411588696066"><ele>140.66666666666666</ele><time>2026-04-29T11:54:26.001Z</time></trkpt><trkpt lat="44.9043847236333" lon="9.589263360911769"><ele>141.0</ele><time>2026-04-29T11:54:27.001Z</time></trkpt><trkpt lat="44.904198972008224" lon="9.589109449760251"><ele>143.33333333333334</ele><time>2026-04-29T11:54:28.001Z</time></trkpt><trkpt lat="44.904012324388596" lon="9.58895405667682"><ele>145.66666666666669</ele><time>2026-04-29T11:54:29.001Z</time></trkpt><trkpt lat="44.90382805984609" lon="9.588806962111315"><ele>148.0</ele><time>2026-04-29T11:54:30.001Z</time></trkpt><trkpt lat="44.903642234831096" lon="9.588658347553379"><ele>148.0</ele><time>2026-04-29T11:54:31.001Z</time></trkpt><trkpt lat="44.90345881812885" lon="9.588511189987967"><ele>148.0</ele><time>2026-04-29T11:54:32.001Z</time></trkpt><trkpt lat="44.90326764734414" lon="9.588356745758304"><ele>148.0</ele><time>2026-04-29T11:54:33.001Z</time></trkpt><trkpt lat="44.903076708497686" lon="9.588204669341996"><ele>149.33333333333334</ele><time>2026-04-29T11:54:34.001Z</time></trkpt><trkpt lat="44.90288436937309" lon="9.588055708712048"><ele>150.66666666666666</ele><time>2026-04-29T11:54:35.001Z</time></trkpt><trkpt lat="44.902694011141136" lon="9.58789638429741"><ele>152.0</ele><time>2026-04-29T11:54:36.001Z</time></trkpt><trkpt lat="44.90251370614433" lon="9.587740028721559"><ele>154.33333333333331</ele><time>2026-04-29T11:54:37.001Z</time></trkpt><trkpt lat="44.902346398600656" lon="9.58759074760618"><ele>156.66666666666666</ele><time>2026-04-29T11:54:38.001Z</time></trkpt><trkpt lat="44.90219070923722" lon="9.5874540054802"><ele>159.0</ele><time>2026-04-29T11:54:39.001Z</time></trkpt><trkpt lat="44.90203701324928" lon="9.587310661294385"><ele>159.0</ele><time>2026-04-29T11:54:40.001Z</time></trkpt><trkpt lat="44.90187835711208" lon="9.58716596999594"><ele>159.0</ele><time>2026-04-29T11:54:41.001Z</time></trkpt><trkpt lat="44.90171728668904" lon="9.587028221954395"><ele>159.0</ele><time>2026-04-29T11:54:42.001Z</time></trkpt><trkpt lat="44.901550844317825" lon="9.586895033716813"><ele>159.0</ele><time>2026-04-29T11:54:43.001Z</time></trkpt><trkpt lat="44.90138454840092" lon="9.586768387730947"><ele>159.0</ele><time>2026-04-29T11:54:44.001Z</time></trkpt><trkpt lat="44.90122417367133" lon="9.586643994674146"><ele>159.0</ele><time>2026-04-29T11:54:45.001Z</time></trkpt><trkpt lat="44.901052967797646" lon="9.586523375840898"><ele>161.33333333333334</ele><time>2026-04-29T11:54:46.001Z</time></trkpt><trkpt lat="44.90088129504687" lon="9.586406254968338"><ele>163.66666666666669</ele><time>2026-04-29T11:54:47.001Z</time></trkpt><trkpt lat="44.9007075855143" lon="9.586302797679073"><ele>166.0</ele><time>2026-04-29T11:54:48.001Z</time></trkpt><trkpt lat="44.900548065586904" lon="9.586214834543224"><ele>165.0</ele><time>2026-04-29T11:54:49.001Z</time></trkpt><trkpt lat="44.90039074375035" lon="9.586138884184006"><ele>164.0</ele><time>2026-04-29T11:54:50.001Z</time></trkpt><trkpt lat="44.900226475176645" lon="9.586085630180213"><ele>163.0</ele><time>2026-04-29T11:54:51.001Z</time></trkpt><trkpt lat="44.90005412725809" lon="9.58603308692722"><ele>163.0</ele><time>2026-04-29T11:54:52.001Z</time></trkpt><trkpt lat="44.89988350266397" lon="9.585977315713167"><ele>163.0</ele><time>2026-04-29T11:54:53.001Z</time></trkpt><trkpt lat="44.89971724489199" lon="9.585928113134324"><ele>163.0</ele><time>2026-04-29T11:54:54.001Z</time></trkpt><trkpt lat="44.899560476163735" lon="9.585882015446783"><ele>163.0</ele><time>2026-04-29T11:54:55.001Z</time></trkpt><trkpt lat="44.89940278232556" lon="9.585839692977066"><ele>163.0</ele><time>2026-04-29T11:54:56.001Z</time></trkpt><trkpt lat="44.89925600622077" lon="9.585798896435247"><ele>163.0</ele><time>2026-04-29T11:54:57.001Z</time></trkpt><trkpt lat="44.899110362997845" lon="9.585754156040215"><ele>164.5</ele><time>2026-04-29T11:54:58.001Z</time></trkpt><trkpt lat="44.89896744882816" lon="9.585694871715999"><ele>166.0</ele><time>2026-04-29T11:54:59.001Z</time></trkpt><trkpt lat="44.89883079541463" lon="9.585640890446195"><ele>167.5</ele><time>2026-04-29T11:55:00.001Z</time></trkpt><trkpt lat="44.89870324435682" lon="9.585600651580542"><ele>169.0</ele><time>2026-04-29T11:55:01.001Z</time></trkpt><trkpt lat="44.898579296287494" lon="9.585581644452807"><ele>169.0</ele><time>2026-04-29T11:55:02.001Z</time></trkpt><trkpt lat="44.898453828517574" lon="9.585579624575383"><ele>169.0</ele><time>2026-04-29T11:55:03.001Z</time></trkpt><trkpt lat="44.89832508842381" lon="9.585616570759315"><ele>169.0</ele><time>2026-04-29T11:55:04.001Z</time></trkpt><trkpt lat="44.89819928344616" lon="9.585702358517963"><ele>169.0</ele><time>2026-04-29T11:55:05.001Z</time></trkpt><trkpt lat="44.898062654072724" lon="9.585813372385019"><ele>170.25</ele><time>2026-04-29T11:55:06.001Z</time></trkpt><trkpt lat="44.89792331274748" lon="9.585893162557435"><ele>171.5</ele><time>2026-04-29T11:55:07.001Z</time></trkpt><trkpt lat="44.8977882873055" lon="9.585901609001219"><ele>172.75</ele><time>2026-04-29T11:55:08.001Z</time></trkpt><trkpt lat="44.89766737036407" lon="9.585909059907891"><ele>174.0</ele><time>2026-04-29T11:55:09.001Z</time></trkpt><trkpt lat="44.89754129049723" lon="9.585834379843833"><ele>175.66666666666666</ele><time>2026-04-29T11:55:10.001Z</time></trkpt><trkpt lat="44.89740066992431" lon="9.585753801253787"><ele>177.33333333333331</ele><time>2026-04-29T11:55:11.001Z</time></trkpt><trkpt lat="44.897247702185396" lon="9.585675338198024"><ele>179.0</ele><time>2026-04-29T11:55:12.001Z</time></trkpt><trkpt lat="44.89708850848693" lon="9.585572430547888"><ele>179.0</ele><time>2026-04-29T11:55:13.001Z</time></trkpt><trkpt lat="44.89694548184801" lon="9.585487153973709"><ele>179.0</ele><time>2026-04-29T11:55:14.001Z</time></trkpt><trkpt lat="44.89681311065157" lon="9.585409837022096"><ele>179.0</ele><time>2026-04-29T11:55:15.001Z</time></trkpt><trkpt lat="44.896682632381705" lon="9.585329738013069"><ele>179.0</ele><time>2026-04-29T11:55:16.001Z</time></trkpt><trkpt lat="44.89656317382614" lon="9.585259386009866"><ele>177.5</ele><time>2026-04-29T11:55:17.001Z</time></trkpt><trkpt lat="44.89643655954799" lon="9.585190905089307"><ele>176.0</ele><time>2026-04-29T11:55:18.001Z</time></trkpt><trkpt lat="44.896310676759946" lon="9.585142887733845"><ele>174.5</ele><time>2026-04-29T11:55:19.001Z</time></trkpt><trkpt lat="44.89616970418356" lon="9.585101151292005"><ele>173.0</ele><time>2026-04-29T11:55:20.001Z</time></trkpt><trkpt lat="44.8960257895242" lon="9.5850721203952"><ele>174.75</ele><time>2026-04-29T11:55:21Z</time></trkpt><trkpt lat="44.89588354708588" lon="9.585038286678044"><ele>176.5</ele><time>2026-04-29T11:55:22Z</time></trkpt><trkpt lat="44.895758015310236" lon="9.585011230027778"><ele>178.25</ele><time>2026-04-29T11:55:23Z</time></trkpt><trkpt lat="44.895638693311724" lon="9.585010603884786"><ele>180.0</ele><time>2026-04-29T11:55:24Z</time></trkpt><trkpt lat="44.89549950119184" lon="9.585053875355204"><ele>180.0</ele><time>2026-04-29T11:55:25Z</time></trkpt><trkpt lat="44.89535801630818" lon="9.585107879337999"><ele>180.0</ele><time>2026-04-29T11:55:26Z</time></trkpt><trkpt lat="44.895204045730864" lon="9.585128670368153"><ele>180.0</ele><time>2026-04-29T11:55:27Z</time></trkpt><trkpt lat="44.89504276059166" lon="9.58519320972864"><ele>181.0</ele><time>2026-04-29T11:55:28Z</time></trkpt><trkpt lat="44.89486852168591" lon="9.585227786040756"><ele>182.0</ele><time>2026-04-29T11:55:29Z</time></trkpt><trkpt lat="44.89468889885167" lon="9.585252240740733"><ele>183.0</ele><time>2026-04-29T11:55:30Z</time></trkpt><trkpt lat="44.894508252616525" lon="9.585259357281494"><ele>183.0</ele><time>2026-04-29T11:55:31Z</time></trkpt><trkpt lat="44.89433010070509" lon="9.585265554903993"><ele>183.0</ele><time>2026-04-29T11:55:32Z</time></trkpt><trkpt lat="44.894161329545966" lon="9.58527527220535"><ele>183.0</ele><time>2026-04-29T11:55:33Z</time></trkpt><trkpt lat="44.893998122499255" lon="9.585280032445745"><ele>183.0</ele><time>2026-04-29T11:55:34Z</time></trkpt><trkpt lat="44.89384839639502" lon="9.585280214383902"><ele>183.0</ele><time>2026-04-29T11:55:35Z</time></trkpt><trkpt lat="44.893702756885325" lon="9.585281055698603"><ele>183.0</ele><time>2026-04-29T11:55:36Z</time></trkpt><trkpt lat="44.893564258904156" lon="9.58528074487373"><ele>183.0</ele><time>2026-04-29T11:55:37Z</time></trkpt><trkpt lat="44.893432796665266" lon="9.585285380483585"><ele>183.5</ele><time>2026-04-29T11:55:38Z</time></trkpt><trkpt lat="44.89329109524575" lon="9.585289852562143"><ele>184.0</ele><time>2026-04-29T11:55:39Z</time></trkpt><trkpt lat="44.893146929240444" lon="9.585297976800621"><ele>184.5</ele><time>2026-04-29T11:55:40Z</time></trkpt><trkpt lat="44.89299611206041" lon="9.585308365616408"><ele>185.0</ele><time>2026-04-29T11:55:41Z</time></trkpt><trkpt lat="44.89285111492138" lon="9.58530969195235"><ele>185.0</ele><time>2026-04-29T11:55:42Z</time></trkpt><trkpt lat="44.89271839136211" lon="9.585310660890368"><ele>185.0</ele><time>2026-04-29T11:55:43Z</time></trkpt><trkpt lat="44.89259305452364" lon="9.58531780030658"><ele>185.0</ele><time>2026-04-29T11:55:44Z</time></trkpt><trkpt lat="44.892478873225635" lon="9.585321746971646"><ele>185.0</ele><time>2026-04-29T11:55:45Z</time></trkpt><trkpt lat="44.89237307392365" lon="9.585321515256117"><ele>186.2</ele><time>2026-04-29T11:55:46Z</time></trkpt><trkpt lat="44.89227889896479" lon="9.58532374077339"><ele>187.4</ele><time>2026-04-29T11:55:47Z</time></trkpt><trkpt lat="44.8921926981895" lon="9.58532281790143"><ele>188.60000000000002</ele><time>2026-04-29T11:55:48Z</time></trkpt><trkpt lat="44.892111318887096" lon="9.585329818159021"><ele>189.8</ele><time>2026-04-29T11:55:49Z</time></trkpt><trkpt lat="44.89204433100778" lon="9.585337559400665"><ele>191.0</ele><time>2026-04-29T11:55:50Z</time></trkpt><trkpt lat="44.89190724553273" lon="9.585330156194777"><ele>191.0</ele><time>2026-04-29T11:55:52Z</time></trkpt><trkpt lat="44.89180301728118" lon="9.585337006217003"><ele>191.0</ele><time>2026-04-29T11:55:53Z</time></trkpt><trkpt lat="44.89167583629386" lon="9.585342977449006"><ele>191.0</ele><time>2026-04-29T11:55:54Z</time></trkpt><trkpt lat="44.891507371254846" lon="9.585362065490633"><ele>191.0</ele><time>2026-04-29T11:55:55Z</time></trkpt><trkpt lat="44.89130496568192" lon="9.58536968412848"><ele>191.0</ele><time>2026-04-29T11:55:56Z</time></trkpt><trkpt lat="44.89110946012133" lon="9.585361658268251"><ele>191.0</ele><time>2026-04-29T11:55:57Z</time></trkpt><trkpt lat="44.89092774813295" lon="9.585354490772373"><ele>191.0</ele><time>2026-04-29T11:55:58Z</time></trkpt><trkpt lat="44.89075214229093" lon="9.58536572126695"><ele>191.0</ele><time>2026-04-29T11:55:59Z</time></trkpt><trkpt lat="44.8905809759237" lon="9.58538939692875"><ele>191.0</ele><time>2026-04-29T11:56:00Z</time></trkpt><trkpt lat="44.89042024551986" lon="9.58542363642306"><ele>191.0</ele><time>2026-04-29T11:56:01Z</time></trkpt><trkpt lat="44.890269475873666" lon="9.5854654239755"><ele>191.0</ele><time>2026-04-29T11:56:02Z</time></trkpt><trkpt lat="44.8901214413984" lon="9.585518048628277"><ele>191.0</ele><time>2026-04-29T11:56:03Z</time></trkpt><trkpt lat="44.88998799041167" lon="9.58555803159345"><ele>191.0</ele><time>2026-04-29T11:56:04Z</time></trkpt><trkpt lat="44.88986254728283" lon="9.585584504750432"><ele>191.0</ele><time>2026-04-29T11:56:05Z</time></trkpt><trkpt lat="44.88975147535548" lon="9.585564009331222"><ele>191.5</ele><time>2026-04-29T11:56:06Z</time></trkpt><trkpt lat="44.88965390191993" lon="9.585521923016167"><ele>192.0</ele><time>2026-04-29T11:56:07Z</time></trkpt><trkpt lat="44.88955394658762" lon="9.585467886006716"><ele>192.5</ele><time>2026-04-29T11:56:08Z</time></trkpt><trkpt lat="44.88945365813696" lon="9.585371011353223"><ele>193.0</ele><time>2026-04-29T11:56:09Z</time></trkpt><trkpt lat="44.88935507051662" lon="9.585256717742425"><ele>192.0</ele><time>2026-04-29T11:56:10Z</time></trkpt><trkpt lat="44.88926704635057" lon="9.585122599818543"><ele>191.0</ele><time>2026-04-29T11:56:11Z</time></trkpt><trkpt lat="44.88917374979364" lon="9.584967498976471"><ele>190.0</ele><time>2026-04-29T11:56:12Z</time></trkpt><trkpt lat="44.88907141134317" lon="9.58479164668794"><ele>189.0</ele><time>2026-04-29T11:56:13Z</time></trkpt><trkpt lat="44.88897885991995" lon="9.584604004770453"><ele>187.0</ele><time>2026-04-29T11:56:14Z</time></trkpt><trkpt lat="44.88888896178037" lon="9.584432277612583"><ele>185.0</ele><time>2026-04-29T11:56:15Z</time></trkpt><trkpt lat="44.888789921644545" lon="9.584279770965155"><ele>183.0</ele><time>2026-04-29T11:56:16Z</time></trkpt><trkpt lat="44.888679216093394" lon="9.584162056420338"><ele>181.0</ele><time>2026-04-29T11:56:17Z</time></trkpt><trkpt lat="44.888553569375155" lon="9.584096041420782"><ele>182.0</ele><time>2026-04-29T11:56:18Z</time></trkpt><trkpt lat="44.88841315638106" lon="9.584075284584461"><ele>183.0</ele><time>2026-04-29T11:56:19Z</time></trkpt><trkpt lat="44.88825629320048" lon="9.584095405441644"><ele>184.0</ele><time>2026-04-29T11:56:20Z</time></trkpt><trkpt lat="44.888096796629235" lon="9.58411922105671"><ele>184.0</ele><time>2026-04-29T11:56:21Z</time></trkpt><trkpt lat="44.88796571223442" lon="9.58417024372698"><ele>184.0</ele><time>2026-04-29T11:56:22Z</time></trkpt><trkpt lat="44.88785295137567" lon="9.584163105015396"><ele>184.0</ele><time>2026-04-29T11:56:23.001Z</time></trkpt><trkpt lat="44.887755874790315" lon="9.584118675770645"><ele>184.0</ele><time>2026-04-29T11:56:24.001Z</time></trkpt><trkpt lat="44.887655320502354" lon="9.584028567082184"><ele>184.0</ele><time>2026-04-29T11:56:25.001Z</time></trkpt><trkpt lat="44.88755395470362" lon="9.58388504571329"><ele>184.0</ele><time>2026-04-29T11:56:26.001Z</time></trkpt><trkpt lat="44.88745132341107" lon="9.583705374029014"><ele>184.0</ele><time>2026-04-29T11:56:27.001Z</time></trkpt><trkpt lat="44.887372857715995" lon="9.58356666112103"><ele>184.0</ele><time>2026-04-29T11:56:28.001Z</time></trkpt><trkpt lat="44.88730066943721" lon="9.583472547971661"><ele>183.0</ele><time>2026-04-29T11:56:29.001Z</time></trkpt><trkpt lat="44.88719143636576" lon="9.583394667810275"><ele>182.0</ele><time>2026-04-29T11:56:30.001Z</time></trkpt><trkpt lat="44.88706606059382" lon="9.583355583188505"><ele>181.0</ele><time>2026-04-29T11:56:31.001Z</time></trkpt><trkpt lat="44.88691721200788" lon="9.583342751815724"><ele>180.0</ele><time>2026-04-29T11:56:32.001Z</time></trkpt><trkpt lat="44.886749046734685" lon="9.583371237662051"><ele>179.75</ele><time>2026-04-29T11:56:33.001Z</time></trkpt><trkpt lat="44.886611086891065" lon="9.583382922689784"><ele>179.5</ele><time>2026-04-29T11:56:34.001Z</time></trkpt><trkpt lat="44.886502711649186" lon="9.583395820454284"><ele>179.25</ele><time>2026-04-29T11:56:35.001Z</time></trkpt><trkpt lat="44.88641020756325" lon="9.583386774542705"><ele>179.0</ele><time>2026-04-29T11:56:36.001Z</time></trkpt><trkpt lat="44.886301947717726" lon="9.58335226581073"><ele>179.0</ele><time>2026-04-29T11:56:37.001Z</time></trkpt><trkpt lat="44.88620027295112" lon="9.583246276423532"><ele>179.0</ele><time>2026-04-29T11:56:38.001Z</time></trkpt><trkpt lat="44.88610178946807" lon="9.583082071313369"><ele>179.0</ele><time>2026-04-29T11:56:39.001Z</time></trkpt><trkpt lat="44.88600091281738" lon="9.582872319775195"><ele>179.33333333333331</ele><time>2026-04-29T11:56:40.001Z</time></trkpt><trkpt lat="44.88589805343369" lon="9.582640899575962"><ele>179.66666666666666</ele><time>2026-04-29T11:56:41.001Z</time></trkpt><trkpt lat="44.88580000155462" lon="9.582426996794785"><ele>180.0</ele><time>2026-04-29T11:56:42.001Z</time></trkpt><trkpt lat="44.88571181224756" lon="9.582247597320887"><ele>180.0</ele><time>2026-04-29T11:56:43.001Z</time></trkpt><trkpt lat="44.88562919095376" lon="9.582068376327928"><ele>180.0</ele><time>2026-04-29T11:56:44.001Z</time></trkpt><trkpt lat="44.88557507970926" lon="9.581861702957827"><ele>180.0</ele><time>2026-04-29T11:56:45.001Z</time></trkpt><trkpt lat="44.88553102454115" lon="9.581635587424904"><ele>178.0</ele><time>2026-04-29T11:56:46.001Z</time></trkpt><trkpt lat="44.88551449558194" lon="9.581396206232478"><ele>176.0</ele><time>2026-04-29T11:56:47.001Z</time></trkpt><trkpt lat="44.88550271497001" lon="9.581193528592614"><ele>174.0</ele><time>2026-04-29T11:56:48.001Z</time></trkpt><trkpt lat="44.885477226544225" lon="9.58098705542146"><ele>173.33333333333334</ele><time>2026-04-29T11:56:49.001Z</time></trkpt><trkpt lat="44.885422398188126" lon="9.580762566302006"><ele>172.66666666666669</ele><time>2026-04-29T11:56:50.001Z</time></trkpt><trkpt lat="44.885338523589326" lon="9.580524869246625"><ele>172.0</ele><time>2026-04-29T11:56:51.001Z</time></trkpt><trkpt lat="44.88524363042024" lon="9.580293374698565"><ele>170.33333333333334</ele><time>2026-04-29T11:56:52.001Z</time></trkpt><trkpt lat="44.885159936691714" lon="9.580076872918458"><ele>168.66666666666666</ele><time>2026-04-29T11:56:53.001Z</time></trkpt><trkpt lat="44.88508612130576" lon="9.579853867997754"><ele>167.0</ele><time>2026-04-29T11:56:54.001Z</time></trkpt><trkpt lat="44.88502554114927" lon="9.579609643701618"><ele>171.0</ele><time>2026-04-29T11:56:55.001Z</time></trkpt><trkpt lat="44.88497762577798" lon="9.579365957879915"><ele>175.0</ele><time>2026-04-29T11:56:56.001Z</time></trkpt><trkpt lat="44.88493698280473" lon="9.579133259280807"><ele>179.0</ele><time>2026-04-29T11:56:57.001Z</time></trkpt><trkpt lat="44.884894635696725" lon="9.578896744090773"><ele>178.33333333333331</ele><time>2026-04-29T11:56:58.001Z</time></trkpt><trkpt lat="44.88485192020987" lon="9.578666900164194"><ele>177.66666666666666</ele><time>2026-04-29T11:56:59.001Z</time></trkpt><trkpt lat="44.8848073371367" lon="9.578430337745072"><ele>177.0</ele><time>2026-04-29T11:57:00.001Z</time></trkpt><trkpt lat="44.88476531804958" lon="9.578190507033241"><ele>177.0</ele><time>2026-04-29T11:57:01.001Z</time></trkpt><trkpt lat="44.88472493119717" lon="9.577941120011022"><ele>177.0</ele><time>2026-04-29T11:57:02.001Z</time></trkpt><trkpt lat="44.88470296019985" lon="9.577693128800053"><ele>177.0</ele><time>2026-04-29T11:57:03.001Z</time></trkpt><trkpt lat="44.884695961720475" lon="9.577447438682416"><ele>175.25</ele><time>2026-04-29T11:57:04.001Z</time></trkpt><trkpt lat="44.884695568695854" lon="9.577212085334619"><ele>173.5</ele><time>2026-04-29T11:57:05.001Z</time></trkpt><trkpt lat="44.88469195110912" lon="9.57701029678204"><ele>171.75</ele><time>2026-04-29T11:57:06.001Z</time></trkpt><trkpt lat="44.884685107371126" lon="9.576824182501007"><ele>170.0</ele><time>2026-04-29T11:57:07.001Z</time></trkpt><trkpt lat="44.88466973897508" lon="9.576662897035074"><ele>168.75</ele><time>2026-04-29T11:57:08.001Z</time></trkpt><trkpt lat="44.884656320193486" lon="9.576507898143655"><ele>167.5</ele><time>2026-04-29T11:57:09.001Z</time></trkpt><trkpt lat="44.884592043091494" lon="9.576373656148826"><ele>166.25</ele><time>2026-04-29T11:57:10.001Z</time></trkpt><trkpt lat="44.884492574108286" lon="9.576244961397096"><ele>165.0</ele><time>2026-04-29T11:57:11.001Z</time></trkpt><trkpt lat="44.884380533584334" lon="9.576141727521339"><ele>167.0</ele><time>2026-04-29T11:57:12.001Z</time></trkpt><trkpt lat="44.884240835999904" lon="9.576031545555342"><ele>169.0</ele><time>2026-04-29T11:57:13.001Z</time></trkpt><trkpt lat="44.884126866087804" lon="9.575938331246082"><ele>171.0</ele><time>2026-04-29T11:57:14.001Z</time></trkpt><trkpt lat="44.884029783265724" lon="9.575839737162408"><ele>173.0</ele><time>2026-04-29T11:57:15.001Z</time></trkpt><trkpt lat="44.883929469055666" lon="9.575727343565605"><ele>173.0</ele><time>2026-04-29T11:57:16.001Z</time></trkpt><trkpt lat="44.88387834559185" lon="9.575571557434216"><ele>173.0</ele><time>2026-04-29T11:57:17.001Z</time></trkpt><trkpt lat="44.88384051325493" lon="9.575372220925061"><ele>173.0</ele><time>2026-04-29T11:57:18.001Z</time></trkpt><trkpt lat="44.883826368986995" lon="9.575138886058753"><ele>173.0</ele><time>2026-04-29T11:57:19.001Z</time></trkpt><trkpt lat="44.88382893731935" lon="9.574891695199288"><ele>171.33333333333331</ele><time>2026-04-29T11:57:20.001Z</time></trkpt><trkpt lat="44.883848870280474" lon="9.574602142891552"><ele>169.66666666666666</ele><time>2026-04-29T11:57:21.001Z</time></trkpt><trkpt lat="44.88390531038445" lon="9.574361279298454"><ele>168.0</ele><time>2026-04-29T11:57:22.001Z</time></trkpt><trkpt lat="44.88392488666526" lon="9.574164005957961"><ele>168.0</ele><time>2026-04-29T11:57:23.001Z</time></trkpt><trkpt lat="44.883943744431086" lon="9.5739812387796"><ele>168.0</ele><time>2026-04-29T11:57:24.001Z</time></trkpt><trkpt lat="44.88393245423885" lon="9.573810442991665"><ele>168.0</ele><time>2026-04-29T11:57:25.001Z</time></trkpt><trkpt lat="44.88389237720817" lon="9.573608244916485"><ele>168.0</ele><time>2026-04-29T11:57:26.001Z</time></trkpt><trkpt lat="44.88382498261528" lon="9.573382003222184"><ele>168.0</ele><time>2026-04-29T11:57:27Z</time></trkpt><trkpt lat="44.88373592545498" lon="9.57313463064964"><ele>168.0</ele><time>2026-04-29T11:57:28Z</time></trkpt><trkpt lat="44.88364590535048" lon="9.57288316447809"><ele>168.0</ele><time>2026-04-29T11:57:29Z</time></trkpt><trkpt lat="44.88354364362945" lon="9.572596363514604"><ele>168.5</ele><time>2026-04-29T11:57:30Z</time></trkpt><trkpt lat="44.883438586237624" lon="9.572283947189497"><ele>169.0</ele><time>2026-04-29T11:57:31Z</time></trkpt><trkpt lat="44.88332915158554" lon="9.571976119491701"><ele>169.0</ele><time>2026-04-29T11:57:32Z</time></trkpt><trkpt lat="44.883213776873575" lon="9.571658603892931"><ele>169.0</ele><time>2026-04-29T11:57:33Z</time></trkpt><trkpt lat="44.88309420052631" lon="9.57131805498514"><ele>167.0</ele><time>2026-04-29T11:57:34Z</time></trkpt><trkpt lat="44.88297504023228" lon="9.570962764614604"><ele>165.0</ele><time>2026-04-29T11:57:35Z</time></trkpt><trkpt lat="44.88286198596684" lon="9.570643777034627"><ele>164.0</ele><time>2026-04-29T11:57:36Z</time></trkpt><trkpt lat="44.882751280978056" lon="9.570340074127495"><ele>163.0</ele><time>2026-04-29T11:57:37Z</time></trkpt><trkpt lat="44.882662976222306" lon="9.570040825757914"><ele>167.0</ele><time>2026-04-29T11:57:38Z</time></trkpt><trkpt lat="44.882549143347546" lon="9.5697531788481"><ele>171.0</ele><time>2026-04-29T11:57:39Z</time></trkpt><trkpt lat="44.88245042119182" lon="9.569464095992197"><ele>171.0</ele><time>2026-04-29T11:57:40Z</time></trkpt><trkpt lat="44.88234848147412" lon="9.569173645629096"><ele>171.0</ele><time>2026-04-29T11:57:41Z</time></trkpt><trkpt lat="44.882250053740954" lon="9.568891263038283"><ele>169.66666666666666</ele><time>2026-04-29T11:57:42Z</time></trkpt><trkpt lat="44.882152251677674" lon="9.568616040847223"><ele>168.33333333333331</ele><time>2026-04-29T11:57:43Z</time></trkpt><trkpt lat="44.88206029996024" lon="9.568347898447934"><ele>167.0</ele><time>2026-04-29T11:57:44Z</time></trkpt><trkpt lat="44.881978556118334" lon="9.568088065887181"><ele>166.66666666666666</ele><time>2026-04-29T11:57:45Z</time></trkpt><trkpt lat="44.88189806403391" lon="9.567846057160036"><ele>166.33333333333334</ele><time>2026-04-29T11:57:46Z</time></trkpt><trkpt lat="44.88181482722442" lon="9.567604572113112"><ele>166.0</ele><time>2026-04-29T11:57:47Z</time></trkpt><trkpt lat="44.881711051955" lon="9.567374320796674"><ele>167.0</ele><time>2026-04-29T11:57:48Z</time></trkpt><trkpt lat="44.88158264363017" lon="9.567177921484227"><ele>168.0</ele><time>2026-04-29T11:57:49Z</time></trkpt><trkpt lat="44.881428616970084" lon="9.566967456690056"><ele>169.0</ele><time>2026-04-29T11:57:50Z</time></trkpt><trkpt lat="44.88126756437503" lon="9.566767007609041"><ele>169.0</ele><time>2026-04-29T11:57:51Z</time></trkpt><trkpt lat="44.88110952194106" lon="9.566541085709579"><ele>169.0</ele><time>2026-04-29T11:57:52Z</time></trkpt><trkpt lat="44.8809220186227" lon="9.56627468614222"><ele>169.0</ele><time>2026-04-29T11:57:53Z</time></trkpt><trkpt lat="44.880749651612014" lon="9.566040049421245"><ele>169.0</ele><time>2026-04-29T11:57:54Z</time></trkpt><trkpt lat="44.88058436358094" lon="9.565824427042468"><ele>169.0</ele><time>2026-04-29T11:57:55Z</time></trkpt><trkpt lat="44.88042954299613" lon="9.565619580865848"><ele>169.0</ele><time>2026-04-29T11:57:56Z</time></trkpt><trkpt lat="44.88028526559907" lon="9.565420257505528"><ele>169.0</ele><time>2026-04-29T11:57:57Z</time></trkpt><trkpt lat="44.88014602304899" lon="9.565236598979086"><ele>170.66666666666669</ele><time>2026-04-29T11:57:58Z</time></trkpt><trkpt lat="44.880010198088925" lon="9.565049685385697"><ele>172.33333333333334</ele><time>2026-04-29T11:57:59Z</time></trkpt><trkpt lat="44.87988150975902" lon="9.564875354826649"><ele>174.0</ele><time>2026-04-29T11:58:00Z</time></trkpt><trkpt lat="44.87975790378664" lon="9.564704663992455"><ele>174.0</ele><time>2026-04-29T11:58:01Z</time></trkpt><trkpt lat="44.87963206297857" lon="9.564540194292125"><ele>174.0</ele><time>2026-04-29T11:58:02Z</time></trkpt><trkpt lat="44.879503463132124" lon="9.564379926751638"><ele>174.0</ele><time>2026-04-29T11:58:03Z</time></trkpt><trkpt lat="44.879369604851846" lon="9.564195026533385"><ele>176.33333333333334</ele><time>2026-04-29T11:58:04Z</time></trkpt><trkpt lat="44.87922826927896" lon="9.564003396470508"><ele>178.66666666666669</ele><time>2026-04-29T11:58:05Z</time></trkpt><trkpt lat="44.879074925154626" lon="9.56378858276414"><ele>181.0</ele><time>2026-04-29T11:58:06Z</time></trkpt><trkpt lat="44.878906426815824" lon="9.563571844992314"><ele>181.0</ele><time>2026-04-29T11:58:07Z</time></trkpt><trkpt lat="44.87874822501624" lon="9.563384876407321"><ele>181.0</ele><time>2026-04-29T11:58:08Z</time></trkpt><trkpt lat="44.87859980217036" lon="9.563158679128476"><ele>181.0</ele><time>2026-04-29T11:58:09Z</time></trkpt><trkpt lat="44.87843272217235" lon="9.562953888168497"><ele>178.66666666666669</ele><time>2026-04-29T11:58:10Z</time></trkpt><trkpt lat="44.87825142828059" lon="9.56276624309314"><ele>176.33333333333334</ele><time>2026-04-29T11:58:11Z</time></trkpt><trkpt lat="44.878087858971696" lon="9.562598184825372"><ele>174.0</ele><time>2026-04-29T11:58:12Z</time></trkpt><trkpt lat="44.8779569221522" lon="9.562443195262086"><ele>174.0</ele><time>2026-04-29T11:58:13Z</time></trkpt><trkpt lat="44.8778034471118" lon="9.56226949728708"><ele>174.0</ele><time>2026-04-29T11:58:14Z</time></trkpt><trkpt lat="44.87765591076038" lon="9.562112588974314"><ele>174.0</ele><time>2026-04-29T11:58:15Z</time></trkpt><trkpt lat="44.87750611877637" lon="9.561959599034017"><ele>174.33333333333334</ele><time>2026-04-29T11:58:16Z</time></trkpt><trkpt lat="44.87735131987049" lon="9.561812669877593"><ele>174.66666666666669</ele><time>2026-04-29T11:58:17Z</time></trkpt><trkpt lat="44.87719542912662" lon="9.561657104415353"><ele>175.0</ele><time>2026-04-29T11:58:18Z</time></trkpt><trkpt lat="44.877034660061405" lon="9.561496097593787"><ele>175.0</ele><time>2026-04-29T11:58:19Z</time></trkpt><trkpt lat="44.8768726812618" lon="9.561330127078104"><ele>175.0</ele><time>2026-04-29T11:58:20Z</time></trkpt><trkpt lat="44.87672028333266" lon="9.561178522246529"><ele>175.0</ele><time>2026-04-29T11:58:21Z</time></trkpt><trkpt lat="44.876571954436116" lon="9.56107560559234"><ele>175.0</ele><time>2026-04-29T11:58:22Z</time></trkpt><trkpt lat="44.87640936206385" lon="9.561000680204234"><ele>175.0</ele><time>2026-04-29T11:58:23Z</time></trkpt><trkpt lat="44.876246593830984" lon="9.560910901943986"><ele>175.0</ele><time>2026-04-29T11:58:24Z</time></trkpt><trkpt lat="44.87609589120397" lon="9.560837767543045"><ele>175.0</ele><time>2026-04-29T11:58:25Z</time></trkpt><trkpt lat="44.87594719458149" lon="9.560765606632547"><ele>175.0</ele><time>2026-04-29T11:58:26Z</time></trkpt><trkpt lat="44.87574520294506" lon="9.560894178492758"><ele>175.0</ele><time>2026-04-29T11:58:27Z</time></trkpt><trkpt lat="44.87557128986265" lon="9.560939872520965"><ele>175.33333333333334</ele><time>2026-04-29T11:58:28Z</time></trkpt><trkpt lat="44.8753972380547" lon="9.560984918108646"><ele>175.66666666666666</ele><time>2026-04-29T11:58:29Z</time></trkpt><trkpt lat="44.87523410524993" lon="9.561023342541876"><ele>176.0</ele><time>2026-04-29T11:58:30Z</time></trkpt><trkpt lat="44.87508153977037" lon="9.561054990397878"><ele>176.25</ele><time>2026-04-29T11:58:31Z</time></trkpt><trkpt lat="44.87493711522148" lon="9.561084601239934"><ele>176.5</ele><time>2026-04-29T11:58:32Z</time></trkpt><trkpt lat="44.874810061379115" lon="9.561085259587223"><ele>176.75</ele><time>2026-04-29T11:58:33Z</time></trkpt><trkpt lat="44.87469076969757" lon="9.561034070194262"><ele>177.0</ele><time>2026-04-29T11:58:34Z</time></trkpt><trkpt lat="44.87455816265167" lon="9.560947157829341"><ele>177.0</ele><time>2026-04-29T11:58:35Z</time></trkpt><trkpt lat="44.874406939326285" lon="9.560828047088137"><ele>177.0</ele><time>2026-04-29T11:58:36Z</time></trkpt><trkpt lat="44.87424274945037" lon="9.560708540473204"><ele>177.0</ele><time>2026-04-29T11:58:37Z</time></trkpt><trkpt lat="44.87408581290134" lon="9.560599365533415"><ele>177.66666666666666</ele><time>2026-04-29T11:58:38Z</time></trkpt><trkpt lat="44.8739485963611" lon="9.560501987308417"><ele>178.33333333333331</ele><time>2026-04-29T11:58:39Z</time></trkpt><trkpt lat="44.87380579595902" lon="9.560415203419224"><ele>179.0</ele><time>2026-04-29T11:58:40Z</time></trkpt><trkpt lat="44.87363993191199" lon="9.560300601262055"><ele>179.66666666666666</ele><time>2026-04-29T11:58:41Z</time></trkpt><trkpt lat="44.87348291010095" lon="9.560177068552752"><ele>180.33333333333334</ele><time>2026-04-29T11:58:42Z</time></trkpt><trkpt lat="44.873331997894304" lon="9.560061896472467"><ele>181.0</ele><time>2026-04-29T11:58:43.001Z</time></trkpt><trkpt lat="44.873162008961096" lon="9.559940162520967"><ele>181.0</ele><time>2026-04-29T11:58:44.001Z</time></trkpt><trkpt lat="44.87297051225136" lon="9.559795294727863"><ele>181.0</ele><time>2026-04-29T11:58:45.001Z</time></trkpt><trkpt lat="44.87276990989744" lon="9.559641408508543"><ele>181.0</ele><time>2026-04-29T11:58:46.001Z</time></trkpt><trkpt lat="44.87261363874555" lon="9.559510359837107"><ele>180.0</ele><time>2026-04-29T11:58:47.001Z</time></trkpt><trkpt lat="44.87248912996493" lon="9.55940384600801"><ele>179.0</ele><time>2026-04-29T11:58:48.001Z</time></trkpt><trkpt lat="44.8723680442948" lon="9.559297482260698"><ele>178.0</ele><time>2026-04-29T11:58:49.001Z</time></trkpt><trkpt lat="44.872239332198056" lon="9.559137266811268"><ele>178.0</ele><time>2026-04-29T11:58:50.001Z</time></trkpt><trkpt lat="44.87213307698642" lon="9.558947491552585"><ele>178.0</ele><time>2026-04-29T11:58:51.001Z</time></trkpt><trkpt lat="44.87206046112605" lon="9.558722643050992"><ele>178.0</ele><time>2026-04-29T11:58:52.001Z</time></trkpt><trkpt lat="44.87199895097735" lon="9.558515398482651"><ele>177.0</ele><time>2026-04-29T11:58:53.001Z</time></trkpt><trkpt lat="44.8719413592542" lon="9.558334157411458"><ele>176.0</ele><time>2026-04-29T11:58:54.001Z</time></trkpt><trkpt lat="44.871874227279875" lon="9.558183735522004"><ele>175.0</ele><time>2026-04-29T11:58:55.001Z</time></trkpt><trkpt lat="44.87179454526121" lon="9.558050303145762"><ele>174.0</ele><time>2026-04-29T11:58:56.001Z</time></trkpt><trkpt lat="44.871697810799645" lon="9.557923821360806"><ele>175.0</ele><time>2026-04-29T11:58:57.001Z</time></trkpt><trkpt lat="44.87159343157859" lon="9.55780759762568"><ele>176.0</ele><time>2026-04-29T11:58:58.001Z</time></trkpt><trkpt lat="44.871477286003724" lon="9.557706830468787"><ele>177.0</ele><time>2026-04-29T11:58:59.001Z</time></trkpt><trkpt lat="44.87135333364073" lon="9.557634423576198"><ele>178.0</ele><time>2026-04-29T11:59:00.001Z</time></trkpt><trkpt lat="44.87123295431084" lon="9.557584108606152"><ele>178.0</ele><time>2026-04-29T11:59:01.001Z</time></trkpt><trkpt lat="44.87109536566303" lon="9.557578881423922"><ele>178.0</ele><time>2026-04-29T11:59:02.001Z</time></trkpt><trkpt lat="44.87092987083417" lon="9.557603643450333"><ele>178.0</ele><time>2026-04-29T11:59:03.001Z</time></trkpt><trkpt lat="44.87074859847953" lon="9.557658161127287"><ele>180.66666666666669</ele><time>2026-04-29T11:59:04.001Z</time></trkpt><trkpt lat="44.8705603926188" lon="9.557709845966881"><ele>183.33333333333334</ele><time>2026-04-29T11:59:05.001Z</time></trkpt><trkpt lat="44.87040052380173" lon="9.557763574975496"><ele>186.0</ele><time>2026-04-29T11:59:06.001Z</time></trkpt><trkpt lat="44.87024767941171" lon="9.557806844798542"><ele>185.5</ele><time>2026-04-29T11:59:07.001Z</time></trkpt><trkpt lat="44.870104214394864" lon="9.557847423815023"><ele>185.0</ele><time>2026-04-29T11:59:08.001Z</time></trkpt><trkpt lat="44.86996783107102" lon="9.557883760597289"><ele>184.5</ele><time>2026-04-29T11:59:09.001Z</time></trkpt><trkpt lat="44.869839618318686" lon="9.557917157242146"><ele>184.0</ele><time>2026-04-29T11:59:10.001Z</time></trkpt><trkpt lat="44.869722729075114" lon="9.557940660259257"><ele>184.25</ele><time>2026-04-29T11:59:11.001Z</time></trkpt><trkpt lat="44.86960801372684" lon="9.557940871815903"><ele>184.5</ele><time>2026-04-29T11:59:12.001Z</time></trkpt><trkpt lat="44.8695050590486" lon="9.557925411616687"><ele>184.75</ele><time>2026-04-29T11:59:13.001Z</time></trkpt><trkpt lat="44.86939085043603" lon="9.557901050279186"><ele>185.0</ele><time>2026-04-29T11:59:14.001Z</time></trkpt><trkpt lat="44.86927192168998" lon="9.557865594401896"><ele>185.0</ele><time>2026-04-29T11:59:15.001Z</time></trkpt><trkpt lat="44.86914343260396" lon="9.557825020497331"><ele>185.0</ele><time>2026-04-29T11:59:16.001Z</time></trkpt><trkpt lat="44.86902854085333" lon="9.557775528429529"><ele>185.0</ele><time>2026-04-29T11:59:17.001Z</time></trkpt><trkpt lat="44.86891565133625" lon="9.55769962971122"><ele>185.0</ele><time>2026-04-29T11:59:18.001Z</time></trkpt><trkpt lat="44.868809470750584" lon="9.557584481986586"><ele>185.0</ele><time>2026-04-29T11:59:19.001Z</time></trkpt><trkpt lat="44.86870799548754" lon="9.55743116373167"><ele>185.0</ele><time>2026-04-29T11:59:20.001Z</time></trkpt><trkpt lat="44.86863136096184" lon="9.557247756731003"><ele>185.0</ele><time>2026-04-29T11:59:21.001Z</time></trkpt><trkpt lat="44.868545329061746" lon="9.557031225235544"><ele>185.75</ele><time>2026-04-29T11:59:22.001Z</time></trkpt><trkpt lat="44.86846204397526" lon="9.556835719146944"><ele>186.5</ele><time>2026-04-29T11:59:23.001Z</time></trkpt><trkpt lat="44.86838366228292" lon="9.556663419754235"><ele>187.25</ele><time>2026-04-29T11:59:24.001Z</time></trkpt><trkpt lat="44.86830395006214" lon="9.556512625422007"><ele>188.0</ele><time>2026-04-29T11:59:25.001Z</time></trkpt><trkpt lat="44.86820451579092" lon="9.556389125943596"><ele>188.0</ele><time>2026-04-29T11:59:26.001Z</time></trkpt><trkpt lat="44.86807895600636" lon="9.556286856131024"><ele>188.0</ele><time>2026-04-29T11:59:27.001Z</time></trkpt><trkpt lat="44.86793986704575" lon="9.556213184127715"><ele>188.0</ele><time>2026-04-29T11:59:28.001Z</time></trkpt><trkpt lat="44.867794219330115" lon="9.556170795465947"><ele>188.0</ele><time>2026-04-29T11:59:29.001Z</time></trkpt><trkpt lat="44.867628681420996" lon="9.556133092347954"><ele>187.33333333333331</ele><time>2026-04-29T11:59:30.001Z</time></trkpt><trkpt lat="44.86745800817461" lon="9.55609038994122"><ele>186.66666666666666</ele><time>2026-04-29T11:59:31.001Z</time></trkpt><trkpt lat="44.867301231516414" lon="9.556042837381773"><ele>186.0</ele><time>2026-04-29T11:59:32.001Z</time></trkpt><trkpt lat="44.867159549856616" lon="9.555971186366529"><ele>186.0</ele><time>2026-04-29T11:59:33Z</time></trkpt><trkpt lat="44.86702758429883" lon="9.555861207673548"><ele>186.0</ele><time>2026-04-29T11:59:34Z</time></trkpt><trkpt lat="44.866892452020075" lon="9.555706224996232"><ele>186.0</ele><time>2026-04-29T11:59:35Z</time></trkpt><trkpt lat="44.866751348600886" lon="9.555516803630034"><ele>186.0</ele><time>2026-04-29T11:59:36Z</time></trkpt><trkpt lat="44.86661900194622" lon="9.55532468255868"><ele>186.0</ele><time>2026-04-29T11:59:37Z</time></trkpt><trkpt lat="44.8665097864184" lon="9.555180826070318"><ele>186.0</ele><time>2026-04-29T11:59:38Z</time></trkpt><trkpt lat="44.86640914793962" lon="9.55504741987921"><ele>186.0</ele><time>2026-04-29T11:59:39Z</time></trkpt><trkpt lat="44.86631248632682" lon="9.554925551759712"><ele>186.0</ele><time>2026-04-29T11:59:40Z</time></trkpt><trkpt lat="44.86621586438107" lon="9.554817148185416"><ele>186.0</ele><time>2026-04-29T11:59:41Z</time></trkpt><trkpt lat="44.86612845677978" lon="9.5547192366912"><ele>186.0</ele><time>2026-04-29T11:59:42Z</time></trkpt><trkpt lat="44.86601639070303" lon="9.554662045435117"><ele>189.0</ele><time>2026-04-29T11:59:43Z</time></trkpt><trkpt lat="44.865881406167226" lon="9.554640703322763"><ele>192.0</ele><time>2026-04-29T11:59:44Z</time></trkpt><trkpt lat="44.86573312245114" lon="9.55479155111682"><ele>195.0</ele><time>2026-04-29T11:59:45Z</time></trkpt><trkpt lat="44.8655831151627" lon="9.554849139831575"><ele>195.0</ele><time>2026-04-29T11:59:46Z</time></trkpt><trkpt lat="44.86541830394525" lon="9.55489221580269"><ele>195.0</ele><time>2026-04-29T11:59:47Z</time></trkpt><trkpt lat="44.865257326501016" lon="9.55492809255201"><ele>195.0</ele><time>2026-04-29T11:59:48Z</time></trkpt><trkpt lat="44.8650720041057" lon="9.554832502315678"><ele>194.33333333333331</ele><time>2026-04-29T11:59:49Z</time></trkpt><trkpt lat="44.86489116756009" lon="9.554886744735763"><ele>193.66666666666666</ele><time>2026-04-29T11:59:50Z</time></trkpt><trkpt lat="44.86468105202054" lon="9.554949769474064"><ele>193.0</ele><time>2026-04-29T11:59:51Z</time></trkpt><trkpt lat="44.864498078635755" lon="9.55502809810042"><ele>193.0</ele><time>2026-04-29T11:59:52Z</time></trkpt><trkpt lat="44.86434127792791" lon="9.555073757433519"><ele>193.0</ele><time>2026-04-29T11:59:53Z</time></trkpt><trkpt lat="44.86418779061739" lon="9.55512142587115"><ele>193.0</ele><time>2026-04-29T11:59:54Z</time></trkpt><trkpt lat="44.86404628334378" lon="9.555168558959775"><ele>191.75</ele><time>2026-04-29T11:59:55Z</time></trkpt><trkpt lat="44.86391680657612" lon="9.55518196414278"><ele>190.5</ele><time>2026-04-29T11:59:56Z</time></trkpt><trkpt lat="44.863785622251335" lon="9.555229175259301"><ele>189.25</ele><time>2026-04-29T11:59:57Z</time></trkpt><trkpt lat="44.86365989206848" lon="9.555236453620214"><ele>188.0</ele><time>2026-04-29T11:59:58Z</time></trkpt><trkpt lat="44.863532519413994" lon="9.55521276473726"><ele>188.0</ele><time>2026-04-29T11:59:59Z</time></trkpt><trkpt lat="44.863399252548355" lon="9.555173327674636"><ele>188.0</ele><time>2026-04-29T12:00:00Z</time></trkpt><trkpt lat="44.86327456649158" lon="9.55510773649737"><ele>188.0</ele><time>2026-04-29T12:00:01Z</time></trkpt><trkpt lat="44.863162947641534" lon="9.555011780181575"><ele>188.0</ele><time>2026-04-29T12:00:02Z</time></trkpt><trkpt lat="44.863057004584384" lon="9.554882286348333"><ele>188.0</ele><time>2026-04-29T12:00:03Z</time></trkpt><trkpt lat="44.86296454070556" lon="9.5547257665386"><ele>188.0</ele><time>2026-04-29T12:00:04Z</time></trkpt><trkpt lat="44.86287837585296" lon="9.554534168340094"><ele>188.0</ele><time>2026-04-29T12:00:05Z</time></trkpt><trkpt lat="44.862794460265135" lon="9.55433015537409"><ele>188.75</ele><time>2026-04-29T12:00:06Z</time></trkpt><trkpt lat="44.86272032244341" lon="9.554146806684"><ele>189.5</ele><time>2026-04-29T12:00:07Z</time></trkpt><trkpt lat="44.862643349571734" lon="9.553984739301507"><ele>190.25</ele><time>2026-04-29T12:00:08Z</time></trkpt><trkpt lat="44.86254823576965" lon="9.553841533565008"><ele>191.0</ele><time>2026-04-29T12:00:09Z</time></trkpt><trkpt lat="44.86241452438125" lon="9.553709190495363"><ele>187.33333333333331</ele><time>2026-04-29T12:00:10Z</time></trkpt><trkpt lat="44.86226217510345" lon="9.553599323065933"><ele>183.66666666666666</ele><time>2026-04-29T12:00:11Z</time></trkpt><trkpt lat="44.862101822339284" lon="9.553494184996937"><ele>180.0</ele><time>2026-04-29T12:00:12Z</time></trkpt><trkpt lat="44.861967941532605" lon="9.553398982462063"><ele>180.0</ele><time>2026-04-29T12:00:13Z</time></trkpt><trkpt lat="44.861852220859134" lon="9.553306509820672"><ele>180.0</ele><time>2026-04-29T12:00:14Z</time></trkpt><trkpt lat="44.86176367117483" lon="9.553176340790788"><ele>180.0</ele><time>2026-04-29T12:00:15Z</time></trkpt><trkpt lat="44.86167360806757" lon="9.55297840740164"><ele>180.0</ele><time>2026-04-29T12:00:16Z</time></trkpt><trkpt lat="44.86157961177452" lon="9.552772606674983"><ele>181.25</ele><time>2026-04-29T12:00:17Z</time></trkpt><trkpt lat="44.86149669725133" lon="9.552587747916892"><ele>182.5</ele><time>2026-04-29T12:00:18Z</time></trkpt><trkpt lat="44.86141944741302" lon="9.552410428892511"><ele>183.75</ele><time>2026-04-29T12:00:19Z</time></trkpt><trkpt lat="44.86135142939726" lon="9.552245313576398"><ele>185.0</ele><time>2026-04-29T12:00:20Z</time></trkpt><trkpt lat="44.86126704662737" lon="9.552097202812119"><ele>185.66666666666666</ele><time>2026-04-29T12:00:21Z</time></trkpt><trkpt lat="44.861144434468514" lon="9.55195821070759"><ele>186.33333333333334</ele><time>2026-04-29T12:00:22Z</time></trkpt><trkpt lat="44.86097884403923" lon="9.55181081842734"><ele>187.0</ele><time>2026-04-29T12:00:23Z</time></trkpt><trkpt lat="44.8608155736343" lon="9.551646837248594"><ele>187.0</ele><time>2026-04-29T12:00:24Z</time></trkpt><trkpt lat="44.86064417170269" lon="9.551468137537851"><ele>187.0</ele><time>2026-04-29T12:00:25Z</time></trkpt><trkpt lat="44.86047733173236" lon="9.551280224620303"><ele>187.0</ele><time>2026-04-29T12:00:26Z</time></trkpt><trkpt lat="44.86032008733177" lon="9.551103282503494"><ele>189.33333333333334</ele><time>2026-04-29T12:00:27Z</time></trkpt><trkpt lat="44.86018099510661" lon="9.55092494762"><ele>191.66666666666669</ele><time>2026-04-29T12:00:28Z</time></trkpt><trkpt lat="44.86006510157913" lon="9.550724508083848"><ele>194.0</ele><time>2026-04-29T12:00:29Z</time></trkpt><trkpt lat="44.85992266713163" lon="9.55056513868117"><ele>194.0</ele><time>2026-04-29T12:00:30Z</time></trkpt><trkpt lat="44.85977987657255" lon="9.550396002983238"><ele>194.0</ele><time>2026-04-29T12:00:31Z</time></trkpt><trkpt lat="44.859617048391065" lon="9.550238570060547"><ele>194.0</ele><time>2026-04-29T12:00:32Z</time></trkpt><trkpt lat="44.859439224172476" lon="9.55008009929152"><ele>196.33333333333334</ele><time>2026-04-29T12:00:33Z</time></trkpt><trkpt lat="44.859262526372774" lon="9.549911865630994"><ele>198.66666666666669</ele><time>2026-04-29T12:00:34Z</time></trkpt><trkpt lat="44.85909844464089" lon="9.549752223706346"><ele>201.0</ele><time>2026-04-29T12:00:35Z</time></trkpt><trkpt lat="44.85896805326537" lon="9.549559911395912"><ele>193.75</ele><time>2026-04-29T12:00:36Z</time></trkpt><trkpt lat="44.85882902766447" lon="9.549423183871223"><ele>186.5</ele><time>2026-04-29T12:00:37Z</time></trkpt><trkpt lat="44.858708278250084" lon="9.549306897141609"><ele>179.25</ele><time>2026-04-29T12:00:38Z</time></trkpt><trkpt lat="44.858598827120666" lon="9.549201491103675"><ele>172.0</ele><time>2026-04-29T12:00:39Z</time></trkpt><trkpt lat="44.85849586985068" lon="9.549099882702608"><ele>179.0</ele><time>2026-04-29T12:00:40Z</time></trkpt><trkpt lat="44.85839720013783" lon="9.548996601416079"><ele>186.0</ele><time>2026-04-29T12:00:41Z</time></trkpt><trkpt lat="44.8583148126012" lon="9.548896524659993"><ele>193.0</ele><time>2026-04-29T12:00:42Z</time></trkpt><trkpt lat="44.85822780583966" lon="9.548795020542174"><ele>200.0</ele><time>2026-04-29T12:00:43Z</time></trkpt><trkpt lat="44.858127150567114" lon="9.54871085008465"><ele>196.25</ele><time>2026-04-29T12:00:44Z</time></trkpt><trkpt lat="44.85800699624776" lon="9.548615272778404"><ele>192.5</ele><time>2026-04-29T12:00:45.001Z</time></trkpt><trkpt lat="44.85787064104138" lon="9.548527411194984"><ele>188.75</ele><time>2026-04-29T12:00:46.001Z</time></trkpt><trkpt lat="44.85772807471084" lon="9.548455923348893"><ele>185.0</ele><time>2026-04-29T12:00:47.001Z</time></trkpt><trkpt lat="44.8575753821549" lon="9.548383134938055"><ele>185.0</ele><time>2026-04-29T12:00:48.001Z</time></trkpt><trkpt lat="44.857412211748674" lon="9.54828450890404"><ele>185.0</ele><time>2026-04-29T12:00:49.001Z</time></trkpt><trkpt lat="44.85724459565732" lon="9.548202243913066"><ele>185.0</ele><time>2026-04-29T12:00:50.001Z</time></trkpt><trkpt lat="44.857063121673335" lon="9.548135907430057"><ele>185.0</ele><time>2026-04-29T12:00:51.001Z</time></trkpt><trkpt lat="44.85690053228837" lon="9.548033194970023"><ele>185.0</ele><time>2026-04-29T12:00:52.001Z</time></trkpt><trkpt lat="44.85674266203539" lon="9.547955346975225"><ele>185.0</ele><time>2026-04-29T12:00:53.001Z</time></trkpt><trkpt lat="44.856593136983314" lon="9.547881607302712"><ele>183.5</ele><time>2026-04-29T12:00:54.001Z</time></trkpt><trkpt lat="44.856447809205044" lon="9.547809937530493"><ele>182.0</ele><time>2026-04-29T12:00:55.001Z</time></trkpt><trkpt lat="44.85630958724784" lon="9.547760974465362"><ele>180.5</ele><time>2026-04-29T12:00:56.001Z</time></trkpt><trkpt lat="44.856191131406746" lon="9.547684869790618"><ele>179.0</ele><time>2026-04-29T12:00:57.001Z</time></trkpt><trkpt lat="44.856095280566564" lon="9.54758759764629"><ele>179.0</ele><time>2026-04-29T12:00:58.001Z</time></trkpt><trkpt lat="44.856012926949276" lon="9.547481160265143"><ele>179.0</ele><time>2026-04-29T12:00:59.001Z</time></trkpt><trkpt lat="44.85593332632887" lon="9.547366023513966"><ele>179.0</ele><time>2026-04-29T12:01:00.001Z</time></trkpt><trkpt lat="44.85583805833737" lon="9.547240736204053"><ele>179.0</ele><time>2026-04-29T12:01:01.001Z</time></trkpt><trkpt lat="44.855733987630444" lon="9.547112481224872"><ele>180.33333333333331</ele><time>2026-04-29T12:01:02.001Z</time></trkpt><trkpt lat="44.85562201408714" lon="9.546976126701757"><ele>181.66666666666666</ele><time>2026-04-29T12:01:03.001Z</time></trkpt><trkpt lat="44.85550717971506" lon="9.546836296832375"><ele>183.0</ele><time>2026-04-29T12:01:04.001Z</time></trkpt><trkpt lat="44.85538790406297" lon="9.546694751515354"><ele>183.0</ele><time>2026-04-29T12:01:05.001Z</time></trkpt><trkpt lat="44.85527032948098" lon="9.546551722516146"><ele>183.0</ele><time>2026-04-29T12:01:06.001Z</time></trkpt><trkpt lat="44.85515715420926" lon="9.54640993646531"><ele>183.0</ele><time>2026-04-29T12:01:07.001Z</time></trkpt><trkpt lat="44.85503865062829" lon="9.546264888258266"><ele>183.0</ele><time>2026-04-29T12:01:08.001Z</time></trkpt><trkpt lat="44.85492197383099" lon="9.546124191771643"><ele>183.0</ele><time>2026-04-29T12:01:09.001Z</time></trkpt><trkpt lat="44.85481692102903" lon="9.545983312570772"><ele>183.0</ele><time>2026-04-29T12:01:10.001Z</time></trkpt><trkpt lat="44.854714189629476" lon="9.54584162458549"><ele>183.0</ele><time>2026-04-29T12:01:11.001Z</time></trkpt><trkpt lat="44.854614329070564" lon="9.545695240702711"><ele>183.0</ele><time>2026-04-29T12:01:12.001Z</time></trkpt><trkpt lat="44.854513556509374" lon="9.545538387249419"><ele>183.0</ele><time>2026-04-29T12:01:13.001Z</time></trkpt><trkpt lat="44.85440954049626" lon="9.54534338244689"><ele>183.0</ele><time>2026-04-29T12:01:14.001Z</time></trkpt><trkpt lat="44.85429926848721" lon="9.545120413968341"><ele>185.0</ele><time>2026-04-29T12:01:15.001Z</time></trkpt><trkpt lat="44.854193443339575" lon="9.544908683584655"><ele>187.0</ele><time>2026-04-29T12:01:16.001Z</time></trkpt><trkpt lat="44.85409757012804" lon="9.544717788927475"><ele>189.0</ele><time>2026-04-29T12:01:17.001Z</time></trkpt><trkpt lat="44.8540250752209" lon="9.54454841463346"><ele>186.66666666666666</ele><time>2026-04-29T12:01:18.001Z</time></trkpt><trkpt lat="44.85397133017728" lon="9.544356233735202"><ele>184.33333333333331</ele><time>2026-04-29T12:01:19.001Z</time></trkpt><trkpt lat="44.85392155482526" lon="9.544118485057883"><ele>182.0</ele><time>2026-04-29T12:01:20.001Z</time></trkpt><trkpt lat="44.85388302587139" lon="9.54387538050294"><ele>181.5</ele><time>2026-04-29T12:01:21.001Z</time></trkpt><trkpt lat="44.853852691531735" lon="9.54365445469176"><ele>181.0</ele><time>2026-04-29T12:01:22.001Z</time></trkpt><trkpt lat="44.853806423157735" lon="9.543471216804098"><ele>180.5</ele><time>2026-04-29T12:01:23.001Z</time></trkpt><trkpt lat="44.853778683907194" lon="9.543265157465349"><ele>180.0</ele><time>2026-04-29T12:01:24.001Z</time></trkpt><trkpt lat="44.85373834037848" lon="9.543077973588604"><ele>180.0</ele><time>2026-04-29T12:01:25.001Z</time></trkpt><trkpt lat="44.85368289863" lon="9.542898760867274"><ele>180.0</ele><time>2026-04-29T12:01:26.001Z</time></trkpt><trkpt lat="44.85359835089173" lon="9.542722271028225"><ele>180.0</ele><time>2026-04-29T12:01:27.001Z</time></trkpt><trkpt lat="44.85350124376316" lon="9.542552431844248"><ele>180.0</ele><time>2026-04-29T12:01:28.001Z</time></trkpt><trkpt lat="44.853391136732725" lon="9.542401380058836"><ele>179.66666666666666</ele><time>2026-04-29T12:01:29.001Z</time></trkpt><trkpt lat="44.853250835579075" lon="9.542274230380626"><ele>179.33333333333331</ele><time>2026-04-29T12:01:30.001Z</time></trkpt><trkpt lat="44.85308528739144" lon="9.54214381532169"><ele>179.0</ele><time>2026-04-29T12:01:31.001Z</time></trkpt><trkpt lat="44.85293032722513" lon="9.542005311337629"><ele>179.0</ele><time>2026-04-29T12:01:32.001Z</time></trkpt><trkpt lat="44.852765219330486" lon="9.541890659087846"><ele>179.0</ele><time>2026-04-29T12:01:33.001Z</time></trkpt><trkpt lat="44.85259219936324" lon="9.541771343725275"><ele>179.0</ele><time>2026-04-29T12:01:34.001Z</time></trkpt><trkpt lat="44.8524083608482" lon="9.541647840411374"><ele>183.66666666666666</ele><time>2026-04-29T12:01:35.001Z</time></trkpt><trkpt lat="44.85223529003901" lon="9.541557849661203"><ele>188.33333333333331</ele><time>2026-04-29T12:01:36.001Z</time></trkpt><trkpt lat="44.85205031632801" lon="9.541431392925995"><ele>193.0</ele><time>2026-04-29T12:01:37.001Z</time></trkpt><trkpt lat="44.85186405837519" lon="9.541312341960431"><ele>192.0</ele><time>2026-04-29T12:01:38.001Z</time></trkpt><trkpt lat="44.851697697091176" lon="9.541210229151911"><ele>191.0</ele><time>2026-04-29T12:01:39Z</time></trkpt><trkpt lat="44.851534916094614" lon="9.54110064059582"><ele>190.0</ele><time>2026-04-29T12:01:40Z</time></trkpt><trkpt lat="44.85137331481734" lon="9.541003786450997"><ele>190.0</ele><time>2026-04-29T12:01:41Z</time></trkpt><trkpt lat="44.85121754182048" lon="9.540925658862934"><ele>190.0</ele><time>2026-04-29T12:01:42Z</time></trkpt><trkpt lat="44.85106680001175" lon="9.54086469698914"><ele>190.0</ele><time>2026-04-29T12:01:43Z</time></trkpt><trkpt lat="44.85091853239299" lon="9.540831955167526"><ele>190.5</ele><time>2026-04-29T12:01:44Z</time></trkpt><trkpt lat="44.850778636778884" lon="9.54083355761099"><ele>191.0</ele><time>2026-04-29T12:01:45Z</time></trkpt><trkpt lat="44.85064660920662" lon="9.540834293226714"><ele>191.5</ele><time>2026-04-29T12:01:46Z</time></trkpt><trkpt lat="44.85049914639026" lon="9.54081850110084"><ele>192.0</ele><time>2026-04-29T12:01:47Z</time></trkpt><trkpt lat="44.850347378046074" lon="9.54079881875633"><ele>192.0</ele><time>2026-04-29T12:01:48Z</time></trkpt><trkpt lat="44.850206817288054" lon="9.540782735481173"><ele>192.0</ele><time>2026-04-29T12:01:49Z</time></trkpt><trkpt lat="44.850070957436564" lon="9.540765475819775"><ele>192.0</ele><time>2026-04-29T12:01:50Z</time></trkpt><trkpt lat="44.84993894228933" lon="9.540746992608971"><ele>192.0</ele><time>2026-04-29T12:01:51Z</time></trkpt><trkpt lat="44.849824834927" lon="9.54072831977454"><ele>192.2</ele><time>2026-04-29T12:01:52Z</time></trkpt><trkpt lat="44.84971514209503" lon="9.540722432764865"><ele>192.39999999999998</ele><time>2026-04-29T12:01:53Z</time></trkpt><trkpt lat="44.849600253580775" lon="9.540706090554892"><ele>192.60000000000002</ele><time>2026-04-29T12:01:54Z</time></trkpt><trkpt lat="44.84949102169394" lon="9.54069614417489"><ele>192.8</ele><time>2026-04-29T12:01:55Z</time></trkpt><trkpt lat="44.84938350086062" lon="9.540682420823952"><ele>193.0</ele><time>2026-04-29T12:01:56Z</time></trkpt><trkpt lat="44.84928151001953" lon="9.540669086420406"><ele>193.0</ele><time>2026-04-29T12:01:57Z</time></trkpt><trkpt lat="44.84917954624895" lon="9.540661451983258"><ele>193.0</ele><time>2026-04-29T12:01:58Z</time></trkpt><trkpt lat="44.84906893170643" lon="9.540652434043881"><ele>193.0</ele><time>2026-04-29T12:01:59Z</time></trkpt><trkpt lat="44.84894233648628" lon="9.540635426861522"><ele>193.0</ele><time>2026-04-29T12:02:00Z</time></trkpt><trkpt lat="44.848808721481184" lon="9.5406215092464"><ele>193.0</ele><time>2026-04-29T12:02:01Z</time></trkpt><trkpt lat="44.84866723344736" lon="9.540603004162007"><ele>193.0</ele><time>2026-04-29T12:02:02Z</time></trkpt><trkpt lat="44.848521447271374" lon="9.540582894901828"><ele>193.0</ele><time>2026-04-29T12:02:03Z</time></trkpt><trkpt lat="44.84839329648567" lon="9.540554057524155"><ele>193.0</ele><time>2026-04-29T12:02:04Z</time></trkpt><trkpt lat="44.84827024813697" lon="9.540484676933536"><ele>190.33333333333331</ele><time>2026-04-29T12:02:05Z</time></trkpt><trkpt lat="44.84814685493495" lon="9.540371877619087"><ele>187.66666666666666</ele><time>2026-04-29T12:02:06Z</time></trkpt><trkpt lat="44.84803879820918" lon="9.540227825849799"><ele>185.0</ele><time>2026-04-29T12:02:07Z</time></trkpt><trkpt lat="44.84792381792408" lon="9.540033848754385"><ele>185.0</ele><time>2026-04-29T12:02:08Z</time></trkpt><trkpt lat="44.84778755817097" lon="9.539837786229729"><ele>185.0</ele><time>2026-04-29T12:02:09Z</time></trkpt><trkpt lat="44.847662467796525" lon="9.539654590014031"><ele>185.0</ele><time>2026-04-29T12:02:10Z</time></trkpt><trkpt lat="44.84753864856838" lon="9.539475649098065"><ele>186.33333333333331</ele><time>2026-04-29T12:02:11Z</time></trkpt><trkpt lat="44.84742259205051" lon="9.539300465185622"><ele>187.66666666666666</ele><time>2026-04-29T12:02:12Z</time></trkpt><trkpt lat="44.84731329614544" lon="9.539133394934975"><ele>189.0</ele><time>2026-04-29T12:02:13Z</time></trkpt><trkpt lat="44.84720512053987" lon="9.53896967985134"><ele>189.0</ele><time>2026-04-29T12:02:14Z</time></trkpt><trkpt lat="44.84709136606572" lon="9.53881115663508"><ele>189.0</ele><time>2026-04-29T12:02:15Z</time></trkpt><trkpt lat="44.846968487586345" lon="9.53867036466366"><ele>189.0</ele><time>2026-04-29T12:02:16Z</time></trkpt><trkpt lat="44.846828445308795" lon="9.538550459364249"><ele>188.66666666666666</ele><time>2026-04-29T12:02:17Z</time></trkpt><trkpt lat="44.84667889400926" lon="9.538440442347616"><ele>188.33333333333331</ele><time>2026-04-29T12:02:18Z</time></trkpt><trkpt lat="44.846522629610625" lon="9.538325448605853"><ele>188.0</ele><time>2026-04-29T12:02:19Z</time></trkpt><trkpt lat="44.84633686158283" lon="9.538223214043736"><ele>188.0</ele><time>2026-04-29T12:02:20Z</time></trkpt><trkpt lat="44.8461703251332" lon="9.538139095518117"><ele>188.0</ele><time>2026-04-29T12:02:21Z</time></trkpt><trkpt lat="44.84605054916307" lon="9.538061333981691"><ele>188.0</ele><time>2026-04-29T12:02:22Z</time></trkpt><trkpt lat="44.84594407356436" lon="9.537992437670013"><ele>188.0</ele><time>2026-04-29T12:02:23Z</time></trkpt><trkpt lat="44.845868843120535" lon="9.5378630152004"><ele>189.0</ele><time>2026-04-29T12:02:24Z</time></trkpt><trkpt lat="44.8458004706475" lon="9.537697006572564"><ele>190.0</ele><time>2026-04-29T12:02:25Z</time></trkpt><trkpt lat="44.84572297490653" lon="9.537512879235878"><ele>191.0</ele><time>2026-04-29T12:02:26Z</time></trkpt><trkpt lat="44.84564419513924" lon="9.537340387919356"><ele>192.0</ele><time>2026-04-29T12:02:27Z</time></trkpt><trkpt lat="44.845566031703285" lon="9.53718790834365"><ele>192.0</ele><time>2026-04-29T12:02:28Z</time></trkpt><trkpt lat="44.84548625777829" lon="9.537056482581617"><ele>192.0</ele><time>2026-04-29T12:02:29Z</time></trkpt><trkpt lat="44.845387574427875" lon="9.536943488657363"><ele>192.0</ele><time>2026-04-29T12:02:30Z</time></trkpt><trkpt lat="44.84525939150989" lon="9.53684333736426"><ele>192.0</ele><time>2026-04-29T12:02:31Z</time></trkpt><trkpt lat="44.845115126328906" lon="9.536767342277043"><ele>193.25</ele><time>2026-04-29T12:02:32Z</time></trkpt><trkpt lat="44.84497851234049" lon="9.536711441155417"><ele>194.5</ele><time>2026-04-29T12:02:33Z</time></trkpt><trkpt lat="44.84486370868343" lon="9.536651016400429"><ele>195.75</ele><time>2026-04-29T12:02:34Z</time></trkpt><trkpt lat="44.84477966297573" lon="9.5365487711153"><ele>197.0</ele><time>2026-04-29T12:02:35Z</time></trkpt><trkpt lat="44.84470222890253" lon="9.53641997965919"><ele>197.0</ele><time>2026-04-29T12:02:36Z</time></trkpt><trkpt lat="44.844628286312954" lon="9.536260195621711"><ele>197.0</ele><time>2026-04-29T12:02:37Z</time></trkpt><trkpt lat="44.84455344408071" lon="9.53612618907933"><ele>197.0</ele><time>2026-04-29T12:02:38Z</time></trkpt><trkpt lat="44.844453782697954" lon="9.536021074258555"><ele>197.0</ele><time>2026-04-29T12:02:39Z</time></trkpt><trkpt lat="44.844337225887244" lon="9.535947776359038"><ele>197.25</ele><time>2026-04-29T12:02:40Z</time></trkpt><trkpt lat="44.844213816048914" lon="9.535914078962577"><ele>197.5</ele><time>2026-04-29T12:02:41Z</time></trkpt><trkpt lat="44.84407172692849" lon="9.535932027484877"><ele>197.75</ele><time>2026-04-29T12:02:42Z</time></trkpt><trkpt lat="44.843929538600634" lon="9.535964059648345"><ele>198.0</ele><time>2026-04-29T12:02:43Z</time></trkpt><trkpt lat="44.84380049460132" lon="9.535962698097256"><ele>198.0</ele><time>2026-04-29T12:02:44Z</time></trkpt><trkpt lat="44.84368493730356" lon="9.535925755742705"><ele>198.0</ele><time>2026-04-29T12:02:45Z</time></trkpt><trkpt lat="44.84359933388102" lon="9.535871086559668"><ele>198.0</ele><time>2026-04-29T12:02:46Z</time></trkpt><trkpt lat="44.843510676181594" lon="9.53578030529164"><ele>198.0</ele><time>2026-04-29T12:02:47Z</time></trkpt><trkpt lat="44.84343448023928" lon="9.535668875033256"><ele>198.0</ele><time>2026-04-29T12:02:48Z</time></trkpt><trkpt lat="44.843381488679725" lon="9.535549148356623"><ele>200.0</ele><time>2026-04-29T12:02:49Z</time></trkpt><trkpt lat="44.84335547617265" lon="9.53539718557639"><ele>202.0</ele><time>2026-04-29T12:02:50Z</time></trkpt><trkpt lat="44.843346628656846" lon="9.535195524167388"><ele>204.0</ele><time>2026-04-29T12:02:51Z</time></trkpt><trkpt lat="44.84332775869843" lon="9.53496583958126"><ele>206.0</ele><time>2026-04-29T12:02:52Z</time></trkpt><trkpt lat="44.84330654462526" lon="9.534696682506505"><ele>204.33333333333334</ele><time>2026-04-29T12:02:53Z</time></trkpt><trkpt lat="44.84327461746128" lon="9.534419345395703"><ele>202.66666666666669</ele><time>2026-04-29T12:02:54Z</time></trkpt><trkpt lat="44.84324693923678" lon="9.534157086407276"><ele>201.0</ele><time>2026-04-29T12:02:55Z</time></trkpt><trkpt lat="44.84321789893419" lon="9.533901272982297"><ele>199.66666666666669</ele><time>2026-04-29T12:02:56Z</time></trkpt><trkpt lat="44.84318517665118" lon="9.53366419520488"><ele>198.33333333333334</ele><time>2026-04-29T12:02:57Z</time></trkpt><trkpt lat="44.8431360735002" lon="9.53341490080961"><ele>197.0</ele><time>2026-04-29T12:02:58Z</time></trkpt><trkpt lat="44.84307801468926" lon="9.533152163913158"><ele>194.0</ele><time>2026-04-29T12:02:59Z</time></trkpt><trkpt lat="44.843021017298916" lon="9.532886969829471"><ele>191.0</ele><time>2026-04-29T12:03:00Z</time></trkpt><trkpt lat="44.8429712857343" lon="9.532641821989419"><ele>188.0</ele><time>2026-04-29T12:03:01.001Z</time></trkpt><trkpt lat="44.8429226506048" lon="9.532416949319117"><ele>188.0</ele><time>2026-04-29T12:03:02.001Z</time></trkpt><trkpt lat="44.84288291049516" lon="9.532214567544194"><ele>188.0</ele><time>2026-04-29T12:03:03.001Z</time></trkpt><trkpt lat="44.842837384661266" lon="9.532048719709213"><ele>188.0</ele><time>2026-04-29T12:03:04.001Z</time></trkpt><trkpt lat="44.842777837250104" lon="9.5319008568034"><ele>188.0</ele><time>2026-04-29T12:03:05.001Z</time></trkpt><trkpt lat="44.842680916441914" lon="9.531776183279577"><ele>194.66666666666666</ele><time>2026-04-29T12:03:06.001Z</time></trkpt><trkpt lat="44.84250739414975" lon="9.531649310392943"><ele>201.33333333333331</ele><time>2026-04-29T12:03:07.001Z</time></trkpt><trkpt lat="44.842333409819915" lon="9.531540771016253"><ele>208.0</ele><time>2026-04-29T12:03:08.001Z</time></trkpt><trkpt lat="44.8421764730534" lon="9.531439151327367"><ele>208.0</ele><time>2026-04-29T12:03:09.001Z</time></trkpt><trkpt lat="44.84203282813472" lon="9.531336782845681"><ele>208.0</ele><time>2026-04-29T12:03:10.001Z</time></trkpt><trkpt lat="44.841915936140275" lon="9.531221452104875"><ele>208.0</ele><time>2026-04-29T12:03:11.001Z</time></trkpt><trkpt lat="44.84181476293058" lon="9.531069416225497"><ele>209.0</ele><time>2026-04-29T12:03:12.001Z</time></trkpt><trkpt lat="44.84171809959762" lon="9.530889945159668"><ele>210.0</ele><time>2026-04-29T12:03:13.001Z</time></trkpt><trkpt lat="44.841630027156036" lon="9.530678627344626"><ele>211.0</ele><time>2026-04-29T12:03:14.001Z</time></trkpt><trkpt lat="44.84154176612786" lon="9.530438003151982"><ele>208.0</ele><time>2026-04-29T12:03:15.001Z</time></trkpt><trkpt lat="44.8414548166578" lon="9.530202666129922"><ele>205.0</ele><time>2026-04-29T12:03:16.001Z</time></trkpt><trkpt lat="44.8413656383743" lon="9.529974262577221"><ele>202.0</ele><time>2026-04-29T12:03:17.001Z</time></trkpt><trkpt lat="44.84126214573063" lon="9.529780224094727"><ele>202.0</ele><time>2026-04-29T12:03:18.001Z</time></trkpt><trkpt lat="44.841159935879226" lon="9.529575714244162"><ele>202.0</ele><time>2026-04-29T12:03:19.001Z</time></trkpt><trkpt lat="44.84103104181751" lon="9.529373743501118"><ele>202.0</ele><time>2026-04-29T12:03:20.001Z</time></trkpt><trkpt lat="44.840900476919124" lon="9.529147476131671"><ele>202.33333333333331</ele><time>2026-04-29T12:03:21.001Z</time></trkpt><trkpt lat="44.840769019986986" lon="9.528940919000663"><ele>202.66666666666669</ele><time>2026-04-29T12:03:22.001Z</time></trkpt><trkpt lat="44.840637341534865" lon="9.528732518495138"><ele>203.0</ele><time>2026-04-29T12:03:23.001Z</time></trkpt><trkpt lat="44.84049275914285" lon="9.528522670707245"><ele>203.0</ele><time>2026-04-29T12:03:24.001Z</time></trkpt><trkpt lat="44.84038059894385" lon="9.528276850746558"><ele>203.0</ele><time>2026-04-29T12:03:25.001Z</time></trkpt><trkpt lat="44.84027138946283" lon="9.52800951298516"><ele>203.0</ele><time>2026-04-29T12:03:26.001Z</time></trkpt><trkpt lat="44.840155811237494" lon="9.527729093367775"><ele>209.0</ele><time>2026-04-29T12:03:27.001Z</time></trkpt><trkpt lat="44.84004803868351" lon="9.527441195692582"><ele>215.0</ele><time>2026-04-29T12:03:28.001Z</time></trkpt><trkpt lat="44.83994580764044" lon="9.52715571665874"><ele>212.0</ele><time>2026-04-29T12:03:29.001Z</time></trkpt><trkpt lat="44.83984595516131" lon="9.526877243061378"><ele>209.0</ele><time>2026-04-29T12:03:30.001Z</time></trkpt><trkpt lat="44.839749359924696" lon="9.52660719336108"><ele>206.0</ele><time>2026-04-29T12:03:31.001Z</time></trkpt><trkpt lat="44.83965692182428" lon="9.526352535522626"><ele>203.33333333333334</ele><time>2026-04-29T12:03:32.001Z</time></trkpt><trkpt lat="44.83956464426888" lon="9.526109889332647"><ele>200.66666666666669</ele><time>2026-04-29T12:03:33.001Z</time></trkpt><trkpt lat="44.83946925490311" lon="9.525878592695946"><ele>198.0</ele><time>2026-04-29T12:03:34.001Z</time></trkpt><trkpt lat="44.839373900610845" lon="9.525653079981344"><ele>203.33333333333331</ele><time>2026-04-29T12:03:35.001Z</time></trkpt><trkpt lat="44.83927525563217" lon="9.525434859905767"><ele>208.66666666666666</ele><time>2026-04-29T12:03:36.001Z</time></trkpt><trkpt lat="44.83917348982374" lon="9.525231732827946"><ele>214.0</ele><time>2026-04-29T12:03:37.001Z</time></trkpt><trkpt lat="44.83908779669256" lon="9.525024615469773"><ele>214.0</ele><time>2026-04-29T12:03:38.001Z</time></trkpt><trkpt lat="44.839025362340585" lon="9.524790282352418"><ele>214.0</ele><time>2026-04-29T12:03:39.001Z</time></trkpt><trkpt lat="44.83899373079393" lon="9.524563955432612"><ele>214.0</ele><time>2026-04-29T12:03:40.001Z</time></trkpt><trkpt lat="44.83896785910464" lon="9.524352312725346"><ele>212.5</ele><time>2026-04-29T12:03:41.001Z</time></trkpt><trkpt lat="44.838930796489464" lon="9.524172301315645"><ele>211.0</ele><time>2026-04-29T12:03:42.001Z</time></trkpt><trkpt lat="44.83886691658968" lon="9.523970109772435"><ele>209.5</ele><time>2026-04-29T12:03:43.001Z</time></trkpt><trkpt lat="44.83879385500394" lon="9.523784345621936"><ele>208.0</ele><time>2026-04-29T12:03:44.001Z</time></trkpt><trkpt lat="44.83870545518999" lon="9.523592958295467"><ele>204.0</ele><time>2026-04-29T12:03:45Z</time></trkpt><trkpt lat="44.83860075694744" lon="9.523399414330425"><ele>200.0</ele><time>2026-04-29T12:03:46Z</time></trkpt><trkpt lat="44.838496502422814" lon="9.52320825444753"><ele>196.0</ele><time>2026-04-29T12:03:47Z</time></trkpt><trkpt lat="44.83835047854954" lon="9.523030925045596"><ele>198.33333333333331</ele><time>2026-04-29T12:03:48Z</time></trkpt><trkpt lat="44.83819125383779" lon="9.52285860995844"><ele>200.66666666666669</ele><time>2026-04-29T12:03:49Z</time></trkpt><trkpt lat="44.83803842112457" lon="9.52269806997979"><ele>203.0</ele><time>2026-04-29T12:03:50Z</time></trkpt><trkpt lat="44.83786962864581" lon="9.522521586701613"><ele>203.0</ele><time>2026-04-29T12:03:51Z</time></trkpt><trkpt lat="44.8376968877614" lon="9.52234220552201"><ele>203.0</ele><time>2026-04-29T12:03:52Z</time></trkpt><trkpt lat="44.837532637113846" lon="9.522171640917538"><ele>203.0</ele><time>2026-04-29T12:03:53Z</time></trkpt><trkpt lat="44.83737945575103" lon="9.522012571076647"><ele>203.0</ele><time>2026-04-29T12:03:54Z</time></trkpt><trkpt lat="44.83723583064011" lon="9.521863424849037"><ele>203.0</ele><time>2026-04-29T12:03:55Z</time></trkpt><trkpt lat="44.83709785712193" lon="9.521725610889973"><ele>203.0</ele><time>2026-04-29T12:03:56Z</time></trkpt><trkpt lat="44.8369792209745" lon="9.521584005218347"><ele>203.0</ele><time>2026-04-29T12:03:57Z</time></trkpt><trkpt lat="44.83685860563309" lon="9.521411101263947"><ele>203.0</ele><time>2026-04-29T12:03:58Z</time></trkpt><trkpt lat="44.836728898347744" lon="9.521222923163664"><ele>203.0</ele><time>2026-04-29T12:03:59Z</time></trkpt><trkpt lat="44.83660149330856" lon="9.521037418166022"><ele>204.66666666666669</ele><time>2026-04-29T12:04:00Z</time></trkpt><trkpt lat="44.83648550818716" lon="9.520866474633268"><ele>206.33333333333331</ele><time>2026-04-29T12:04:01Z</time></trkpt><trkpt lat="44.83637731630537" lon="9.520701214181571"><ele>208.0</ele><time>2026-04-29T12:04:02Z</time></trkpt><trkpt lat="44.83626548840426" lon="9.520547589582183"><ele>208.0</ele><time>2026-04-29T12:04:03Z</time></trkpt><trkpt lat="44.83616602059987" lon="9.520432603828231"><ele>208.0</ele><time>2026-04-29T12:04:04Z</time></trkpt><trkpt lat="44.83605643487475" lon="9.520331885943198"><ele>208.0</ele><time>2026-04-29T12:04:05Z</time></trkpt><trkpt lat="44.83587999651757" lon="9.52021720730568"><ele>206.66666666666666</ele><time>2026-04-29T12:04:06Z</time></trkpt><trkpt lat="44.83569681196553" lon="9.5201129884814"><ele>205.33333333333331</ele><time>2026-04-29T12:04:07Z</time></trkpt><trkpt lat="44.83552047612706" lon="9.520017681811792"><ele>204.0</ele><time>2026-04-29T12:04:08Z</time></trkpt><trkpt lat="44.83537266167888" lon="9.519943020209555"><ele>204.0</ele><time>2026-04-29T12:04:09Z</time></trkpt><trkpt lat="44.835238609547886" lon="9.519892144066322"><ele>204.0</ele><time>2026-04-29T12:04:10Z</time></trkpt><trkpt lat="44.83509071010847" lon="9.519891625866249"><ele>204.0</ele><time>2026-04-29T12:04:11Z</time></trkpt><trkpt lat="44.83494441748213" lon="9.519946803593355"><ele>204.0</ele><time>2026-04-29T12:04:12Z</time></trkpt><trkpt lat="44.834821628729806" lon="9.520055963492215"><ele>206.0</ele><time>2026-04-29T12:04:13Z</time></trkpt><trkpt lat="44.834700648650305" lon="9.520179408654235"><ele>208.0</ele><time>2026-04-29T12:04:14Z</time></trkpt><trkpt lat="44.83459732819948" lon="9.520296708413136"><ele>210.0</ele><time>2026-04-29T12:04:15Z</time></trkpt><trkpt lat="44.834513402182644" lon="9.520360670826719"><ele>212.0</ele><time>2026-04-29T12:04:16Z</time></trkpt><trkpt lat="44.834431751670955" lon="9.520343858086099"><ele>212.0</ele><time>2026-04-29T12:04:17Z</time></trkpt><trkpt lat="44.83434452944448" lon="9.520327086518332"><ele>212.0</ele><time>2026-04-29T12:04:18Z</time></trkpt><trkpt lat="44.834245296633036" lon="9.520210678285505"><ele>212.0</ele><time>2026-04-29T12:04:19Z</time></trkpt><trkpt lat="44.83411870104107" lon="9.520085609113499"><ele>212.0</ele><time>2026-04-29T12:04:20Z</time></trkpt><trkpt lat="44.833992011463174" lon="9.519977819185513"><ele>210.75</ele><time>2026-04-29T12:04:21Z</time></trkpt><trkpt lat="44.83387882189702" lon="9.519876904275327"><ele>209.5</ele><time>2026-04-29T12:04:22Z</time></trkpt><trkpt lat="44.83375632664831" lon="9.519793530476134"><ele>208.25</ele><time>2026-04-29T12:04:23Z</time></trkpt><trkpt lat="44.83362683786462" lon="9.519718978392312"><ele>207.0</ele><time>2026-04-29T12:04:24Z</time></trkpt><trkpt lat="44.83350754601926" lon="9.519654176136692"><ele>208.25</ele><time>2026-04-29T12:04:25Z</time></trkpt><trkpt lat="44.83339424510288" lon="9.519606584459037"><ele>209.5</ele><time>2026-04-29T12:04:26Z</time></trkpt><trkpt lat="44.83327309712292" lon="9.519590048806494"><ele>210.75</ele><time>2026-04-29T12:04:27Z</time></trkpt><trkpt lat="44.83313848933778" lon="9.519609330363465"><ele>212.0</ele><time>2026-04-29T12:04:28Z</time></trkpt><trkpt lat="44.83299550925359" lon="9.519655613866169"><ele>212.0</ele><time>2026-04-29T12:04:29Z</time></trkpt><trkpt lat="44.8328639304464" lon="9.519711951991214"><ele>212.0</ele><time>2026-04-29T12:04:30Z</time></trkpt><trkpt lat="44.83274794289615" lon="9.519768780683671"><ele>212.0</ele><time>2026-04-29T12:04:31Z</time></trkpt><trkpt lat="44.83262977266059" lon="9.519801945392834"><ele>212.0</ele><time>2026-04-29T12:04:32Z</time></trkpt><trkpt lat="44.832531953614556" lon="9.5198717134694"><ele>211.39999999999998</ele><time>2026-04-29T12:04:33Z</time></trkpt><trkpt lat="44.832428690066116" lon="9.51991539195653"><ele>210.79999999999998</ele><time>2026-04-29T12:04:34Z</time></trkpt><trkpt lat="44.83232398280485" lon="9.51996464239578"><ele>210.2</ele><time>2026-04-29T12:04:35Z</time></trkpt><trkpt lat="44.83221729784414" lon="9.520011023413995"><ele>209.6</ele><time>2026-04-29T12:04:36Z</time></trkpt><trkpt lat="44.832104908620494" lon="9.520061491135158"><ele>209.0</ele><time>2026-04-29T12:04:37Z</time></trkpt><trkpt lat="44.83198895827295" lon="9.520098772251165"><ele>209.0</ele><time>2026-04-29T12:04:38Z</time></trkpt><trkpt lat="44.831861539484485" lon="9.520124785735083"><ele>209.0</ele><time>2026-04-29T12:04:39Z</time></trkpt><trkpt lat="44.83173938456827" lon="9.520124936406816"><ele>209.0</ele><time>2026-04-29T12:04:40Z</time></trkpt><trkpt lat="44.831627577941816" lon="9.520091957236103"><ele>209.0</ele><time>2026-04-29T12:04:41Z</time></trkpt><trkpt lat="44.831525296148" lon="9.520020772933737"><ele>207.66666666666669</ele><time>2026-04-29T12:04:42Z</time></trkpt><trkpt lat="44.831411552103" lon="9.519904910699768"><ele>206.33333333333331</ele><time>2026-04-29T12:04:43Z</time></trkpt><trkpt lat="44.831288624216114" lon="9.519757355809212"><ele>205.0</ele><time>2026-04-29T12:04:44Z</time></trkpt><trkpt lat="44.83118353595352" lon="9.519571266515525"><ele>204.0</ele><time>2026-04-29T12:04:45Z</time></trkpt><trkpt lat="44.83107003769184" lon="9.519402463080569"><ele>203.0</ele><time>2026-04-29T12:04:46Z</time></trkpt><trkpt lat="44.830960464520004" lon="9.519240140919045"><ele>202.0</ele><time>2026-04-29T12:04:47Z</time></trkpt><trkpt lat="44.8308528256223" lon="9.519080725373565"><ele>202.0</ele><time>2026-04-29T12:04:48Z</time></trkpt><trkpt lat="44.830740432747376" lon="9.518946519445535"><ele>202.0</ele><time>2026-04-29T12:04:49Z</time></trkpt><trkpt lat="44.83066056505448" lon="9.518787928416735"><ele>202.0</ele><time>2026-04-29T12:04:50Z</time></trkpt><trkpt lat="44.83057153947576" lon="9.518659180745443"><ele>202.0</ele><time>2026-04-29T12:04:51Z</time></trkpt><trkpt lat="44.83052532123314" lon="9.518511011110158"><ele>201.5</ele><time>2026-04-29T12:04:52Z</time></trkpt><trkpt lat="44.83051168853654" lon="9.518368991513404"><ele>201.0</ele><time>2026-04-29T12:04:53Z</time></trkpt><trkpt lat="44.83053594663999" lon="9.518218024169249"><ele>200.5</ele><time>2026-04-29T12:04:54Z</time></trkpt><trkpt lat="44.830578383648515" lon="9.518039626545201"><ele>200.0</ele><time>2026-04-29T12:04:55Z</time></trkpt><trkpt lat="44.83065219887507" lon="9.517855759944952"><ele>201.5</ele><time>2026-04-29T12:04:56Z</time></trkpt><trkpt lat="44.830719957451585" lon="9.517693165659656"><ele>203.0</ele><time>2026-04-29T12:04:57Z</time></trkpt><trkpt lat="44.830781084307056" lon="9.517536165239"><ele>204.5</ele><time>2026-04-29T12:04:58Z</time></trkpt><trkpt lat="44.83083502068104" lon="9.517384471796126"><ele>206.0</ele><time>2026-04-29T12:04:59Z</time></trkpt><trkpt lat="44.830878342691484" lon="9.517240955685283"><ele>206.0</ele><time>2026-04-29T12:05:00Z</time></trkpt><trkpt lat="44.830883180103605" lon="9.517091084163155"><ele>206.0</ele><time>2026-04-29T12:05:01Z</time></trkpt><trkpt lat="44.83086595046154" lon="9.516937026819242"><ele>206.0</ele><time>2026-04-29T12:05:02Z</time></trkpt><trkpt lat="44.83084391285899" lon="9.516778255391158"><ele>206.0</ele><time>2026-04-29T12:05:03Z</time></trkpt><trkpt lat="44.83081767754073" lon="9.516616728310137"><ele>206.0</ele><time>2026-04-29T12:05:04Z</time></trkpt><trkpt lat="44.830787027057475" lon="9.51646004224504"><ele>205.8</ele><time>2026-04-29T12:05:05Z</time></trkpt><trkpt lat="44.83074352281519" lon="9.51632090482051"><ele>205.60000000000002</ele><time>2026-04-29T12:05:06Z</time></trkpt><trkpt lat="44.83067894058784" lon="9.516220081303173"><ele>205.4</ele><time>2026-04-29T12:05:07Z</time></trkpt><trkpt lat="44.83061118774759" lon="9.516140954173398"><ele>205.2</ele><time>2026-04-29T12:05:08Z</time></trkpt><trkpt lat="44.830554564534104" lon="9.516049261775507"><ele>205.0</ele><time>2026-04-29T12:05:09Z</time></trkpt><trkpt lat="44.830485569408744" lon="9.51594223700218"><ele>202.33333333333331</ele><time>2026-04-29T12:05:10Z</time></trkpt><trkpt lat="44.83037970137214" lon="9.515815495285768"><ele>199.66666666666669</ele><time>2026-04-29T12:05:11Z</time></trkpt><trkpt lat="44.830269499380925" lon="9.515658777693433"><ele>197.0</ele><time>2026-04-29T12:05:12Z</time></trkpt><trkpt lat="44.83015533117458" lon="9.515501706133644"><ele>196.0</ele><time>2026-04-29T12:05:13Z</time></trkpt><trkpt lat="44.83000415396811" lon="9.515345883448857"><ele>195.0</ele><time>2026-04-29T12:05:14Z</time></trkpt><trkpt lat="44.82980506065323" lon="9.51516855810173"><ele>194.0</ele><time>2026-04-29T12:05:15Z</time></trkpt><trkpt lat="44.8295989137368" lon="9.51497632157749"><ele>194.0</ele><time>2026-04-29T12:05:16Z</time></trkpt><trkpt lat="44.82939284667058" lon="9.514788064203701"><ele>194.0</ele><time>2026-04-29T12:05:17Z</time></trkpt><trkpt lat="44.82924841432959" lon="9.514633103785"><ele>194.0</ele><time>2026-04-29T12:05:18Z</time></trkpt><trkpt lat="44.82906845194049" lon="9.514493848376897"><ele>194.33333333333334</ele><time>2026-04-29T12:05:19Z</time></trkpt><trkpt lat="44.82891557471763" lon="9.514311842546688"><ele>194.66666666666669</ele><time>2026-04-29T12:05:20Z</time></trkpt><trkpt lat="44.828757985780776" lon="9.514133358331375"><ele>195.0</ele><time>2026-04-29T12:05:21Z</time></trkpt><trkpt lat="44.828613200961414" lon="9.513949649835965"><ele>195.0</ele><time>2026-04-29T12:05:22Z</time></trkpt><trkpt lat="44.82848522108854" lon="9.513752886242608"><ele>195.0</ele><time>2026-04-29T12:05:23Z</time></trkpt><trkpt lat="44.828366088537926" lon="9.513538827942368"><ele>195.0</ele><time>2026-04-29T12:05:24Z</time></trkpt><trkpt lat="44.82826209810147" lon="9.513308034374079"><ele>193.66666666666666</ele><time>2026-04-29T12:05:25.001Z</time></trkpt><trkpt lat="44.82816460664842" lon="9.513066127949816"><ele>192.33333333333331</ele><time>2026-04-29T12:05:26.001Z</time></trkpt><trkpt lat="44.8280739745065" lon="9.512816104157464"><ele>191.0</ele><time>2026-04-29T12:05:27.001Z</time></trkpt><trkpt lat="44.827971754314696" lon="9.512575278575197"><ele>191.0</ele><time>2026-04-29T12:05:28.001Z</time></trkpt><trkpt lat="44.82788624588979" lon="9.51232521926785"><ele>191.0</ele><time>2026-04-29T12:05:29.001Z</time></trkpt><trkpt lat="44.82779297231844" lon="9.512078059955702"><ele>191.0</ele><time>2026-04-29T12:05:30.001Z</time></trkpt><trkpt lat="44.82768406797552" lon="9.511829825541271"><ele>190.33333333333331</ele><time>2026-04-29T12:05:31.001Z</time></trkpt><trkpt lat="44.82755212960782" lon="9.511590433216758"><ele>189.66666666666666</ele><time>2026-04-29T12:05:32.001Z</time></trkpt><trkpt lat="44.8273973817855" lon="9.511342786111102"><ele>189.0</ele><time>2026-04-29T12:05:33.001Z</time></trkpt><trkpt lat="44.82722290280681" lon="9.51107578821843"><ele>189.0</ele><time>2026-04-29T12:05:34.001Z</time></trkpt><trkpt lat="44.827053178954536" lon="9.51078095685665"><ele>189.0</ele><time>2026-04-29T12:05:35.001Z</time></trkpt><trkpt lat="44.82686794041581" lon="9.510485974714179"><ele>188.5</ele><time>2026-04-29T12:05:36.001Z</time></trkpt><trkpt lat="44.826677927356634" lon="9.510157263532417"><ele>188.0</ele><time>2026-04-29T12:05:37.001Z</time></trkpt><trkpt lat="44.82649169888532" lon="9.509806454716283"><ele>187.5</ele><time>2026-04-29T12:05:38.001Z</time></trkpt><trkpt lat="44.826313011899224" lon="9.509448724266983"><ele>187.0</ele><time>2026-04-29T12:05:39.001Z</time></trkpt><trkpt lat="44.82613781924529" lon="9.509088687187287"><ele>190.0</ele><time>2026-04-29T12:05:40.001Z</time></trkpt><trkpt lat="44.82595588429106" lon="9.508718152435668"><ele>193.0</ele><time>2026-04-29T12:05:41.001Z</time></trkpt><trkpt lat="44.82576319548319" lon="9.50836499918363"><ele>193.0</ele><time>2026-04-29T12:05:42.001Z</time></trkpt><trkpt lat="44.82559568791934" lon="9.508022916589958"><ele>193.0</ele><time>2026-04-29T12:05:43.001Z</time></trkpt><trkpt lat="44.82544974819704" lon="9.507683160595274"><ele>190.5</ele><time>2026-04-29T12:05:44.001Z</time></trkpt><trkpt lat="44.825289452064354" lon="9.50738309056333"><ele>188.0</ele><time>2026-04-29T12:05:45.001Z</time></trkpt><trkpt lat="44.82515517691951" lon="9.507078175999807"><ele>188.5</ele><time>2026-04-29T12:05:46.001Z</time></trkpt><trkpt lat="44.82502618398406" lon="9.506782437253271"><ele>189.0</ele><time>2026-04-29T12:05:47.001Z</time></trkpt><trkpt lat="44.82490290414629" lon="9.506500971830253"><ele>188.5</ele><time>2026-04-29T12:05:48.001Z</time></trkpt><trkpt lat="44.824778865091275" lon="9.506226061324236"><ele>188.0</ele><time>2026-04-29T12:05:49.001Z</time></trkpt><trkpt lat="44.82465112978947" lon="9.505951511174908"><ele>188.0</ele><time>2026-04-29T12:05:50.001Z</time></trkpt><trkpt lat="44.82452514065447" lon="9.505680989933609"><ele>188.0</ele><time>2026-04-29T12:05:51Z</time></trkpt><trkpt lat="44.82439920429394" lon="9.505407935770409"><ele>188.33333333333331</ele><time>2026-04-29T12:05:52Z</time></trkpt><trkpt lat="44.824279323747646" lon="9.505145556909394"><ele>188.66666666666666</ele><time>2026-04-29T12:05:53Z</time></trkpt><trkpt lat="44.824161760721225" lon="9.504897028634138"><ele>189.0</ele><time>2026-04-29T12:05:54Z</time></trkpt><trkpt lat="44.82403859319828" lon="9.504658434543153"><ele>188.66666666666666</ele><time>2026-04-29T12:05:55Z</time></trkpt><trkpt lat="44.8239028833988" lon="9.504414590148837"><ele>188.33333333333331</ele><time>2026-04-29T12:05:56Z</time></trkpt><trkpt lat="44.82377213980448" lon="9.5041960163407"><ele>188.0</ele><time>2026-04-29T12:05:57Z</time></trkpt><trkpt lat="44.823642375193934" lon="9.504004418615352"><ele>188.0</ele><time>2026-04-29T12:05:58Z</time></trkpt><trkpt lat="44.823520934927124" lon="9.503818566773337"><ele>188.0</ele><time>2026-04-29T12:05:59Z</time></trkpt><trkpt lat="44.82339696305331" lon="9.50365027252044"><ele>188.0</ele><time>2026-04-29T12:06:00Z</time></trkpt><trkpt lat="44.82328435695969" lon="9.503497004844123"><ele>188.33333333333331</ele><time>2026-04-29T12:06:01Z</time></trkpt><trkpt lat="44.82315966276317" lon="9.503341773921525"><ele>188.66666666666666</ele><time>2026-04-29T12:06:02Z</time></trkpt><trkpt lat="44.82302459584836" lon="9.503179988955637"><ele>189.0</ele><time>2026-04-29T12:06:03Z</time></trkpt><trkpt lat="44.82288696109041" lon="9.503013041376626"><ele>188.66666666666666</ele><time>2026-04-29T12:06:04Z</time></trkpt><trkpt lat="44.82274679364644" lon="9.502849434470885"><ele>188.33333333333331</ele><time>2026-04-29T12:06:05Z</time></trkpt><trkpt lat="44.82258228971377" lon="9.502666335548975"><ele>188.0</ele><time>2026-04-29T12:06:06Z</time></trkpt><trkpt lat="44.82241340570553" lon="9.502472194951517"><ele>187.66666666666666</ele><time>2026-04-29T12:06:07Z</time></trkpt><trkpt lat="44.82224080207621" lon="9.502293629220567"><ele>187.33333333333334</ele><time>2026-04-29T12:06:08Z</time></trkpt><trkpt lat="44.8220829801067" lon="9.502126888867913"><ele>187.0</ele><time>2026-04-29T12:06:09Z</time></trkpt><trkpt lat="44.82193520426308" lon="9.501963053363838"><ele>188.66666666666669</ele><time>2026-04-29T12:06:10Z</time></trkpt><trkpt lat="44.82179216367493" lon="9.501792710589285"><ele>190.33333333333334</ele><time>2026-04-29T12:06:11Z</time></trkpt><trkpt lat="44.82164892140374" lon="9.501592732968373"><ele>192.0</ele><time>2026-04-29T12:06:12Z</time></trkpt><trkpt lat="44.82150926595735" lon="9.501369083638908"><ele>190.5</ele><time>2026-04-29T12:06:13Z</time></trkpt><trkpt lat="44.821370474826885" lon="9.5011184059898"><ele>189.0</ele><time>2026-04-29T12:06:14Z</time></trkpt><trkpt lat="44.821236255064484" lon="9.500845493773518"><ele>189.0</ele><time>2026-04-29T12:06:15Z</time></trkpt><trkpt lat="44.82111470485989" lon="9.500557696289212"><ele>189.0</ele><time>2026-04-29T12:06:16Z</time></trkpt><trkpt lat="44.820999946714004" lon="9.500256087281953"><ele>191.0</ele><time>2026-04-29T12:06:17Z</time></trkpt><trkpt lat="44.82090303068639" lon="9.499945188099026"><ele>193.0</ele><time>2026-04-29T12:06:18Z</time></trkpt><trkpt lat="44.82081310286668" lon="9.499620144147503"><ele>193.0</ele><time>2026-04-29T12:06:19Z</time></trkpt><trkpt lat="44.82072974355568" lon="9.49927900624744"><ele>193.0</ele><time>2026-04-29T12:06:20Z</time></trkpt><trkpt lat="44.82064181261484" lon="9.498940434610175"><ele>192.5</ele><time>2026-04-29T12:06:21Z</time></trkpt><trkpt lat="44.820555907295116" lon="9.498606709859107"><ele>192.0</ele><time>2026-04-29T12:06:22Z</time></trkpt><trkpt lat="44.82047151425944" lon="9.498270873974477"><ele>192.0</ele><time>2026-04-29T12:06:23Z</time></trkpt><trkpt lat="44.820387492931104" lon="9.497955613925631"><ele>192.0</ele><time>2026-04-29T12:06:24Z</time></trkpt><trkpt lat="44.82029154610198" lon="9.497649095799325"><ele>191.5</ele><time>2026-04-29T12:06:25Z</time></trkpt><trkpt lat="44.82017721703782" lon="9.497323147485139"><ele>191.0</ele><time>2026-04-29T12:06:26Z</time></trkpt><trkpt lat="44.820083985934886" lon="9.497044613120051"><ele>194.5</ele><time>2026-04-29T12:06:27Z</time></trkpt><trkpt lat="44.81998602384667" lon="9.49675658531034"><ele>198.0</ele><time>2026-04-29T12:06:28Z</time></trkpt><trkpt lat="44.81988505515875" lon="9.49645382406668"><ele>195.5</ele><time>2026-04-29T12:06:29Z</time></trkpt><trkpt lat="44.81979298684833" lon="9.496146783503715"><ele>193.0</ele><time>2026-04-29T12:06:30Z</time></trkpt><trkpt lat="44.819702389764934" lon="9.495839492940826"><ele>193.0</ele><time>2026-04-29T12:06:31Z</time></trkpt><trkpt lat="44.81961182112525" lon="9.495539414022062"><ele>193.0</ele><time>2026-04-29T12:06:32Z</time></trkpt><trkpt lat="44.819523789947496" lon="9.495236365373495"><ele>192.0</ele><time>2026-04-29T12:06:33Z</time></trkpt><trkpt lat="44.81943915868033" lon="9.494940512289165"><ele>191.0</ele><time>2026-04-29T12:06:34Z</time></trkpt><trkpt lat="44.81936239101119" lon="9.494661852870513"><ele>190.0</ele><time>2026-04-29T12:06:35Z</time></trkpt><trkpt lat="44.81928762493518" lon="9.494392514285135"><ele>191.33333333333334</ele><time>2026-04-29T12:06:36Z</time></trkpt><trkpt lat="44.819221300481786" lon="9.494128356739685"><ele>192.66666666666669</ele><time>2026-04-29T12:06:37Z</time></trkpt><trkpt lat="44.819169183458236" lon="9.493877748894723"><ele>194.0</ele><time>2026-04-29T12:06:38Z</time></trkpt><trkpt lat="44.81912125765831" lon="9.493634002581526"><ele>194.0</ele><time>2026-04-29T12:06:39Z</time></trkpt><trkpt lat="44.819075857902355" lon="9.493377098256929"><ele>194.0</ele><time>2026-04-29T12:06:40Z</time></trkpt><trkpt lat="44.819035534699104" lon="9.493122451915207"><ele>194.0</ele><time>2026-04-29T12:06:41Z</time></trkpt><trkpt lat="44.81900359638427" lon="9.492862581367051"><ele>194.0</ele><time>2026-04-29T12:06:42Z</time></trkpt><trkpt lat="44.81897644445124" lon="9.492606042001519"><ele>194.0</ele><time>2026-04-29T12:06:43Z</time></trkpt><trkpt lat="44.81895704875868" lon="9.492344742945308"><ele>194.0</ele><time>2026-04-29T12:06:44Z</time></trkpt><trkpt lat="44.81894142275398" lon="9.492082637382303"><ele>194.0</ele><time>2026-04-29T12:06:45Z</time></trkpt><trkpt lat="44.81892718688068" lon="9.491806389384738"><ele>194.0</ele><time>2026-04-29T12:06:46Z</time></trkpt><trkpt lat="44.81892577361747" lon="9.491512247825764"><ele>194.0</ele><time>2026-04-29T12:06:47Z</time></trkpt><trkpt lat="44.81892116068815" lon="9.491210953983332"><ele>194.33333333333334</ele><time>2026-04-29T12:06:48Z</time></trkpt><trkpt lat="44.81891250147784" lon="9.490894971988517"><ele>194.66666666666669</ele><time>2026-04-29T12:06:49Z</time></trkpt><trkpt lat="44.81890088805512" lon="9.490578364700013"><ele>195.0</ele><time>2026-04-29T12:06:50Z</time></trkpt><trkpt lat="44.81889371648679" lon="9.490258210746253"><ele>195.0</ele><time>2026-04-29T12:06:51Z</time></trkpt><trkpt lat="44.81888710061273" lon="9.489957243382337"><ele>195.0</ele><time>2026-04-29T12:06:52Z</time></trkpt><trkpt lat="44.81887864234418" lon="9.489675633193128"><ele>195.0</ele><time>2026-04-29T12:06:53Z</time></trkpt><trkpt lat="44.81886854560844" lon="9.489407296487379"><ele>195.0</ele><time>2026-04-29T12:06:54Z</time></trkpt><trkpt lat="44.81886299134032" lon="9.48915310650283"><ele>195.0</ele><time>2026-04-29T12:06:55Z</time></trkpt><trkpt lat="44.81885933327359" lon="9.488911257221663"><ele>195.0</ele><time>2026-04-29T12:06:56Z</time></trkpt><trkpt lat="44.81884831149457" lon="9.488674629010573"><ele>194.66666666666669</ele><time>2026-04-29T12:06:57Z</time></trkpt><trkpt lat="44.81884170865305" lon="9.488425457871454"><ele>194.33333333333334</ele><time>2026-04-29T12:06:58Z</time></trkpt><trkpt lat="44.818835089713424" lon="9.48818107086195"><ele>194.0</ele><time>2026-04-29T12:06:59Z</time></trkpt><trkpt lat="44.81883096733055" lon="9.48793436799541"><ele>194.66666666666669</ele><time>2026-04-29T12:07:00Z</time></trkpt><trkpt lat="44.81882673242308" lon="9.487674423096712"><ele>195.33333333333331</ele><time>2026-04-29T12:07:01Z</time></trkpt><trkpt lat="44.81882073339495" lon="9.487402014151305"><ele>196.0</ele><time>2026-04-29T12:07:02Z</time></trkpt><trkpt lat="44.818813638199835" lon="9.487138719330769"><ele>196.66666666666666</ele><time>2026-04-29T12:07:03Z</time></trkpt><trkpt lat="44.81880179443162" lon="9.486874545299047"><ele>197.33333333333331</ele><time>2026-04-29T12:07:04Z</time></trkpt><trkpt lat="44.81877755259736" lon="9.48660413214835"><ele>198.0</ele><time>2026-04-29T12:07:05Z</time></trkpt><trkpt lat="44.81873836633413" lon="9.486326641261947"><ele>198.33333333333331</ele><time>2026-04-29T12:07:06Z</time></trkpt><trkpt lat="44.818683328561" lon="9.486042706940523"><ele>198.66666666666666</ele><time>2026-04-29T12:07:07Z</time></trkpt><trkpt lat="44.81861426098916" lon="9.485754693514282"><ele>199.0</ele><time>2026-04-29T12:07:08Z</time></trkpt><trkpt lat="44.81852869754651" lon="9.485468126711789"><ele>208.0</ele><time>2026-04-29T12:07:09Z</time></trkpt><trkpt lat="44.81842532681841" lon="9.485173239262853"><ele>217.0</ele><time>2026-04-29T12:07:10Z</time></trkpt><trkpt lat="44.81831324474912" lon="9.48486782443373"><ele>219.5</ele><time>2026-04-29T12:07:11Z</time></trkpt><trkpt lat="44.81819510231235" lon="9.484537538789791"><ele>222.0</ele><time>2026-04-29T12:07:12Z</time></trkpt><trkpt lat="44.81806943672225" lon="9.484179107141395"><ele>222.0</ele><time>2026-04-29T12:07:13.019Z</time></trkpt><trkpt lat="44.81794421836115" lon="9.483821951581374"><ele>222.0</ele><time>2026-04-29T12:07:14.02Z</time></trkpt><trkpt lat="44.81783311027695" lon="9.483487000509225"><ele>220.0</ele><time>2026-04-29T12:07:15.02Z</time></trkpt><trkpt lat="44.81772997279496" lon="9.483165511840767"><ele>218.0</ele><time>2026-04-29T12:07:16.02Z</time></trkpt><trkpt lat="44.81731013399066" lon="9.481819001966604"><ele>213.33333333333334</ele><time>2026-04-29T12:07:21Z</time></trkpt><trkpt lat="44.8172202492357" lon="9.481575602827856"><ele>208.66666666666669</ele><time>2026-04-29T12:07:22Z</time></trkpt><trkpt lat="44.8170724296686" lon="9.481342228533228"><ele>204.0</ele><time>2026-04-29T12:07:23Z</time></trkpt><trkpt lat="44.816972015248716" lon="9.48108425946618"><ele>205.0</ele><time>2026-04-29T12:07:24Z</time></trkpt><trkpt lat="44.81689015715919" lon="9.480821132017885"><ele>206.0</ele><time>2026-04-29T12:07:25Z</time></trkpt><trkpt lat="44.81682584077405" lon="9.480533765734046"><ele>207.0</ele><time>2026-04-29T12:07:26Z</time></trkpt><trkpt lat="44.81676056199655" lon="9.480224495851692"><ele>207.0</ele><time>2026-04-29T12:07:27Z</time></trkpt><trkpt lat="44.81670872846562" lon="9.479926040952588"><ele>207.0</ele><time>2026-04-29T12:07:28Z</time></trkpt><trkpt lat="44.816670749805176" lon="9.479630689065987"><ele>207.0</ele><time>2026-04-29T12:07:29Z</time></trkpt><trkpt lat="44.816644557914074" lon="9.479325268254163"><ele>207.66666666666669</ele><time>2026-04-29T12:07:30Z</time></trkpt><trkpt lat="44.81663351740532" lon="9.47902052964662"><ele>208.33333333333334</ele><time>2026-04-29T12:07:31Z</time></trkpt><trkpt lat="44.816625558719856" lon="9.478712204882843"><ele>209.0</ele><time>2026-04-29T12:07:32Z</time></trkpt><trkpt lat="44.81662781929263" lon="9.478392986564593"><ele>209.5</ele><time>2026-04-29T12:07:33Z</time></trkpt><trkpt lat="44.81663680533898" lon="9.478072969304064"><ele>210.0</ele><time>2026-04-29T12:07:34.001Z</time></trkpt><trkpt lat="44.81663686519436" lon="9.47775068793149"><ele>210.5</ele><time>2026-04-29T12:07:35.001Z</time></trkpt><trkpt lat="44.81663070304239" lon="9.477421618270457"><ele>211.0</ele><time>2026-04-29T12:07:36.001Z</time></trkpt><trkpt lat="44.81663041246778" lon="9.477094554777537"><ele>213.5</ele><time>2026-04-29T12:07:37.001Z</time></trkpt><trkpt lat="44.81662980230875" lon="9.476768969290843"><ele>216.0</ele><time>2026-04-29T12:07:38.001Z</time></trkpt><trkpt lat="44.816630833861936" lon="9.476449628410219"><ele>217.66666666666669</ele><time>2026-04-29T12:07:39.001Z</time></trkpt><trkpt lat="44.81663089383751" lon="9.476155037275054"><ele>219.33333333333334</ele><time>2026-04-29T12:07:40.001Z</time></trkpt><trkpt lat="44.81662693059617" lon="9.475877657084116"><ele>221.0</ele><time>2026-04-29T12:07:41.001Z</time></trkpt><trkpt lat="44.81662819553545" lon="9.475599676889187"><ele>222.33333333333334</ele><time>2026-04-29T12:07:42.001Z</time></trkpt><trkpt lat="44.816627834066715" lon="9.475315935956742"><ele>223.66666666666669</ele><time>2026-04-29T12:07:43.001Z</time></trkpt><trkpt lat="44.816626566926246" lon="9.475034528510596"><ele>225.0</ele><time>2026-04-29T12:07:44.001Z</time></trkpt><trkpt lat="44.81662786445779" lon="9.47475554604876"><ele>226.0</ele><time>2026-04-29T12:07:45.001Z</time></trkpt><trkpt lat="44.81663417749106" lon="9.47450100414679"><ele>227.0</ele><time>2026-04-29T12:07:46.001Z</time></trkpt><trkpt lat="44.816641300783616" lon="9.474253197916646"><ele>228.0</ele><time>2026-04-29T12:07:47.001Z</time></trkpt><trkpt lat="44.81664903418087" lon="9.4740189109175"><ele>228.0</ele><time>2026-04-29T12:07:48.001Z</time></trkpt><trkpt lat="44.81666088138732" lon="9.473794906919071"><ele>228.0</ele><time>2026-04-29T12:07:49.001Z</time></trkpt><trkpt lat="44.81666947371718" lon="9.473593358396304"><ele>228.0</ele><time>2026-04-29T12:07:50.001Z</time></trkpt><trkpt lat="44.816683565738884" lon="9.473410594755261"><ele>228.0</ele><time>2026-04-29T12:07:51.001Z</time></trkpt><trkpt lat="44.81670287321206" lon="9.473241010248326"><ele>228.0</ele><time>2026-04-29T12:07:52.001Z</time></trkpt><trkpt lat="44.81673702808973" lon="9.473073224623151"><ele>228.0</ele><time>2026-04-29T12:07:53.001Z</time></trkpt><trkpt lat="44.816792600616054" lon="9.472885546470417"><ele>228.0</ele><time>2026-04-29T12:07:54.001Z</time></trkpt><trkpt lat="44.816862499725325" lon="9.472690465239195"><ele>228.0</ele><time>2026-04-29T12:07:55.001Z</time></trkpt><trkpt lat="44.81694769903928" lon="9.472496766606136"><ele>229.0</ele><time>2026-04-29T12:07:56.001Z</time></trkpt><trkpt lat="44.817042918043846" lon="9.47232666005828"><ele>230.0</ele><time>2026-04-29T12:07:57Z</time></trkpt><trkpt lat="44.817164382383716" lon="9.472189122169368"><ele>231.0</ele><time>2026-04-29T12:07:58Z</time></trkpt><trkpt lat="44.817283500793664" lon="9.47203565471539"><ele>231.0</ele><time>2026-04-29T12:07:59Z</time></trkpt><trkpt lat="44.817384448554186" lon="9.47186352117268"><ele>231.0</ele><time>2026-04-29T12:08:00Z</time></trkpt><trkpt lat="44.81747128247619" lon="9.471667274010496"><ele>231.0</ele><time>2026-04-29T12:08:01Z</time></trkpt><trkpt lat="44.817541253696774" lon="9.471440424036244"><ele>232.0</ele><time>2026-04-29T12:08:02Z</time></trkpt><trkpt lat="44.817584642995655" lon="9.471184912890376"><ele>233.0</ele><time>2026-04-29T12:08:03Z</time></trkpt><trkpt lat="44.81759890682537" lon="9.470935422053582"><ele>234.0</ele><time>2026-04-29T12:08:04Z</time></trkpt><trkpt lat="44.81758074460488" lon="9.470674092342078"><ele>232.66666666666669</ele><time>2026-04-29T12:08:05Z</time></trkpt><trkpt lat="44.81756533274845" lon="9.470386715572362"><ele>231.33333333333334</ele><time>2026-04-29T12:08:06Z</time></trkpt><trkpt lat="44.81754061856322" lon="9.470076467677506"><ele>230.0</ele><time>2026-04-29T12:08:07Z</time></trkpt><trkpt lat="44.81741178725511" lon="9.469768584396242"><ele>226.66666666666669</ele><time>2026-04-29T12:08:08Z</time></trkpt><trkpt lat="44.81735259659012" lon="9.469468998658844"><ele>223.33333333333331</ele><time>2026-04-29T12:08:09Z</time></trkpt><trkpt lat="44.817298985311005" lon="9.469177051034237"><ele>220.0</ele><time>2026-04-29T12:08:10Z</time></trkpt><trkpt lat="44.81723947106113" lon="9.46887906676218"><ele>219.33333333333331</ele><time>2026-04-29T12:08:11Z</time></trkpt><trkpt lat="44.817180200720756" lon="9.468584599338639"><ele>218.66666666666669</ele><time>2026-04-29T12:08:12Z</time></trkpt><trkpt lat="44.817125214510106" lon="9.46829824670284"><ele>218.0</ele><time>2026-04-29T12:08:13Z</time></trkpt><trkpt lat="44.8170734194251" lon="9.46802574598264"><ele>217.66666666666669</ele><time>2026-04-29T12:08:14Z</time></trkpt><trkpt lat="44.81701290521112" lon="9.46774835153246"><ele>217.33333333333331</ele><time>2026-04-29T12:08:15Z</time></trkpt><trkpt lat="44.816946985015285" lon="9.467472775467417"><ele>217.0</ele><time>2026-04-29T12:08:16Z</time></trkpt><trkpt lat="44.81685971700308" lon="9.467192710724568"><ele>222.5</ele><time>2026-04-29T12:08:17Z</time></trkpt><trkpt lat="44.8167528615309" lon="9.466896229708544"><ele>228.0</ele><time>2026-04-29T12:08:18Z</time></trkpt><trkpt lat="44.81663476029036" lon="9.466601659220899"><ele>228.0</ele><time>2026-04-29T12:08:19Z</time></trkpt><trkpt lat="44.81651997210294" lon="9.46632682904012"><ele>228.0</ele><time>2026-04-29T12:08:20Z</time></trkpt><trkpt lat="44.81640382342235" lon="9.466059493961032"><ele>228.0</ele><time>2026-04-29T12:08:21Z</time></trkpt><trkpt lat="44.81629060238603" lon="9.46580667330172"><ele>225.0</ele><time>2026-04-29T12:08:22Z</time></trkpt><trkpt lat="44.816197254788655" lon="9.46554716966738"><ele>222.0</ele><time>2026-04-29T12:08:23Z</time></trkpt><trkpt lat="44.81612517987733" lon="9.465261762612975"><ele>219.0</ele><time>2026-04-29T12:08:24Z</time></trkpt><trkpt lat="44.81607173654412" lon="9.464950499121212"><ele>216.0</ele><time>2026-04-29T12:08:25Z</time></trkpt><trkpt lat="44.81603467187626" lon="9.464631004323456"><ele>213.0</ele><time>2026-04-29T12:08:26Z</time></trkpt><trkpt lat="44.81600832540363" lon="9.464306248119636"><ele>221.5</ele><time>2026-04-29T12:08:27Z</time></trkpt><trkpt lat="44.815976446805756" lon="9.46398580490061"><ele>230.0</ele><time>2026-04-29T12:08:28Z</time></trkpt><trkpt lat="44.81593869455108" lon="9.463647251958001"><ele>231.0</ele><time>2026-04-29T12:08:29Z</time></trkpt><trkpt lat="44.81589916569177" lon="9.463322759626415"><ele>232.0</ele><time>2026-04-29T12:08:30Z</time></trkpt><trkpt lat="44.81584741203721" lon="9.463001072200182"><ele>230.5</ele><time>2026-04-29T12:08:31Z</time></trkpt><trkpt lat="44.815798266840886" lon="9.462663373793534"><ele>229.0</ele><time>2026-04-29T12:08:32Z</time></trkpt><trkpt lat="44.81574212321117" lon="9.462318457540377"><ele>227.5</ele><time>2026-04-29T12:08:33Z</time></trkpt><trkpt lat="44.81568604036713" lon="9.461981128270912"><ele>226.0</ele><time>2026-04-29T12:08:34Z</time></trkpt><trkpt lat="44.81563057940611" lon="9.461646197561983"><ele>226.0</ele><time>2026-04-29T12:08:35Z</time></trkpt><trkpt lat="44.815590366191756" lon="9.46132351792259"><ele>226.0</ele><time>2026-04-29T12:08:36Z</time></trkpt><trkpt lat="44.81555816236792" lon="9.461002916548859"><ele>225.0</ele><time>2026-04-29T12:08:37Z</time></trkpt><trkpt lat="44.81553228110244" lon="9.46066937489591"><ele>224.0</ele><time>2026-04-29T12:08:38Z</time></trkpt><trkpt lat="44.81550760092224" lon="9.460331083383258"><ele>223.66666666666669</ele><time>2026-04-29T12:08:39Z</time></trkpt><trkpt lat="44.81548164141014" lon="9.46001449498163"><ele>223.33333333333331</ele><time>2026-04-29T12:08:40Z</time></trkpt><trkpt lat="44.81545640100252" lon="9.459715671582424"><ele>223.0</ele><time>2026-04-29T12:08:41Z</time></trkpt><trkpt lat="44.81543076200114" lon="9.459431616108835"><ele>223.0</ele><time>2026-04-29T12:08:42Z</time></trkpt><trkpt lat="44.81540489917023" lon="9.459173179429591"><ele>223.0</ele><time>2026-04-29T12:08:43Z</time></trkpt><trkpt lat="44.815370538005034" lon="9.45894958582999"><ele>223.0</ele><time>2026-04-29T12:08:44Z</time></trkpt><trkpt lat="44.815329410462326" lon="9.458761055922395"><ele>222.8</ele><time>2026-04-29T12:08:45Z</time></trkpt><trkpt lat="44.81528617013933" lon="9.458586893822858"><ele>222.60000000000002</ele><time>2026-04-29T12:08:46Z</time></trkpt><trkpt lat="44.81524472286809" lon="9.458436700837266"><ele>222.39999999999998</ele><time>2026-04-29T12:08:47Z</time></trkpt><trkpt lat="44.81521158013898" lon="9.45830840762707"><ele>222.2</ele><time>2026-04-29T12:08:48Z</time></trkpt><trkpt lat="44.81518585435235" lon="9.458210287137158"><ele>222.0</ele><time>2026-04-29T12:08:49Z</time></trkpt><trkpt lat="44.815139789802025" lon="9.458101541895605"><ele>222.8</ele><time>2026-04-29T12:08:51Z</time></trkpt><trkpt lat="44.815095470493794" lon="9.458024972892526"><ele>223.6</ele><time>2026-04-29T12:11:14Z</time></trkpt><trkpt lat="44.81505248294153" lon="9.457879848059168"><ele>224.40000000000003</ele><time>2026-04-29T12:11:16Z</time></trkpt><trkpt lat="44.8150047787819" lon="9.457768911377057"><ele>225.20000000000002</ele><time>2026-04-29T12:11:17Z</time></trkpt><trkpt lat="44.814941103128355" lon="9.457625545939813"><ele>226.0</ele><time>2026-04-29T12:11:18Z</time></trkpt><trkpt lat="44.81487321320579" lon="9.457473616854784"><ele>226.0</ele><time>2026-04-29T12:11:19Z</time></trkpt><trkpt lat="44.81479384602726" lon="9.457296261314111"><ele>226.0</ele><time>2026-04-29T12:11:20Z</time></trkpt><trkpt lat="44.81469485118283" lon="9.45707504538929"><ele>226.0</ele><time>2026-04-29T12:11:21Z</time></trkpt><trkpt lat="44.81459074504415" lon="9.456842407542219"><ele>224.0</ele><time>2026-04-29T12:11:22Z</time></trkpt><trkpt lat="44.814473713110296" lon="9.456580885459976"><ele>222.0</ele><time>2026-04-29T12:11:23Z</time></trkpt><trkpt lat="44.814358083525676" lon="9.4563228773398"><ele>220.0</ele><time>2026-04-29T12:11:24Z</time></trkpt><trkpt lat="44.814233860967576" lon="9.456047580956882"><ele>220.0</ele><time>2026-04-29T12:11:25Z</time></trkpt><trkpt lat="44.81411857036105" lon="9.455789278101422"><ele>220.0</ele><time>2026-04-29T12:11:26Z</time></trkpt><trkpt lat="44.814010192254464" lon="9.455546610894475"><ele>220.0</ele><time>2026-04-29T12:11:27Z</time></trkpt><trkpt lat="44.8139064127662" lon="9.455314948952472"><ele>218.33333333333331</ele><time>2026-04-29T12:11:28Z</time></trkpt><trkpt lat="44.81380438788711" lon="9.455087204432191"><ele>216.66666666666669</ele><time>2026-04-29T12:11:29Z</time></trkpt><trkpt lat="44.81370518360751" lon="9.454865755439727"><ele>215.0</ele><time>2026-04-29T12:11:30Z</time></trkpt><trkpt lat="44.813604063458534" lon="9.454640029935662"><ele>213.66666666666669</ele><time>2026-04-29T12:11:31Z</time></trkpt><trkpt lat="44.813494609050885" lon="9.454395699827423"><ele>212.33333333333331</ele><time>2026-04-29T12:11:32Z</time></trkpt><trkpt lat="44.81338026695158" lon="9.454140595770989"><ele>211.0</ele><time>2026-04-29T12:11:33Z</time></trkpt><trkpt lat="44.813268253038764" lon="9.453892477825024"><ele>212.0</ele><time>2026-04-29T12:11:34Z</time></trkpt><trkpt lat="44.813154704118936" lon="9.453640960222303"><ele>213.0</ele><time>2026-04-29T12:11:35Z</time></trkpt><trkpt lat="44.8130419178265" lon="9.453391131762256"><ele>214.0</ele><time>2026-04-29T12:11:36.001Z</time></trkpt><trkpt lat="44.81293489638721" lon="9.453154072991117"><ele>213.33333333333331</ele><time>2026-04-29T12:11:37.001Z</time></trkpt><trkpt lat="44.812832224085035" lon="9.45292664768609"><ele>212.66666666666669</ele><time>2026-04-29T12:11:38.001Z</time></trkpt><trkpt lat="44.812734220823764" lon="9.45270956470718"><ele>212.0</ele><time>2026-04-29T12:11:39.001Z</time></trkpt><trkpt lat="44.812642295569404" lon="9.452501610575778"><ele>215.33333333333334</ele><time>2026-04-29T12:11:40.001Z</time></trkpt><trkpt lat="44.81256514258714" lon="9.45230694721155"><ele>218.66666666666669</ele><time>2026-04-29T12:11:41.001Z</time></trkpt><trkpt lat="44.812504037577035" lon="9.45211568134417"><ele>222.0</ele><time>2026-04-29T12:11:42.001Z</time></trkpt><trkpt lat="44.812449671546105" lon="9.451920092910253"><ele>222.0</ele><time>2026-04-29T12:11:43.001Z</time></trkpt><trkpt lat="44.81240098333843" lon="9.451699952235797"><ele>222.0</ele><time>2026-04-29T12:11:44.001Z</time></trkpt><trkpt lat="44.812374816086" lon="9.45144842617395"><ele>222.0</ele><time>2026-04-29T12:11:45.001Z</time></trkpt><trkpt lat="44.81234098008847" lon="9.451178587601206"><ele>221.0</ele><time>2026-04-29T12:11:46.001Z</time></trkpt><trkpt lat="44.812303605371746" lon="9.450897320316413"><ele>220.0</ele><time>2026-04-29T12:11:47.001Z</time></trkpt><trkpt lat="44.81226376388829" lon="9.450611493266393"><ele>219.0</ele><time>2026-04-29T12:11:48.001Z</time></trkpt><trkpt lat="44.812219907374036" lon="9.45031277875331"><ele>219.0</ele><time>2026-04-29T12:11:49.001Z</time></trkpt><trkpt lat="44.81218311576523" lon="9.450004580106645"><ele>219.0</ele><time>2026-04-29T12:11:50.001Z</time></trkpt><trkpt lat="44.81214485545989" lon="9.449694253683528"><ele>219.0</ele><time>2026-04-29T12:11:51.001Z</time></trkpt><trkpt lat="44.81210963653792" lon="9.44939298300347"><ele>217.66666666666669</ele><time>2026-04-29T12:11:52.001Z</time></trkpt><trkpt lat="44.81207640007966" lon="9.44909467205824"><ele>216.33333333333334</ele><time>2026-04-29T12:11:53.001Z</time></trkpt><trkpt lat="44.81204337790055" lon="9.448779915637568"><ele>215.0</ele><time>2026-04-29T12:11:54.001Z</time></trkpt><trkpt lat="44.8120051684846" lon="9.448456016600037"><ele>214.5</ele><time>2026-04-29T12:11:55.001Z</time></trkpt><trkpt lat="44.81196680024749" lon="9.448135441898254"><ele>214.0</ele><time>2026-04-29T12:11:56.001Z</time></trkpt><trkpt lat="44.811925829520895" lon="9.447811591269483"><ele>213.5</ele><time>2026-04-29T12:11:57.001Z</time></trkpt><trkpt lat="44.81188318543855" lon="9.447484326394884"><ele>213.0</ele><time>2026-04-29T12:11:58.001Z</time></trkpt><trkpt lat="44.81184141406661" lon="9.447152422690205"><ele>217.0</ele><time>2026-04-29T12:11:59.001Z</time></trkpt><trkpt lat="44.81180067800324" lon="9.446818811051251"><ele>221.0</ele><time>2026-04-29T12:12:00.001Z</time></trkpt><trkpt lat="44.8117580802253" lon="9.446482187328352"><ele>220.5</ele><time>2026-04-29T12:12:01.001Z</time></trkpt><trkpt lat="44.811720081440235" lon="9.446142495162816"><ele>220.0</ele><time>2026-04-29T12:12:02.001Z</time></trkpt><trkpt lat="44.811673890817325" lon="9.445802970327186"><ele>220.0</ele><time>2026-04-29T12:12:03.001Z</time></trkpt><trkpt lat="44.81163570309909" lon="9.445462289341616"><ele>220.0</ele><time>2026-04-29T12:12:04.001Z</time></trkpt><trkpt lat="44.8115947548159" lon="9.44511806727214"><ele>221.0</ele><time>2026-04-29T12:12:05.001Z</time></trkpt><trkpt lat="44.81155300630489" lon="9.444775528168034"><ele>222.0</ele><time>2026-04-29T12:12:06.001Z</time></trkpt><trkpt lat="44.811509190528405" lon="9.44443086916021"><ele>222.0</ele><time>2026-04-29T12:12:07.001Z</time></trkpt><trkpt lat="44.81146684956448" lon="9.444086700365247"><ele>222.0</ele><time>2026-04-29T12:12:08.001Z</time></trkpt><trkpt lat="44.811426012189756" lon="9.443743486898619"><ele>221.5</ele><time>2026-04-29T12:12:09.001Z</time></trkpt><trkpt lat="44.81138362985642" lon="9.443394248062782"><ele>221.0</ele><time>2026-04-29T12:12:10.001Z</time></trkpt><trkpt lat="44.81134281374116" lon="9.443044505960804"><ele>221.0</ele><time>2026-04-29T12:12:11.001Z</time></trkpt><trkpt lat="44.811301063770465" lon="9.442695609517164"><ele>221.0</ele><time>2026-04-29T12:12:12.001Z</time></trkpt><trkpt lat="44.81125865237159" lon="9.442351853825818"><ele>220.0</ele><time>2026-04-29T12:12:13.001Z</time></trkpt><trkpt lat="44.81122005395601" lon="9.442017415194027"><ele>219.0</ele><time>2026-04-29T12:12:14.001Z</time></trkpt><trkpt lat="44.811180680772786" lon="9.441697792399593"><ele>219.0</ele><time>2026-04-29T12:12:15.001Z</time></trkpt><trkpt lat="44.81114377598838" lon="9.441392801490606"><ele>219.0</ele><time>2026-04-29T12:12:16Z</time></trkpt><trkpt lat="44.811107189405845" lon="9.441100428483896"><ele>219.0</ele><time>2026-04-29T12:12:17Z</time></trkpt><trkpt lat="44.81105975403145" lon="9.440823361995754"><ele>218.33333333333331</ele><time>2026-04-29T12:12:18Z</time></trkpt><trkpt lat="44.810997465894786" lon="9.44054599985975"><ele>217.66666666666666</ele><time>2026-04-29T12:12:19Z</time></trkpt><trkpt lat="44.81091674325448" lon="9.440262220931318"><ele>217.0</ele><time>2026-04-29T12:12:20Z</time></trkpt><trkpt lat="44.810812947360404" lon="9.439972417698351"><ele>219.0</ele><time>2026-04-29T12:12:21Z</time></trkpt><trkpt lat="44.81068932804348" lon="9.439679721091677"><ele>221.0</ele><time>2026-04-29T12:12:22Z</time></trkpt><trkpt lat="44.810550464929776" lon="9.439406252922861"><ele>221.0</ele><time>2026-04-29T12:12:23Z</time></trkpt><trkpt lat="44.810385799885346" lon="9.43914323407623"><ele>221.0</ele><time>2026-04-29T12:12:24Z</time></trkpt><trkpt lat="44.81020374006168" lon="9.4388757982637"><ele>225.0</ele><time>2026-04-29T12:12:25Z</time></trkpt><trkpt lat="44.81001882361822" lon="9.438612766109195"><ele>229.0</ele><time>2026-04-29T12:12:26Z</time></trkpt><trkpt lat="44.80984758888735" lon="9.438360281234996"><ele>229.0</ele><time>2026-04-29T12:12:27Z</time></trkpt><trkpt lat="44.80968412610923" lon="9.438109477679559"><ele>229.0</ele><time>2026-04-29T12:12:28Z</time></trkpt><trkpt lat="44.80952120544065" lon="9.437875933717363"><ele>230.0</ele><time>2026-04-29T12:12:29Z</time></trkpt><trkpt lat="44.809366184978195" lon="9.437644303449312"><ele>231.0</ele><time>2026-04-29T12:12:30Z</time></trkpt><trkpt lat="44.80922660914463" lon="9.437421356978966"><ele>232.0</ele><time>2026-04-29T12:12:31Z</time></trkpt><trkpt lat="44.80909573779183" lon="9.437199597774322"><ele>228.66666666666666</ele><time>2026-04-29T12:12:32Z</time></trkpt><trkpt lat="44.808985940953285" lon="9.436972512994636"><ele>225.33333333333331</ele><time>2026-04-29T12:12:33Z</time></trkpt><trkpt lat="44.80889326020942" lon="9.436699382332078"><ele>222.0</ele><time>2026-04-29T12:12:34Z</time></trkpt><trkpt lat="44.8087943361105" lon="9.436391194024555"><ele>219.5</ele><time>2026-04-29T12:12:35Z</time></trkpt><trkpt lat="44.80869464898453" lon="9.436066661204253"><ele>217.0</ele><time>2026-04-29T12:12:36Z</time></trkpt><trkpt lat="44.80858419419909" lon="9.435744105957294"><ele>217.5</ele><time>2026-04-29T12:12:37Z</time></trkpt><trkpt lat="44.80845856476848" lon="9.435441635016042"><ele>218.0</ele><time>2026-04-29T12:12:38Z</time></trkpt><trkpt lat="44.80833973201665" lon="9.435138703922025"><ele>218.0</ele><time>2026-04-29T12:12:39Z</time></trkpt><trkpt lat="44.8082260043028" lon="9.434802925666643"><ele>218.0</ele><time>2026-04-29T12:12:40Z</time></trkpt><trkpt lat="44.80810606195594" lon="9.43445576690006"><ele>219.0</ele><time>2026-04-29T12:12:41Z</time></trkpt><trkpt lat="44.80798742832395" lon="9.434109388966545"><ele>220.0</ele><time>2026-04-29T12:12:42Z</time></trkpt><trkpt lat="44.807867128028676" lon="9.433767456916323"><ele>220.0</ele><time>2026-04-29T12:12:43Z</time></trkpt><trkpt lat="44.80774985026457" lon="9.433432827241795"><ele>220.0</ele><time>2026-04-29T12:12:44Z</time></trkpt><trkpt lat="44.80763434203812" lon="9.433098896779391"><ele>222.5</ele><time>2026-04-29T12:12:45Z</time></trkpt><trkpt lat="44.80751962681837" lon="9.432770223230232"><ele>225.0</ele><time>2026-04-29T12:12:46Z</time></trkpt><trkpt lat="44.80740449324845" lon="9.43244913246791"><ele>229.5</ele><time>2026-04-29T12:12:47Z</time></trkpt><trkpt lat="44.807290463356274" lon="9.432131276921332"><ele>234.0</ele><time>2026-04-29T12:12:48Z</time></trkpt><trkpt lat="44.8071715840063" lon="9.431819717643108"><ele>234.0</ele><time>2026-04-29T12:12:49Z</time></trkpt><trkpt lat="44.80704454337517" lon="9.431507899468755"><ele>234.0</ele><time>2026-04-29T12:12:50Z</time></trkpt><trkpt lat="44.80690220489717" lon="9.431205684260075"><ele>231.5</ele><time>2026-04-29T12:12:51Z</time></trkpt><trkpt lat="44.806741932881906" lon="9.430880483047527"><ele>229.0</ele><time>2026-04-29T12:12:52Z</time></trkpt><trkpt lat="44.80657223102468" lon="9.4305724036106"><ele>229.0</ele><time>2026-04-29T12:12:53Z</time></trkpt><trkpt lat="44.80639496366913" lon="9.430269226721364"><ele>229.0</ele><time>2026-04-29T12:12:54Z</time></trkpt><trkpt lat="44.80620978333589" lon="9.429974078429536"><ele>229.0</ele><time>2026-04-29T12:12:55Z</time></trkpt><trkpt lat="44.806013998929664" lon="9.429690893155328"><ele>229.0</ele><time>2026-04-29T12:12:56Z</time></trkpt><trkpt lat="44.805810276631824" lon="9.429409844359258"><ele>227.5</ele><time>2026-04-29T12:12:57Z</time></trkpt><trkpt lat="44.805595119112546" lon="9.429133556100233"><ele>226.0</ele><time>2026-04-29T12:12:58Z</time></trkpt><trkpt lat="44.80538272975244" lon="9.428855510546244"><ele>226.0</ele><time>2026-04-29T12:12:59Z</time></trkpt><trkpt lat="44.80516636769904" lon="9.428579082713249"><ele>226.0</ele><time>2026-04-29T12:13:00Z</time></trkpt><trkpt lat="44.8049548793112" lon="9.428294338292782"><ele>226.0</ele><time>2026-04-29T12:13:01Z</time></trkpt><trkpt lat="44.80475236828229" lon="9.428029577217146"><ele>226.0</ele><time>2026-04-29T12:13:02Z</time></trkpt><trkpt lat="44.80453671084937" lon="9.427746536629119"><ele>226.0</ele><time>2026-04-29T12:13:03Z</time></trkpt><trkpt lat="44.804338962990606" lon="9.427491021405064"><ele>226.0</ele><time>2026-04-29T12:13:04Z</time></trkpt><trkpt lat="44.804149866371546" lon="9.427243759250542"><ele>228.0</ele><time>2026-04-29T12:13:05Z</time></trkpt><trkpt lat="44.803968623289535" lon="9.42702002208396"><ele>230.0</ele><time>2026-04-29T12:13:06Z</time></trkpt><trkpt lat="44.8037938367192" lon="9.42678647346923"><ele>230.0</ele><time>2026-04-29T12:13:07Z</time></trkpt><trkpt lat="44.80362482809385" lon="9.426568724016253"><ele>230.0</ele><time>2026-04-29T12:13:08Z</time></trkpt><trkpt lat="44.80346232888829" lon="9.42636178922367"><ele>230.0</ele><time>2026-04-29T12:13:09Z</time></trkpt><trkpt lat="44.80328736479132" lon="9.42615305905898"><ele>228.5</ele><time>2026-04-29T12:13:10Z</time></trkpt><trkpt lat="44.803095297681445" lon="9.425952540694944"><ele>227.0</ele><time>2026-04-29T12:13:11Z</time></trkpt><trkpt lat="44.802897743691844" lon="9.425754824753628"><ele>227.0</ele><time>2026-04-29T12:13:12Z</time></trkpt><trkpt lat="44.802686168240974" lon="9.425581985425067"><ele>227.0</ele><time>2026-04-29T12:13:13Z</time></trkpt><trkpt lat="44.80246451235234" lon="9.425401337498062"><ele>229.0</ele><time>2026-04-29T12:13:14Z</time></trkpt><trkpt lat="44.80222902189217" lon="9.425237723148541"><ele>231.0</ele><time>2026-04-29T12:13:15Z</time></trkpt><trkpt lat="44.80199220465379" lon="9.425072238479082"><ele>227.5</ele><time>2026-04-29T12:13:16Z</time></trkpt><trkpt lat="44.801750455342585" lon="9.42489479857315"><ele>224.0</ele><time>2026-04-29T12:13:17Z</time></trkpt><trkpt lat="44.80152298959165" lon="9.424724273458164"><ele>225.5</ele><time>2026-04-29T12:13:18Z</time></trkpt><trkpt lat="44.801297532473995" lon="9.42455504867527"><ele>227.0</ele><time>2026-04-29T12:13:19Z</time></trkpt><trkpt lat="44.80107036172374" lon="9.42439189532777"><ele>228.0</ele><time>2026-04-29T12:13:20Z</time></trkpt><trkpt lat="44.800848279646345" lon="9.424234976637344"><ele>229.0</ele><time>2026-04-29T12:13:21Z</time></trkpt><trkpt lat="44.80062842489107" lon="9.424081330854456"><ele>229.0</ele><time>2026-04-29T12:13:22Z</time></trkpt><trkpt lat="44.800419858156026" lon="9.423930965750177"><ele>229.0</ele><time>2026-04-29T12:13:23Z</time></trkpt><trkpt lat="44.80021326038107" lon="9.423783129234998"><ele>231.5</ele><time>2026-04-29T12:13:24Z</time></trkpt><trkpt lat="44.80000157351561" lon="9.423651214267531"><ele>234.0</ele><time>2026-04-29T12:13:25Z</time></trkpt><trkpt lat="44.79978871857077" lon="9.423529154568739"><ele>234.0</ele><time>2026-04-29T12:13:26Z</time></trkpt><trkpt lat="44.799576697181124" lon="9.423441674149917"><ele>234.0</ele><time>2026-04-29T12:13:27Z</time></trkpt><trkpt lat="44.79935660046008" lon="9.423380570436889"><ele>234.0</ele><time>2026-04-29T12:13:28Z</time></trkpt><trkpt lat="44.79913734804346" lon="9.423311549376075"><ele>235.0</ele><time>2026-04-29T12:13:29Z</time></trkpt><trkpt lat="44.79891235456525" lon="9.423271735459677"><ele>236.0</ele><time>2026-04-29T12:13:30Z</time></trkpt><trkpt lat="44.798687983541654" lon="9.423248645612166"><ele>238.5</ele><time>2026-04-29T12:13:31Z</time></trkpt><trkpt lat="44.79845616467013" lon="9.423221772516555"><ele>241.0</ele><time>2026-04-29T12:13:32Z</time></trkpt><trkpt lat="44.798219710623215" lon="9.423190371380782"><ele>241.0</ele><time>2026-04-29T12:13:33Z</time></trkpt><trkpt lat="44.79798384679177" lon="9.42315000186878"><ele>241.0</ele><time>2026-04-29T12:13:34Z</time></trkpt><trkpt lat="44.79774261254656" lon="9.423096298092567"><ele>241.33333333333331</ele><time>2026-04-29T12:13:35Z</time></trkpt><trkpt lat="44.79751545339461" lon="9.423040695051268"><ele>241.66666666666669</ele><time>2026-04-29T12:13:36Z</time></trkpt><trkpt lat="44.797304607479425" lon="9.422973643901672"><ele>242.0</ele><time>2026-04-29T12:13:37Z</time></trkpt><trkpt lat="44.797111080029325" lon="9.422900823306193"><ele>241.33333333333334</ele><time>2026-04-29T12:13:38Z</time></trkpt><trkpt lat="44.79695431998687" lon="9.422820519774335"><ele>240.66666666666669</ele><time>2026-04-29T12:13:39Z</time></trkpt><trkpt lat="44.7968161417578" lon="9.422732826544962"><ele>240.0</ele><time>2026-04-29T12:13:40Z</time></trkpt><trkpt lat="44.79667506632625" lon="9.422634350116695"><ele>240.0</ele><time>2026-04-29T12:13:41Z</time></trkpt><trkpt lat="44.796530108350666" lon="9.422517752490977"><ele>240.0</ele><time>2026-04-29T12:13:42Z</time></trkpt><trkpt lat="44.79639272283156" lon="9.42239126633412"><ele>240.0</ele><time>2026-04-29T12:13:43Z</time></trkpt><trkpt lat="44.79625824138666" lon="9.422274164596642"><ele>242.33333333333331</ele><time>2026-04-29T12:13:44Z</time></trkpt><trkpt lat="44.796122104201494" lon="9.42213428224455"><ele>244.66666666666666</ele><time>2026-04-29T12:13:45Z</time></trkpt><trkpt lat="44.795999609739496" lon="9.421952388738564"><ele>247.0</ele><time>2026-04-29T12:13:46Z</time></trkpt><trkpt lat="44.795857159215366" lon="9.42176502834322"><ele>247.0</ele><time>2026-04-29T12:13:47Z</time></trkpt><trkpt lat="44.795695241396714" lon="9.421574531989675"><ele>247.0</ele><time>2026-04-29T12:13:48Z</time></trkpt><trkpt lat="44.795529346929534" lon="9.421365071702816"><ele>247.0</ele><time>2026-04-29T12:13:49Z</time></trkpt><trkpt lat="44.79535759984473" lon="9.421135557729507"><ele>244.5</ele><time>2026-04-29T12:13:50Z</time></trkpt><trkpt lat="44.79520047502515" lon="9.42090393640029"><ele>242.0</ele><time>2026-04-29T12:13:51Z</time></trkpt><trkpt lat="44.79504242932722" lon="9.42066264223773"><ele>261.5</ele><time>2026-04-29T12:13:52Z</time></trkpt><trkpt lat="44.79488308431826" lon="9.420417047059434"><ele>281.0</ele><time>2026-04-29T12:13:53.02Z</time></trkpt><trkpt lat="44.794725053716824" lon="9.42017547026098"><ele>281.0</ele><time>2026-04-29T12:13:54.02Z</time></trkpt><trkpt lat="44.794565187440746" lon="9.419934273428998"><ele>281.0</ele><time>2026-04-29T12:13:55.018Z</time></trkpt><trkpt lat="44.79440212528248" lon="9.419693578321638"><ele>302.5</ele><time>2026-04-29T12:13:56.021Z</time></trkpt><trkpt lat="44.79422680072998" lon="9.419477817632911"><ele>324.0</ele><time>2026-04-29T12:13:57.019Z</time></trkpt><trkpt lat="44.79354787913681" lon="9.418722903451476"><ele>345.0</ele><time>2026-04-29T12:14:00.718Z</time></trkpt><trkpt lat="44.793366146594295" lon="9.418518407750323"><ele>366.0</ele><time>2026-04-29T12:14:01.713Z</time></trkpt><trkpt lat="44.79319540321183" lon="9.418293318993014"><ele>366.0</ele><time>2026-04-29T12:14:02.718Z</time></trkpt><trkpt lat="44.793025987373916" lon="9.418069980320226"><ele>366.0</ele><time>2026-04-29T12:14:03.714Z</time></trkpt><trkpt lat="44.79286709782644" lon="9.417828963224059"><ele>362.5</ele><time>2026-04-29T12:14:04.715Z</time></trkpt><trkpt lat="44.79268443924865" lon="9.417623201273749"><ele>359.0</ele><time>2026-04-29T12:14:05.716Z</time></trkpt><trkpt lat="44.7925139360306" lon="9.417399335229995"><ele>373.5</ele><time>2026-04-29T12:14:06.718Z</time></trkpt><trkpt lat="44.79234389655993" lon="9.417176078073803"><ele>388.0</ele><time>2026-04-29T12:14:07.716Z</time></trkpt><trkpt lat="44.792185331639295" lon="9.416935882115471"><ele>388.0</ele><time>2026-04-29T12:14:08.714Z</time></trkpt><trkpt lat="44.79201488428775" lon="9.416712089432048"><ele>388.0</ele><time>2026-04-29T12:14:09.715Z</time></trkpt><trkpt lat="44.79184410230671" lon="9.41648785733135"><ele>357.5</ele><time>2026-04-29T12:14:10.718Z</time></trkpt><trkpt lat="44.791674427734" lon="9.416265407025579"><ele>327.0</ele><time>2026-04-29T12:14:11.713Z</time></trkpt><trkpt lat="44.79149154139589" lon="9.416058590425147"><ele>327.0</ele><time>2026-04-29T12:14:12.718Z</time></trkpt><trkpt lat="44.79132109975141" lon="9.415835187726872"><ele>327.0</ele><time>2026-04-29T12:14:13.718Z</time></trkpt><trkpt lat="44.79115145005449" lon="9.415610640796402"><ele>304.3333333333333</ele><time>2026-04-29T12:14:14.718Z</time></trkpt><trkpt lat="44.79099185212384" lon="9.415370808520724"><ele>281.66666666666663</ele><time>2026-04-29T12:14:15.718Z</time></trkpt><trkpt lat="44.7909" lon="9.4152832"><ele>259.0</ele><time>2026-04-29T12:14:16.719Z</time></trkpt><trkpt lat="44.78996675199791" lon="9.41397533515554"><ele>247.5</ele><time>2026-04-29T12:14:18Z</time></trkpt><trkpt lat="44.789762569166534" lon="9.4137073473833"><ele>236.0</ele><time>2026-04-29T12:14:19Z</time></trkpt><trkpt lat="44.78954392236349" lon="9.413455579449947"><ele>236.5</ele><time>2026-04-29T12:14:20Z</time></trkpt><trkpt lat="44.78933348544296" lon="9.413186700030385"><ele>237.0</ele><time>2026-04-29T12:14:21Z</time></trkpt><trkpt lat="44.789123839078215" lon="9.412914963878755"><ele>237.0</ele><time>2026-04-29T12:14:22Z</time></trkpt><trkpt lat="44.78891157556833" lon="9.41263557851801"><ele>237.0</ele><time>2026-04-29T12:14:23Z</time></trkpt><trkpt lat="44.78871023443462" lon="9.41237899401389"><ele>237.0</ele><time>2026-04-29T12:14:24Z</time></trkpt><trkpt lat="44.78851494597795" lon="9.412126792858253"><ele>237.0</ele><time>2026-04-29T12:14:25Z</time></trkpt><trkpt lat="44.78831883295403" lon="9.411869067780072"><ele>237.5</ele><time>2026-04-29T12:14:26Z</time></trkpt><trkpt lat="44.78812392611795" lon="9.411614959872516"><ele>238.0</ele><time>2026-04-29T12:14:27Z</time></trkpt><trkpt lat="44.78792794990386" lon="9.411358588448488"><ele>237.5</ele><time>2026-04-29T12:14:28Z</time></trkpt><trkpt lat="44.78772890499579" lon="9.411101104723334"><ele>237.0</ele><time>2026-04-29T12:14:29Z</time></trkpt><trkpt lat="44.78753157448184" lon="9.410844542383062"><ele>237.0</ele><time>2026-04-29T12:14:30Z</time></trkpt><trkpt lat="44.787325247260355" lon="9.410576791799986"><ele>237.0</ele><time>2026-04-29T12:14:31Z</time></trkpt><trkpt lat="44.7871245023134" lon="9.410308765823316"><ele>237.0</ele><time>2026-04-29T12:14:32Z</time></trkpt><trkpt lat="44.78692461287546" lon="9.410038945015488"><ele>237.0</ele><time>2026-04-29T12:14:33Z</time></trkpt><trkpt lat="44.786717932974234" lon="9.409772409935073"><ele>241.5</ele><time>2026-04-29T12:14:34Z</time></trkpt><trkpt lat="44.78651603690954" lon="9.409514268181097"><ele>246.0</ele><time>2026-04-29T12:14:35Z</time></trkpt><trkpt lat="44.78631301694272" lon="9.409246997815275"><ele>246.0</ele><time>2026-04-29T12:14:36Z</time></trkpt><trkpt lat="44.78611351420277" lon="9.408986372756871"><ele>246.0</ele><time>2026-04-29T12:14:37Z</time></trkpt><trkpt lat="44.785915941733826" lon="9.408727517320013"><ele>246.0</ele><time>2026-04-29T12:14:38Z</time></trkpt><trkpt lat="44.78571811237881" lon="9.408473747903107"><ele>246.0</ele><time>2026-04-29T12:14:39Z</time></trkpt><trkpt lat="44.78552596333086" lon="9.408217478271881"><ele>247.0</ele><time>2026-04-29T12:14:40Z</time></trkpt><trkpt lat="44.78533334596705" lon="9.407959517891369"><ele>248.0</ele><time>2026-04-29T12:14:41Z</time></trkpt><trkpt lat="44.78514406924027" lon="9.40770078468834"><ele>248.0</ele><time>2026-04-29T12:14:42Z</time></trkpt><trkpt lat="44.78495322256994" lon="9.407438804144254"><ele>248.0</ele><time>2026-04-29T12:14:43Z</time></trkpt><trkpt lat="44.78476068421358" lon="9.4071757838771"><ele>247.0</ele><time>2026-04-29T12:14:44Z</time></trkpt><trkpt lat="44.78456993560211" lon="9.406901669883727"><ele>246.0</ele><time>2026-04-29T12:14:45Z</time></trkpt><trkpt lat="44.78438134631493" lon="9.406626597011346"><ele>245.0</ele><time>2026-04-29T12:14:46Z</time></trkpt><trkpt lat="44.784195458665565" lon="9.406355193246963"><ele>244.0</ele><time>2026-04-29T12:14:47Z</time></trkpt><trkpt lat="44.784003038649374" lon="9.406081650718416"><ele>244.0</ele><time>2026-04-29T12:14:48Z</time></trkpt><trkpt lat="44.783811556210125" lon="9.405803852428278"><ele>244.0</ele><time>2026-04-29T12:14:49Z</time></trkpt><trkpt lat="44.78361730269795" lon="9.40552813374747"><ele>242.5</ele><time>2026-04-29T12:14:50Z</time></trkpt><trkpt lat="44.78342596946113" lon="9.405252528476645"><ele>241.0</ele><time>2026-04-29T12:14:51Z</time></trkpt><trkpt lat="44.783230206678596" lon="9.404973293242616"><ele>241.0</ele><time>2026-04-29T12:14:52Z</time></trkpt><trkpt lat="44.783033584688816" lon="9.404693054436168"><ele>241.0</ele><time>2026-04-29T12:14:53Z</time></trkpt><trkpt lat="44.782839989494164" lon="9.40441270907046"><ele>242.0</ele><time>2026-04-29T12:14:54Z</time></trkpt><trkpt lat="44.782646934245925" lon="9.404131060380621"><ele>243.0</ele><time>2026-04-29T12:14:55Z</time></trkpt><trkpt lat="44.78245925319162" lon="9.40385462004225"><ele>243.5</ele><time>2026-04-29T12:14:56Z</time></trkpt><trkpt lat="44.78226837178167" lon="9.40358984234174"><ele>244.0</ele><time>2026-04-29T12:14:57Z</time></trkpt><trkpt lat="44.78208314139331" lon="9.403324727847384"><ele>244.0</ele><time>2026-04-29T12:14:58Z</time></trkpt><trkpt lat="44.78189924282527" lon="9.403057891325588"><ele>244.0</ele><time>2026-04-29T12:14:59Z</time></trkpt><trkpt lat="44.78171100597914" lon="9.402790228548843"><ele>245.5</ele><time>2026-04-29T12:15:00Z</time></trkpt><trkpt lat="44.78152729446118" lon="9.402522713925741"><ele>247.0</ele><time>2026-04-29T12:15:01Z</time></trkpt><trkpt lat="44.78134157552667" lon="9.402256773749826"><ele>247.5</ele><time>2026-04-29T12:15:02Z</time></trkpt><trkpt lat="44.78116191902239" lon="9.401995537460738"><ele>248.0</ele><time>2026-04-29T12:15:03Z</time></trkpt><trkpt lat="44.780981401601466" lon="9.401734059035903"><ele>248.0</ele><time>2026-04-29T12:15:04Z</time></trkpt><trkpt lat="44.78080556862355" lon="9.401475958853995"><ele>248.0</ele><time>2026-04-29T12:15:05Z</time></trkpt><trkpt lat="44.780636416604914" lon="9.401217478324831"><ele>251.5</ele><time>2026-04-29T12:15:06Z</time></trkpt><trkpt lat="44.78050722890901" lon="9.400946413154763"><ele>255.0</ele><time>2026-04-29T12:15:07Z</time></trkpt><trkpt lat="44.78037486999118" lon="9.400683126338768"><ele>254.0</ele><time>2026-04-29T12:15:08Z</time></trkpt><trkpt lat="44.78026370120096" lon="9.40041198624513"><ele>253.0</ele><time>2026-04-29T12:15:09Z</time></trkpt><trkpt lat="44.78014965464495" lon="9.400143733227065"><ele>252.0</ele><time>2026-04-29T12:15:10Z</time></trkpt><trkpt lat="44.780067302299614" lon="9.399869621223186"><ele>253.66666666666669</ele><time>2026-04-29T12:15:11Z</time></trkpt><trkpt lat="44.779997029139516" lon="9.399591345144888"><ele>255.33333333333334</ele><time>2026-04-29T12:15:12Z</time></trkpt><trkpt lat="44.779933332749124" lon="9.399286312420891"><ele>257.0</ele><time>2026-04-29T12:15:13Z</time></trkpt><trkpt lat="44.7798859401997" lon="9.398975283309177"><ele>258.5</ele><time>2026-04-29T12:15:14Z</time></trkpt><trkpt lat="44.77985151251628" lon="9.398664311649707"><ele>260.0</ele><time>2026-04-29T12:15:15Z</time></trkpt><trkpt lat="44.77982711250843" lon="9.39833530258703"><ele>260.5</ele><time>2026-04-29T12:15:16Z</time></trkpt><trkpt lat="44.77980918876024" lon="9.397991806076119"><ele>261.0</ele><time>2026-04-29T12:15:17Z</time></trkpt><trkpt lat="44.77979056836803" lon="9.397662447926605"><ele>261.0</ele><time>2026-04-29T12:15:18Z</time></trkpt><trkpt lat="44.779761324721996" lon="9.397347377251169"><ele>261.0</ele><time>2026-04-29T12:15:19Z</time></trkpt><trkpt lat="44.77973184601124" lon="9.397029855065632"><ele>264.0</ele><time>2026-04-29T12:15:20Z</time></trkpt><trkpt lat="44.77969524116552" lon="9.396704256472564"><ele>267.0</ele><time>2026-04-29T12:15:21Z</time></trkpt><trkpt lat="44.77964689961901" lon="9.39637841952517"><ele>271.0</ele><time>2026-04-29T12:15:22Z</time></trkpt><trkpt lat="44.779606891481535" lon="9.396032294596505"><ele>275.0</ele><time>2026-04-29T12:15:23Z</time></trkpt><trkpt lat="44.77954116818293" lon="9.39569753729255"><ele>277.5</ele><time>2026-04-29T12:15:24Z</time></trkpt><trkpt lat="44.77945298907842" lon="9.395370683398609"><ele>280.0</ele><time>2026-04-29T12:15:25Z</time></trkpt><trkpt lat="44.77936782215888" lon="9.395050091395001"><ele>266.5</ele><time>2026-04-29T12:15:26Z</time></trkpt><trkpt lat="44.77927645807232" lon="9.394736715891106"><ele>253.0</ele><time>2026-04-29T12:15:27Z</time></trkpt><trkpt lat="44.77919476064375" lon="9.3944162719791"><ele>253.0</ele><time>2026-04-29T12:15:28Z</time></trkpt><trkpt lat="44.77908450578846" lon="9.39411114193146"><ele>253.0</ele><time>2026-04-29T12:15:29Z</time></trkpt><trkpt lat="44.77896189948759" lon="9.393813883710408"><ele>258.5</ele><time>2026-04-29T12:15:30Z</time></trkpt><trkpt lat="44.77883458670604" lon="9.393518208714253"><ele>264.0</ele><time>2026-04-29T12:15:31Z</time></trkpt><trkpt lat="44.77870245917667" lon="9.39323090062953"><ele>259.5</ele><time>2026-04-29T12:15:32Z</time></trkpt><trkpt lat="44.77857303553864" lon="9.392951741600955"><ele>255.0</ele><time>2026-04-29T12:15:33Z</time></trkpt><trkpt lat="44.778450311955446" lon="9.392687034192937"><ele>255.0</ele><time>2026-04-29T12:15:34Z</time></trkpt><trkpt lat="44.77827548511051" lon="9.392501005584291"><ele>255.0</ele><time>2026-04-29T12:15:35Z</time></trkpt><trkpt lat="44.77814610374426" lon="9.39230660216424"><ele>255.0</ele><time>2026-04-29T12:15:36Z</time></trkpt><trkpt lat="44.778022113238855" lon="9.392125586337498"><ele>255.25</ele><time>2026-04-29T12:15:37Z</time></trkpt><trkpt lat="44.7779111956292" lon="9.391971663438497"><ele>255.5</ele><time>2026-04-29T12:15:38Z</time></trkpt><trkpt lat="44.77780045411163" lon="9.391833076506359"><ele>255.75</ele><time>2026-04-29T12:15:39Z</time></trkpt><trkpt lat="44.777692528868556" lon="9.391707118424016"><ele>256.0</ele><time>2026-04-29T12:15:40Z</time></trkpt><trkpt lat="44.77758697661976" lon="9.391584553047505"><ele>256.0</ele><time>2026-04-29T12:15:41Z</time></trkpt><trkpt lat="44.77748561736174" lon="9.39147598848952"><ele>256.0</ele><time>2026-04-29T12:15:42Z</time></trkpt><trkpt lat="44.777399322341566" lon="9.391379706977066"><ele>256.0</ele><time>2026-04-29T12:15:43Z</time></trkpt><trkpt lat="44.777324870083895" lon="9.391296301104704"><ele>256.0</ele><time>2026-04-29T12:15:44Z</time></trkpt><trkpt lat="44.77726127150184" lon="9.391226109269034"><ele>256.0</ele><time>2026-04-29T12:15:45Z</time></trkpt><trkpt lat="44.77718987940203" lon="9.391105245460622"><ele>256.5</ele><time>2026-04-29T12:15:47Z</time></trkpt><trkpt lat="44.777142278005" lon="9.391031525215904"><ele>257.0</ele><time>2026-04-29T12:15:49Z</time></trkpt><trkpt lat="44.77707924001152" lon="9.390996393606493"><ele>257.5</ele><time>2026-04-29T12:16:15Z</time></trkpt><trkpt lat="44.77696988727625" lon="9.390952466124315"><ele>258.0</ele><time>2026-04-29T12:16:29.999Z</time></trkpt><trkpt lat="44.776892507270965" lon="9.390906506964667"><ele>258.5</ele><time>2026-04-29T12:16:31Z</time></trkpt><trkpt lat="44.77679660209435" lon="9.39083488525346"><ele>259.0</ele><time>2026-04-29T12:16:31.999Z</time></trkpt><trkpt lat="44.77668895276801" lon="9.390722059499945"><ele>259.0</ele><time>2026-04-29T12:16:32.999Z</time></trkpt><trkpt lat="44.77657010548782" lon="9.390608197915736"><ele>259.0</ele><time>2026-04-29T12:16:34Z</time></trkpt><trkpt lat="44.77642838429367" lon="9.390483813958964"><ele>259.0</ele><time>2026-04-29T12:16:35Z</time></trkpt><trkpt lat="44.77628977236796" lon="9.390351996125585"><ele>257.3333333333333</ele><time>2026-04-29T12:16:36Z</time></trkpt><trkpt lat="44.77615504568559" lon="9.390225598431513"><ele>255.66666666666669</ele><time>2026-04-29T12:16:37Z</time></trkpt><trkpt lat="44.776014929237405" lon="9.390094944007597"><ele>254.0</ele><time>2026-04-29T12:16:38Z</time></trkpt><trkpt lat="44.775862044295955" lon="9.389963945318067"><ele>254.0</ele><time>2026-04-29T12:16:39Z</time></trkpt><trkpt lat="44.77570040863503" lon="9.38984179956343"><ele>254.0</ele><time>2026-04-29T12:16:40Z</time></trkpt><trkpt lat="44.775536379242524" lon="9.389738313125427"><ele>254.0</ele><time>2026-04-29T12:16:41Z</time></trkpt><trkpt lat="44.775365654977755" lon="9.389642717654851"><ele>254.33333333333334</ele><time>2026-04-29T12:16:42Z</time></trkpt><trkpt lat="44.77519296321916" lon="9.389568915647336"><ele>254.66666666666669</ele><time>2026-04-29T12:16:43Z</time></trkpt><trkpt lat="44.77501960683027" lon="9.389518783062991"><ele>255.0</ele><time>2026-04-29T12:16:44Z</time></trkpt><trkpt lat="44.77483694697402" lon="9.389477851261606"><ele>255.0</ele><time>2026-04-29T12:16:45Z</time></trkpt><trkpt lat="44.77464579328789" lon="9.389454787555174"><ele>255.0</ele><time>2026-04-29T12:16:46Z</time></trkpt><trkpt lat="44.774448330589095" lon="9.389446013801997"><ele>255.0</ele><time>2026-04-29T12:16:47Z</time></trkpt><trkpt lat="44.77423822728239" lon="9.389455715264853"><ele>255.0</ele><time>2026-04-29T12:16:48Z</time></trkpt><trkpt lat="44.774020047177586" lon="9.38946783578822"><ele>255.0</ele><time>2026-04-29T12:16:49Z</time></trkpt><trkpt lat="44.773813712419205" lon="9.389468214583008"><ele>255.0</ele><time>2026-04-29T12:16:50Z</time></trkpt><trkpt lat="44.773617706914116" lon="9.389468567185569"><ele>256.6666666666667</ele><time>2026-04-29T12:16:51Z</time></trkpt><trkpt lat="44.77343336541065" lon="9.389473662350492"><ele>258.33333333333337</ele><time>2026-04-29T12:16:52Z</time></trkpt><trkpt lat="44.77326022255433" lon="9.389474108098245"><ele>260.0</ele><time>2026-04-29T12:16:53Z</time></trkpt><trkpt lat="44.773102025379075" lon="9.389463238623847"><ele>260.0</ele><time>2026-04-29T12:16:54Z</time></trkpt><trkpt lat="44.77294563456446" lon="9.389439142144695"><ele>260.0</ele><time>2026-04-29T12:16:55Z</time></trkpt><trkpt lat="44.77278835806445" lon="9.389403801691701"><ele>260.0</ele><time>2026-04-29T12:16:56Z</time></trkpt><trkpt lat="44.77262061341676" lon="9.389353140989396"><ele>259.6666666666667</ele><time>2026-04-29T12:16:57Z</time></trkpt><trkpt lat="44.77243911275318" lon="9.389274366174915"><ele>259.3333333333333</ele><time>2026-04-29T12:16:58Z</time></trkpt><trkpt lat="44.77224867924073" lon="9.389189739451236"><ele>259.0</ele><time>2026-04-29T12:16:59Z</time></trkpt><trkpt lat="44.77204815154961" lon="9.389104375073654"><ele>257.66666666666663</ele><time>2026-04-29T12:17:00Z</time></trkpt><trkpt lat="44.77184210311554" lon="9.389023012728908"><ele>256.3333333333333</ele><time>2026-04-29T12:17:01Z</time></trkpt><trkpt lat="44.77163184217486" lon="9.388935019696774"><ele>255.0</ele><time>2026-04-29T12:17:02Z</time></trkpt><trkpt lat="44.7714257889909" lon="9.388846910169004"><ele>257.3333333333333</ele><time>2026-04-29T12:17:03Z</time></trkpt><trkpt lat="44.77122824557797" lon="9.38876367996385"><ele>259.66666666666663</ele><time>2026-04-29T12:17:04Z</time></trkpt><trkpt lat="44.77102931565714" lon="9.388683288885739"><ele>262.0</ele><time>2026-04-29T12:17:05Z</time></trkpt><trkpt lat="44.770834147340565" lon="9.388606269779388"><ele>262.0</ele><time>2026-04-29T12:17:06Z</time></trkpt><trkpt lat="44.7706402125171" lon="9.388539270135146"><ele>262.0</ele><time>2026-04-29T12:17:07Z</time></trkpt><trkpt lat="44.77044733300039" lon="9.388490417451584"><ele>262.0</ele><time>2026-04-29T12:17:08Z</time></trkpt><trkpt lat="44.7702464014608" lon="9.388447985750759"><ele>261.0</ele><time>2026-04-29T12:17:09Z</time></trkpt><trkpt lat="44.770038237692" lon="9.388413375597507"><ele>260.0</ele><time>2026-04-29T12:17:10Z</time></trkpt><trkpt lat="44.76982658590818" lon="9.388397099843147"><ele>259.0</ele><time>2026-04-29T12:17:11Z</time></trkpt><trkpt lat="44.769615601426295" lon="9.38839919455792"><ele>259.0</ele><time>2026-04-29T12:17:12Z</time></trkpt><trkpt lat="44.769400862764485" lon="9.388410478710485"><ele>259.0</ele><time>2026-04-29T12:17:13Z</time></trkpt><trkpt lat="44.76918378637791" lon="9.38844093423062"><ele>259.0</ele><time>2026-04-29T12:17:14Z</time></trkpt><trkpt lat="44.76896708338858" lon="9.388486319327527"><ele>260.0</ele><time>2026-04-29T12:17:15Z</time></trkpt><trkpt lat="44.768745006845954" lon="9.388531857405583"><ele>261.0</ele><time>2026-04-29T12:17:16Z</time></trkpt><trkpt lat="44.76854703243896" lon="9.388563029687441"><ele>262.0</ele><time>2026-04-29T12:17:17Z</time></trkpt><trkpt lat="44.76834730450831" lon="9.388623212732988"><ele>262.0</ele><time>2026-04-29T12:17:18Z</time></trkpt><trkpt lat="44.76816316591899" lon="9.388686367550319"><ele>262.0</ele><time>2026-04-29T12:17:19Z</time></trkpt><trkpt lat="44.76798557532311" lon="9.388736434150392"><ele>262.0</ele><time>2026-04-29T12:17:20Z</time></trkpt><trkpt lat="44.76781415846403" lon="9.388792597370388"><ele>261.0</ele><time>2026-04-29T12:17:21Z</time></trkpt><trkpt lat="44.767643244701574" lon="9.388843423786664"><ele>260.0</ele><time>2026-04-29T12:17:22Z</time></trkpt><trkpt lat="44.7674754635491" lon="9.388896267152685"><ele>259.0</ele><time>2026-04-29T12:17:23Z</time></trkpt><trkpt lat="44.767309621629394" lon="9.388948552597013"><ele>259.0</ele><time>2026-04-29T12:17:24Z</time></trkpt><trkpt lat="44.76715203919085" lon="9.38899976512583"><ele>259.0</ele><time>2026-04-29T12:17:25Z</time></trkpt><trkpt lat="44.767001681013085" lon="9.389053084054225"><ele>259.0</ele><time>2026-04-29T12:17:26Z</time></trkpt><trkpt lat="44.766856175236725" lon="9.389108007396384"><ele>259.0</ele><time>2026-04-29T12:17:27Z</time></trkpt><trkpt lat="44.76671712892487" lon="9.389126659558265"><ele>259.0</ele><time>2026-04-29T12:17:28Z</time></trkpt><trkpt lat="44.76658299504118" lon="9.389160680688546"><ele>259.0</ele><time>2026-04-29T12:17:29Z</time></trkpt><trkpt lat="44.76646403356202" lon="9.389174267863279"><ele>259.0</ele><time>2026-04-29T12:17:30Z</time></trkpt><trkpt lat="44.76635268088502" lon="9.38917096080067"><ele>259.0</ele><time>2026-04-29T12:17:31Z</time></trkpt><trkpt lat="44.766234728808875" lon="9.389157611153495"><ele>259.0</ele><time>2026-04-29T12:17:32Z</time></trkpt><trkpt lat="44.76611506440558" lon="9.389125973637599"><ele>259.0</ele><time>2026-04-29T12:17:33Z</time></trkpt><trkpt lat="44.76598981584548" lon="9.389081963160233"><ele>259.0</ele><time>2026-04-29T12:17:34Z</time></trkpt><trkpt lat="44.765876537197514" lon="9.389019085933093"><ele>258.5</ele><time>2026-04-29T12:17:35Z</time></trkpt><trkpt lat="44.765762918402814" lon="9.38893918786778"><ele>258.0</ele><time>2026-04-29T12:17:36Z</time></trkpt><trkpt lat="44.765649333750396" lon="9.388842913968942"><ele>257.5</ele><time>2026-04-29T12:17:37Z</time></trkpt><trkpt lat="44.76554051231597" lon="9.388727555848739"><ele>257.0</ele><time>2026-04-29T12:17:38Z</time></trkpt><trkpt lat="44.765432442193614" lon="9.388569551740272"><ele>257.0</ele><time>2026-04-29T12:17:39Z</time></trkpt><trkpt lat="44.76534607257835" lon="9.388418966708755"><ele>257.0</ele><time>2026-04-29T12:17:40Z</time></trkpt><trkpt lat="44.76525691245118" lon="9.388249163475857"><ele>257.0</ele><time>2026-04-29T12:17:41Z</time></trkpt><trkpt lat="44.76516426564634" lon="9.388063678867805"><ele>257.0</ele><time>2026-04-29T12:17:42Z</time></trkpt><trkpt lat="44.765064742081805" lon="9.387857643792886"><ele>257.0</ele><time>2026-04-29T12:17:43Z</time></trkpt><trkpt lat="44.76496841448108" lon="9.387657306244085"><ele>257.0</ele><time>2026-04-29T12:17:44Z</time></trkpt><trkpt lat="44.76486529640912" lon="9.387445495068853"><ele>257.0</ele><time>2026-04-29T12:17:45Z</time></trkpt><trkpt lat="44.76476251650003" lon="9.387236485142903"><ele>259.0</ele><time>2026-04-29T12:17:46Z</time></trkpt><trkpt lat="44.76466660005934" lon="9.38704199046218"><ele>261.0</ele><time>2026-04-29T12:17:47Z</time></trkpt><trkpt lat="44.76456970683703" lon="9.386844108083626"><ele>263.0</ele><time>2026-04-29T12:17:48Z</time></trkpt><trkpt lat="44.76447295248447" lon="9.386646509289186"><ele>263.0</ele><time>2026-04-29T12:17:49Z</time></trkpt><trkpt lat="44.764377108641995" lon="9.386448854583055"><ele>263.0</ele><time>2026-04-29T12:17:50Z</time></trkpt><trkpt lat="44.76427861376409" lon="9.386253990998458"><ele>263.0</ele><time>2026-04-29T12:17:51Z</time></trkpt><trkpt lat="44.76417552961099" lon="9.386063493289537"><ele>264.0</ele><time>2026-04-29T12:17:52Z</time></trkpt><trkpt lat="44.764078242479265" lon="9.385852109072957"><ele>265.0</ele><time>2026-04-29T12:17:53Z</time></trkpt><trkpt lat="44.76398007034804" lon="9.385643771123156"><ele>266.0</ele><time>2026-04-29T12:17:54Z</time></trkpt><trkpt lat="44.76387221642375" lon="9.385422541128547"><ele>271.0</ele><time>2026-04-29T12:17:55Z</time></trkpt><trkpt lat="44.76375693916761" lon="9.385198248901009"><ele>276.0</ele><time>2026-04-29T12:17:56Z</time></trkpt><trkpt lat="44.763648795169246" lon="9.384969595238184"><ele>281.0</ele><time>2026-04-29T12:17:57Z</time></trkpt><trkpt lat="44.763548573675" lon="9.384734524744701"><ele>276.6666666666667</ele><time>2026-04-29T12:17:58Z</time></trkpt><trkpt lat="44.763450928711706" lon="9.384497919877456"><ele>272.3333333333333</ele><time>2026-04-29T12:17:59Z</time></trkpt><trkpt lat="44.76335174194321" lon="9.384268832410413"><ele>268.0</ele><time>2026-04-29T12:18:00Z</time></trkpt><trkpt lat="44.763240638206575" lon="9.384067795865963"><ele>268.0</ele><time>2026-04-29T12:18:01Z</time></trkpt><trkpt lat="44.763121303892426" lon="9.383878011945887"><ele>268.0</ele><time>2026-04-29T12:18:02Z</time></trkpt><trkpt lat="44.76299635152762" lon="9.383696931734027"><ele>268.0</ele><time>2026-04-29T12:18:03Z</time></trkpt><trkpt lat="44.762860799125725" lon="9.383537348091133"><ele>266.3333333333333</ele><time>2026-04-29T12:18:04Z</time></trkpt><trkpt lat="44.76270944783266" lon="9.383379578900135"><ele>264.6666666666667</ele><time>2026-04-29T12:18:05Z</time></trkpt><trkpt lat="44.76254060201895" lon="9.38323252848605"><ele>263.0</ele><time>2026-04-29T12:18:06Z</time></trkpt><trkpt lat="44.76235774580766" lon="9.383105028204064"><ele>263.0</ele><time>2026-04-29T12:18:07Z</time></trkpt><trkpt lat="44.762159806219245" lon="9.382983616862704"><ele>263.0</ele><time>2026-04-29T12:18:08Z</time></trkpt><trkpt lat="44.76196202000795" lon="9.382850908215383"><ele>263.0</ele><time>2026-04-29T12:18:09Z</time></trkpt><trkpt lat="44.76176553878606" lon="9.382719068594298"><ele>263.0</ele><time>2026-04-29T12:18:10Z</time></trkpt><trkpt lat="44.76157573873997" lon="9.382593348833064"><ele>263.0</ele><time>2026-04-29T12:18:11Z</time></trkpt><trkpt lat="44.76138542187488" lon="9.382457948179114"><ele>263.0</ele><time>2026-04-29T12:18:12Z</time></trkpt><trkpt lat="44.76119428361387" lon="9.382320975813672"><ele>262.0</ele><time>2026-04-29T12:18:13Z</time></trkpt><trkpt lat="44.76100215649556" lon="9.382196121562586"><ele>261.0</ele><time>2026-04-29T12:18:14Z</time></trkpt><trkpt lat="44.76080919112938" lon="9.382063154615263"><ele>260.0</ele><time>2026-04-29T12:18:15Z</time></trkpt><trkpt lat="44.760620513241264" lon="9.381935604822853"><ele>262.0</ele><time>2026-04-29T12:18:16Z</time></trkpt><trkpt lat="44.76043941413338" lon="9.381817517536762"><ele>264.0</ele><time>2026-04-29T12:18:17Z</time></trkpt><trkpt lat="44.760270150824915" lon="9.381725114366759"><ele>266.0</ele><time>2026-04-29T12:18:18Z</time></trkpt><trkpt lat="44.760097503830714" lon="9.381656203181604"><ele>266.0</ele><time>2026-04-29T12:18:19Z</time></trkpt><trkpt lat="44.75991006841992" lon="9.38161393336283"><ele>266.0</ele><time>2026-04-29T12:18:20Z</time></trkpt><trkpt lat="44.759727896548206" lon="9.381610810771436"><ele>266.0</ele><time>2026-04-29T12:18:21Z</time></trkpt><trkpt lat="44.759544854336575" lon="9.38163037449909"><ele>266.0</ele><time>2026-04-29T12:18:22Z</time></trkpt><trkpt lat="44.759356727123816" lon="9.381664943052659"><ele>266.0</ele><time>2026-04-29T12:18:23Z</time></trkpt><trkpt lat="44.7591805395621" lon="9.381706047202792"><ele>266.0</ele><time>2026-04-29T12:18:24Z</time></trkpt><trkpt lat="44.75899814708277" lon="9.381734255325075"><ele>266.0</ele><time>2026-04-29T12:18:25Z</time></trkpt><trkpt lat="44.758806548843076" lon="9.381764968319825"><ele>266.0</ele><time>2026-04-29T12:18:26Z</time></trkpt><trkpt lat="44.75861407780781" lon="9.381796257659301"><ele>266.0</ele><time>2026-04-29T12:18:27Z</time></trkpt><trkpt lat="44.75843022929773" lon="9.381830692512631"><ele>266.33333333333337</ele><time>2026-04-29T12:18:28Z</time></trkpt><trkpt lat="44.75825934670611" lon="9.381864184840289"><ele>266.6666666666667</ele><time>2026-04-29T12:18:29Z</time></trkpt><trkpt lat="44.75809210796982" lon="9.381898237590502"><ele>267.0</ele><time>2026-04-29T12:18:30Z</time></trkpt><trkpt lat="44.757932351303396" lon="9.38192321495954"><ele>267.0</ele><time>2026-04-29T12:18:31Z</time></trkpt><trkpt lat="44.757768045407516" lon="9.381952175385406"><ele>267.0</ele><time>2026-04-29T12:18:32Z</time></trkpt><trkpt lat="44.75759678536599" lon="9.381983234797207"><ele>267.0</ele><time>2026-04-29T12:18:33Z</time></trkpt><trkpt lat="44.75741808808593" lon="9.38200588089757"><ele>267.6666666666667</ele><time>2026-04-29T12:18:34Z</time></trkpt><trkpt lat="44.757232362647144" lon="9.38203896853976"><ele>268.33333333333337</ele><time>2026-04-29T12:18:34.999Z</time></trkpt><trkpt lat="44.75704431580726" lon="9.382067737182787"><ele>269.0</ele><time>2026-04-29T12:18:35.999Z</time></trkpt><trkpt lat="44.75687087411742" lon="9.382082752194266"><ele>269.6666666666667</ele><time>2026-04-29T12:18:36.999Z</time></trkpt><trkpt lat="44.75670784277443" lon="9.382080918934145"><ele>270.3333333333333</ele><time>2026-04-29T12:18:37.999Z</time></trkpt><trkpt lat="44.7565574144174" lon="9.382050950604825"><ele>271.0</ele><time>2026-04-29T12:18:39Z</time></trkpt><trkpt lat="44.7564205054009" lon="9.382008728765861"><ele>271.0</ele><time>2026-04-29T12:18:40Z</time></trkpt><trkpt lat="44.75629499135014" lon="9.381956990717867"><ele>271.0</ele><time>2026-04-29T12:18:41Z</time></trkpt><trkpt lat="44.75616704207022" lon="9.381891132406743"><ele>271.0</ele><time>2026-04-29T12:18:42Z</time></trkpt><trkpt lat="44.75602924141581" lon="9.381803965541103"><ele>271.0</ele><time>2026-04-29T12:18:43Z</time></trkpt><trkpt lat="44.7558852603597" lon="9.38169491295951"><ele>270.66666666666663</ele><time>2026-04-29T12:18:44Z</time></trkpt><trkpt lat="44.755732545504294" lon="9.381555012589603"><ele>270.3333333333333</ele><time>2026-04-29T12:18:45Z</time></trkpt><trkpt lat="44.75557133546757" lon="9.38140110725184"><ele>270.0</ele><time>2026-04-29T12:18:46Z</time></trkpt><trkpt lat="44.75541029546062" lon="9.381249770381912"><ele>270.3333333333333</ele><time>2026-04-29T12:18:47Z</time></trkpt><trkpt lat="44.75525834757673" lon="9.381117149826306"><ele>270.66666666666663</ele><time>2026-04-29T12:18:48Z</time></trkpt><trkpt lat="44.75511445554096" lon="9.3809818070617"><ele>271.0</ele><time>2026-04-29T12:18:49Z</time></trkpt><trkpt lat="44.754971563525324" lon="9.38085505011045"><ele>271.0</ele><time>2026-04-29T12:18:50Z</time></trkpt><trkpt lat="44.754829001355944" lon="9.380726882736782"><ele>271.0</ele><time>2026-04-29T12:18:51Z</time></trkpt><trkpt lat="44.75468638406386" lon="9.380593386645058"><ele>271.0</ele><time>2026-04-29T12:18:52Z</time></trkpt><trkpt lat="44.75454117767695" lon="9.380459062156191"><ele>271.0</ele><time>2026-04-29T12:18:53Z</time></trkpt><trkpt lat="44.754408744578235" lon="9.380329585214175"><ele>271.0</ele><time>2026-04-29T12:18:54Z</time></trkpt><trkpt lat="44.75427036550553" lon="9.380208764767348"><ele>271.0</ele><time>2026-04-29T12:18:55Z</time></trkpt><trkpt lat="44.75413041966981" lon="9.380098525488584"><ele>271.0</ele><time>2026-04-29T12:18:56Z</time></trkpt><trkpt lat="44.75398950661821" lon="9.380011403743607"><ele>271.0</ele><time>2026-04-29T12:18:57Z</time></trkpt><trkpt lat="44.75382677806795" lon="9.379945366493203"><ele>271.0</ele><time>2026-04-29T12:18:58Z</time></trkpt><trkpt lat="44.75363926577478" lon="9.379897937186287"><ele>268.66666666666663</ele><time>2026-04-29T12:18:59Z</time></trkpt><trkpt lat="44.753435861714294" lon="9.379872390494535"><ele>266.3333333333333</ele><time>2026-04-29T12:19:00Z</time></trkpt><trkpt lat="44.75321961002415" lon="9.379860105667447"><ele>264.0</ele><time>2026-04-29T12:19:01Z</time></trkpt><trkpt lat="44.75301514094644" lon="9.379847146897445"><ele>264.0</ele><time>2026-04-29T12:19:02Z</time></trkpt><trkpt lat="44.7528211684259" lon="9.379831517992038"><ele>264.0</ele><time>2026-04-29T12:19:03Z</time></trkpt><trkpt lat="44.75263542732898" lon="9.379812600021262"><ele>264.0</ele><time>2026-04-29T12:19:04Z</time></trkpt><trkpt lat="44.75244682136945" lon="9.379796002886303"><ele>264.3333333333333</ele><time>2026-04-29T12:19:05Z</time></trkpt><trkpt lat="44.75225743512212" lon="9.379783226933148"><ele>264.66666666666663</ele><time>2026-04-29T12:19:06Z</time></trkpt><trkpt lat="44.7520631961647" lon="9.379767902204177"><ele>265.0</ele><time>2026-04-29T12:19:07Z</time></trkpt><trkpt lat="44.75186986797601" lon="9.379746702085358"><ele>265.0</ele><time>2026-04-29T12:19:08Z</time></trkpt><trkpt lat="44.75168039101842" lon="9.379728063305647"><ele>265.0</ele><time>2026-04-29T12:19:09Z</time></trkpt><trkpt lat="44.751493027542935" lon="9.379713099558417"><ele>265.0</ele><time>2026-04-29T12:19:10Z</time></trkpt><trkpt lat="44.75130595566952" lon="9.379696740363286"><ele>264.66666666666663</ele><time>2026-04-29T12:19:11Z</time></trkpt><trkpt lat="44.7511185744918" lon="9.37968016617507"><ele>264.3333333333333</ele><time>2026-04-29T12:19:12Z</time></trkpt><trkpt lat="44.750936623278385" lon="9.379661958577051"><ele>264.0</ele><time>2026-04-29T12:19:13Z</time></trkpt><trkpt lat="44.750746202979514" lon="9.379644459763004"><ele>265.0</ele><time>2026-04-29T12:19:14Z</time></trkpt><trkpt lat="44.75055937475549" lon="9.379632669827286"><ele>266.0</ele><time>2026-04-29T12:19:15Z</time></trkpt><trkpt lat="44.75038381776526" lon="9.379625625961"><ele>267.0</ele><time>2026-04-29T12:19:16Z</time></trkpt><trkpt lat="44.75022297971227" lon="9.379641916870641"><ele>267.0</ele><time>2026-04-29T12:19:17Z</time></trkpt><trkpt lat="44.75006610481533" lon="9.379681080174874"><ele>267.0</ele><time>2026-04-29T12:19:18Z</time></trkpt><trkpt lat="44.74990053596605" lon="9.379750896515711"><ele>267.0</ele><time>2026-04-29T12:19:19Z</time></trkpt><trkpt lat="44.74973571510607" lon="9.37984607979345"><ele>268.0</ele><time>2026-04-29T12:19:20Z</time></trkpt><trkpt lat="44.749576523593326" lon="9.379962615396257"><ele>269.0</ele><time>2026-04-29T12:19:21Z</time></trkpt><trkpt lat="44.74942615057228" lon="9.380095952874687"><ele>270.0</ele><time>2026-04-29T12:19:22Z</time></trkpt><trkpt lat="44.74929514691686" lon="9.38025390885334"><ele>272.0</ele><time>2026-04-29T12:19:23Z</time></trkpt><trkpt lat="44.749175920082436" lon="9.38042064604006"><ele>274.0</ele><time>2026-04-29T12:19:24Z</time></trkpt><trkpt lat="44.74907176503859" lon="9.380599581806749"><ele>276.0</ele><time>2026-04-29T12:19:25Z</time></trkpt><trkpt lat="44.74897689593997" lon="9.380798550530336"><ele>279.0</ele><time>2026-04-29T12:19:26Z</time></trkpt><trkpt lat="44.748894696549556" lon="9.381019443884721"><ele>282.0</ele><time>2026-04-29T12:19:27Z</time></trkpt><trkpt lat="44.74881953858007" lon="9.381265353155024"><ele>285.0</ele><time>2026-04-29T12:19:28Z</time></trkpt><trkpt lat="44.74876742916803" lon="9.381529124484164"><ele>289.6666666666667</ele><time>2026-04-29T12:19:29Z</time></trkpt><trkpt lat="44.74874416109061" lon="9.381789141263274"><ele>294.33333333333337</ele><time>2026-04-29T12:19:30Z</time></trkpt><trkpt lat="44.74873666896811" lon="9.382053548006457"><ele>299.0</ele><time>2026-04-29T12:19:31Z</time></trkpt><trkpt lat="44.74874338799536" lon="9.38232416216217"><ele>301.33333333333337</ele><time>2026-04-29T12:19:32Z</time></trkpt><trkpt lat="44.74876929586081" lon="9.382587887739687"><ele>303.6666666666667</ele><time>2026-04-29T12:19:33Z</time></trkpt><trkpt lat="44.748811662667464" lon="9.382828606572701"><ele>306.0</ele><time>2026-04-29T12:19:34Z</time></trkpt><trkpt lat="44.74885593130557" lon="9.383053482817195"><ele>306.3333333333333</ele><time>2026-04-29T12:19:35Z</time></trkpt><trkpt lat="44.74889555835678" lon="9.383264301774469"><ele>306.66666666666663</ele><time>2026-04-29T12:19:36Z</time></trkpt><trkpt lat="44.748930787837594" lon="9.383468318524091"><ele>307.0</ele><time>2026-04-29T12:19:37Z</time></trkpt><trkpt lat="44.74894307506214" lon="9.383687218350579"><ele>308.66666666666663</ele><time>2026-04-29T12:19:38Z</time></trkpt><trkpt lat="44.74897011920489" lon="9.383908010740864"><ele>310.3333333333333</ele><time>2026-04-29T12:19:39Z</time></trkpt><trkpt lat="44.74897255661251" lon="9.38413227162669"><ele>312.0</ele><time>2026-04-29T12:19:40Z</time></trkpt><trkpt lat="44.74897040593826" lon="9.38435874743235"><ele>312.0</ele><time>2026-04-29T12:19:41Z</time></trkpt><trkpt lat="44.748970133505466" lon="9.38459203282107"><ele>312.0</ele><time>2026-04-29T12:19:42Z</time></trkpt><trkpt lat="44.748968757665686" lon="9.384830470680807"><ele>312.0</ele><time>2026-04-29T12:19:43Z</time></trkpt><trkpt lat="44.748960218904024" lon="9.385052368317197"><ele>311.0</ele><time>2026-04-29T12:19:44Z</time></trkpt><trkpt lat="44.74897280803812" lon="9.385274069546853"><ele>310.0</ele><time>2026-04-29T12:19:45Z</time></trkpt><trkpt lat="44.748979497679144" lon="9.385491487721366"><ele>309.0</ele><time>2026-04-29T12:19:46Z</time></trkpt><trkpt lat="44.7489775181885" lon="9.385716698107347"><ele>311.6666666666667</ele><time>2026-04-29T12:19:47Z</time></trkpt><trkpt lat="44.74897406095586" lon="9.385956017613974"><ele>314.33333333333337</ele><time>2026-04-29T12:19:48Z</time></trkpt><trkpt lat="44.74895608517703" lon="9.38619891366304"><ele>317.0</ele><time>2026-04-29T12:19:49Z</time></trkpt><trkpt lat="44.7489286668213" lon="9.386442078180542"><ele>321.6666666666667</ele><time>2026-04-29T12:19:50Z</time></trkpt><trkpt lat="44.74889506238528" lon="9.386683918720173"><ele>326.3333333333333</ele><time>2026-04-29T12:19:51Z</time></trkpt><trkpt lat="44.748851590639376" lon="9.386930788765076"><ele>331.0</ele><time>2026-04-29T12:19:52Z</time></trkpt><trkpt lat="44.748798915920524" lon="9.387177331016007"><ele>336.3333333333333</ele><time>2026-04-29T12:19:53Z</time></trkpt><trkpt lat="44.74873760309962" lon="9.387417374110989"><ele>341.6666666666667</ele><time>2026-04-29T12:19:54Z</time></trkpt><trkpt lat="44.7486649155193" lon="9.387653212491912"><ele>347.0</ele><time>2026-04-29T12:19:55Z</time></trkpt><trkpt lat="44.7485824916823" lon="9.387892526216165"><ele>333.6666666666667</ele><time>2026-04-29T12:19:56Z</time></trkpt><trkpt lat="44.74848478131598" lon="9.38811892917726"><ele>320.3333333333333</ele><time>2026-04-29T12:19:57Z</time></trkpt><trkpt lat="44.748386072343855" lon="9.388347157950744"><ele>307.0</ele><time>2026-04-29T12:19:58Z</time></trkpt><trkpt lat="44.74829369177569" lon="9.388561750093167"><ele>307.0</ele><time>2026-04-29T12:19:59Z</time></trkpt><trkpt lat="44.74820441095774" lon="9.388765878534047"><ele>307.0</ele><time>2026-04-29T12:20:00Z</time></trkpt><trkpt lat="44.7481189148992" lon="9.388964996594165"><ele>307.0</ele><time>2026-04-29T12:20:01Z</time></trkpt><trkpt lat="44.74803183729589" lon="9.389145215102847"><ele>300.0</ele><time>2026-04-29T12:20:02Z</time></trkpt><trkpt lat="44.74792176856155" lon="9.389294012160704"><ele>293.0</ele><time>2026-04-29T12:20:03Z</time></trkpt><trkpt lat="44.7478229600142" lon="9.389465070948573"><ele>286.0</ele><time>2026-04-29T12:20:04Z</time></trkpt><trkpt lat="44.74769596022437" lon="9.389599738079212"><ele>295.5</ele><time>2026-04-29T12:20:05Z</time></trkpt><trkpt lat="44.74756821093084" lon="9.389718538243365"><ele>305.0</ele><time>2026-04-29T12:20:06Z</time></trkpt><trkpt lat="44.747444834783686" lon="9.389823766047906"><ele>314.5</ele><time>2026-04-29T12:20:07Z</time></trkpt><trkpt lat="44.74731974590698" lon="9.389918208165247"><ele>324.0</ele><time>2026-04-29T12:20:08Z</time></trkpt><trkpt lat="44.74718402251769" lon="9.389988006443728"><ele>324.0</ele><time>2026-04-29T12:20:09Z</time></trkpt><trkpt lat="44.74703801425918" lon="9.390047747804022"><ele>324.0</ele><time>2026-04-29T12:20:10Z</time></trkpt><trkpt lat="44.74688929960128" lon="9.390093222259017"><ele>324.0</ele><time>2026-04-29T12:20:11Z</time></trkpt><trkpt lat="44.746734107096856" lon="9.390117763531611"><ele>318.0</ele><time>2026-04-29T12:20:12Z</time></trkpt><trkpt lat="44.74657349911906" lon="9.390121547557035"><ele>312.0</ele><time>2026-04-29T12:20:13Z</time></trkpt><trkpt lat="44.746417571885985" lon="9.390109829220979"><ele>306.0</ele><time>2026-04-29T12:20:14Z</time></trkpt><trkpt lat="44.74625468779895" lon="9.39007792525816"><ele>306.0</ele><time>2026-04-29T12:20:15Z</time></trkpt><trkpt lat="44.74609630810387" lon="9.390023620838909"><ele>306.0</ele><time>2026-04-29T12:20:16Z</time></trkpt><trkpt lat="44.74592810614159" lon="9.389952066427835"><ele>306.0</ele><time>2026-04-29T12:20:17Z</time></trkpt><trkpt lat="44.74577079969902" lon="9.389883671890612"><ele>301.0</ele><time>2026-04-29T12:20:18Z</time></trkpt><trkpt lat="44.745618384198416" lon="9.389803782500769"><ele>296.0</ele><time>2026-04-29T12:20:19Z</time></trkpt><trkpt lat="44.745471533565116" lon="9.389701950991721"><ele>291.0</ele><time>2026-04-29T12:20:20Z</time></trkpt><trkpt lat="44.74532867703509" lon="9.389591950991939"><ele>298.6666666666667</ele><time>2026-04-29T12:20:21Z</time></trkpt><trkpt lat="44.745184257951365" lon="9.38947928439045"><ele>306.33333333333337</ele><time>2026-04-29T12:20:22Z</time></trkpt><trkpt lat="44.745043121541606" lon="9.389376243332743"><ele>314.0</ele><time>2026-04-29T12:20:23Z</time></trkpt><trkpt lat="44.744908831405" lon="9.389280177660101"><ele>314.0</ele><time>2026-04-29T12:20:24Z</time></trkpt><trkpt lat="44.744776224958144" lon="9.389189285299558"><ele>314.0</ele><time>2026-04-29T12:20:25Z</time></trkpt><trkpt lat="44.744646599627735" lon="9.389123124586593"><ele>314.0</ele><time>2026-04-29T12:20:26Z</time></trkpt><trkpt lat="44.74451829948622" lon="9.389071036849863"><ele>314.0</ele><time>2026-04-29T12:20:27Z</time></trkpt><trkpt lat="44.744383891426175" lon="9.38902719078909"><ele>318.0</ele><time>2026-04-29T12:20:28Z</time></trkpt><trkpt lat="44.74424060902589" lon="9.388996849450814"><ele>322.0</ele><time>2026-04-29T12:20:29Z</time></trkpt><trkpt lat="44.74410225655665" lon="9.388983036819887"><ele>326.0</ele><time>2026-04-29T12:20:30Z</time></trkpt><trkpt lat="44.74397139666984" lon="9.388976108867807"><ele>330.0</ele><time>2026-04-29T12:20:31Z</time></trkpt><trkpt lat="44.743851323782415" lon="9.388987251681982"><ele>330.0</ele><time>2026-04-29T12:20:32Z</time></trkpt><trkpt lat="44.74373319974955" lon="9.388993411815852"><ele>330.0</ele><time>2026-04-29T12:20:33Z</time></trkpt><trkpt lat="44.74361494616349" lon="9.38900677806425"><ele>330.0</ele><time>2026-04-29T12:20:34Z</time></trkpt><trkpt lat="44.74350565369004" lon="9.389018144961057"><ele>330.0</ele><time>2026-04-29T12:20:35Z</time></trkpt><trkpt lat="44.74340707723266" lon="9.389016336750833"><ele>330.0</ele><time>2026-04-29T12:20:36Z</time></trkpt><trkpt lat="44.74331257782148" lon="9.388995400686213"><ele>332.8333333333333</ele><time>2026-04-29T12:20:37Z</time></trkpt><trkpt lat="44.743232992433285" lon="9.388966265241603"><ele>335.6666666666667</ele><time>2026-04-29T12:20:38Z</time></trkpt><trkpt lat="44.74315779388848" lon="9.38893483094743"><ele>338.5</ele><time>2026-04-29T12:20:39Z</time></trkpt><trkpt lat="44.74309393649037" lon="9.38891227624197"><ele>341.33333333333337</ele><time>2026-04-29T12:20:40Z</time></trkpt><trkpt lat="44.743012314568006" lon="9.388846397462125"><ele>344.1666666666667</ele><time>2026-04-29T12:20:42Z</time></trkpt><trkpt lat="44.74292472771936" lon="9.388815245561323"><ele>347.0</ele><time>2026-04-29T12:20:44Z</time></trkpt><trkpt lat="44.74284263100464" lon="9.388770728377903"><ele>344.20000000000005</ele><time>2026-04-29T12:20:46Z</time></trkpt><trkpt lat="44.742786116892326" lon="9.388728934379207"><ele>341.4</ele><time>2026-04-29T12:20:48Z</time></trkpt><trkpt lat="44.74273043602321" lon="9.38865068337157"><ele>338.6</ele><time>2026-04-29T12:20:51Z</time></trkpt><trkpt lat="44.742637575725304" lon="9.388643511871583"><ele>335.79999999999995</ele><time>2026-04-29T12:21:20Z</time></trkpt><trkpt lat="44.74248808283777" lon="9.388561538308796"><ele>333.0</ele><time>2026-04-29T12:21:30Z</time></trkpt><trkpt lat="44.74238858538382" lon="9.388489802874028"><ele>333.0</ele><time>2026-04-29T12:21:31Z</time></trkpt><trkpt lat="44.742253832431224" lon="9.388423637829868"><ele>333.0</ele><time>2026-04-29T12:21:32Z</time></trkpt><trkpt lat="44.7421287490208" lon="9.388341895956486"><ele>333.0</ele><time>2026-04-29T12:21:33Z</time></trkpt><trkpt lat="44.74198976267911" lon="9.388243693867055"><ele>333.0</ele><time>2026-04-29T12:21:34Z</time></trkpt><trkpt lat="44.741863089173776" lon="9.388148918200962"><ele>342.3333333333333</ele><time>2026-04-29T12:21:35.016Z</time></trkpt><trkpt lat="44.74170750455374" lon="9.388040749882128"><ele>351.66666666666663</ele><time>2026-04-29T12:21:36.016Z</time></trkpt><trkpt lat="44.741550512940144" lon="9.387928966209303"><ele>361.0</ele><time>2026-04-29T12:21:37.015Z</time></trkpt><trkpt lat="44.74141259957686" lon="9.38784077544588"><ele>361.0</ele><time>2026-04-29T12:21:38.018Z</time></trkpt><trkpt lat="44.741270548347934" lon="9.387743320592493"><ele>361.0</ele><time>2026-04-29T12:21:39.015Z</time></trkpt><trkpt lat="44.74027361259306" lon="9.387202067309419"><ele>344.3333333333333</ele><time>2026-04-29T12:21:45Z</time></trkpt><trkpt lat="44.7401027892094" lon="9.387090502807599"><ele>327.6666666666667</ele><time>2026-04-29T12:21:46Z</time></trkpt><trkpt lat="44.739897571515066" lon="9.387169306076705"><ele>311.0</ele><time>2026-04-29T12:21:47Z</time></trkpt><trkpt lat="44.73974995452578" lon="9.387174973487506"><ele>312.6666666666667</ele><time>2026-04-29T12:21:48Z</time></trkpt><trkpt lat="44.73958606126777" lon="9.387205305663402"><ele>314.3333333333333</ele><time>2026-04-29T12:21:49Z</time></trkpt><trkpt lat="44.7394077549541" lon="9.387266525744755"><ele>316.0</ele><time>2026-04-29T12:21:50Z</time></trkpt><trkpt lat="44.73924318674609" lon="9.38733708753294"><ele>320.0</ele><time>2026-04-29T12:21:51Z</time></trkpt><trkpt lat="44.73910327713399" lon="9.38742592369188"><ele>324.0</ele><time>2026-04-29T12:21:52Z</time></trkpt><trkpt lat="44.7389711721813" lon="9.387544021970637"><ele>328.0</ele><time>2026-04-29T12:21:53Z</time></trkpt><trkpt lat="44.73883148143325" lon="9.387707078030685"><ele>328.0</ele><time>2026-04-29T12:21:54Z</time></trkpt><trkpt lat="44.738676676917166" lon="9.387910765562168"><ele>328.0</ele><time>2026-04-29T12:21:55Z</time></trkpt><trkpt lat="44.73850395829291" lon="9.388113645998729"><ele>328.0</ele><time>2026-04-29T12:21:56Z</time></trkpt><trkpt lat="44.738353578583315" lon="9.388280130384418"><ele>327.3333333333333</ele><time>2026-04-29T12:21:57Z</time></trkpt><trkpt lat="44.738202382016894" lon="9.388453246064286"><ele>326.6666666666667</ele><time>2026-04-29T12:21:58Z</time></trkpt><trkpt lat="44.73805998918774" lon="9.38860519264221"><ele>326.0</ele><time>2026-04-29T12:21:59Z</time></trkpt><trkpt lat="44.73793529451797" lon="9.388745165071928"><ele>327.75</ele><time>2026-04-29T12:22:00Z</time></trkpt><trkpt lat="44.737810348632756" lon="9.38886458640363"><ele>329.5</ele><time>2026-04-29T12:22:01Z</time></trkpt><trkpt lat="44.73769593345301" lon="9.388972893532383"><ele>331.25</ele><time>2026-04-29T12:22:02Z</time></trkpt><trkpt lat="44.73758069558843" lon="9.389073240994557"><ele>333.0</ele><time>2026-04-29T12:22:03Z</time></trkpt><trkpt lat="44.73746839782574" lon="9.389179479989716"><ele>333.0</ele><time>2026-04-29T12:22:04Z</time></trkpt><trkpt lat="44.73735007182355" lon="9.389286476202807"><ele>333.0</ele><time>2026-04-29T12:22:05Z</time></trkpt><trkpt lat="44.73720055829711" lon="9.389392577366083"><ele>333.0</ele><time>2026-04-29T12:22:06Z</time></trkpt><trkpt lat="44.737033481174905" lon="9.389490717552599"><ele>330.0</ele><time>2026-04-29T12:22:07Z</time></trkpt><trkpt lat="44.73687246030601" lon="9.389560430390334"><ele>327.0</ele><time>2026-04-29T12:22:08Z</time></trkpt><trkpt lat="44.7367106710378" lon="9.389597657848336"><ele>324.0</ele><time>2026-04-29T12:22:09Z</time></trkpt><trkpt lat="44.73656702130748" lon="9.389618180191698"><ele>324.0</ele><time>2026-04-29T12:22:10Z</time></trkpt><trkpt lat="44.73641849280624" lon="9.389633046774508"><ele>324.0</ele><time>2026-04-29T12:22:11Z</time></trkpt><trkpt lat="44.736275519574825" lon="9.389641281758704"><ele>324.0</ele><time>2026-04-29T12:22:12Z</time></trkpt><trkpt lat="44.73614365704516" lon="9.389643836088464"><ele>324.0</ele><time>2026-04-29T12:22:13Z</time></trkpt><trkpt lat="44.73602887155758" lon="9.389644558810264"><ele>323.0</ele><time>2026-04-29T12:22:14Z</time></trkpt><trkpt lat="44.73590229117172" lon="9.389643003005146"><ele>322.0</ele><time>2026-04-29T12:22:15Z</time></trkpt><trkpt lat="44.73575200112855" lon="9.38966479164984"><ele>321.0</ele><time>2026-04-29T12:22:16Z</time></trkpt><trkpt lat="44.735638788168856" lon="9.389672880699703"><ele>320.0</ele><time>2026-04-29T12:22:17Z</time></trkpt><trkpt lat="44.73551846424101" lon="9.389677388420319"><ele>320.0</ele><time>2026-04-29T12:22:18Z</time></trkpt><trkpt lat="44.73540057812105" lon="9.389661331982728"><ele>320.0</ele><time>2026-04-29T12:22:19Z</time></trkpt><trkpt lat="44.735284528435066" lon="9.38963072033562"><ele>320.0</ele><time>2026-04-29T12:22:20Z</time></trkpt><trkpt lat="44.73517072051637" lon="9.389580386993481"><ele>320.0</ele><time>2026-04-29T12:22:21Z</time></trkpt><trkpt lat="44.735056324961455" lon="9.389527960571334"><ele>322.5</ele><time>2026-04-29T12:22:22Z</time></trkpt><trkpt lat="44.73494205451141" lon="9.389470328675664"><ele>325.0</ele><time>2026-04-29T12:22:23Z</time></trkpt><trkpt lat="44.73481887835671" lon="9.389410489938124"><ele>327.5</ele><time>2026-04-29T12:22:24Z</time></trkpt><trkpt lat="44.73468773982212" lon="9.389325025632024"><ele>330.0</ele><time>2026-04-29T12:22:25Z</time></trkpt><trkpt lat="44.734572280593426" lon="9.389218631292781"><ele>330.0</ele><time>2026-04-29T12:22:26Z</time></trkpt><trkpt lat="44.73445037332168" lon="9.389140963295498"><ele>330.0</ele><time>2026-04-29T12:22:27Z</time></trkpt><trkpt lat="44.73431934772789" lon="9.389097749953251"><ele>330.0</ele><time>2026-04-29T12:22:28Z</time></trkpt><trkpt lat="44.73415750756137" lon="9.389064806764631"><ele>330.0</ele><time>2026-04-29T12:22:29Z</time></trkpt><trkpt lat="44.733971974678994" lon="9.389049727661739"><ele>335.0</ele><time>2026-04-29T12:22:30Z</time></trkpt><trkpt lat="44.73378968584947" lon="9.389056466843668"><ele>340.0</ele><time>2026-04-29T12:22:31Z</time></trkpt><trkpt lat="44.733635051237314" lon="9.389090839914676"><ele>345.0</ele><time>2026-04-29T12:22:32.001Z</time></trkpt><trkpt lat="44.73349623077909" lon="9.38912872221633"><ele>345.75</ele><time>2026-04-29T12:22:33.001Z</time></trkpt><trkpt lat="44.7333854163241" lon="9.38912816279558"><ele>346.5</ele><time>2026-04-29T12:22:34.001Z</time></trkpt><trkpt lat="44.7332485582233" lon="9.389087975837821"><ele>347.25</ele><time>2026-04-29T12:22:35.001Z</time></trkpt><trkpt lat="44.73309270797024" lon="9.389041691718083"><ele>348.0</ele><time>2026-04-29T12:22:36.001Z</time></trkpt><trkpt lat="44.732915737739596" lon="9.389035053114014"><ele>348.0</ele><time>2026-04-29T12:22:37.001Z</time></trkpt><trkpt lat="44.73274699101582" lon="9.38900468783374"><ele>348.0</ele><time>2026-04-29T12:22:38.001Z</time></trkpt><trkpt lat="44.732593073814044" lon="9.388997285364828"><ele>348.0</ele><time>2026-04-29T12:22:39.001Z</time></trkpt><trkpt lat="44.73250301637736" lon="9.388979309131788"><ele>348.0</ele><time>2026-04-29T12:22:40.001Z</time></trkpt><trkpt lat="44.73241381828489" lon="9.388923200568248"><ele>342.0</ele><time>2026-04-29T12:22:41.001Z</time></trkpt><trkpt lat="44.73234561400226" lon="9.388833339491951"><ele>336.0</ele><time>2026-04-29T12:22:42.001Z</time></trkpt><trkpt lat="44.732281567353" lon="9.388700815844837"><ele>330.0</ele><time>2026-04-29T12:22:43.001Z</time></trkpt><trkpt lat="44.73220414716334" lon="9.38860825545893"><ele>324.0</ele><time>2026-04-29T12:22:44.001Z</time></trkpt><trkpt lat="44.732085868463166" lon="9.388526376978767"><ele>318.0</ele><time>2026-04-29T12:22:45.001Z</time></trkpt><trkpt lat="44.73194700808469" lon="9.388456307537247"><ele>323.75</ele><time>2026-04-29T12:22:46.001Z</time></trkpt><trkpt lat="44.731818812070834" lon="9.38840646433238"><ele>329.5</ele><time>2026-04-29T12:22:47Z</time></trkpt><trkpt lat="44.731694983142056" lon="9.388376230760688"><ele>335.25</ele><time>2026-04-29T12:22:48Z</time></trkpt><trkpt lat="44.73156066403774" lon="9.388380403384309"><ele>341.0</ele><time>2026-04-29T12:22:49Z</time></trkpt><trkpt lat="44.73142765418545" lon="9.388424031710063"><ele>341.0</ele><time>2026-04-29T12:22:50Z</time></trkpt><trkpt lat="44.73130170235387" lon="9.38846985746624"><ele>341.0</ele><time>2026-04-29T12:22:51Z</time></trkpt><trkpt lat="44.73118778190008" lon="9.38847962951528"><ele>341.0</ele><time>2026-04-29T12:22:52Z</time></trkpt><trkpt lat="44.731094124268154" lon="9.388461837016239"><ele>341.0</ele><time>2026-04-29T12:22:53Z</time></trkpt><trkpt lat="44.73102726070585" lon="9.388413390336769"><ele>341.0</ele><time>2026-04-29T12:22:54Z</time></trkpt><trkpt lat="44.73098232335734" lon="9.388334952456185"><ele>344.1666666666667</ele><time>2026-04-29T12:22:55Z</time></trkpt><trkpt lat="44.73095815521929" lon="9.388244958145409"><ele>347.33333333333337</ele><time>2026-04-29T12:22:56Z</time></trkpt><trkpt lat="44.73092774141821" lon="9.388157349337742"><ele>350.5</ele><time>2026-04-29T12:22:57Z</time></trkpt><trkpt lat="44.73085560429887" lon="9.388114227613167"><ele>353.6666666666667</ele><time>2026-04-29T12:22:59Z</time></trkpt><trkpt lat="44.73075840968284" lon="9.388103821838214"><ele>356.8333333333333</ele><time>2026-04-29T12:39:28Z</time></trkpt><trkpt lat="44.730630714289354" lon="9.38811863362192"><ele>360.0</ele><time>2026-04-29T12:39:30Z</time></trkpt><trkpt lat="44.73055431810147" lon="9.388114844424768"><ele>360.0</ele><time>2026-04-29T12:39:31Z</time></trkpt><trkpt lat="44.730484394919564" lon="9.388110397404354"><ele>360.0</ele><time>2026-04-29T12:39:32Z</time></trkpt><trkpt lat="44.73042940607766" lon="9.388037313260776"><ele>360.0</ele><time>2026-04-29T12:39:33Z</time></trkpt><trkpt lat="44.73031054660507" lon="9.387957138778205"><ele>360.0</ele><time>2026-04-29T12:39:35Z</time></trkpt><trkpt lat="44.73025035125053" lon="9.387912103356983"><ele>360.0</ele><time>2026-04-29T12:39:36Z</time></trkpt><trkpt lat="44.730189615084235" lon="9.38786666362001"><ele>360.0</ele><time>2026-04-29T12:39:37Z</time></trkpt><trkpt lat="44.73011904316775" lon="9.387818768194514"><ele>356.0</ele><time>2026-04-29T12:39:37.999Z</time></trkpt><trkpt lat="44.730056623458395" lon="9.38778533737303"><ele>352.0</ele><time>2026-04-29T12:39:38.999Z</time></trkpt><trkpt lat="44.72997971835055" lon="9.387757901560715"><ele>348.0</ele><time>2026-04-29T12:39:39.999Z</time></trkpt><trkpt lat="44.72989757937174" lon="9.387735666732684"><ele>344.0</ele><time>2026-04-29T12:39:40.999Z</time></trkpt><trkpt lat="44.7298268207757" lon="9.387696398197162"><ele>340.0</ele><time>2026-04-29T12:39:41.999Z</time></trkpt><trkpt lat="44.72976720198342" lon="9.387639335398664"><ele>336.0</ele><time>2026-04-29T12:39:42.999Z</time></trkpt><trkpt lat="44.729714241041975" lon="9.387555724245338"><ele>336.0</ele><time>2026-04-29T12:39:43.999Z</time></trkpt><trkpt lat="44.729650695717424" lon="9.387470041052815"><ele>336.0</ele><time>2026-04-29T12:39:44.999Z</time></trkpt><trkpt lat="44.72957553981583" lon="9.387394830891902"><ele>336.0</ele><time>2026-04-29T12:39:45.999Z</time></trkpt><trkpt lat="44.72948778571337" lon="9.387343524987743"><ele>336.0</ele><time>2026-04-29T12:39:46.999Z</time></trkpt><trkpt lat="44.72938256039523" lon="9.387330523255756"><ele>336.0</ele><time>2026-04-29T12:39:47.999Z</time></trkpt><trkpt lat="44.72927994409338" lon="9.387344965180075"><ele>343.8</ele><time>2026-04-29T12:39:48.999Z</time></trkpt><trkpt lat="44.729181616144686" lon="9.38735617882121"><ele>351.6</ele><time>2026-04-29T12:39:49.999Z</time></trkpt><trkpt lat="44.72909066883247" lon="9.387345709161771"><ele>359.4</ele><time>2026-04-29T12:39:51Z</time></trkpt><trkpt lat="44.72900040716822" lon="9.387312714229882"><ele>367.2</ele><time>2026-04-29T12:39:52Z</time></trkpt><trkpt lat="44.72891188387727" lon="9.387265815061824"><ele>375.0</ele><time>2026-04-29T12:39:53Z</time></trkpt><trkpt lat="44.72884746675497" lon="9.38719899338895"><ele>372.5</ele><time>2026-04-29T12:39:54Z</time></trkpt><trkpt lat="44.72880120530834" lon="9.387115059496598"><ele>370.0</ele><time>2026-04-29T12:39:55Z</time></trkpt><trkpt lat="44.728768051143085" lon="9.387004267478613"><ele>367.5</ele><time>2026-04-29T12:39:56Z</time></trkpt><trkpt lat="44.72874172960877" lon="9.386882832768421"><ele>365.0</ele><time>2026-04-29T12:39:57Z</time></trkpt><trkpt lat="44.72870654157392" lon="9.386786579959848"><ele>362.5</ele><time>2026-04-29T12:39:58Z</time></trkpt><trkpt lat="44.72864328796128" lon="9.386697759827719"><ele>360.0</ele><time>2026-04-29T12:39:59Z</time></trkpt><trkpt lat="44.72854834700349" lon="9.386664639540612"><ele>360.0</ele><time>2026-04-29T12:40:00Z</time></trkpt><trkpt lat="44.728454087795114" lon="9.386644215190257"><ele>360.0</ele><time>2026-04-29T12:40:01Z</time></trkpt><trkpt lat="44.72836322256891" lon="9.386627526758767"><ele>360.0</ele><time>2026-04-29T12:40:02Z</time></trkpt><trkpt lat="44.728268708141755" lon="9.386606871566654"><ele>360.0</ele><time>2026-04-29T12:40:03Z</time></trkpt><trkpt lat="44.72816993316833" lon="9.38657840823087"><ele>360.0</ele><time>2026-04-29T12:40:04Z</time></trkpt><trkpt lat="44.728057228770396" lon="9.386536661465469"><ele>360.0</ele><time>2026-04-29T12:40:05Z</time></trkpt><trkpt lat="44.72793588105431" lon="9.386486297320769"><ele>360.0</ele><time>2026-04-29T12:40:06Z</time></trkpt><trkpt lat="44.727811063061914" lon="9.386422651134957"><ele>360.0</ele><time>2026-04-29T12:40:07Z</time></trkpt><trkpt lat="44.727694360495754" lon="9.386344759682737"><ele>360.0</ele><time>2026-04-29T12:40:08Z</time></trkpt><trkpt lat="44.72758156996237" lon="9.386259229982473"><ele>353.25</ele><time>2026-04-29T12:40:09Z</time></trkpt><trkpt lat="44.727478381232956" lon="9.386172821992226"><ele>346.5</ele><time>2026-04-29T12:40:10Z</time></trkpt><trkpt lat="44.72737111440935" lon="9.386081852453332"><ele>339.75</ele><time>2026-04-29T12:40:11Z</time></trkpt><trkpt lat="44.727262174090406" lon="9.385992201118533"><ele>333.0</ele><time>2026-04-29T12:40:12Z</time></trkpt><trkpt lat="44.727160429330745" lon="9.385917708451174"><ele>333.0</ele><time>2026-04-29T12:40:13Z</time></trkpt><trkpt lat="44.72707199748754" lon="9.385852721404802"><ele>333.0</ele><time>2026-04-29T12:40:14Z</time></trkpt><trkpt lat="44.72699597874523" lon="9.385780294786107"><ele>333.0</ele><time>2026-04-29T12:40:15Z</time></trkpt><trkpt lat="44.72693707052753" lon="9.385692815700162"><ele>333.0</ele><time>2026-04-29T12:40:16Z</time></trkpt><trkpt lat="44.72688465451363" lon="9.38559961782922"><ele>333.0</ele><time>2026-04-29T12:40:17Z</time></trkpt><trkpt lat="44.72684314652148" lon="9.385523626891263"><ele>333.0</ele><time>2026-04-29T12:40:18Z</time></trkpt><trkpt lat="44.7267481460606" lon="9.385433668234704"><ele>330.7142857142857</ele><time>2026-04-29T12:40:20Z</time></trkpt><trkpt lat="44.72668461596151" lon="9.385397845141153"><ele>328.4285714285714</ele><time>2026-04-29T12:40:21Z</time></trkpt><trkpt lat="44.72661684206222" lon="9.385363613334684"><ele>326.1428571428571</ele><time>2026-04-29T12:40:22Z</time></trkpt><trkpt lat="44.72654315975097" lon="9.385329052054683"><ele>323.8571428571429</ele><time>2026-04-29T12:40:23Z</time></trkpt><trkpt lat="44.72646764035472" lon="9.385292468703744"><ele>321.57142857142856</ele><time>2026-04-29T12:40:24Z</time></trkpt><trkpt lat="44.72639780837281" lon="9.385251544952235"><ele>319.2857142857143</ele><time>2026-04-29T12:40:25Z</time></trkpt><trkpt lat="44.72633409956762" lon="9.385213616294774"><ele>317.0</ele><time>2026-04-29T12:40:26Z</time></trkpt><trkpt lat="44.726260171282235" lon="9.38521154289397"><ele>317.0</ele><time>2026-04-29T12:40:27Z</time></trkpt><trkpt lat="44.72621313280181" lon="9.385281623456232"><ele>317.0</ele><time>2026-04-29T12:40:28Z</time></trkpt><trkpt lat="44.72616594838162" lon="9.38540887440119"><ele>317.0</ele><time>2026-04-29T12:40:30Z</time></trkpt><trkpt lat="44.72619751091064" lon="9.385573004163636"><ele>317.0</ele><time>2026-04-29T12:40:32Z</time></trkpt><trkpt lat="44.72622976268565" lon="9.385673732281758"><ele>317.0</ele><time>2026-04-29T12:40:33Z</time></trkpt><trkpt lat="44.72626119256874" lon="9.385789942923758"><ele>325.0</ele><time>2026-04-29T12:40:34Z</time></trkpt><trkpt lat="44.72628233323746" lon="9.385921598305506"><ele>333.0</ele><time>2026-04-29T12:40:35Z</time></trkpt><trkpt lat="44.72630551345679" lon="9.386055107347316"><ele>341.0</ele><time>2026-04-29T12:40:36Z</time></trkpt><trkpt lat="44.72633409732285" lon="9.3861960357504"><ele>349.0</ele><time>2026-04-29T12:40:37Z</time></trkpt><trkpt lat="44.72635904885698" lon="9.38634634891695"><ele>357.0</ele><time>2026-04-29T12:40:38Z</time></trkpt><trkpt lat="44.726386974498844" lon="9.38648869306137"><ele>360.8</ele><time>2026-04-29T12:40:39Z</time></trkpt><trkpt lat="44.72641019230338" lon="9.386619613160171"><ele>364.6</ele><time>2026-04-29T12:40:40Z</time></trkpt><trkpt lat="44.72642340209135" lon="9.386748941046905"><ele>368.40000000000003</ele><time>2026-04-29T12:40:41Z</time></trkpt><trkpt lat="44.72642213484745" lon="9.386875299693635"><ele>372.20000000000005</ele><time>2026-04-29T12:40:42Z</time></trkpt><trkpt lat="44.726404615851706" lon="9.386996798072884"><ele>376.0</ele><time>2026-04-29T12:40:43Z</time></trkpt><trkpt lat="44.72637653956099" lon="9.387125469939253"><ele>379.8</ele><time>2026-04-29T12:40:44Z</time></trkpt><trkpt lat="44.72634403696711" lon="9.387254872509954"><ele>383.6</ele><time>2026-04-29T12:40:45Z</time></trkpt><trkpt lat="44.72628546931099" lon="9.387374524076158"><ele>387.4</ele><time>2026-04-29T12:40:46Z</time></trkpt><trkpt lat="44.726238377481884" lon="9.387510537618107"><ele>391.2</ele><time>2026-04-29T12:40:47Z</time></trkpt><trkpt lat="44.72617567224228" lon="9.387636839972544"><ele>395.0</ele><time>2026-04-29T12:40:48Z</time></trkpt><trkpt lat="44.72611185079718" lon="9.387762654983957"><ele>389.8</ele><time>2026-04-29T12:40:49Z</time></trkpt><trkpt lat="44.72605217815583" lon="9.38789290646518"><ele>384.6</ele><time>2026-04-29T12:40:50Z</time></trkpt><trkpt lat="44.72599682071758" lon="9.388023346854625"><ele>379.4</ele><time>2026-04-29T12:40:51Z</time></trkpt><trkpt lat="44.7259251988609" lon="9.388132999160163"><ele>374.2</ele><time>2026-04-29T12:40:52Z</time></trkpt><trkpt lat="44.72586158026856" lon="9.388257362219406"><ele>369.0</ele><time>2026-04-29T12:40:53Z</time></trkpt><trkpt lat="44.72576936878634" lon="9.38836460791641"><ele>369.0</ele><time>2026-04-29T12:40:54Z</time></trkpt><trkpt lat="44.72567403914292" lon="9.388471443310825"><ele>369.0</ele><time>2026-04-29T12:40:55Z</time></trkpt><trkpt lat="44.72558491195474" lon="9.388568412306759"><ele>369.0</ele><time>2026-04-29T12:40:56Z</time></trkpt><trkpt lat="44.72548442675459" lon="9.38865343911513"><ele>369.0</ele><time>2026-04-29T12:40:57Z</time></trkpt><trkpt lat="44.72539384918078" lon="9.388740881906536"><ele>369.0</ele><time>2026-04-29T12:40:58Z</time></trkpt><trkpt lat="44.72530226726887" lon="9.388810320529643"><ele>369.0</ele><time>2026-04-29T12:40:59Z</time></trkpt><trkpt lat="44.72520865715475" lon="9.3888689184139"><ele>369.0</ele><time>2026-04-29T12:41:00Z</time></trkpt><trkpt lat="44.725124170149506" lon="9.388931744031167"><ele>369.0</ele><time>2026-04-29T12:41:01Z</time></trkpt><trkpt lat="44.72504710107492" lon="9.389010383314027"><ele>369.0</ele><time>2026-04-29T12:41:02Z</time></trkpt><trkpt lat="44.72498142597677" lon="9.38910791634739"><ele>367.0</ele><time>2026-04-29T12:41:03Z</time></trkpt><trkpt lat="44.72492676252737" lon="9.389223761666848"><ele>365.0</ele><time>2026-04-29T12:41:04Z</time></trkpt><trkpt lat="44.724884050150955" lon="9.389356636648873"><ele>363.0</ele><time>2026-04-29T12:41:05Z</time></trkpt><trkpt lat="44.72484533760789" lon="9.38950074360517"><ele>361.0</ele><time>2026-04-29T12:41:06Z</time></trkpt><trkpt lat="44.72480877825029" lon="9.389637737047108"><ele>359.0</ele><time>2026-04-29T12:41:07Z</time></trkpt><trkpt lat="44.72476866586187" lon="9.389767972801053"><ele>359.0</ele><time>2026-04-29T12:41:08Z</time></trkpt><trkpt lat="44.72473927091418" lon="9.389902525258863"><ele>359.0</ele><time>2026-04-29T12:41:09Z</time></trkpt><trkpt lat="44.72474065181172" lon="9.390034594827531"><ele>359.0</ele><time>2026-04-29T12:41:10Z</time></trkpt><trkpt lat="44.72476813897592" lon="9.390153547960479"><ele>359.0</ele><time>2026-04-29T12:41:11Z</time></trkpt><trkpt lat="44.72482213943282" lon="9.390257898059165"><ele>359.0</ele><time>2026-04-29T12:41:12Z</time></trkpt><trkpt lat="44.72488165601756" lon="9.390366620479469"><ele>359.0</ele><time>2026-04-29T12:41:13Z</time></trkpt><trkpt lat="44.72493069285412" lon="9.390465375545425"><ele>359.0</ele><time>2026-04-29T12:41:14Z</time></trkpt><trkpt lat="44.72494512610796" lon="9.390565014924816"><ele>359.0</ele><time>2026-04-29T12:41:15Z</time></trkpt><trkpt lat="44.72493147895036" lon="9.390672946231703"><ele>359.0</ele><time>2026-04-29T12:41:16Z</time></trkpt><trkpt lat="44.72490372031287" lon="9.390786821669412"><ele>359.0</ele><time>2026-04-29T12:41:17Z</time></trkpt><trkpt lat="44.72486904175817" lon="9.390916661217902"><ele>359.0</ele><time>2026-04-29T12:41:18Z</time></trkpt><trkpt lat="44.72483915107324" lon="9.39105632160789"><ele>359.75</ele><time>2026-04-29T12:41:19Z</time></trkpt><trkpt lat="44.72480713336043" lon="9.391207357212524"><ele>360.5</ele><time>2026-04-29T12:41:20Z</time></trkpt><trkpt lat="44.724767500047655" lon="9.391380445794317"><ele>361.25</ele><time>2026-04-29T12:41:21Z</time></trkpt><trkpt lat="44.724730250478906" lon="9.391551438828824"><ele>362.0</ele><time>2026-04-29T12:41:22Z</time></trkpt><trkpt lat="44.7246805135664" lon="9.391706347490288"><ele>362.0</ele><time>2026-04-29T12:41:23Z</time></trkpt><trkpt lat="44.7246339389664" lon="9.391870786932758"><ele>362.0</ele><time>2026-04-29T12:41:24Z</time></trkpt><trkpt lat="44.724592282096864" lon="9.392036881557345"><ele>362.0</ele><time>2026-04-29T12:41:25Z</time></trkpt><trkpt lat="44.724546700949695" lon="9.392190161367704"><ele>362.0</ele><time>2026-04-29T12:41:26Z</time></trkpt><trkpt lat="44.72450818881605" lon="9.392336623011746"><ele>366.25</ele><time>2026-04-29T12:41:27Z</time></trkpt><trkpt lat="44.72445493644067" lon="9.392472344858048"><ele>370.5</ele><time>2026-04-29T12:41:28Z</time></trkpt><trkpt lat="44.72437642121319" lon="9.392611496558263"><ele>374.75</ele><time>2026-04-29T12:41:29Z</time></trkpt><trkpt lat="44.724294112779624" lon="9.392756898832861"><ele>379.0</ele><time>2026-04-29T12:41:30Z</time></trkpt><trkpt lat="44.72420527751841" lon="9.39290795211483"><ele>375.75</ele><time>2026-04-29T12:41:31Z</time></trkpt><trkpt lat="44.7241121324258" lon="9.393055082594458"><ele>372.5</ele><time>2026-04-29T12:41:32Z</time></trkpt><trkpt lat="44.72401951375602" lon="9.393189841976588"><ele>369.25</ele><time>2026-04-29T12:41:33Z</time></trkpt><trkpt lat="44.723958247701816" lon="9.39331727366673"><ele>366.0</ele><time>2026-04-29T12:41:34Z</time></trkpt><trkpt lat="44.723916026967345" lon="9.39341514695575"><ele>366.0</ele><time>2026-04-29T12:41:35Z</time></trkpt><trkpt lat="44.72382792875479" lon="9.393541712834931"><ele>366.0</ele><time>2026-04-29T12:41:37Z</time></trkpt><trkpt lat="44.72376828079938" lon="9.393605396571802"><ele>366.0</ele><time>2026-04-29T12:41:38Z</time></trkpt><trkpt lat="44.72370210802226" lon="9.393671509538535"><ele>366.0</ele><time>2026-04-29T12:41:39Z</time></trkpt><trkpt lat="44.7236174225969" lon="9.393728392973243"><ele>366.0</ele><time>2026-04-29T12:41:40Z</time></trkpt><trkpt lat="44.72352164152997" lon="9.393782597951674"><ele>366.5</ele><time>2026-04-29T12:41:40.998Z</time></trkpt><trkpt lat="44.72341301553907" lon="9.393832174819956"><ele>367.0</ele><time>2026-04-29T12:41:41.998Z</time></trkpt><trkpt lat="44.723294594728344" lon="9.393883640827923"><ele>367.5</ele><time>2026-04-29T12:41:42.998Z</time></trkpt><trkpt lat="44.72316972233648" lon="9.393925443038182"><ele>368.0</ele><time>2026-04-29T12:41:43.998Z</time></trkpt><trkpt lat="44.7230395813745" lon="9.393982824458597"><ele>368.0</ele><time>2026-04-29T12:41:44.998Z</time></trkpt><trkpt lat="44.722911791558566" lon="9.394032304526425"><ele>368.0</ele><time>2026-04-29T12:41:45.998Z</time></trkpt><trkpt lat="44.72279952293496" lon="9.394079613153318"><ele>368.0</ele><time>2026-04-29T12:41:46.998Z</time></trkpt><trkpt lat="44.72271133873125" lon="9.39414503164958"><ele>368.0</ele><time>2026-04-29T12:41:47.998Z</time></trkpt><trkpt lat="44.722644826782386" lon="9.394242824285469"><ele>368.0</ele><time>2026-04-29T12:41:48.998Z</time></trkpt><trkpt lat="44.72259800319708" lon="9.394355991938331"><ele>362.4</ele><time>2026-04-29T12:41:49.998Z</time></trkpt><trkpt lat="44.72259031894126" lon="9.394468183375924"><ele>356.79999999999995</ele><time>2026-04-29T12:41:50.998Z</time></trkpt><trkpt lat="44.72249653968299" lon="9.394562150254222"><ele>351.2</ele><time>2026-04-29T12:41:52.998Z</time></trkpt><trkpt lat="44.72236404756776" lon="9.39453868247115"><ele>345.6</ele><time>2026-04-29T12:41:54.998Z</time></trkpt><trkpt lat="44.722322504751496" lon="9.394436893592896"><ele>340.0</ele><time>2026-04-29T12:41:55.998Z</time></trkpt><trkpt lat="44.72225103557465" lon="9.394340445294953"><ele>340.0</ele><time>2026-04-29T12:41:56.998Z</time></trkpt><trkpt lat="44.72218655665021" lon="9.394220723581272"><ele>340.0</ele><time>2026-04-29T12:41:57.999Z</time></trkpt><trkpt lat="44.72211700628327" lon="9.39411105574537"><ele>340.0</ele><time>2026-04-29T12:41:58.999Z</time></trkpt><trkpt lat="44.72203324727125" lon="9.394005682427457"><ele>340.0</ele><time>2026-04-29T12:41:59.999Z</time></trkpt><trkpt lat="44.721931681281774" lon="9.393919627342008"><ele>340.0</ele><time>2026-04-29T12:42:00.999Z</time></trkpt><trkpt lat="44.72183021525537" lon="9.393841926354492"><ele>339.25</ele><time>2026-04-29T12:42:01.999Z</time></trkpt><trkpt lat="44.72171618883685" lon="9.393808018014031"><ele>338.5</ele><time>2026-04-29T12:42:02.999Z</time></trkpt><trkpt lat="44.72159499667024" lon="9.39383155014024"><ele>337.75</ele><time>2026-04-29T12:42:03.999Z</time></trkpt><trkpt lat="44.72149372362279" lon="9.393906803200329"><ele>337.0</ele><time>2026-04-29T12:42:04.999Z</time></trkpt><trkpt lat="44.72141890875798" lon="9.39403342731283"><ele>337.0</ele><time>2026-04-29T12:42:05.999Z</time></trkpt><trkpt lat="44.72138965037497" lon="9.394184388867787"><ele>337.0</ele><time>2026-04-29T12:42:06.999Z</time></trkpt><trkpt lat="44.72136869804653" lon="9.394335032882722"><ele>337.0</ele><time>2026-04-29T12:42:07.999Z</time></trkpt><trkpt lat="44.72132951030087" lon="9.394479261294093"><ele>337.0</ele><time>2026-04-29T12:42:08.999Z</time></trkpt><trkpt lat="44.72126594154783" lon="9.394573429111283"><ele>337.0</ele><time>2026-04-29T12:42:09.999Z</time></trkpt><trkpt lat="44.721181140362646" lon="9.394673475005732"><ele>340.0</ele><time>2026-04-29T12:42:10.999Z</time></trkpt><trkpt lat="44.72108227182836" lon="9.394785072280431"><ele>343.0</ele><time>2026-04-29T12:42:11.999Z</time></trkpt><trkpt lat="44.72097934095966" lon="9.394890787194624"><ele>346.0</ele><time>2026-04-29T12:42:12.999Z</time></trkpt><trkpt lat="44.72088900115261" lon="9.394967126613988"><ele>349.0</ele><time>2026-04-29T12:42:13.999Z</time></trkpt><trkpt lat="44.72080384766309" lon="9.395013986269483"><ele>349.0</ele><time>2026-04-29T12:42:14.999Z</time></trkpt><trkpt lat="44.72072423037945" lon="9.395028871367563"><ele>349.0</ele><time>2026-04-29T12:42:15.999Z</time></trkpt><trkpt lat="44.72064445255129" lon="9.395027423762514"><ele>349.0</ele><time>2026-04-29T12:42:16.999Z</time></trkpt><trkpt lat="44.7205782404077" lon="9.395000734378746"><ele>349.0</ele><time>2026-04-29T12:42:17.999Z</time></trkpt><trkpt lat="44.72049025049112" lon="9.394871592656065"><ele>349.0</ele><time>2026-04-29T12:42:19.999Z</time></trkpt><trkpt lat="44.72047897830507" lon="9.394736952429948"><ele>343.0</ele><time>2026-04-29T12:42:20.999Z</time></trkpt><trkpt lat="44.72048566686064" lon="9.394574485229437"><ele>337.0</ele><time>2026-04-29T12:42:21.999Z</time></trkpt><trkpt lat="44.720496184242535" lon="9.394390356696809"><ele>331.0</ele><time>2026-04-29T12:42:22.999Z</time></trkpt><trkpt lat="44.72051096383976" lon="9.394214648998446"><ele>325.0</ele><time>2026-04-29T12:42:23.999Z</time></trkpt><trkpt lat="44.72055130092995" lon="9.394051778563332"><ele>325.0</ele><time>2026-04-29T12:42:24.999Z</time></trkpt><trkpt lat="44.7206240031999" lon="9.393891297422382"><ele>325.0</ele><time>2026-04-29T12:42:25.999Z</time></trkpt><trkpt lat="44.720704528116066" lon="9.393737604306713"><ele>325.0</ele><time>2026-04-29T12:42:26.999Z</time></trkpt><trkpt lat="44.7207687921468" lon="9.393592243194076"><ele>325.0</ele><time>2026-04-29T12:42:27.999Z</time></trkpt><trkpt lat="44.72081723280264" lon="9.39345903053115"><ele>325.4</ele><time>2026-04-29T12:42:28.999Z</time></trkpt><trkpt lat="44.720836010672976" lon="9.393323859876377"><ele>325.8</ele><time>2026-04-29T12:42:29.999Z</time></trkpt><trkpt lat="44.72083716797904" lon="9.393191151300952"><ele>326.20000000000005</ele><time>2026-04-29T12:42:30.999Z</time></trkpt><trkpt lat="44.72078756286427" lon="9.393065739467279"><ele>326.6</ele><time>2026-04-29T12:42:31.999Z</time></trkpt><trkpt lat="44.72069847249418" lon="9.392934274878346"><ele>327.0</ele><time>2026-04-29T12:42:32.999Z</time></trkpt><trkpt lat="44.72059200528165" lon="9.392810547495548"><ele>325.75</ele><time>2026-04-29T12:42:33.999Z</time></trkpt><trkpt lat="44.720515599263464" lon="9.392668406478576"><ele>324.5</ele><time>2026-04-29T12:42:34.999Z</time></trkpt><trkpt lat="44.72045578190077" lon="9.39251797323911"><ele>323.25</ele><time>2026-04-29T12:42:35.999Z</time></trkpt><trkpt lat="44.72038235331138" lon="9.3923276131114"><ele>322.0</ele><time>2026-04-29T12:42:36.999Z</time></trkpt><trkpt lat="44.72033057057716" lon="9.392136579074654"><ele>318.75</ele><time>2026-04-29T12:42:37.999Z</time></trkpt><trkpt lat="44.72029280871636" lon="9.39196784488765"><ele>315.5</ele><time>2026-04-29T12:42:38.999Z</time></trkpt><trkpt lat="44.720271035906414" lon="9.391789365129878"><ele>312.25</ele><time>2026-04-29T12:42:39.999Z</time></trkpt><trkpt lat="44.72026902876089" lon="9.391592772934313"><ele>309.0</ele><time>2026-04-29T12:42:40.999Z</time></trkpt><trkpt lat="44.72025865560261" lon="9.391401653397697"><ele>307.5</ele><time>2026-04-29T12:42:41.999Z</time></trkpt><trkpt lat="44.72025734102371" lon="9.391210122049072"><ele>306.0</ele><time>2026-04-29T12:42:43Z</time></trkpt><trkpt lat="44.72024333838386" lon="9.391027305268791"><ele>304.5</ele><time>2026-04-29T12:42:44Z</time></trkpt><trkpt lat="44.72022632808971" lon="9.390833859874313"><ele>303.0</ele><time>2026-04-29T12:42:45Z</time></trkpt><trkpt lat="44.720212518818535" lon="9.390650425767088"><ele>307.0</ele><time>2026-04-29T12:42:46Z</time></trkpt><trkpt lat="44.720188713477256" lon="9.390494400810567"><ele>311.0</ele><time>2026-04-29T12:42:47Z</time></trkpt><trkpt lat="44.7201456814233" lon="9.390351670368277"><ele>315.0</ele><time>2026-04-29T12:42:48Z</time></trkpt><trkpt lat="44.72009673095017" lon="9.390206328836067"><ele>319.0</ele><time>2026-04-29T12:42:49Z</time></trkpt><trkpt lat="44.71999571544392" lon="9.3900988576961"><ele>319.0</ele><time>2026-04-29T12:42:50Z</time></trkpt><trkpt lat="44.71985930608421" lon="9.390029531844588"><ele>319.0</ele><time>2026-04-29T12:42:51Z</time></trkpt><trkpt lat="44.719701099384224" lon="9.389978294827767"><ele>319.0</ele><time>2026-04-29T12:42:52Z</time></trkpt><trkpt lat="44.71955087028854" lon="9.389949813539623"><ele>319.0</ele><time>2026-04-29T12:42:53Z</time></trkpt><trkpt lat="44.71941255043957" lon="9.38994199920274"><ele>319.0</ele><time>2026-04-29T12:42:54Z</time></trkpt><trkpt lat="44.71928332660379" lon="9.389949162604198"><ele>319.0</ele><time>2026-04-29T12:42:55Z</time></trkpt><trkpt lat="44.71915916144425" lon="9.389969211922635"><ele>319.0</ele><time>2026-04-29T12:42:56Z</time></trkpt><trkpt lat="44.719033497508654" lon="9.390048112431879"><ele>320.0</ele><time>2026-04-29T12:42:57Z</time></trkpt><trkpt lat="44.71891725778308" lon="9.390136776019206"><ele>321.0</ele><time>2026-04-29T12:42:58Z</time></trkpt><trkpt lat="44.71880308653677" lon="9.390197574433289"><ele>322.0</ele><time>2026-04-29T12:42:59Z</time></trkpt><trkpt lat="44.71868935616517" lon="9.390223676937111"><ele>323.0</ele><time>2026-04-29T12:43:00Z</time></trkpt><trkpt lat="44.71855188399261" lon="9.390234229712279"><ele>323.6666666666667</ele><time>2026-04-29T12:43:01Z</time></trkpt><trkpt lat="44.718398113531" lon="9.390225787647239"><ele>324.3333333333333</ele><time>2026-04-29T12:43:02Z</time></trkpt><trkpt lat="44.71823565017499" lon="9.390201586111285"><ele>325.0</ele><time>2026-04-29T12:43:03Z</time></trkpt><trkpt lat="44.71807534135074" lon="9.390172080355839"><ele>325.0</ele><time>2026-04-29T12:43:04Z</time></trkpt><trkpt lat="44.71791992743855" lon="9.390144484527955"><ele>325.0</ele><time>2026-04-29T12:43:05Z</time></trkpt><trkpt lat="44.717763696804326" lon="9.39012664964341"><ele>325.0</ele><time>2026-04-29T12:43:06Z</time></trkpt><trkpt lat="44.71761320787469" lon="9.39013490505979"><ele>326.75</ele><time>2026-04-29T12:43:07Z</time></trkpt><trkpt lat="44.717485849516564" lon="9.390137322746556"><ele>328.5</ele><time>2026-04-29T12:43:08Z</time></trkpt><trkpt lat="44.717364413270005" lon="9.390090164619458"><ele>330.25</ele><time>2026-04-29T12:43:09Z</time></trkpt><trkpt lat="44.717221369258105" lon="9.39000778206864"><ele>332.0</ele><time>2026-04-29T12:43:10Z</time></trkpt><trkpt lat="44.71707186648176" lon="9.389928523490925"><ele>332.0</ele><time>2026-04-29T12:43:11Z</time></trkpt><trkpt lat="44.7169299252274" lon="9.389852147396201"><ele>332.0</ele><time>2026-04-29T12:43:12Z</time></trkpt><trkpt lat="44.71678335470897" lon="9.389771122002715"><ele>332.0</ele><time>2026-04-29T12:43:13Z</time></trkpt><trkpt lat="44.716649932606494" lon="9.389678127417794"><ele>325.33333333333337</ele><time>2026-04-29T12:43:14Z</time></trkpt><trkpt lat="44.71651574470501" lon="9.389557687108336"><ele>318.6666666666667</ele><time>2026-04-29T12:43:15Z</time></trkpt><trkpt lat="44.71638206173008" lon="9.389437390672096"><ele>312.0</ele><time>2026-04-29T12:43:16Z</time></trkpt><trkpt lat="44.71625922164853" lon="9.389325947525627"><ele>312.0</ele><time>2026-04-29T12:43:17Z</time></trkpt><trkpt lat="44.716156377652815" lon="9.389230539735983"><ele>312.0</ele><time>2026-04-29T12:43:18Z</time></trkpt><trkpt lat="44.716083948442844" lon="9.389171978200983"><ele>312.0</ele><time>2026-04-29T12:43:19Z</time></trkpt><trkpt lat="44.71603209779476" lon="9.38902752499694"><ele>312.0</ele><time>2026-04-29T12:43:20Z</time></trkpt><trkpt lat="44.71595267839079" lon="9.388819083739095"><ele>316.0</ele><time>2026-04-29T12:43:21Z</time></trkpt><trkpt lat="44.71589839918553" lon="9.388611252519349"><ele>320.0</ele><time>2026-04-29T12:43:22Z</time></trkpt><trkpt lat="44.71582938966913" lon="9.388414469296114"><ele>324.0</ele><time>2026-04-29T12:43:23Z</time></trkpt><trkpt lat="44.71575773587518" lon="9.388218308621044"><ele>324.0</ele><time>2026-04-29T12:43:24Z</time></trkpt><trkpt lat="44.71567784165999" lon="9.38803459693088"><ele>324.0</ele><time>2026-04-29T12:43:25Z</time></trkpt><trkpt lat="44.7156080390311" lon="9.38786646573166"><ele>324.0</ele><time>2026-04-29T12:43:26Z</time></trkpt><trkpt lat="44.71550686698515" lon="9.387734748181371"><ele>324.0</ele><time>2026-04-29T12:43:27Z</time></trkpt><trkpt lat="44.71540386596295" lon="9.387618225059398"><ele>324.5</ele><time>2026-04-29T12:43:28Z</time></trkpt><trkpt lat="44.71530232298953" lon="9.38750876044112"><ele>325.0</ele><time>2026-04-29T12:43:29Z</time></trkpt><trkpt lat="44.71524411752904" lon="9.3873539957122"><ele>325.5</ele><time>2026-04-29T12:43:30Z</time></trkpt><trkpt lat="44.7152031988799" lon="9.38718447186681"><ele>326.0</ele><time>2026-04-29T12:43:31Z</time></trkpt><trkpt lat="44.715171999626484" lon="9.386998611197013"><ele>326.0</ele><time>2026-04-29T12:43:32Z</time></trkpt><trkpt lat="44.71509262462941" lon="9.38682740727004"><ele>326.0</ele><time>2026-04-29T12:43:33Z</time></trkpt><trkpt lat="44.7150107109917" lon="9.386666329090126"><ele>326.0</ele><time>2026-04-29T12:43:34Z</time></trkpt><trkpt lat="44.71495871477136" lon="9.386491604703524"><ele>326.0</ele><time>2026-04-29T12:43:35Z</time></trkpt><trkpt lat="44.71490122858164" lon="9.386319750162155"><ele>323.25</ele><time>2026-04-29T12:43:36Z</time></trkpt><trkpt lat="44.71483369131208" lon="9.386153257704901"><ele>320.5</ele><time>2026-04-29T12:43:37Z</time></trkpt><trkpt lat="44.71477186535966" lon="9.385986247243002"><ele>317.75</ele><time>2026-04-29T12:43:38Z</time></trkpt><trkpt lat="44.714708078782195" lon="9.385817270254204"><ele>315.0</ele><time>2026-04-29T12:43:39Z</time></trkpt><trkpt lat="44.71464249046688" lon="9.385643836302275"><ele>313.25</ele><time>2026-04-29T12:43:40Z</time></trkpt><trkpt lat="44.714582019102586" lon="9.385479874196946"><ele>311.5</ele><time>2026-04-29T12:43:41Z</time></trkpt><trkpt lat="44.714522339394705" lon="9.385326440425386"><ele>309.75</ele><time>2026-04-29T12:43:42Z</time></trkpt><trkpt lat="44.71447480240016" lon="9.385186326282534"><ele>308.0</ele><time>2026-04-29T12:43:43Z</time></trkpt><trkpt lat="44.71445249728812" lon="9.385043617468089"><ele>308.0</ele><time>2026-04-29T12:43:44Z</time></trkpt><trkpt lat="44.714451563853196" lon="9.384880781868908"><ele>308.0</ele><time>2026-04-29T12:43:45Z</time></trkpt><trkpt lat="44.71446013733127" lon="9.384703201856281"><ele>308.0</ele><time>2026-04-29T12:43:46Z</time></trkpt><trkpt lat="44.71446999331194" lon="9.384512432625623"><ele>308.0</ele><time>2026-04-29T12:43:46.998Z</time></trkpt><trkpt lat="44.71448366073253" lon="9.384331845381766"><ele>308.0</ele><time>2026-04-29T12:43:47.998Z</time></trkpt><trkpt lat="44.71449349151852" lon="9.384160301900238"><ele>308.0</ele><time>2026-04-29T12:43:48.998Z</time></trkpt><trkpt lat="44.71451913205438" lon="9.383999854120056"><ele>308.0</ele><time>2026-04-29T12:43:49.998Z</time></trkpt><trkpt lat="44.71454619525609" lon="9.38385708846352"><ele>308.0</ele><time>2026-04-29T12:43:50.998Z</time></trkpt><trkpt lat="44.7145576214127" lon="9.383718519992481"><ele>308.0</ele><time>2026-04-29T12:43:51.998Z</time></trkpt><trkpt lat="44.71454988834391" lon="9.383585164546972"><ele>308.8</ele><time>2026-04-29T12:43:52.998Z</time></trkpt><trkpt lat="44.714526012580315" lon="9.383448921077344"><ele>309.6</ele><time>2026-04-29T12:43:53.998Z</time></trkpt><trkpt lat="44.71448275363426" lon="9.383317025300958"><ele>310.4</ele><time>2026-04-29T12:43:54.998Z</time></trkpt><trkpt lat="44.71441407950363" lon="9.383199136959059"><ele>311.2</ele><time>2026-04-29T12:43:55.998Z</time></trkpt><trkpt lat="44.71432855935313" lon="9.383088629710128"><ele>312.0</ele><time>2026-04-29T12:43:56.998Z</time></trkpt><trkpt lat="44.7142413299642" lon="9.382966668715525"><ele>313.0</ele><time>2026-04-29T12:43:57.998Z</time></trkpt><trkpt lat="44.714165367715836" lon="9.382842868154937"><ele>314.0</ele><time>2026-04-29T12:43:58.998Z</time></trkpt><trkpt lat="44.71410318343615" lon="9.38271596009554"><ele>315.0</ele><time>2026-04-29T12:43:59.998Z</time></trkpt><trkpt lat="44.71403314497579" lon="9.382603250330162"><ele>316.0</ele><time>2026-04-29T12:44:00.998Z</time></trkpt><trkpt lat="44.71397513551805" lon="9.382499734356976"><ele>317.0</ele><time>2026-04-29T12:44:01.998Z</time></trkpt><trkpt lat="44.7139442446243" lon="9.382360938925354"><ele>317.0</ele><time>2026-04-29T12:44:02.999Z</time></trkpt><trkpt lat="44.71392037886319" lon="9.38220486693899"><ele>317.0</ele><time>2026-04-29T12:44:03.999Z</time></trkpt><trkpt lat="44.71390429383209" lon="9.382046920217778"><ele>317.0</ele><time>2026-04-29T12:44:04.999Z</time></trkpt><trkpt lat="44.713891407837096" lon="9.381880094594566"><ele>317.0</ele><time>2026-04-29T12:44:05.999Z</time></trkpt><trkpt lat="44.71387407145805" lon="9.381708249573505"><ele>316.25</ele><time>2026-04-29T12:44:06.999Z</time></trkpt><trkpt lat="44.71385509655945" lon="9.381531774823841"><ele>315.5</ele><time>2026-04-29T12:44:07.999Z</time></trkpt><trkpt lat="44.71383872643796" lon="9.381369927460339"><ele>314.75</ele><time>2026-04-29T12:44:08.999Z</time></trkpt><trkpt lat="44.71381386991388" lon="9.381216476358539"><ele>314.0</ele><time>2026-04-29T12:44:09.999Z</time></trkpt><trkpt lat="44.71377887168306" lon="9.381081762528382"><ele>314.0</ele><time>2026-04-29T12:44:10.999Z</time></trkpt><trkpt lat="44.7137321133832" lon="9.380969964465791"><ele>314.0</ele><time>2026-04-29T12:44:11.999Z</time></trkpt><trkpt lat="44.71368853006586" lon="9.38089118096609"><ele>314.0</ele><time>2026-04-29T12:44:12.999Z</time></trkpt><trkpt lat="44.71363161326475" lon="9.38079408789833"><ele>314.0</ele><time>2026-04-29T12:44:14.999Z</time></trkpt><trkpt lat="44.71358005820065" lon="9.380720915021632"><ele>314.0</ele><time>2026-04-29T12:44:17.999Z</time></trkpt><trkpt lat="44.71363800162832" lon="9.38083262446163"><ele>314.0</ele><time>2026-04-29T12:46:41Z</time></trkpt><trkpt lat="44.71355655074958" lon="9.380753931178875"><ele>314.83333333333337</ele><time>2026-04-29T12:57:54.001Z</time></trkpt><trkpt lat="44.71351543128889" lon="9.380685439634053"><ele>315.6666666666667</ele><time>2026-04-29T12:57:56.001Z</time></trkpt><trkpt lat="44.71345948526149" lon="9.38059743414746"><ele>316.5</ele><time>2026-04-29T12:57:58.001Z</time></trkpt><trkpt lat="44.71339627324977" lon="9.380497447248857"><ele>317.3333333333333</ele><time>2026-04-29T12:58:00.001Z</time></trkpt><trkpt lat="44.71333819854166" lon="9.380412612435157"><ele>318.16666666666663</ele><time>2026-04-29T12:58:02.001Z</time></trkpt><trkpt lat="44.71328840129648" lon="9.38034042837705"><ele>319.0</ele><time>2026-04-29T12:58:04.001Z</time></trkpt><trkpt lat="44.7132270449516" lon="9.38025935426243"><ele>319.0</ele><time>2026-04-29T12:58:06.001Z</time></trkpt><trkpt lat="44.71315070666559" lon="9.38020130787279"><ele>319.0</ele><time>2026-04-29T12:58:08.001Z</time></trkpt><trkpt lat="44.71308111241286" lon="9.380169640263516"><ele>319.0</ele><time>2026-04-29T12:58:10.001Z</time></trkpt><trkpt lat="44.712998170746495" lon="9.380143323431138"><ele>319.0</ele><time>2026-04-29T12:58:13.001Z</time></trkpt><trkpt lat="44.71291778286035" lon="9.38013268210132"><ele>319.0</ele><time>2026-04-29T12:58:16.001Z</time></trkpt><trkpt lat="44.71283862008857" lon="9.380146728591182"><ele>319.0</ele><time>2026-04-29T12:58:20.001Z</time></trkpt><trkpt lat="44.712782508681364" lon="9.380225900654596"><ele>319.6</ele><time>2026-04-29T12:58:22.001Z</time></trkpt><trkpt lat="44.71270681347635" lon="9.380315040379866"><ele>320.2</ele><time>2026-04-29T12:58:24.001Z</time></trkpt><trkpt lat="44.71257981588594" lon="9.380335092428172"><ele>320.8</ele><time>2026-04-29T12:58:26.001Z</time></trkpt><trkpt lat="44.71251389364244" lon="9.380349790818375"><ele>321.40000000000003</ele><time>2026-04-29T12:58:27.001Z</time></trkpt><trkpt lat="44.71243922704211" lon="9.38034202727574"><ele>322.0</ele><time>2026-04-29T12:58:28.001Z</time></trkpt><trkpt lat="44.71234787637887" lon="9.380394240386353"><ele>322.0</ele><time>2026-04-29T12:58:29.999Z</time></trkpt><trkpt lat="44.71242388606847" lon="9.380360407232839"><ele>322.0</ele><time>2026-04-29T12:58:56Z</time></trkpt><trkpt lat="44.71256409766609" lon="9.380299141536293"><ele>322.0</ele><time>2026-04-29T12:58:58Z</time></trkpt><trkpt lat="44.71263275243012" lon="9.380279730715436"><ele>322.0</ele><time>2026-04-29T12:58:59Z</time></trkpt><trkpt lat="44.71269769904088" lon="9.38027593388482"><ele>322.0</ele><time>2026-04-29T12:59:00Z</time></trkpt><trkpt lat="44.71279599475348" lon="9.380248131981972"><ele>322.0</ele><time>2026-04-29T12:59:02Z</time></trkpt><trkpt lat="44.71281816038998" lon="9.38016503472327"><ele>322.0</ele><time>2026-04-29T12:59:05Z</time></trkpt><trkpt lat="44.71277319472945" lon="9.380074042462882"><ele>322.0</ele><time>2026-04-29T12:59:08Z</time></trkpt><trkpt lat="44.71264560426005" lon="9.380065824679399"><ele>322.0</ele><time>2026-04-29T12:59:10Z</time></trkpt><trkpt lat="44.71257489640616" lon="9.38006211915356"><ele>322.0</ele><time>2026-04-29T12:59:11Z</time></trkpt><trkpt lat="44.71249944559963" lon="9.380053083500032"><ele>322.0</ele><time>2026-04-29T12:59:12Z</time></trkpt><trkpt lat="44.71242273465028" lon="9.380045734891894"><ele>322.0</ele><time>2026-04-29T12:59:13Z</time></trkpt><trkpt lat="44.71235159314649" lon="9.380031466168722"><ele>322.0</ele><time>2026-04-29T12:59:14Z</time></trkpt><trkpt lat="44.712238878378265" lon="9.380024896989964"><ele>322.0</ele><time>2026-04-29T12:59:16Z</time></trkpt><trkpt lat="44.71215415169264" lon="9.380068611007212"><ele>322.0</ele><time>2026-04-29T12:59:18Z</time></trkpt><trkpt lat="44.7121216727239" lon="9.380219228498335"><ele>322.0</ele><time>2026-04-29T12:59:20Z</time></trkpt><trkpt lat="44.71211150373684" lon="9.380326218261409"><ele>322.0</ele><time>2026-04-29T12:59:21Z</time></trkpt><trkpt lat="44.71207887894828" lon="9.380433247127902"><ele>322.0</ele><time>2026-04-29T12:59:22Z</time></trkpt><trkpt lat="44.71204185761075" lon="9.380547249046"><ele>322.0</ele><time>2026-04-29T12:59:23Z</time></trkpt><trkpt lat="44.71200156795073" lon="9.380655827522913"><ele>322.0</ele><time>2026-04-29T12:59:24Z</time></trkpt><trkpt lat="44.711947192243905" lon="9.380757594364475"><ele>322.0</ele><time>2026-04-29T12:59:25Z</time></trkpt><trkpt lat="44.711871306501145" lon="9.380854137906443"><ele>322.5</ele><time>2026-04-29T12:59:26Z</time></trkpt><trkpt lat="44.71177544094552" lon="9.380939610967422"><ele>323.0</ele><time>2026-04-29T12:59:27Z</time></trkpt><trkpt lat="44.711667073549414" lon="9.381029293610021"><ele>323.5</ele><time>2026-04-29T12:59:28Z</time></trkpt><trkpt lat="44.711546785734704" lon="9.38112467055883"><ele>324.0</ele><time>2026-04-29T12:59:29Z</time></trkpt><trkpt lat="44.71143235958247" lon="9.381215665182046"><ele>324.0</ele><time>2026-04-29T12:59:30Z</time></trkpt><trkpt lat="44.71132699182511" lon="9.381285479702104"><ele>324.0</ele><time>2026-04-29T12:59:31Z</time></trkpt><trkpt lat="44.711207604963604" lon="9.381360387833155"><ele>324.0</ele><time>2026-04-29T12:59:32Z</time></trkpt><trkpt lat="44.71107444347009" lon="9.381464085880136"><ele>324.0</ele><time>2026-04-29T12:59:33Z</time></trkpt><trkpt lat="44.71091261466932" lon="9.381565940322282"><ele>324.0</ele><time>2026-04-29T12:59:34Z</time></trkpt><trkpt lat="44.71076433017112" lon="9.381697321912993"><ele>324.0</ele><time>2026-04-29T12:59:35Z</time></trkpt><trkpt lat="44.71062359460163" lon="9.381800013356067"><ele>324.0</ele><time>2026-04-29T12:59:36Z</time></trkpt><trkpt lat="44.71049356473397" lon="9.381895353884017"><ele>324.0</ele><time>2026-04-29T12:59:37Z</time></trkpt><trkpt lat="44.7103708998465" lon="9.381986103398706"><ele>324.0</ele><time>2026-04-29T12:59:38Z</time></trkpt><trkpt lat="44.71025751284652" lon="9.3820741266819"><ele>324.0</ele><time>2026-04-29T12:59:39Z</time></trkpt><trkpt lat="44.71013877166748" lon="9.382136467441764"><ele>324.0</ele><time>2026-04-29T12:59:40Z</time></trkpt><trkpt lat="44.71005287311478" lon="9.382221535801325"><ele>325.5</ele><time>2026-04-29T12:59:41Z</time></trkpt><trkpt lat="44.70996779818753" lon="9.382267042495588"><ele>327.0</ele><time>2026-04-29T12:59:42Z</time></trkpt><trkpt lat="44.70989144173192" lon="9.382296101929292"><ele>328.5</ele><time>2026-04-29T12:59:43Z</time></trkpt><trkpt lat="44.709818765189915" lon="9.382305926436993"><ele>330.0</ele><time>2026-04-29T12:59:44Z</time></trkpt><trkpt lat="44.70974870019982" lon="9.38230644952008"><ele>331.5</ele><time>2026-04-29T12:59:45Z</time></trkpt><trkpt lat="44.70966444684071" lon="9.382306706027213"><ele>333.0</ele><time>2026-04-29T12:59:46Z</time></trkpt><trkpt lat="44.70956748502701" lon="9.382316654898247"><ele>333.0</ele><time>2026-04-29T12:59:47.001Z</time></trkpt><trkpt lat="44.70946488380056" lon="9.382340091768203"><ele>333.0</ele><time>2026-04-29T12:59:48.001Z</time></trkpt><trkpt lat="44.70934254528529" lon="9.382351790904606"><ele>333.0</ele><time>2026-04-29T12:59:49.001Z</time></trkpt><trkpt lat="44.709207639249854" lon="9.382364854287314"><ele>333.0</ele><time>2026-04-29T12:59:50.001Z</time></trkpt><trkpt lat="44.70908951788958" lon="9.382375541869203"><ele>333.0</ele><time>2026-04-29T12:59:51.001Z</time></trkpt><trkpt lat="44.70896505365698" lon="9.382383553523145"><ele>333.0</ele><time>2026-04-29T12:59:52.001Z</time></trkpt><trkpt lat="44.708830032386466" lon="9.382393547650098"><ele>333.0</ele><time>2026-04-29T12:59:53.001Z</time></trkpt><trkpt lat="44.70869644605945" lon="9.382403173989099"><ele>333.0</ele><time>2026-04-29T12:59:54.001Z</time></trkpt><trkpt lat="44.708563143059294" lon="9.382412576765681"><ele>333.25</ele><time>2026-04-29T12:59:55.001Z</time></trkpt><trkpt lat="44.70843449534735" lon="9.382428628648407"><ele>333.5</ele><time>2026-04-29T12:59:56.001Z</time></trkpt><trkpt lat="44.70831573061105" lon="9.38243954395271"><ele>333.75</ele><time>2026-04-29T12:59:57.001Z</time></trkpt><trkpt lat="44.70820987217061" lon="9.382443641211331"><ele>334.0</ele><time>2026-04-29T12:59:58.001Z</time></trkpt><trkpt lat="44.70810988830417" lon="9.382426458514454"><ele>334.0</ele><time>2026-04-29T12:59:59.001Z</time></trkpt><trkpt lat="44.70800992594879" lon="9.382391071475034"><ele>334.0</ele><time>2026-04-29T13:00:00.001Z</time></trkpt><trkpt lat="44.70791128751305" lon="9.382321998667365"><ele>334.0</ele><time>2026-04-29T13:00:01.001Z</time></trkpt><trkpt lat="44.707814511623866" lon="9.382232952367803"><ele>334.0</ele><time>2026-04-29T13:00:02.001Z</time></trkpt><trkpt lat="44.70771049397942" lon="9.382137762633247"><ele>332.0</ele><time>2026-04-29T13:00:03.001Z</time></trkpt><trkpt lat="44.707602569343756" lon="9.382033454318632"><ele>330.0</ele><time>2026-04-29T13:00:04.001Z</time></trkpt><trkpt lat="44.70749469421834" lon="9.381924308030644"><ele>328.0</ele><time>2026-04-29T13:00:05.001Z</time></trkpt><trkpt lat="44.70738273277868" lon="9.381826142015065"><ele>326.0</ele><time>2026-04-29T13:00:06.001Z</time></trkpt><trkpt lat="44.70728135929212" lon="9.381732957159889"><ele>326.0</ele><time>2026-04-29T13:00:07.001Z</time></trkpt><trkpt lat="44.7071944105577" lon="9.38163443700573"><ele>326.0</ele><time>2026-04-29T13:00:08.001Z</time></trkpt><trkpt lat="44.70709728824509" lon="9.381581515372567"><ele>326.0</ele><time>2026-04-29T13:00:09.001Z</time></trkpt><trkpt lat="44.707013922280574" lon="9.381513593532578"><ele>326.0</ele><time>2026-04-29T13:00:10.001Z</time></trkpt><trkpt lat="44.70690865999025" lon="9.381492949828756"><ele>326.0</ele><time>2026-04-29T13:00:11.001Z</time></trkpt><trkpt lat="44.70679353169831" lon="9.381532509109078"><ele>327.25</ele><time>2026-04-29T13:00:12.001Z</time></trkpt><trkpt lat="44.70667507740089" lon="9.38157855053777"><ele>328.5</ele><time>2026-04-29T13:00:13.001Z</time></trkpt><trkpt lat="44.70654591109368" lon="9.381629896609526"><ele>329.75</ele><time>2026-04-29T13:00:14.001Z</time></trkpt><trkpt lat="44.70640893167972" lon="9.381683604524826"><ele>331.0</ele><time>2026-04-29T13:00:15.001Z</time></trkpt><trkpt lat="44.70626523877921" lon="9.381732093849978"><ele>331.0</ele><time>2026-04-29T13:00:16.001Z</time></trkpt><trkpt lat="44.706119369100655" lon="9.381782004942535"><ele>331.0</ele><time>2026-04-29T13:00:17.001Z</time></trkpt><trkpt lat="44.70598206022665" lon="9.38182501848864"><ele>331.0</ele><time>2026-04-29T13:00:18.001Z</time></trkpt><trkpt lat="44.70586051629054" lon="9.381870385069911"><ele>331.0</ele><time>2026-04-29T13:00:19.001Z</time></trkpt><trkpt lat="44.705741713751465" lon="9.38189941958812"><ele>331.0</ele><time>2026-04-29T13:00:20.001Z</time></trkpt><trkpt lat="44.70564869426414" lon="9.381934397483947"><ele>331.0</ele><time>2026-04-29T13:00:21.001Z</time></trkpt><trkpt lat="44.70556882904337" lon="9.381974916895334"><ele>331.0</ele><time>2026-04-29T13:00:22.001Z</time></trkpt><trkpt lat="44.70546188420426" lon="9.38195935916722"><ele>331.0</ele><time>2026-04-29T13:00:23.001Z</time></trkpt><trkpt lat="44.70534597192142" lon="9.38191863570727"><ele>331.0</ele><time>2026-04-29T13:00:24.001Z</time></trkpt><trkpt lat="44.70522832154943" lon="9.381872102286836"><ele>332.0</ele><time>2026-04-29T13:00:25.001Z</time></trkpt><trkpt lat="44.70512337037295" lon="9.38184213794472"><ele>333.0</ele><time>2026-04-29T13:00:26.001Z</time></trkpt><trkpt lat="44.705007620493745" lon="9.381828342736966"><ele>334.0</ele><time>2026-04-29T13:00:27.001Z</time></trkpt><trkpt lat="44.70489025545565" lon="9.381838325824326"><ele>335.0</ele><time>2026-04-29T13:00:28.001Z</time></trkpt><trkpt lat="44.70476399525839" lon="9.381875533365355"><ele>335.0</ele><time>2026-04-29T13:00:29.001Z</time></trkpt><trkpt lat="44.70462707045183" lon="9.381927492744534"><ele>335.0</ele><time>2026-04-29T13:00:30.001Z</time></trkpt><trkpt lat="44.70449568824714" lon="9.381977438544268"><ele>335.0</ele><time>2026-04-29T13:00:31.001Z</time></trkpt><trkpt lat="44.70437352554381" lon="9.382023483117326"><ele>335.0</ele><time>2026-04-29T13:00:32.001Z</time></trkpt><trkpt lat="44.70424743137589" lon="9.382045457124846"><ele>334.25</ele><time>2026-04-29T13:00:33.001Z</time></trkpt><trkpt lat="44.7041113297106" lon="9.382041389773736"><ele>333.5</ele><time>2026-04-29T13:00:34.001Z</time></trkpt><trkpt lat="44.70398243274095" lon="9.382027481480012"><ele>332.75</ele><time>2026-04-29T13:00:34.998Z</time></trkpt><trkpt lat="44.703847339765" lon="9.381987143921302"><ele>332.0</ele><time>2026-04-29T13:00:35.998Z</time></trkpt><trkpt lat="44.70372371530353" lon="9.381926674480468"><ele>332.0</ele><time>2026-04-29T13:00:36.998Z</time></trkpt><trkpt lat="44.703612102590604" lon="9.38185219188838"><ele>332.0</ele><time>2026-04-29T13:00:37.998Z</time></trkpt><trkpt lat="44.703510819791916" lon="9.381764088989334"><ele>332.0</ele><time>2026-04-29T13:00:38.998Z</time></trkpt><trkpt lat="44.70341352185196" lon="9.381657871666413"><ele>332.0</ele><time>2026-04-29T13:00:39.998Z</time></trkpt><trkpt lat="44.70332110880451" lon="9.381540600296017"><ele>334.0</ele><time>2026-04-29T13:00:40.998Z</time></trkpt><trkpt lat="44.70323621866196" lon="9.38139366127418"><ele>336.0</ele><time>2026-04-29T13:00:41.998Z</time></trkpt><trkpt lat="44.70315830676229" lon="9.38121849016723"><ele>338.0</ele><time>2026-04-29T13:00:42.998Z</time></trkpt><trkpt lat="44.7030874397061" lon="9.380999463838654"><ele>333.33333333333337</ele><time>2026-04-29T13:00:43.998Z</time></trkpt><trkpt lat="44.70302362936744" lon="9.380769275852"><ele>328.6666666666667</ele><time>2026-04-29T13:00:44.998Z</time></trkpt><trkpt lat="44.70296758769722" lon="9.38054908750395"><ele>324.0</ele><time>2026-04-29T13:00:45.998Z</time></trkpt><trkpt lat="44.702911113198454" lon="9.380320355317911"><ele>322.6666666666667</ele><time>2026-04-29T13:00:46.999Z</time></trkpt><trkpt lat="44.70285075218701" lon="9.380088986671941"><ele>321.33333333333337</ele><time>2026-04-29T13:00:47.999Z</time></trkpt><trkpt lat="44.702786709117504" lon="9.379848799731242"><ele>320.0</ele><time>2026-04-29T13:00:48.999Z</time></trkpt><trkpt lat="44.70272135443054" lon="9.37959321292359"><ele>322.33333333333337</ele><time>2026-04-29T13:00:49.999Z</time></trkpt><trkpt lat="44.70265162197239" lon="9.379336856964661"><ele>324.6666666666667</ele><time>2026-04-29T13:00:50.999Z</time></trkpt><trkpt lat="44.70258159215653" lon="9.379079234185486"><ele>327.0</ele><time>2026-04-29T13:00:51.999Z</time></trkpt><trkpt lat="44.70251310884744" lon="9.378830478511292"><ele>327.0</ele><time>2026-04-29T13:00:52.999Z</time></trkpt><trkpt lat="44.70245291032342" lon="9.378595547007562"><ele>327.0</ele><time>2026-04-29T13:00:53.999Z</time></trkpt><trkpt lat="44.70239680913013" lon="9.378388750824612"><ele>327.0</ele><time>2026-04-29T13:00:54.999Z</time></trkpt><trkpt lat="44.70233759352606" lon="9.378204534317852"><ele>327.0</ele><time>2026-04-29T13:00:55.999Z</time></trkpt><trkpt lat="44.702266901154005" lon="9.378052882939702"><ele>327.0</ele><time>2026-04-29T13:00:56.999Z</time></trkpt><trkpt lat="44.70218595611613" lon="9.37790032521132"><ele>327.0</ele><time>2026-04-29T13:00:57.999Z</time></trkpt><trkpt lat="44.70207785287945" lon="9.377762686959928"><ele>327.0</ele><time>2026-04-29T13:00:58.999Z</time></trkpt><trkpt lat="44.701951654417115" lon="9.377650888299142"><ele>333.3333333333333</ele><time>2026-04-29T13:00:59.999Z</time></trkpt><trkpt lat="44.70181067744313" lon="9.37756561785329"><ele>339.66666666666663</ele><time>2026-04-29T13:01:00.999Z</time></trkpt><trkpt lat="44.70165076870269" lon="9.37751376290954"><ele>346.0</ele><time>2026-04-29T13:01:01.999Z</time></trkpt><trkpt lat="44.701516794160334" lon="9.377500295135114"><ele>346.0</ele><time>2026-04-29T13:01:02.999Z</time></trkpt><trkpt lat="44.70141169987354" lon="9.377496135050302"><ele>346.0</ele><time>2026-04-29T13:01:03.999Z</time></trkpt><trkpt lat="44.70133172806218" lon="9.377487014209638"><ele>346.0</ele><time>2026-04-29T13:01:04.999Z</time></trkpt><trkpt lat="44.7012388753997" lon="9.377435339646363"><ele>346.0</ele><time>2026-04-29T13:01:05.999Z</time></trkpt><trkpt lat="44.701155179147754" lon="9.377331904293838"><ele>346.0</ele><time>2026-04-29T13:01:06.999Z</time></trkpt><trkpt lat="44.701086506359324" lon="9.377192053109532"><ele>346.0</ele><time>2026-04-29T13:01:07.999Z</time></trkpt><trkpt lat="44.70101396009643" lon="9.377059191872553"><ele>346.0</ele><time>2026-04-29T13:01:09Z</time></trkpt><trkpt lat="44.70096480447658" lon="9.376939841799333"><ele>346.0</ele><time>2026-04-29T13:01:10Z</time></trkpt><trkpt lat="44.700868318927185" lon="9.376839236024821"><ele>346.0</ele><time>2026-04-29T13:01:11Z</time></trkpt><trkpt lat="44.700742458684594" lon="9.376760939196187"><ele>346.0</ele><time>2026-04-29T13:01:12Z</time></trkpt><trkpt lat="44.70062394893759" lon="9.376692813551998"><ele>346.0</ele><time>2026-04-29T13:01:13Z</time></trkpt><trkpt lat="44.70052474217053" lon="9.376603953295659"><ele>346.0</ele><time>2026-04-29T13:01:14Z</time></trkpt><trkpt lat="44.70044137425186" lon="9.376462034110947"><ele>346.0</ele><time>2026-04-29T13:01:15Z</time></trkpt><trkpt lat="44.70036493001097" lon="9.376289850570668"><ele>349.75</ele><time>2026-04-29T13:01:16Z</time></trkpt><trkpt lat="44.70029203093523" lon="9.376113525980495"><ele>353.5</ele><time>2026-04-29T13:01:17Z</time></trkpt><trkpt lat="44.700216605575385" lon="9.37596045751991"><ele>357.25</ele><time>2026-04-29T13:01:18Z</time></trkpt><trkpt lat="44.70014810647005" lon="9.375811824973079"><ele>361.0</ele><time>2026-04-29T13:01:19Z</time></trkpt><trkpt lat="44.70002798046249" lon="9.37570578118326"><ele>361.0</ele><time>2026-04-29T13:01:20Z</time></trkpt><trkpt lat="44.69990979975612" lon="9.375628096221362"><ele>361.0</ele><time>2026-04-29T13:01:21Z</time></trkpt><trkpt lat="44.69981077187705" lon="9.375558139703708"><ele>361.0</ele><time>2026-04-29T13:01:22Z</time></trkpt><trkpt lat="44.69974113717674" lon="9.37547254895226"><ele>361.0</ele><time>2026-04-29T13:01:23Z</time></trkpt><trkpt lat="44.69967879923996" lon="9.375343474778804"><ele>361.0</ele><time>2026-04-29T13:01:24Z</time></trkpt><trkpt lat="44.69964656281932" lon="9.375171832883044"><ele>357.0</ele><time>2026-04-29T13:01:25Z</time></trkpt><trkpt lat="44.69962248434117" lon="9.374985304565888"><ele>353.0</ele><time>2026-04-29T13:01:26Z</time></trkpt><trkpt lat="44.699590734218646" lon="9.374776176216178"><ele>349.0</ele><time>2026-04-29T13:01:27Z</time></trkpt><trkpt lat="44.699563227851975" lon="9.374571538335221"><ele>345.0</ele><time>2026-04-29T13:01:28Z</time></trkpt><trkpt lat="44.69953872100096" lon="9.374345505384433"><ele>342.5</ele><time>2026-04-29T13:01:29Z</time></trkpt><trkpt lat="44.69951515400346" lon="9.374128316206324"><ele>340.0</ele><time>2026-04-29T13:01:30Z</time></trkpt><trkpt lat="44.69949010462511" lon="9.373932478268733"><ele>337.5</ele><time>2026-04-29T13:01:31Z</time></trkpt><trkpt lat="44.69946660512224" lon="9.373746267831827"><ele>335.0</ele><time>2026-04-29T13:01:32Z</time></trkpt><trkpt lat="44.69944727726838" lon="9.373574720323113"><ele>333.2</ele><time>2026-04-29T13:01:33Z</time></trkpt><trkpt lat="44.69942354995834" lon="9.373418003610304"><ele>331.4</ele><time>2026-04-29T13:01:34Z</time></trkpt><trkpt lat="44.699387227117626" lon="9.373288934592345"><ele>329.6</ele><time>2026-04-29T13:01:35Z</time></trkpt><trkpt lat="44.699346921129404" lon="9.373167643775787"><ele>327.8</ele><time>2026-04-29T13:01:36Z</time></trkpt><trkpt lat="44.69925306584837" lon="9.373103430678345"><ele>326.0</ele><time>2026-04-29T13:01:37Z</time></trkpt><trkpt lat="44.69915591186627" lon="9.37307096998548"><ele>327.6</ele><time>2026-04-29T13:01:38Z</time></trkpt><trkpt lat="44.69903321903156" lon="9.373046158747092"><ele>329.20000000000005</ele><time>2026-04-29T13:01:39Z</time></trkpt><trkpt lat="44.69890729014905" lon="9.373049505139809"><ele>330.79999999999995</ele><time>2026-04-29T13:01:40Z</time></trkpt><trkpt lat="44.69884285763575" lon="9.373047968785885"><ele>332.4</ele><time>2026-04-29T13:01:41Z</time></trkpt><trkpt lat="44.69875913218003" lon="9.373049269284158"><ele>334.0</ele><time>2026-04-29T13:01:42Z</time></trkpt><trkpt lat="44.6986831073265" lon="9.373004674058143"><ele>334.0</ele><time>2026-04-29T13:01:43Z</time></trkpt><trkpt lat="44.69862173902877" lon="9.372929157996415"><ele>334.0</ele><time>2026-04-29T13:01:44Z</time></trkpt><trkpt lat="44.69855614173376" lon="9.372872182322133"><ele>334.0</ele><time>2026-04-29T13:01:45Z</time></trkpt><trkpt lat="44.698490297412306" lon="9.372813285453692"><ele>334.0</ele><time>2026-04-29T13:01:46Z</time></trkpt><trkpt lat="44.69842263982665" lon="9.372752765812828"><ele>334.0</ele><time>2026-04-29T13:01:47Z</time></trkpt><trkpt lat="44.69836778469348" lon="9.372680344811936"><ele>334.0</ele><time>2026-04-29T13:01:48Z</time></trkpt><trkpt lat="44.69831113395003" lon="9.372592330046084"><ele>340.75</ele><time>2026-04-29T13:01:49Z</time></trkpt><trkpt lat="44.69823752309248" lon="9.372486033301481"><ele>347.5</ele><time>2026-04-29T13:01:50Z</time></trkpt><trkpt lat="44.698143614272816" lon="9.372406867135906"><ele>354.25</ele><time>2026-04-29T13:01:51.001Z</time></trkpt><trkpt lat="44.69804806223982" lon="9.372308469819938"><ele>361.0</ele><time>2026-04-29T13:01:52.001Z</time></trkpt><trkpt lat="44.697921120886406" lon="9.372218368805555"><ele>361.25</ele><time>2026-04-29T13:01:53.001Z</time></trkpt><trkpt lat="44.69781349867011" lon="9.372133188898575"><ele>361.5</ele><time>2026-04-29T13:01:54.001Z</time></trkpt><trkpt lat="44.69773746669355" lon="9.372018942093408"><ele>361.75</ele><time>2026-04-29T13:01:55.001Z</time></trkpt><trkpt lat="44.6976627188444" lon="9.37188441189165"><ele>362.0</ele><time>2026-04-29T13:01:56.001Z</time></trkpt><trkpt lat="44.697606481937314" lon="9.37174423211503"><ele>362.0</ele><time>2026-04-29T13:01:57.001Z</time></trkpt><trkpt lat="44.69755545485204" lon="9.371651033876981"><ele>362.0</ele><time>2026-04-29T13:01:58.001Z</time></trkpt><trkpt lat="44.69747415547451" lon="9.371587794328091"><ele>362.0</ele><time>2026-04-29T13:01:59.001Z</time></trkpt><trkpt lat="44.697407335674136" lon="9.371548946189272"><ele>362.0</ele><time>2026-04-29T13:02:00.001Z</time></trkpt><trkpt lat="44.69731905441918" lon="9.371561595571734"><ele>362.0</ele><time>2026-04-29T13:02:01.001Z</time></trkpt><trkpt lat="44.69722723771542" lon="9.371623309388005"><ele>362.0</ele><time>2026-04-29T13:02:02.001Z</time></trkpt><trkpt lat="44.697156393647525" lon="9.371720647965304"><ele>362.0</ele><time>2026-04-29T13:02:03.001Z</time></trkpt><trkpt lat="44.69711280718825" lon="9.371844510444472"><ele>362.0</ele><time>2026-04-29T13:02:04.001Z</time></trkpt><trkpt lat="44.69710248210634" lon="9.372007644697824"><ele>362.0</ele><time>2026-04-29T13:02:05.001Z</time></trkpt><trkpt lat="44.69708486952503" lon="9.372157649163892"><ele>362.0</ele><time>2026-04-29T13:02:06.001Z</time></trkpt><trkpt lat="44.697064435775076" lon="9.37228715656769"><ele>362.0</ele><time>2026-04-29T13:02:07.001Z</time></trkpt><trkpt lat="44.69703326439951" lon="9.37243497013471"><ele>362.75</ele><time>2026-04-29T13:02:08.001Z</time></trkpt><trkpt lat="44.69699543967873" lon="9.372604118950633"><ele>363.5</ele><time>2026-04-29T13:02:09.001Z</time></trkpt><trkpt lat="44.696953996273784" lon="9.372775135847286"><ele>364.25</ele><time>2026-04-29T13:02:10.001Z</time></trkpt><trkpt lat="44.69691068288121" lon="9.372937007489789"><ele>365.0</ele><time>2026-04-29T13:02:11.001Z</time></trkpt><trkpt lat="44.696874469221754" lon="9.37308115768733"><ele>367.75</ele><time>2026-04-29T13:02:12.001Z</time></trkpt><trkpt lat="44.696804591756134" lon="9.373178471632174"><ele>370.5</ele><time>2026-04-29T13:02:13.001Z</time></trkpt><trkpt lat="44.69670451782366" lon="9.373202751259413"><ele>373.25</ele><time>2026-04-29T13:02:14.001Z</time></trkpt><trkpt lat="44.69658261068966" lon="9.373271684400112"><ele>376.0</ele><time>2026-04-29T13:02:15.001Z</time></trkpt><trkpt lat="44.6964570803453" lon="9.373367529060838"><ele>376.0</ele><time>2026-04-29T13:02:16.001Z</time></trkpt><trkpt lat="44.69631096217896" lon="9.373439446326449"><ele>376.0</ele><time>2026-04-29T13:02:17.001Z</time></trkpt><trkpt lat="44.69618860613862" lon="9.373510288657682"><ele>376.0</ele><time>2026-04-29T13:02:18.001Z</time></trkpt><trkpt lat="44.69606507352666" lon="9.373569830204469"><ele>376.0</ele><time>2026-04-29T13:02:19.001Z</time></trkpt><trkpt lat="44.69593716206852" lon="9.373585182401584"><ele>374.5</ele><time>2026-04-29T13:02:20.001Z</time></trkpt><trkpt lat="44.695828781302026" lon="9.373620127430529"><ele>373.0</ele><time>2026-04-29T13:02:21.001Z</time></trkpt><trkpt lat="44.69572261714032" lon="9.373609753601796"><ele>371.5</ele><time>2026-04-29T13:02:22.001Z</time></trkpt><trkpt lat="44.69561842753041" lon="9.373553781880078"><ele>370.0</ele><time>2026-04-29T13:02:23.001Z</time></trkpt><trkpt lat="44.695510750965546" lon="9.373440400311917"><ele>370.0</ele><time>2026-04-29T13:02:24.001Z</time></trkpt><trkpt lat="44.69538928273942" lon="9.373318298046689"><ele>370.0</ele><time>2026-04-29T13:02:25.001Z</time></trkpt><trkpt lat="44.69526805037988" lon="9.373191900563523"><ele>370.0</ele><time>2026-04-29T13:02:26.001Z</time></trkpt><trkpt lat="44.69514634043684" lon="9.373069875860677"><ele>367.75</ele><time>2026-04-29T13:02:27.001Z</time></trkpt><trkpt lat="44.695034125732555" lon="9.37296125210258"><ele>365.5</ele><time>2026-04-29T13:02:28.001Z</time></trkpt><trkpt lat="44.694924681095685" lon="9.37286689221884"><ele>363.25</ele><time>2026-04-29T13:02:29.001Z</time></trkpt><trkpt lat="44.69481537230275" lon="9.372818565766329"><ele>361.0</ele><time>2026-04-29T13:02:30.001Z</time></trkpt><trkpt lat="44.69470714120827" lon="9.372767327801046"><ele>361.0</ele><time>2026-04-29T13:02:31.001Z</time></trkpt><trkpt lat="44.694615650800834" lon="9.372734634959258"><ele>361.0</ele><time>2026-04-29T13:02:32.001Z</time></trkpt><trkpt lat="44.69451110717865" lon="9.372686285855211"><ele>361.0</ele><time>2026-04-29T13:02:33.001Z</time></trkpt><trkpt lat="44.6944235821269" lon="9.372569170247418"><ele>361.0</ele><time>2026-04-29T13:02:34.001Z</time></trkpt><trkpt lat="44.694346921595574" lon="9.372435652149717"><ele>361.0</ele><time>2026-04-29T13:02:35.001Z</time></trkpt><trkpt lat="44.69429073216463" lon="9.37231078436494"><ele>358.8</ele><time>2026-04-29T13:02:36.001Z</time></trkpt><trkpt lat="44.69422363915167" lon="9.372213696894605"><ele>356.6</ele><time>2026-04-29T13:02:37.001Z</time></trkpt><trkpt lat="44.69414193058635" lon="9.372153500546956"><ele>354.4</ele><time>2026-04-29T13:02:38.001Z</time></trkpt><trkpt lat="44.69404917406197" lon="9.372139446668323"><ele>352.2</ele><time>2026-04-29T13:02:39.001Z</time></trkpt><trkpt lat="44.69392434449053" lon="9.372132036167763"><ele>350.0</ele><time>2026-04-29T13:02:40.001Z</time></trkpt><trkpt lat="44.693810518997196" lon="9.372172845333854"><ele>355.2</ele><time>2026-04-29T13:02:40.999Z</time></trkpt><trkpt lat="44.69372123313048" lon="9.372231063733723"><ele>360.4</ele><time>2026-04-29T13:02:41.999Z</time></trkpt><trkpt lat="44.69365672605607" lon="9.372321101586108"><ele>365.6</ele><time>2026-04-29T13:02:42.999Z</time></trkpt><trkpt lat="44.69362247988319" lon="9.372462937861727"><ele>370.8</ele><time>2026-04-29T13:02:43.999Z</time></trkpt><trkpt lat="44.693623526808935" lon="9.372633730018954"><ele>376.0</ele><time>2026-04-29T13:02:44.999Z</time></trkpt><trkpt lat="44.69362783132048" lon="9.372801913515108"><ele>376.0</ele><time>2026-04-29T13:02:45.999Z</time></trkpt><trkpt lat="44.69364647705815" lon="9.372970931359536"><ele>376.0</ele><time>2026-04-29T13:02:46.999Z</time></trkpt><trkpt lat="44.69370139244455" lon="9.373157273907587"><ele>376.0</ele><time>2026-04-29T13:02:47.999Z</time></trkpt><trkpt lat="44.69374206055998" lon="9.373321739820387"><ele>376.0</ele><time>2026-04-29T13:02:48.999Z</time></trkpt><trkpt lat="44.69376746492464" lon="9.373451987353787"><ele>378.8</ele><time>2026-04-29T13:02:49.999Z</time></trkpt><trkpt lat="44.69376011736564" lon="9.373588054177398"><ele>381.6</ele><time>2026-04-29T13:02:51Z</time></trkpt><trkpt lat="44.69375147056674" lon="9.37373994374911"><ele>384.4</ele><time>2026-04-29T13:02:52Z</time></trkpt><trkpt lat="44.69374551585032" lon="9.373897094527411"><ele>387.2</ele><time>2026-04-29T13:02:53Z</time></trkpt><trkpt lat="44.69375067947469" lon="9.374035803355337"><ele>390.0</ele><time>2026-04-29T13:02:54Z</time></trkpt><trkpt lat="44.69374065652278" lon="9.374160569418713"><ele>389.5</ele><time>2026-04-29T13:02:55Z</time></trkpt><trkpt lat="44.693707973950346" lon="9.374266301205596"><ele>389.0</ele><time>2026-04-29T13:02:56Z</time></trkpt><trkpt lat="44.693649834314265" lon="9.374345977985021"><ele>388.5</ele><time>2026-04-29T13:02:57Z</time></trkpt><trkpt lat="44.693567953564724" lon="9.374402355552613"><ele>388.0</ele><time>2026-04-29T13:02:58Z</time></trkpt><trkpt lat="44.693493506568856" lon="9.374434384479377"><ele>387.5</ele><time>2026-04-29T13:02:59Z</time></trkpt><trkpt lat="44.69342533293297" lon="9.374434329910429"><ele>387.0</ele><time>2026-04-29T13:03:00Z</time></trkpt><trkpt lat="44.6933541670932" lon="9.374412996702214"><ele>387.0</ele><time>2026-04-29T13:03:01Z</time></trkpt><trkpt lat="44.69328259467121" lon="9.37434638023572"><ele>387.0</ele><time>2026-04-29T13:03:02Z</time></trkpt><trkpt lat="44.69323042300525" lon="9.374239264040826"><ele>387.0</ele><time>2026-04-29T13:03:03Z</time></trkpt><trkpt lat="44.69317499812541" lon="9.37410087505812"><ele>387.0</ele><time>2026-04-29T13:03:04Z</time></trkpt><trkpt lat="44.693121109484174" lon="9.373933301384264"><ele>387.0</ele><time>2026-04-29T13:03:05Z</time></trkpt><trkpt lat="44.69305880446752" lon="9.37377117956446"><ele>387.33333333333337</ele><time>2026-04-29T13:03:06Z</time></trkpt><trkpt lat="44.69297499299556" lon="9.373590662866462"><ele>387.6666666666667</ele><time>2026-04-29T13:03:07Z</time></trkpt><trkpt lat="44.69286245438235" lon="9.373404387380797"><ele>388.0</ele><time>2026-04-29T13:03:08Z</time></trkpt><trkpt lat="44.69273961217931" lon="9.373218063349848"><ele>388.0</ele><time>2026-04-29T13:03:09Z</time></trkpt><trkpt lat="44.692646030934974" lon="9.373050135692527"><ele>388.0</ele><time>2026-04-29T13:03:10Z</time></trkpt><trkpt lat="44.692574351579715" lon="9.372897622044709"><ele>388.0</ele><time>2026-04-29T13:03:11Z</time></trkpt><trkpt lat="44.69250380217748" lon="9.372782681616444"><ele>388.0</ele><time>2026-04-29T13:03:12Z</time></trkpt><trkpt lat="44.69241529470333" lon="9.372691215221144"><ele>387.0</ele><time>2026-04-29T13:03:13Z</time></trkpt><trkpt lat="44.692296375167786" lon="9.37261210237166"><ele>386.0</ele><time>2026-04-29T13:03:14Z</time></trkpt><trkpt lat="44.69215858810766" lon="9.372547611170654"><ele>385.0</ele><time>2026-04-29T13:03:15Z</time></trkpt><trkpt lat="44.69203363823018" lon="9.372503930743653"><ele>384.0</ele><time>2026-04-29T13:03:16Z</time></trkpt><trkpt lat="44.691910747477735" lon="9.372478136021858"><ele>384.0</ele><time>2026-04-29T13:03:17Z</time></trkpt><trkpt lat="44.69177199037097" lon="9.372451477369893"><ele>384.0</ele><time>2026-04-29T13:03:18Z</time></trkpt><trkpt lat="44.69166142260634" lon="9.37245536704415"><ele>384.0</ele><time>2026-04-29T13:03:19Z</time></trkpt><trkpt lat="44.691564112330084" lon="9.372444103540401"><ele>384.0</ele><time>2026-04-29T13:03:20Z</time></trkpt><trkpt lat="44.69147402091411" lon="9.372422191315867"><ele>384.0</ele><time>2026-04-29T13:03:21Z</time></trkpt><trkpt lat="44.6913995938026" lon="9.372333184048577"><ele>384.0</ele><time>2026-04-29T13:03:22Z</time></trkpt><trkpt lat="44.691340495037004" lon="9.372200129138488"><ele>384.0</ele><time>2026-04-29T13:03:23Z</time></trkpt><trkpt lat="44.69130936979126" lon="9.372058466592854"><ele>384.0</ele><time>2026-04-29T13:03:24Z</time></trkpt><trkpt lat="44.691288356120666" lon="9.371935116291134"><ele>384.0</ele><time>2026-04-29T13:03:25Z</time></trkpt><trkpt lat="44.69123974304961" lon="9.37183835381117"><ele>384.0</ele><time>2026-04-29T13:03:26Z</time></trkpt><trkpt lat="44.69117123797763" lon="9.371780099934258"><ele>382.0</ele><time>2026-04-29T13:03:27.001Z</time></trkpt><trkpt lat="44.69109827024948" lon="9.37172893230763"><ele>380.0</ele><time>2026-04-29T13:03:28.001Z</time></trkpt><trkpt lat="44.69099456422079" lon="9.371751946350589"><ele>378.0</ele><time>2026-04-29T13:03:29.001Z</time></trkpt><trkpt lat="44.69088206733187" lon="9.371817702963172"><ele>376.0</ele><time>2026-04-29T13:03:30.001Z</time></trkpt><trkpt lat="44.690767894060414" lon="9.371919413558224"><ele>374.0</ele><time>2026-04-29T13:03:31.001Z</time></trkpt><trkpt lat="44.69066384987032" lon="9.372024909234074"><ele>374.0</ele><time>2026-04-29T13:03:32.001Z</time></trkpt><trkpt lat="44.69054729443943" lon="9.372143316797036"><ele>374.0</ele><time>2026-04-29T13:03:33.001Z</time></trkpt><trkpt lat="44.69044602568225" lon="9.37225419512537"><ele>374.0</ele><time>2026-04-29T13:03:34.001Z</time></trkpt><trkpt lat="44.690360903454504" lon="9.372362442958726"><ele>374.0</ele><time>2026-04-29T13:03:35.001Z</time></trkpt><trkpt lat="44.69029172708238" lon="9.372477668864752"><ele>377.79999999999995</ele><time>2026-04-29T13:03:36.001Z</time></trkpt><trkpt lat="44.69023046553075" lon="9.372575664638129"><ele>381.59999999999997</ele><time>2026-04-29T13:03:37.001Z</time></trkpt><trkpt lat="44.69015047793628" lon="9.37265139622203"><ele>385.4</ele><time>2026-04-29T13:03:38.001Z</time></trkpt><trkpt lat="44.6900684041055" lon="9.372705486909492"><ele>389.2</ele><time>2026-04-29T13:03:39.001Z</time></trkpt><trkpt lat="44.689959258863844" lon="9.37270115607069"><ele>393.0</ele><time>2026-04-29T13:03:40.001Z</time></trkpt><trkpt lat="44.68983932185893" lon="9.372666635963784"><ele>393.0</ele><time>2026-04-29T13:03:41.001Z</time></trkpt><trkpt lat="44.68969538918281" lon="9.372611321617292"><ele>393.0</ele><time>2026-04-29T13:03:42.001Z</time></trkpt><trkpt lat="44.689537515504924" lon="9.37254396074815"><ele>393.0</ele><time>2026-04-29T13:03:43.001Z</time></trkpt><trkpt lat="44.68939446015989" lon="9.37248659499863"><ele>394.25</ele><time>2026-04-29T13:03:44.001Z</time></trkpt><trkpt lat="44.689266037142794" lon="9.372437589711236"><ele>395.5</ele><time>2026-04-29T13:03:45.001Z</time></trkpt><trkpt lat="44.689154240013195" lon="9.37239323136669"><ele>396.75</ele><time>2026-04-29T13:03:46.001Z</time></trkpt><trkpt lat="44.68905599459428" lon="9.372364294047227"><ele>398.0</ele><time>2026-04-29T13:03:47.001Z</time></trkpt><trkpt lat="44.68893838917749" lon="9.372339262732835"><ele>398.0</ele><time>2026-04-29T13:03:48.001Z</time></trkpt><trkpt lat="44.68879851529337" lon="9.372405599621025"><ele>398.0</ele><time>2026-04-29T13:03:49.001Z</time></trkpt><trkpt lat="44.68864051922558" lon="9.37246459480884"><ele>398.0</ele><time>2026-04-29T13:03:50.001Z</time></trkpt><trkpt lat="44.68848039314534" lon="9.37249759708527"><ele>398.0</ele><time>2026-04-29T13:03:51.001Z</time></trkpt><trkpt lat="44.68834428602499" lon="9.372544908563034"><ele>398.0</ele><time>2026-04-29T13:03:52.001Z</time></trkpt><trkpt lat="44.68823232922425" lon="9.372583825573905"><ele>398.0</ele><time>2026-04-29T13:03:53.001Z</time></trkpt><trkpt lat="44.68813434231248" lon="9.37260622864353"><ele>398.0</ele><time>2026-04-29T13:03:54.001Z</time></trkpt><trkpt lat="44.68803134256255" lon="9.372601777426746"><ele>398.0</ele><time>2026-04-29T13:03:55.001Z</time></trkpt><trkpt lat="44.687912629436724" lon="9.372523614665758"><ele>398.0</ele><time>2026-04-29T13:03:56.001Z</time></trkpt><trkpt lat="44.687807702067694" lon="9.372407704168229"><ele>398.0</ele><time>2026-04-29T13:03:57.001Z</time></trkpt><trkpt lat="44.6877076880566" lon="9.372257529169543"><ele>398.0</ele><time>2026-04-29T13:03:58.001Z</time></trkpt><trkpt lat="44.68760065788093" lon="9.37209706462551"><ele>398.0</ele><time>2026-04-29T13:03:59.001Z</time></trkpt><trkpt lat="44.687490523715255" lon="9.371949022505294"><ele>398.0</ele><time>2026-04-29T13:04:00.001Z</time></trkpt><trkpt lat="44.687382057869264" lon="9.371800855446619"><ele>398.0</ele><time>2026-04-29T13:04:01.001Z</time></trkpt><trkpt lat="44.68725674641196" lon="9.371670817874287"><ele>398.0</ele><time>2026-04-29T13:04:02.001Z</time></trkpt><trkpt lat="44.68713692032504" lon="9.371553737867256"><ele>398.0</ele><time>2026-04-29T13:04:03.001Z</time></trkpt><trkpt lat="44.68703172398391" lon="9.371454292358516"><ele>398.0</ele><time>2026-04-29T13:04:04.001Z</time></trkpt><trkpt lat="44.68694501562482" lon="9.371345652280091"><ele>398.0</ele><time>2026-04-29T13:04:05.001Z</time></trkpt><trkpt lat="44.68688389767785" lon="9.371223578364809"><ele>401.75</ele><time>2026-04-29T13:04:06.001Z</time></trkpt><trkpt lat="44.68684350497123" lon="9.37109239774938"><ele>405.5</ele><time>2026-04-29T13:04:07.001Z</time></trkpt><trkpt lat="44.686821943519604" lon="9.370947908202192"><ele>409.25</ele><time>2026-04-29T13:04:08.001Z</time></trkpt><trkpt lat="44.68683271186448" lon="9.370787542482903"><ele>413.0</ele><time>2026-04-29T13:04:09.001Z</time></trkpt><trkpt lat="44.68685104174336" lon="9.370591736708974"><ele>413.5</ele><time>2026-04-29T13:04:10.001Z</time></trkpt><trkpt lat="44.68685978119022" lon="9.370399172052725"><ele>414.0</ele><time>2026-04-29T13:04:11.001Z</time></trkpt><trkpt lat="44.68686500031626" lon="9.370234437083457"><ele>414.5</ele><time>2026-04-29T13:04:12.001Z</time></trkpt><trkpt lat="44.68684897145522" lon="9.370078389712049"><ele>415.0</ele><time>2026-04-29T13:04:13.001Z</time></trkpt><trkpt lat="44.68681155904869" lon="9.369892869795459"><ele>415.0</ele><time>2026-04-29T13:04:14.002Z</time></trkpt><trkpt lat="44.68677139384525" lon="9.369701833897455"><ele>415.0</ele><time>2026-04-29T13:04:15.002Z</time></trkpt><trkpt lat="44.686736392655824" lon="9.369533372697829"><ele>415.0</ele><time>2026-04-29T13:04:16.002Z</time></trkpt><trkpt lat="44.686696087238424" lon="9.369378075568752"><ele>415.0</ele><time>2026-04-29T13:04:17.002Z</time></trkpt><trkpt lat="44.686659581738205" lon="9.36924357200363"><ele>412.8</ele><time>2026-04-29T13:04:18.002Z</time></trkpt><trkpt lat="44.68659949625422" lon="9.369132089466786"><ele>410.6</ele><time>2026-04-29T13:04:19.002Z</time></trkpt><trkpt lat="44.6865110556258" lon="9.369056183056504"><ele>408.4</ele><time>2026-04-29T13:04:20.002Z</time></trkpt><trkpt lat="44.6864066194196" lon="9.369034668531523"><ele>406.2</ele><time>2026-04-29T13:04:21.002Z</time></trkpt><trkpt lat="44.68630514175228" lon="9.36905409630824"><ele>404.0</ele><time>2026-04-29T13:04:22.002Z</time></trkpt><trkpt lat="44.686211775453366" lon="9.369152772645085"><ele>404.0</ele><time>2026-04-29T13:04:23.002Z</time></trkpt><trkpt lat="44.68616467840101" lon="9.369297428567"><ele>404.0</ele><time>2026-04-29T13:04:24.002Z</time></trkpt><trkpt lat="44.68612391913654" lon="9.369437156805564"><ele>404.0</ele><time>2026-04-29T13:04:25.002Z</time></trkpt><trkpt lat="44.68609379802237" lon="9.369617970174458"><ele>404.0</ele><time>2026-04-29T13:04:26.002Z</time></trkpt><trkpt lat="44.68604849128645" lon="9.369807454198124"><ele>405.0</ele><time>2026-04-29T13:04:27.002Z</time></trkpt><trkpt lat="44.685977670953385" lon="9.369986055098677"><ele>406.0</ele><time>2026-04-29T13:04:28.002Z</time></trkpt><trkpt lat="44.68589609462201" lon="9.370138021252568"><ele>407.0</ele><time>2026-04-29T13:04:29.002Z</time></trkpt><trkpt lat="44.68580770225815" lon="9.370277120237146"><ele>408.0</ele><time>2026-04-29T13:04:30.002Z</time></trkpt><trkpt lat="44.68569409023268" lon="9.370386633120658"><ele>408.0</ele><time>2026-04-29T13:04:31.002Z</time></trkpt><trkpt lat="44.6855621223426" lon="9.37048165603708"><ele>408.0</ele><time>2026-04-29T13:04:32.002Z</time></trkpt><trkpt lat="44.68542848377503" lon="9.370582013798996"><ele>408.0</ele><time>2026-04-29T13:04:33.002Z</time></trkpt><trkpt lat="44.6853171836118" lon="9.37073035571098"><ele>404.0</ele><time>2026-04-29T13:04:34.002Z</time></trkpt><trkpt lat="44.68519595008109" lon="9.37086253642825"><ele>400.0</ele><time>2026-04-29T13:04:35.002Z</time></trkpt><trkpt lat="44.685092126101644" lon="9.371005459443547"><ele>396.0</ele><time>2026-04-29T13:04:36.002Z</time></trkpt><trkpt lat="44.685000564365794" lon="9.371146981642507"><ele>392.0</ele><time>2026-04-29T13:04:37.002Z</time></trkpt><trkpt lat="44.684932236715326" lon="9.37129115256621"><ele>398.75</ele><time>2026-04-29T13:04:38.002Z</time></trkpt><trkpt lat="44.68487861638894" lon="9.37145991159937"><ele>405.5</ele><time>2026-04-29T13:04:39.002Z</time></trkpt><trkpt lat="44.68483415294908" lon="9.371647944405812"><ele>412.25</ele><time>2026-04-29T13:04:40.002Z</time></trkpt><trkpt lat="44.684762800793266" lon="9.371828656837192"><ele>419.0</ele><time>2026-04-29T13:04:41.002Z</time></trkpt><trkpt lat="44.684664650377655" lon="9.372009926333714"><ele>419.0</ele><time>2026-04-29T13:04:42.002Z</time></trkpt><trkpt lat="44.684548516056054" lon="9.372146324099894"><ele>419.0</ele><time>2026-04-29T13:04:43.002Z</time></trkpt><trkpt lat="44.68444923390641" lon="9.372279248490681"><ele>419.0</ele><time>2026-04-29T13:04:44.002Z</time></trkpt><trkpt lat="44.68437041742572" lon="9.372357035791888"><ele>419.0</ele><time>2026-04-29T13:04:45.002Z</time></trkpt><trkpt lat="44.684295335793124" lon="9.37244135257235"><ele>419.0</ele><time>2026-04-29T13:04:46.002Z</time></trkpt><trkpt lat="44.68421704152725" lon="9.372524384402533"><ele>419.0</ele><time>2026-04-29T13:04:47.001Z</time></trkpt><trkpt lat="44.684133696737845" lon="9.372612625555323"><ele>419.0</ele><time>2026-04-29T13:04:48.001Z</time></trkpt><trkpt lat="44.68405417868534" lon="9.372739074284818"><ele>419.0</ele><time>2026-04-29T13:04:49.001Z</time></trkpt><trkpt lat="44.68398635374221" lon="9.372877861965552"><ele>419.0</ele><time>2026-04-29T13:04:50.001Z</time></trkpt><trkpt lat="44.68391763473237" lon="9.373035744421436"><ele>419.0</ele><time>2026-04-29T13:04:51.001Z</time></trkpt><trkpt lat="44.68385427419702" lon="9.373197055634254"><ele>419.0</ele><time>2026-04-29T13:04:52.001Z</time></trkpt><trkpt lat="44.68379818064461" lon="9.373349940296736"><ele>419.0</ele><time>2026-04-29T13:04:53.001Z</time></trkpt><trkpt lat="44.683747945576606" lon="9.37350144386544"><ele>419.0</ele><time>2026-04-29T13:04:54.001Z</time></trkpt><trkpt lat="44.683711142469384" lon="9.373633137050017"><ele>419.0</ele><time>2026-04-29T13:04:55.001Z</time></trkpt><trkpt lat="44.68367754883995" lon="9.373743644556692"><ele>419.0</ele><time>2026-04-29T13:04:56.001Z</time></trkpt><trkpt lat="44.68364264031093" lon="9.373854788229732"><ele>419.0</ele><time>2026-04-29T13:04:57.001Z</time></trkpt><trkpt lat="44.68357883123412" lon="9.373940183983914"><ele>419.0</ele><time>2026-04-29T13:04:58.001Z</time></trkpt><trkpt lat="44.6835081069356" lon="9.374033393322117"><ele>419.0</ele><time>2026-04-29T13:04:59.001Z</time></trkpt><trkpt lat="44.683428061768" lon="9.37411012971624"><ele>414.0</ele><time>2026-04-29T13:05:00.001Z</time></trkpt><trkpt lat="44.68334442302047" lon="9.37417445721313"><ele>409.0</ele><time>2026-04-29T13:05:01.001Z</time></trkpt><trkpt lat="44.68326353679531" lon="9.374251913044484"><ele>404.0</ele><time>2026-04-29T13:05:02.001Z</time></trkpt><trkpt lat="44.68317566426255" lon="9.374337970600472"><ele>399.0</ele><time>2026-04-29T13:05:03.001Z</time></trkpt><trkpt lat="44.683076488223975" lon="9.37442998964721"><ele>394.0</ele><time>2026-04-29T13:05:04.001Z</time></trkpt><trkpt lat="44.682975401738005" lon="9.37452377812527"><ele>394.00000000000006</ele><time>2026-04-29T13:05:05.001Z</time></trkpt><trkpt lat="44.68288620899326" lon="9.374610909356"><ele>394.0</ele><time>2026-04-29T13:05:06.001Z</time></trkpt><trkpt lat="44.68279829047552" lon="9.374676529408086"><ele>394.0</ele><time>2026-04-29T13:05:07.001Z</time></trkpt><trkpt lat="44.68272992132255" lon="9.374733845888361"><ele>394.0</ele><time>2026-04-29T13:05:08.001Z</time></trkpt><trkpt lat="44.68266838316229" lon="9.374793693475102"><ele>394.00000000000006</ele><time>2026-04-29T13:05:09.001Z</time></trkpt><trkpt lat="44.68259071186669" lon="9.374811198587954"><ele>394.0</ele><time>2026-04-29T13:05:10.001Z</time></trkpt><trkpt lat="44.68250496017088" lon="9.374759215693699"><ele>396.2</ele><time>2026-04-29T13:05:11.001Z</time></trkpt><trkpt lat="44.68242198001307" lon="9.374700774332615"><ele>398.4</ele><time>2026-04-29T13:05:12.001Z</time></trkpt><trkpt lat="44.68232882117587" lon="9.37463678258409"><ele>400.6</ele><time>2026-04-29T13:05:13.001Z</time></trkpt><trkpt lat="44.68222542217751" lon="9.374570999734273"><ele>402.8</ele><time>2026-04-29T13:05:14.001Z</time></trkpt><trkpt lat="44.68212620405076" lon="9.374511261659954"><ele>405.0</ele><time>2026-04-29T13:05:15.001Z</time></trkpt><trkpt lat="44.682029470240195" lon="9.374465274439975"><ele>400.6</ele><time>2026-04-29T13:05:16.001Z</time></trkpt><trkpt lat="44.6819559129162" lon="9.374447097367103"><ele>396.2</ele><time>2026-04-29T13:05:17.001Z</time></trkpt><trkpt lat="44.68188111439319" lon="9.374425094737935"><ele>391.79999999999995</ele><time>2026-04-29T13:05:18.001Z</time></trkpt><trkpt lat="44.681794782909705" lon="9.374454119102783"><ele>387.4</ele><time>2026-04-29T13:05:19.001Z</time></trkpt><trkpt lat="44.681706794532566" lon="9.374514380318345"><ele>383.0</ele><time>2026-04-29T13:05:20.001Z</time></trkpt><trkpt lat="44.68160535484214" lon="9.374617720605608"><ele>388.5</ele><time>2026-04-29T13:05:21.001Z</time></trkpt><trkpt lat="44.68148508986636" lon="9.374758276880803"><ele>394.0</ele><time>2026-04-29T13:05:22.001Z</time></trkpt><trkpt lat="44.68137402285713" lon="9.374888578903622"><ele>399.5</ele><time>2026-04-29T13:05:23.001Z</time></trkpt><trkpt lat="44.68126304360684" lon="9.374996958459155"><ele>405.0</ele><time>2026-04-29T13:05:24.001Z</time></trkpt><trkpt lat="44.68114196144663" lon="9.375086042944549"><ele>401.25</ele><time>2026-04-29T13:05:25.001Z</time></trkpt><trkpt lat="44.681025548659186" lon="9.375169687147435"><ele>397.5</ele><time>2026-04-29T13:05:26.001Z</time></trkpt><trkpt lat="44.680916232510995" lon="9.375249240033257"><ele>393.75</ele><time>2026-04-29T13:05:27.001Z</time></trkpt><trkpt lat="44.680813963519334" lon="9.375319392149416"><ele>390.0</ele><time>2026-04-29T13:05:28.001Z</time></trkpt><trkpt lat="44.680725349159566" lon="9.375377131806793"><ele>390.0</ele><time>2026-04-29T13:05:29.001Z</time></trkpt><trkpt lat="44.68063994613061" lon="9.375435423637384"><ele>390.0</ele><time>2026-04-29T13:05:30.001Z</time></trkpt><trkpt lat="44.680551395361185" lon="9.375478641328348"><ele>390.0</ele><time>2026-04-29T13:05:31.001Z</time></trkpt><trkpt lat="44.68045502020328" lon="9.375490124300411"><ele>390.0</ele><time>2026-04-29T13:05:32.001Z</time></trkpt><trkpt lat="44.68036202558945" lon="9.375474303986978"><ele>390.0</ele><time>2026-04-29T13:05:33.001Z</time></trkpt><trkpt lat="44.68027180457161" lon="9.375419485725677"><ele>389.8333333333333</ele><time>2026-04-29T13:05:35.001Z</time></trkpt><trkpt lat="44.680200359577505" lon="9.375397652789093"><ele>389.66666666666663</ele><time>2026-04-29T13:05:38.001Z</time></trkpt><trkpt lat="44.68012052904513" lon="9.375363830407688"><ele>389.5</ele><time>2026-04-29T13:05:41.001Z</time></trkpt><trkpt lat="44.680054562642674" lon="9.375329251741503"><ele>389.3333333333333</ele><time>2026-04-29T13:05:43.001Z</time></trkpt><trkpt lat="44.67998250780855" lon="9.375301230739874"><ele>389.16666666666663</ele><time>2026-04-29T13:05:45.001Z</time></trkpt><trkpt lat="44.679867449247716" lon="9.375231730198502"><ele>389.0</ele><time>2026-04-29T13:05:47.001Z</time></trkpt><trkpt lat="44.67978654766656" lon="9.375177446461622"><ele>389.0</ele><time>2026-04-29T13:05:48.001Z</time></trkpt><trkpt lat="44.679695117443615" lon="9.37511442910917"><ele>389.0</ele><time>2026-04-29T13:05:49.001Z</time></trkpt><trkpt lat="44.679604194786855" lon="9.375052316211802"><ele>389.0</ele><time>2026-04-29T13:05:50.001Z</time></trkpt><trkpt lat="44.67951803331403" lon="9.37498837466742"><ele>389.0</ele><time>2026-04-29T13:05:51.001Z</time></trkpt><trkpt lat="44.679438956495225" lon="9.374933145638884"><ele>389.0</ele><time>2026-04-29T13:05:52.001Z</time></trkpt><trkpt lat="44.679379499299245" lon="9.374898215346043"><ele>390.2</ele><time>2026-04-29T13:05:53.001Z</time></trkpt><trkpt lat="44.67931796074417" lon="9.374857672996754"><ele>391.4</ele><time>2026-04-29T13:05:54.001Z</time></trkpt><trkpt lat="44.67923386226689" lon="9.374869971160875"><ele>392.6</ele><time>2026-04-29T13:05:55.001Z</time></trkpt><trkpt lat="44.67914657685748" lon="9.374916344282179"><ele>393.8</ele><time>2026-04-29T13:05:56.001Z</time></trkpt><trkpt lat="44.67905896962059" lon="9.37500138673617"><ele>395.0</ele><time>2026-04-29T13:05:57.001Z</time></trkpt><trkpt lat="44.67897184596854" lon="9.375093046757335"><ele>395.0</ele><time>2026-04-29T13:05:58.001Z</time></trkpt><trkpt lat="44.67885603191605" lon="9.37519815135075"><ele>395.0</ele><time>2026-04-29T13:05:59.001Z</time></trkpt><trkpt lat="44.678732609722616" lon="9.375309188075764"><ele>395.0</ele><time>2026-04-29T13:06:00.001Z</time></trkpt><trkpt lat="44.678612131744174" lon="9.375414666038182"><ele>395.0</ele><time>2026-04-29T13:06:01.002Z</time></trkpt><trkpt lat="44.67850019709504" lon="9.375515239028251"><ele>396.0</ele><time>2026-04-29T13:06:02.002Z</time></trkpt><trkpt lat="44.67838742084834" lon="9.37561797796894"><ele>397.0</ele><time>2026-04-29T13:06:03.002Z</time></trkpt><trkpt lat="44.67827355440956" lon="9.375754909681564"><ele>398.0</ele><time>2026-04-29T13:06:04.002Z</time></trkpt><trkpt lat="44.678166560565096" lon="9.375903863709354"><ele>399.0</ele><time>2026-04-29T13:06:05.002Z</time></trkpt><trkpt lat="44.678071009498105" lon="9.376052754848097"><ele>399.0</ele><time>2026-04-29T13:06:06.002Z</time></trkpt><trkpt lat="44.67795406092749" lon="9.376186500492738"><ele>399.0</ele><time>2026-04-29T13:06:07.002Z</time></trkpt><trkpt lat="44.67785705021257" lon="9.376329092264655"><ele>399.0</ele><time>2026-04-29T13:06:08.002Z</time></trkpt><trkpt lat="44.67776771863517" lon="9.37646530372186"><ele>399.0</ele><time>2026-04-29T13:06:09.002Z</time></trkpt><trkpt lat="44.67770582296171" lon="9.376587744246919"><ele>396.75</ele><time>2026-04-29T13:06:10.002Z</time></trkpt><trkpt lat="44.677621525135855" lon="9.376667929274092"><ele>394.5</ele><time>2026-04-29T13:06:11.002Z</time></trkpt><trkpt lat="44.67752262512655" lon="9.376783662111201"><ele>392.25</ele><time>2026-04-29T13:06:12.002Z</time></trkpt><trkpt lat="44.67741821523627" lon="9.376871863216099"><ele>390.0</ele><time>2026-04-29T13:06:13.002Z</time></trkpt><trkpt lat="44.67729340895611" lon="9.37693322412061"><ele>390.0</ele><time>2026-04-29T13:06:14.002Z</time></trkpt><trkpt lat="44.67718378962887" lon="9.37699224285778"><ele>390.0</ele><time>2026-04-29T13:06:15.002Z</time></trkpt><trkpt lat="44.6771037517756" lon="9.377045374558403"><ele>390.0</ele><time>2026-04-29T13:06:16.002Z</time></trkpt><trkpt lat="44.677029111478454" lon="9.37712601824688"><ele>390.0</ele><time>2026-04-29T13:06:17.002Z</time></trkpt><trkpt lat="44.6769763149744" lon="9.377224146779943"><ele>390.0</ele><time>2026-04-29T13:06:18.002Z</time></trkpt><trkpt lat="44.67692470432948" lon="9.377324777676352"><ele>388.2</ele><time>2026-04-29T13:06:19.002Z</time></trkpt><trkpt lat="44.67690803529545" lon="9.377479232043878"><ele>386.4</ele><time>2026-04-29T13:06:20.002Z</time></trkpt><trkpt lat="44.67692207674935" lon="9.377642834160502"><ele>384.6</ele><time>2026-04-29T13:06:21.002Z</time></trkpt><trkpt lat="44.67694762062746" lon="9.377779219007191"><ele>382.8</ele><time>2026-04-29T13:06:22.002Z</time></trkpt><trkpt lat="44.67697250797939" lon="9.377900474500938"><ele>381.0</ele><time>2026-04-29T13:06:23.002Z</time></trkpt><trkpt lat="44.6769735531579" lon="9.377998761290993"><ele>381.6</ele><time>2026-04-29T13:06:24.002Z</time></trkpt><trkpt lat="44.67695821352629" lon="9.378113855793766"><ele>382.20000000000005</ele><time>2026-04-29T13:06:25.002Z</time></trkpt><trkpt lat="44.67692173841837" lon="9.378229876312355"><ele>382.79999999999995</ele><time>2026-04-29T13:06:26.002Z</time></trkpt><trkpt lat="44.676858926686435" lon="9.37832596020873"><ele>383.4</ele><time>2026-04-29T13:06:27.002Z</time></trkpt><trkpt lat="44.67677308850902" lon="9.378424047070096"><ele>384.0</ele><time>2026-04-29T13:06:28.002Z</time></trkpt><trkpt lat="44.67666410056722" lon="9.378497469848115"><ele>384.0</ele><time>2026-04-29T13:06:29.002Z</time></trkpt><trkpt lat="44.67653321929905" lon="9.378588960332626"><ele>384.0</ele><time>2026-04-29T13:06:30.002Z</time></trkpt><trkpt lat="44.67640384519419" lon="9.378679452849223"><ele>384.0</ele><time>2026-04-29T13:06:31.002Z</time></trkpt><trkpt lat="44.67628480658114" lon="9.378763344860404"><ele>384.0</ele><time>2026-04-29T13:06:32.002Z</time></trkpt><trkpt lat="44.67619194483297" lon="9.378851934449568"><ele>385.4</ele><time>2026-04-29T13:06:33.002Z</time></trkpt><trkpt lat="44.67609104682546" lon="9.378889173356198"><ele>386.79999999999995</ele><time>2026-04-29T13:06:34.002Z</time></trkpt><trkpt lat="44.675994346700676" lon="9.378893189443275"><ele>388.20000000000005</ele><time>2026-04-29T13:06:35.002Z</time></trkpt><trkpt lat="44.67589121074339" lon="9.37886810777848"><ele>389.6</ele><time>2026-04-29T13:06:36.002Z</time></trkpt><trkpt lat="44.67578078144348" lon="9.378831643334514"><ele>391.0</ele><time>2026-04-29T13:06:37.002Z</time></trkpt><trkpt lat="44.67566496338136" lon="9.378798235935644"><ele>391.0</ele><time>2026-04-29T13:06:38.002Z</time></trkpt><trkpt lat="44.67556829604444" lon="9.378784017970771"><ele>391.0</ele><time>2026-04-29T13:06:39.002Z</time></trkpt><trkpt lat="44.67547790696229" lon="9.378767670436169"><ele>391.0</ele><time>2026-04-29T13:06:40.002Z</time></trkpt><trkpt lat="44.67539418339812" lon="9.378794353253838"><ele>391.0</ele><time>2026-04-29T13:06:41.002Z</time></trkpt><trkpt lat="44.67529893949577" lon="9.378866653958143"><ele>391.0</ele><time>2026-04-29T13:06:42.002Z</time></trkpt><trkpt lat="44.675209913632436" lon="9.37897072501402"><ele>387.0</ele><time>2026-04-29T13:06:43.002Z</time></trkpt><trkpt lat="44.67512035463241" lon="9.379080795634582"><ele>383.0</ele><time>2026-04-29T13:06:44.002Z</time></trkpt><trkpt lat="44.675021428955326" lon="9.379220806745261"><ele>379.0</ele><time>2026-04-29T13:06:45.002Z</time></trkpt><trkpt lat="44.674933552256284" lon="9.379355555017746"><ele>375.0</ele><time>2026-04-29T13:06:46.002Z</time></trkpt><trkpt lat="44.674841150160844" lon="9.379502530206764"><ele>375.0</ele><time>2026-04-29T13:06:47.002Z</time></trkpt><trkpt lat="44.674755338089994" lon="9.37965189437038"><ele>375.0</ele><time>2026-04-29T13:06:48.002Z</time></trkpt><trkpt lat="44.67467127268941" lon="9.379767550504033"><ele>375.0</ele><time>2026-04-29T13:06:49.002Z</time></trkpt><trkpt lat="44.67458575760899" lon="9.37987311200341"><ele>375.0</ele><time>2026-04-29T13:06:50.002Z</time></trkpt><trkpt lat="44.67450184904001" lon="9.379976406423687"><ele>375.0</ele><time>2026-04-29T13:06:51.002Z</time></trkpt><trkpt lat="44.67442110019294" lon="9.38008492564485"><ele>375.0</ele><time>2026-04-29T13:06:52.002Z</time></trkpt><trkpt lat="44.67435231642581" lon="9.380222419704422"><ele>375.0</ele><time>2026-04-29T13:06:53.002Z</time></trkpt><trkpt lat="44.67429256968527" lon="9.380401524650818"><ele>375.0</ele><time>2026-04-29T13:06:54.001Z</time></trkpt><trkpt lat="44.67423447898573" lon="9.380589431058455"><ele>375.0</ele><time>2026-04-29T13:06:55.001Z</time></trkpt><trkpt lat="44.674184446234904" lon="9.380780907020432"><ele>375.0</ele><time>2026-04-29T13:06:56.001Z</time></trkpt><trkpt lat="44.674115961240894" lon="9.38097273248152"><ele>375.0</ele><time>2026-04-29T13:06:57.001Z</time></trkpt><trkpt lat="44.67407102522731" lon="9.381181239497064"><ele>381.66666666666663</ele><time>2026-04-29T13:06:58.001Z</time></trkpt><trkpt lat="44.674034617172076" lon="9.381400344403843"><ele>388.3333333333333</ele><time>2026-04-29T13:06:59.001Z</time></trkpt><trkpt lat="44.67399499307651" lon="9.38161964132932"><ele>395.0</ele><time>2026-04-29T13:07:00.001Z</time></trkpt><trkpt lat="44.67396760320024" lon="9.381825389058172"><ele>395.0</ele><time>2026-04-29T13:07:01.001Z</time></trkpt><trkpt lat="44.67393917080011" lon="9.382018960336614"><ele>395.0</ele><time>2026-04-29T13:07:02.001Z</time></trkpt><trkpt lat="44.67391199838564" lon="9.38218902045567"><ele>395.0</ele><time>2026-04-29T13:07:03.001Z</time></trkpt><trkpt lat="44.6738683393013" lon="9.382351287884067"><ele>395.0</ele><time>2026-04-29T13:07:04.001Z</time></trkpt><trkpt lat="44.67379537832793" lon="9.382508652449836"><ele>398.5</ele><time>2026-04-29T13:07:05.001Z</time></trkpt><trkpt lat="44.67369211978951" lon="9.382662606990149"><ele>402.0</ele><time>2026-04-29T13:07:06.001Z</time></trkpt><trkpt lat="44.673584890316505" lon="9.382808097778955"><ele>405.5</ele><time>2026-04-29T13:07:07.001Z</time></trkpt><trkpt lat="44.67349385118204" lon="9.382950041078322"><ele>409.0</ele><time>2026-04-29T13:07:08.001Z</time></trkpt><trkpt lat="44.67341683328418" lon="9.383091636614003"><ele>400.0</ele><time>2026-04-29T13:07:09.001Z</time></trkpt><trkpt lat="44.67335231885772" lon="9.383229256873934"><ele>391.0</ele><time>2026-04-29T13:07:10.001Z</time></trkpt><trkpt lat="44.67330289430134" lon="9.3833844279416"><ele>382.0</ele><time>2026-04-29T13:07:11.001Z</time></trkpt><trkpt lat="44.67326874850169" lon="9.38356148904862"><ele>373.0</ele><time>2026-04-29T13:07:12.001Z</time></trkpt><trkpt lat="44.673239717496436" lon="9.383731927097667"><ele>375.5</ele><time>2026-04-29T13:07:13.001Z</time></trkpt><trkpt lat="44.673189270942906" lon="9.383893914947416"><ele>378.0</ele><time>2026-04-29T13:07:14.001Z</time></trkpt><trkpt lat="44.673109339456275" lon="9.38406927092193"><ele>380.5</ele><time>2026-04-29T13:07:15.001Z</time></trkpt><trkpt lat="44.67300987447345" lon="9.384248656949195"><ele>383.0</ele><time>2026-04-29T13:07:16.001Z</time></trkpt><trkpt lat="44.67293411831673" lon="9.38442023760445"><ele>383.0</ele><time>2026-04-29T13:07:17.001Z</time></trkpt><trkpt lat="44.672842253355846" lon="9.384601898550068"><ele>383.0</ele><time>2026-04-29T13:07:18.001Z</time></trkpt><trkpt lat="44.67276530972067" lon="9.38479773589104"><ele>383.0</ele><time>2026-04-29T13:07:19.001Z</time></trkpt><trkpt lat="44.67270690609787" lon="9.384994096430761"><ele>382.75</ele><time>2026-04-29T13:07:20.001Z</time></trkpt><trkpt lat="44.672650946288684" lon="9.385171523065987"><ele>382.5</ele><time>2026-04-29T13:07:21.001Z</time></trkpt><trkpt lat="44.67259099172367" lon="9.385322276739933"><ele>382.25</ele><time>2026-04-29T13:07:22.001Z</time></trkpt><trkpt lat="44.67252009142282" lon="9.385460784329053"><ele>382.0</ele><time>2026-04-29T13:07:23.001Z</time></trkpt><trkpt lat="44.67244027216835" lon="9.38559188216538"><ele>382.0</ele><time>2026-04-29T13:07:24.001Z</time></trkpt><trkpt lat="44.67235587136721" lon="9.385706859861763"><ele>382.0</ele><time>2026-04-29T13:07:25.001Z</time></trkpt><trkpt lat="44.672280984680604" lon="9.385797310718441"><ele>382.0</ele><time>2026-04-29T13:07:26.001Z</time></trkpt><trkpt lat="44.672210617646144" lon="9.385891411064705"><ele>382.0</ele><time>2026-04-29T13:07:27.001Z</time></trkpt><trkpt lat="44.67214700770625" lon="9.386001349083541"><ele>382.0</ele><time>2026-04-29T13:07:28.001Z</time></trkpt><trkpt lat="44.6720914870298" lon="9.386171493400541"><ele>382.75</ele><time>2026-04-29T13:07:29.001Z</time></trkpt><trkpt lat="44.67205406589776" lon="9.386362239347545"><ele>383.5</ele><time>2026-04-29T13:07:30.001Z</time></trkpt><trkpt lat="44.67201722184022" lon="9.38656086135092"><ele>384.25</ele><time>2026-04-29T13:07:31.001Z</time></trkpt><trkpt lat="44.67198291206775" lon="9.38674680106076"><ele>385.0</ele><time>2026-04-29T13:07:32.001Z</time></trkpt><trkpt lat="44.671951257602224" lon="9.386915920558625"><ele>384.0</ele><time>2026-04-29T13:07:33.001Z</time></trkpt><trkpt lat="44.67192052096812" lon="9.387071609852391"><ele>383.0</ele><time>2026-04-29T13:07:34.001Z</time></trkpt><trkpt lat="44.6718876727523" lon="9.387209535874087"><ele>382.0</ele><time>2026-04-29T13:07:35.001Z</time></trkpt><trkpt lat="44.67183717937925" lon="9.387332041314204"><ele>381.0</ele><time>2026-04-29T13:07:36.001Z</time></trkpt><trkpt lat="44.67176536746523" lon="9.387441321436008"><ele>380.0</ele><time>2026-04-29T13:07:37.001Z</time></trkpt><trkpt lat="44.671673414922665" lon="9.387536605060664"><ele>380.0</ele><time>2026-04-29T13:07:38.001Z</time></trkpt><trkpt lat="44.67156254402167" lon="9.387615255519693"><ele>380.0</ele><time>2026-04-29T13:07:39.001Z</time></trkpt><trkpt lat="44.67143889846611" lon="9.387678290148253"><ele>380.0</ele><time>2026-04-29T13:07:40.001Z</time></trkpt><trkpt lat="44.67130247077491" lon="9.387722047943539"><ele>380.0</ele><time>2026-04-29T13:07:41.001Z</time></trkpt><trkpt lat="44.67115851931112" lon="9.387731670405314"><ele>375.33333333333337</ele><time>2026-04-29T13:07:42.001Z</time></trkpt><trkpt lat="44.671009083550096" lon="9.387725686904044"><ele>370.6666666666667</ele><time>2026-04-29T13:07:43.001Z</time></trkpt><trkpt lat="44.67085741084605" lon="9.387725734302926"><ele>366.0</ele><time>2026-04-29T13:07:44.001Z</time></trkpt><trkpt lat="44.67069858019242" lon="9.387759599214537"><ele>366.0</ele><time>2026-04-29T13:07:45.001Z</time></trkpt><trkpt lat="44.670569475938514" lon="9.387829354904124"><ele>366.0</ele><time>2026-04-29T13:07:46.001Z</time></trkpt><trkpt lat="44.67044650421387" lon="9.387868909034058"><ele>366.0</ele><time>2026-04-29T13:07:47.001Z</time></trkpt><trkpt lat="44.670327234738686" lon="9.38788790632441"><ele>366.0</ele><time>2026-04-29T13:07:48.001Z</time></trkpt><trkpt lat="44.67022109414567" lon="9.387898058502422"><ele>367.25</ele><time>2026-04-29T13:07:49.001Z</time></trkpt><trkpt lat="44.670105402543776" lon="9.387847477306956"><ele>368.5</ele><time>2026-04-29T13:07:50.001Z</time></trkpt><trkpt lat="44.66999043146452" lon="9.387766111552164"><ele>369.75</ele><time>2026-04-29T13:07:51.001Z</time></trkpt><trkpt lat="44.66985843338872" lon="9.387686726212635"><ele>371.0</ele><time>2026-04-29T13:07:52.001Z</time></trkpt><trkpt lat="44.66972212231123" lon="9.387606551389569"><ele>371.0</ele><time>2026-04-29T13:07:53.001Z</time></trkpt><trkpt lat="44.669578288105086" lon="9.387541493174476"><ele>371.0</ele><time>2026-04-29T13:07:54.001Z</time></trkpt><trkpt lat="44.669439163496904" lon="9.387490144633585"><ele>371.0</ele><time>2026-04-29T13:07:55.001Z</time></trkpt><trkpt lat="44.669319480208856" lon="9.387444466600163"><ele>371.0</ele><time>2026-04-29T13:07:56.001Z</time></trkpt><trkpt lat="44.66919617122726" lon="9.387398713196566"><ele>374.0</ele><time>2026-04-29T13:07:57.001Z</time></trkpt><trkpt lat="44.66906696914074" lon="9.387349359443789"><ele>377.0</ele><time>2026-04-29T13:07:58.001Z</time></trkpt><trkpt lat="44.66894383783105" lon="9.387294674810473"><ele>380.0</ele><time>2026-04-29T13:07:59.001Z</time></trkpt><trkpt lat="44.668829945449176" lon="9.387242870983465"><ele>383.0</ele><time>2026-04-29T13:08:00.001Z</time></trkpt><trkpt lat="44.66872034256444" lon="9.387194909591473"><ele>380.0</ele><time>2026-04-29T13:08:01.001Z</time></trkpt><trkpt lat="44.66861392981284" lon="9.387168493598676"><ele>377.0</ele><time>2026-04-29T13:08:02.001Z</time></trkpt><trkpt lat="44.66851209213435" lon="9.387137207133271"><ele>374.0</ele><time>2026-04-29T13:08:03.001Z</time></trkpt><trkpt lat="44.668406888307494" lon="9.387138160706327"><ele>371.0</ele><time>2026-04-29T13:08:04.001Z</time></trkpt><trkpt lat="44.66829464714669" lon="9.38714119624786"><ele>368.0</ele><time>2026-04-29T13:08:05.001Z</time></trkpt><trkpt lat="44.668173830944184" lon="9.387152895172527"><ele>373.5</ele><time>2026-04-29T13:08:06.002Z</time></trkpt><trkpt lat="44.66803921189064" lon="9.387189013200096"><ele>379.0</ele><time>2026-04-29T13:08:07.002Z</time></trkpt><trkpt lat="44.66790029842001" lon="9.387199772124719"><ele>384.5</ele><time>2026-04-29T13:08:08.002Z</time></trkpt><trkpt lat="44.66775876822078" lon="9.387209330165895"><ele>390.0</ele><time>2026-04-29T13:08:09.002Z</time></trkpt><trkpt lat="44.667617314029066" lon="9.387226097958706"><ele>390.0</ele><time>2026-04-29T13:08:10.002Z</time></trkpt><trkpt lat="44.6674761298009" lon="9.387245554557712"><ele>390.0</ele><time>2026-04-29T13:08:11.002Z</time></trkpt><trkpt lat="44.66733905816419" lon="9.387268279378707"><ele>390.0</ele><time>2026-04-29T13:08:12.002Z</time></trkpt><trkpt lat="44.667208565388464" lon="9.387307686419895"><ele>390.0</ele><time>2026-04-29T13:08:13.002Z</time></trkpt><trkpt lat="44.667092073868886" lon="9.387337304302156"><ele>390.0</ele><time>2026-04-29T13:08:14.002Z</time></trkpt><trkpt lat="44.66698256013249" lon="9.387362727013384"><ele>390.0</ele><time>2026-04-29T13:08:15.002Z</time></trkpt><trkpt lat="44.66688908797312" lon="9.387418008717779"><ele>390.0</ele><time>2026-04-29T13:08:16.002Z</time></trkpt><trkpt lat="44.66679751173043" lon="9.387500032400693"><ele>390.0</ele><time>2026-04-29T13:08:17.002Z</time></trkpt><trkpt lat="44.66671616614836" lon="9.387601632735501"><ele>390.0</ele><time>2026-04-29T13:08:18.002Z</time></trkpt><trkpt lat="44.666655718768766" lon="9.38772323441768"><ele>389.5</ele><time>2026-04-29T13:08:19.002Z</time></trkpt><trkpt lat="44.66660796057474" lon="9.38788092970578"><ele>389.0</ele><time>2026-04-29T13:08:20.002Z</time></trkpt><trkpt lat="44.66656863614925" lon="9.388060404813013"><ele>388.5</ele><time>2026-04-29T13:08:21.002Z</time></trkpt><trkpt lat="44.666537412800224" lon="9.388245519140371"><ele>388.0</ele><time>2026-04-29T13:08:22.002Z</time></trkpt><trkpt lat="44.666485967162785" lon="9.388401251013384"><ele>388.0</ele><time>2026-04-29T13:08:23.002Z</time></trkpt><trkpt lat="44.666462399550255" lon="9.388560706276435"><ele>388.0</ele><time>2026-04-29T13:08:24.002Z</time></trkpt><trkpt lat="44.66641439852828" lon="9.388701412279904"><ele>388.0</ele><time>2026-04-29T13:08:25.002Z</time></trkpt><trkpt lat="44.66635212644101" lon="9.388838964191887"><ele>388.0</ele><time>2026-04-29T13:08:26.002Z</time></trkpt><trkpt lat="44.66627694337051" lon="9.388964487539269"><ele>386.5</ele><time>2026-04-29T13:08:27.002Z</time></trkpt><trkpt lat="44.666187237278294" lon="9.389080800600247"><ele>385.0</ele><time>2026-04-29T13:08:28.002Z</time></trkpt><trkpt lat="44.66606851898151" lon="9.389178383953999"><ele>383.5</ele><time>2026-04-29T13:08:29.002Z</time></trkpt><trkpt lat="44.665961933681196" lon="9.389300534336618"><ele>382.0</ele><time>2026-04-29T13:08:30.002Z</time></trkpt><trkpt lat="44.66587551074605" lon="9.389368136899323"><ele>382.0</ele><time>2026-04-29T13:08:31.002Z</time></trkpt><trkpt lat="44.66579203895421" lon="9.389382488776914"><ele>382.0</ele><time>2026-04-29T13:08:32.002Z</time></trkpt><trkpt lat="44.66570285562318" lon="9.389415993099293"><ele>382.0</ele><time>2026-04-29T13:08:33.002Z</time></trkpt><trkpt lat="44.665598596178015" lon="9.389474047830323"><ele>382.0</ele><time>2026-04-29T13:08:34.002Z</time></trkpt><trkpt lat="44.665464196974355" lon="9.38951965328701"><ele>382.0</ele><time>2026-04-29T13:08:35.002Z</time></trkpt><trkpt lat="44.66532279704008" lon="9.389563486978876"><ele>378.75</ele><time>2026-04-29T13:08:36.002Z</time></trkpt><trkpt lat="44.66517744775157" lon="9.389616565685873"><ele>375.5</ele><time>2026-04-29T13:08:37.002Z</time></trkpt><trkpt lat="44.665028452701186" lon="9.38965695377869"><ele>372.25</ele><time>2026-04-29T13:08:38.002Z</time></trkpt><trkpt lat="44.66488831345745" lon="9.38971218894647"><ele>369.0</ele><time>2026-04-29T13:08:39.002Z</time></trkpt><trkpt lat="44.664760229970604" lon="9.389754721365003"><ele>379.0</ele><time>2026-04-29T13:08:40.002Z</time></trkpt><trkpt lat="44.66464516058253" lon="9.389796954983941"><ele>389.0</ele><time>2026-04-29T13:08:41.002Z</time></trkpt><trkpt lat="44.664541384657" lon="9.389825499535927"><ele>399.0</ele><time>2026-04-29T13:08:42.002Z</time></trkpt><trkpt lat="44.664434668845935" lon="9.389820092315666"><ele>409.0</ele><time>2026-04-29T13:08:43.002Z</time></trkpt><trkpt lat="44.66431099886676" lon="9.389779990730673"><ele>409.0</ele><time>2026-04-29T13:08:44.002Z</time></trkpt><trkpt lat="44.66418405847492" lon="9.389696684619956"><ele>409.0</ele><time>2026-04-29T13:08:45.002Z</time></trkpt><trkpt lat="44.664048280135354" lon="9.389642317101213"><ele>409.0</ele><time>2026-04-29T13:08:46.002Z</time></trkpt><trkpt lat="44.663905558349526" lon="9.38962307920627"><ele>409.0</ele><time>2026-04-29T13:08:47.002Z</time></trkpt><trkpt lat="44.6637442821388" lon="9.389581856302454"><ele>400.0</ele><time>2026-04-29T13:08:48.002Z</time></trkpt><trkpt lat="44.66357478542446" lon="9.389569372624841"><ele>391.0</ele><time>2026-04-29T13:08:49.002Z</time></trkpt><trkpt lat="44.663419491707685" lon="9.38955775435796"><ele>382.0</ele><time>2026-04-29T13:08:50.002Z</time></trkpt><trkpt lat="44.6632726485197" lon="9.389537736449723"><ele>382.0</ele><time>2026-04-29T13:08:51.002Z</time></trkpt><trkpt lat="44.663146427173686" lon="9.389518039780366"><ele>382.0</ele><time>2026-04-29T13:08:52.002Z</time></trkpt><trkpt lat="44.66303215538153" lon="9.389504106067093"><ele>382.0</ele><time>2026-04-29T13:08:53.002Z</time></trkpt><trkpt lat="44.662929472266974" lon="9.389448037953342"><ele>382.0</ele><time>2026-04-29T13:08:54.002Z</time></trkpt><trkpt lat="44.6628302472423" lon="9.389415834141518"><ele>391.25</ele><time>2026-04-29T13:08:55.002Z</time></trkpt><trkpt lat="44.662752567574366" lon="9.389317943122325"><ele>400.5</ele><time>2026-04-29T13:08:56.002Z</time></trkpt><trkpt lat="44.662691043410035" lon="9.389181674224723"><ele>409.75</ele><time>2026-04-29T13:08:57.002Z</time></trkpt><trkpt lat="44.662638517719806" lon="9.389044959591867"><ele>419.0</ele><time>2026-04-29T13:08:58.002Z</time></trkpt><trkpt lat="44.66260060635455" lon="9.388874346147409"><ele>413.5</ele><time>2026-04-29T13:08:59.001Z</time></trkpt><trkpt lat="44.66259124936181" lon="9.388702907206476"><ele>408.0</ele><time>2026-04-29T13:09:00.001Z</time></trkpt><trkpt lat="44.66257293099121" lon="9.388513913912295"><ele>402.5</ele><time>2026-04-29T13:09:01.001Z</time></trkpt><trkpt lat="44.66252016935953" lon="9.388328903349054"><ele>397.0</ele><time>2026-04-29T13:09:02.001Z</time></trkpt><trkpt lat="44.66246298925347" lon="9.38814914076469"><ele>393.75</ele><time>2026-04-29T13:09:03.001Z</time></trkpt><trkpt lat="44.66242754913979" lon="9.387972747221092"><ele>390.5</ele><time>2026-04-29T13:09:04.001Z</time></trkpt><trkpt lat="44.66240094577544" lon="9.387812294068102"><ele>387.25</ele><time>2026-04-29T13:09:05.001Z</time></trkpt><trkpt lat="44.662372352918034" lon="9.387656513313098"><ele>384.0</ele><time>2026-04-29T13:09:06.001Z</time></trkpt><trkpt lat="44.66233723491086" lon="9.387516527796729"><ele>384.0</ele><time>2026-04-29T13:09:07.001Z</time></trkpt><trkpt lat="44.6622886893381" lon="9.387388659403713"><ele>384.0</ele><time>2026-04-29T13:09:08.001Z</time></trkpt><trkpt lat="44.662239057103676" lon="9.38728372343077"><ele>384.0</ele><time>2026-04-29T13:09:09.001Z</time></trkpt><trkpt lat="44.6621577125464" lon="9.387215502350388"><ele>384.0</ele><time>2026-04-29T13:09:10.001Z</time></trkpt><trkpt lat="44.66206950441641" lon="9.387196552546293"><ele>384.0</ele><time>2026-04-29T13:09:11.001Z</time></trkpt><trkpt lat="44.66198421244893" lon="9.387259068262386"><ele>384.5</ele><time>2026-04-29T13:09:12.001Z</time></trkpt><trkpt lat="44.661892148906105" lon="9.387341932234298"><ele>385.0</ele><time>2026-04-29T13:09:13.001Z</time></trkpt><trkpt lat="44.66178832191323" lon="9.387451131263697"><ele>385.5</ele><time>2026-04-29T13:09:14.001Z</time></trkpt><trkpt lat="44.661664782250796" lon="9.38758849500902"><ele>386.0</ele><time>2026-04-29T13:09:15.001Z</time></trkpt><trkpt lat="44.66151960295663" lon="9.38775210569493"><ele>386.0</ele><time>2026-04-29T13:09:16.001Z</time></trkpt><trkpt lat="44.66141132292489" lon="9.387932512481024"><ele>386.0</ele><time>2026-04-29T13:09:17.001Z</time></trkpt><trkpt lat="44.66127743691071" lon="9.388096802721625"><ele>386.0</ele><time>2026-04-29T13:09:18.001Z</time></trkpt><trkpt lat="44.66113554963621" lon="9.388259661932674"><ele>386.0</ele><time>2026-04-29T13:09:19.001Z</time></trkpt><trkpt lat="44.66095237154461" lon="9.388465252301472"><ele>386.0</ele><time>2026-04-29T13:09:20.001Z</time></trkpt><trkpt lat="44.660775680366974" lon="9.388700110790563"><ele>394.3333333333333</ele><time>2026-04-29T13:09:21.001Z</time></trkpt><trkpt lat="44.660637335894194" lon="9.388917590086352"><ele>402.66666666666663</ele><time>2026-04-29T13:09:22.001Z</time></trkpt><trkpt lat="44.6604720555018" lon="9.389128903717586"><ele>411.0</ele><time>2026-04-29T13:09:23.001Z</time></trkpt><trkpt lat="44.660322699272896" lon="9.389327731634449"><ele>405.0</ele><time>2026-04-29T13:09:24.001Z</time></trkpt><trkpt lat="44.660181856274455" lon="9.389513779336738"><ele>399.0</ele><time>2026-04-29T13:09:25.001Z</time></trkpt><trkpt lat="44.66005282342534" lon="9.389693707109119"><ele>393.0</ele><time>2026-04-29T13:09:26.001Z</time></trkpt><trkpt lat="44.65993344239886" lon="9.389866271376492"><ele>393.0</ele><time>2026-04-29T13:09:27.001Z</time></trkpt><trkpt lat="44.659811852431005" lon="9.39000437979147"><ele>393.0</ele><time>2026-04-29T13:09:28.001Z</time></trkpt><trkpt lat="44.65970352858883" lon="9.390156996055739"><ele>393.0</ele><time>2026-04-29T13:09:29.001Z</time></trkpt><trkpt lat="44.659614156793104" lon="9.390278330368359"><ele>393.0</ele><time>2026-04-29T13:09:30.001Z</time></trkpt><trkpt lat="44.65950514095299" lon="9.390358480647667"><ele>396.0</ele><time>2026-04-29T13:09:31.001Z</time></trkpt><trkpt lat="44.65941050977648" lon="9.390422123040432"><ele>399.0</ele><time>2026-04-29T13:09:32.001Z</time></trkpt><trkpt lat="44.65929582640898" lon="9.39045485488172"><ele>402.0</ele><time>2026-04-29T13:09:33.001Z</time></trkpt><trkpt lat="44.65918417692429" lon="9.390506463518493"><ele>405.0</ele><time>2026-04-29T13:09:34.001Z</time></trkpt><trkpt lat="44.659089952441555" lon="9.390587350652133"><ele>405.0</ele><time>2026-04-29T13:09:35.001Z</time></trkpt><trkpt lat="44.65900702626798" lon="9.390702208302509"><ele>405.0</ele><time>2026-04-29T13:09:36.001Z</time></trkpt><trkpt lat="44.65892000059759" lon="9.390846177844441"><ele>405.0</ele><time>2026-04-29T13:09:37.001Z</time></trkpt><trkpt lat="44.65883756228828" lon="9.391011063222617"><ele>405.0</ele><time>2026-04-29T13:09:38.001Z</time></trkpt><trkpt lat="44.65874586107383" lon="9.391125274267747"><ele>405.0</ele><time>2026-04-29T13:09:39.001Z</time></trkpt><trkpt lat="44.658654206005636" lon="9.391218431311966"><ele>405.0</ele><time>2026-04-29T13:09:40.001Z</time></trkpt><trkpt lat="44.65855153780291" lon="9.391283247358821"><ele>405.0</ele><time>2026-04-29T13:09:41.001Z</time></trkpt><trkpt lat="44.65841639483411" lon="9.391370504231057"><ele>405.0</ele><time>2026-04-29T13:09:42.001Z</time></trkpt><trkpt lat="44.65828654713929" lon="9.391476150303177"><ele>404.0</ele><time>2026-04-29T13:09:43.001Z</time></trkpt><trkpt lat="44.65817035472338" lon="9.391577026294309"><ele>403.0</ele><time>2026-04-29T13:09:44.001Z</time></trkpt><trkpt lat="44.65806862893628" lon="9.391671097843204"><ele>402.0</ele><time>2026-04-29T13:09:45.001Z</time></trkpt><trkpt lat="44.65798928701227" lon="9.391756269618506"><ele>401.0</ele><time>2026-04-29T13:09:46.001Z</time></trkpt><trkpt lat="44.65794748910568" lon="9.391868227316197"><ele>400.0</ele><time>2026-04-29T13:09:47.001Z</time></trkpt><trkpt lat="44.65791872484912" lon="9.391992862555565"><ele>400.0</ele><time>2026-04-29T13:09:48.001Z</time></trkpt><trkpt lat="44.65793419644051" lon="9.392117770696517"><ele>400.0</ele><time>2026-04-29T13:09:49.001Z</time></trkpt><trkpt lat="44.65797572756181" lon="9.39224782790731"><ele>400.0</ele><time>2026-04-29T13:09:50.001Z</time></trkpt><trkpt lat="44.65806515048934" lon="9.392337829407202"><ele>400.0</ele><time>2026-04-29T13:09:51.001Z</time></trkpt><trkpt lat="44.65813065020823" lon="9.39245017391497"><ele>400.0</ele><time>2026-04-29T13:09:52.001Z</time></trkpt><trkpt lat="44.65819596065706" lon="9.392595161729522"><ele>397.33333333333337</ele><time>2026-04-29T13:09:53.001Z</time></trkpt><trkpt lat="44.65827965385773" lon="9.392801205752347"><ele>394.66666666666663</ele><time>2026-04-29T13:09:54.001Z</time></trkpt><trkpt lat="44.65836482960277" lon="9.392972967636736"><ele>392.0</ele><time>2026-04-29T13:09:55.001Z</time></trkpt><trkpt lat="44.65842316016434" lon="9.393152058972033"><ele>392.0</ele><time>2026-04-29T13:09:56.001Z</time></trkpt><trkpt lat="44.658481093663426" lon="9.393295248079083"><ele>392.0</ele><time>2026-04-29T13:09:57.001Z</time></trkpt><trkpt lat="44.65852959948904" lon="9.39342796082121"><ele>392.0</ele><time>2026-04-29T13:09:58.001Z</time></trkpt><trkpt lat="44.65856497940527" lon="9.39356872414459"><ele>392.0</ele><time>2026-04-29T13:09:59.001Z</time></trkpt><trkpt lat="44.65857945287795" lon="9.393718957238455"><ele>392.0</ele><time>2026-04-29T13:10:00.001Z</time></trkpt><trkpt lat="44.65856863016664" lon="9.39388538897117"><ele>390.5</ele><time>2026-04-29T13:10:01.001Z</time></trkpt><trkpt lat="44.65857238542615" lon="9.39407384290036"><ele>389.0</ele><time>2026-04-29T13:10:02.001Z</time></trkpt><trkpt lat="44.65856037474759" lon="9.394260378973376"><ele>387.5</ele><time>2026-04-29T13:10:03.001Z</time></trkpt><trkpt lat="44.65855181118004" lon="9.39446580705493"><ele>386.0</ele><time>2026-04-29T13:10:04.001Z</time></trkpt><trkpt lat="44.658554693180676" lon="9.394680902601527"><ele>385.75</ele><time>2026-04-29T13:10:05.001Z</time></trkpt><trkpt lat="44.65856628167395" lon="9.394886312281587"><ele>385.5</ele><time>2026-04-29T13:10:06.001Z</time></trkpt><trkpt lat="44.65857843068601" lon="9.395089704718295"><ele>385.25</ele><time>2026-04-29T13:10:07.001Z</time></trkpt><trkpt lat="44.65858784207946" lon="9.395289330596169"><ele>385.0</ele><time>2026-04-29T13:10:08.001Z</time></trkpt><trkpt lat="44.65860032591415" lon="9.39547578890468"><ele>384.2</ele><time>2026-04-29T13:10:09.001Z</time></trkpt><trkpt lat="44.65861785908649" lon="9.395653167251368"><ele>383.4</ele><time>2026-04-29T13:10:10.001Z</time></trkpt><trkpt lat="44.65863424898618" lon="9.395798402921681"><ele>382.6</ele><time>2026-04-29T13:10:11.001Z</time></trkpt><trkpt lat="44.65866646613324" lon="9.39592786125738"><ele>381.8</ele><time>2026-04-29T13:10:12.001Z</time></trkpt><trkpt lat="44.65872464886639" lon="9.396058853257841"><ele>381.0</ele><time>2026-04-29T13:10:13.001Z</time></trkpt><trkpt lat="44.658810504447544" lon="9.39618922389155"><ele>387.6</ele><time>2026-04-29T13:10:14.001Z</time></trkpt><trkpt lat="44.65886771988599" lon="9.396331127715632"><ele>394.20000000000005</ele><time>2026-04-29T13:10:15.001Z</time></trkpt><trkpt lat="44.658913141256065" lon="9.396450533878623"><ele>400.79999999999995</ele><time>2026-04-29T13:10:16.001Z</time></trkpt><trkpt lat="44.65893960239245" lon="9.396588192241378"><ele>407.4</ele><time>2026-04-29T13:10:17.001Z</time></trkpt><trkpt lat="44.658916736174625" lon="9.396736851924858"><ele>414.0</ele><time>2026-04-29T13:10:18.001Z</time></trkpt><trkpt lat="44.65888488601168" lon="9.396898310548071"><ele>414.0</ele><time>2026-04-29T13:10:19.001Z</time></trkpt><trkpt lat="44.65885023464251" lon="9.397088451953207"><ele>414.0</ele><time>2026-04-29T13:10:20.001Z</time></trkpt><trkpt lat="44.65882741760497" lon="9.39729532400226"><ele>414.0</ele><time>2026-04-29T13:10:21.001Z</time></trkpt><trkpt lat="44.65876188401415" lon="9.397476504745063"><ele>414.0</ele><time>2026-04-29T13:10:22.001Z</time></trkpt><trkpt lat="44.65869724899284" lon="9.397663970719734"><ele>414.75</ele><time>2026-04-29T13:10:23.001Z</time></trkpt><trkpt lat="44.65862637168327" lon="9.397852911341207"><ele>415.5</ele><time>2026-04-29T13:10:24.001Z</time></trkpt><trkpt lat="44.658560182368056" lon="9.398021202192126"><ele>416.25</ele><time>2026-04-29T13:10:25.001Z</time></trkpt><trkpt lat="44.658498342383055" lon="9.398165733548433"><ele>417.0</ele><time>2026-04-29T13:10:26.001Z</time></trkpt><trkpt lat="44.65843173303719" lon="9.398283107543431"><ele>411.75</ele><time>2026-04-29T13:10:27.001Z</time></trkpt><trkpt lat="44.65835175265589" lon="9.398383504905283"><ele>406.5</ele><time>2026-04-29T13:10:28.001Z</time></trkpt><trkpt lat="44.658243137632155" lon="9.398471594662732"><ele>401.25</ele><time>2026-04-29T13:10:29.001Z</time></trkpt><trkpt lat="44.65812279753961" lon="9.398528792313883"><ele>396.0</ele><time>2026-04-29T13:10:30.001Z</time></trkpt><trkpt lat="44.657994384905884" lon="9.39855695595163"><ele>396.0</ele><time>2026-04-29T13:10:31.002Z</time></trkpt><trkpt lat="44.65783979852828" lon="9.398581150894664"><ele>396.0</ele><time>2026-04-29T13:10:32.002Z</time></trkpt><trkpt lat="44.6576727927473" lon="9.398620686420532"><ele>396.0</ele><time>2026-04-29T13:10:33.002Z</time></trkpt><trkpt lat="44.65750426370558" lon="9.39865416789558"><ele>393.33333333333337</ele><time>2026-04-29T13:10:34.002Z</time></trkpt><trkpt lat="44.65733683446426" lon="9.398690555315165"><ele>390.6666666666667</ele><time>2026-04-29T13:10:35.002Z</time></trkpt><trkpt lat="44.657171696742324" lon="9.398722484747406"><ele>388.0</ele><time>2026-04-29T13:10:36.002Z</time></trkpt><trkpt lat="44.65700442870003" lon="9.398752949834627"><ele>391.6666666666667</ele><time>2026-04-29T13:10:37.002Z</time></trkpt><trkpt lat="44.6568382126702" lon="9.398782551465304"><ele>395.33333333333337</ele><time>2026-04-29T13:10:38.002Z</time></trkpt><trkpt lat="44.65666837352768" lon="9.398812739855977"><ele>399.0</ele><time>2026-04-29T13:10:39.019Z</time></trkpt><trkpt lat="44.656503216480075" lon="9.398842964780922"><ele>401.33333333333337</ele><time>2026-04-29T13:10:40.016Z</time></trkpt><trkpt lat="44.65635886666707" lon="9.398870476312672"><ele>403.6666666666667</ele><time>2026-04-29T13:10:41.018Z</time></trkpt><trkpt lat="44.656199601588966" lon="9.398897712509353"><ele>406.0</ele><time>2026-04-29T13:10:42.002Z</time></trkpt><trkpt lat="44.65603447985539" lon="9.398937806347163"><ele>400.5</ele><time>2026-04-29T13:10:43.002Z</time></trkpt><trkpt lat="44.655907683222736" lon="9.398994888482408"><ele>395.0</ele><time>2026-04-29T13:10:44.002Z</time></trkpt><trkpt lat="44.65578396073519" lon="9.39906782158723"><ele>389.5</ele><time>2026-04-29T13:10:45.002Z</time></trkpt><trkpt lat="44.655641146516544" lon="9.399189863857021"><ele>384.0</ele><time>2026-04-29T13:10:46.002Z</time></trkpt><trkpt lat="44.65548655885353" lon="9.39934003750645"><ele>384.0</ele><time>2026-04-29T13:10:47.002Z</time></trkpt><trkpt lat="44.65533917606869" lon="9.39948894153681"><ele>384.0</ele><time>2026-04-29T13:10:48.002Z</time></trkpt><trkpt lat="44.65519915822764" lon="9.399629441245603"><ele>384.0</ele><time>2026-04-29T13:10:49.002Z</time></trkpt><trkpt lat="44.65507891963206" lon="9.399747801365088"><ele>389.5</ele><time>2026-04-29T13:10:50.002Z</time></trkpt><trkpt lat="44.65497046464577" lon="9.399839013725911"><ele>395.0</ele><time>2026-04-29T13:10:51.002Z</time></trkpt><trkpt lat="44.65485921757627" lon="9.399903127093742"><ele>400.5</ele><time>2026-04-29T13:10:52.002Z</time></trkpt><trkpt lat="44.65472151054875" lon="9.399933448545415"><ele>406.0</ele><time>2026-04-29T13:10:53.002Z</time></trkpt><trkpt lat="44.654568150973226" lon="9.39996264343197"><ele>407.0</ele><time>2026-04-29T13:10:54.002Z</time></trkpt><trkpt lat="44.65441925051761" lon="9.399990203160343"><ele>408.0</ele><time>2026-04-29T13:10:55.002Z</time></trkpt><trkpt lat="44.654287521690314" lon="9.400014584607954"><ele>409.0</ele><time>2026-04-29T13:10:56.002Z</time></trkpt><trkpt lat="44.65416138636679" lon="9.40004112183193"><ele>410.0</ele><time>2026-04-29T13:10:57.002Z</time></trkpt><trkpt lat="44.65403900695098" lon="9.400058423432018"><ele>410.0</ele><time>2026-04-29T13:10:58.002Z</time></trkpt><trkpt lat="44.65391370543805" lon="9.400055785411668"><ele>410.0</ele><time>2026-04-29T13:10:59.002Z</time></trkpt><trkpt lat="44.65378708990051" lon="9.399957335967049"><ele>410.0</ele><time>2026-04-29T13:11:00.002Z</time></trkpt><trkpt lat="44.65363755765366" lon="9.39987537617961"><ele>410.0</ele><time>2026-04-29T13:11:01.002Z</time></trkpt><trkpt lat="44.65347479575289" lon="9.399837342798525"><ele>412.66666666666663</ele><time>2026-04-29T13:11:02.002Z</time></trkpt><trkpt lat="44.65330334283983" lon="9.39982733414199"><ele>415.33333333333337</ele><time>2026-04-29T13:11:03.002Z</time></trkpt><trkpt lat="44.65315665490409" lon="9.399757146547339"><ele>418.0</ele><time>2026-04-29T13:11:04.002Z</time></trkpt><trkpt lat="44.65302597868319" lon="9.399691164870273"><ele>410.5</ele><time>2026-04-29T13:11:05Z</time></trkpt><trkpt lat="44.652904335458096" lon="9.39963122227073"><ele>403.0</ele><time>2026-04-29T13:11:06Z</time></trkpt><trkpt lat="44.6527909075577" lon="9.399582567132665"><ele>395.5</ele><time>2026-04-29T13:11:07Z</time></trkpt><trkpt lat="44.65267623395135" lon="9.399549913107602"><ele>388.0</ele><time>2026-04-29T13:11:08Z</time></trkpt><trkpt lat="44.65255809371153" lon="9.399529714934445"><ele>388.0</ele><time>2026-04-29T13:11:09Z</time></trkpt><trkpt lat="44.65245742900141" lon="9.399525478308984"><ele>388.0</ele><time>2026-04-29T13:11:10Z</time></trkpt><trkpt lat="44.65238316284603" lon="9.399568096296491"><ele>388.0</ele><time>2026-04-29T13:11:11Z</time></trkpt><trkpt lat="44.65230489391327" lon="9.399590934448467"><ele>388.0</ele><time>2026-04-29T13:11:12Z</time></trkpt><trkpt lat="44.652268683871235" lon="9.399718486791038"><ele>388.0</ele><time>2026-04-29T13:11:13Z</time></trkpt><trkpt lat="44.6522447552291" lon="9.399869251234033"><ele>391.75</ele><time>2026-04-29T13:11:14Z</time></trkpt><trkpt lat="44.65219715329619" lon="9.400016904208803"><ele>395.5</ele><time>2026-04-29T13:11:15Z</time></trkpt><trkpt lat="44.65213078881552" lon="9.400171407078004"><ele>399.25</ele><time>2026-04-29T13:11:16Z</time></trkpt><trkpt lat="44.6520429336982" lon="9.400300699406442"><ele>403.0</ele><time>2026-04-29T13:11:17Z</time></trkpt><trkpt lat="44.65195332117201" lon="9.400432144693104"><ele>405.75</ele><time>2026-04-29T13:11:18Z</time></trkpt><trkpt lat="44.65186515872927" lon="9.400556152579174"><ele>408.5</ele><time>2026-04-29T13:11:19Z</time></trkpt><trkpt lat="44.65177394301843" lon="9.40068149860021"><ele>411.25</ele><time>2026-04-29T13:11:20Z</time></trkpt><trkpt lat="44.651680241836935" lon="9.400779202629147"><ele>414.0</ele><time>2026-04-29T13:11:21Z</time></trkpt><trkpt lat="44.65158575915301" lon="9.400854143498806"><ele>414.0</ele><time>2026-04-29T13:11:22Z</time></trkpt><trkpt lat="44.651493936059154" lon="9.400880688577994"><ele>414.0</ele><time>2026-04-29T13:11:23Z</time></trkpt><trkpt lat="44.651393566241104" lon="9.400885469072039"><ele>414.0</ele><time>2026-04-29T13:11:24Z</time></trkpt><trkpt lat="44.65128116725035" lon="9.400882778311331"><ele>414.0</ele><time>2026-04-29T13:11:25Z</time></trkpt><trkpt lat="44.651165472025696" lon="9.400897406524136"><ele>414.0</ele><time>2026-04-29T13:11:26Z</time></trkpt><trkpt lat="44.651045369722844" lon="9.400893507936384"><ele>413.0</ele><time>2026-04-29T13:11:27Z</time></trkpt><trkpt lat="44.65092629032253" lon="9.400901283049796"><ele>412.0</ele><time>2026-04-29T13:11:28Z</time></trkpt><trkpt lat="44.650814236693314" lon="9.40090186338674"><ele>411.0</ele><time>2026-04-29T13:11:29Z</time></trkpt><trkpt lat="44.65069981522848" lon="9.400940873836467"><ele>410.0</ele><time>2026-04-29T13:11:30Z</time></trkpt><trkpt lat="44.65058035401056" lon="9.401031957156219"><ele>410.0</ele><time>2026-04-29T13:11:31Z</time></trkpt><trkpt lat="44.65046131786116" lon="9.401137734257413"><ele>410.0</ele><time>2026-04-29T13:11:32Z</time></trkpt><trkpt lat="44.650337629730615" lon="9.401197276343058"><ele>410.0</ele><time>2026-04-29T13:11:33Z</time></trkpt><trkpt lat="44.650205673927694" lon="9.401223557982853"><ele>410.0</ele><time>2026-04-29T13:11:34Z</time></trkpt><trkpt lat="44.650051988515955" lon="9.401256342630953"><ele>409.3333333333333</ele><time>2026-04-29T13:11:35Z</time></trkpt><trkpt lat="44.649903874755836" lon="9.401309098965976"><ele>408.66666666666663</ele><time>2026-04-29T13:11:36Z</time></trkpt><trkpt lat="44.649743375731745" lon="9.401340004846645"><ele>408.0</ele><time>2026-04-29T13:11:37Z</time></trkpt><trkpt lat="44.64958113657977" lon="9.401386077649704"><ele>405.66666666666663</ele><time>2026-04-29T13:11:38Z</time></trkpt><trkpt lat="44.64942796379505" lon="9.401432429427892"><ele>403.3333333333333</ele><time>2026-04-29T13:11:39Z</time></trkpt><trkpt lat="44.64927428888297" lon="9.401472363210658"><ele>401.0</ele><time>2026-04-29T13:11:40Z</time></trkpt><trkpt lat="44.64912555603961" lon="9.401503798485967"><ele>401.0</ele><time>2026-04-29T13:11:41Z</time></trkpt><trkpt lat="44.648973193909626" lon="9.401527830511274"><ele>401.0</ele><time>2026-04-29T13:11:42Z</time></trkpt><trkpt lat="44.64882673861298" lon="9.401559412820275"><ele>401.0</ele><time>2026-04-29T13:11:43Z</time></trkpt><trkpt lat="44.648681626442325" lon="9.40157298356682"><ele>401.0</ele><time>2026-04-29T13:11:44Z</time></trkpt><trkpt lat="44.64854566403332" lon="9.401567153809582"><ele>400.0</ele><time>2026-04-29T13:11:45Z</time></trkpt><trkpt lat="44.64841304944983" lon="9.401530020477049"><ele>399.0</ele><time>2026-04-29T13:11:46Z</time></trkpt><trkpt lat="44.64828953203955" lon="9.401494266939709"><ele>398.0</ele><time>2026-04-29T13:11:47Z</time></trkpt><trkpt lat="44.64816893058847" lon="9.401475042417063"><ele>397.0</ele><time>2026-04-29T13:11:48Z</time></trkpt><trkpt lat="44.64803554184245" lon="9.401489597094537"><ele>397.0</ele><time>2026-04-29T13:11:49Z</time></trkpt><trkpt lat="44.647873924650476" lon="9.40153250221067"><ele>397.0</ele><time>2026-04-29T13:11:50Z</time></trkpt><trkpt lat="44.64769154808918" lon="9.401605334063568"><ele>397.0</ele><time>2026-04-29T13:11:51Z</time></trkpt><trkpt lat="44.647500177674644" lon="9.40169476688995"><ele>396.0</ele><time>2026-04-29T13:11:52Z</time></trkpt><trkpt lat="44.647309856384766" lon="9.401765252693705"><ele>395.0</ele><time>2026-04-29T13:11:53Z</time></trkpt><trkpt lat="44.64711140064121" lon="9.401883285803313"><ele>394.0</ele><time>2026-04-29T13:11:54Z</time></trkpt><trkpt lat="44.64692931389084" lon="9.401966082485398"><ele>393.0</ele><time>2026-04-29T13:11:55Z</time></trkpt><trkpt lat="44.64675517887354" lon="9.40205508995192"><ele>392.0</ele><time>2026-04-29T13:11:56Z</time></trkpt><trkpt lat="44.64659531972142" lon="9.402147722210188"><ele>391.0</ele><time>2026-04-29T13:11:57Z</time></trkpt><trkpt lat="44.6464413760402" lon="9.40223811307161"><ele>391.0</ele><time>2026-04-29T13:11:58Z</time></trkpt><trkpt lat="44.64629231718103" lon="9.402323641423067"><ele>391.0</ele><time>2026-04-29T13:11:59Z</time></trkpt><trkpt lat="44.64615570431088" lon="9.40240882819126"><ele>391.0</ele><time>2026-04-29T13:12:00Z</time></trkpt><trkpt lat="44.64602057110989" lon="9.402477841546338"><ele>390.5</ele><time>2026-04-29T13:12:01Z</time></trkpt><trkpt lat="44.645892971289896" lon="9.402548254216912"><ele>390.0</ele><time>2026-04-29T13:12:02Z</time></trkpt><trkpt lat="44.64577718839316" lon="9.40262158878641"><ele>389.5</ele><time>2026-04-29T13:12:03Z</time></trkpt><trkpt lat="44.645657233355976" lon="9.40269118658069"><ele>389.0</ele><time>2026-04-29T13:12:04.001Z</time></trkpt><trkpt lat="44.645540502401495" lon="9.402763517091431"><ele>389.0</ele><time>2026-04-29T13:12:05.001Z</time></trkpt><trkpt lat="44.64542434392589" lon="9.402837043928939"><ele>389.0</ele><time>2026-04-29T13:12:06.001Z</time></trkpt><trkpt lat="44.64531265474369" lon="9.40291648803371"><ele>389.0</ele><time>2026-04-29T13:12:07.001Z</time></trkpt><trkpt lat="44.64518539639911" lon="9.402997319492108"><ele>389.0</ele><time>2026-04-29T13:12:08.001Z</time></trkpt><trkpt lat="44.64503314498217" lon="9.403040170324298"><ele>390.0</ele><time>2026-04-29T13:12:09.001Z</time></trkpt><trkpt lat="44.64488591516338" lon="9.403138025034329"><ele>391.0</ele><time>2026-04-29T13:12:10.001Z</time></trkpt><trkpt lat="44.64473904916296" lon="9.403214462741827"><ele>392.0</ele><time>2026-04-29T13:12:11.001Z</time></trkpt><trkpt lat="44.64460011212095" lon="9.403287316787285"><ele>392.66666666666663</ele><time>2026-04-29T13:12:12.001Z</time></trkpt><trkpt lat="44.64445301799174" lon="9.403369650301704"><ele>393.33333333333337</ele><time>2026-04-29T13:12:13.001Z</time></trkpt><trkpt lat="44.64430874122493" lon="9.403454442579239"><ele>394.0</ele><time>2026-04-29T13:12:14.001Z</time></trkpt><trkpt lat="44.644155748210274" lon="9.403532472129465"><ele>394.0</ele><time>2026-04-29T13:12:15.001Z</time></trkpt><trkpt lat="44.64402337200084" lon="9.403613033474013"><ele>394.0</ele><time>2026-04-29T13:12:16.001Z</time></trkpt><trkpt lat="44.64388477996955" lon="9.403698294185226"><ele>394.0</ele><time>2026-04-29T13:12:17.001Z</time></trkpt><trkpt lat="44.643745911115694" lon="9.403796633369035"><ele>395.0</ele><time>2026-04-29T13:12:18.001Z</time></trkpt><trkpt lat="44.643606422940756" lon="9.403906128339521"><ele>396.0</ele><time>2026-04-29T13:12:19.001Z</time></trkpt><trkpt lat="44.64346993066345" lon="9.404024029757498"><ele>397.0</ele><time>2026-04-29T13:12:20.001Z</time></trkpt><trkpt lat="44.6433170196158" lon="9.404138080454416"><ele>397.0</ele><time>2026-04-29T13:12:21.001Z</time></trkpt><trkpt lat="44.64316570520231" lon="9.404236415754315"><ele>397.0</ele><time>2026-04-29T13:12:22.001Z</time></trkpt><trkpt lat="44.643022930005614" lon="9.404331185528498"><ele>397.0</ele><time>2026-04-29T13:12:23.001Z</time></trkpt><trkpt lat="44.642875846149224" lon="9.404405903789138"><ele>396.0</ele><time>2026-04-29T13:12:24.001Z</time></trkpt><trkpt lat="44.64272127018759" lon="9.404468515679895"><ele>395.0</ele><time>2026-04-29T13:12:25.001Z</time></trkpt><trkpt lat="44.642568482456795" lon="9.404522363340455"><ele>394.0</ele><time>2026-04-29T13:12:26.001Z</time></trkpt><trkpt lat="44.6424181455611" lon="9.404588478258537"><ele>394.0</ele><time>2026-04-29T13:12:27.001Z</time></trkpt><trkpt lat="44.642263687569034" lon="9.404650733678766"><ele>394.0</ele><time>2026-04-29T13:12:28.001Z</time></trkpt><trkpt lat="44.64210950980697" lon="9.404713107881284"><ele>394.0</ele><time>2026-04-29T13:12:29.001Z</time></trkpt><trkpt lat="44.64195617917851" lon="9.404763076949267"><ele>400.0</ele><time>2026-04-29T13:12:30.001Z</time></trkpt><trkpt lat="44.64180221516342" lon="9.404786788295405"><ele>406.0</ele><time>2026-04-29T13:12:31.001Z</time></trkpt><trkpt lat="44.64165042489301" lon="9.404793944057765"><ele>412.0</ele><time>2026-04-29T13:12:32.001Z</time></trkpt><trkpt lat="44.641490390732805" lon="9.404782514154736"><ele>412.0</ele><time>2026-04-29T13:12:33.001Z</time></trkpt><trkpt lat="44.641330650154124" lon="9.404777848594188"><ele>412.0</ele><time>2026-04-29T13:12:34.001Z</time></trkpt><trkpt lat="44.641171669119935" lon="9.404798438803923"><ele>412.0</ele><time>2026-04-29T13:12:35.001Z</time></trkpt><trkpt lat="44.64099882529362" lon="9.4048397272052"><ele>411.0</ele><time>2026-04-29T13:12:36.001Z</time></trkpt><trkpt lat="44.64083062316926" lon="9.404891061492206"><ele>410.0</ele><time>2026-04-29T13:12:37.001Z</time></trkpt><trkpt lat="44.640701031241385" lon="9.40494269476386"><ele>409.0</ele><time>2026-04-29T13:12:38.001Z</time></trkpt><trkpt lat="44.64059302922095" lon="9.404971718473814"><ele>408.0</ele><time>2026-04-29T13:12:39.001Z</time></trkpt><trkpt lat="44.64048528531441" lon="9.404978394645944"><ele>408.0</ele><time>2026-04-29T13:12:40.001Z</time></trkpt><trkpt lat="44.640373406762244" lon="9.404965064275057"><ele>408.0</ele><time>2026-04-29T13:12:41.001Z</time></trkpt><trkpt lat="44.64025780718279" lon="9.404905295991055"><ele>408.0</ele><time>2026-04-29T13:12:42.001Z</time></trkpt><trkpt lat="44.64014426977028" lon="9.4047907503467"><ele>408.0</ele><time>2026-04-29T13:12:43.001Z</time></trkpt><trkpt lat="44.640000190041924" lon="9.404702049112823"><ele>404.5</ele><time>2026-04-29T13:12:44.001Z</time></trkpt><trkpt lat="44.63987540587262" lon="9.404607816150811"><ele>401.0</ele><time>2026-04-29T13:12:45.001Z</time></trkpt><trkpt lat="44.639763517687406" lon="9.404515135588975"><ele>397.5</ele><time>2026-04-29T13:12:46.001Z</time></trkpt><trkpt lat="44.6396755167952" lon="9.404438675412294"><ele>394.0</ele><time>2026-04-29T13:12:47.001Z</time></trkpt><trkpt lat="44.63959152708876" lon="9.40439002990107"><ele>394.0</ele><time>2026-04-29T13:12:48.001Z</time></trkpt><trkpt lat="44.639496934410495" lon="9.404352293252712"><ele>394.0</ele><time>2026-04-29T13:12:49.001Z</time></trkpt><trkpt lat="44.639395502061184" lon="9.404386699427516"><ele>394.0</ele><time>2026-04-29T13:12:50.001Z</time></trkpt><trkpt lat="44.63929445352922" lon="9.404450385456578"><ele>394.0</ele><time>2026-04-29T13:12:51.001Z</time></trkpt><trkpt lat="44.63921077578252" lon="9.404554946833608"><ele>394.0</ele><time>2026-04-29T13:12:52.001Z</time></trkpt><trkpt lat="44.639139603134105" lon="9.404683516295929"><ele>396.25</ele><time>2026-04-29T13:12:53.001Z</time></trkpt><trkpt lat="44.63909232375307" lon="9.404851947572519"><ele>398.5</ele><time>2026-04-29T13:12:54.001Z</time></trkpt><trkpt lat="44.639011880831376" lon="9.405025679772876"><ele>400.75</ele><time>2026-04-29T13:12:55.001Z</time></trkpt><trkpt lat="44.63895108800671" lon="9.405239178433323"><ele>403.0</ele><time>2026-04-29T13:12:56.001Z</time></trkpt><trkpt lat="44.63886766733602" lon="9.40544683351034"><ele>414.6666666666667</ele><time>2026-04-29T13:12:57.001Z</time></trkpt><trkpt lat="44.63878573878081" lon="9.405641754289562"><ele>426.33333333333337</ele><time>2026-04-29T13:12:58.001Z</time></trkpt><trkpt lat="44.63871032611428" lon="9.40583240141327"><ele>438.0</ele><time>2026-04-29T13:12:59.001Z</time></trkpt><trkpt lat="44.638639255972144" lon="9.406010325219574"><ele>439.79999999999995</ele><time>2026-04-29T13:13:00.001Z</time></trkpt><trkpt lat="44.63858776643237" lon="9.406129272534546"><ele>441.59999999999997</ele><time>2026-04-29T13:13:01.001Z</time></trkpt><trkpt lat="44.638521868450695" lon="9.406217975547644"><ele>443.40000000000003</ele><time>2026-04-29T13:13:02.001Z</time></trkpt><trkpt lat="44.63843652372656" lon="9.406307571622978"><ele>445.20000000000005</ele><time>2026-04-29T13:13:03.001Z</time></trkpt><trkpt lat="44.63833748526067" lon="9.40637022568711"><ele>447.0</ele><time>2026-04-29T13:13:04.001Z</time></trkpt><trkpt lat="44.638229155231386" lon="9.40641440564842"><ele>447.0</ele><time>2026-04-29T13:13:05.001Z</time></trkpt><trkpt lat="44.63812480608538" lon="9.406413799601932"><ele>447.0</ele><time>2026-04-29T13:13:06.001Z</time></trkpt><trkpt lat="44.63803263395772" lon="9.406461623845383"><ele>447.0</ele><time>2026-04-29T13:13:07.001Z</time></trkpt><trkpt lat="44.637909724768186" lon="9.406525950611597"><ele>447.0</ele><time>2026-04-29T13:13:08.001Z</time></trkpt><trkpt lat="44.637768562045096" lon="9.406621164188225"><ele>440.0</ele><time>2026-04-29T13:13:09.001Z</time></trkpt><trkpt lat="44.637633733430896" lon="9.406732054791107"><ele>433.0</ele><time>2026-04-29T13:13:10.001Z</time></trkpt><trkpt lat="44.63754536415078" lon="9.406788776735167"><ele>426.0</ele><time>2026-04-29T13:13:11.001Z</time></trkpt><trkpt lat="44.637431645637356" lon="9.406836959572558"><ele>419.0</ele><time>2026-04-29T13:13:12.001Z</time></trkpt><trkpt lat="44.637331532026415" lon="9.406869667010119"><ele>419.0</ele><time>2026-04-29T13:13:13.001Z</time></trkpt><trkpt lat="44.637243231596166" lon="9.406883732275007"><ele>419.0</ele><time>2026-04-29T13:13:14.001Z</time></trkpt><trkpt lat="44.637149338554245" lon="9.406882676857263"><ele>419.0</ele><time>2026-04-29T13:13:15.001Z</time></trkpt><trkpt lat="44.637020372204745" lon="9.406812573346585"><ele>419.0</ele><time>2026-04-29T13:13:16.001Z</time></trkpt><trkpt lat="44.63688614001637" lon="9.406733091485686"><ele>415.66666666666663</ele><time>2026-04-29T13:13:17.001Z</time></trkpt><trkpt lat="44.636740427965734" lon="9.406684912831809"><ele>412.33333333333337</ele><time>2026-04-29T13:13:18.001Z</time></trkpt><trkpt lat="44.63657943601575" lon="9.406638783179641"><ele>409.0</ele><time>2026-04-29T13:13:19.001Z</time></trkpt><trkpt lat="44.63642461519446" lon="9.406584854661581"><ele>409.0</ele><time>2026-04-29T13:13:20.001Z</time></trkpt><trkpt lat="44.63628119180206" lon="9.406522986003612"><ele>409.0</ele><time>2026-04-29T13:13:21.001Z</time></trkpt><trkpt lat="44.63614206202519" lon="9.406438845498988"><ele>409.0</ele><time>2026-04-29T13:13:22.001Z</time></trkpt><trkpt lat="44.63601140889183" lon="9.406340891590135"><ele>407.5</ele><time>2026-04-29T13:13:23.001Z</time></trkpt><trkpt lat="44.63588935436303" lon="9.406241931958661"><ele>406.0</ele><time>2026-04-29T13:13:24.001Z</time></trkpt><trkpt lat="44.63577641406244" lon="9.406146257906704"><ele>404.5</ele><time>2026-04-29T13:13:25.001Z</time></trkpt><trkpt lat="44.63567259747202" lon="9.406072149330205"><ele>403.0</ele><time>2026-04-29T13:13:26.001Z</time></trkpt><trkpt lat="44.635577338819594" lon="9.405981890958474"><ele>403.0</ele><time>2026-04-29T13:13:27.001Z</time></trkpt><trkpt lat="44.635477664433466" lon="9.405950717786771"><ele>403.0</ele><time>2026-04-29T13:13:28.001Z</time></trkpt><trkpt lat="44.63538645966544" lon="9.405927292356736"><ele>403.0</ele><time>2026-04-29T13:13:29.001Z</time></trkpt><trkpt lat="44.63529732406164" lon="9.40594076858077"><ele>403.0</ele><time>2026-04-29T13:13:30.001Z</time></trkpt><trkpt lat="44.63518493357499" lon="9.406003910079441"><ele>403.0</ele><time>2026-04-29T13:13:31.001Z</time></trkpt><trkpt lat="44.63505031225615" lon="9.406064043966122"><ele>403.25</ele><time>2026-04-29T13:13:32.001Z</time></trkpt><trkpt lat="44.63490739668792" lon="9.40614622349235"><ele>403.5</ele><time>2026-04-29T13:13:33.001Z</time></trkpt><trkpt lat="44.63476821959782" lon="9.406232655960325"><ele>403.75</ele><time>2026-04-29T13:13:34.001Z</time></trkpt><trkpt lat="44.6346373385981" lon="9.406312879022723"><ele>404.0</ele><time>2026-04-29T13:13:35.001Z</time></trkpt><trkpt lat="44.634510291752655" lon="9.406375632640543"><ele>412.0</ele><time>2026-04-29T13:13:36.001Z</time></trkpt><trkpt lat="44.634386729983405" lon="9.406416960212155"><ele>420.0</ele><time>2026-04-29T13:13:37.001Z</time></trkpt><trkpt lat="44.634268841927906" lon="9.406434541434104"><ele>428.0</ele><time>2026-04-29T13:13:38.001Z</time></trkpt><trkpt lat="44.63414229339428" lon="9.406413408364182"><ele>436.0</ele><time>2026-04-29T13:13:39.001Z</time></trkpt><trkpt lat="44.63399456056778" lon="9.40636306135634"><ele>427.75</ele><time>2026-04-29T13:13:40.001Z</time></trkpt><trkpt lat="44.63383783338754" lon="9.406304958385011"><ele>419.5</ele><time>2026-04-29T13:13:41.001Z</time></trkpt><trkpt lat="44.633696038688264" lon="9.406255679347979"><ele>411.25</ele><time>2026-04-29T13:13:42.001Z</time></trkpt><trkpt lat="44.63356296176287" lon="9.406212385440666"><ele>403.0</ele><time>2026-04-29T13:13:43.001Z</time></trkpt><trkpt lat="44.63343943570059" lon="9.406176816462416"><ele>403.0</ele><time>2026-04-29T13:13:44.001Z</time></trkpt><trkpt lat="44.633321932238985" lon="9.4061470388662"><ele>403.0</ele><time>2026-04-29T13:13:45.001Z</time></trkpt><trkpt lat="44.63321625700618" lon="9.406123248449838"><ele>403.0</ele><time>2026-04-29T13:13:46.001Z</time></trkpt><trkpt lat="44.63311721511124" lon="9.406095650040786"><ele>403.0</ele><time>2026-04-29T13:13:47.001Z</time></trkpt><trkpt lat="44.633029740998765" lon="9.406052247473145"><ele>403.0</ele><time>2026-04-29T13:13:48.001Z</time></trkpt><trkpt lat="44.63295491279464" lon="9.405983850986969"><ele>403.00000000000006</ele><time>2026-04-29T13:13:49.001Z</time></trkpt><trkpt lat="44.632898385129806" lon="9.405887909040018"><ele>403.0</ele><time>2026-04-29T13:13:50.001Z</time></trkpt><trkpt lat="44.63284732657371" lon="9.405795334401716"><ele>403.0</ele><time>2026-04-29T13:13:51.001Z</time></trkpt><trkpt lat="44.632771843993794" lon="9.405684577217228"><ele>403.0</ele><time>2026-04-29T13:13:53.001Z</time></trkpt><trkpt lat="44.632710730242145" lon="9.405622528137767"><ele>403.00000000000006</ele><time>2026-04-29T13:13:55.001Z</time></trkpt><trkpt lat="44.6326556061643" lon="9.405565653470012"><ele>403.0</ele><time>2026-04-29T13:13:58.001Z</time></trkpt><trkpt lat="44.63273990231554" lon="9.405427363368393"><ele>403.50000000000006</ele><time>2026-04-29T13:14:32.001Z</time></trkpt><trkpt lat="44.63277856010541" lon="9.405329834461048"><ele>404.0</ele><time>2026-04-29T13:14:34.001Z</time></trkpt><trkpt lat="44.632809925514714" lon="9.405226348500518"><ele>404.5</ele><time>2026-04-29T13:14:37.001Z</time></trkpt><trkpt lat="44.63284930276687" lon="9.405145232506445"><ele>405.0</ele><time>2026-04-29T13:14:41.001Z</time></trkpt><trkpt lat="44.632901970983156" lon="9.405094850855775"><ele>405.50000000000006</ele><time>2026-04-29T13:14:45.001Z</time></trkpt><trkpt lat="44.63300161211102" lon="9.405142912978834"><ele>406.0</ele><time>2026-04-29T13:14:47.001Z</time></trkpt><trkpt lat="44.63307615092702" lon="9.405137391179357"><ele>406.0</ele><time>2026-04-29T13:14:49.001Z</time></trkpt><trkpt lat="44.63320601170393" lon="9.405155613148864"><ele>406.0</ele><time>2026-04-29T13:14:51.001Z</time></trkpt><trkpt lat="44.633309097129946" lon="9.405147231528353"><ele>406.0</ele><time>2026-04-29T13:14:53.001Z</time></trkpt><trkpt lat="44.633384730865174" lon="9.405145947828801"><ele>406.0</ele><time>2026-04-29T13:14:55.001Z</time></trkpt><trkpt lat="44.633461733620535" lon="9.405159001741573"><ele>406.0</ele><time>2026-04-29T13:14:57.001Z</time></trkpt><trkpt lat="44.63354837149705" lon="9.40515220545541"><ele>406.0</ele><time>2026-04-29T13:15:00.001Z</time></trkpt><trkpt lat="44.633447308390544" lon="9.405152188780583"><ele>406.0</ele><time>2026-04-29T13:15:14.001Z</time></trkpt><trkpt lat="44.633382955670626" lon="9.405149471044076"><ele>406.0</ele><time>2026-04-29T13:15:16.001Z</time></trkpt><trkpt lat="44.633310291528566" lon="9.405133207111437"><ele>406.0</ele><time>2026-04-29T13:19:21.001Z</time></trkpt><trkpt lat="44.6332084168499" lon="9.405157056226075"><ele>406.0</ele><time>2026-04-29T13:20:07.999Z</time></trkpt><trkpt lat="44.63335906821294" lon="9.405416929614745"><ele>406.0</ele><time>2026-04-29T13:20:08.999Z</time></trkpt><trkpt lat="44.63308243426863" lon="9.405132684613312"><ele>406.0</ele><time>2026-04-29T13:20:09.999Z</time></trkpt><trkpt lat="44.6329852401695" lon="9.405109510060377"><ele>406.0</ele><time>2026-04-29T13:20:11.999Z</time></trkpt><trkpt lat="44.632896770132675" lon="9.405127307714302"><ele>406.00000000000006</ele><time>2026-04-29T13:20:13.999Z</time></trkpt><trkpt lat="44.63283416504094" lon="9.405212847270192"><ele>406.0</ele><time>2026-04-29T13:20:17Z</time></trkpt><trkpt lat="44.632772771911085" lon="9.405329797095323"><ele>406.0</ele><time>2026-04-29T13:20:19Z</time></trkpt><trkpt lat="44.632726836103295" lon="9.405425100486996"><ele>406.0</ele><time>2026-04-29T13:20:21Z</time></trkpt><trkpt lat="44.63267855247748" lon="9.405512496034591"><ele>406.00000000000006</ele><time>2026-04-29T13:20:23Z</time></trkpt><trkpt lat="44.6326859398307" lon="9.405613541130299"><ele>406.0</ele><time>2026-04-29T13:20:26Z</time></trkpt><trkpt lat="44.63275423566398" lon="9.405713661209834"><ele>405.50000000000006</ele><time>2026-04-29T13:20:28Z</time></trkpt><trkpt lat="44.632814408606855" lon="9.405781449522683"><ele>405.0</ele><time>2026-04-29T13:20:29Z</time></trkpt><trkpt lat="44.63287100575492" lon="9.405862411985352"><ele>404.5</ele><time>2026-04-29T13:20:30Z</time></trkpt><trkpt lat="44.63292758079009" lon="9.405946721498843"><ele>404.0</ele><time>2026-04-29T13:20:31Z</time></trkpt><trkpt lat="44.63298805048813" lon="9.406028220603874"><ele>403.50000000000006</ele><time>2026-04-29T13:20:32Z</time></trkpt><trkpt lat="44.63305979044202" lon="9.406101850615242"><ele>403.0</ele><time>2026-04-29T13:20:33Z</time></trkpt><trkpt lat="44.63315478141218" lon="9.406130322671972"><ele>403.0</ele><time>2026-04-29T13:20:34Z</time></trkpt><trkpt lat="44.633270192104845" lon="9.406156971126382"><ele>403.0</ele><time>2026-04-29T13:20:35Z</time></trkpt><trkpt lat="44.633394649978186" lon="9.406180990397036"><ele>403.0</ele><time>2026-04-29T13:20:36Z</time></trkpt><trkpt lat="44.63353227603647" lon="9.406223079815438"><ele>403.0</ele><time>2026-04-29T13:20:37Z</time></trkpt><trkpt lat="44.63366356601489" lon="9.406267514117799"><ele>402.5</ele><time>2026-04-29T13:20:38Z</time></trkpt><trkpt lat="44.633804851124204" lon="9.406325853928198"><ele>402.0</ele><time>2026-04-29T13:20:39Z</time></trkpt><trkpt lat="44.633943955802316" lon="9.40637652025831"><ele>401.5</ele><time>2026-04-29T13:20:40Z</time></trkpt><trkpt lat="44.63407398047609" lon="9.40642087780091"><ele>401.0</ele><time>2026-04-29T13:20:41Z</time></trkpt><trkpt lat="44.63422615824425" lon="9.406444095651706"><ele>401.75</ele><time>2026-04-29T13:20:42Z</time></trkpt><trkpt lat="44.63433680689814" lon="9.406462925551324"><ele>402.5</ele><time>2026-04-29T13:20:43Z</time></trkpt><trkpt lat="44.63445563082813" lon="9.406444551499334"><ele>403.25</ele><time>2026-04-29T13:20:44Z</time></trkpt><trkpt lat="44.63458879271451" lon="9.406383297677447"><ele>404.0</ele><time>2026-04-29T13:20:45Z</time></trkpt><trkpt lat="44.634742457657616" lon="9.4062962417392"><ele>404.0</ele><time>2026-04-29T13:20:46Z</time></trkpt><trkpt lat="44.634890389627664" lon="9.406210776260016"><ele>404.0</ele><time>2026-04-29T13:20:47Z</time></trkpt><trkpt lat="44.63502455571751" lon="9.406135180938936"><ele>404.0</ele><time>2026-04-29T13:20:48Z</time></trkpt><trkpt lat="44.63515195152828" lon="9.40607463609808"><ele>404.0</ele><time>2026-04-29T13:20:49Z</time></trkpt><trkpt lat="44.63526442654728" lon="9.406018506220232"><ele>403.79999999999995</ele><time>2026-04-29T13:20:50Z</time></trkpt><trkpt lat="44.63536000701533" lon="9.405977395822172"><ele>403.59999999999997</ele><time>2026-04-29T13:20:51Z</time></trkpt><trkpt lat="44.63545264385583" lon="9.405969348322154"><ele>403.4</ele><time>2026-04-29T13:20:52Z</time></trkpt><trkpt lat="44.63554392177547" lon="9.406002760908258"><ele>403.2</ele><time>2026-04-29T13:20:53Z</time></trkpt><trkpt lat="44.63564322167718" lon="9.406074057832042"><ele>403.0</ele><time>2026-04-29T13:20:54Z</time></trkpt><trkpt lat="44.635761861784836" lon="9.40617761407029"><ele>403.0</ele><time>2026-04-29T13:20:55Z</time></trkpt><trkpt lat="44.63588067396434" lon="9.406279973288155"><ele>403.0</ele><time>2026-04-29T13:20:56Z</time></trkpt><trkpt lat="44.635990462271714" lon="9.406377677497979"><ele>403.0</ele><time>2026-04-29T13:20:57Z</time></trkpt><trkpt lat="44.63611882887138" lon="9.406473993970078"><ele>403.0</ele><time>2026-04-29T13:20:58Z</time></trkpt><trkpt lat="44.636270155164006" lon="9.406541842891007"><ele>405.0</ele><time>2026-04-29T13:20:59Z</time></trkpt><trkpt lat="44.63642185239372" lon="9.406613143248832"><ele>407.0</ele><time>2026-04-29T13:21:00Z</time></trkpt><trkpt lat="44.63656896217316" lon="9.406664638100143"><ele>409.0</ele><time>2026-04-29T13:21:01Z</time></trkpt><trkpt lat="44.63671077016609" lon="9.40671176141564"><ele>409.0</ele><time>2026-04-29T13:21:02Z</time></trkpt><trkpt lat="44.63684011272285" lon="9.406754702695965"><ele>409.0</ele><time>2026-04-29T13:21:03Z</time></trkpt><trkpt lat="44.63695887389064" lon="9.406801254135786"><ele>409.0</ele><time>2026-04-29T13:21:04Z</time></trkpt><trkpt lat="44.637067961386244" lon="9.406846940783982"><ele>409.0</ele><time>2026-04-29T13:21:05Z</time></trkpt><trkpt lat="44.63716200968204" lon="9.406893780258104"><ele>411.5</ele><time>2026-04-29T13:21:06Z</time></trkpt><trkpt lat="44.63724713661339" lon="9.406930747135087"><ele>414.0</ele><time>2026-04-29T13:21:07Z</time></trkpt><trkpt lat="44.63735809459686" lon="9.40689119972126"><ele>416.5</ele><time>2026-04-29T13:21:08Z</time></trkpt><trkpt lat="44.63748604636034" lon="9.406863998564909"><ele>419.0</ele><time>2026-04-29T13:21:09Z</time></trkpt><trkpt lat="44.63762873043654" lon="9.406789611820747"><ele>419.0</ele><time>2026-04-29T13:21:10Z</time></trkpt><trkpt lat="44.6377652919886" lon="9.406663440519168"><ele>419.0</ele><time>2026-04-29T13:21:11Z</time></trkpt><trkpt lat="44.637894841240296" lon="9.406573659347131"><ele>419.0</ele><time>2026-04-29T13:21:12Z</time></trkpt><trkpt lat="44.63798769811969" lon="9.406492479072632"><ele>419.0</ele><time>2026-04-29T13:21:13Z</time></trkpt><trkpt lat="44.63808357292754" lon="9.406471461788348"><ele>415.79999999999995</ele><time>2026-04-29T13:21:14Z</time></trkpt><trkpt lat="44.63818957174545" lon="9.406431285630239"><ele>412.59999999999997</ele><time>2026-04-29T13:21:15Z</time></trkpt><trkpt lat="44.638298888341666" lon="9.4064098360406"><ele>409.4</ele><time>2026-04-29T13:21:16Z</time></trkpt><trkpt lat="44.638380365863945" lon="9.406368411909956"><ele>406.2</ele><time>2026-04-29T13:21:17Z</time></trkpt><trkpt lat="44.63846891591233" lon="9.406323666390001"><ele>403.0</ele><time>2026-04-29T13:21:18.001Z</time></trkpt><trkpt lat="44.63855636835794" lon="9.406231321896511"><ele>411.75</ele><time>2026-04-29T13:21:19.001Z</time></trkpt><trkpt lat="44.63863580862464" lon="9.406103504374375"><ele>420.5</ele><time>2026-04-29T13:21:20.001Z</time></trkpt><trkpt lat="44.63870828568905" lon="9.405932332940052"><ele>429.25</ele><time>2026-04-29T13:21:21.001Z</time></trkpt><trkpt lat="44.63878354892995" lon="9.405737517840942"><ele>438.0</ele><time>2026-04-29T13:21:22.001Z</time></trkpt><trkpt lat="44.63886165952016" lon="9.405529400024951"><ele>426.33333333333337</ele><time>2026-04-29T13:21:23.001Z</time></trkpt><trkpt lat="44.63893952536881" lon="9.405321935079039"><ele>414.6666666666667</ele><time>2026-04-29T13:21:24.001Z</time></trkpt><trkpt lat="44.63901055569219" lon="9.405131255861507"><ele>403.0</ele><time>2026-04-29T13:21:25.001Z</time></trkpt><trkpt lat="44.639065498137704" lon="9.404933122247538"><ele>403.0</ele><time>2026-04-29T13:21:26.001Z</time></trkpt><trkpt lat="44.639123981240665" lon="9.404774110393053"><ele>403.0</ele><time>2026-04-29T13:21:27.001Z</time></trkpt><trkpt lat="44.63918236179282" lon="9.404638390070666"><ele>403.0</ele><time>2026-04-29T13:21:28.001Z</time></trkpt><trkpt lat="44.63925093041605" lon="9.404530484640208"><ele>403.0</ele><time>2026-04-29T13:21:29.001Z</time></trkpt><trkpt lat="44.63934123686992" lon="9.404452709036715"><ele>403.0</ele><time>2026-04-29T13:21:30.001Z</time></trkpt><trkpt lat="44.63943232682061" lon="9.404414660172536"><ele>400.75</ele><time>2026-04-29T13:21:31.001Z</time></trkpt><trkpt lat="44.63953559936547" lon="9.404416953548447"><ele>398.5</ele><time>2026-04-29T13:21:32.001Z</time></trkpt><trkpt lat="44.63964029719426" lon="9.40446121727565"><ele>396.25</ele><time>2026-04-29T13:21:33.001Z</time></trkpt><trkpt lat="44.63974727867971" lon="9.404540399090099"><ele>394.0</ele><time>2026-04-29T13:21:34.001Z</time></trkpt><trkpt lat="44.63984573158731" lon="9.404635973815784"><ele>399.25</ele><time>2026-04-29T13:21:34.999Z</time></trkpt><trkpt lat="44.639963618388975" lon="9.40473090788224"><ele>404.5</ele><time>2026-04-29T13:21:35.999Z</time></trkpt><trkpt lat="44.64006668596153" lon="9.404817113201219"><ele>409.75</ele><time>2026-04-29T13:21:36.999Z</time></trkpt><trkpt lat="44.640173250505065" lon="9.404904533482302"><ele>415.0</ele><time>2026-04-29T13:21:37.999Z</time></trkpt><trkpt lat="44.64025612908202" lon="9.404956589559788"><ele>413.25</ele><time>2026-04-29T13:21:38.999Z</time></trkpt><trkpt lat="44.64034842292555" lon="9.40500523728241"><ele>411.5</ele><time>2026-04-29T13:21:39.999Z</time></trkpt><trkpt lat="44.64046206385486" lon="9.405035527995924"><ele>409.75</ele><time>2026-04-29T13:21:40.999Z</time></trkpt><trkpt lat="44.64059543471203" lon="9.405031955999858"><ele>408.0</ele><time>2026-04-29T13:21:41.999Z</time></trkpt><trkpt lat="44.64073944251851" lon="9.404994386470863"><ele>408.0</ele><time>2026-04-29T13:21:42.999Z</time></trkpt><trkpt lat="44.64089004550056" lon="9.404931006933891"><ele>408.0</ele><time>2026-04-29T13:21:43.999Z</time></trkpt><trkpt lat="44.64105935400638" lon="9.404886976396067"><ele>408.0</ele><time>2026-04-29T13:21:44.999Z</time></trkpt><trkpt lat="44.641242663091376" lon="9.404853498315948"><ele>409.33333333333337</ele><time>2026-04-29T13:21:45.999Z</time></trkpt><trkpt lat="44.6414362899952" lon="9.404825257732291"><ele>410.6666666666667</ele><time>2026-04-29T13:21:46.999Z</time></trkpt><trkpt lat="44.64162117018528" lon="9.404816461775768"><ele>412.0</ele><time>2026-04-29T13:21:47.999Z</time></trkpt><trkpt lat="44.64181841505083" lon="9.404824557197584"><ele>411.6666666666667</ele><time>2026-04-29T13:21:49Z</time></trkpt><trkpt lat="44.64199764250991" lon="9.404807739141864"><ele>411.33333333333337</ele><time>2026-04-29T13:21:50Z</time></trkpt><trkpt lat="44.64218013849963" lon="9.40474294367614"><ele>411.0</ele><time>2026-04-29T13:21:51Z</time></trkpt><trkpt lat="44.64238335123778" lon="9.404651906696254"><ele>406.33333333333337</ele><time>2026-04-29T13:21:52Z</time></trkpt><trkpt lat="44.64258623927088" lon="9.404556710176841"><ele>401.6666666666667</ele><time>2026-04-29T13:21:53Z</time></trkpt><trkpt lat="44.64277694565798" lon="9.404468517661298"><ele>397.0</ele><time>2026-04-29T13:21:54Z</time></trkpt><trkpt lat="44.64295881372639" lon="9.404399803437562"><ele>397.0</ele><time>2026-04-29T13:21:55Z</time></trkpt><trkpt lat="44.64312667081211" lon="9.404290109005876"><ele>397.0</ele><time>2026-04-29T13:21:56Z</time></trkpt><trkpt lat="44.643299011090924" lon="9.40419464032436"><ele>397.0</ele><time>2026-04-29T13:21:57Z</time></trkpt><trkpt lat="44.64346644215923" lon="9.404068635773806"><ele>397.0</ele><time>2026-04-29T13:21:58Z</time></trkpt><trkpt lat="44.64361316353084" lon="9.403925364906913"><ele>397.0</ele><time>2026-04-29T13:21:59Z</time></trkpt><trkpt lat="44.64376413362826" lon="9.40381632882653"><ele>397.0</ele><time>2026-04-29T13:22:00Z</time></trkpt><trkpt lat="44.64390791519215" lon="9.403720016869661"><ele>396.25</ele><time>2026-04-29T13:22:01Z</time></trkpt><trkpt lat="44.644045455469694" lon="9.403634494903676"><ele>395.5</ele><time>2026-04-29T13:22:02Z</time></trkpt><trkpt lat="44.64418082594448" lon="9.40356415003446"><ele>394.75</ele><time>2026-04-29T13:22:03Z</time></trkpt><trkpt lat="44.64431327924563" lon="9.403497436655506"><ele>394.0</ele><time>2026-04-29T13:22:04Z</time></trkpt><trkpt lat="44.64444012845406" lon="9.403420382459167"><ele>393.5</ele><time>2026-04-29T13:22:05Z</time></trkpt><trkpt lat="44.64456658815299" lon="9.403349095921838"><ele>393.0</ele><time>2026-04-29T13:22:06Z</time></trkpt><trkpt lat="44.64469806337422" lon="9.40327536817822"><ele>392.5</ele><time>2026-04-29T13:22:07Z</time></trkpt><trkpt lat="44.644829694625805" lon="9.403202625886516"><ele>392.0</ele><time>2026-04-29T13:22:08Z</time></trkpt><trkpt lat="44.644961492970765" lon="9.403128808512509"><ele>392.0</ele><time>2026-04-29T13:22:09Z</time></trkpt><trkpt lat="44.64509471121295" lon="9.403056843489294"><ele>392.0</ele><time>2026-04-29T13:22:10Z</time></trkpt><trkpt lat="44.645231116982316" lon="9.402978930773488"><ele>392.0</ele><time>2026-04-29T13:22:11Z</time></trkpt><trkpt lat="44.6453601587414" lon="9.402895486855066"><ele>392.0</ele><time>2026-04-29T13:22:12Z</time></trkpt><trkpt lat="44.645495666980295" lon="9.402808829564744"><ele>391.0</ele><time>2026-04-29T13:22:13Z</time></trkpt><trkpt lat="44.64564055019109" lon="9.402734109054855"><ele>390.0</ele><time>2026-04-29T13:22:14Z</time></trkpt><trkpt lat="44.645777835545104" lon="9.40266322339565"><ele>389.0</ele><time>2026-04-29T13:22:15Z</time></trkpt><trkpt lat="44.64591844617307" lon="9.402552875406776"><ele>389.0</ele><time>2026-04-29T13:22:16Z</time></trkpt><trkpt lat="44.64608241411449" lon="9.402463519564954"><ele>389.0</ele><time>2026-04-29T13:22:17Z</time></trkpt><trkpt lat="44.64625631426517" lon="9.402362901036636"><ele>389.0</ele><time>2026-04-29T13:22:18Z</time></trkpt><trkpt lat="44.646433409071676" lon="9.402260136557013"><ele>389.66666666666663</ele><time>2026-04-29T13:22:19Z</time></trkpt><trkpt lat="44.64659931852134" lon="9.402183812406841"><ele>390.33333333333337</ele><time>2026-04-29T13:22:20Z</time></trkpt><trkpt lat="44.64674929478553" lon="9.402097011153673"><ele>391.0</ele><time>2026-04-29T13:22:21Z</time></trkpt><trkpt lat="44.64689991245807" lon="9.402013974489465"><ele>392.0</ele><time>2026-04-29T13:22:22Z</time></trkpt><trkpt lat="44.647038056171084" lon="9.401919950605128"><ele>393.0</ele><time>2026-04-29T13:22:23Z</time></trkpt><trkpt lat="44.64718688859003" lon="9.401872891216707"><ele>394.0</ele><time>2026-04-29T13:22:24Z</time></trkpt><trkpt lat="44.64732843239223" lon="9.40180571809963"><ele>394.0</ele><time>2026-04-29T13:22:25Z</time></trkpt><trkpt lat="44.647467490299526" lon="9.401742614586718"><ele>394.0</ele><time>2026-04-29T13:22:26Z</time></trkpt><trkpt lat="44.64760444677041" lon="9.401680473716187"><ele>394.0</ele><time>2026-04-29T13:22:27Z</time></trkpt><trkpt lat="44.647747584443955" lon="9.40161686345897"><ele>394.0</ele><time>2026-04-29T13:22:28Z</time></trkpt><trkpt lat="44.64788689914644" lon="9.401544953023471"><ele>394.75</ele><time>2026-04-29T13:22:29Z</time></trkpt><trkpt lat="44.64803288191191" lon="9.40150990435206"><ele>395.5</ele><time>2026-04-29T13:22:30Z</time></trkpt><trkpt lat="44.648188031276405" lon="9.401514564873608"><ele>396.25</ele><time>2026-04-29T13:22:31Z</time></trkpt><trkpt lat="44.64832823823078" lon="9.401541000864635"><ele>397.0</ele><time>2026-04-29T13:22:32Z</time></trkpt><trkpt lat="44.64846067522745" lon="9.401565149923039"><ele>397.0</ele><time>2026-04-29T13:22:33Z</time></trkpt><trkpt lat="44.648589272201725" lon="9.401590875605597"><ele>397.0</ele><time>2026-04-29T13:22:34.001Z</time></trkpt><trkpt lat="44.64872178671854" lon="9.401602078964036"><ele>397.0</ele><time>2026-04-29T13:22:35.001Z</time></trkpt><trkpt lat="44.6488567577593" lon="9.401586565138164"><ele>397.0</ele><time>2026-04-29T13:22:36.001Z</time></trkpt><trkpt lat="44.64900058456757" lon="9.401556967955296"><ele>398.33333333333337</ele><time>2026-04-29T13:22:37.001Z</time></trkpt><trkpt lat="44.64915025746272" lon="9.40151655680815"><ele>399.66666666666663</ele><time>2026-04-29T13:22:38.001Z</time></trkpt><trkpt lat="44.64930867189343" lon="9.401475097905418"><ele>401.0</ele><time>2026-04-29T13:22:39.001Z</time></trkpt><trkpt lat="44.64946866246555" lon="9.401441303256613"><ele>402.75</ele><time>2026-04-29T13:22:40.001Z</time></trkpt><trkpt lat="44.649623866671725" lon="9.401406951720126"><ele>404.5</ele><time>2026-04-29T13:22:41.001Z</time></trkpt><trkpt lat="44.649768409786596" lon="9.401367833876908"><ele>406.25</ele><time>2026-04-29T13:22:42.001Z</time></trkpt><trkpt lat="44.649900722174756" lon="9.401346709155629"><ele>408.0</ele><time>2026-04-29T13:22:43.001Z</time></trkpt><trkpt lat="44.65002613364954" lon="9.401321433205435"><ele>408.5</ele><time>2026-04-29T13:22:44.001Z</time></trkpt><trkpt lat="44.65015698912844" lon="9.401295952261707"><ele>409.0</ele><time>2026-04-29T13:22:45.001Z</time></trkpt><trkpt lat="44.65028139994496" lon="9.401266223141512"><ele>409.5</ele><time>2026-04-29T13:22:46.001Z</time></trkpt><trkpt lat="44.6504018732917" lon="9.401216254731988"><ele>410.0</ele><time>2026-04-29T13:22:47.001Z</time></trkpt><trkpt lat="44.65051976259558" lon="9.401140402640374"><ele>410.0</ele><time>2026-04-29T13:22:48.001Z</time></trkpt><trkpt lat="44.65063493411338" lon="9.401053139925668"><ele>410.0</ele><time>2026-04-29T13:22:49.001Z</time></trkpt><trkpt lat="44.650702676015705" lon="9.400995951157176"><ele>410.0</ele><time>2026-04-29T13:22:50.001Z</time></trkpt><trkpt lat="44.65079221991206" lon="9.400940206566787"><ele>410.0</ele><time>2026-04-29T13:22:51.001Z</time></trkpt><trkpt lat="44.650882335754716" lon="9.40093577098288"><ele>410.0</ele><time>2026-04-29T13:22:52.001Z</time></trkpt><trkpt lat="44.65098339359981" lon="9.400927903215774"><ele>410.0</ele><time>2026-04-29T13:22:53.001Z</time></trkpt><trkpt lat="44.651098788283285" lon="9.400908107408085"><ele>410.0</ele><time>2026-04-29T13:22:54.001Z</time></trkpt><trkpt lat="44.65119951148161" lon="9.400904735579415"><ele>410.0</ele><time>2026-04-29T13:22:55.001Z</time></trkpt><trkpt lat="44.651296332123785" lon="9.400961739701138"><ele>410.0</ele><time>2026-04-29T13:22:57.001Z</time></trkpt><trkpt lat="44.651395340954714" lon="9.401080480833778"><ele>410.8</ele><time>2026-04-29T13:22:59.001Z</time></trkpt><trkpt lat="44.65153957805937" lon="9.40120251992159"><ele>411.6</ele><time>2026-04-29T13:23:01.001Z</time></trkpt><trkpt lat="44.65162945369467" lon="9.401247291093874"><ele>412.4</ele><time>2026-04-29T13:23:02.001Z</time></trkpt><trkpt lat="44.65170204938299" lon="9.401245479429486"><ele>413.2</ele><time>2026-04-29T13:23:03.001Z</time></trkpt><trkpt lat="44.65177659416406" lon="9.40122401036346"><ele>414.0</ele><time>2026-04-29T13:23:04.001Z</time></trkpt><trkpt lat="44.6518670277889" lon="9.401190620873468"><ele>418.5</ele><time>2026-04-29T13:23:05.001Z</time></trkpt><trkpt lat="44.65195879319765" lon="9.401165765846217"><ele>423.0</ele><time>2026-04-29T13:23:06.001Z</time></trkpt><trkpt lat="44.65202831346959" lon="9.401157852586772"><ele>427.5</ele><time>2026-04-29T13:23:07.001Z</time></trkpt><trkpt lat="44.652093693054454" lon="9.401048667954223"><ele>432.0</ele><time>2026-04-29T13:23:09.001Z</time></trkpt><trkpt lat="44.65209855435422" lon="9.400948345501265"><ele>436.5</ele><time>2026-04-29T13:23:10.001Z</time></trkpt><trkpt lat="44.65208478203826" lon="9.400825143048793"><ele>441.0</ele><time>2026-04-29T13:23:11.001Z</time></trkpt><trkpt lat="44.652075038673615" lon="9.400734950238627"><ele>441.0</ele><time>2026-04-29T13:23:12.001Z</time></trkpt><trkpt lat="44.65215769068648" lon="9.400613608095654"><ele>441.0</ele><time>2026-04-29T13:23:14.001Z</time></trkpt><trkpt lat="44.65224196648078" lon="9.400593453967176"><ele>441.0</ele><time>2026-04-29T13:23:15.001Z</time></trkpt><trkpt lat="44.65232147028568" lon="9.40055312574629"><ele>441.0</ele><time>2026-04-29T13:23:16.001Z</time></trkpt><trkpt lat="44.652392369535974" lon="9.400474551207566"><ele>441.0</ele><time>2026-04-29T13:23:17.001Z</time></trkpt><trkpt lat="44.652465211250394" lon="9.4003626091928"><ele>436.3333333333333</ele><time>2026-04-29T13:23:18.001Z</time></trkpt><trkpt lat="44.6525116058306" lon="9.400246884382463"><ele>431.66666666666663</ele><time>2026-04-29T13:23:19.001Z</time></trkpt><trkpt lat="44.652541528712504" lon="9.400137488640516"><ele>427.0</ele><time>2026-04-29T13:23:20.001Z</time></trkpt><trkpt lat="44.652547546139644" lon="9.400044978101068"><ele>422.3333333333333</ele><time>2026-04-29T13:23:21.001Z</time></trkpt><trkpt lat="44.652617524184485" lon="9.399987664135331"><ele>417.66666666666663</ele><time>2026-04-29T13:23:23.001Z</time></trkpt><trkpt lat="44.65268749167889" lon="9.400057343965848"><ele>413.0</ele><time>2026-04-29T13:23:25.001Z</time></trkpt><trkpt lat="44.65275875615962" lon="9.400080030396513"><ele>413.8333333333333</ele><time>2026-04-29T13:23:26.001Z</time></trkpt><trkpt lat="44.652858321501775" lon="9.400122269827488"><ele>414.66666666666663</ele><time>2026-04-29T13:23:27.001Z</time></trkpt><trkpt lat="44.65294023020845" lon="9.400148368343398"><ele>415.5</ele><time>2026-04-29T13:23:28.001Z</time></trkpt><trkpt lat="44.652995267186654" lon="9.40021334054213"><ele>416.33333333333337</ele><time>2026-04-29T13:23:29.001Z</time></trkpt><trkpt lat="44.6530625891069" lon="9.400280531415344"><ele>417.1666666666667</ele><time>2026-04-29T13:23:30.001Z</time></trkpt><trkpt lat="44.653130357660814" lon="9.400327425841711"><ele>418.0</ele><time>2026-04-29T13:23:31.001Z</time></trkpt><trkpt lat="44.65322506590575" lon="9.40037516023107"><ele>418.00000000000006</ele><time>2026-04-29T13:23:32.001Z</time></trkpt><trkpt lat="44.653326480109335" lon="9.400412336656192"><ele>418.0</ele><time>2026-04-29T13:23:33.002Z</time></trkpt><trkpt lat="44.65342337580655" lon="9.400466450851578"><ele>418.0</ele><time>2026-04-29T13:23:34.002Z</time></trkpt><trkpt lat="44.65349666152708" lon="9.400490673953987"><ele>418.0</ele><time>2026-04-29T13:23:35.002Z</time></trkpt><trkpt lat="44.65352989505715" lon="9.400567702542654"><ele>418.00000000000006</ele><time>2026-04-29T13:23:39.002Z</time></trkpt><trkpt lat="44.653459714300986" lon="9.400557634822142"><ele>418.0</ele><time>2026-04-29T13:23:41.001Z</time></trkpt><trkpt lat="44.65337853549371" lon="9.400473101344753"><ele>418.0</ele><time>2026-04-29T13:23:43.001Z</time></trkpt><trkpt lat="44.65328803265046" lon="9.400430735035066"><ele>418.0</ele><time>2026-04-29T13:23:44.001Z</time></trkpt><trkpt lat="44.653177805372685" lon="9.400384602251643"><ele>418.0</ele><time>2026-04-29T13:23:45.001Z</time></trkpt><trkpt lat="44.653066996545796" lon="9.40037192869565"><ele>418.0</ele><time>2026-04-29T13:23:46.001Z</time></trkpt><trkpt lat="44.65296600025947" lon="9.400321595337248"><ele>418.0</ele><time>2026-04-29T13:23:47.001Z</time></trkpt><trkpt lat="44.65288098314232" lon="9.400279739950625"><ele>418.00000000000006</ele><time>2026-04-29T13:23:48.001Z</time></trkpt><trkpt lat="44.65280486723615" lon="9.400273225725401"><ele>418.0</ele><time>2026-04-29T13:23:49.001Z</time></trkpt><trkpt lat="44.65274614599083" lon="9.40030629267176"><ele>418.0</ele><time>2026-04-29T13:23:50.001Z</time></trkpt><trkpt lat="44.65269581518981" lon="9.400391375968587"><ele>418.0</ele><time>2026-04-29T13:23:51.001Z</time></trkpt><trkpt lat="44.652652975422555" lon="9.400517583681722"><ele>418.00000000000006</ele><time>2026-04-29T13:23:52.001Z</time></trkpt><trkpt lat="44.65262897453811" lon="9.40066193873389"><ele>418.0</ele><time>2026-04-29T13:23:53.001Z</time></trkpt><trkpt lat="44.652580107913614" lon="9.400764930276292"><ele>422.59999999999997</ele><time>2026-04-29T13:23:54.001Z</time></trkpt><trkpt lat="44.65252995772343" lon="9.400833177111455"><ele>427.2</ele><time>2026-04-29T13:23:55.001Z</time></trkpt><trkpt lat="44.6524728912075" lon="9.400911432034777"><ele>431.8</ele><time>2026-04-29T13:23:57.001Z</time></trkpt><trkpt lat="44.652485989950435" lon="9.40106193945012"><ele>436.4</ele><time>2026-04-29T13:23:59.001Z</time></trkpt><trkpt lat="44.65254767840911" lon="9.40111393824422"><ele>441.0</ele><time>2026-04-29T13:24:00.001Z</time></trkpt><trkpt lat="44.65263159857932" lon="9.400985257207703"><ele>441.0</ele><time>2026-04-29T13:24:01.001Z</time></trkpt><trkpt lat="44.652687572747155" lon="9.400897266089917"><ele>441.0</ele><time>2026-04-29T13:24:02.001Z</time></trkpt><trkpt lat="44.65274152610445" lon="9.400795234212081"><ele>441.0</ele><time>2026-04-29T13:24:03.001Z</time></trkpt><trkpt lat="44.652815230573815" lon="9.400710391253321"><ele>441.0</ele><time>2026-04-29T13:24:04.001Z</time></trkpt><trkpt lat="44.652872673515425" lon="9.400642367485055"><ele>441.0</ele><time>2026-04-29T13:24:05.001Z</time></trkpt><trkpt lat="44.652965125413765" lon="9.400628975692609"><ele>441.0</ele><time>2026-04-29T13:24:07.001Z</time></trkpt><trkpt lat="44.65311077236018" lon="9.400711188044761"><ele>447.75</ele><time>2026-04-29T13:24:09.001Z</time></trkpt><trkpt lat="44.65320991532867" lon="9.40077295412133"><ele>454.5</ele><time>2026-04-29T13:24:10.001Z</time></trkpt><trkpt lat="44.65330873822001" lon="9.400849804906015"><ele>461.25</ele><time>2026-04-29T13:24:11.001Z</time></trkpt><trkpt lat="44.65341261737175" lon="9.40096437221724"><ele>468.0</ele><time>2026-04-29T13:24:12.001Z</time></trkpt><trkpt lat="44.65352716061015" lon="9.401069840720385"><ele>468.0</ele><time>2026-04-29T13:24:13.001Z</time></trkpt><trkpt lat="44.65361799385618" lon="9.40115085038927"><ele>467.99999999999994</ele><time>2026-04-29T13:24:14.001Z</time></trkpt><trkpt lat="44.653691403460826" lon="9.4012146383602"><ele>467.99999999999994</ele><time>2026-04-29T13:24:15.001Z</time></trkpt><trkpt lat="44.65377306847371" lon="9.401272707284049"><ele>468.0</ele><time>2026-04-29T13:24:16.001Z</time></trkpt><trkpt lat="44.65389420257251" lon="9.401331518862827"><ele>468.0</ele><time>2026-04-29T13:24:17.001Z</time></trkpt><trkpt lat="44.65401943124428" lon="9.401405842139779"><ele>469.4</ele><time>2026-04-29T13:24:18.001Z</time></trkpt><trkpt lat="44.65414286177796" lon="9.40152669417834"><ele>470.79999999999995</ele><time>2026-04-29T13:24:19.001Z</time></trkpt><trkpt lat="44.65424586413213" lon="9.40158028435215"><ele>472.2</ele><time>2026-04-29T13:24:20.001Z</time></trkpt><trkpt lat="44.65431202007307" lon="9.401608173605817"><ele>473.6</ele><time>2026-04-29T13:24:21.001Z</time></trkpt><trkpt lat="44.654376406167565" lon="9.40162138469435"><ele>475.0</ele><time>2026-04-29T13:24:22.001Z</time></trkpt><trkpt lat="44.65445516167907" lon="9.401623232455151"><ele>475.0</ele><time>2026-04-29T13:24:23.001Z</time></trkpt><trkpt lat="44.654538847603845" lon="9.40160770490274"><ele>475.0</ele><time>2026-04-29T13:24:24.001Z</time></trkpt><trkpt lat="44.654616007143986" lon="9.401642086219626"><ele>475.0</ele><time>2026-04-29T13:24:26.001Z</time></trkpt><trkpt lat="44.654558953359015" lon="9.401807946415936"><ele>475.0</ele><time>2026-04-29T13:24:28.001Z</time></trkpt><trkpt lat="44.65455895336338" lon="9.401916442148686"><ele>475.0</ele><time>2026-04-29T13:24:29.001Z</time></trkpt><trkpt lat="44.65461217062439" lon="9.40205823385256"><ele>475.00000000000006</ele><time>2026-04-29T13:24:31.001Z</time></trkpt><trkpt lat="44.654672277403996" lon="9.402121018181287"><ele>475.0</ele><time>2026-04-29T13:24:32.001Z</time></trkpt><trkpt lat="44.654745416229744" lon="9.402177801086927"><ele>475.0</ele><time>2026-04-29T13:24:33.001Z</time></trkpt><trkpt lat="44.6548298171724" lon="9.402220892646255"><ele>475.0</ele><time>2026-04-29T13:24:34.001Z</time></trkpt><trkpt lat="44.65490414878468" lon="9.402245489247665"><ele>475.00000000000006</ele><time>2026-04-29T13:24:35.001Z</time></trkpt><trkpt lat="44.65496613592831" lon="9.402179416768476"><ele>475.0</ele><time>2026-04-29T13:24:36.001Z</time></trkpt><trkpt lat="44.655078157553476" lon="9.402133067887362"><ele>477.00000000000006</ele><time>2026-04-29T13:24:38.001Z</time></trkpt><trkpt lat="44.6551363414741" lon="9.402198052299788"><ele>479.0</ele><time>2026-04-29T13:24:39.001Z</time></trkpt><trkpt lat="44.655200616213044" lon="9.402246230497077"><ele>481.0</ele><time>2026-04-29T13:24:40.001Z</time></trkpt><trkpt lat="44.65526365118825" lon="9.402335547880037"><ele>483.0</ele><time>2026-04-29T13:24:41.001Z</time></trkpt><trkpt lat="44.65532083660747" lon="9.402454025558852"><ele>485.00000000000006</ele><time>2026-04-29T13:24:42.001Z</time></trkpt><trkpt lat="44.65537405305186" lon="9.4025850118738"><ele>487.0</ele><time>2026-04-29T13:24:43.001Z</time></trkpt><trkpt lat="44.655426084276826" lon="9.402723244955306"><ele>487.0</ele><time>2026-04-29T13:24:44.001Z</time></trkpt><trkpt lat="44.65548601802286" lon="9.40284559694452"><ele>487.00000000000006</ele><time>2026-04-29T13:24:45.001Z</time></trkpt><trkpt lat="44.65553292214467" lon="9.402958832603762"><ele>487.00000000000006</ele><time>2026-04-29T13:24:46.001Z</time></trkpt><trkpt lat="44.65559458370532" lon="9.403059506114667"><ele>487.0</ele><time>2026-04-29T13:24:47.001Z</time></trkpt><trkpt lat="44.65563187507205" lon="9.403164461802833"><ele>487.0</ele><time>2026-04-29T13:24:48.001Z</time></trkpt><trkpt lat="44.65568163434604" lon="9.403289512972428"><ele>494.0</ele><time>2026-04-29T13:24:50.001Z</time></trkpt><trkpt lat="44.655803275650506" lon="9.403335647103539"><ele>501.00000000000006</ele><time>2026-04-29T13:24:52.001Z</time></trkpt><trkpt lat="44.6558836618094" lon="9.403320259373494"><ele>508.00000000000006</ele><time>2026-04-29T13:24:53.001Z</time></trkpt><trkpt lat="44.65596400539971" lon="9.40332369075584"><ele>515.0</ele><time>2026-04-29T13:24:54.001Z</time></trkpt><trkpt lat="44.65605460054474" lon="9.403212129816549"><ele>522.0</ele><time>2026-04-29T13:24:56.001Z</time></trkpt><trkpt lat="44.656092114024815" lon="9.403090845270226"><ele>522.6666666666666</ele><time>2026-04-29T13:24:57.001Z</time></trkpt><trkpt lat="44.656170767247694" lon="9.403023799100799"><ele>523.3333333333334</ele><time>2026-04-29T13:24:58.001Z</time></trkpt><trkpt lat="44.65624465191004" lon="9.402982288713462"><ele>524.0</ele><time>2026-04-29T13:24:59.001Z</time></trkpt><trkpt lat="44.656333125041726" lon="9.40294791617128"><ele>524.6666666666667</ele><time>2026-04-29T13:25:00.001Z</time></trkpt><trkpt lat="44.65640857171286" lon="9.402942874780697"><ele>525.3333333333334</ele><time>2026-04-29T13:25:01.001Z</time></trkpt><trkpt lat="44.65647137468919" lon="9.402975472452926"><ele>526.0</ele><time>2026-04-29T13:25:02.001Z</time></trkpt><trkpt lat="44.656519773721136" lon="9.40304703430196"><ele>526.0</ele><time>2026-04-29T13:25:03.001Z</time></trkpt><trkpt lat="44.65660039770948" lon="9.40312547403051"><ele>526.0</ele><time>2026-04-29T13:25:04.001Z</time></trkpt><trkpt lat="44.6566976128838" lon="9.403223162020875"><ele>526.0</ele><time>2026-04-29T13:25:05.001Z</time></trkpt><trkpt lat="44.65678267793005" lon="9.403308400292389"><ele>526.0</ele><time>2026-04-29T13:25:06.001Z</time></trkpt><trkpt lat="44.65686638287643" lon="9.403402090263286"><ele>526.0</ele><time>2026-04-29T13:25:07.001Z</time></trkpt><trkpt lat="44.65693192283473" lon="9.40348083581748"><ele>524.5</ele><time>2026-04-29T13:25:08.001Z</time></trkpt><trkpt lat="44.657003686489986" lon="9.403532955901568"><ele>523.0</ele><time>2026-04-29T13:25:09.001Z</time></trkpt><trkpt lat="44.65710004588626" lon="9.403516995153312"><ele>521.5</ele><time>2026-04-29T13:25:10.001Z</time></trkpt><trkpt lat="44.65719237929993" lon="9.403540435071559"><ele>520.0</ele><time>2026-04-29T13:25:11.001Z</time></trkpt><trkpt lat="44.65727294290092" lon="9.403564057803699"><ele>518.5</ele><time>2026-04-29T13:25:12.001Z</time></trkpt><trkpt lat="44.65734634816727" lon="9.403611848362859"><ele>517.0</ele><time>2026-04-29T13:25:13.001Z</time></trkpt><trkpt lat="44.65744042588216" lon="9.403667377552429"><ele>517.0</ele><time>2026-04-29T13:25:14.002Z</time></trkpt><trkpt lat="44.65753366698456" lon="9.403725808198212"><ele>517.0</ele><time>2026-04-29T13:25:15.002Z</time></trkpt><trkpt lat="44.657632561257685" lon="9.403788189173806"><ele>517.0</ele><time>2026-04-29T13:25:16.002Z</time></trkpt><trkpt lat="44.65772212950548" lon="9.403855986115177"><ele>517.0</ele><time>2026-04-29T13:25:17.002Z</time></trkpt><trkpt lat="44.65779056577466" lon="9.403929810574198"><ele>517.0</ele><time>2026-04-29T13:25:18.002Z</time></trkpt><trkpt lat="44.65782230943838" lon="9.40404555049242"><ele>517.5</ele><time>2026-04-29T13:25:19.002Z</time></trkpt><trkpt lat="44.657847950158384" lon="9.404148384916558"><ele>518.0</ele><time>2026-04-29T13:25:20.002Z</time></trkpt><trkpt lat="44.657861927877036" lon="9.40427226272429"><ele>518.5</ele><time>2026-04-29T13:25:21.002Z</time></trkpt><trkpt lat="44.65786439886237" lon="9.404400807871843"><ele>519.0</ele><time>2026-04-29T13:25:22.002Z</time></trkpt><trkpt lat="44.65787460693056" lon="9.4045312758729"><ele>519.5</ele><time>2026-04-29T13:25:23.002Z</time></trkpt><trkpt lat="44.657902342094644" lon="9.404651097598663"><ele>520.0</ele><time>2026-04-29T13:25:25.002Z</time></trkpt><trkpt lat="44.65802432706324" lon="9.404752722773527"><ele>525.8</ele><time>2026-04-29T13:25:27.002Z</time></trkpt><trkpt lat="44.65811981287781" lon="9.40471889534788"><ele>531.6</ele><time>2026-04-29T13:25:28.002Z</time></trkpt><trkpt lat="44.65824273883821" lon="9.404728768963794"><ele>537.4</ele><time>2026-04-29T13:25:30.002Z</time></trkpt><trkpt lat="44.658304893253266" lon="9.404843990261906"><ele>543.2</ele><time>2026-04-29T13:25:32.002Z</time></trkpt><trkpt lat="44.65832738125229" lon="9.404928830498958"><ele>549.0</ele><time>2026-04-29T13:25:33.002Z</time></trkpt><trkpt lat="44.65837149497318" lon="9.405043091577815"><ele>549.0</ele><time>2026-04-29T13:25:34.002Z</time></trkpt><trkpt lat="44.65838809717834" lon="9.405183831855823"><ele>549.0</ele><time>2026-04-29T13:25:35.002Z</time></trkpt><trkpt lat="44.65843056732895" lon="9.405308171262705"><ele>549.0</ele><time>2026-04-29T13:25:36.002Z</time></trkpt><trkpt lat="44.658441126399396" lon="9.40542063362034"><ele>549.0</ele><time>2026-04-29T13:25:37.002Z</time></trkpt><trkpt lat="44.65845949753847" lon="9.405512038429327"><ele>549.0</ele><time>2026-04-29T13:25:38.002Z</time></trkpt><trkpt lat="44.658488845982674" lon="9.405600174207882"><ele>549.0</ele><time>2026-04-29T13:25:39.002Z</time></trkpt><trkpt lat="44.65848710194875" lon="9.40569254819656"><ele>548.4</ele><time>2026-04-29T13:25:40.002Z</time></trkpt><trkpt lat="44.658514000794504" lon="9.405850544039417"><ele>547.8</ele><time>2026-04-29T13:25:42.002Z</time></trkpt><trkpt lat="44.65856912784013" lon="9.40591677792769"><ele>547.2</ele><time>2026-04-29T13:25:43.002Z</time></trkpt><trkpt lat="44.65866788637472" lon="9.405829728195354"><ele>546.6</ele><time>2026-04-29T13:25:44.002Z</time></trkpt><trkpt lat="44.65874136094311" lon="9.40580177028814"><ele>546.0</ele><time>2026-04-29T13:25:45.002Z</time></trkpt><trkpt lat="44.658854769374486" lon="9.405869523183739"><ele>546.0</ele><time>2026-04-29T13:25:47.001Z</time></trkpt><trkpt lat="44.65891270771995" lon="9.405927933610554"><ele>546.0</ele><time>2026-04-29T13:25:48.001Z</time></trkpt><trkpt lat="44.65897711627571" lon="9.406019687977613"><ele>546.0</ele><time>2026-04-29T13:25:49.001Z</time></trkpt><trkpt lat="44.659019080392675" lon="9.406111574099956"><ele>546.0</ele><time>2026-04-29T13:25:50.001Z</time></trkpt><trkpt lat="44.65907112935448" lon="9.406219440906904"><ele>546.0</ele><time>2026-04-29T13:25:51.001Z</time></trkpt><trkpt lat="44.659126671536946" lon="9.406305408196499"><ele>546.0</ele><time>2026-04-29T13:25:52.001Z</time></trkpt><trkpt lat="44.65916172784288" lon="9.406404967366015"><ele>545.8333333333334</ele><time>2026-04-29T13:25:53.001Z</time></trkpt><trkpt lat="44.659228063849795" lon="9.406495259503018"><ele>545.6666666666666</ele><time>2026-04-29T13:25:54.001Z</time></trkpt><trkpt lat="44.659291999091174" lon="9.40658752991126"><ele>545.5</ele><time>2026-04-29T13:25:55.001Z</time></trkpt><trkpt lat="44.65934620484624" lon="9.406653017281236"><ele>545.3333333333333</ele><time>2026-04-29T13:25:56.001Z</time></trkpt><trkpt lat="44.659417743675135" lon="9.406691946403578"><ele>545.1666666666666</ele><time>2026-04-29T13:25:57.001Z</time></trkpt><trkpt lat="44.659503718206615" lon="9.40673120803694"><ele>545.0</ele><time>2026-04-29T13:25:58.001Z</time></trkpt><trkpt lat="44.65959118104134" lon="9.406752971267661"><ele>545.0</ele><time>2026-04-29T13:25:59.001Z</time></trkpt><trkpt lat="44.65966889081929" lon="9.406792876407083"><ele>545.0</ele><time>2026-04-29T13:26:00.001Z</time></trkpt><trkpt lat="44.65970019772308" lon="9.406882529820832"><ele>545.0</ele><time>2026-04-29T13:26:01.001Z</time></trkpt><trkpt lat="44.659746346401036" lon="9.40704676159511"><ele>545.0</ele><time>2026-04-29T13:26:03.001Z</time></trkpt><trkpt lat="44.65977905186701" lon="9.407126629263798"><ele>545.0</ele><time>2026-04-29T13:26:04.001Z</time></trkpt><trkpt lat="44.6598529887361" lon="9.407209630021901"><ele>545.0</ele><time>2026-04-29T13:26:05.001Z</time></trkpt><trkpt lat="44.65987778533263" lon="9.407296948039587"><ele>550.0</ele><time>2026-04-29T13:26:06.001Z</time></trkpt><trkpt lat="44.65988465577289" lon="9.407385544907672"><ele>555.0</ele><time>2026-04-29T13:26:08.001Z</time></trkpt><trkpt lat="44.659881841391176" lon="9.407536692284777"><ele>560.0</ele><time>2026-04-29T13:26:10.001Z</time></trkpt><trkpt lat="44.659879085974374" lon="9.40763156907433"><ele>565.0</ele><time>2026-04-29T13:26:11.001Z</time></trkpt><trkpt lat="44.65987647662915" lon="9.40772141627186"><ele>570.0</ele><time>2026-04-29T13:26:12.001Z</time></trkpt><trkpt lat="44.659881734497525" lon="9.40787846662343"><ele>575.0</ele><time>2026-04-29T13:26:14.001Z</time></trkpt><trkpt lat="44.65989876889781" lon="9.408048431763486"><ele>579.6</ele><time>2026-04-29T13:26:16.001Z</time></trkpt><trkpt lat="44.65991401443006" lon="9.408134939959211"><ele>584.2</ele><time>2026-04-29T13:26:17.001Z</time></trkpt><trkpt lat="44.659962770122576" lon="9.408297118479506"><ele>588.8</ele><time>2026-04-29T13:26:19.001Z</time></trkpt><trkpt lat="44.660027309569365" lon="9.408439568531932"><ele>593.4</ele><time>2026-04-29T13:26:21.001Z</time></trkpt><trkpt lat="44.66006457933965" lon="9.408511426417762"><ele>598.0</ele><time>2026-04-29T13:26:22.001Z</time></trkpt><trkpt lat="44.66015192979992" lon="9.408669244461223"><ele>598.0</ele><time>2026-04-29T13:26:24.001Z</time></trkpt><trkpt lat="44.66019280120605" lon="9.408741291253527"><ele>598.0</ele><time>2026-04-29T13:26:25.001Z</time></trkpt><trkpt lat="44.66024611380255" lon="9.408821171101593"><ele>598.0</ele><time>2026-04-29T13:26:26.001Z</time></trkpt><trkpt lat="44.66030798314991" lon="9.408857312253799"><ele>598.0</ele><time>2026-04-29T13:26:27.001Z</time></trkpt><trkpt lat="44.660390695175096" lon="9.408929861759155"><ele>598.0</ele><time>2026-04-29T13:26:29.001Z</time></trkpt><trkpt lat="44.660504689916515" lon="9.408971992276625"><ele>598.0</ele><time>2026-04-29T13:26:31.001Z</time></trkpt><trkpt lat="44.66058134057905" lon="9.408978035438391"><ele>599.0</ele><time>2026-04-29T13:26:32.001Z</time></trkpt><trkpt lat="44.66066530614313" lon="9.408988556637008"><ele>600.0</ele><time>2026-04-29T13:26:33.001Z</time></trkpt><trkpt lat="44.66075163551995" lon="9.40898094460749"><ele>601.0</ele><time>2026-04-29T13:26:34.001Z</time></trkpt><trkpt lat="44.66082740767342" lon="9.409003517976588"><ele>602.0</ele><time>2026-04-29T13:26:35.001Z</time></trkpt><trkpt lat="44.66095257075431" lon="9.409059552520484"><ele>603.0</ele><time>2026-04-29T13:26:37.001Z</time></trkpt><trkpt lat="44.661028242307424" lon="9.409121552423017"><ele>603.0</ele><time>2026-04-29T13:26:38.001Z</time></trkpt><trkpt lat="44.6610965050466" lon="9.409223496525842"><ele>603.0</ele><time>2026-04-29T13:26:39.001Z</time></trkpt><trkpt lat="44.66113604415689" lon="9.409321299899183"><ele>603.0</ele><time>2026-04-29T13:26:41.001Z</time></trkpt><trkpt lat="44.66120200696542" lon="9.409428908747184"><ele>603.0</ele><time>2026-04-29T13:26:54.001Z</time></trkpt><trkpt lat="44.66118762239992" lon="9.409577683731175"><ele>603.0</ele><time>2026-04-29T13:26:56.001Z</time></trkpt><trkpt lat="44.66114768845807" lon="9.409655741903908"><ele>604.6666666666666</ele><time>2026-04-29T13:26:57.001Z</time></trkpt><trkpt lat="44.661081383628236" lon="9.409712358396815"><ele>606.3333333333334</ele><time>2026-04-29T13:26:58.001Z</time></trkpt><trkpt lat="44.661005100789886" lon="9.409790514726241"><ele>608.0</ele><time>2026-04-29T13:26:59.001Z</time></trkpt><trkpt lat="44.66092356254466" lon="9.40985606860038"><ele>609.6666666666667</ele><time>2026-04-29T13:27:00.001Z</time></trkpt><trkpt lat="44.66087876503967" lon="9.409940585397711"><ele>611.3333333333334</ele><time>2026-04-29T13:27:01.001Z</time></trkpt><trkpt lat="44.660859552909876" lon="9.410030930522256"><ele>613.0</ele><time>2026-04-29T13:27:02.001Z</time></trkpt><trkpt lat="44.66085285462688" lon="9.410133148152847"><ele>613.0</ele><time>2026-04-29T13:27:03.001Z</time></trkpt><trkpt lat="44.66084627768437" lon="9.410232078017923"><ele>613.0</ele><time>2026-04-29T13:27:04.001Z</time></trkpt><trkpt lat="44.66078034850232" lon="9.410384682516233"><ele>613.0</ele><time>2026-04-29T13:27:06.001Z</time></trkpt><trkpt lat="44.66073297484674" lon="9.410480573662456"><ele>613.0</ele><time>2026-04-29T13:27:07.001Z</time></trkpt><trkpt lat="44.660698380427455" lon="9.410598149758227"><ele>613.0</ele><time>2026-04-29T13:27:08.001Z</time></trkpt><trkpt lat="44.66064410275616" lon="9.41069064649106"><ele>611.6</ele><time>2026-04-29T13:27:09.001Z</time></trkpt><trkpt lat="44.6605864395178" lon="9.410749224694879"><ele>610.1999999999999</ele><time>2026-04-29T13:27:10.001Z</time></trkpt><trkpt lat="44.66051533069303" lon="9.410802756332469"><ele>608.8</ele><time>2026-04-29T13:27:11.001Z</time></trkpt><trkpt lat="44.66044962654821" lon="9.410855753336781"><ele>607.4</ele><time>2026-04-29T13:27:12.001Z</time></trkpt><trkpt lat="44.66034798678979" lon="9.410974858644542"><ele>606.0</ele><time>2026-04-29T13:27:14.001Z</time></trkpt><trkpt lat="44.66030895106366" lon="9.41111122294124"><ele>611.0</ele><time>2026-04-29T13:27:15.001Z</time></trkpt><trkpt lat="44.66028171584427" lon="9.41124199955178"><ele>616.0</ele><time>2026-04-29T13:27:16.001Z</time></trkpt><trkpt lat="44.660261989677856" lon="9.411376653339644"><ele>621.0</ele><time>2026-04-29T13:27:17.001Z</time></trkpt><trkpt lat="44.660248535523934" lon="9.411514187543656"><ele>626.0</ele><time>2026-04-29T13:27:18.001Z</time></trkpt><trkpt lat="44.66023665371746" lon="9.411648286563933"><ele>631.0</ele><time>2026-04-29T13:27:19.001Z</time></trkpt><trkpt lat="44.660253498095265" lon="9.411769527824976"><ele>629.6</ele><time>2026-04-29T13:27:20.001Z</time></trkpt><trkpt lat="44.66028413803986" lon="9.411863157546513"><ele>628.2</ele><time>2026-04-29T13:27:21.001Z</time></trkpt><trkpt lat="44.66034023753637" lon="9.411949645308233"><ele>626.8</ele><time>2026-04-29T13:27:22.001Z</time></trkpt><trkpt lat="44.66040562615556" lon="9.412038324293016"><ele>625.4</ele><time>2026-04-29T13:27:23.002Z</time></trkpt><trkpt lat="44.6604768571517" lon="9.412132620556843"><ele>624.0</ele><time>2026-04-29T13:27:24.002Z</time></trkpt><trkpt lat="44.660550709560596" lon="9.412236333457024"><ele>624.0</ele><time>2026-04-29T13:27:25.002Z</time></trkpt><trkpt lat="44.660632354414076" lon="9.412319970270195"><ele>624.0</ele><time>2026-04-29T13:27:26.002Z</time></trkpt><trkpt lat="44.660715888601686" lon="9.412337928432487"><ele>624.0</ele><time>2026-04-29T13:27:27.002Z</time></trkpt><trkpt lat="44.66079128949994" lon="9.412408447819049"><ele>624.0</ele><time>2026-04-29T13:27:29.002Z</time></trkpt><trkpt lat="44.660773566151015" lon="9.412531952815224"><ele>624.0</ele><time>2026-04-29T13:27:31.002Z</time></trkpt><trkpt lat="44.660745121479565" lon="9.412679716184318"><ele>624.0</ele><time>2026-04-29T13:27:33.002Z</time></trkpt><trkpt lat="44.66067229013798" lon="9.412750866510933"><ele>624.0</ele><time>2026-04-29T13:27:35.002Z</time></trkpt><trkpt lat="44.660593134679836" lon="9.412737889849074"><ele>624.0</ele><time>2026-04-29T13:27:36.002Z</time></trkpt><trkpt lat="44.66050062535275" lon="9.412718314680516"><ele>624.0</ele><time>2026-04-29T13:27:37.002Z</time></trkpt><trkpt lat="44.66041642970824" lon="9.412721925038674"><ele>624.0</ele><time>2026-04-29T13:27:38.002Z</time></trkpt><trkpt lat="44.660344585635265" lon="9.412750160202224"><ele>624.0</ele><time>2026-04-29T13:27:39.002Z</time></trkpt><trkpt lat="44.660276520685926" lon="9.41276873687038"><ele>626.8333333333334</ele><time>2026-04-29T13:27:40.002Z</time></trkpt><trkpt lat="44.66022026315414" lon="9.412850437192692"><ele>629.6666666666666</ele><time>2026-04-29T13:27:41.002Z</time></trkpt><trkpt lat="44.66015388860036" lon="9.412956920566584"><ele>632.5</ele><time>2026-04-29T13:27:42.002Z</time></trkpt><trkpt lat="44.66011769488694" lon="9.413030016719892"><ele>635.3333333333333</ele><time>2026-04-29T13:27:43.002Z</time></trkpt><trkpt lat="44.66005519046122" lon="9.41307142054985"><ele>638.1666666666666</ele><time>2026-04-29T13:27:44.002Z</time></trkpt><trkpt lat="44.6599485863147" lon="9.413074514771743"><ele>641.0</ele><time>2026-04-29T13:27:46.002Z</time></trkpt><trkpt lat="44.65987635350732" lon="9.413026873320959"><ele>641.0</ele><time>2026-04-29T13:27:47.002Z</time></trkpt><trkpt lat="44.65982162531371" lon="9.412958658239969"><ele>641.0</ele><time>2026-04-29T13:27:48.002Z</time></trkpt><trkpt lat="44.65976266307771" lon="9.412805058902046"><ele>641.0</ele><time>2026-04-29T13:27:50.002Z</time></trkpt><trkpt lat="44.659720291697106" lon="9.412711155481238"><ele>641.0</ele><time>2026-04-29T13:27:51.002Z</time></trkpt><trkpt lat="44.65967769430565" lon="9.41260532058054"><ele>641.0</ele><time>2026-04-29T13:27:52.002Z</time></trkpt><trkpt lat="44.659641914369324" lon="9.412515582170801"><ele>641.0</ele><time>2026-04-29T13:27:53.001Z</time></trkpt><trkpt lat="44.659613667026235" lon="9.41243641196747"><ele>641.0</ele><time>2026-04-29T13:27:54.001Z</time></trkpt><trkpt lat="44.65957563338526" lon="9.412335497466321"><ele>641.0</ele><time>2026-04-29T13:27:55.001Z</time></trkpt><trkpt lat="44.65952943392422" lon="9.412233202719795"><ele>641.0</ele><time>2026-04-29T13:27:56.001Z</time></trkpt><trkpt lat="44.65947491549498" lon="9.412146168657031"><ele>641.0</ele><time>2026-04-29T13:27:57.001Z</time></trkpt><trkpt lat="44.65940613798209" lon="9.412069617033703"><ele>641.0</ele><time>2026-04-29T13:27:58.001Z</time></trkpt><trkpt lat="44.65932487012246" lon="9.411990264389734"><ele>641.0</ele><time>2026-04-29T13:27:59.001Z</time></trkpt><trkpt lat="44.659260536446304" lon="9.411911100626693"><ele>644.0</ele><time>2026-04-29T13:28:00.001Z</time></trkpt><trkpt lat="44.6592213872112" lon="9.411832104982645"><ele>647.0</ele><time>2026-04-29T13:28:01.001Z</time></trkpt><trkpt lat="44.659187628903524" lon="9.411745301301027"><ele>650.0</ele><time>2026-04-29T13:28:02.001Z</time></trkpt><trkpt lat="44.65917256251783" lon="9.411639307853013"><ele>653.0</ele><time>2026-04-29T13:28:03.001Z</time></trkpt><trkpt lat="44.65916017781024" lon="9.411516431701274"><ele>656.0</ele><time>2026-04-29T13:28:04.001Z</time></trkpt><trkpt lat="44.659156560319445" lon="9.41139585144882"><ele>659.0</ele><time>2026-04-29T13:28:05.001Z</time></trkpt><trkpt lat="44.65913711163379" lon="9.411280106356573"><ele>659.0</ele><time>2026-04-29T13:28:06.001Z</time></trkpt><trkpt lat="44.659078390225226" lon="9.411176939120919"><ele>659.0</ele><time>2026-04-29T13:28:07.001Z</time></trkpt><trkpt lat="44.65902724162698" lon="9.411052364713406"><ele>659.0</ele><time>2026-04-29T13:28:08.001Z</time></trkpt><trkpt lat="44.6590100960979" lon="9.410927695998382"><ele>659.0</ele><time>2026-04-29T13:28:09.001Z</time></trkpt><trkpt lat="44.658995268993266" lon="9.410801188279434"><ele>659.0</ele><time>2026-04-29T13:28:10.001Z</time></trkpt><trkpt lat="44.65893649486948" lon="9.410680837704339"><ele>659.0</ele><time>2026-04-29T13:28:12.001Z</time></trkpt><trkpt lat="44.658803756157496" lon="9.410658880599172"><ele>659.0</ele><time>2026-04-29T13:28:14.001Z</time></trkpt><trkpt lat="44.65872275009457" lon="9.410715371022635"><ele>659.0</ele><time>2026-04-29T13:28:15.001Z</time></trkpt><trkpt lat="44.65864870718809" lon="9.410808278948785"><ele>659.0</ele><time>2026-04-29T13:28:16.001Z</time></trkpt><trkpt lat="44.65858121551488" lon="9.410918376076552"><ele>659.0</ele><time>2026-04-29T13:28:17.001Z</time></trkpt><trkpt lat="44.65851996251801" lon="9.41104979908255"><ele>662.4000000000001</ele><time>2026-04-29T13:28:18.001Z</time></trkpt><trkpt lat="44.658482426675846" lon="9.411149277031118"><ele>665.8</ele><time>2026-04-29T13:28:19.001Z</time></trkpt><trkpt lat="44.65842055749123" lon="9.41124355674001"><ele>669.2</ele><time>2026-04-29T13:28:21.001Z</time></trkpt><trkpt lat="44.658291304770664" lon="9.411189827677932"><ele>672.5999999999999</ele><time>2026-04-29T13:28:23.001Z</time></trkpt><trkpt lat="44.6582035140322" lon="9.41112584850483"><ele>676.0</ele><time>2026-04-29T13:28:24.001Z</time></trkpt><trkpt lat="44.65810799895851" lon="9.411086009826299"><ele>676.0</ele><time>2026-04-29T13:28:25.001Z</time></trkpt><trkpt lat="44.65802724241939" lon="9.4110719058127"><ele>676.0</ele><time>2026-04-29T13:28:26.001Z</time></trkpt><trkpt lat="44.657910380298965" lon="9.411120168128921"><ele>676.0</ele><time>2026-04-29T13:28:28.001Z</time></trkpt><trkpt lat="44.657869313784104" lon="9.41120995435177"><ele>676.0</ele><time>2026-04-29T13:28:29.001Z</time></trkpt><trkpt lat="44.65785981272031" lon="9.411305527379028"><ele>676.0</ele><time>2026-04-29T13:28:30.001Z</time></trkpt><trkpt lat="44.65790832243958" lon="9.411412389308527"><ele>676.0</ele><time>2026-04-29T13:28:31.001Z</time></trkpt><trkpt lat="44.65793622992064" lon="9.41152280629571"><ele>679.4</ele><time>2026-04-29T13:28:32.001Z</time></trkpt><trkpt lat="44.658018449104844" lon="9.411620357378732"><ele>682.8</ele><time>2026-04-29T13:28:33.001Z</time></trkpt><trkpt lat="44.65809127660578" lon="9.411710083814528"><ele>686.1999999999999</ele><time>2026-04-29T13:28:34.001Z</time></trkpt><trkpt lat="44.658174906637065" lon="9.411826485819986"><ele>689.5999999999999</ele><time>2026-04-29T13:28:35.001Z</time></trkpt><trkpt lat="44.6582723158915" lon="9.41191909244711"><ele>693.0</ele><time>2026-04-29T13:28:36.001Z</time></trkpt><trkpt lat="44.65835091550789" lon="9.412038509828143"><ele>693.0</ele><time>2026-04-29T13:28:37.001Z</time></trkpt><trkpt lat="44.65843117137271" lon="9.412132206116967"><ele>693.0</ele><time>2026-04-29T13:28:38.001Z</time></trkpt><trkpt lat="44.6584896448406" lon="9.412233526195621"><ele>693.0</ele><time>2026-04-29T13:28:39.001Z</time></trkpt><trkpt lat="44.658548530567714" lon="9.412356545367967"><ele>693.0</ele><time>2026-04-29T13:28:40.001Z</time></trkpt><trkpt lat="44.658607567420205" lon="9.4125069951737"><ele>693.0</ele><time>2026-04-29T13:28:41.001Z</time></trkpt><trkpt lat="44.658656489663535" lon="9.41263504638209"><ele>694.0</ele><time>2026-04-29T13:28:42.001Z</time></trkpt><trkpt lat="44.65869562709955" lon="9.412732811129226"><ele>695.0</ele><time>2026-04-29T13:28:43.001Z</time></trkpt><trkpt lat="44.658728209252885" lon="9.412814701648902"><ele>696.0</ele><time>2026-04-29T13:28:44.001Z</time></trkpt><trkpt lat="44.65876550092941" lon="9.412900305389806"><ele>697.0</ele><time>2026-04-29T13:28:45.001Z</time></trkpt><trkpt lat="44.65879091087116" lon="9.413018383374379"><ele>698.0</ele><time>2026-04-29T13:28:46.001Z</time></trkpt><trkpt lat="44.65883978636994" lon="9.41313896962399"><ele>699.0</ele><time>2026-04-29T13:28:47.001Z</time></trkpt><trkpt lat="44.65887121512241" lon="9.413288257097506"><ele>699.0</ele><time>2026-04-29T13:28:48.001Z</time></trkpt><trkpt lat="44.65890174267339" lon="9.41344062216143"><ele>699.0</ele><time>2026-04-29T13:28:49.001Z</time></trkpt><trkpt lat="44.65893397894677" lon="9.413570138443712"><ele>699.0</ele><time>2026-04-29T13:28:50.001Z</time></trkpt><trkpt lat="44.65892059912724" lon="9.413693656523725"><ele>699.0</ele><time>2026-04-29T13:28:51.001Z</time></trkpt><trkpt lat="44.65892119008179" lon="9.413816495409504"><ele>699.0</ele><time>2026-04-29T13:28:52.001Z</time></trkpt><trkpt lat="44.65892164479356" lon="9.413953435305864"><ele>701.0</ele><time>2026-04-29T13:28:53.001Z</time></trkpt><trkpt lat="44.658930318705686" lon="9.414099270489382"><ele>703.0</ele><time>2026-04-29T13:28:54.001Z</time></trkpt><trkpt lat="44.658923676305804" lon="9.414268138274846"><ele>705.0</ele><time>2026-04-29T13:28:55.001Z</time></trkpt><trkpt lat="44.65894010303702" lon="9.414449250282214"><ele>707.0</ele><time>2026-04-29T13:28:56.001Z</time></trkpt><trkpt lat="44.65895883760537" lon="9.414614691031732"><ele>709.4000000000001</ele><time>2026-04-29T13:28:57.001Z</time></trkpt><trkpt lat="44.658975206603934" lon="9.414770077281485"><ele>711.8000000000001</ele><time>2026-04-29T13:28:58.001Z</time></trkpt><trkpt lat="44.65898430231259" lon="9.41492164085175"><ele>714.2</ele><time>2026-04-29T13:28:59.001Z</time></trkpt><trkpt lat="44.65898681477571" lon="9.415070271374972"><ele>716.6</ele><time>2026-04-29T13:29:00.001Z</time></trkpt><trkpt lat="44.658999609382256" lon="9.415206665747327"><ele>719.0</ele><time>2026-04-29T13:29:01.001Z</time></trkpt><trkpt lat="44.65899195816163" lon="9.415332137625423"><ele>719.0</ele><time>2026-04-29T13:29:02.001Z</time></trkpt><trkpt lat="44.658998820541214" lon="9.41545228500341"><ele>719.0</ele><time>2026-04-29T13:29:03.001Z</time></trkpt><trkpt lat="44.65900416364477" lon="9.415585929155316"><ele>719.0</ele><time>2026-04-29T13:29:04.001Z</time></trkpt><trkpt lat="44.659023790290014" lon="9.415726382544015"><ele>719.0</ele><time>2026-04-29T13:29:05.001Z</time></trkpt><trkpt lat="44.659035671622775" lon="9.415879933873116"><ele>719.0</ele><time>2026-04-29T13:29:06.001Z</time></trkpt><trkpt lat="44.65908774454324" lon="9.416027880624073"><ele>720.0</ele><time>2026-04-29T13:29:07.001Z</time></trkpt><trkpt lat="44.659138661250104" lon="9.416186593498823"><ele>721.0</ele><time>2026-04-29T13:29:08.001Z</time></trkpt><trkpt lat="44.65919067115104" lon="9.416328771511502"><ele>722.0</ele><time>2026-04-29T13:29:09.001Z</time></trkpt><trkpt lat="44.65923656371155" lon="9.416451381226725"><ele>723.0</ele><time>2026-04-29T13:29:10.001Z</time></trkpt><trkpt lat="44.65925764363009" lon="9.416570691693142"><ele>724.0</ele><time>2026-04-29T13:29:11.001Z</time></trkpt><trkpt lat="44.6592953323441" lon="9.416682868182251"><ele>726.4000000000001</ele><time>2026-04-29T13:29:12.001Z</time></trkpt><trkpt lat="44.659307045599625" lon="9.41680962686338"><ele>728.8</ele><time>2026-04-29T13:29:13.001Z</time></trkpt><trkpt lat="44.659302875132425" lon="9.416950380146664"><ele>731.2</ele><time>2026-04-29T13:29:14.001Z</time></trkpt><trkpt lat="44.65926469922762" lon="9.417095761705463"><ele>733.5999999999999</ele><time>2026-04-29T13:29:15.001Z</time></trkpt><trkpt lat="44.65926048805931" lon="9.417248189075083"><ele>736.0</ele><time>2026-04-29T13:29:16.001Z</time></trkpt><trkpt lat="44.65924764511581" lon="9.41737887984893"><ele>738.5999999999999</ele><time>2026-04-29T13:29:17.001Z</time></trkpt><trkpt lat="44.65924330245892" lon="9.417490664480908"><ele>741.2</ele><time>2026-04-29T13:29:18.001Z</time></trkpt><trkpt lat="44.659254730143466" lon="9.417598787031206"><ele>743.8</ele><time>2026-04-29T13:29:19.001Z</time></trkpt><trkpt lat="44.659289747272766" lon="9.417722057654993"><ele>746.4000000000001</ele><time>2026-04-29T13:29:20.001Z</time></trkpt><trkpt lat="44.65931377178862" lon="9.417871284298387"><ele>749.0</ele><time>2026-04-29T13:29:21.001Z</time></trkpt><trkpt lat="44.65935013261903" lon="9.417995549691248"><ele>751.2</ele><time>2026-04-29T13:29:22.001Z</time></trkpt><trkpt lat="44.659380391524145" lon="9.418100855506099"><ele>753.4000000000001</ele><time>2026-04-29T13:29:23.001Z</time></trkpt><trkpt lat="44.65939374910189" lon="9.418200801555384"><ele>755.6</ele><time>2026-04-29T13:29:24.001Z</time></trkpt><trkpt lat="44.65939574252118" lon="9.418355544973464"><ele>757.8</ele><time>2026-04-29T13:29:25.001Z</time></trkpt><trkpt lat="44.65940819283085" lon="9.41850489660501"><ele>760.0</ele><time>2026-04-29T13:29:26.001Z</time></trkpt><trkpt lat="44.659422182472476" lon="9.418656120374033"><ele>760.0</ele><time>2026-04-29T13:29:27.001Z</time></trkpt><trkpt lat="44.65943351591602" lon="9.418796330087899"><ele>760.0</ele><time>2026-04-29T13:29:28.001Z</time></trkpt><trkpt lat="44.65944021917928" lon="9.4189293612459"><ele>760.0</ele><time>2026-04-29T13:29:29.001Z</time></trkpt><trkpt lat="44.65943234815906" lon="9.419052296159535"><ele>760.0</ele><time>2026-04-29T13:29:30.001Z</time></trkpt><trkpt lat="44.65942902647287" lon="9.419173908521543"><ele>760.0</ele><time>2026-04-29T13:29:31.001Z</time></trkpt><trkpt lat="44.65945085102542" lon="9.419292498515981"><ele>760.2</ele><time>2026-04-29T13:29:32.001Z</time></trkpt><trkpt lat="44.659535137692" lon="9.419399277445292"><ele>760.4</ele><time>2026-04-29T13:29:33.001Z</time></trkpt><trkpt lat="44.659613181208826" lon="9.419500859092093"><ele>760.5999999999999</ele><time>2026-04-29T13:29:34.001Z</time></trkpt><trkpt lat="44.65969375657468" lon="9.419618201145804"><ele>760.8</ele><time>2026-04-29T13:29:35.001Z</time></trkpt><trkpt lat="44.659746009472464" lon="9.419702316893012"><ele>761.0</ele><time>2026-04-29T13:29:36.001Z</time></trkpt><trkpt lat="44.65980381929404" lon="9.419839806092304"><ele>761.4</ele><time>2026-04-29T13:29:38.001Z</time></trkpt><trkpt lat="44.65980585634969" lon="9.419961204950416"><ele>761.8</ele><time>2026-04-29T13:29:39.001Z</time></trkpt><trkpt lat="44.65982985765026" lon="9.420086800171983"><ele>762.1999999999999</ele><time>2026-04-29T13:29:40.001Z</time></trkpt><trkpt lat="44.65982064597533" lon="9.420222886577294"><ele>762.5999999999999</ele><time>2026-04-29T13:29:41.001Z</time></trkpt><trkpt lat="44.65980729654511" lon="9.420357065538601"><ele>763.0</ele><time>2026-04-29T13:29:42.001Z</time></trkpt><trkpt lat="44.65977543114212" lon="9.42049492401494"><ele>765.75</ele><time>2026-04-29T13:29:43.001Z</time></trkpt><trkpt lat="44.65973628863597" lon="9.420650247835006"><ele>768.5</ele><time>2026-04-29T13:29:44.001Z</time></trkpt><trkpt lat="44.659700835098036" lon="9.420817855748279"><ele>771.25</ele><time>2026-04-29T13:29:45.001Z</time></trkpt><trkpt lat="44.6596671358705" lon="9.420969094762858"><ele>774.0</ele><time>2026-04-29T13:29:46.001Z</time></trkpt><trkpt lat="44.659646502784625" lon="9.421105702273211"><ele>774.0</ele><time>2026-04-29T13:29:47.001Z</time></trkpt><trkpt lat="44.659645179302224" lon="9.421243290557523"><ele>774.0</ele><time>2026-04-29T13:29:48.001Z</time></trkpt><trkpt lat="44.6596654329054" lon="9.421378280500726"><ele>774.0</ele><time>2026-04-29T13:29:49.001Z</time></trkpt><trkpt lat="44.65969476700334" lon="9.421495100211347"><ele>774.0</ele><time>2026-04-29T13:29:50.001Z</time></trkpt><trkpt lat="44.659734259777565" lon="9.421628283160404"><ele>774.0</ele><time>2026-04-29T13:29:51.001Z</time></trkpt><trkpt lat="44.659783169563305" lon="9.421774925909064"><ele>775.6</ele><time>2026-04-29T13:29:52.001Z</time></trkpt><trkpt lat="44.65983191164919" lon="9.421906775204324"><ele>777.2</ele><time>2026-04-29T13:29:53.001Z</time></trkpt><trkpt lat="44.65988337867317" lon="9.422020436332152"><ele>778.8000000000001</ele><time>2026-04-29T13:29:54.001Z</time></trkpt><trkpt lat="44.65995299730607" lon="9.422129404502614"><ele>780.4000000000001</ele><time>2026-04-29T13:29:55.001Z</time></trkpt><trkpt lat="44.66002054744719" lon="9.42226460701449"><ele>782.0</ele><time>2026-04-29T13:29:56.001Z</time></trkpt><trkpt lat="44.66009627600886" lon="9.422395267732352"><ele>783.4000000000001</ele><time>2026-04-29T13:29:57.001Z</time></trkpt><trkpt lat="44.660178620423615" lon="9.422526851091549"><ele>784.8000000000001</ele><time>2026-04-29T13:29:58.001Z</time></trkpt><trkpt lat="44.660243537518596" lon="9.422662478697172"><ele>786.2</ele><time>2026-04-29T13:29:59.001Z</time></trkpt><trkpt lat="44.660314038990954" lon="9.422767134530469"><ele>787.6</ele><time>2026-04-29T13:30:00.001Z</time></trkpt><trkpt lat="44.66033612768974" lon="9.42287821189226"><ele>789.0</ele><time>2026-04-29T13:30:01.001Z</time></trkpt><trkpt lat="44.66034650197474" lon="9.422992805917593"><ele>786.2</ele><time>2026-04-29T13:30:02.001Z</time></trkpt><trkpt lat="44.660361248221754" lon="9.423123179990087"><ele>783.4000000000001</ele><time>2026-04-29T13:30:03.001Z</time></trkpt><trkpt lat="44.66038924703357" lon="9.423261656636734"><ele>780.6</ele><time>2026-04-29T13:30:04.001Z</time></trkpt><trkpt lat="44.66040304927411" lon="9.423409618891435"><ele>777.8</ele><time>2026-04-29T13:30:05.001Z</time></trkpt><trkpt lat="44.660375086297925" lon="9.423554712138177"><ele>775.0</ele><time>2026-04-29T13:30:06.001Z</time></trkpt><trkpt lat="44.66036698659367" lon="9.423717889043441"><ele>777.25</ele><time>2026-04-29T13:30:07.001Z</time></trkpt><trkpt lat="44.66035295577229" lon="9.423864997891963"><ele>779.5</ele><time>2026-04-29T13:30:08.001Z</time></trkpt><trkpt lat="44.66035157622161" lon="9.42402433856165"><ele>781.75</ele><time>2026-04-29T13:30:09.001Z</time></trkpt><trkpt lat="44.660349466615145" lon="9.424174813486314"><ele>784.0</ele><time>2026-04-29T13:30:10.001Z</time></trkpt><trkpt lat="44.660336867998275" lon="9.424350275927818"><ele>784.0</ele><time>2026-04-29T13:30:11.001Z</time></trkpt><trkpt lat="44.66034452260013" lon="9.424529478485407"><ele>784.0</ele><time>2026-04-29T13:30:12.001Z</time></trkpt><trkpt lat="44.66038716863979" lon="9.424719322145036"><ele>784.0</ele><time>2026-04-29T13:30:14.001Z</time></trkpt><trkpt lat="44.66041949648181" lon="9.424844155385822"><ele>784.0</ele><time>2026-04-29T13:30:15.001Z</time></trkpt><trkpt lat="44.66047245977627" lon="9.424967917474328"><ele>784.0</ele><time>2026-04-29T13:30:17.001Z</time></trkpt><trkpt lat="44.660566169044166" lon="9.42497098512392"><ele>784.0</ele><time>2026-04-29T13:30:19.001Z</time></trkpt><trkpt lat="44.6606609533009" lon="9.424894993806952"><ele>784.0</ele><time>2026-04-29T13:30:21.001Z</time></trkpt><trkpt lat="44.66070726073979" lon="9.424747843661418"><ele>784.0</ele><time>2026-04-29T13:30:23.001Z</time></trkpt><trkpt lat="44.660729932311" lon="9.4246371791433"><ele>784.0</ele><time>2026-04-29T13:30:24.001Z</time></trkpt><trkpt lat="44.66078977273823" lon="9.424556212638798"><ele>784.0</ele><time>2026-04-29T13:30:25.001Z</time></trkpt><trkpt lat="44.66088931684886" lon="9.424441595126023"><ele>784.0</ele><time>2026-04-29T13:30:27.001Z</time></trkpt><trkpt lat="44.66096248488477" lon="9.424472722284422"><ele>784.0</ele><time>2026-04-29T13:30:28.001Z</time></trkpt><trkpt lat="44.66104705243742" lon="9.4245063771182"><ele>784.0</ele><time>2026-04-29T13:30:29.001Z</time></trkpt><trkpt lat="44.661129684785834" lon="9.424564811286665"><ele>784.0</ele><time>2026-04-29T13:30:30.001Z</time></trkpt><trkpt lat="44.66120977440696" lon="9.424625851133952"><ele>785.4999999999999</ele><time>2026-04-29T13:30:31.001Z</time></trkpt><trkpt lat="44.66129270143441" lon="9.424695743528453"><ele>787.0</ele><time>2026-04-29T13:30:32.001Z</time></trkpt><trkpt lat="44.66136462679286" lon="9.424771003607006"><ele>788.5</ele><time>2026-04-29T13:30:33.001Z</time></trkpt><trkpt lat="44.66142000017535" lon="9.424853180379571"><ele>790.0</ele><time>2026-04-29T13:30:34.001Z</time></trkpt><trkpt lat="44.66146043116504" lon="9.424954210395535"><ele>791.4999999999999</ele><time>2026-04-29T13:30:35.001Z</time></trkpt><trkpt lat="44.66150722757385" lon="9.425035161788067"><ele>793.0</ele><time>2026-04-29T13:30:36.001Z</time></trkpt><trkpt lat="44.66157136290584" lon="9.425095413262444"><ele>793.0</ele><time>2026-04-29T13:30:37.001Z</time></trkpt><trkpt lat="44.66165894456368" lon="9.425099302427201"><ele>793.0</ele><time>2026-04-29T13:30:38.001Z</time></trkpt><trkpt lat="44.66174177649601" lon="9.425107103398995"><ele>793.0</ele><time>2026-04-29T13:30:39.001Z</time></trkpt><trkpt lat="44.661809030546806" lon="9.425113290790677"><ele>793.0</ele><time>2026-04-29T13:30:40.001Z</time></trkpt><trkpt lat="44.661917727878176" lon="9.425165288632497"><ele>793.0</ele><time>2026-04-29T13:30:42.001Z</time></trkpt><trkpt lat="44.66203488017548" lon="9.425174202995843"><ele>794.0</ele><time>2026-04-29T13:30:44.001Z</time></trkpt><trkpt lat="44.6621531028181" lon="9.425057415851565"><ele>795.0</ele><time>2026-04-29T13:30:46.001Z</time></trkpt><trkpt lat="44.66219780471211" lon="9.424928460256831"><ele>796.0</ele><time>2026-04-29T13:30:47.001Z</time></trkpt><trkpt lat="44.66224369837507" lon="9.424806212443782"><ele>797.0</ele><time>2026-04-29T13:30:48.001Z</time></trkpt><trkpt lat="44.66227774762944" lon="9.424704972367541"><ele>798.0</ele><time>2026-04-29T13:30:49.001Z</time></trkpt><trkpt lat="44.66231439939412" lon="9.424609026867664"><ele>798.0</ele><time>2026-04-29T13:30:50.001Z</time></trkpt><trkpt lat="44.66236746966429" lon="9.424502725883466"><ele>798.0</ele><time>2026-04-29T13:30:51.001Z</time></trkpt><trkpt lat="44.66242993044879" lon="9.42440218118295"><ele>798.0</ele><time>2026-04-29T13:30:52.001Z</time></trkpt><trkpt lat="44.66250745829974" lon="9.424315278576458"><ele>798.0</ele><time>2026-04-29T13:30:53.001Z</time></trkpt><trkpt lat="44.66260060659398" lon="9.424231953691795"><ele>798.0</ele><time>2026-04-29T13:30:54.001Z</time></trkpt><trkpt lat="44.662686707339994" lon="9.424155680956954"><ele>798.0</ele><time>2026-04-29T13:30:55.001Z</time></trkpt><trkpt lat="44.66275423561671" lon="9.424108220955858"><ele>798.0</ele><time>2026-04-29T13:30:56.001Z</time></trkpt><trkpt lat="44.662824710718574" lon="9.424070826149688"><ele>798.0</ele><time>2026-04-29T13:30:57.001Z</time></trkpt><trkpt lat="44.66289153059869" lon="9.42406088783545"><ele>798.0</ele><time>2026-04-29T13:30:58.001Z</time></trkpt><trkpt lat="44.66296779251568" lon="9.424063622216874"><ele>798.0</ele><time>2026-04-29T13:30:59.001Z</time></trkpt><trkpt lat="44.66306724981553" lon="9.42410846020875"><ele>798.0</ele><time>2026-04-29T13:31:00.001Z</time></trkpt><trkpt lat="44.663177858805845" lon="9.424147219446356"><ele>800.5</ele><time>2026-04-29T13:31:01.001Z</time></trkpt><trkpt lat="44.6633021957234" lon="9.424193009302925"><ele>803.0</ele><time>2026-04-29T13:31:02.001Z</time></trkpt><trkpt lat="44.66342899505761" lon="9.424243843326316"><ele>805.5</ele><time>2026-04-29T13:31:03.001Z</time></trkpt><trkpt lat="44.66355348417929" lon="9.424296523035794"><ele>808.0</ele><time>2026-04-29T13:31:04.001Z</time></trkpt><trkpt lat="44.66367710748369" lon="9.42434201109698"><ele>809.5</ele><time>2026-04-29T13:31:05.001Z</time></trkpt><trkpt lat="44.66381603627593" lon="9.42439321931781"><ele>811.0</ele><time>2026-04-29T13:31:06.001Z</time></trkpt><trkpt lat="44.66396577424065" lon="9.42444982379441"><ele>812.5</ele><time>2026-04-29T13:31:07.001Z</time></trkpt><trkpt lat="44.66409825916066" lon="9.424505757044647"><ele>814.0</ele><time>2026-04-29T13:31:08.001Z</time></trkpt><trkpt lat="44.664211243606886" lon="9.424525142374918"><ele>813.9999999999999</ele><time>2026-04-29T13:31:09.001Z</time></trkpt><trkpt lat="44.664304765904355" lon="9.424562786555969"><ele>814.0</ele><time>2026-04-29T13:31:10.001Z</time></trkpt><trkpt lat="44.66438025801913" lon="9.42457878783906"><ele>814.0</ele><time>2026-04-29T13:31:11.001Z</time></trkpt><trkpt lat="44.664453487909675" lon="9.42457521834028"><ele>814.0</ele><time>2026-04-29T13:31:12.001Z</time></trkpt><trkpt lat="44.66454108540945" lon="9.424566588040323"><ele>813.9999999999999</ele><time>2026-04-29T13:31:13.001Z</time></trkpt><trkpt lat="44.66461851768031" lon="9.424458330033127"><ele>814.0</ele><time>2026-04-29T13:31:14.001Z</time></trkpt><trkpt lat="44.66468648980392" lon="9.424366876616249"><ele>817.0</ele><time>2026-04-29T13:31:15.001Z</time></trkpt><trkpt lat="44.66475555313585" lon="9.424309360000638"><ele>820.0</ele><time>2026-04-29T13:31:16.001Z</time></trkpt><trkpt lat="44.664832369765136" lon="9.42427462656161"><ele>823.0</ele><time>2026-04-29T13:31:17.001Z</time></trkpt><trkpt lat="44.66493870837912" lon="9.424243681196277"><ele>826.0</ele><time>2026-04-29T13:31:18.001Z</time></trkpt><trkpt lat="44.66506832613517" lon="9.424227364518405"><ele>829.0</ele><time>2026-04-29T13:31:19.001Z</time></trkpt><trkpt lat="44.66520386074007" lon="9.42420227971984"><ele>832.0</ele><time>2026-04-29T13:31:20.001Z</time></trkpt><trkpt lat="44.665318328755426" lon="9.424205852707553"><ele>835.0</ele><time>2026-04-29T13:31:21.001Z</time></trkpt><trkpt lat="44.66541498165552" lon="9.42420979502348"><ele>838.0</ele><time>2026-04-29T13:31:22.001Z</time></trkpt><trkpt lat="44.66550717485784" lon="9.424188790293975"><ele>841.0</ele><time>2026-04-29T13:31:23.001Z</time></trkpt><trkpt lat="44.665610483866004" lon="9.424142027716377"><ele>844.0</ele><time>2026-04-29T13:31:24.001Z</time></trkpt><trkpt lat="44.66570512704321" lon="9.42400038663852"><ele>844.0</ele><time>2026-04-29T13:31:25.001Z</time></trkpt><trkpt lat="44.665805516239445" lon="9.423852576809955"><ele>844.0</ele><time>2026-04-29T13:31:26.001Z</time></trkpt><trkpt lat="44.66591398585926" lon="9.423733103865938"><ele>844.0</ele><time>2026-04-29T13:31:27.001Z</time></trkpt><trkpt lat="44.66601939179877" lon="9.423595346087001"><ele>844.0</ele><time>2026-04-29T13:31:28.001Z</time></trkpt><trkpt lat="44.666112192069164" lon="9.423486690633531"><ele>844.8000000000001</ele><time>2026-04-29T13:31:29.001Z</time></trkpt><trkpt lat="44.66619442333966" lon="9.423412377906143"><ele>845.6</ele><time>2026-04-29T13:31:30.001Z</time></trkpt><trkpt lat="44.66627634321452" lon="9.423369210892712"><ele>846.4</ele><time>2026-04-29T13:31:31.001Z</time></trkpt><trkpt lat="44.66637917333592" lon="9.42332195180536"><ele>847.2</ele><time>2026-04-29T13:31:32.001Z</time></trkpt><trkpt lat="44.666487865416585" lon="9.423258587465384"><ele>848.0</ele><time>2026-04-29T13:31:33.001Z</time></trkpt><trkpt lat="44.666597486972165" lon="9.423222072760636"><ele>848.0</ele><time>2026-04-29T13:31:34.001Z</time></trkpt><trkpt lat="44.666706240247514" lon="9.4231645658985"><ele>848.0</ele><time>2026-04-29T13:31:35.001Z</time></trkpt><trkpt lat="44.666803297292354" lon="9.423113822547325"><ele>848.0</ele><time>2026-04-29T13:31:36.001Z</time></trkpt><trkpt lat="44.66689468753828" lon="9.42308075720178"><ele>848.0</ele><time>2026-04-29T13:31:37.001Z</time></trkpt><trkpt lat="44.66695638971526" lon="9.423063045349576"><ele>848.0</ele><time>2026-04-29T13:31:38.001Z</time></trkpt><trkpt lat="44.667077691311825" lon="9.423086090747265"><ele>848.8</ele><time>2026-04-29T13:31:40.001Z</time></trkpt><trkpt lat="44.66713805524259" lon="9.4231441835805"><ele>849.5999999999999</ele><time>2026-04-29T13:31:41.001Z</time></trkpt><trkpt lat="44.667189446554794" lon="9.423248624575686"><ele>850.4000000000001</ele><time>2026-04-29T13:31:42.001Z</time></trkpt><trkpt lat="44.66726998319025" lon="9.423334997905945"><ele>851.2</ele><time>2026-04-29T13:31:43.001Z</time></trkpt><trkpt lat="44.66734633251762" lon="9.4234280351584"><ele>852.0</ele><time>2026-04-29T13:31:44.001Z</time></trkpt><trkpt lat="44.66741987214693" lon="9.42349746479093"><ele>852.0</ele><time>2026-04-29T13:31:45.001Z</time></trkpt><trkpt lat="44.66750453221816" lon="9.423542564264256"><ele>852.0</ele><time>2026-04-29T13:31:46.001Z</time></trkpt><trkpt lat="44.667605406037126" lon="9.423547420916307"><ele>852.0</ele><time>2026-04-29T13:31:47.001Z</time></trkpt><trkpt lat="44.667715400591916" lon="9.423525953217448"><ele>852.0</ele><time>2026-04-29T13:31:48.001Z</time></trkpt><trkpt lat="44.66782662760669" lon="9.423512610255056"><ele>852.0</ele><time>2026-04-29T13:31:49.001Z</time></trkpt><trkpt lat="44.66788971962074" lon="9.423540633577868"><ele>853.8</ele><time>2026-04-29T13:31:50.001Z</time></trkpt><trkpt lat="44.66798128393808" lon="9.423658208630721"><ele>855.6</ele><time>2026-04-29T13:31:52.001Z</time></trkpt><trkpt lat="44.668036585744524" lon="9.42376679330721"><ele>857.3999999999999</ele><time>2026-04-29T13:31:53.001Z</time></trkpt><trkpt lat="44.668101557321584" lon="9.42388593795826"><ele>859.1999999999999</ele><time>2026-04-29T13:31:54.001Z</time></trkpt><trkpt lat="44.66817964117023" lon="9.423999808670107"><ele>861.0</ele><time>2026-04-29T13:31:55.001Z</time></trkpt><trkpt lat="44.66825620512964" lon="9.4241081247124"><ele>862.8</ele><time>2026-04-29T13:31:56.001Z</time></trkpt><trkpt lat="44.66834093599114" lon="9.424201976258361"><ele>864.5999999999999</ele><time>2026-04-29T13:31:57.001Z</time></trkpt><trkpt lat="44.66838687870579" lon="9.424328266620869"><ele>866.4</ele><time>2026-04-29T13:31:58.001Z</time></trkpt><trkpt lat="44.66844569106015" lon="9.424447424582675"><ele>868.2</ele><time>2026-04-29T13:31:59.001Z</time></trkpt><trkpt lat="44.668498597558084" lon="9.424552600105526"><ele>870.0</ele><time>2026-04-29T13:32:00.001Z</time></trkpt><trkpt lat="44.66855219988443" lon="9.424628037768532"><ele>870.5</ele><time>2026-04-29T13:32:01.001Z</time></trkpt><trkpt lat="44.66858317906884" lon="9.424726105739227"><ele>871.0</ele><time>2026-04-29T13:32:02.001Z</time></trkpt><trkpt lat="44.668645456587285" lon="9.424763329632043"><ele>871.5</ele><time>2026-04-29T13:32:03.001Z</time></trkpt><trkpt lat="44.668703179389304" lon="9.42480554927892"><ele>872.0</ele><time>2026-04-29T13:32:04.001Z</time></trkpt><trkpt lat="44.668773985893765" lon="9.424742092749643"><ele>872.5</ele><time>2026-04-29T13:32:05.001Z</time></trkpt><trkpt lat="44.66883602696619" lon="9.424681119677887"><ele>873.0</ele><time>2026-04-29T13:32:06.001Z</time></trkpt><trkpt lat="44.66885723457158" lon="9.424533786094544"><ele>873.0</ele><time>2026-04-29T13:32:07.001Z</time></trkpt><trkpt lat="44.66889414435479" lon="9.424358437584763"><ele>873.0</ele><time>2026-04-29T13:32:08.001Z</time></trkpt><trkpt lat="44.66892515633922" lon="9.424186554471486"><ele>873.0</ele><time>2026-04-29T13:32:09.001Z</time></trkpt><trkpt lat="44.66898105227606" lon="9.423993901014871"><ele>873.0</ele><time>2026-04-29T13:32:10.001Z</time></trkpt><trkpt lat="44.669021227481274" lon="9.423823485088112"><ele>872.5999999999999</ele><time>2026-04-29T13:32:11.001Z</time></trkpt><trkpt lat="44.66905179901428" lon="9.42370660763405"><ele>872.1999999999999</ele><time>2026-04-29T13:32:12.001Z</time></trkpt><trkpt lat="44.66913531976658" lon="9.423597188009035"><ele>871.8</ele><time>2026-04-29T13:32:14.001Z</time></trkpt><trkpt lat="44.66921443757265" lon="9.423607712735475"><ele>871.4</ele><time>2026-04-29T13:32:15.001Z</time></trkpt><trkpt lat="44.66931626070008" lon="9.42361276177661"><ele>871.0</ele><time>2026-04-29T13:32:16.001Z</time></trkpt><trkpt lat="44.669444460033375" lon="9.4235915641153"><ele>874.4</ele><time>2026-04-29T13:32:17.001Z</time></trkpt><trkpt lat="44.669568820664864" lon="9.423588484613607"><ele>877.8</ele><time>2026-04-29T13:32:18.001Z</time></trkpt><trkpt lat="44.669674353382575" lon="9.423615692322954"><ele>881.1999999999999</ele><time>2026-04-29T13:32:19.001Z</time></trkpt><trkpt lat="44.669751926957126" lon="9.423623345426403"><ele>884.5999999999999</ele><time>2026-04-29T13:32:20.001Z</time></trkpt><trkpt lat="44.669847923524536" lon="9.423652198377932"><ele>888.0</ele><time>2026-04-29T13:32:22.001Z</time></trkpt><trkpt lat="44.669884687449624" lon="9.423729383698284"><ele>888.8</ele><time>2026-04-29T13:32:23.001Z</time></trkpt><trkpt lat="44.66987811675915" lon="9.423838187057932"><ele>889.5999999999999</ele><time>2026-04-29T13:32:24.001Z</time></trkpt><trkpt lat="44.66990291357572" lon="9.423953513271996"><ele>890.4000000000001</ele><time>2026-04-29T13:32:25.001Z</time></trkpt><trkpt lat="44.66991142615024" lon="9.424114765176157"><ele>891.2</ele><time>2026-04-29T13:32:26.001Z</time></trkpt><trkpt lat="44.66992002013872" lon="9.42428953049252"><ele>892.0</ele><time>2026-04-29T13:32:27.001Z</time></trkpt><trkpt lat="44.66993079617969" lon="9.424418841868707"><ele>891.9999999999999</ele><time>2026-04-29T13:32:28.001Z</time></trkpt><trkpt lat="44.66993346504876" lon="9.424510424316729"><ele>892.0</ele><time>2026-04-29T13:32:29.001Z</time></trkpt><trkpt lat="44.66995176813171" lon="9.424621436085673"><ele>892.0</ele><time>2026-04-29T13:32:31.001Z</time></trkpt><trkpt lat="44.669959272620034" lon="9.424721841423672"><ele>892.0</ele><time>2026-04-29T13:32:34.001Z</time></trkpt><trkpt lat="44.66993081632836" lon="9.424880727910882"><ele>891.9999999999999</ele><time>2026-04-29T13:32:36.001Z</time></trkpt><trkpt lat="44.66990242720217" lon="9.424983235604524"><ele>892.0</ele><time>2026-04-29T13:32:37.001Z</time></trkpt><trkpt lat="44.66987704575637" lon="9.425111433316097"><ele>892.8333333333333</ele><time>2026-04-29T13:32:38.001Z</time></trkpt><trkpt lat="44.6698709459315" lon="9.425231707097216"><ele>893.6666666666666</ele><time>2026-04-29T13:32:39.001Z</time></trkpt><trkpt lat="44.66986288367828" lon="9.425340541289971"><ele>894.5</ele><time>2026-04-29T13:32:40.001Z</time></trkpt><trkpt lat="44.669841652417276" lon="9.425442161692887"><ele>895.3333333333333</ele><time>2026-04-29T13:32:41.001Z</time></trkpt><trkpt lat="44.669835221689794" lon="9.425547739691313"><ele>896.1666666666666</ele><time>2026-04-29T13:32:42.001Z</time></trkpt><trkpt lat="44.66982344483314" lon="9.425653515459476"><ele>897.0</ele><time>2026-04-29T13:32:43.001Z</time></trkpt><trkpt lat="44.66980696842943" lon="9.42576280976903"><ele>899.2</ele><time>2026-04-29T13:32:44.001Z</time></trkpt><trkpt lat="44.669791831661485" lon="9.425871029244542"><ele>901.4000000000001</ele><time>2026-04-29T13:32:45.001Z</time></trkpt><trkpt lat="44.66977352810044" lon="9.425991538677339"><ele>903.5999999999999</ele><time>2026-04-29T13:32:46.001Z</time></trkpt><trkpt lat="44.669729618788786" lon="9.426138206848451"><ele>905.8</ele><time>2026-04-29T13:32:47.001Z</time></trkpt><trkpt lat="44.66968717387019" lon="9.426280061314772"><ele>908.0</ele><time>2026-04-29T13:32:48.001Z</time></trkpt><trkpt lat="44.669638465752556" lon="9.426469489023235"><ele>909.75</ele><time>2026-04-29T13:32:49.001Z</time></trkpt><trkpt lat="44.66959554980827" lon="9.426672306598254"><ele>911.5</ele><time>2026-04-29T13:32:50.001Z</time></trkpt><trkpt lat="44.66955037259699" lon="9.426862272878541"><ele>913.25</ele><time>2026-04-29T13:32:51.001Z</time></trkpt><trkpt lat="44.669504960357656" lon="9.427036396227884"><ele>915.0</ele><time>2026-04-29T13:32:52.001Z</time></trkpt><trkpt lat="44.6694636944186" lon="9.427199788904199"><ele>912.8</ele><time>2026-04-29T13:32:53.001Z</time></trkpt><trkpt lat="44.66942182760978" lon="9.427342256008876"><ele>910.6</ele><time>2026-04-29T13:32:54.001Z</time></trkpt><trkpt lat="44.66936999320711" lon="9.427459185441991"><ele>908.4000000000001</ele><time>2026-04-29T13:32:55.001Z</time></trkpt><trkpt lat="44.66931415466165" lon="9.427556450944486"><ele>906.2</ele><time>2026-04-29T13:32:56.001Z</time></trkpt><trkpt lat="44.66923729400495" lon="9.427631396837452"><ele>904.0</ele><time>2026-04-29T13:32:57.001Z</time></trkpt><trkpt lat="44.66915249929065" lon="9.427671977647464"><ele>904.0</ele><time>2026-04-29T13:32:58.001Z</time></trkpt><trkpt lat="44.66906041567974" lon="9.427677829949772"><ele>904.0000000000001</ele><time>2026-04-29T13:32:59.001Z</time></trkpt><trkpt lat="44.66895626045689" lon="9.42765353009083"><ele>904.0000000000001</ele><time>2026-04-29T13:33:00.001Z</time></trkpt><trkpt lat="44.66885615641153" lon="9.42757047425771"><ele>904.0</ele><time>2026-04-29T13:33:01.001Z</time></trkpt><trkpt lat="44.66876361504142" lon="9.427447640165026"><ele>904.0</ele><time>2026-04-29T13:33:02.001Z</time></trkpt><trkpt lat="44.66867183257399" lon="9.427290955624903"><ele>902.5</ele><time>2026-04-29T13:33:03.001Z</time></trkpt><trkpt lat="44.66858587254007" lon="9.427113823580365"><ele>901.0</ele><time>2026-04-29T13:33:04.001Z</time></trkpt><trkpt lat="44.668511994853255" lon="9.426973155837517"><ele>899.5</ele><time>2026-04-29T13:33:05.001Z</time></trkpt><trkpt lat="44.66844421899134" lon="9.426857607868328"><ele>898.0</ele><time>2026-04-29T13:33:06.001Z</time></trkpt><trkpt lat="44.6683837128894" lon="9.426770526177568"><ele>898.0</ele><time>2026-04-29T13:33:07.001Z</time></trkpt><trkpt lat="44.66829768893504" lon="9.426688402634754"><ele>898.0</ele><time>2026-04-29T13:33:08.001Z</time></trkpt><trkpt lat="44.66819544697496" lon="9.426636137890606"><ele>898.0</ele><time>2026-04-29T13:33:09.001Z</time></trkpt><trkpt lat="44.668078665156195" lon="9.42660143450809"><ele>898.0</ele><time>2026-04-29T13:33:10.001Z</time></trkpt><trkpt lat="44.66796104635889" lon="9.426581649140848"><ele>898.0</ele><time>2026-04-29T13:33:11.001Z</time></trkpt><trkpt lat="44.667839788124375" lon="9.426590832035458"><ele>898.0</ele><time>2026-04-29T13:33:12.001Z</time></trkpt><trkpt lat="44.6677263130365" lon="9.426631949495897"><ele>898.0</ele><time>2026-04-29T13:33:13.001Z</time></trkpt><trkpt lat="44.66761557146807" lon="9.426707101723226"><ele>898.0</ele><time>2026-04-29T13:33:14.001Z</time></trkpt><trkpt lat="44.66749081736444" lon="9.426800313170142"><ele>899.2</ele><time>2026-04-29T13:33:15.001Z</time></trkpt><trkpt lat="44.66738957121997" lon="9.426885556658775"><ele>900.4</ele><time>2026-04-29T13:33:16.001Z</time></trkpt><trkpt lat="44.667322288685426" lon="9.426968793592799"><ele>901.6000000000001</ele><time>2026-04-29T13:33:17.001Z</time></trkpt><trkpt lat="44.66728529115821" lon="9.42706582967645"><ele>902.8000000000001</ele><time>2026-04-29T13:33:18.001Z</time></trkpt><trkpt lat="44.66726890315902" lon="9.427185084584286"><ele>904.0</ele><time>2026-04-29T13:33:19.001Z</time></trkpt><trkpt lat="44.667284768349624" lon="9.42734456103354"><ele>904.75</ele><time>2026-04-29T13:33:20.001Z</time></trkpt><trkpt lat="44.66734531807875" lon="9.427529314529826"><ele>905.5</ele><time>2026-04-29T13:33:21.001Z</time></trkpt><trkpt lat="44.667376142171086" lon="9.427726991906116"><ele>906.25</ele><time>2026-04-29T13:33:22.001Z</time></trkpt><trkpt lat="44.66737808199264" lon="9.427936139391935"><ele>907.0</ele><time>2026-04-29T13:33:23.001Z</time></trkpt><trkpt lat="44.66739428790452" lon="9.428103046836384"><ele>908.0</ele><time>2026-04-29T13:33:24.001Z</time></trkpt><trkpt lat="44.667412418804965" lon="9.428255897957952"><ele>909.0</ele><time>2026-04-29T13:33:25.001Z</time></trkpt><trkpt lat="44.66743382752557" lon="9.428402415085152"><ele>910.0</ele><time>2026-04-29T13:33:26.001Z</time></trkpt><trkpt lat="44.6674409820179" lon="9.428551714957877"><ele>911.0</ele><time>2026-04-29T13:33:27.001Z</time></trkpt><trkpt lat="44.66746135857974" lon="9.428708643995286"><ele>912.0</ele><time>2026-04-29T13:33:28.001Z</time></trkpt><trkpt lat="44.667471298214146" lon="9.428848324631163"><ele>913.8</ele><time>2026-04-29T13:33:29.001Z</time></trkpt><trkpt lat="44.66746939950918" lon="9.428971117310974"><ele>915.6</ele><time>2026-04-29T13:33:30.001Z</time></trkpt><trkpt lat="44.667436813862395" lon="9.429087188292035"><ele>917.3999999999999</ele><time>2026-04-29T13:33:31.001Z</time></trkpt><trkpt lat="44.66737232176384" lon="9.429188364184736"><ele>919.1999999999999</ele><time>2026-04-29T13:33:32.001Z</time></trkpt><trkpt lat="44.66729379871824" lon="9.429284306551999"><ele>921.0</ele><time>2026-04-29T13:33:33.001Z</time></trkpt><trkpt lat="44.66718584710385" lon="9.42936298197312"><ele>921.0</ele><time>2026-04-29T13:33:34.001Z</time></trkpt><trkpt lat="44.66706570994963" lon="9.429470690772193"><ele>921.0</ele><time>2026-04-29T13:33:35.001Z</time></trkpt><trkpt lat="44.66696044578869" lon="9.429585283501124"><ele>921.0</ele><time>2026-04-29T13:33:36.001Z</time></trkpt><trkpt lat="44.66685062979583" lon="9.429701676724232"><ele>921.0</ele><time>2026-04-29T13:33:37.001Z</time></trkpt><trkpt lat="44.6667702940414" lon="9.42986688870893"><ele>920.5</ele><time>2026-04-29T13:33:38.001Z</time></trkpt><trkpt lat="44.66668739624609" lon="9.430048919317299"><ele>920.0</ele><time>2026-04-29T13:33:39.001Z</time></trkpt><trkpt lat="44.66660803721876" lon="9.430231666018264"><ele>919.5</ele><time>2026-04-29T13:33:40.001Z</time></trkpt><trkpt lat="44.66654370068682" lon="9.430382347953657"><ele>919.0</ele><time>2026-04-29T13:33:41.001Z</time></trkpt><trkpt lat="44.6664858940882" lon="9.43050297112381"><ele>920.2</ele><time>2026-04-29T13:33:42.001Z</time></trkpt><trkpt lat="44.666422292749004" lon="9.430597270349192"><ele>921.4000000000001</ele><time>2026-04-29T13:33:43.001Z</time></trkpt><trkpt lat="44.66634973286158" lon="9.430652679882197"><ele>922.6</ele><time>2026-04-29T13:33:44.001Z</time></trkpt><trkpt lat="44.66626925202628" lon="9.430691146989744"><ele>923.8</ele><time>2026-04-29T13:33:45.001Z</time></trkpt><trkpt lat="44.666170160428464" lon="9.430735229933251"><ele>925.0</ele><time>2026-04-29T13:33:46.001Z</time></trkpt><trkpt lat="44.666057502597766" lon="9.430779887846306"><ele>924.9999999999999</ele><time>2026-04-29T13:33:47.001Z</time></trkpt><trkpt lat="44.665974119777836" lon="9.430818483499868"><ele>925.0</ele><time>2026-04-29T13:33:48.001Z</time></trkpt><trkpt lat="44.66591787482644" lon="9.4308750255265"><ele>925.0</ele><time>2026-04-29T13:33:49.001Z</time></trkpt><trkpt lat="44.665865731776066" lon="9.430947714393012"><ele>925.0</ele><time>2026-04-29T13:33:50.001Z</time></trkpt><trkpt lat="44.665863254552825" lon="9.431069097191218"><ele>924.9999999999999</ele><time>2026-04-29T13:33:51.001Z</time></trkpt><trkpt lat="44.66591444703695" lon="9.431174429826536"><ele>925.0</ele><time>2026-04-29T13:33:52.001Z</time></trkpt><trkpt lat="44.66600949569555" lon="9.431225213011848"><ele>927.25</ele><time>2026-04-29T13:33:53.001Z</time></trkpt><trkpt lat="44.66611762853117" lon="9.431164731773235"><ele>929.5</ele><time>2026-04-29T13:33:54.001Z</time></trkpt><trkpt lat="44.66622322411857" lon="9.431112001916377"><ele>931.75</ele><time>2026-04-29T13:33:55.001Z</time></trkpt><trkpt lat="44.66634201311273" lon="9.431068476845137"><ele>934.0</ele><time>2026-04-29T13:33:56.001Z</time></trkpt><trkpt lat="44.66643781180097" lon="9.43102965101304"><ele>934.0</ele><time>2026-04-29T13:33:57.001Z</time></trkpt><trkpt lat="44.66651142490116" lon="9.431013150156293"><ele>934.0000000000001</ele><time>2026-04-29T13:33:58.001Z</time></trkpt><trkpt lat="44.66660576395514" lon="9.43105842741114"><ele>934.0000000000001</ele><time>2026-04-29T13:34:00.001Z</time></trkpt><trkpt lat="44.666596094767186" lon="9.431252128267454"><ele>934.0</ele><time>2026-04-29T13:34:02.001Z</time></trkpt><trkpt lat="44.666545333946104" lon="9.43131662649289"><ele>934.0</ele><time>2026-04-29T13:34:03.001Z</time></trkpt><trkpt lat="44.66647740451551" lon="9.431355645812593"><ele>937.25</ele><time>2026-04-29T13:34:04.001Z</time></trkpt><trkpt lat="44.66638312680843" lon="9.431391056240214"><ele>940.5</ele><time>2026-04-29T13:34:05.001Z</time></trkpt><trkpt lat="44.666274086100906" lon="9.431444011736994"><ele>943.75</ele><time>2026-04-29T13:34:06.001Z</time></trkpt><trkpt lat="44.666169903742805" lon="9.431501454629016"><ele>947.0</ele><time>2026-04-29T13:34:07.001Z</time></trkpt><trkpt lat="44.66605810003275" lon="9.431590965589793"><ele>947.0</ele><time>2026-04-29T13:34:08.001Z</time></trkpt><trkpt lat="44.66595854114226" lon="9.431679285844796"><ele>947.0</ele><time>2026-04-29T13:34:09.001Z</time></trkpt><trkpt lat="44.66586720701811" lon="9.431723853572933"><ele>947.0</ele><time>2026-04-29T13:34:10.001Z</time></trkpt><trkpt lat="44.665753874785125" lon="9.431767219167316"><ele>947.0</ele><time>2026-04-29T13:34:11.001Z</time></trkpt><trkpt lat="44.66563564911417" lon="9.43180490814349"><ele>947.0</ele><time>2026-04-29T13:34:12.001Z</time></trkpt><trkpt lat="44.6655105670347" lon="9.431801269950427"><ele>947.0</ele><time>2026-04-29T13:34:13.001Z</time></trkpt><trkpt lat="44.66540611874999" lon="9.431790709142717"><ele>947.0</ele><time>2026-04-29T13:34:14.001Z</time></trkpt><trkpt lat="44.665312818753286" lon="9.431826024627545"><ele>947.0</ele><time>2026-04-29T13:34:15.001Z</time></trkpt><trkpt lat="44.6651923810664" lon="9.431901280892513"><ele>946.0</ele><time>2026-04-29T13:34:16.001Z</time></trkpt><trkpt lat="44.665092470188796" lon="9.432001536555482"><ele>945.0</ele><time>2026-04-29T13:34:17.001Z</time></trkpt><trkpt lat="44.664973930688035" lon="9.432092650392912"><ele>944.0</ele><time>2026-04-29T13:34:18.001Z</time></trkpt><trkpt lat="44.66485331668526" lon="9.43215160812257"><ele>943.0</ele><time>2026-04-29T13:34:19.001Z</time></trkpt><trkpt lat="44.664741416564695" lon="9.432190475357274"><ele>945.0</ele><time>2026-04-29T13:34:20.001Z</time></trkpt><trkpt lat="44.66464814807271" lon="9.432254437173007"><ele>947.0</ele><time>2026-04-29T13:34:21.001Z</time></trkpt><trkpt lat="44.66457008408412" lon="9.432337112705056"><ele>949.0</ele><time>2026-04-29T13:34:22.001Z</time></trkpt><trkpt lat="44.664513583918435" lon="9.432438781102565"><ele>951.0</ele><time>2026-04-29T13:34:23.001Z</time></trkpt><trkpt lat="44.664453613485" lon="9.432550207919"><ele>953.0</ele><time>2026-04-29T13:34:24.001Z</time></trkpt><trkpt lat="44.66442293503251" lon="9.432730200253726"><ele>953.0</ele><time>2026-04-29T13:34:25.001Z</time></trkpt><trkpt lat="44.66440278286009" lon="9.432909362717872"><ele>953.0</ele><time>2026-04-29T13:34:26.001Z</time></trkpt><trkpt lat="44.6643845908647" lon="9.433049365708989"><ele>953.0</ele><time>2026-04-29T13:34:27.001Z</time></trkpt><trkpt lat="44.6643566202038" lon="9.43316667773226"><ele>953.0</ele><time>2026-04-29T13:34:28Z</time></trkpt><trkpt lat="44.66432171922821" lon="9.433303771194828"><ele>953.0</ele><time>2026-04-29T13:34:29Z</time></trkpt><trkpt lat="44.664215527413795" lon="9.433385358011721"><ele>954.75</ele><time>2026-04-29T13:34:30Z</time></trkpt><trkpt lat="44.664120242090334" lon="9.43346978744233"><ele>956.5</ele><time>2026-04-29T13:34:31Z</time></trkpt><trkpt lat="44.66403562472858" lon="9.43356547140535"><ele>958.25</ele><time>2026-04-29T13:34:32Z</time></trkpt><trkpt lat="44.66397666269729" lon="9.433689779366382"><ele>960.0</ele><time>2026-04-29T13:34:33Z</time></trkpt><trkpt lat="44.66394073412605" lon="9.43385478302234"><ele>962.5</ele><time>2026-04-29T13:34:34Z</time></trkpt><trkpt lat="44.663915721815115" lon="9.434051419518644"><ele>965.0</ele><time>2026-04-29T13:34:35Z</time></trkpt><trkpt lat="44.66389044351122" lon="9.434257728086186"><ele>967.5</ele><time>2026-04-29T13:34:36Z</time></trkpt><trkpt lat="44.66386171866707" lon="9.434461616105382"><ele>970.0</ele><time>2026-04-29T13:34:37Z</time></trkpt><trkpt lat="44.663827721954824" lon="9.434653874405296"><ele>967.75</ele><time>2026-04-29T13:34:38Z</time></trkpt><trkpt lat="44.66378324623596" lon="9.434818441838857"><ele>965.5</ele><time>2026-04-29T13:34:39Z</time></trkpt><trkpt lat="44.66373095937212" lon="9.434993605186039"><ele>963.25</ele><time>2026-04-29T13:34:40Z</time></trkpt><trkpt lat="44.66367532111594" lon="9.435178598880755"><ele>961.0</ele><time>2026-04-29T13:34:41Z</time></trkpt><trkpt lat="44.66361012001992" lon="9.43537890531976"><ele>965.0</ele><time>2026-04-29T13:34:42Z</time></trkpt><trkpt lat="44.66354338907118" lon="9.435572795371279"><ele>969.0</ele><time>2026-04-29T13:34:43Z</time></trkpt><trkpt lat="44.663471248718494" lon="9.435789369951125"><ele>973.0</ele><time>2026-04-29T13:34:44Z</time></trkpt><trkpt lat="44.663398659030015" lon="9.436007093931702"><ele>973.0</ele><time>2026-04-29T13:34:45Z</time></trkpt><trkpt lat="44.66335230288197" lon="9.436240348237968"><ele>973.0</ele><time>2026-04-29T13:34:46Z</time></trkpt><trkpt lat="44.663285419505755" lon="9.436439338676374"><ele>973.0</ele><time>2026-04-29T13:34:47Z</time></trkpt><trkpt lat="44.66322304952642" lon="9.436625303315838"><ele>975.5</ele><time>2026-04-29T13:34:48Z</time></trkpt><trkpt lat="44.66317311607823" lon="9.436791803705873"><ele>978.0</ele><time>2026-04-29T13:34:49Z</time></trkpt><trkpt lat="44.66311708518214" lon="9.436945058675766"><ele>980.5</ele><time>2026-04-29T13:34:50Z</time></trkpt><trkpt lat="44.66311005466024" lon="9.437148068993485"><ele>983.0</ele><time>2026-04-29T13:34:51Z</time></trkpt><trkpt lat="44.663102081427695" lon="9.437332088732026"><ele>983.5</ele><time>2026-04-29T13:34:52Z</time></trkpt><trkpt lat="44.66309984194568" lon="9.437526674844376"><ele>984.0</ele><time>2026-04-29T13:34:53Z</time></trkpt><trkpt lat="44.66311375415922" lon="9.437729115782139"><ele>984.5</ele><time>2026-04-29T13:34:54Z</time></trkpt><trkpt lat="44.66313258302142" lon="9.437932225311233"><ele>985.0</ele><time>2026-04-29T13:34:55Z</time></trkpt><trkpt lat="44.66314856138171" lon="9.438120762894112"><ele>985.2</ele><time>2026-04-29T13:34:56Z</time></trkpt><trkpt lat="44.66315820062963" lon="9.438277539596314"><ele>985.4</ele><time>2026-04-29T13:34:57Z</time></trkpt><trkpt lat="44.66318580174776" lon="9.438420335724826"><ele>985.5999999999999</ele><time>2026-04-29T13:34:58Z</time></trkpt><trkpt lat="44.663228954151485" lon="9.438527154009572"><ele>985.8</ele><time>2026-04-29T13:34:59Z</time></trkpt><trkpt lat="44.66331850768008" lon="9.438591480752562"><ele>986.0</ele><time>2026-04-29T13:35:00Z</time></trkpt><trkpt lat="44.66342164969625" lon="9.43863401187523"><ele>986.0</ele><time>2026-04-29T13:35:01Z</time></trkpt><trkpt lat="44.66354457495928" lon="9.438696143941295"><ele>986.0</ele><time>2026-04-29T13:35:02Z</time></trkpt><trkpt lat="44.663681291925954" lon="9.438743793488555"><ele>986.0</ele><time>2026-04-29T13:35:03Z</time></trkpt><trkpt lat="44.66379479292336" lon="9.438794293207408"><ele>986.0</ele><time>2026-04-29T13:35:04Z</time></trkpt><trkpt lat="44.66387314830361" lon="9.438845837446028"><ele>988.8333333333334</ele><time>2026-04-29T13:35:05Z</time></trkpt><trkpt lat="44.66392917784581" lon="9.438905105687299"><ele>991.6666666666667</ele><time>2026-04-29T13:35:06Z</time></trkpt><trkpt lat="44.66396497145415" lon="9.439070835296837"><ele>994.5</ele><time>2026-04-29T13:35:08Z</time></trkpt><trkpt lat="44.6639471355148" lon="9.439165610291303"><ele>997.3333333333333</ele><time>2026-04-29T13:35:09Z</time></trkpt><trkpt lat="44.663903695078396" lon="9.439264312275112"><ele>1000.1666666666666</ele><time>2026-04-29T13:35:10Z</time></trkpt><trkpt lat="44.6638342259012" lon="9.439372687161201"><ele>1003.0</ele><time>2026-04-29T13:35:11Z</time></trkpt><trkpt lat="44.66374395425035" lon="9.439512509958536"><ele>1006.0</ele><time>2026-04-29T13:35:12Z</time></trkpt><trkpt lat="44.663662856149934" lon="9.43967228471655"><ele>1009.0</ele><time>2026-04-29T13:35:13Z</time></trkpt><trkpt lat="44.663569784400465" lon="9.439806907297855"><ele>1012.0</ele><time>2026-04-29T13:35:14Z</time></trkpt><trkpt lat="44.66349448621291" lon="9.43993202500222"><ele>1015.0</ele><time>2026-04-29T13:35:15Z</time></trkpt><trkpt lat="44.663437484958195" lon="9.440054425540634"><ele>1011.75</ele><time>2026-04-29T13:35:16Z</time></trkpt><trkpt lat="44.66341572194742" lon="9.440189570720225"><ele>1008.5</ele><time>2026-04-29T13:35:17Z</time></trkpt><trkpt lat="44.66338648553565" lon="9.440393539645429"><ele>1005.25</ele><time>2026-04-29T13:35:18Z</time></trkpt><trkpt lat="44.66337369315186" lon="9.44059953161434"><ele>1002.0</ele><time>2026-04-29T13:35:19Z</time></trkpt><trkpt lat="44.6633561985803" lon="9.440769255158818"><ele>1002.0</ele><time>2026-04-29T13:35:20Z</time></trkpt><trkpt lat="44.66332967392877" lon="9.440904225280306"><ele>1002.0</ele><time>2026-04-29T13:35:21Z</time></trkpt><trkpt lat="44.663281204714515" lon="9.44102318130354"><ele>1002.0</ele><time>2026-04-29T13:35:22Z</time></trkpt><trkpt lat="44.66322041549168" lon="9.441156411069231"><ele>1002.0</ele><time>2026-04-29T13:35:23Z</time></trkpt><trkpt lat="44.66316058927496" lon="9.441262762779218"><ele>1002.0</ele><time>2026-04-29T13:35:24Z</time></trkpt><trkpt lat="44.66309978967585" lon="9.441344851059812"><ele>1002.0</ele><time>2026-04-29T13:35:25Z</time></trkpt><trkpt lat="44.66301364475965" lon="9.441367953718885"><ele>1002.0</ele><time>2026-04-29T13:35:26Z</time></trkpt><trkpt lat="44.662918733849445" lon="9.441346499299396"><ele>1002.0</ele><time>2026-04-29T13:35:27Z</time></trkpt><trkpt lat="44.66281196370386" lon="9.441288729824448"><ele>1002.0</ele><time>2026-04-29T13:35:28Z</time></trkpt><trkpt lat="44.66272489235784" lon="9.441224637385265"><ele>1002.0</ele><time>2026-04-29T13:35:29Z</time></trkpt><trkpt lat="44.66265395645921" lon="9.441197913514674"><ele>1001.6</ele><time>2026-04-29T13:35:30Z</time></trkpt><trkpt lat="44.66258063305261" lon="9.441219557488788"><ele>1001.2</ele><time>2026-04-29T13:35:31Z</time></trkpt><trkpt lat="44.66251259863738" lon="9.441258896401802"><ele>1000.8</ele><time>2026-04-29T13:35:32Z</time></trkpt><trkpt lat="44.66246524833648" lon="9.44138613840086"><ele>1000.4</ele><time>2026-04-29T13:35:33Z</time></trkpt><trkpt lat="44.662432340877594" lon="9.441554247921207"><ele>1000.0</ele><time>2026-04-29T13:35:34Z</time></trkpt><trkpt lat="44.66239379040736" lon="9.441749098284667"><ele>1000.0</ele><time>2026-04-29T13:35:35Z</time></trkpt><trkpt lat="44.66235121910468" lon="9.441958836969972"><ele>1000.0</ele><time>2026-04-29T13:35:36Z</time></trkpt><trkpt lat="44.66231036599203" lon="9.442155265994582"><ele>1000.0</ele><time>2026-04-29T13:35:37Z</time></trkpt><trkpt lat="44.6622649166259" lon="9.442381019946788"><ele>1003.0</ele><time>2026-04-29T13:35:38Z</time></trkpt><trkpt lat="44.66222463885311" lon="9.442592689451313"><ele>1006.0</ele><time>2026-04-29T13:35:39Z</time></trkpt><trkpt lat="44.66218704711991" lon="9.44278774640572"><ele>1009.0</ele><time>2026-04-29T13:35:40Z</time></trkpt><trkpt lat="44.66215294170787" lon="9.44296064921486"><ele>1012.0</ele><time>2026-04-29T13:35:41Z</time></trkpt><trkpt lat="44.66212579422419" lon="9.44316107256496"><ele>1013.0</ele><time>2026-04-29T13:35:42Z</time></trkpt><trkpt lat="44.662129302373934" lon="9.443375037813983"><ele>1014.0</ele><time>2026-04-29T13:35:43Z</time></trkpt><trkpt lat="44.66214540760963" lon="9.443560038922051"><ele>1015.0</ele><time>2026-04-29T13:35:44Z</time></trkpt><trkpt lat="44.66216156922593" lon="9.443717304088285"><ele>1016.0</ele><time>2026-04-29T13:35:45Z</time></trkpt><trkpt lat="44.66217137951942" lon="9.4438521265472"><ele>1016.4</ele><time>2026-04-29T13:35:46Z</time></trkpt><trkpt lat="44.66216987904661" lon="9.443978759921821"><ele>1016.8</ele><time>2026-04-29T13:35:47Z</time></trkpt><trkpt lat="44.662151627185594" lon="9.444096566496947"><ele>1017.1999999999999</ele><time>2026-04-29T13:35:48Z</time></trkpt><trkpt lat="44.66208056933477" lon="9.44419821561964"><ele>1017.5999999999999</ele><time>2026-04-29T13:35:49Z</time></trkpt><trkpt lat="44.661993651753825" lon="9.44426258166677"><ele>1018.0</ele><time>2026-04-29T13:35:50Z</time></trkpt><trkpt lat="44.66190755104899" lon="9.4442894924873"><ele>1016.5999999999999</ele><time>2026-04-29T13:35:51Z</time></trkpt><trkpt lat="44.66182452614244" lon="9.444285522193228"><ele>1015.1999999999999</ele><time>2026-04-29T13:35:52Z</time></trkpt><trkpt lat="44.66174472111001" lon="9.44423758162803"><ele>1013.8</ele><time>2026-04-29T13:35:53.001Z</time></trkpt><trkpt lat="44.661679795978706" lon="9.444101531940706"><ele>1012.4</ele><time>2026-04-29T13:35:54.001Z</time></trkpt><trkpt lat="44.66159875268799" lon="9.443933448597654"><ele>1011.0</ele><time>2026-04-29T13:35:55.001Z</time></trkpt><trkpt lat="44.66150754808462" lon="9.44377712979954"><ele>1008.0</ele><time>2026-04-29T13:35:56.001Z</time></trkpt><trkpt lat="44.66139795464304" lon="9.44369627021384"><ele>1005.0</ele><time>2026-04-29T13:35:57.001Z</time></trkpt><trkpt lat="44.66127483001054" lon="9.443695635122832"><ele>1002.0</ele><time>2026-04-29T13:35:58.001Z</time></trkpt><trkpt lat="44.661159193575635" lon="9.443726765737697"><ele>999.0</ele><time>2026-04-29T13:35:59.001Z</time></trkpt><trkpt lat="44.66105489666303" lon="9.44371015895198"><ele>998.5</ele><time>2026-04-29T13:36:00.001Z</time></trkpt><trkpt lat="44.660979370870656" lon="9.44373740672572"><ele>998.0</ele><time>2026-04-29T13:36:01.001Z</time></trkpt><trkpt lat="44.66084937323921" lon="9.443741636440855"><ele>997.5</ele><time>2026-04-29T13:36:02.001Z</time></trkpt><trkpt lat="44.66071268514738" lon="9.443753034431197"><ele>997.0</ele><time>2026-04-29T13:36:03.001Z</time></trkpt><trkpt lat="44.66056639668451" lon="9.443764104965886"><ele>997.0</ele><time>2026-04-29T13:36:04.001Z</time></trkpt><trkpt lat="44.660424760364535" lon="9.443777818705506"><ele>997.0</ele><time>2026-04-29T13:36:05.001Z</time></trkpt><trkpt lat="44.66030021940127" lon="9.443789871508157"><ele>997.0</ele><time>2026-04-29T13:36:06.001Z</time></trkpt><trkpt lat="44.660197413902914" lon="9.443824789694656"><ele>997.0</ele><time>2026-04-29T13:36:07.001Z</time></trkpt><trkpt lat="44.66009677189083" lon="9.443894392322152"><ele>1002.6666666666666</ele><time>2026-04-29T13:36:08.001Z</time></trkpt><trkpt lat="44.65999138161824" lon="9.444010658671047"><ele>1008.3333333333333</ele><time>2026-04-29T13:36:09.001Z</time></trkpt><trkpt lat="44.65987766629953" lon="9.444154990338033"><ele>1014.0</ele><time>2026-04-29T13:36:10.001Z</time></trkpt><trkpt lat="44.65974731969927" lon="9.444307537080629"><ele>1014.0</ele><time>2026-04-29T13:36:11.001Z</time></trkpt><trkpt lat="44.65962229094975" lon="9.444470120056842"><ele>1014.0</ele><time>2026-04-29T13:36:12.001Z</time></trkpt><trkpt lat="44.659493050564876" lon="9.444626769346165"><ele>1014.0</ele><time>2026-04-29T13:36:13.001Z</time></trkpt><trkpt lat="44.65937032418759" lon="9.444773410591564"><ele>1014.25</ele><time>2026-04-29T13:36:14.001Z</time></trkpt><trkpt lat="44.6592532263628" lon="9.444906804754613"><ele>1014.5</ele><time>2026-04-29T13:36:15.001Z</time></trkpt><trkpt lat="44.6591533225252" lon="9.445027586320258"><ele>1014.75</ele><time>2026-04-29T13:36:16.001Z</time></trkpt><trkpt lat="44.659058502512664" lon="9.445127554503149"><ele>1015.0</ele><time>2026-04-29T13:36:17Z</time></trkpt><trkpt lat="44.65895262672334" lon="9.445211293497662"><ele>1015.0</ele><time>2026-04-29T13:36:18Z</time></trkpt><trkpt lat="44.65884309658359" lon="9.44527505911812"><ele>1015.0</ele><time>2026-04-29T13:36:19Z</time></trkpt><trkpt lat="44.65871672703235" lon="9.445287534705995"><ele>1015.0</ele><time>2026-04-29T13:36:20Z</time></trkpt><trkpt lat="44.658574945456586" lon="9.44532616883923"><ele>1015.0</ele><time>2026-04-29T13:36:21Z</time></trkpt><trkpt lat="44.65842695848739" lon="9.445333380122877"><ele>1016.0</ele><time>2026-04-29T13:36:22Z</time></trkpt><trkpt lat="44.658294282270234" lon="9.44534966495492"><ele>1017.0</ele><time>2026-04-29T13:36:23Z</time></trkpt><trkpt lat="44.65817404786074" lon="9.445353957004482"><ele>1018.0</ele><time>2026-04-29T13:36:24Z</time></trkpt><trkpt lat="44.65805411967319" lon="9.445326940319235"><ele>1019.0</ele><time>2026-04-29T13:36:25Z</time></trkpt><trkpt lat="44.65792899293741" lon="9.445276981174556"><ele>1019.0</ele><time>2026-04-29T13:36:26Z</time></trkpt><trkpt lat="44.65782041625306" lon="9.445234014369793"><ele>1019.0</ele><time>2026-04-29T13:36:27Z</time></trkpt><trkpt lat="44.6577076167758" lon="9.44522121252036"><ele>1019.0</ele><time>2026-04-29T13:36:28Z</time></trkpt><trkpt lat="44.65756700033796" lon="9.445241682855492"><ele>1019.0</ele><time>2026-04-29T13:36:29Z</time></trkpt><trkpt lat="44.657403717007384" lon="9.445281962860042"><ele>1019.25</ele><time>2026-04-29T13:36:30Z</time></trkpt><trkpt lat="44.65723947242295" lon="9.445333822219203"><ele>1019.5</ele><time>2026-04-29T13:36:31Z</time></trkpt><trkpt lat="44.65709541631803" lon="9.445354825734846"><ele>1019.75</ele><time>2026-04-29T13:36:32Z</time></trkpt><trkpt lat="44.65697610828574" lon="9.445393323850233"><ele>1020.0</ele><time>2026-04-29T13:36:33Z</time></trkpt><trkpt lat="44.656864408896816" lon="9.445462002889297"><ele>1024.25</ele><time>2026-04-29T13:36:34Z</time></trkpt><trkpt lat="44.65675940612298" lon="9.445584083997085"><ele>1028.5</ele><time>2026-04-29T13:36:35Z</time></trkpt><trkpt lat="44.656672322470975" lon="9.445712435549918"><ele>1032.75</ele><time>2026-04-29T13:36:36Z</time></trkpt><trkpt lat="44.65659783095302" lon="9.445806894619487"><ele>1037.0</ele><time>2026-04-29T13:36:37Z</time></trkpt><trkpt lat="44.65652459204295" lon="9.445888499101294"><ele>1037.0</ele><time>2026-04-29T13:36:38Z</time></trkpt><trkpt lat="44.656416576467535" lon="9.445904677958243"><ele>1037.0</ele><time>2026-04-29T13:36:39Z</time></trkpt><trkpt lat="44.65629297826401" lon="9.445891731653564"><ele>1037.0</ele><time>2026-04-29T13:36:40Z</time></trkpt><trkpt lat="44.656182191476276" lon="9.445870426271513"><ele>1037.0</ele><time>2026-04-29T13:36:41Z</time></trkpt><trkpt lat="44.65609489991123" lon="9.44589330912197"><ele>1037.0</ele><time>2026-04-29T13:36:42Z</time></trkpt><trkpt lat="44.65598982023897" lon="9.445928850605249"><ele>1035.75</ele><time>2026-04-29T13:36:43Z</time></trkpt><trkpt lat="44.6558793211205" lon="9.446025698534315"><ele>1034.5</ele><time>2026-04-29T13:36:44Z</time></trkpt><trkpt lat="44.65577697242773" lon="9.446133727655456"><ele>1033.25</ele><time>2026-04-29T13:36:45Z</time></trkpt><trkpt lat="44.65569443311625" lon="9.44624929163758"><ele>1032.0</ele><time>2026-04-29T13:36:46Z</time></trkpt><trkpt lat="44.65563988179403" lon="9.446373876498267"><ele>1035.0</ele><time>2026-04-29T13:36:47Z</time></trkpt><trkpt lat="44.65560990418202" lon="9.446519990349936"><ele>1038.0</ele><time>2026-04-29T13:36:48Z</time></trkpt><trkpt lat="44.65560655481541" lon="9.446699440436724"><ele>1041.0</ele><time>2026-04-29T13:36:49Z</time></trkpt><trkpt lat="44.6556232931702" lon="9.446908563656274"><ele>1044.0</ele><time>2026-04-29T13:36:50Z</time></trkpt><trkpt lat="44.65563918398567" lon="9.447132893718491"><ele>1045.0</ele><time>2026-04-29T13:36:51Z</time></trkpt><trkpt lat="44.655652365317636" lon="9.44733032402764"><ele>1046.0</ele><time>2026-04-29T13:36:52Z</time></trkpt><trkpt lat="44.65566016765394" lon="9.44748480396716"><ele>1047.0</ele><time>2026-04-29T13:36:53Z</time></trkpt><trkpt lat="44.6556576450052" lon="9.44761706718994"><ele>1048.0</ele><time>2026-04-29T13:36:54Z</time></trkpt><trkpt lat="44.65563507139649" lon="9.447719568405724"><ele>1049.0</ele><time>2026-04-29T13:36:55Z</time></trkpt><trkpt lat="44.65560091732317" lon="9.447801522964712"><ele>1049.0</ele><time>2026-04-29T13:36:56Z</time></trkpt><trkpt lat="44.65555197244505" lon="9.447886742413374"><ele>1049.0</ele><time>2026-04-29T13:36:57Z</time></trkpt><trkpt lat="44.655459444908324" lon="9.44788960684477"><ele>1049.0</ele><time>2026-04-29T13:36:58Z</time></trkpt><trkpt lat="44.65533960760412" lon="9.447899896132"><ele>1049.0</ele><time>2026-04-29T13:36:59Z</time></trkpt><trkpt lat="44.655193895361805" lon="9.447927315271098"><ele>1049.0</ele><time>2026-04-29T13:37:00Z</time></trkpt><trkpt lat="44.65504453064459" lon="9.447983349324934"><ele>1050.0</ele><time>2026-04-29T13:37:01Z</time></trkpt><trkpt lat="44.65490156571197" lon="9.448040077694117"><ele>1051.0</ele><time>2026-04-29T13:37:02Z</time></trkpt><trkpt lat="44.6547674305442" lon="9.448111064666872"><ele>1052.0</ele><time>2026-04-29T13:37:03Z</time></trkpt><trkpt lat="44.654652582517976" lon="9.448182140893701"><ele>1053.0</ele><time>2026-04-29T13:37:04Z</time></trkpt><trkpt lat="44.65455782870896" lon="9.448252367171044"><ele>1053.0</ele><time>2026-04-29T13:37:05Z</time></trkpt><trkpt lat="44.65446327086494" lon="9.448338063966549"><ele>1053.0</ele><time>2026-04-29T13:37:06Z</time></trkpt><trkpt lat="44.65438847149515" lon="9.448496444892358"><ele>1053.0</ele><time>2026-04-29T13:37:07Z</time></trkpt><trkpt lat="44.65432417660953" lon="9.448692319124321"><ele>1053.0</ele><time>2026-04-29T13:37:08Z</time></trkpt><trkpt lat="44.6542621884124" lon="9.448888865557233"><ele>1053.0</ele><time>2026-04-29T13:37:09Z</time></trkpt><trkpt lat="44.654194950612585" lon="9.449114391548587"><ele>1053.0</ele><time>2026-04-29T13:37:10Z</time></trkpt><trkpt lat="44.654127764043345" lon="9.449360744215193"><ele>1053.0</ele><time>2026-04-29T13:37:11Z</time></trkpt><trkpt lat="44.65407030862775" lon="9.449590640129049"><ele>1055.25</ele><time>2026-04-29T13:37:12Z</time></trkpt><trkpt lat="44.654025175963405" lon="9.449804676597223"><ele>1057.5</ele><time>2026-04-29T13:37:13Z</time></trkpt><trkpt lat="44.65399164356409" lon="9.45000167160593"><ele>1059.75</ele><time>2026-04-29T13:37:14Z</time></trkpt><trkpt lat="44.65396823434701" lon="9.450175011142345"><ele>1062.0</ele><time>2026-04-29T13:37:15Z</time></trkpt><trkpt lat="44.65395284791981" lon="9.450300826706997"><ele>1062.0</ele><time>2026-04-29T13:37:16Z</time></trkpt><trkpt lat="44.65393959706366" lon="9.450415654866854"><ele>1062.0</ele><time>2026-04-29T13:37:17Z</time></trkpt><trkpt lat="44.65392919606858" lon="9.45052341133854"><ele>1062.0</ele><time>2026-04-29T13:37:18Z</time></trkpt><trkpt lat="44.65394449910805" lon="9.45069558622888"><ele>1062.0</ele><time>2026-04-29T13:37:20Z</time></trkpt><trkpt lat="44.65396064360617" lon="9.450846480153006"><ele>1062.0</ele><time>2026-04-29T13:37:22Z</time></trkpt><trkpt lat="44.65397009569571" lon="9.45098207223931"><ele>1061.8</ele><time>2026-04-29T13:37:24Z</time></trkpt><trkpt lat="44.65398748531424" lon="9.451077588438197"><ele>1061.6</ele><time>2026-04-29T13:37:27Z</time></trkpt><trkpt lat="44.65387807656968" lon="9.451097665867291"><ele>1061.3999999999999</ele><time>2026-04-29T13:38:56Z</time></trkpt><trkpt lat="44.6538024800076" lon="9.45118398425371"><ele>1061.2</ele><time>2026-04-29T13:38:58Z</time></trkpt><trkpt lat="44.65373444355985" lon="9.451250646777797"><ele>1061.0</ele><time>2026-04-29T13:39:00Z</time></trkpt><trkpt lat="44.653639413011206" lon="9.45129502409615"><ele>1059.5</ele><time>2026-04-29T13:39:02Z</time></trkpt><trkpt lat="44.653528736365956" lon="9.451318759308716"><ele>1058.0</ele><time>2026-04-29T13:39:04Z</time></trkpt><trkpt lat="44.65340712238393" lon="9.451321941655507"><ele>1056.5</ele><time>2026-04-29T13:39:06Z</time></trkpt><trkpt lat="44.65334311771483" lon="9.451329765733735"><ele>1055.0</ele><time>2026-04-29T13:39:07Z</time></trkpt><trkpt lat="44.6532754877776" lon="9.451343646114788"><ele>1053.5</ele><time>2026-04-29T13:39:08Z</time></trkpt><trkpt lat="44.653211654523275" lon="9.451354047818908"><ele>1052.0</ele><time>2026-04-29T13:39:09Z</time></trkpt><trkpt lat="44.653139709564456" lon="9.451362779405196"><ele>1052.0</ele><time>2026-04-29T13:39:10Z</time></trkpt><trkpt lat="44.653071771192806" lon="9.451379866493339"><ele>1052.0</ele><time>2026-04-29T13:39:11Z</time></trkpt><trkpt lat="44.6529987086543" lon="9.451344956966146"><ele>1052.0</ele><time>2026-04-29T13:39:12Z</time></trkpt><trkpt lat="44.65291702056262" lon="9.451347342997396"><ele>1052.0</ele><time>2026-04-29T13:39:13Z</time></trkpt><trkpt lat="44.65283576342795" lon="9.451372413991002"><ele>1052.0</ele><time>2026-04-29T13:39:14Z</time></trkpt><trkpt lat="44.65275292999908" lon="9.451426280021028"><ele>1052.0</ele><time>2026-04-29T13:39:15Z</time></trkpt><trkpt lat="44.652667378127745" lon="9.451487145545782"><ele>1053.6</ele><time>2026-04-29T13:39:16Z</time></trkpt><trkpt lat="44.65257561881617" lon="9.451549709257609"><ele>1055.2</ele><time>2026-04-29T13:39:17Z</time></trkpt><trkpt lat="44.652488253798325" lon="9.451628317486701"><ele>1056.8</ele><time>2026-04-29T13:39:18Z</time></trkpt><trkpt lat="44.652397725459764" lon="9.451670845201031"><ele>1058.4</ele><time>2026-04-29T13:39:19Z</time></trkpt><trkpt lat="44.652319378452425" lon="9.451716817647524"><ele>1060.0</ele><time>2026-04-29T13:39:20Z</time></trkpt><trkpt lat="44.65225613958923" lon="9.451742372202856"><ele>1060.0</ele><time>2026-04-29T13:39:21Z</time></trkpt><trkpt lat="44.65218610370305" lon="9.451765989825962"><ele>1060.0</ele><time>2026-04-29T13:39:22Z</time></trkpt><trkpt lat="44.65205969728965" lon="9.451763881315994"><ele>1060.0</ele><time>2026-04-29T13:39:24Z</time></trkpt><trkpt lat="44.65198637458211" lon="9.45176563003585"><ele>1060.0</ele><time>2026-04-29T13:39:25Z</time></trkpt><trkpt lat="44.65191200130726" lon="9.451725935766945"><ele>1060.0</ele><time>2026-04-29T13:39:26Z</time></trkpt><trkpt lat="44.65183638027531" lon="9.45167231767715"><ele>1060.0</ele><time>2026-04-29T13:39:27Z</time></trkpt><trkpt lat="44.651770020504685" lon="9.451623558257078"><ele>1062.0</ele><time>2026-04-29T13:39:28Z</time></trkpt><trkpt lat="44.65169862005185" lon="9.451573113400519"><ele>1064.0</ele><time>2026-04-29T13:39:29Z</time></trkpt><trkpt lat="44.65158723731083" lon="9.451561176127148"><ele>1066.0</ele><time>2026-04-29T13:39:30Z</time></trkpt><trkpt lat="44.651487969431436" lon="9.451618960885895"><ele>1068.0</ele><time>2026-04-29T13:39:31Z</time></trkpt><trkpt lat="44.651390453910615" lon="9.4516119115429"><ele>1070.0</ele><time>2026-04-29T13:39:32Z</time></trkpt><trkpt lat="44.65130625495911" lon="9.451609822226429"><ele>1070.0</ele><time>2026-04-29T13:39:33Z</time></trkpt><trkpt lat="44.651226925522934" lon="9.451584954901042"><ele>1070.0</ele><time>2026-04-29T13:39:34Z</time></trkpt><trkpt lat="44.65115083441567" lon="9.451529696777754"><ele>1070.0</ele><time>2026-04-29T13:39:35Z</time></trkpt><trkpt lat="44.65107771822851" lon="9.451462714051717"><ele>1070.0</ele><time>2026-04-29T13:39:36Z</time></trkpt><trkpt lat="44.65100694583528" lon="9.451376988832637"><ele>1070.0</ele><time>2026-04-29T13:39:37Z</time></trkpt><trkpt lat="44.65092678904017" lon="9.451290211742505"><ele>1070.0</ele><time>2026-04-29T13:39:38Z</time></trkpt><trkpt lat="44.650853665329144" lon="9.451210824356925"><ele>1072.0</ele><time>2026-04-29T13:39:39Z</time></trkpt><trkpt lat="44.65077232033294" lon="9.45111715281154"><ele>1074.0</ele><time>2026-04-29T13:39:40Z</time></trkpt><trkpt lat="44.65070486283729" lon="9.451030094947377"><ele>1076.0</ele><time>2026-04-29T13:39:41Z</time></trkpt><trkpt lat="44.65063747608432" lon="9.450944998782163"><ele>1078.0</ele><time>2026-04-29T13:39:42Z</time></trkpt><trkpt lat="44.65056256581692" lon="9.450869844385293"><ele>1080.0</ele><time>2026-04-29T13:39:43Z</time></trkpt><trkpt lat="44.65047942254691" lon="9.450809104759093"><ele>1080.0</ele><time>2026-04-29T13:39:44Z</time></trkpt><trkpt lat="44.6503870500315" lon="9.450771600910413"><ele>1080.0</ele><time>2026-04-29T13:39:45Z</time></trkpt><trkpt lat="44.6502801613817" lon="9.450768140562129"><ele>1080.0</ele><time>2026-04-29T13:39:46Z</time></trkpt><trkpt lat="44.65017630745951" lon="9.450730002366209"><ele>1080.0</ele><time>2026-04-29T13:39:47Z</time></trkpt><trkpt lat="44.65007288107355" lon="9.450745746228295"><ele>1080.0</ele><time>2026-04-29T13:39:48Z</time></trkpt><trkpt lat="44.64996856508754" lon="9.450725522888588"><ele>1077.6</ele><time>2026-04-29T13:39:49Z</time></trkpt><trkpt lat="44.64986518291419" lon="9.450712637843223"><ele>1075.2</ele><time>2026-04-29T13:39:50Z</time></trkpt><trkpt lat="44.649758421604815" lon="9.450664411017158"><ele>1072.8</ele><time>2026-04-29T13:39:51Z</time></trkpt><trkpt lat="44.64964381364056" lon="9.450639853997716"><ele>1070.4</ele><time>2026-04-29T13:39:52Z</time></trkpt><trkpt lat="44.64953578183176" lon="9.450631781324999"><ele>1068.0</ele><time>2026-04-29T13:39:53Z</time></trkpt><trkpt lat="44.64942840418888" lon="9.450637548629963"><ele>1067.8</ele><time>2026-04-29T13:39:54Z</time></trkpt><trkpt lat="44.649323259846255" lon="9.450669718723375"><ele>1067.6</ele><time>2026-04-29T13:39:55Z</time></trkpt><trkpt lat="44.649235417314706" lon="9.450698887212239"><ele>1067.4</ele><time>2026-04-29T13:39:56Z</time></trkpt><trkpt lat="44.64914432813864" lon="9.450710964883795"><ele>1067.2</ele><time>2026-04-29T13:39:57Z</time></trkpt><trkpt lat="44.64904212743537" lon="9.450718354630991"><ele>1067.0</ele><time>2026-04-29T13:39:58Z</time></trkpt><trkpt lat="44.64894075326349" lon="9.450662903035653"><ele>1067.0</ele><time>2026-04-29T13:39:59Z</time></trkpt><trkpt lat="44.64884087700232" lon="9.450656181772517"><ele>1067.0</ele><time>2026-04-29T13:40:00Z</time></trkpt><trkpt lat="44.64876395833383" lon="9.450611408952737"><ele>1067.0</ele><time>2026-04-29T13:40:01Z</time></trkpt><trkpt lat="44.64868697842051" lon="9.450604981320948"><ele>1067.0</ele><time>2026-04-29T13:40:02Z</time></trkpt><trkpt lat="44.648605317925615" lon="9.4506191797569"><ele>1067.0</ele><time>2026-04-29T13:40:03Z</time></trkpt><trkpt lat="44.64851723646271" lon="9.450676251469083"><ele>1067.0</ele><time>2026-04-29T13:40:04Z</time></trkpt><trkpt lat="44.6484473065148" lon="9.450768346098863"><ele>1067.8</ele><time>2026-04-29T13:40:05Z</time></trkpt><trkpt lat="44.64838626511868" lon="9.450855252296776"><ele>1068.6</ele><time>2026-04-29T13:40:06Z</time></trkpt><trkpt lat="44.64831358902793" lon="9.450922526592226"><ele>1069.3999999999999</ele><time>2026-04-29T13:40:07Z</time></trkpt><trkpt lat="44.64823647444174" lon="9.45097020681741"><ele>1070.2</ele><time>2026-04-29T13:40:08Z</time></trkpt><trkpt lat="44.648141610351175" lon="9.451010595423774"><ele>1071.0</ele><time>2026-04-29T13:40:09Z</time></trkpt><trkpt lat="44.648050317480234" lon="9.451050172530332"><ele>1071.0</ele><time>2026-04-29T13:40:10Z</time></trkpt><trkpt lat="44.647968736924085" lon="9.451089226615203"><ele>1071.0</ele><time>2026-04-29T13:40:11Z</time></trkpt><trkpt lat="44.647905197828486" lon="9.451135782429892"><ele>1071.0</ele><time>2026-04-29T13:40:12Z</time></trkpt><trkpt lat="44.647851161159245" lon="9.451219293593908"><ele>1071.0</ele><time>2026-04-29T13:40:13Z</time></trkpt><trkpt lat="44.64781779345691" lon="9.45132514809519"><ele>1071.0</ele><time>2026-04-29T13:40:14Z</time></trkpt><trkpt lat="44.647794241463" lon="9.451453372960142"><ele>1071.0</ele><time>2026-04-29T13:40:15Z</time></trkpt><trkpt lat="44.64776668592478" lon="9.451599426125874"><ele>1071.6</ele><time>2026-04-29T13:40:16Z</time></trkpt><trkpt lat="44.6477302954203" lon="9.451757373713473"><ele>1072.1999999999998</ele><time>2026-04-29T13:40:17Z</time></trkpt><trkpt lat="44.64769049549096" lon="9.451905582825116"><ele>1072.8000000000002</ele><time>2026-04-29T13:40:18Z</time></trkpt><trkpt lat="44.64766118266704" lon="9.452046872731827"><ele>1073.4</ele><time>2026-04-29T13:40:19Z</time></trkpt><trkpt lat="44.64761523929467" lon="9.452164935214567"><ele>1074.0</ele><time>2026-04-29T13:40:20Z</time></trkpt><trkpt lat="44.64756492189831" lon="9.452268042270212"><ele>1074.0</ele><time>2026-04-29T13:40:21Z</time></trkpt><trkpt lat="44.64750776432523" lon="9.452351102501828"><ele>1074.0</ele><time>2026-04-29T13:40:22Z</time></trkpt><trkpt lat="44.64749843985039" lon="9.452459534081603"><ele>1074.0</ele><time>2026-04-29T13:40:23Z</time></trkpt><trkpt lat="44.64747299622966" lon="9.45256165108044"><ele>1074.0</ele><time>2026-04-29T13:40:24Z</time></trkpt><trkpt lat="44.647493861840346" lon="9.4526970643536"><ele>1074.0</ele><time>2026-04-29T13:40:25Z</time></trkpt><trkpt lat="44.647516653510486" lon="9.45281057911552"><ele>1074.0</ele><time>2026-04-29T13:40:26Z</time></trkpt><trkpt lat="44.64751074608374" lon="9.452902366577968"><ele>1071.6000000000001</ele><time>2026-04-29T13:40:27Z</time></trkpt><trkpt lat="44.647481847753156" lon="9.453039894577152"><ele>1069.2</ele><time>2026-04-29T13:40:29Z</time></trkpt><trkpt lat="44.64738083403782" lon="9.45311568885875"><ele>1066.8000000000002</ele><time>2026-04-29T13:40:31Z</time></trkpt><trkpt lat="44.64731725240925" lon="9.453170439647062"><ele>1064.4</ele><time>2026-04-29T13:40:32Z</time></trkpt><trkpt lat="44.64726095334232" lon="9.453254530476945"><ele>1062.0</ele><time>2026-04-29T13:40:33Z</time></trkpt><trkpt lat="44.6472247645" lon="9.453360020736053"><ele>1062.0</ele><time>2026-04-29T13:40:34Z</time></trkpt><trkpt lat="44.647196768621725" lon="9.453502280231007"><ele>1062.0</ele><time>2026-04-29T13:40:35Z</time></trkpt><trkpt lat="44.64716479834191" lon="9.453627299335432"><ele>1062.0</ele><time>2026-04-29T13:40:36Z</time></trkpt><trkpt lat="44.64712112597387" lon="9.453722758867952"><ele>1062.0</ele><time>2026-04-29T13:40:37Z</time></trkpt><trkpt lat="44.6470816735707" lon="9.453836264734685"><ele>1062.0</ele><time>2026-04-29T13:40:38Z</time></trkpt><trkpt lat="44.647073108521376" lon="9.453969387049236"><ele>1064.4</ele><time>2026-04-29T13:40:39Z</time></trkpt><trkpt lat="44.647053213586126" lon="9.454081809225592"><ele>1066.8000000000002</ele><time>2026-04-29T13:40:40Z</time></trkpt><trkpt lat="44.64703072107699" lon="9.454184914176663"><ele>1069.2</ele><time>2026-04-29T13:40:41Z</time></trkpt><trkpt lat="44.646993860737936" lon="9.454287448307117"><ele>1071.6000000000001</ele><time>2026-04-29T13:40:42Z</time></trkpt><trkpt lat="44.6469374464173" lon="9.454405082219917"><ele>1074.0</ele><time>2026-04-29T13:40:43Z</time></trkpt><trkpt lat="44.646875703140715" lon="9.454536477645599"><ele>1070.6000000000001</ele><time>2026-04-29T13:40:44Z</time></trkpt><trkpt lat="44.646830069602046" lon="9.454672901553494"><ele>1067.2</ele><time>2026-04-29T13:40:45Z</time></trkpt><trkpt lat="44.646776413744014" lon="9.454780309244441"><ele>1063.8000000000002</ele><time>2026-04-29T13:40:46Z</time></trkpt><trkpt lat="44.64672970097423" lon="9.454859652074008"><ele>1060.4</ele><time>2026-04-29T13:40:47Z</time></trkpt><trkpt lat="44.64662913513508" lon="9.454959524656033"><ele>1057.0</ele><time>2026-04-29T13:40:49Z</time></trkpt><trkpt lat="44.64654658096448" lon="9.454966892899368"><ele>1057.0</ele><time>2026-04-29T13:40:50Z</time></trkpt><trkpt lat="44.64646213824115" lon="9.454960549147355"><ele>1057.0</ele><time>2026-04-29T13:40:51Z</time></trkpt><trkpt lat="44.64636162114211" lon="9.454961594528742"><ele>1057.0</ele><time>2026-04-29T13:40:52Z</time></trkpt><trkpt lat="44.646263007063446" lon="9.455000765440506"><ele>1057.0</ele><time>2026-04-29T13:40:53Z</time></trkpt><trkpt lat="44.64616948023428" lon="9.455025691288805"><ele>1057.0</ele><time>2026-04-29T13:40:54Z</time></trkpt><trkpt lat="44.64608052066186" lon="9.455004230986104"><ele>1057.4</ele><time>2026-04-29T13:40:55Z</time></trkpt><trkpt lat="44.646009736041385" lon="9.454986883208107"><ele>1057.8000000000002</ele><time>2026-04-29T13:40:56Z</time></trkpt><trkpt lat="44.64593985474319" lon="9.454999030734614"><ele>1058.2</ele><time>2026-04-29T13:40:57Z</time></trkpt><trkpt lat="44.64585215755926" lon="9.455123849931073"><ele>1058.6000000000001</ele><time>2026-04-29T13:40:59Z</time></trkpt><trkpt lat="44.64580171401882" lon="9.455269358563447"><ele>1059.0</ele><time>2026-04-29T13:41:01Z</time></trkpt><trkpt lat="44.64576514154934" lon="9.455355329154264"><ele>1059.0</ele><time>2026-04-29T13:41:02Z</time></trkpt><trkpt lat="44.645671564708884" lon="9.455428471199445"><ele>1059.0</ele><time>2026-04-29T13:41:04Z</time></trkpt><trkpt lat="44.645561964558176" lon="9.455428183209243"><ele>1059.0</ele><time>2026-04-29T13:41:06Z</time></trkpt><trkpt lat="44.645488867224884" lon="9.455409798302929"><ele>1059.0</ele><time>2026-04-29T13:41:07Z</time></trkpt><trkpt lat="44.645423718619064" lon="9.455377004603848"><ele>1059.0</ele><time>2026-04-29T13:41:08Z</time></trkpt><trkpt lat="44.64532197103537" lon="9.455348945183477"><ele>1056.8</ele><time>2026-04-29T13:41:10Z</time></trkpt><trkpt lat="44.645205431109716" lon="9.45541996776632"><ele>1054.6000000000001</ele><time>2026-04-29T13:41:12Z</time></trkpt><trkpt lat="44.64518015070919" lon="9.455528532281173"><ele>1052.4</ele><time>2026-04-29T13:41:13Z</time></trkpt><trkpt lat="44.64519038304728" lon="9.45567153517578"><ele>1050.2</ele><time>2026-04-29T13:41:14Z</time></trkpt><trkpt lat="44.645187623868416" lon="9.45579075778882"><ele>1048.0</ele><time>2026-04-29T13:41:15Z</time></trkpt><trkpt lat="44.64512907941857" lon="9.455921632111783"><ele>1048.0</ele><time>2026-04-29T13:41:17Z</time></trkpt><trkpt lat="44.6450660115329" lon="9.455989078959314"><ele>1048.0</ele><time>2026-04-29T13:41:18Z</time></trkpt><trkpt lat="44.644977630313925" lon="9.456056801660326"><ele>1048.0</ele><time>2026-04-29T13:41:19Z</time></trkpt><trkpt lat="44.644879674171925" lon="9.456152336394416"><ele>1048.0</ele><time>2026-04-29T13:41:20Z</time></trkpt><trkpt lat="44.64478108427288" lon="9.456266631766072"><ele>1048.0</ele><time>2026-04-29T13:41:21Z</time></trkpt><trkpt lat="44.644686192142316" lon="9.456356148559049"><ele>1046.5</ele><time>2026-04-29T13:41:22Z</time></trkpt><trkpt lat="44.64458749075336" lon="9.456439797204125"><ele>1045.0</ele><time>2026-04-29T13:41:23Z</time></trkpt><trkpt lat="44.64449841267269" lon="9.456538811822153"><ele>1043.5</ele><time>2026-04-29T13:41:24Z</time></trkpt><trkpt lat="44.64440815876889" lon="9.45665960219745"><ele>1042.0</ele><time>2026-04-29T13:41:25Z</time></trkpt><trkpt lat="44.644322595775954" lon="9.456773297170926"><ele>1042.0</ele><time>2026-04-29T13:41:26Z</time></trkpt><trkpt lat="44.64425385070967" lon="9.456870095957221"><ele>1042.0</ele><time>2026-04-29T13:41:27Z</time></trkpt><trkpt lat="44.644191270339604" lon="9.45696338213838"><ele>1042.0</ele><time>2026-04-29T13:41:28Z</time></trkpt><trkpt lat="44.64413650250421" lon="9.457068006499368"><ele>1042.0</ele><time>2026-04-29T13:41:29Z</time></trkpt><trkpt lat="44.64409430766767" lon="9.45721963865491"><ele>1042.0</ele><time>2026-04-29T13:41:30Z</time></trkpt><trkpt lat="44.64407094474497" lon="9.45737568364941"><ele>1040.1666666666665</ele><time>2026-04-29T13:41:31Z</time></trkpt><trkpt lat="44.644047766459465" lon="9.457503592440506"><ele>1038.3333333333333</ele><time>2026-04-29T13:41:32Z</time></trkpt><trkpt lat="44.644014927753446" lon="9.457607024324375"><ele>1036.5</ele><time>2026-04-29T13:41:33Z</time></trkpt><trkpt lat="44.64397605574366" lon="9.457697368650976"><ele>1034.6666666666667</ele><time>2026-04-29T13:41:34Z</time></trkpt><trkpt lat="44.643921102879915" lon="9.457770865355126"><ele>1032.8333333333335</ele><time>2026-04-29T13:41:35Z</time></trkpt><trkpt lat="44.643863275275784" lon="9.457853348889284"><ele>1031.0</ele><time>2026-04-29T13:41:36Z</time></trkpt><trkpt lat="44.64378355196353" lon="9.45787593839169"><ele>1031.0</ele><time>2026-04-29T13:41:37Z</time></trkpt><trkpt lat="44.64371738157149" lon="9.457921281716267"><ele>1031.0</ele><time>2026-04-29T13:41:38Z</time></trkpt><trkpt lat="44.643599574358596" lon="9.457875682439884"><ele>1031.0</ele><time>2026-04-29T13:41:40Z</time></trkpt><trkpt lat="44.64355591435791" lon="9.457804735399646"><ele>1031.0</ele><time>2026-04-29T13:41:41Z</time></trkpt><trkpt lat="44.6435175756391" lon="9.457710594292502"><ele>1031.0</ele><time>2026-04-29T13:41:42Z</time></trkpt><trkpt lat="44.64346471645323" lon="9.457608448062357"><ele>1031.0</ele><time>2026-04-29T13:41:43Z</time></trkpt><trkpt lat="44.64341117291795" lon="9.457535042656628"><ele>1030.3333333333335</ele><time>2026-04-29T13:41:44Z</time></trkpt><trkpt lat="44.64334603955949" lon="9.457489066767847"><ele>1029.6666666666667</ele><time>2026-04-29T13:41:45Z</time></trkpt><trkpt lat="44.6432821096229" lon="9.457473469603821"><ele>1029.0</ele><time>2026-04-29T13:41:46Z</time></trkpt><trkpt lat="44.64321582915331" lon="9.457465018824454"><ele>1028.3333333333333</ele><time>2026-04-29T13:41:47Z</time></trkpt><trkpt lat="44.643140453501246" lon="9.457515003191807"><ele>1027.6666666666665</ele><time>2026-04-29T13:41:48Z</time></trkpt><trkpt lat="44.643065266401045" lon="9.457598190953766"><ele>1027.0</ele><time>2026-04-29T13:41:49Z</time></trkpt><trkpt lat="44.64297858473057" lon="9.457680938711825"><ele>1027.0</ele><time>2026-04-29T13:41:50Z</time></trkpt><trkpt lat="44.642902648989924" lon="9.45774765422165"><ele>1027.0</ele><time>2026-04-29T13:41:51Z</time></trkpt><trkpt lat="44.64282705730554" lon="9.457810820214217"><ele>1027.0</ele><time>2026-04-29T13:41:52Z</time></trkpt><trkpt lat="44.64275720356714" lon="9.457866032189878"><ele>1027.0</ele><time>2026-04-29T13:41:53Z</time></trkpt><trkpt lat="44.64269237354179" lon="9.457908115776336"><ele>1027.0</ele><time>2026-04-29T13:41:54Z</time></trkpt><trkpt lat="44.64262880560955" lon="9.45793497351764"><ele>1027.0</ele><time>2026-04-29T13:41:55Z</time></trkpt><trkpt lat="44.64256934484695" lon="9.45796738270686"><ele>1025.6</ele><time>2026-04-29T13:41:56Z</time></trkpt><trkpt lat="44.642450189808955" lon="9.457880600840957"><ele>1024.2</ele><time>2026-04-29T13:41:58Z</time></trkpt><trkpt lat="44.64238553022028" lon="9.457829479674425"><ele>1022.8</ele><time>2026-04-29T13:41:59Z</time></trkpt><trkpt lat="44.64233175301802" lon="9.457735834497647"><ele>1021.4</ele><time>2026-04-29T13:42:00Z</time></trkpt><trkpt lat="44.64226632792058" lon="9.457629145563452"><ele>1020.0</ele><time>2026-04-29T13:42:01Z</time></trkpt><trkpt lat="44.64221976951874" lon="9.457514753617742"><ele>1020.0</ele><time>2026-04-29T13:42:02Z</time></trkpt><trkpt lat="44.642176162357906" lon="9.457402016737523"><ele>1020.0</ele><time>2026-04-29T13:42:03Z</time></trkpt><trkpt lat="44.64213504935298" lon="9.457319642999025"><ele>1020.0</ele><time>2026-04-29T13:42:04Z</time></trkpt><trkpt lat="44.64206416310969" lon="9.457224626835048"><ele>1020.0</ele><time>2026-04-29T13:42:05Z</time></trkpt><trkpt lat="44.64199616693482" lon="9.457138431958256"><ele>1020.0</ele><time>2026-04-29T13:42:06Z</time></trkpt><trkpt lat="44.64193646579085" lon="9.457042173530352"><ele>1020.0</ele><time>2026-04-29T13:42:07Z</time></trkpt><trkpt lat="44.64186700052124" lon="9.456964629049663"><ele>1020.5</ele><time>2026-04-29T13:42:09Z</time></trkpt><trkpt lat="44.64176252800249" lon="9.456912252799057"><ele>1021.0</ele><time>2026-04-29T13:42:11Z</time></trkpt><trkpt lat="44.64168254385516" lon="9.456887354589213"><ele>1021.5</ele><time>2026-04-29T13:42:13Z</time></trkpt><trkpt lat="44.64162204147686" lon="9.456985300891375"><ele>1022.0</ele><time>2026-04-29T13:42:14Z</time></trkpt><trkpt lat="44.641577827811766" lon="9.457073743505449"><ele>1022.5</ele><time>2026-04-29T13:42:15Z</time></trkpt><trkpt lat="44.641519453024785" lon="9.457150981712562"><ele>1023.0</ele><time>2026-04-29T13:42:16Z</time></trkpt><trkpt lat="44.64145776581412" lon="9.457234862756058"><ele>1021.1666666666666</ele><time>2026-04-29T13:42:17Z</time></trkpt><trkpt lat="44.64139481524662" lon="9.457323914842116"><ele>1019.3333333333333</ele><time>2026-04-29T13:42:18Z</time></trkpt><trkpt lat="44.641329986232364" lon="9.45741407473273"><ele>1017.5</ele><time>2026-04-29T13:42:19Z</time></trkpt><trkpt lat="44.641263756804996" lon="9.457498410078033"><ele>1015.6666666666666</ele><time>2026-04-29T13:42:20Z</time></trkpt><trkpt lat="44.641196378212875" lon="9.4575802514236"><ele>1013.8333333333333</ele><time>2026-04-29T13:42:21Z</time></trkpt><trkpt lat="44.6411280370749" lon="9.457657876561143"><ele>1012.0</ele><time>2026-04-29T13:42:22Z</time></trkpt><trkpt lat="44.641057488933136" lon="9.457736868288352"><ele>1011.9999999999999</ele><time>2026-04-29T13:42:23Z</time></trkpt><trkpt lat="44.641001246480286" lon="9.457795010313538"><ele>1012.0</ele><time>2026-04-29T13:42:24Z</time></trkpt><trkpt lat="44.6409288615233" lon="9.45785089052801"><ele>1012.0</ele><time>2026-04-29T13:42:25Z</time></trkpt><trkpt lat="44.64086002156236" lon="9.457881227201081"><ele>1012.0</ele><time>2026-04-29T13:42:26Z</time></trkpt><trkpt lat="44.640782318561946" lon="9.457914022977569"><ele>1011.9999999999999</ele><time>2026-04-29T13:42:27Z</time></trkpt><trkpt lat="44.64068956202474" lon="9.457869318724967"><ele>1012.0</ele><time>2026-04-29T13:42:28Z</time></trkpt><trkpt lat="44.64058196687876" lon="9.457841513168319"><ele>1012.0</ele><time>2026-04-29T13:42:29Z</time></trkpt><trkpt lat="44.64046068607179" lon="9.457812205931106"><ele>1012.0</ele><time>2026-04-29T13:42:30Z</time></trkpt><trkpt lat="44.64033019393756" lon="9.457782906407148"><ele>1012.0</ele><time>2026-04-29T13:42:31Z</time></trkpt><trkpt lat="44.640198702755136" lon="9.457753382540806"><ele>1012.0</ele><time>2026-04-29T13:42:32Z</time></trkpt><trkpt lat="44.64006364156839" lon="9.45772147284995"><ele>1009.5</ele><time>2026-04-29T13:42:33Z</time></trkpt><trkpt lat="44.63992846184267" lon="9.45769413655226"><ele>1007.0</ele><time>2026-04-29T13:42:34Z</time></trkpt><trkpt lat="44.63979214471286" lon="9.457694447642153"><ele>1004.5</ele><time>2026-04-29T13:42:35Z</time></trkpt><trkpt lat="44.639660692935614" lon="9.457669795209467"><ele>1002.0</ele><time>2026-04-29T13:42:36Z</time></trkpt><trkpt lat="44.63952951572022" lon="9.457679476533524"><ele>1000.5</ele><time>2026-04-29T13:42:37Z</time></trkpt><trkpt lat="44.63939653496284" lon="9.457696169351898"><ele>999.0</ele><time>2026-04-29T13:42:38Z</time></trkpt><trkpt lat="44.639249583055154" lon="9.457714595132662"><ele>997.5</ele><time>2026-04-29T13:42:39Z</time></trkpt><trkpt lat="44.639105771605365" lon="9.457733200456094"><ele>996.0</ele><time>2026-04-29T13:42:40Z</time></trkpt><trkpt lat="44.638976315440175" lon="9.457755727889499"><ele>996.0</ele><time>2026-04-29T13:42:41Z</time></trkpt><trkpt lat="44.63885280514731" lon="9.457771484796309"><ele>996.0</ele><time>2026-04-29T13:42:42Z</time></trkpt><trkpt lat="44.63873311362104" lon="9.457790733047444"><ele>996.0</ele><time>2026-04-29T13:42:43Z</time></trkpt><trkpt lat="44.63861703347984" lon="9.457811914087515"><ele>996.0</ele><time>2026-04-29T13:42:44Z</time></trkpt><trkpt lat="44.638512079397664" lon="9.45783450492878"><ele>995.6666666666666</ele><time>2026-04-29T13:42:45Z</time></trkpt><trkpt lat="44.63842419279346" lon="9.457831157246204"><ele>995.3333333333333</ele><time>2026-04-29T13:42:46Z</time></trkpt><trkpt lat="44.638351956929" lon="9.457865395002239"><ele>995.0</ele><time>2026-04-29T13:42:47Z</time></trkpt><trkpt lat="44.63828576415638" lon="9.45793614322445"><ele>994.6666666666666</ele><time>2026-04-29T13:42:48Z</time></trkpt><trkpt lat="44.63823731410209" lon="9.458050627150925"><ele>994.3333333333333</ele><time>2026-04-29T13:42:49Z</time></trkpt><trkpt lat="44.63819997685409" lon="9.458181759305775"><ele>994.0</ele><time>2026-04-29T13:42:50Z</time></trkpt><trkpt lat="44.638170345557505" lon="9.458331330661439"><ele>991.6</ele><time>2026-04-29T13:42:51Z</time></trkpt><trkpt lat="44.63813477585786" lon="9.458472296357618"><ele>989.2</ele><time>2026-04-29T13:42:52Z</time></trkpt><trkpt lat="44.63809145124818" lon="9.458602672032992"><ele>986.8000000000001</ele><time>2026-04-29T13:42:53Z</time></trkpt><trkpt lat="44.638027458966675" lon="9.458728069127865"><ele>984.4000000000001</ele><time>2026-04-29T13:42:54Z</time></trkpt><trkpt lat="44.637955627366125" lon="9.458880488529854"><ele>982.0</ele><time>2026-04-29T13:42:55Z</time></trkpt><trkpt lat="44.63787881038216" lon="9.459009471660655"><ele>981.8</ele><time>2026-04-29T13:42:56Z</time></trkpt><trkpt lat="44.63781143377442" lon="9.459137848162015"><ele>981.6</ele><time>2026-04-29T13:42:57Z</time></trkpt><trkpt lat="44.637748579330584" lon="9.459271842888981"><ele>981.3999999999999</ele><time>2026-04-29T13:42:58Z</time></trkpt><trkpt lat="44.637672007467025" lon="9.459364622492616"><ele>981.1999999999999</ele><time>2026-04-29T13:42:59Z</time></trkpt><trkpt lat="44.63759333355606" lon="9.45945212703443"><ele>981.0</ele><time>2026-04-29T13:43:00Z</time></trkpt><trkpt lat="44.63751651583111" lon="9.459535393211217"><ele>977.8</ele><time>2026-04-29T13:43:01Z</time></trkpt><trkpt lat="44.63745111550043" lon="9.459617964710512"><ele>974.5999999999999</ele><time>2026-04-29T13:43:02Z</time></trkpt><trkpt lat="44.637400273801276" lon="9.45972713747447"><ele>971.4</ele><time>2026-04-29T13:43:03Z</time></trkpt><trkpt lat="44.63733503350972" lon="9.459836340211549"><ele>968.2</ele><time>2026-04-29T13:43:04Z</time></trkpt><trkpt lat="44.63727581350852" lon="9.459958025029046"><ele>965.0</ele><time>2026-04-29T13:43:05Z</time></trkpt><trkpt lat="44.63727172966357" lon="9.460117819824534"><ele>965.0</ele><time>2026-04-29T13:43:06Z</time></trkpt><trkpt lat="44.637224642615756" lon="9.4602323644134"><ele>965.0</ele><time>2026-04-29T13:43:07Z</time></trkpt><trkpt lat="44.63717035476703" lon="9.460321462281028"><ele>965.0</ele><time>2026-04-29T13:43:08Z</time></trkpt><trkpt lat="44.63709185692331" lon="9.460420264239842"><ele>965.0</ele><time>2026-04-29T13:43:10Z</time></trkpt><trkpt lat="44.63700201006428" lon="9.460486195203002"><ele>965.0</ele><time>2026-04-29T13:43:11Z</time></trkpt><trkpt lat="44.636918122095636" lon="9.460550094169331"><ele>965.2</ele><time>2026-04-29T13:43:12Z</time></trkpt><trkpt lat="44.63684735860078" lon="9.460606931365035"><ele>965.4</ele><time>2026-04-29T13:43:13Z</time></trkpt><trkpt lat="44.636779552545754" lon="9.460760365322463"><ele>965.5999999999999</ele><time>2026-04-29T13:43:15Z</time></trkpt><trkpt lat="44.63675974451464" lon="9.460879840692895"><ele>965.8</ele><time>2026-04-29T13:43:16Z</time></trkpt><trkpt lat="44.6367310895918" lon="9.461028699087537"><ele>966.0</ele><time>2026-04-29T13:43:17Z</time></trkpt><trkpt lat="44.63671609551265" lon="9.461176163283026"><ele>964.5</ele><time>2026-04-29T13:43:18Z</time></trkpt><trkpt lat="44.63669313587453" lon="9.461316331644722"><ele>963.0</ele><time>2026-04-29T13:43:19Z</time></trkpt><trkpt lat="44.63666910651587" lon="9.461436819409176"><ele>961.5</ele><time>2026-04-29T13:43:20Z</time></trkpt><trkpt lat="44.63666171020554" lon="9.461541069948082"><ele>960.0</ele><time>2026-04-29T13:43:21Z</time></trkpt><trkpt lat="44.6366660260789" lon="9.461649297293151"><ele>958.5</ele><time>2026-04-29T13:43:22Z</time></trkpt><trkpt lat="44.636698266455" lon="9.461764944873806"><ele>957.0</ele><time>2026-04-29T13:43:23Z</time></trkpt><trkpt lat="44.63675131489805" lon="9.461883629101624"><ele>957.0</ele><time>2026-04-29T13:43:24Z</time></trkpt><trkpt lat="44.63680581189216" lon="9.462010223697177"><ele>957.0</ele><time>2026-04-29T13:43:25Z</time></trkpt><trkpt lat="44.636857940768344" lon="9.46212899518016"><ele>957.0</ele><time>2026-04-29T13:43:26Z</time></trkpt><trkpt lat="44.6369040722682" lon="9.462247483630382"><ele>957.0</ele><time>2026-04-29T13:43:27Z</time></trkpt><trkpt lat="44.63697176119818" lon="9.462383579069979"><ele>957.0</ele><time>2026-04-29T13:43:28Z</time></trkpt><trkpt lat="44.6370387685798" lon="9.462540636516758"><ele>953.25</ele><time>2026-04-29T13:43:29Z</time></trkpt><trkpt lat="44.63710318151836" lon="9.462710416842901"><ele>949.5</ele><time>2026-04-29T13:43:30Z</time></trkpt><trkpt lat="44.63716763659818" lon="9.462879253553009"><ele>945.75</ele><time>2026-04-29T13:43:31Z</time></trkpt><trkpt lat="44.63721546697216" lon="9.463036737992592"><ele>942.0</ele><time>2026-04-29T13:43:32Z</time></trkpt><trkpt lat="44.63726979017989" lon="9.463133696893891"><ele>942.0</ele><time>2026-04-29T13:43:33Z</time></trkpt><trkpt lat="44.637357208831816" lon="9.463247314877547"><ele>942.0</ele><time>2026-04-29T13:43:35Z</time></trkpt><trkpt lat="44.6374010351426" lon="9.463325987858122"><ele>942.0</ele><time>2026-04-29T13:43:36Z</time></trkpt><trkpt lat="44.6374224227101" lon="9.463520612433797"><ele>942.0</ele><time>2026-04-29T13:43:38Z</time></trkpt><trkpt lat="44.637425902074725" lon="9.4636218415945"><ele>942.0</ele><time>2026-04-29T13:43:39Z</time></trkpt><trkpt lat="44.63743585209237" lon="9.46376485954776"><ele>942.0</ele><time>2026-04-29T13:43:40Z</time></trkpt><trkpt lat="44.63742651358489" lon="9.463895350984703"><ele>942.0</ele><time>2026-04-29T13:43:41Z</time></trkpt><trkpt lat="44.63742345308078" lon="9.464011356433263"><ele>942.0</ele><time>2026-04-29T13:43:42Z</time></trkpt><trkpt lat="44.63744059626309" lon="9.464103097048001"><ele>942.0</ele><time>2026-04-29T13:43:43Z</time></trkpt><trkpt lat="44.63741003982855" lon="9.464180687249735"><ele>942.0</ele><time>2026-04-29T13:43:44Z</time></trkpt><trkpt lat="44.637350641390846" lon="9.464316961821604"><ele>942.0</ele><time>2026-04-29T13:43:46Z</time></trkpt><trkpt lat="44.63730833202491" lon="9.464400774371953"><ele>942.0</ele><time>2026-04-29T13:43:47Z</time></trkpt><trkpt lat="44.63728142471793" lon="9.464500975641839"><ele>942.0</ele><time>2026-04-29T13:43:48Z</time></trkpt><trkpt lat="44.637229334079336" lon="9.464597871411922"><ele>942.0</ele><time>2026-04-29T13:43:49Z</time></trkpt><trkpt lat="44.637209578213835" lon="9.464744505581477"><ele>942.0</ele><time>2026-04-29T13:43:50Z</time></trkpt><trkpt lat="44.63721690419496" lon="9.464843642585047"><ele>942.0</ele><time>2026-04-29T13:43:51Z</time></trkpt><trkpt lat="44.637214232941396" lon="9.465040808713228"><ele>942.2</ele><time>2026-04-29T13:43:53Z</time></trkpt><trkpt lat="44.63721728911067" lon="9.465164059897784"><ele>942.4000000000001</ele><time>2026-04-29T13:43:54Z</time></trkpt><trkpt lat="44.63722779307744" lon="9.465275376818164"><ele>942.5999999999999</ele><time>2026-04-29T13:43:55Z</time></trkpt><trkpt lat="44.63729200182414" lon="9.465428848643429"><ele>942.8</ele><time>2026-04-29T13:43:57Z</time></trkpt><trkpt lat="44.63737154803795" lon="9.465485764576142"><ele>943.0</ele><time>2026-04-29T13:43:58Z</time></trkpt><trkpt lat="44.63745697758619" lon="9.465537190425186"><ele>941.5999999999999</ele><time>2026-04-29T13:43:59Z</time></trkpt><trkpt lat="44.63755459773613" lon="9.465591410073003"><ele>940.1999999999999</ele><time>2026-04-29T13:44:00Z</time></trkpt><trkpt lat="44.6376588237571" lon="9.465645832855808"><ele>938.8</ele><time>2026-04-29T13:44:01Z</time></trkpt><trkpt lat="44.6377652010111" lon="9.465675329505842"><ele>937.4</ele><time>2026-04-29T13:44:02Z</time></trkpt><trkpt lat="44.63786575501329" lon="9.465707679089112"><ele>936.0</ele><time>2026-04-29T13:44:03Z</time></trkpt><trkpt lat="44.63796528735134" lon="9.465740075527522"><ele>936.0</ele><time>2026-04-29T13:44:04Z</time></trkpt><trkpt lat="44.6380569854664" lon="9.465778030231348"><ele>936.0</ele><time>2026-04-29T13:44:05Z</time></trkpt><trkpt lat="44.63814549502412" lon="9.46580070146891"><ele>936.0</ele><time>2026-04-29T13:44:06Z</time></trkpt><trkpt lat="44.638229438072514" lon="9.465833870211698"><ele>936.0</ele><time>2026-04-29T13:44:07Z</time></trkpt><trkpt lat="44.63830545556434" lon="9.465864211061868"><ele>936.0</ele><time>2026-04-29T13:44:08Z</time></trkpt><trkpt lat="44.638374438161065" lon="9.46590428836536"><ele>936.0</ele><time>2026-04-29T13:44:09Z</time></trkpt><trkpt lat="44.63843432183176" lon="9.465951148201189"><ele>936.0</ele><time>2026-04-29T13:44:10Z</time></trkpt><trkpt lat="44.6384802992869" lon="9.466031549651982"><ele>935.9999999999999</ele><time>2026-04-29T13:44:11Z</time></trkpt><trkpt lat="44.638486379650224" lon="9.4661414135786"><ele>935.9999999999999</ele><time>2026-04-29T13:44:12Z</time></trkpt><trkpt lat="44.63848423470166" lon="9.466340808526938"><ele>936.0</ele><time>2026-04-29T13:44:14Z</time></trkpt><trkpt lat="44.638468277840396" lon="9.466482724792595"><ele>936.0</ele><time>2026-04-29T13:44:15Z</time></trkpt><trkpt lat="44.638471886811395" lon="9.466606656431468"><ele>932.8</ele><time>2026-04-29T13:44:16Z</time></trkpt><trkpt lat="44.638498560949394" lon="9.466736566064384"><ele>929.5999999999999</ele><time>2026-04-29T13:44:17Z</time></trkpt><trkpt lat="44.638540528790074" lon="9.466858830811127"><ele>926.4</ele><time>2026-04-29T13:44:18Z</time></trkpt><trkpt lat="44.638608471651246" lon="9.46694710307804"><ele>923.2</ele><time>2026-04-29T13:44:19Z</time></trkpt><trkpt lat="44.63867065047092" lon="9.467022887515062"><ele>920.0</ele><time>2026-04-29T13:44:20Z</time></trkpt><trkpt lat="44.63874241746822" lon="9.467096705846496"><ele>923.2</ele><time>2026-04-29T13:44:21Z</time></trkpt><trkpt lat="44.63883139482632" lon="9.467172569217583"><ele>926.4</ele><time>2026-04-29T13:44:22Z</time></trkpt><trkpt lat="44.63892202646362" lon="9.467260816571953"><ele>929.5999999999999</ele><time>2026-04-29T13:44:23Z</time></trkpt><trkpt lat="44.639022481565966" lon="9.467332715118985"><ele>932.8</ele><time>2026-04-29T13:44:24Z</time></trkpt><trkpt lat="44.63912415265666" lon="9.467399542101244"><ele>936.0</ele><time>2026-04-29T13:44:25Z</time></trkpt><trkpt lat="44.63925121699433" lon="9.467504596663991"><ele>936.0</ele><time>2026-04-29T13:44:26Z</time></trkpt><trkpt lat="44.63936833714346" lon="9.467590015061772"><ele>935.9999999999999</ele><time>2026-04-29T13:44:27Z</time></trkpt><trkpt lat="44.639461104378825" lon="9.46759945055193"><ele>935.9999999999999</ele><time>2026-04-29T13:44:28Z</time></trkpt><trkpt lat="44.639557035219234" lon="9.467629774938949"><ele>936.0</ele><time>2026-04-29T13:44:29Z</time></trkpt><trkpt lat="44.6396516871229" lon="9.467642014036787"><ele>936.0</ele><time>2026-04-29T13:44:30Z</time></trkpt><trkpt lat="44.63974507094802" lon="9.467643371111137"><ele>934.1999999999999</ele><time>2026-04-29T13:44:31Z</time></trkpt><trkpt lat="44.63984544836073" lon="9.467645784767251"><ele>932.3999999999999</ele><time>2026-04-29T13:44:32Z</time></trkpt><trkpt lat="44.639950112256535" lon="9.46762662692434"><ele>930.6</ele><time>2026-04-29T13:44:33Z</time></trkpt><trkpt lat="44.640057264762476" lon="9.46758881618938"><ele>928.8</ele><time>2026-04-29T13:44:34Z</time></trkpt><trkpt lat="44.64016636476591" lon="9.467540352667521"><ele>927.0</ele><time>2026-04-29T13:44:35Z</time></trkpt><trkpt lat="44.640265989395296" lon="9.467494108034101"><ele>925.8</ele><time>2026-04-29T13:44:36Z</time></trkpt><trkpt lat="44.64036006668172" lon="9.467471439451916"><ele>924.6</ele><time>2026-04-29T13:44:37Z</time></trkpt><trkpt lat="44.640461328314785" lon="9.467497520724553"><ele>923.3999999999999</ele><time>2026-04-29T13:44:38Z</time></trkpt><trkpt lat="44.64057519357434" lon="9.467520028357129"><ele>922.1999999999999</ele><time>2026-04-29T13:44:39Z</time></trkpt><trkpt lat="44.64067313794617" lon="9.467550017794562"><ele>921.0</ele><time>2026-04-29T13:44:40Z</time></trkpt><trkpt lat="44.64074473129568" lon="9.467559545891083"><ele>921.0</ele><time>2026-04-29T13:44:41Z</time></trkpt><trkpt lat="44.64082302241196" lon="9.46759286562272"><ele>921.0</ele><time>2026-04-29T13:44:42Z</time></trkpt><trkpt lat="44.640873812665134" lon="9.467658018267247"><ele>921.0</ele><time>2026-04-29T13:44:43Z</time></trkpt><trkpt lat="44.64090126039631" lon="9.467815653351282"><ele>921.0</ele><time>2026-04-29T13:44:45Z</time></trkpt><trkpt lat="44.6408944053551" lon="9.467922112479675"><ele>921.0</ele><time>2026-04-29T13:44:46Z</time></trkpt><trkpt lat="44.64088793483429" lon="9.468048366560632"><ele>921.0</ele><time>2026-04-29T13:44:47Z</time></trkpt><trkpt lat="44.64088279398279" lon="9.468198573664367"><ele>922.5</ele><time>2026-04-29T13:44:48Z</time></trkpt><trkpt lat="44.640875593186244" lon="9.468315723780512"><ele>924.0</ele><time>2026-04-29T13:44:49Z</time></trkpt><trkpt lat="44.64090204324598" lon="9.46842003217464"><ele>925.5</ele><time>2026-04-29T13:44:50Z</time></trkpt><trkpt lat="44.64092502166986" lon="9.468525066374239"><ele>927.0</ele><time>2026-04-29T13:44:51Z</time></trkpt><trkpt lat="44.64096378455253" lon="9.468631969548232"><ele>928.5</ele><time>2026-04-29T13:44:52Z</time></trkpt><trkpt lat="44.641018928253374" lon="9.468722331241267"><ele>930.0</ele><time>2026-04-29T13:44:53Z</time></trkpt><trkpt lat="44.64107901402422" lon="9.468797880336865"><ele>925.8</ele><time>2026-04-29T13:44:54Z</time></trkpt><trkpt lat="44.64115658971997" lon="9.468885140578667"><ele>921.6</ele><time>2026-04-29T13:44:55Z</time></trkpt><trkpt lat="44.64123485300614" lon="9.468972292758838"><ele>917.4000000000001</ele><time>2026-04-29T13:44:56Z</time></trkpt><trkpt lat="44.64131087745207" lon="9.469053687311746"><ele>913.2</ele><time>2026-04-29T13:44:57Z</time></trkpt><trkpt lat="44.641383953694465" lon="9.469127828927615"><ele>909.0</ele><time>2026-04-29T13:44:58Z</time></trkpt><trkpt lat="44.64145688087509" lon="9.469195448561914"><ele>909.0</ele><time>2026-04-29T13:44:59Z</time></trkpt><trkpt lat="44.641532550395716" lon="9.469252881601577"><ele>909.0000000000001</ele><time>2026-04-29T13:45:00Z</time></trkpt><trkpt lat="44.64160880908139" lon="9.469308213534"><ele>909.0000000000001</ele><time>2026-04-29T13:45:01Z</time></trkpt><trkpt lat="44.64169865374512" lon="9.46936093445417"><ele>909.0</ele><time>2026-04-29T13:45:02Z</time></trkpt><trkpt lat="44.64180183855447" lon="9.469406461694243"><ele>909.0</ele><time>2026-04-29T13:45:03Z</time></trkpt><trkpt lat="44.641903939549046" lon="9.469430286136665"><ele>906.8571428571428</ele><time>2026-04-29T13:45:04Z</time></trkpt><trkpt lat="44.64199090214356" lon="9.46944386052277"><ele>904.7142857142858</ele><time>2026-04-29T13:45:05Z</time></trkpt><trkpt lat="44.642062979412394" lon="9.46946518205415"><ele>902.5714285714286</ele><time>2026-04-29T13:45:06Z</time></trkpt><trkpt lat="44.642124553942395" lon="9.469509850262346"><ele>900.4285714285713</ele><time>2026-04-29T13:45:07Z</time></trkpt><trkpt lat="44.64218156121516" lon="9.469568375188812"><ele>898.2857142857142</ele><time>2026-04-29T13:45:08Z</time></trkpt><trkpt lat="44.64221941200708" lon="9.469645818564498"><ele>896.1428571428571</ele><time>2026-04-29T13:45:09Z</time></trkpt><trkpt lat="44.642235454498106" lon="9.469735235375135"><ele>894.0</ele><time>2026-04-29T13:45:10Z</time></trkpt><trkpt lat="44.64222399557611" lon="9.469840628962483"><ele>894.0</ele><time>2026-04-29T13:45:11Z</time></trkpt><trkpt lat="44.64221044307125" lon="9.469945953404588"><ele>894.0000000000001</ele><time>2026-04-29T13:45:12Z</time></trkpt><trkpt lat="44.642208656188934" lon="9.470044706110222"><ele>894.0000000000001</ele><time>2026-04-29T13:45:13Z</time></trkpt><trkpt lat="44.642214590269475" lon="9.470238137466756"><ele>894.0</ele><time>2026-04-29T13:45:14Z</time></trkpt><trkpt lat="44.64222065746702" lon="9.470406513699546"><ele>894.0</ele><time>2026-04-29T13:45:15Z</time></trkpt><trkpt lat="44.64219124499996" lon="9.470581620637136"><ele>893.75</ele><time>2026-04-29T13:45:16Z</time></trkpt><trkpt lat="44.642200317193144" lon="9.470776615417972"><ele>893.5</ele><time>2026-04-29T13:45:17Z</time></trkpt><trkpt lat="44.64219840647488" lon="9.470960776265139"><ele>893.25</ele><time>2026-04-29T13:45:18Z</time></trkpt><trkpt lat="44.64221578196503" lon="9.471133945018645"><ele>893.0</ele><time>2026-04-29T13:45:19Z</time></trkpt><trkpt lat="44.642233568516026" lon="9.471287759661724"><ele>892.75</ele><time>2026-04-29T13:45:20Z</time></trkpt><trkpt lat="44.64222247355279" lon="9.471431250577721"><ele>892.5</ele><time>2026-04-29T13:45:21Z</time></trkpt><trkpt lat="44.64221490987869" lon="9.471584755676716"><ele>892.25</ele><time>2026-04-29T13:45:22Z</time></trkpt><trkpt lat="44.642196795861246" lon="9.471762973278823"><ele>892.0</ele><time>2026-04-29T13:45:23Z</time></trkpt><trkpt lat="44.6421788800925" lon="9.471938702066833"><ele>892.0</ele><time>2026-04-29T13:45:24Z</time></trkpt><trkpt lat="44.642162779234134" lon="9.472105090776996"><ele>892.0</ele><time>2026-04-29T13:45:25Z</time></trkpt><trkpt lat="44.64215734531601" lon="9.472270530987398"><ele>892.0</ele><time>2026-04-29T13:45:26Z</time></trkpt><trkpt lat="44.64213865910391" lon="9.47242393341304"><ele>892.0</ele><time>2026-04-29T13:45:27Z</time></trkpt><trkpt lat="44.64212547464258" lon="9.472558262243922"><ele>892.0</ele><time>2026-04-29T13:45:28Z</time></trkpt><trkpt lat="44.642105589026826" lon="9.47267937135991"><ele>891.8</ele><time>2026-04-29T13:45:29Z</time></trkpt><trkpt lat="44.64209554601943" lon="9.472793397923978"><ele>891.6</ele><time>2026-04-29T13:45:30Z</time></trkpt><trkpt lat="44.64209082536047" lon="9.472931605021891"><ele>891.3999999999999</ele><time>2026-04-29T13:45:32Z</time></trkpt><trkpt lat="44.64205321756634" lon="9.473062958543697"><ele>891.1999999999999</ele><time>2026-04-29T13:45:35Z</time></trkpt><trkpt lat="44.64195483424378" lon="9.473172153207015"><ele>891.0</ele><time>2026-04-29T13:45:37Z</time></trkpt><trkpt lat="44.6418878399329" lon="9.473227706240015"><ele>891.4285714285714</ele><time>2026-04-29T13:45:38Z</time></trkpt><trkpt lat="44.64182737840998" lon="9.473269788406855"><ele>891.8571428571429</ele><time>2026-04-29T13:45:39Z</time></trkpt><trkpt lat="44.64176838791933" lon="9.473318987070952"><ele>892.2857142857142</ele><time>2026-04-29T13:45:40Z</time></trkpt><trkpt lat="44.64170096478172" lon="9.473362538903924"><ele>892.7142857142858</ele><time>2026-04-29T13:45:41Z</time></trkpt><trkpt lat="44.641635985980045" lon="9.473407186868531"><ele>893.1428571428571</ele><time>2026-04-29T13:45:42Z</time></trkpt><trkpt lat="44.641567723957245" lon="9.47345373900058"><ele>893.5714285714286</ele><time>2026-04-29T13:45:43Z</time></trkpt><trkpt lat="44.641501735927946" lon="9.473483368126113"><ele>894.0</ele><time>2026-04-29T13:45:44Z</time></trkpt><trkpt lat="44.64143006179351" lon="9.473463310634227"><ele>894.0</ele><time>2026-04-29T13:45:45Z</time></trkpt><trkpt lat="44.64136578804507" lon="9.473485633998225"><ele>894.0</ele><time>2026-04-29T13:45:46Z</time></trkpt><trkpt lat="44.6412910842571" lon="9.473503755399493"><ele>894.0</ele><time>2026-04-29T13:45:48Z</time></trkpt><trkpt lat="44.64124309188969" lon="9.473605576473265"><ele>894.0</ele><time>2026-04-29T13:45:51Z</time></trkpt><trkpt lat="44.64124997400561" lon="9.473743144007212"><ele>894.0</ele><time>2026-04-29T13:45:53Z</time></trkpt><trkpt lat="44.6412479115456" lon="9.473893866419669"><ele>894.0</ele><time>2026-04-29T13:45:55Z</time></trkpt><trkpt lat="44.64124983238841" lon="9.47403861618873"><ele>891.5</ele><time>2026-04-29T13:45:57Z</time></trkpt><trkpt lat="44.64126424207008" lon="9.47420548939377"><ele>889.0</ele><time>2026-04-29T13:45:59Z</time></trkpt><trkpt lat="44.64131788848655" lon="9.474322881817338"><ele>886.5</ele><time>2026-04-29T13:46:01Z</time></trkpt><trkpt lat="44.64142105511271" lon="9.474388977820258"><ele>884.0</ele><time>2026-04-29T13:46:03Z</time></trkpt><trkpt lat="44.6415400618013" lon="9.474424652680268"><ele>884.0000000000001</ele><time>2026-04-29T13:46:05Z</time></trkpt><trkpt lat="44.641611816356814" lon="9.474443981768351"><ele>884.0</ele><time>2026-04-29T13:46:06Z</time></trkpt><trkpt lat="44.64168661085421" lon="9.474464129768975"><ele>884.0</ele><time>2026-04-29T13:46:07Z</time></trkpt><trkpt lat="44.64176933185437" lon="9.47449205786363"><ele>884.0</ele><time>2026-04-29T13:46:08Z</time></trkpt><trkpt lat="44.64184661047828" lon="9.474526171581388"><ele>884.0000000000001</ele><time>2026-04-29T13:46:09Z</time></trkpt><trkpt lat="44.64191963047908" lon="9.47458041558688"><ele>884.0</ele><time>2026-04-29T13:46:10Z</time></trkpt><trkpt lat="44.64196109895788" lon="9.474669149154893"><ele>882.2</ele><time>2026-04-29T13:46:12Z</time></trkpt><trkpt lat="44.641937960555055" lon="9.474777729861438"><ele>880.4000000000001</ele><time>2026-04-29T13:46:14Z</time></trkpt><trkpt lat="44.6418540456405" lon="9.474826209117998"><ele>878.6</ele><time>2026-04-29T13:46:16Z</time></trkpt><trkpt lat="44.641723816103344" lon="9.474886845543029"><ele>876.8</ele><time>2026-04-29T13:46:18Z</time></trkpt><trkpt lat="44.64163760301525" lon="9.474891728455871"><ele>875.0</ele><time>2026-04-29T13:46:19Z</time></trkpt><trkpt lat="44.641540045262985" lon="9.474872860202797"><ele>875.0</ele><time>2026-04-29T13:46:20Z</time></trkpt><trkpt lat="44.64142733780397" lon="9.474891143484285"><ele>875.0</ele><time>2026-04-29T13:46:21Z</time></trkpt><trkpt lat="44.64132251239289" lon="9.47490681167247"><ele>875.0</ele><time>2026-04-29T13:46:22Z</time></trkpt><trkpt lat="44.64122008455685" lon="9.474911170336037"><ele>875.0</ele><time>2026-04-29T13:46:23Z</time></trkpt><trkpt lat="44.641121456119215" lon="9.47490159351614"><ele>875.0</ele><time>2026-04-29T13:46:24Z</time></trkpt><trkpt lat="44.641043067887786" lon="9.474914995692522"><ele>874.8333333333334</ele><time>2026-04-29T13:46:25Z</time></trkpt><trkpt lat="44.64097103680487" lon="9.474928008334201"><ele>874.6666666666667</ele><time>2026-04-29T13:46:26Z</time></trkpt><trkpt lat="44.64090625635393" lon="9.474974255419715"><ele>874.5</ele><time>2026-04-29T13:46:27Z</time></trkpt><trkpt lat="44.640848134886056" lon="9.475023824287957"><ele>874.3333333333333</ele><time>2026-04-29T13:46:28Z</time></trkpt><trkpt lat="44.640821624976844" lon="9.47513126774129"><ele>874.1666666666666</ele><time>2026-04-29T13:46:29Z</time></trkpt><trkpt lat="44.64081598603575" lon="9.475239042438963"><ele>874.0</ele><time>2026-04-29T13:46:30Z</time></trkpt><trkpt lat="44.64090035095476" lon="9.475338628658404"><ele>873.4000000000001</ele><time>2026-04-29T13:46:31Z</time></trkpt><trkpt lat="44.64097454429129" lon="9.475438965158824"><ele>872.8000000000001</ele><time>2026-04-29T13:46:32Z</time></trkpt><trkpt lat="44.641044247679766" lon="9.475573500346917"><ele>872.1999999999999</ele><time>2026-04-29T13:46:33Z</time></trkpt><trkpt lat="44.64110508055972" lon="9.47569484964029"><ele>871.5999999999999</ele><time>2026-04-29T13:46:34Z</time></trkpt><trkpt lat="44.64114466522732" lon="9.475811778375043"><ele>871.0</ele><time>2026-04-29T13:46:35Z</time></trkpt><trkpt lat="44.64116123428204" lon="9.47592256517282"><ele>869.8</ele><time>2026-04-29T13:46:36Z</time></trkpt><trkpt lat="44.641164390511356" lon="9.476056855754752"><ele>868.5999999999999</ele><time>2026-04-29T13:46:37Z</time></trkpt><trkpt lat="44.64118226935483" lon="9.476183883524447"><ele>867.4</ele><time>2026-04-29T13:46:38Z</time></trkpt><trkpt lat="44.641213111427305" lon="9.476290315935682"><ele>866.2</ele><time>2026-04-29T13:46:39Z</time></trkpt><trkpt lat="44.64130232687926" lon="9.476364891633427"><ele>865.0</ele><time>2026-04-29T13:46:40Z</time></trkpt><trkpt lat="44.64139735654913" lon="9.476449993164799"><ele>863.8</ele><time>2026-04-29T13:46:41Z</time></trkpt><trkpt lat="44.641496347288076" lon="9.476516140790663"><ele>862.6</ele><time>2026-04-29T13:46:42Z</time></trkpt><trkpt lat="44.64159893330787" lon="9.47660012717685"><ele>861.4000000000001</ele><time>2026-04-29T13:46:43Z</time></trkpt><trkpt lat="44.641688237697615" lon="9.476666738125576"><ele>860.2</ele><time>2026-04-29T13:46:44Z</time></trkpt><trkpt lat="44.641791758072856" lon="9.47671787527686"><ele>859.0</ele><time>2026-04-29T13:46:45Z</time></trkpt><trkpt lat="44.641907631797444" lon="9.476758221706865"><ele>858.8333333333333</ele><time>2026-04-29T13:46:46Z</time></trkpt><trkpt lat="44.642011606940535" lon="9.47678990664387"><ele>858.6666666666666</ele><time>2026-04-29T13:46:47Z</time></trkpt><trkpt lat="44.64208780675883" lon="9.476828738014053"><ele>858.5</ele><time>2026-04-29T13:46:48Z</time></trkpt><trkpt lat="44.642134953771645" lon="9.476914291805913"><ele>858.3333333333333</ele><time>2026-04-29T13:46:49Z</time></trkpt><trkpt lat="44.64218516478633" lon="9.476999578784833"><ele>858.1666666666666</ele><time>2026-04-29T13:46:50Z</time></trkpt><trkpt lat="44.64223356305117" lon="9.477111528101817"><ele>858.0</ele><time>2026-04-29T13:46:51Z</time></trkpt><trkpt lat="44.64228054488657" lon="9.477239709453274"><ele>856.0</ele><time>2026-04-29T13:46:52Z</time></trkpt><trkpt lat="44.6423322978341" lon="9.47737356237534"><ele>854.0</ele><time>2026-04-29T13:46:53Z</time></trkpt><trkpt lat="44.642342958918746" lon="9.477526446284093"><ele>852.0</ele><time>2026-04-29T13:46:54Z</time></trkpt><trkpt lat="44.64235065697343" lon="9.477650524353622"><ele>850.0</ele><time>2026-04-29T13:46:55Z</time></trkpt><trkpt lat="44.64233853618818" lon="9.477762331323676"><ele>848.0</ele><time>2026-04-29T13:46:56Z</time></trkpt><trkpt lat="44.64231904443026" lon="9.477875680785942"><ele>846.2</ele><time>2026-04-29T13:46:57Z</time></trkpt><trkpt lat="44.64228143973511" lon="9.477983253611422"><ele>844.4</ele><time>2026-04-29T13:46:58Z</time></trkpt><trkpt lat="44.64223232523571" lon="9.478100721648474"><ele>842.6</ele><time>2026-04-29T13:46:59Z</time></trkpt><trkpt lat="44.64217066122329" lon="9.478214283434335"><ele>840.8000000000001</ele><time>2026-04-29T13:47:00Z</time></trkpt><trkpt lat="44.64210406283531" lon="9.478303869236125"><ele>839.0</ele><time>2026-04-29T13:47:01Z</time></trkpt><trkpt lat="44.642049115659745" lon="9.47838197716855"><ele>839.0</ele><time>2026-04-29T13:47:02Z</time></trkpt><trkpt lat="44.64197016526751" lon="9.478424899197737"><ele>839.0</ele><time>2026-04-29T13:47:03Z</time></trkpt><trkpt lat="44.64188479110448" lon="9.478433037973824"><ele>839.0</ele><time>2026-04-29T13:47:04Z</time></trkpt><trkpt lat="44.641790026936285" lon="9.4784362776383"><ele>839.0</ele><time>2026-04-29T13:47:05Z</time></trkpt><trkpt lat="44.641683405070026" lon="9.478431577367747"><ele>839.0</ele><time>2026-04-29T13:47:06Z</time></trkpt><trkpt lat="44.64155344612985" lon="9.47843089852828"><ele>838.75</ele><time>2026-04-29T13:47:07Z</time></trkpt><trkpt lat="44.6414177999084" lon="9.478465901336268"><ele>838.5</ele><time>2026-04-29T13:47:08Z</time></trkpt><trkpt lat="44.64127382980003" lon="9.47849187203039"><ele>838.25</ele><time>2026-04-29T13:47:09Z</time></trkpt><trkpt lat="44.64114027934028" lon="9.478518844031738"><ele>838.0</ele><time>2026-04-29T13:47:10Z</time></trkpt><trkpt lat="44.64101183974556" lon="9.478539358303683"><ele>837.9999999999999</ele><time>2026-04-29T13:47:11Z</time></trkpt><trkpt lat="44.64092067237911" lon="9.47855910470146"><ele>838.0</ele><time>2026-04-29T13:47:12Z</time></trkpt><trkpt lat="44.64084682250452" lon="9.478564641269491"><ele>838.0</ele><time>2026-04-29T13:47:13Z</time></trkpt><trkpt lat="44.640783708272075" lon="9.47861348662907"><ele>838.0</ele><time>2026-04-29T13:47:14Z</time></trkpt><trkpt lat="44.64073660145576" lon="9.478675268065013"><ele>837.9999999999999</ele><time>2026-04-29T13:47:15Z</time></trkpt><trkpt lat="44.64071026372497" lon="9.47876909972572"><ele>838.0</ele><time>2026-04-29T13:47:16Z</time></trkpt><trkpt lat="44.640724454220354" lon="9.478902146112464"><ele>836.2</ele><time>2026-04-29T13:47:17Z</time></trkpt><trkpt lat="44.640756688354855" lon="9.479039919742853"><ele>834.4</ele><time>2026-04-29T13:47:18Z</time></trkpt><trkpt lat="44.64081985262005" lon="9.479185589122492"><ele>832.6</ele><time>2026-04-29T13:47:19Z</time></trkpt><trkpt lat="44.640869135944826" lon="9.479319149467162"><ele>830.8000000000001</ele><time>2026-04-29T13:47:20Z</time></trkpt><trkpt lat="44.640939443081166" lon="9.479426805653993"><ele>829.0</ele><time>2026-04-29T13:47:21Z</time></trkpt><trkpt lat="44.641017925204245" lon="9.479521330711101"><ele>829.25</ele><time>2026-04-29T13:47:22Z</time></trkpt><trkpt lat="44.64114224943266" lon="9.479570561525689"><ele>829.5</ele><time>2026-04-29T13:47:23Z</time></trkpt><trkpt lat="44.641274651835325" lon="9.47964201676159"><ele>829.75</ele><time>2026-04-29T13:47:24Z</time></trkpt><trkpt lat="44.64138242894446" lon="9.479725365157657"><ele>830.0</ele><time>2026-04-29T13:47:25Z</time></trkpt><trkpt lat="44.641471925535726" lon="9.479786579099747"><ele>828.1666666666667</ele><time>2026-04-29T13:47:26Z</time></trkpt><trkpt lat="44.641542272162525" lon="9.4798468826199"><ele>826.3333333333334</ele><time>2026-04-29T13:47:27Z</time></trkpt><trkpt lat="44.641598639326055" lon="9.47991702960916"><ele>824.5</ele><time>2026-04-29T13:47:28Z</time></trkpt><trkpt lat="44.6416445311959" lon="9.479989607863224"><ele>822.6666666666667</ele><time>2026-04-29T13:47:29Z</time></trkpt><trkpt lat="44.64170148650396" lon="9.480114119814212"><ele>820.8333333333334</ele><time>2026-04-29T13:47:31Z</time></trkpt><trkpt lat="44.64167837688719" lon="9.480249760432194"><ele>819.0</ele><time>2026-04-29T13:47:33Z</time></trkpt><trkpt lat="44.641622015737944" lon="9.480294965630394"><ele>819.0</ele><time>2026-04-29T13:47:34Z</time></trkpt><trkpt lat="44.64154794116667" lon="9.480329944970212"><ele>819.0</ele><time>2026-04-29T13:47:35Z</time></trkpt><trkpt lat="44.64146035673731" lon="9.48036451645878"><ele>819.0</ele><time>2026-04-29T13:47:36Z</time></trkpt><trkpt lat="44.6413449176626" lon="9.480405068447167"><ele>819.0</ele><time>2026-04-29T13:47:37Z</time></trkpt><trkpt lat="44.64123248891307" lon="9.480440520621823"><ele>819.0</ele><time>2026-04-29T13:47:38Z</time></trkpt><trkpt lat="44.6411284946802" lon="9.48046832728658"><ele>816.4000000000001</ele><time>2026-04-29T13:47:39Z</time></trkpt><trkpt lat="44.64103411888175" lon="9.48050053709744"><ele>813.8</ele><time>2026-04-29T13:47:40Z</time></trkpt><trkpt lat="44.64094792238996" lon="9.480532880220776"><ele>811.2</ele><time>2026-04-29T13:47:41Z</time></trkpt><trkpt lat="44.64086538040328" lon="9.480555942268687"><ele>808.5999999999999</ele><time>2026-04-29T13:47:42Z</time></trkpt><trkpt lat="44.640793021422034" lon="9.480579283374919"><ele>806.0</ele><time>2026-04-29T13:47:43Z</time></trkpt><trkpt lat="44.64068219582408" lon="9.480641473928271"><ele>806.0</ele><time>2026-04-29T13:47:45Z</time></trkpt><trkpt lat="44.64065661749081" lon="9.480727329696354"><ele>806.0</ele><time>2026-04-29T13:47:46Z</time></trkpt><trkpt lat="44.640693749124644" lon="9.480834225308241"><ele>806.0</ele><time>2026-04-29T13:47:47Z</time></trkpt><trkpt lat="44.64073182056991" lon="9.480945923409804"><ele>806.0</ele><time>2026-04-29T13:47:48Z</time></trkpt><trkpt lat="44.64080988916604" lon="9.481064956562939"><ele>806.0</ele><time>2026-04-29T13:47:49Z</time></trkpt><trkpt lat="44.640891922190825" lon="9.481170368053663"><ele>805.0</ele><time>2026-04-29T13:47:50Z</time></trkpt><trkpt lat="44.64098567678145" lon="9.481285166735697"><ele>804.0</ele><time>2026-04-29T13:47:51Z</time></trkpt><trkpt lat="44.64109430054984" lon="9.48141125549929"><ele>803.0</ele><time>2026-04-29T13:47:52Z</time></trkpt><trkpt lat="44.64119637284435" lon="9.48152785756514"><ele>802.0</ele><time>2026-04-29T13:47:53Z</time></trkpt><trkpt lat="44.64129162191466" lon="9.481638556596707"><ele>800.6666666666666</ele><time>2026-04-29T13:47:54Z</time></trkpt><trkpt lat="44.64136166257183" lon="9.481730262874729"><ele>799.3333333333333</ele><time>2026-04-29T13:47:55Z</time></trkpt><trkpt lat="44.64141010184574" lon="9.481826820649658"><ele>798.0</ele><time>2026-04-29T13:47:56Z</time></trkpt><trkpt lat="44.64145645506662" lon="9.481927839742186"><ele>796.6666666666667</ele><time>2026-04-29T13:47:57Z</time></trkpt><trkpt lat="44.64146332264084" lon="9.482039228147896"><ele>795.3333333333334</ele><time>2026-04-29T13:47:58Z</time></trkpt><trkpt lat="44.64143787763017" lon="9.482138419120494"><ele>794.0</ele><time>2026-04-29T13:47:59Z</time></trkpt><trkpt lat="44.641383000586195" lon="9.482212647715604"><ele>794.2</ele><time>2026-04-29T13:48:00Z</time></trkpt><trkpt lat="44.641307342844115" lon="9.482260553286778"><ele>794.4000000000001</ele><time>2026-04-29T13:48:01Z</time></trkpt><trkpt lat="44.6412075792304" lon="9.482264184864947"><ele>794.6</ele><time>2026-04-29T13:48:02Z</time></trkpt><trkpt lat="44.641119107073514" lon="9.482329113127824"><ele>794.8</ele><time>2026-04-29T13:48:03Z</time></trkpt><trkpt lat="44.64103874113598" lon="9.482418098073529"><ele>795.0</ele><time>2026-04-29T13:48:04Z</time></trkpt><trkpt lat="44.64095993503192" lon="9.482541871399333"><ele>795.0</ele><time>2026-04-29T13:48:05Z</time></trkpt><trkpt lat="44.64088550277646" lon="9.482645786495787"><ele>795.0</ele><time>2026-04-29T13:48:06Z</time></trkpt><trkpt lat="44.6408026646785" lon="9.482725218181985"><ele>795.0</ele><time>2026-04-29T13:48:07Z</time></trkpt><trkpt lat="44.6407149861977" lon="9.482783831933004"><ele>795.0</ele><time>2026-04-29T13:48:08Z</time></trkpt><trkpt lat="44.64065156708929" lon="9.482817876722253"><ele>795.0</ele><time>2026-04-29T13:48:09Z</time></trkpt><trkpt lat="44.640556923304864" lon="9.48292878699001"><ele>792.4</ele><time>2026-04-29T13:48:11Z</time></trkpt><trkpt lat="44.640558354107796" lon="9.483030479256918"><ele>789.8</ele><time>2026-04-29T13:48:12Z</time></trkpt><trkpt lat="44.64060974516085" lon="9.48314179497152"><ele>787.2</ele><time>2026-04-29T13:48:13Z</time></trkpt><trkpt lat="44.640697273688055" lon="9.483245006077897"><ele>784.6</ele><time>2026-04-29T13:48:14Z</time></trkpt><trkpt lat="44.64078791194748" lon="9.483349850341186"><ele>782.0</ele><time>2026-04-29T13:48:15Z</time></trkpt><trkpt lat="44.640890809363235" lon="9.48346161360937"><ele>782.0000000000001</ele><time>2026-04-29T13:48:16Z</time></trkpt><trkpt lat="44.64098171373266" lon="9.483570322547859"><ele>782.0</ele><time>2026-04-29T13:48:17Z</time></trkpt><trkpt lat="44.64105056394303" lon="9.48366566270439"><ele>782.0</ele><time>2026-04-29T13:48:18Z</time></trkpt><trkpt lat="44.641092198153444" lon="9.483763017556923"><ele>782.0</ele><time>2026-04-29T13:48:19Z</time></trkpt><trkpt lat="44.64111734778218" lon="9.483858586061992"><ele>782.0000000000001</ele><time>2026-04-29T13:48:20Z</time></trkpt><trkpt lat="44.641118036118776" lon="9.483955825830131"><ele>782.0</ele><time>2026-04-29T13:48:21Z</time></trkpt><trkpt lat="44.641091871367735" lon="9.484042829689201"><ele>780.2</ele><time>2026-04-29T13:48:22Z</time></trkpt><trkpt lat="44.641064089101604" lon="9.484136929017744"><ele>778.4000000000001</ele><time>2026-04-29T13:48:23Z</time></trkpt><trkpt lat="44.64099310902007" lon="9.484179854373561"><ele>776.5999999999999</ele><time>2026-04-29T13:48:24Z</time></trkpt><trkpt lat="44.64090998720346" lon="9.484200044201057"><ele>774.8</ele><time>2026-04-29T13:48:25Z</time></trkpt><trkpt lat="44.64082418364542" lon="9.484177781997285"><ele>773.0</ele><time>2026-04-29T13:48:26Z</time></trkpt><trkpt lat="44.64069540810222" lon="9.484165397607374"><ele>773.0</ele><time>2026-04-29T13:48:27Z</time></trkpt><trkpt lat="44.64057391896797" lon="9.484133019093884"><ele>773.0</ele><time>2026-04-29T13:48:28Z</time></trkpt><trkpt lat="44.640455581146256" lon="9.484105423840557"><ele>773.0</ele><time>2026-04-29T13:48:29Z</time></trkpt><trkpt lat="44.64034823420894" lon="9.484103122484075"><ele>773.0</ele><time>2026-04-29T13:48:30Z</time></trkpt><trkpt lat="44.64026822398893" lon="9.484099860553588"><ele>773.0</ele><time>2026-04-29T13:48:31Z</time></trkpt><trkpt lat="44.64019152040389" lon="9.484064882556142"><ele>772.8333333333334</ele><time>2026-04-29T13:48:32Z</time></trkpt><trkpt lat="44.640115529875025" lon="9.483999321456961"><ele>772.6666666666667</ele><time>2026-04-29T13:48:33Z</time></trkpt><trkpt lat="44.64005776149733" lon="9.48390916179139"><ele>772.5</ele><time>2026-04-29T13:48:34Z</time></trkpt><trkpt lat="44.64001990848286" lon="9.483795336198401"><ele>772.3333333333333</ele><time>2026-04-29T13:48:35Z</time></trkpt><trkpt lat="44.63999524697983" lon="9.483678456498257"><ele>772.1666666666666</ele><time>2026-04-29T13:48:36Z</time></trkpt><trkpt lat="44.6399768950623" lon="9.483574488900947"><ele>772.0</ele><time>2026-04-29T13:48:37Z</time></trkpt><trkpt lat="44.63991262635827" lon="9.483502315016361"><ele>772.0</ele><time>2026-04-29T13:48:38Z</time></trkpt><trkpt lat="44.639829209827525" lon="9.483492504763436"><ele>772.0</ele><time>2026-04-29T13:48:39Z</time></trkpt><trkpt lat="44.639743223962306" lon="9.48354386802837"><ele>772.0</ele><time>2026-04-29T13:48:40Z</time></trkpt><trkpt lat="44.63967569411902" lon="9.483650029633095"><ele>772.0</ele><time>2026-04-29T13:48:41Z</time></trkpt><trkpt lat="44.6396204414778" lon="9.483789901561533"><ele>772.0</ele><time>2026-04-29T13:48:42Z</time></trkpt><trkpt lat="44.63958634775198" lon="9.483964939158005"><ele>768.25</ele><time>2026-04-29T13:48:43Z</time></trkpt><trkpt lat="44.63957052674976" lon="9.484148190893567"><ele>764.5</ele><time>2026-04-29T13:48:44Z</time></trkpt><trkpt lat="44.63956778524759" lon="9.484332630932078"><ele>760.75</ele><time>2026-04-29T13:48:45Z</time></trkpt><trkpt lat="44.63957023007863" lon="9.48449095732418"><ele>757.0</ele><time>2026-04-29T13:48:46Z</time></trkpt><trkpt lat="44.639552845457935" lon="9.484616373229754"><ele>755.5</ele><time>2026-04-29T13:48:47Z</time></trkpt><trkpt lat="44.63951936269252" lon="9.484748789841277"><ele>754.0</ele><time>2026-04-29T13:48:48Z</time></trkpt><trkpt lat="44.639477253587586" lon="9.484855329153294"><ele>752.5</ele><time>2026-04-29T13:48:49Z</time></trkpt><trkpt lat="44.63943901072411" lon="9.484934906819689"><ele>751.0</ele><time>2026-04-29T13:48:50Z</time></trkpt><trkpt lat="44.63938120309248" lon="9.484994927813602"><ele>749.5</ele><time>2026-04-29T13:48:51Z</time></trkpt><trkpt lat="44.639304837433535" lon="9.485036393986435"><ele>748.0</ele><time>2026-04-29T13:48:52Z</time></trkpt><trkpt lat="44.63923863059658" lon="9.485091522525915"><ele>747.8</ele><time>2026-04-29T13:48:53Z</time></trkpt><trkpt lat="44.63919043111326" lon="9.485191225436303"><ele>747.5999999999999</ele><time>2026-04-29T13:48:54Z</time></trkpt><trkpt lat="44.6391816104787" lon="9.485332899015106"><ele>747.4000000000001</ele><time>2026-04-29T13:48:55Z</time></trkpt><trkpt lat="44.639205296928296" lon="9.485473210840317"><ele>747.2</ele><time>2026-04-29T13:48:56Z</time></trkpt><trkpt lat="44.63924366828693" lon="9.485612251422063"><ele>747.0</ele><time>2026-04-29T13:48:57Z</time></trkpt><trkpt lat="44.639305382120554" lon="9.48573767453071"><ele>745.6</ele><time>2026-04-29T13:48:58Z</time></trkpt><trkpt lat="44.63940249697869" lon="9.4858309642351"><ele>744.2</ele><time>2026-04-29T13:48:59Z</time></trkpt><trkpt lat="44.63950161134033" lon="9.485912710884563"><ele>742.8</ele><time>2026-04-29T13:49:00Z</time></trkpt><trkpt lat="44.63956895909863" lon="9.485968845581807"><ele>741.4</ele><time>2026-04-29T13:49:01Z</time></trkpt><trkpt lat="44.63962830349611" lon="9.486125998109229"><ele>740.0</ele><time>2026-04-29T13:49:03Z</time></trkpt><trkpt lat="44.639589357149234" lon="9.486292315880664"><ele>738.2</ele><time>2026-04-29T13:49:05Z</time></trkpt><trkpt lat="44.63954583243745" lon="9.486384656705164"><ele>736.4</ele><time>2026-04-29T13:49:06Z</time></trkpt><trkpt lat="44.639463351186656" lon="9.486462722529525"><ele>734.5999999999999</ele><time>2026-04-29T13:49:07Z</time></trkpt><trkpt lat="44.6393686977737" lon="9.486484619564486"><ele>732.8</ele><time>2026-04-29T13:49:08Z</time></trkpt><trkpt lat="44.639279575643826" lon="9.486546224553836"><ele>731.0</ele><time>2026-04-29T13:49:09Z</time></trkpt><trkpt lat="44.639196802107534" lon="9.486599759173524"><ele>730.0</ele><time>2026-04-29T13:49:10Z</time></trkpt><trkpt lat="44.63911996150152" lon="9.486636644797027"><ele>729.0</ele><time>2026-04-29T13:49:11Z</time></trkpt><trkpt lat="44.63906147858918" lon="9.486714286425748"><ele>728.0</ele><time>2026-04-29T13:49:12Z</time></trkpt><trkpt lat="44.63900890184595" lon="9.486821915336087"><ele>727.0</ele><time>2026-04-29T13:49:13Z</time></trkpt><trkpt lat="44.63900309959341" lon="9.486970592941503"><ele>726.0</ele><time>2026-04-29T13:49:14Z</time></trkpt><trkpt lat="44.639024493147225" lon="9.487104894716806"><ele>724.4</ele><time>2026-04-29T13:49:15Z</time></trkpt><trkpt lat="44.63905383522245" lon="9.487257738820961"><ele>722.8</ele><time>2026-04-29T13:49:16Z</time></trkpt><trkpt lat="44.6390835670563" lon="9.487404987018898"><ele>721.1999999999999</ele><time>2026-04-29T13:49:17Z</time></trkpt><trkpt lat="44.63909716358452" lon="9.487512922901237"><ele>719.5999999999999</ele><time>2026-04-29T13:49:18Z</time></trkpt><trkpt lat="44.63909755912684" lon="9.487619636620002"><ele>718.0</ele><time>2026-04-29T13:49:19Z</time></trkpt><trkpt lat="44.63904332397646" lon="9.48773031018792"><ele>718.0</ele><time>2026-04-29T13:49:21Z</time></trkpt><trkpt lat="44.63896396957149" lon="9.487717113685854"><ele>718.0</ele><time>2026-04-29T13:49:23Z</time></trkpt><trkpt lat="44.63891984964714" lon="9.487646518440057"><ele>718.0</ele><time>2026-04-29T13:49:24Z</time></trkpt><trkpt lat="44.6388748148193" lon="9.487564569218845"><ele>718.0</ele><time>2026-04-29T13:49:25Z</time></trkpt><trkpt lat="44.63882647664898" lon="9.487506879123021"><ele>718.0</ele><time>2026-04-29T13:49:26Z</time></trkpt><trkpt lat="44.63877963406753" lon="9.487427258956737"><ele>718.0</ele><time>2026-04-29T13:49:27Z</time></trkpt><trkpt lat="44.6387075891792" lon="9.487396322071108"><ele>718.0</ele><time>2026-04-29T13:49:28Z</time></trkpt><trkpt lat="44.63863621109301" lon="9.4874295240122"><ele>716.8</ele><time>2026-04-29T13:49:29Z</time></trkpt><trkpt lat="44.638559406573265" lon="9.487452906064837"><ele>715.5999999999999</ele><time>2026-04-29T13:49:30Z</time></trkpt><trkpt lat="44.63846989747202" lon="9.487521167526412"><ele>714.4000000000001</ele><time>2026-04-29T13:49:31Z</time></trkpt><trkpt lat="44.63837730655393" lon="9.48760314627636"><ele>713.2</ele><time>2026-04-29T13:49:32Z</time></trkpt><trkpt lat="44.63827966177537" lon="9.487688512302885"><ele>712.0</ele><time>2026-04-29T13:49:33Z</time></trkpt><trkpt lat="44.6381741118717" lon="9.487779209002676"><ele>712.0</ele><time>2026-04-29T13:49:34Z</time></trkpt><trkpt lat="44.63806792888766" lon="9.48787131650454"><ele>712.0</ele><time>2026-04-29T13:49:35Z</time></trkpt><trkpt lat="44.63796508421727" lon="9.487964116242656"><ele>712.0</ele><time>2026-04-29T13:49:36Z</time></trkpt><trkpt lat="44.6378693684277" lon="9.488056566303152"><ele>712.0</ele><time>2026-04-29T13:49:37Z</time></trkpt><trkpt lat="44.637788676599" lon="9.488150755342204"><ele>711.2</ele><time>2026-04-29T13:49:38Z</time></trkpt><trkpt lat="44.637726086003504" lon="9.488259731631992"><ele>710.4000000000001</ele><time>2026-04-29T13:49:39Z</time></trkpt><trkpt lat="44.63768027514972" lon="9.488363031158613"><ele>709.5999999999999</ele><time>2026-04-29T13:49:40Z</time></trkpt><trkpt lat="44.63763998964419" lon="9.488496249039587"><ele>708.8</ele><time>2026-04-29T13:49:41Z</time></trkpt><trkpt lat="44.637619001057956" lon="9.488642660892369"><ele>708.0</ele><time>2026-04-29T13:49:42Z</time></trkpt><trkpt lat="44.63761277902861" lon="9.488802633234721"><ele>707.4</ele><time>2026-04-29T13:49:43Z</time></trkpt><trkpt lat="44.63761108627647" lon="9.488959930652012"><ele>706.8</ele><time>2026-04-29T13:49:44Z</time></trkpt><trkpt lat="44.63761145274165" lon="9.489102018007953"><ele>706.2</ele><time>2026-04-29T13:49:45Z</time></trkpt><trkpt lat="44.63762117889607" lon="9.489225824419822"><ele>705.6</ele><time>2026-04-29T13:49:46Z</time></trkpt><trkpt lat="44.63763681796292" lon="9.48934547078824"><ele>705.0</ele><time>2026-04-29T13:49:47Z</time></trkpt><trkpt lat="44.63765671247325" lon="9.489463509000098"><ele>705.0</ele><time>2026-04-29T13:49:48Z</time></trkpt><trkpt lat="44.63768110998263" lon="9.489581279852164"><ele>705.0</ele><time>2026-04-29T13:49:49Z</time></trkpt><trkpt lat="44.63770989821668" lon="9.489695663339388"><ele>705.0</ele><time>2026-04-29T13:49:50Z</time></trkpt><trkpt lat="44.63775204509281" lon="9.489811885489877"><ele>705.0</ele><time>2026-04-29T13:49:51Z</time></trkpt><trkpt lat="44.63775813145361" lon="9.489952572302705"><ele>705.0</ele><time>2026-04-29T13:49:52Z</time></trkpt><trkpt lat="44.63778305966436" lon="9.4900951354736"><ele>703.0</ele><time>2026-04-29T13:49:53Z</time></trkpt><trkpt lat="44.6378165421758" lon="9.490227021203435"><ele>701.0</ele><time>2026-04-29T13:49:54Z</time></trkpt><trkpt lat="44.637839141941676" lon="9.490356986829756"><ele>699.0</ele><time>2026-04-29T13:49:55Z</time></trkpt><trkpt lat="44.637855144478635" lon="9.49047966656317"><ele>697.0</ele><time>2026-04-29T13:49:56Z</time></trkpt><trkpt lat="44.637873726077586" lon="9.490584621069939"><ele>695.0</ele><time>2026-04-29T13:49:57Z</time></trkpt><trkpt lat="44.63786782248219" lon="9.490690540114954"><ele>693.0</ele><time>2026-04-29T13:49:58Z</time></trkpt><trkpt lat="44.637847080061015" lon="9.49079727215809"><ele>692.4</ele><time>2026-04-29T13:49:59Z</time></trkpt><trkpt lat="44.637802232537176" lon="9.490903702946724"><ele>691.8</ele><time>2026-04-29T13:50:00Z</time></trkpt><trkpt lat="44.63773165941632" lon="9.490998392967672"><ele>691.2</ele><time>2026-04-29T13:50:01Z</time></trkpt><trkpt lat="44.63768092311771" lon="9.491132684059533"><ele>690.6</ele><time>2026-04-29T13:50:02Z</time></trkpt><trkpt lat="44.63762084587456" lon="9.491285850373801"><ele>690.0</ele><time>2026-04-29T13:50:03Z</time></trkpt><trkpt lat="44.63758006401582" lon="9.491430677813108"><ele>691.4</ele><time>2026-04-29T13:50:04Z</time></trkpt><trkpt lat="44.637537256861435" lon="9.491562640293628"><ele>692.8</ele><time>2026-04-29T13:50:05Z</time></trkpt><trkpt lat="44.63749158363583" lon="9.491696592638151"><ele>694.2</ele><time>2026-04-29T13:50:06Z</time></trkpt><trkpt lat="44.637451465065254" lon="9.491822569633648"><ele>695.6</ele><time>2026-04-29T13:50:07Z</time></trkpt><trkpt lat="44.637431988329425" lon="9.491947406740776"><ele>697.0</ele><time>2026-04-29T13:50:08Z</time></trkpt><trkpt lat="44.63742062664943" lon="9.492067166461913"><ele>696.0</ele><time>2026-04-29T13:50:09Z</time></trkpt><trkpt lat="44.6374058834049" lon="9.492177383118296"><ele>695.0</ele><time>2026-04-29T13:50:10Z</time></trkpt><trkpt lat="44.63738679832608" lon="9.49227644704994"><ele>694.0</ele><time>2026-04-29T13:50:11Z</time></trkpt><trkpt lat="44.637363111780715" lon="9.492365181409133"><ele>693.0</ele><time>2026-04-29T13:50:12Z</time></trkpt><trkpt lat="44.63732198094736" lon="9.49244759729366"><ele>692.0</ele><time>2026-04-29T13:50:13Z</time></trkpt><trkpt lat="44.637265735551644" lon="9.492510885654973"><ele>691.0</ele><time>2026-04-29T13:50:14Z</time></trkpt><trkpt lat="44.63719172760086" lon="9.492554016412369"><ele>690.0</ele><time>2026-04-29T13:50:15Z</time></trkpt><trkpt lat="44.63709808901774" lon="9.492580095668805"><ele>690.0</ele><time>2026-04-29T13:50:16Z</time></trkpt><trkpt lat="44.63698029440809" lon="9.492595858060124"><ele>690.0</ele><time>2026-04-29T13:50:17Z</time></trkpt><trkpt lat="44.63685599634853" lon="9.492628824728092"><ele>690.0</ele><time>2026-04-29T13:50:18Z</time></trkpt><trkpt lat="44.636735316128785" lon="9.49266039942782"><ele>690.0</ele><time>2026-04-29T13:50:19Z</time></trkpt><trkpt lat="44.636611622005795" lon="9.492705723341754"><ele>691.75</ele><time>2026-04-29T13:50:20Z</time></trkpt><trkpt lat="44.6364827082247" lon="9.492771937990987"><ele>693.5</ele><time>2026-04-29T13:50:21Z</time></trkpt><trkpt lat="44.63636736311599" lon="9.492847782569932"><ele>695.25</ele><time>2026-04-29T13:50:22Z</time></trkpt><trkpt lat="44.636243427224585" lon="9.492913634479818"><ele>697.0</ele><time>2026-04-29T13:50:23Z</time></trkpt><trkpt lat="44.63612131226336" lon="9.492978824511793"><ele>692.0</ele><time>2026-04-29T13:50:24Z</time></trkpt><trkpt lat="44.63600498892075" lon="9.493053474206226"><ele>687.0</ele><time>2026-04-29T13:50:25Z</time></trkpt><trkpt lat="44.63588741322413" lon="9.493161675070937"><ele>682.0</ele><time>2026-04-29T13:50:26Z</time></trkpt><trkpt lat="44.63579024691067" lon="9.49325544985806"><ele>677.0</ele><time>2026-04-29T13:50:27Z</time></trkpt><trkpt lat="44.6357222873077" lon="9.493344434685026"><ele>677.0</ele><time>2026-04-29T13:50:28Z</time></trkpt><trkpt lat="44.63566030428084" lon="9.493370622593202"><ele>677.0</ele><time>2026-04-29T13:50:29Z</time></trkpt><trkpt lat="44.635581039339385" lon="9.493372042768737"><ele>677.0</ele><time>2026-04-29T13:50:30Z</time></trkpt><trkpt lat="44.63550099126512" lon="9.493327429703431"><ele>677.0</ele><time>2026-04-29T13:50:31Z</time></trkpt><trkpt lat="44.63542266130046" lon="9.493247463611318"><ele>677.0</ele><time>2026-04-29T13:50:32Z</time></trkpt><trkpt lat="44.63534175641118" lon="9.493140207063266"><ele>677.0</ele><time>2026-04-29T13:50:33Z</time></trkpt><trkpt lat="44.6352999464793" lon="9.493035092966613"><ele>676.6666666666666</ele><time>2026-04-29T13:50:34Z</time></trkpt><trkpt lat="44.635229166325" lon="9.4929807601034"><ele>676.3333333333333</ele><time>2026-04-29T13:50:35Z</time></trkpt><trkpt lat="44.63515842658181" lon="9.49296031196538"><ele>676.0</ele><time>2026-04-29T13:50:36Z</time></trkpt><trkpt lat="44.635079539519786" lon="9.492985230045887"><ele>675.6666666666666</ele><time>2026-04-29T13:50:37Z</time></trkpt><trkpt lat="44.635034728710636" lon="9.493067600495856"><ele>675.3333333333334</ele><time>2026-04-29T13:50:38Z</time></trkpt><trkpt lat="44.6349729120648" lon="9.493112508098307"><ele>675.0</ele><time>2026-04-29T13:50:39Z</time></trkpt><trkpt lat="44.634938810207885" lon="9.493208126352437"><ele>675.0</ele><time>2026-04-29T13:50:40Z</time></trkpt><trkpt lat="44.63488972545199" lon="9.49329837603537"><ele>675.0</ele><time>2026-04-29T13:50:42Z</time></trkpt><trkpt lat="44.63478121619999" lon="9.493365641441613"><ele>675.0</ele><time>2026-04-29T13:50:45Z</time></trkpt><trkpt lat="44.63463880397353" lon="9.493381843952935"><ele>675.0</ele><time>2026-04-29T13:50:47Z</time></trkpt><trkpt lat="44.63453956370929" lon="9.493396284110931"><ele>675.0</ele><time>2026-04-29T13:50:48Z</time></trkpt><trkpt lat="44.634463028736654" lon="9.493424507632465"><ele>676.0</ele><time>2026-04-29T13:50:49Z</time></trkpt><trkpt lat="44.63437028467253" lon="9.493425312040216"><ele>677.0</ele><time>2026-04-29T13:50:51Z</time></trkpt><trkpt lat="44.63427618577801" lon="9.493430607453773"><ele>678.0</ele><time>2026-04-29T13:50:53Z</time></trkpt><trkpt lat="44.63420488067727" lon="9.493464671127844"><ele>679.0</ele><time>2026-04-29T13:50:54Z</time></trkpt><trkpt lat="44.63412624905572" lon="9.493546672039157"><ele>680.0</ele><time>2026-04-29T13:50:55Z</time></trkpt><trkpt lat="44.63404673224833" lon="9.493619530417279"><ele>680.0</ele><time>2026-04-29T13:50:56Z</time></trkpt><trkpt lat="44.633987028284096" lon="9.493720362756823"><ele>680.0</ele><time>2026-04-29T13:50:57Z</time></trkpt><trkpt lat="44.63395878689349" lon="9.493838391296826"><ele>680.0</ele><time>2026-04-29T13:50:58Z</time></trkpt><trkpt lat="44.633943588443316" lon="9.493974836846562"><ele>680.0</ele><time>2026-04-29T13:50:59Z</time></trkpt><trkpt lat="44.63392216788036" lon="9.494090906226765"><ele>680.0</ele><time>2026-04-29T13:51:00Z</time></trkpt><trkpt lat="44.63388131079619" lon="9.494163195219436"><ele>680.0</ele><time>2026-04-29T13:51:01Z</time></trkpt><trkpt lat="44.63382215281595" lon="9.494220793122915"><ele>679.5</ele><time>2026-04-29T13:51:02Z</time></trkpt><trkpt lat="44.633754419749216" lon="9.49430560606035"><ele>679.0</ele><time>2026-04-29T13:51:03Z</time></trkpt><trkpt lat="44.63367581444115" lon="9.49440990926819"><ele>678.5</ele><time>2026-04-29T13:51:04Z</time></trkpt><trkpt lat="44.63359016896779" lon="9.494544736535914"><ele>678.0</ele><time>2026-04-29T13:51:05Z</time></trkpt><trkpt lat="44.63348919499627" lon="9.494664734995713"><ele>679.2</ele><time>2026-04-29T13:51:06Z</time></trkpt><trkpt lat="44.633400762664934" lon="9.49478667526468"><ele>680.4</ele><time>2026-04-29T13:51:07Z</time></trkpt><trkpt lat="44.633316173888254" lon="9.494906758260237"><ele>681.6</ele><time>2026-04-29T13:51:08Z</time></trkpt><trkpt lat="44.63324075693415" lon="9.495001296349928"><ele>682.8000000000001</ele><time>2026-04-29T13:51:09Z</time></trkpt><trkpt lat="44.6331614467049" lon="9.495087463147103"><ele>684.0</ele><time>2026-04-29T13:51:10Z</time></trkpt><trkpt lat="44.63308857177412" lon="9.495177312321752"><ele>684.0</ele><time>2026-04-29T13:51:11Z</time></trkpt><trkpt lat="44.633018258860886" lon="9.495241593694985"><ele>684.0</ele><time>2026-04-29T13:51:12Z</time></trkpt><trkpt lat="44.63294060434297" lon="9.495273369918309"><ele>684.0</ele><time>2026-04-29T13:51:13Z</time></trkpt><trkpt lat="44.63285319972375" lon="9.495280699127647"><ele>684.0</ele><time>2026-04-29T13:51:14Z</time></trkpt><trkpt lat="44.63278086012408" lon="9.495258852738477"><ele>684.0</ele><time>2026-04-29T13:51:15Z</time></trkpt><trkpt lat="44.632717341566924" lon="9.495201161180741"><ele>684.0</ele><time>2026-04-29T13:51:16Z</time></trkpt><trkpt lat="44.632661510510246" lon="9.495104489035231"><ele>684.0</ele><time>2026-04-29T13:51:17Z</time></trkpt><trkpt lat="44.63263975627243" lon="9.494960028147009"><ele>684.0</ele><time>2026-04-29T13:51:18Z</time></trkpt><trkpt lat="44.632612882917535" lon="9.49479707305818"><ele>684.0</ele><time>2026-04-29T13:51:19Z</time></trkpt><trkpt lat="44.63260077772303" lon="9.494622809212641"><ele>684.0</ele><time>2026-04-29T13:51:20Z</time></trkpt><trkpt lat="44.632568022558786" lon="9.49445896675436"><ele>687.0</ele><time>2026-04-29T13:51:21Z</time></trkpt><trkpt lat="44.63251296108484" lon="9.494310619586946"><ele>690.0</ele><time>2026-04-29T13:51:22Z</time></trkpt><trkpt lat="44.63244460174791" lon="9.494169403400793"><ele>693.0</ele><time>2026-04-29T13:51:23Z</time></trkpt><trkpt lat="44.632382590200244" lon="9.494026067717073"><ele>696.0</ele><time>2026-04-29T13:51:24Z</time></trkpt><trkpt lat="44.63232091426916" lon="9.493920312496137"><ele>696.0</ele><time>2026-04-29T13:51:25Z</time></trkpt><trkpt lat="44.632245746449776" lon="9.493829791862208"><ele>696.0</ele><time>2026-04-29T13:51:26Z</time></trkpt><trkpt lat="44.63215897002063" lon="9.493712413820331"><ele>696.0</ele><time>2026-04-29T13:51:27Z</time></trkpt><trkpt lat="44.63204717280838" lon="9.49358998859702"><ele>696.0</ele><time>2026-04-29T13:51:28Z</time></trkpt><trkpt lat="44.631920035675584" lon="9.493484865761932"><ele>698.0</ele><time>2026-04-29T13:51:29Z</time></trkpt><trkpt lat="44.63177942610219" lon="9.493422580315142"><ele>700.0</ele><time>2026-04-29T13:51:30Z</time></trkpt><trkpt lat="44.63164412535765" lon="9.493344867795901"><ele>702.0</ele><time>2026-04-29T13:51:31Z</time></trkpt><trkpt lat="44.631560806013866" lon="9.493236177362643"><ele>704.0</ele><time>2026-04-29T13:51:32Z</time></trkpt><trkpt lat="44.631497817182264" lon="9.493134269733108"><ele>704.0</ele><time>2026-04-29T13:51:33Z</time></trkpt><trkpt lat="44.63146128638346" lon="9.492997337575668"><ele>704.0</ele><time>2026-04-29T13:51:34Z</time></trkpt><trkpt lat="44.63141690626131" lon="9.492861986550055"><ele>704.0</ele><time>2026-04-29T13:51:35Z</time></trkpt><trkpt lat="44.63137245246769" lon="9.492747090399877"><ele>704.0</ele><time>2026-04-29T13:51:36Z</time></trkpt><trkpt lat="44.631318326900484" lon="9.492659373561086"><ele>704.0</ele><time>2026-04-29T13:51:37Z</time></trkpt><trkpt lat="44.63122841101134" lon="9.492595495990567"><ele>706.25</ele><time>2026-04-29T13:51:38Z</time></trkpt><trkpt lat="44.631116426979645" lon="9.492571168236333"><ele>708.5</ele><time>2026-04-29T13:51:39Z</time></trkpt><trkpt lat="44.630971339064175" lon="9.492601007025266"><ele>710.75</ele><time>2026-04-29T13:51:40Z</time></trkpt><trkpt lat="44.63081427314472" lon="9.492585895566329"><ele>713.0</ele><time>2026-04-29T13:51:41Z</time></trkpt><trkpt lat="44.63066508265748" lon="9.492638940667732"><ele>713.0</ele><time>2026-04-29T13:51:42Z</time></trkpt><trkpt lat="44.63052736638934" lon="9.492645065836887"><ele>713.0</ele><time>2026-04-29T13:51:43Z</time></trkpt><trkpt lat="44.630391556475054" lon="9.49264916130899"><ele>713.0</ele><time>2026-04-29T13:51:44Z</time></trkpt><trkpt lat="44.630271460566796" lon="9.492637785736457"><ele>713.0</ele><time>2026-04-29T13:51:45Z</time></trkpt><trkpt lat="44.63017614473248" lon="9.492578138062862"><ele>713.25</ele><time>2026-04-29T13:51:46Z</time></trkpt><trkpt lat="44.63007965170587" lon="9.49252934799304"><ele>713.5</ele><time>2026-04-29T13:51:47Z</time></trkpt><trkpt lat="44.629961217960464" lon="9.492484758724379"><ele>713.75</ele><time>2026-04-29T13:51:48Z</time></trkpt><trkpt lat="44.6298583049755" lon="9.492432694269404"><ele>714.0</ele><time>2026-04-29T13:51:49Z</time></trkpt><trkpt lat="44.62974649356775" lon="9.492359631936134"><ele>714.0</ele><time>2026-04-29T13:51:50Z</time></trkpt><trkpt lat="44.629621648668916" lon="9.492309313601778"><ele>714.0</ele><time>2026-04-29T13:51:51Z</time></trkpt><trkpt lat="44.6294866988379" lon="9.49224545961363"><ele>714.0</ele><time>2026-04-29T13:51:52Z</time></trkpt><trkpt lat="44.62935933745441" lon="9.492166229716068"><ele>714.0</ele><time>2026-04-29T13:51:53Z</time></trkpt><trkpt lat="44.62924487098046" lon="9.49210614138717"><ele>714.0</ele><time>2026-04-29T13:51:54Z</time></trkpt><trkpt lat="44.629146708370484" lon="9.492080397013895"><ele>714.0</ele><time>2026-04-29T13:51:55Z</time></trkpt><trkpt lat="44.629045854623726" lon="9.492070914864314"><ele>714.0</ele><time>2026-04-29T13:51:56Z</time></trkpt><trkpt lat="44.628960602033885" lon="9.492100071627563"><ele>714.0</ele><time>2026-04-29T13:51:57Z</time></trkpt><trkpt lat="44.62886346237889" lon="9.492195827178806"><ele>714.0</ele><time>2026-04-29T13:51:58Z</time></trkpt><trkpt lat="44.628775235504" lon="9.492378106012405"><ele>714.0</ele><time>2026-04-29T13:51:59Z</time></trkpt><trkpt lat="44.62872667914094" lon="9.492570572563384"><ele>714.0</ele><time>2026-04-29T13:52:00Z</time></trkpt><trkpt lat="44.62868177957822" lon="9.492700158432289"><ele>714.0</ele><time>2026-04-29T13:52:01Z</time></trkpt><trkpt lat="44.6286344285424" lon="9.492806309602287"><ele>714.0</ele><time>2026-04-29T13:52:02Z</time></trkpt><trkpt lat="44.628533860178386" lon="9.49287879287152"><ele>715.25</ele><time>2026-04-29T13:52:03Z</time></trkpt><trkpt lat="44.628401845838795" lon="9.492939927185752"><ele>716.5</ele><time>2026-04-29T13:52:04Z</time></trkpt><trkpt lat="44.62830041336977" lon="9.493046275259463"><ele>717.75</ele><time>2026-04-29T13:52:05Z</time></trkpt><trkpt lat="44.628239230860736" lon="9.49321595765424"><ele>719.0</ele><time>2026-04-29T13:52:06Z</time></trkpt><trkpt lat="44.628166719645634" lon="9.493344603878535"><ele>719.0</ele><time>2026-04-29T13:52:07Z</time></trkpt><trkpt lat="44.62812293300901" lon="9.493437352440406"><ele>719.0</ele><time>2026-04-29T13:52:08Z</time></trkpt><trkpt lat="44.62805562092779" lon="9.493500231497267"><ele>719.0</ele><time>2026-04-29T13:52:09Z</time></trkpt><trkpt lat="44.6279551523925" lon="9.49354442027496"><ele>719.0</ele><time>2026-04-29T13:52:10Z</time></trkpt><trkpt lat="44.62781523624321" lon="9.493592123888252"><ele>719.0</ele><time>2026-04-29T13:52:11Z</time></trkpt><trkpt lat="44.62766943461304" lon="9.493634872816717"><ele>719.2</ele><time>2026-04-29T13:52:12Z</time></trkpt><trkpt lat="44.627557827300606" lon="9.493688961721135"><ele>719.4000000000001</ele><time>2026-04-29T13:52:13Z</time></trkpt><trkpt lat="44.62746752909014" lon="9.4937256177176"><ele>719.6</ele><time>2026-04-29T13:52:14Z</time></trkpt><trkpt lat="44.62738518877533" lon="9.493777735194003"><ele>719.8</ele><time>2026-04-29T13:52:15Z</time></trkpt><trkpt lat="44.62733228063641" lon="9.493936256648636"><ele>720.0</ele><time>2026-04-29T13:52:16Z</time></trkpt><trkpt lat="44.62726026325981" lon="9.494082108908062"><ele>720.0</ele><time>2026-04-29T13:52:17Z</time></trkpt><trkpt lat="44.627205253342886" lon="9.494190255877838"><ele>720.0</ele><time>2026-04-29T13:52:18Z</time></trkpt><trkpt lat="44.62714610829691" lon="9.49424819994734"><ele>720.0</ele><time>2026-04-29T13:52:19Z</time></trkpt><trkpt lat="44.62705759310249" lon="9.494283357856034"><ele>720.0</ele><time>2026-04-29T13:52:20Z</time></trkpt><trkpt lat="44.62697631387765" lon="9.494288541881883"><ele>720.0</ele><time>2026-04-29T13:52:21Z</time></trkpt><trkpt lat="44.62687695822767" lon="9.494219845943"><ele>723.75</ele><time>2026-04-29T13:52:22Z</time></trkpt><trkpt lat="44.6267715875601" lon="9.494079403153695"><ele>727.5</ele><time>2026-04-29T13:52:23Z</time></trkpt><trkpt lat="44.62663375878705" lon="9.493989253065383"><ele>731.25</ele><time>2026-04-29T13:52:24Z</time></trkpt><trkpt lat="44.62649963554924" lon="9.493948154238485"><ele>735.0</ele><time>2026-04-29T13:52:25Z</time></trkpt><trkpt lat="44.62638816692206" lon="9.493942615495401"><ele>735.0</ele><time>2026-04-29T13:52:26Z</time></trkpt><trkpt lat="44.62630087784443" lon="9.493921230374434"><ele>735.0</ele><time>2026-04-29T13:52:27Z</time></trkpt><trkpt lat="44.62622692011852" lon="9.493860981896821"><ele>735.0</ele><time>2026-04-29T13:52:28Z</time></trkpt><trkpt lat="44.62617452464556" lon="9.493764510501745"><ele>735.0</ele><time>2026-04-29T13:52:29Z</time></trkpt><trkpt lat="44.62614875637998" lon="9.493648598796263"><ele>735.0</ele><time>2026-04-29T13:52:30Z</time></trkpt><trkpt lat="44.62613928106705" lon="9.493491145886237"><ele>734.5</ele><time>2026-04-29T13:52:31Z</time></trkpt><trkpt lat="44.626141420191246" lon="9.49328850608978"><ele>734.0</ele><time>2026-04-29T13:52:32Z</time></trkpt><trkpt lat="44.626136237347026" lon="9.493078631518753"><ele>733.5</ele><time>2026-04-29T13:52:33Z</time></trkpt><trkpt lat="44.62613503979996" lon="9.492880930152173"><ele>733.0</ele><time>2026-04-29T13:52:34Z</time></trkpt><trkpt lat="44.62614051737993" lon="9.492687691577414"><ele>735.5</ele><time>2026-04-29T13:52:35Z</time></trkpt><trkpt lat="44.62613688628993" lon="9.492525569642938"><ele>738.0</ele><time>2026-04-29T13:52:36Z</time></trkpt><trkpt lat="44.62610698876583" lon="9.492380677018314"><ele>740.5</ele><time>2026-04-29T13:52:37Z</time></trkpt><trkpt lat="44.62604390666647" lon="9.492248385986377"><ele>743.0</ele><time>2026-04-29T13:52:38Z</time></trkpt><trkpt lat="44.6259551847704" lon="9.492111921849935"><ele>747.0</ele><time>2026-04-29T13:52:39Z</time></trkpt><trkpt lat="44.62590105554942" lon="9.491993567195937"><ele>751.0</ele><time>2026-04-29T13:52:40Z</time></trkpt><trkpt lat="44.625868183597206" lon="9.49182357391441"><ele>755.0</ele><time>2026-04-29T13:52:41Z</time></trkpt><trkpt lat="44.625860216123556" lon="9.491618887079856"><ele>759.0</ele><time>2026-04-29T13:52:42Z</time></trkpt><trkpt lat="44.62585973285081" lon="9.491434744968142"><ele>759.0</ele><time>2026-04-29T13:52:43Z</time></trkpt><trkpt lat="44.62584778760362" lon="9.491291388254261"><ele>759.0</ele><time>2026-04-29T13:52:44Z</time></trkpt><trkpt lat="44.62581531409379" lon="9.491180700326101"><ele>759.0</ele><time>2026-04-29T13:52:45Z</time></trkpt><trkpt lat="44.625763590858035" lon="9.491094834957186"><ele>759.0</ele><time>2026-04-29T13:52:46Z</time></trkpt><trkpt lat="44.625695611030395" lon="9.491017074776622"><ele>759.0</ele><time>2026-04-29T13:52:47Z</time></trkpt><trkpt lat="44.62561870312105" lon="9.4909875456628"><ele>759.0</ele><time>2026-04-29T13:52:48Z</time></trkpt><trkpt lat="44.62553437546823" lon="9.490993668189"><ele>759.0</ele><time>2026-04-29T13:52:49Z</time></trkpt><trkpt lat="44.625447163683155" lon="9.491011170814252"><ele>759.0</ele><time>2026-04-29T13:52:50Z</time></trkpt><trkpt lat="44.62537048737394" lon="9.49111388105013"><ele>759.0</ele><time>2026-04-29T13:52:51Z</time></trkpt><trkpt lat="44.625311858386624" lon="9.491215342761356"><ele>759.0</ele><time>2026-04-29T13:52:52Z</time></trkpt><trkpt lat="44.62528757762409" lon="9.49134363165025"><ele>759.0</ele><time>2026-04-29T13:52:53Z</time></trkpt><trkpt lat="44.62529714611658" lon="9.491479459975409"><ele>759.0</ele><time>2026-04-29T13:52:54Z</time></trkpt><trkpt lat="44.62527369118154" lon="9.491599985477787"><ele>759.0</ele><time>2026-04-29T13:52:55Z</time></trkpt><trkpt lat="44.6252538096368" lon="9.49171751013844"><ele>759.0</ele><time>2026-04-29T13:52:56Z</time></trkpt><trkpt lat="44.62521578767822" lon="9.491826325297973"><ele>759.0</ele><time>2026-04-29T13:52:57Z</time></trkpt><trkpt lat="44.625153348039916" lon="9.491904260600169"><ele>759.0</ele><time>2026-04-29T13:52:58Z</time></trkpt><trkpt lat="44.625069304334865" lon="9.49194355660936"><ele>759.0</ele><time>2026-04-29T13:52:59Z</time></trkpt><trkpt lat="44.62497769497845" lon="9.491965043590449"><ele>759.0</ele><time>2026-04-29T13:53:00Z</time></trkpt><trkpt lat="44.62487630427285" lon="9.49198455775355"><ele>759.0</ele><time>2026-04-29T13:53:01Z</time></trkpt><trkpt lat="44.624764833069804" lon="9.491974330412535"><ele>759.0</ele><time>2026-04-29T13:53:02Z</time></trkpt><trkpt lat="44.62465775570251" lon="9.491968510894345"><ele>759.0</ele><time>2026-04-29T13:53:03Z</time></trkpt><trkpt lat="44.62454283939892" lon="9.49196244273959"><ele>759.0</ele><time>2026-04-29T13:53:04Z</time></trkpt><trkpt lat="44.624433985152926" lon="9.49195592258919"><ele>760.2</ele><time>2026-04-29T13:53:05Z</time></trkpt><trkpt lat="44.6243280284734" lon="9.491950232506866"><ele>761.4000000000001</ele><time>2026-04-29T13:53:06Z</time></trkpt><trkpt lat="44.62424481236355" lon="9.491951462846995"><ele>762.6</ele><time>2026-04-29T13:53:07Z</time></trkpt><trkpt lat="44.6241353218734" lon="9.49193840472188"><ele>763.8</ele><time>2026-04-29T13:53:08Z</time></trkpt><trkpt lat="44.62404076093148" lon="9.49192720399646"><ele>765.0</ele><time>2026-04-29T13:53:09Z</time></trkpt><trkpt lat="44.623942569155346" lon="9.491927872740803"><ele>765.0</ele><time>2026-04-29T13:53:10Z</time></trkpt><trkpt lat="44.62383799089457" lon="9.49192960906376"><ele>765.0</ele><time>2026-04-29T13:53:11Z</time></trkpt><trkpt lat="44.62372543450294" lon="9.491927827363707"><ele>765.0</ele><time>2026-04-29T13:53:12Z</time></trkpt><trkpt lat="44.6236074303831" lon="9.491919372292108"><ele>765.0</ele><time>2026-04-29T13:53:13Z</time></trkpt><trkpt lat="44.62348513610484" lon="9.491911053229686"><ele>765.0</ele><time>2026-04-29T13:53:14Z</time></trkpt><trkpt lat="44.62335892334906" lon="9.491903188559306"><ele>765.0</ele><time>2026-04-29T13:53:15Z</time></trkpt><trkpt lat="44.62324845256426" lon="9.491872579104987"><ele>765.0</ele><time>2026-04-29T13:53:16Z</time></trkpt><trkpt lat="44.623149367225054" lon="9.49181139594402"><ele>765.0</ele><time>2026-04-29T13:53:17Z</time></trkpt><trkpt lat="44.623043511355846" lon="9.49171224277444"><ele>765.0</ele><time>2026-04-29T13:53:18Z</time></trkpt><trkpt lat="44.62292316800928" lon="9.491556152013867"><ele>765.0</ele><time>2026-04-29T13:53:19Z</time></trkpt><trkpt lat="44.62280400940395" lon="9.491396574854294"><ele>765.0</ele><time>2026-04-29T13:53:20Z</time></trkpt><trkpt lat="44.622675946716384" lon="9.49125626253199"><ele>768.25</ele><time>2026-04-29T13:53:21Z</time></trkpt><trkpt lat="44.62255471071275" lon="9.491134694542733"><ele>771.5</ele><time>2026-04-29T13:53:22Z</time></trkpt><trkpt lat="44.622427587656304" lon="9.49102763995663"><ele>774.75</ele><time>2026-04-29T13:53:23Z</time></trkpt><trkpt lat="44.6223036509364" lon="9.490921134083173"><ele>778.0</ele><time>2026-04-29T13:53:24Z</time></trkpt><trkpt lat="44.62218484044045" lon="9.490822604937179"><ele>778.0</ele><time>2026-04-29T13:53:25Z</time></trkpt><trkpt lat="44.62207142028964" lon="9.490722074108572"><ele>778.0</ele><time>2026-04-29T13:53:26Z</time></trkpt><trkpt lat="44.62195471543628" lon="9.490591727484047"><ele>778.0</ele><time>2026-04-29T13:53:27Z</time></trkpt><trkpt lat="44.621840456207416" lon="9.49043948764942"><ele>778.0</ele><time>2026-04-29T13:53:28Z</time></trkpt><trkpt lat="44.62173671787096" lon="9.490286673643924"><ele>779.25</ele><time>2026-04-29T13:53:29Z</time></trkpt><trkpt lat="44.62164973956698" lon="9.490152094026296"><ele>780.5</ele><time>2026-04-29T13:53:30Z</time></trkpt><trkpt lat="44.62156723869123" lon="9.490059382462606"><ele>781.75</ele><time>2026-04-29T13:53:31Z</time></trkpt><trkpt lat="44.621470697971226" lon="9.489993633666089"><ele>783.0</ele><time>2026-04-29T13:53:32Z</time></trkpt><trkpt lat="44.62134954521397" lon="9.489930110311395"><ele>783.0</ele><time>2026-04-29T13:53:33Z</time></trkpt><trkpt lat="44.62119554783061" lon="9.489934306196085"><ele>783.0</ele><time>2026-04-29T13:53:34Z</time></trkpt><trkpt lat="44.621034056506716" lon="9.48995845565904"><ele>783.0</ele><time>2026-04-29T13:53:35Z</time></trkpt><trkpt lat="44.62087541167294" lon="9.4899839278759"><ele>783.75</ele><time>2026-04-29T13:53:36Z</time></trkpt><trkpt lat="44.620737097262" lon="9.49000177860934"><ele>784.5</ele><time>2026-04-29T13:53:37Z</time></trkpt><trkpt lat="44.620599994354876" lon="9.490010215013248"><ele>785.25</ele><time>2026-04-29T13:53:38Z</time></trkpt><trkpt lat="44.62043257920661" lon="9.489998651430573"><ele>786.0</ele><time>2026-04-29T13:53:39Z</time></trkpt><trkpt lat="44.62025165779849" lon="9.489994818770906"><ele>786.6666666666667</ele><time>2026-04-29T13:53:40Z</time></trkpt><trkpt lat="44.620068591708616" lon="9.489964092909359"><ele>787.3333333333334</ele><time>2026-04-29T13:53:41Z</time></trkpt><trkpt lat="44.61988224642843" lon="9.489928216107527"><ele>788.0</ele><time>2026-04-29T13:53:42Z</time></trkpt><trkpt lat="44.61970856099292" lon="9.48989125336748"><ele>788.0</ele><time>2026-04-29T13:53:43Z</time></trkpt><trkpt lat="44.61955520082159" lon="9.489849398531254"><ele>788.0</ele><time>2026-04-29T13:53:44Z</time></trkpt><trkpt lat="44.61941731500355" lon="9.489804613244056"><ele>788.0</ele><time>2026-04-29T13:53:45Z</time></trkpt><trkpt lat="44.619299840858105" lon="9.489771652395468"><ele>788.0</ele><time>2026-04-29T13:53:46Z</time></trkpt><trkpt lat="44.6191720793032" lon="9.489807013227757"><ele>790.0</ele><time>2026-04-29T13:53:47Z</time></trkpt><trkpt lat="44.61902418493471" lon="9.489885022198132"><ele>792.0</ele><time>2026-04-29T13:53:48Z</time></trkpt><trkpt lat="44.618873238007886" lon="9.489990618540292"><ele>794.0</ele><time>2026-04-29T13:53:49Z</time></trkpt><trkpt lat="44.618697620300004" lon="9.490039664375393"><ele>798.0</ele><time>2026-04-29T13:53:50Z</time></trkpt><trkpt lat="44.618516714032076" lon="9.490093528015983"><ele>802.0</ele><time>2026-04-29T13:53:51Z</time></trkpt><trkpt lat="44.618348006000005" lon="9.490141291941637"><ele>806.0</ele><time>2026-04-29T13:53:52Z</time></trkpt><trkpt lat="44.618200739084116" lon="9.490205890724198"><ele>806.0</ele><time>2026-04-29T13:53:53Z</time></trkpt><trkpt lat="44.618073946292775" lon="9.490218731860006"><ele>806.0</ele><time>2026-04-29T13:53:54Z</time></trkpt><trkpt lat="44.617972036729554" lon="9.49024541947088"><ele>806.0</ele><time>2026-04-29T13:53:55Z</time></trkpt><trkpt lat="44.61787281044672" lon="9.490273734491304"><ele>806.0</ele><time>2026-04-29T13:53:56Z</time></trkpt><trkpt lat="44.61776395009556" lon="9.490243082666655"><ele>806.0</ele><time>2026-04-29T13:53:57Z</time></trkpt><trkpt lat="44.61766314969114" lon="9.490169596454102"><ele>806.1999999999999</ele><time>2026-04-29T13:53:58Z</time></trkpt><trkpt lat="44.61757345337407" lon="9.490069709892744"><ele>806.4</ele><time>2026-04-29T13:53:59Z</time></trkpt><trkpt lat="44.61750210734884" lon="9.489947437886983"><ele>806.6</ele><time>2026-04-29T13:54:00Z</time></trkpt><trkpt lat="44.61745321478202" lon="9.489814192998649"><ele>806.8</ele><time>2026-04-29T13:54:01Z</time></trkpt><trkpt lat="44.61742891566102" lon="9.489686240980102"><ele>807.0</ele><time>2026-04-29T13:54:02Z</time></trkpt><trkpt lat="44.6174281332275" lon="9.489535079716912"><ele>807.0</ele><time>2026-04-29T13:54:03Z</time></trkpt><trkpt lat="44.61745929614001" lon="9.489366773745113"><ele>807.0</ele><time>2026-04-29T13:54:04Z</time></trkpt><trkpt lat="44.617517498234356" lon="9.489184880422975"><ele>807.0</ele><time>2026-04-29T13:54:05Z</time></trkpt><trkpt lat="44.61757618811684" lon="9.488998425331014"><ele>807.0</ele><time>2026-04-29T13:54:06Z</time></trkpt><trkpt lat="44.61761761688219" lon="9.488826314307476"><ele>809.25</ele><time>2026-04-29T13:54:07Z</time></trkpt><trkpt lat="44.617637417658436" lon="9.48867541390849"><ele>811.5</ele><time>2026-04-29T13:54:08Z</time></trkpt><trkpt lat="44.61763856467018" lon="9.48851837795072"><ele>813.75</ele><time>2026-04-29T13:54:09Z</time></trkpt><trkpt lat="44.61760073385627" lon="9.488370078039635"><ele>816.0</ele><time>2026-04-29T13:54:10Z</time></trkpt><trkpt lat="44.61756148565768" lon="9.48821250103682"><ele>816.0</ele><time>2026-04-29T13:54:11Z</time></trkpt><trkpt lat="44.61747366097406" lon="9.488089630156935"><ele>816.0</ele><time>2026-04-29T13:54:12Z</time></trkpt><trkpt lat="44.6173996305302" lon="9.487984235885857"><ele>816.0</ele><time>2026-04-29T13:54:13Z</time></trkpt><trkpt lat="44.617273014327054" lon="9.487865433258365"><ele>816.0</ele><time>2026-04-29T13:54:14Z</time></trkpt><trkpt lat="44.61715446447464" lon="9.48772233818363"><ele>817.0</ele><time>2026-04-29T13:54:15Z</time></trkpt><trkpt lat="44.61705625031123" lon="9.48757943030857"><ele>818.0</ele><time>2026-04-29T13:54:16Z</time></trkpt><trkpt lat="44.61697498404089" lon="9.48742762586306"><ele>819.0</ele><time>2026-04-29T13:54:17Z</time></trkpt><trkpt lat="44.616912199358154" lon="9.487255148476232"><ele>820.0</ele><time>2026-04-29T13:54:18Z</time></trkpt><trkpt lat="44.61685029685215" lon="9.487047743145123"><ele>820.0</ele><time>2026-04-29T13:54:19Z</time></trkpt><trkpt lat="44.61679050465939" lon="9.486865253135287"><ele>820.0</ele><time>2026-04-29T13:54:20Z</time></trkpt><trkpt lat="44.616714970825605" lon="9.486699736630403"><ele>820.0</ele><time>2026-04-29T13:54:21Z</time></trkpt><trkpt lat="44.61660221870445" lon="9.486523253934973"><ele>820.0</ele><time>2026-04-29T13:54:22Z</time></trkpt><trkpt lat="44.61647680459125" lon="9.486357672868587"><ele>820.0</ele><time>2026-04-29T13:54:23Z</time></trkpt><trkpt lat="44.61633971942301" lon="9.486186781660475"><ele>820.0</ele><time>2026-04-29T13:54:24Z</time></trkpt><trkpt lat="44.61622381152956" lon="9.486031245769395"><ele>820.0</ele><time>2026-04-29T13:54:25Z</time></trkpt><trkpt lat="44.61612526567049" lon="9.48589959976097"><ele>820.0</ele><time>2026-04-29T13:54:26Z</time></trkpt><trkpt lat="44.61602826254714" lon="9.4857774597105"><ele>820.0</ele><time>2026-04-29T13:54:27Z</time></trkpt><trkpt lat="44.615906503417904" lon="9.48564459514455"><ele>820.0</ele><time>2026-04-29T13:54:28Z</time></trkpt><trkpt lat="44.61578866383968" lon="9.48550895669548"><ele>827.3333333333333</ele><time>2026-04-29T13:54:29Z</time></trkpt><trkpt lat="44.6156641631366" lon="9.485382008032001"><ele>834.6666666666667</ele><time>2026-04-29T13:54:30Z</time></trkpt><trkpt lat="44.61551387101246" lon="9.485283250525352"><ele>842.0</ele><time>2026-04-29T13:54:31Z</time></trkpt><trkpt lat="44.61536331625768" lon="9.485188491440429"><ele>838.0</ele><time>2026-04-29T13:54:32Z</time></trkpt><trkpt lat="44.6152302255558" lon="9.485111266381892"><ele>834.0</ele><time>2026-04-29T13:54:33Z</time></trkpt><trkpt lat="44.615116888527616" lon="9.4850395536127"><ele>830.0</ele><time>2026-04-29T13:54:34Z</time></trkpt><trkpt lat="44.61502862353993" lon="9.484957904406901"><ele>826.0</ele><time>2026-04-29T13:54:35Z</time></trkpt><trkpt lat="44.6149543210555" lon="9.484847202986963"><ele>826.0</ele><time>2026-04-29T13:54:36Z</time></trkpt><trkpt lat="44.614877878564606" lon="9.48469003221326"><ele>826.0</ele><time>2026-04-29T13:54:37Z</time></trkpt><trkpt lat="44.61481223702728" lon="9.484527265123724"><ele>826.0</ele><time>2026-04-29T13:54:38Z</time></trkpt><trkpt lat="44.61474077322033" lon="9.484397253782602"><ele>826.0</ele><time>2026-04-29T13:54:39Z</time></trkpt><trkpt lat="44.61463439317031" lon="9.48428655498641"><ele>827.5</ele><time>2026-04-29T13:54:40Z</time></trkpt><trkpt lat="44.61450550465683" lon="9.484188059999644"><ele>829.0</ele><time>2026-04-29T13:54:41Z</time></trkpt><trkpt lat="44.61437322264063" lon="9.48410203287605"><ele>830.5</ele><time>2026-04-29T13:54:42Z</time></trkpt><trkpt lat="44.614267827856736" lon="9.484011486521187"><ele>832.0</ele><time>2026-04-29T13:54:43Z</time></trkpt><trkpt lat="44.61416848524596" lon="9.483907982608967"><ele>832.0</ele><time>2026-04-29T13:54:44Z</time></trkpt><trkpt lat="44.61406988237577" lon="9.483791680466252"><ele>832.0</ele><time>2026-04-29T13:54:45Z</time></trkpt><trkpt lat="44.613969210500514" lon="9.483643842013079"><ele>832.0</ele><time>2026-04-29T13:54:46Z</time></trkpt><trkpt lat="44.61386467747343" lon="9.483487566083474"><ele>832.0</ele><time>2026-04-29T13:54:47Z</time></trkpt><trkpt lat="44.61376125727175" lon="9.483337531192335"><ele>832.2</ele><time>2026-04-29T13:54:48Z</time></trkpt><trkpt lat="44.61367374874716" lon="9.483205487333263"><ele>832.4000000000001</ele><time>2026-04-29T13:54:49Z</time></trkpt><trkpt lat="44.61361084102628" lon="9.483086871139825"><ele>832.5999999999999</ele><time>2026-04-29T13:54:50Z</time></trkpt><trkpt lat="44.61357656231197" lon="9.482982748166664"><ele>832.8</ele><time>2026-04-29T13:54:51Z</time></trkpt><trkpt lat="44.6135641141348" lon="9.482872800254933"><ele>833.0</ele><time>2026-04-29T13:54:52Z</time></trkpt><trkpt lat="44.61358683832195" lon="9.48278492517993"><ele>833.0</ele><time>2026-04-29T13:54:53Z</time></trkpt><trkpt lat="44.61362399461312" lon="9.482675320256543"><ele>833.0</ele><time>2026-04-29T13:54:54Z</time></trkpt><trkpt lat="44.613682480984814" lon="9.482555663350233"><ele>833.0</ele><time>2026-04-29T13:54:55Z</time></trkpt><trkpt lat="44.61374859681578" lon="9.48242223138196"><ele>833.0</ele><time>2026-04-29T13:54:56Z</time></trkpt><trkpt lat="44.61378436690462" lon="9.482297317012002"><ele>833.0</ele><time>2026-04-29T13:54:57Z</time></trkpt><trkpt lat="44.61379531729198" lon="9.48215229204703"><ele>839.25</ele><time>2026-04-29T13:54:58Z</time></trkpt><trkpt lat="44.613773018395385" lon="9.481996791583287"><ele>845.5</ele><time>2026-04-29T13:54:59Z</time></trkpt><trkpt lat="44.61373493609535" lon="9.481808514095034"><ele>851.75</ele><time>2026-04-29T13:55:00Z</time></trkpt><trkpt lat="44.613701836707655" lon="9.481624102873722"><ele>858.0</ele><time>2026-04-29T13:55:01Z</time></trkpt><trkpt lat="44.61368192675636" lon="9.481428444686395"><ele>860.75</ele><time>2026-04-29T13:55:02Z</time></trkpt><trkpt lat="44.61367955153473" lon="9.481220307693839"><ele>863.5</ele><time>2026-04-29T13:55:03Z</time></trkpt><trkpt lat="44.61367099993142" lon="9.481026683071375"><ele>866.25</ele><time>2026-04-29T13:55:04Z</time></trkpt><trkpt lat="44.613643445685845" lon="9.480863330880164"><ele>869.0</ele><time>2026-04-29T13:55:05Z</time></trkpt><trkpt lat="44.61357712313228" lon="9.480713746803147"><ele>865.4000000000001</ele><time>2026-04-29T13:55:06Z</time></trkpt><trkpt lat="44.613494200400524" lon="9.480571858688663"><ele>861.8000000000001</ele><time>2026-04-29T13:55:07Z</time></trkpt><trkpt lat="44.61344323307378" lon="9.480456040110433"><ele>858.2</ele><time>2026-04-29T13:55:08Z</time></trkpt><trkpt lat="44.61342251755653" lon="9.480337472366848"><ele>854.5999999999999</ele><time>2026-04-29T13:55:09Z</time></trkpt><trkpt lat="44.61343073116015" lon="9.480210229984984"><ele>851.0</ele><time>2026-04-29T13:55:10Z</time></trkpt><trkpt lat="44.61343581278576" lon="9.480078600381026"><ele>851.0</ele><time>2026-04-29T13:55:11Z</time></trkpt><trkpt lat="44.61342185300975" lon="9.47993014620275"><ele>851.0</ele><time>2026-04-29T13:55:12Z</time></trkpt><trkpt lat="44.61342005309738" lon="9.479777506028652"><ele>851.0</ele><time>2026-04-29T13:55:13Z</time></trkpt><trkpt lat="44.61340028421861" lon="9.479625131319079"><ele>851.0</ele><time>2026-04-29T13:55:14Z</time></trkpt><trkpt lat="44.61336966773293" lon="9.479475350569428"><ele>851.0</ele><time>2026-04-29T13:55:15Z</time></trkpt><trkpt lat="44.61333952075553" lon="9.47932973644179"><ele>851.5999999999999</ele><time>2026-04-29T13:55:16Z</time></trkpt><trkpt lat="44.613329048153375" lon="9.479194765833634"><ele>852.2</ele><time>2026-04-29T13:55:17Z</time></trkpt><trkpt lat="44.61333418391077" lon="9.479080730415012"><ele>852.8000000000001</ele><time>2026-04-29T13:55:18Z</time></trkpt><trkpt lat="44.613347458247894" lon="9.47897657342819"><ele>853.4000000000001</ele><time>2026-04-29T13:55:20Z</time></trkpt><trkpt lat="44.613370609507626" lon="9.478888775864807"><ele>854.0</ele><time>2026-04-29T13:55:22Z</time></trkpt><trkpt lat="44.61335036192848" lon="9.478708819662648"><ele>855.3333333333334</ele><time>2026-04-29T13:55:49Z</time></trkpt><trkpt lat="44.6133373809426" lon="9.47856977748735"><ele>856.6666666666667</ele><time>2026-04-29T13:55:51Z</time></trkpt><trkpt lat="44.613320868069046" lon="9.478482019302477"><ele>858.0</ele><time>2026-04-29T13:55:52Z</time></trkpt><trkpt lat="44.61329253482484" lon="9.478375945785306"><ele>859.3333333333333</ele><time>2026-04-29T13:55:53Z</time></trkpt><trkpt lat="44.61325668300963" lon="9.478288800102902"><ele>860.6666666666666</ele><time>2026-04-29T13:55:54Z</time></trkpt><trkpt lat="44.613207454481696" lon="9.478219074369102"><ele>862.0</ele><time>2026-04-29T13:55:55Z</time></trkpt><trkpt lat="44.6131430583335" lon="9.478169804761716"><ele>862.0</ele><time>2026-04-29T13:55:56Z</time></trkpt><trkpt lat="44.61305699858911" lon="9.478132337897648"><ele>862.0</ele><time>2026-04-29T13:55:57Z</time></trkpt><trkpt lat="44.61295195997113" lon="9.478150984459013"><ele>862.0</ele><time>2026-04-29T13:55:58Z</time></trkpt><trkpt lat="44.6128663230126" lon="9.478208025395663"><ele>862.0</ele><time>2026-04-29T13:55:59Z</time></trkpt><trkpt lat="44.61277724415205" lon="9.478253929031165"><ele>862.0</ele><time>2026-04-29T13:56:00Z</time></trkpt><trkpt lat="44.612693672510716" lon="9.47827861434785"><ele>861.9999999999999</ele><time>2026-04-29T13:56:01Z</time></trkpt><trkpt lat="44.61262611689517" lon="9.47826631476559"><ele>862.0</ele><time>2026-04-29T13:56:02Z</time></trkpt><trkpt lat="44.61256049543067" lon="9.478224939540837"><ele>862.0</ele><time>2026-04-29T13:56:03Z</time></trkpt><trkpt lat="44.612500101272715" lon="9.478158524972178"><ele>862.0</ele><time>2026-04-29T13:56:04Z</time></trkpt><trkpt lat="44.612452691722936" lon="9.47806584113404"><ele>861.9999999999999</ele><time>2026-04-29T13:56:05Z</time></trkpt><trkpt lat="44.6124314057425" lon="9.47796109053321"><ele>862.0</ele><time>2026-04-29T13:56:06Z</time></trkpt><trkpt lat="44.61240463407837" lon="9.477804703847662"><ele>862.0</ele><time>2026-04-29T13:56:07Z</time></trkpt><trkpt lat="44.612397883442135" lon="9.477620859695346"><ele>862.0</ele><time>2026-04-29T13:56:08Z</time></trkpt><trkpt lat="44.61237483744826" lon="9.477404413376105"><ele>862.0</ele><time>2026-04-29T13:56:09Z</time></trkpt><trkpt lat="44.61234943950569" lon="9.47717765746109"><ele>866.6666666666666</ele><time>2026-04-29T13:56:10Z</time></trkpt><trkpt lat="44.6123223792553" lon="9.476946666612362"><ele>871.3333333333333</ele><time>2026-04-29T13:56:11Z</time></trkpt><trkpt lat="44.61230027208384" lon="9.476696338717286"><ele>876.0</ele><time>2026-04-29T13:56:12Z</time></trkpt><trkpt lat="44.61224803486372" lon="9.476444720575557"><ele>878.6666666666667</ele><time>2026-04-29T13:56:13Z</time></trkpt><trkpt lat="44.61218910397588" lon="9.476179368432062"><ele>881.3333333333334</ele><time>2026-04-29T13:56:14Z</time></trkpt><trkpt lat="44.61214140910778" lon="9.475925391708184"><ele>884.0</ele><time>2026-04-29T13:56:15Z</time></trkpt><trkpt lat="44.61209512070438" lon="9.475701985915682"><ele>884.0</ele><time>2026-04-29T13:56:16Z</time></trkpt><trkpt lat="44.61205688565068" lon="9.475492783677597"><ele>884.0</ele><time>2026-04-29T13:56:17Z</time></trkpt><trkpt lat="44.61200991903001" lon="9.475297310464283"><ele>884.0</ele><time>2026-04-29T13:56:18Z</time></trkpt><trkpt lat="44.61197339246072" lon="9.475088512773075"><ele>878.0</ele><time>2026-04-29T13:56:19Z</time></trkpt><trkpt lat="44.61194360492209" lon="9.474892921732437"><ele>872.0</ele><time>2026-04-29T13:56:20Z</time></trkpt><trkpt lat="44.61191299972245" lon="9.474720161259535"><ele>866.0</ele><time>2026-04-29T13:56:21Z</time></trkpt><trkpt lat="44.61187625536036" lon="9.474560133845321"><ele>860.0</ele><time>2026-04-29T13:56:22Z</time></trkpt><trkpt lat="44.61182808684942" lon="9.474409697558146"><ele>860.0</ele><time>2026-04-29T13:56:23Z</time></trkpt><trkpt lat="44.61177678622352" lon="9.474260339126982"><ele>860.0</ele><time>2026-04-29T13:56:24Z</time></trkpt><trkpt lat="44.6117086483295" lon="9.474104156540525"><ele>860.0</ele><time>2026-04-29T13:56:25Z</time></trkpt><trkpt lat="44.61163864773871" lon="9.473937245198018"><ele>860.0</ele><time>2026-04-29T13:56:26Z</time></trkpt><trkpt lat="44.61155544926918" lon="9.473773002857536"><ele>864.25</ele><time>2026-04-29T13:56:27Z</time></trkpt><trkpt lat="44.61146861265339" lon="9.473609899001463"><ele>868.5</ele><time>2026-04-29T13:56:28Z</time></trkpt><trkpt lat="44.61137897734668" lon="9.473503395783741"><ele>872.75</ele><time>2026-04-29T13:56:29Z</time></trkpt><trkpt lat="44.61127987252416" lon="9.473395297391503"><ele>877.0</ele><time>2026-04-29T13:56:30Z</time></trkpt><trkpt lat="44.61117644686463" lon="9.473268750833697"><ele>878.5</ele><time>2026-04-29T13:56:31Z</time></trkpt><trkpt lat="44.61108008264372" lon="9.47318092813715"><ele>880.0</ele><time>2026-04-29T13:56:32Z</time></trkpt><trkpt lat="44.610960723690155" lon="9.47308923030771"><ele>881.5</ele><time>2026-04-29T13:56:33Z</time></trkpt><trkpt lat="44.61080770522765" lon="9.473000734136138"><ele>883.0</ele><time>2026-04-29T13:56:34Z</time></trkpt><trkpt lat="44.61062640022324" lon="9.472927440416322"><ele>883.0</ele><time>2026-04-29T13:56:35Z</time></trkpt><trkpt lat="44.61046419073511" lon="9.472841474808185"><ele>883.0</ele><time>2026-04-29T13:56:36Z</time></trkpt><trkpt lat="44.61033532844294" lon="9.472754179728971"><ele>883.0</ele><time>2026-04-29T13:56:37Z</time></trkpt><trkpt lat="44.61021871967215" lon="9.472692564038315"><ele>883.0</ele><time>2026-04-29T13:56:38Z</time></trkpt><trkpt lat="44.61011180078486" lon="9.47267135284117"><ele>880.5999999999999</ele><time>2026-04-29T13:56:39Z</time></trkpt><trkpt lat="44.61001629819986" lon="9.472670602281939"><ele>878.1999999999999</ele><time>2026-04-29T13:56:40Z</time></trkpt><trkpt lat="44.609914282839334" lon="9.472703191589893"><ele>875.8</ele><time>2026-04-29T13:56:41Z</time></trkpt><trkpt lat="44.60982207554717" lon="9.472767121137583"><ele>873.4</ele><time>2026-04-29T13:56:42Z</time></trkpt><trkpt lat="44.60974390663114" lon="9.472852762095512"><ele>871.0</ele><time>2026-04-29T13:56:43Z</time></trkpt><trkpt lat="44.60969411515731" lon="9.47299764842032"><ele>871.0</ele><time>2026-04-29T13:56:44Z</time></trkpt><trkpt lat="44.60964531789242" lon="9.473117454487635"><ele>871.0</ele><time>2026-04-29T13:56:45Z</time></trkpt><trkpt lat="44.609653351452344" lon="9.473282484133716"><ele>871.0</ele><time>2026-04-29T13:56:46Z</time></trkpt><trkpt lat="44.609671469852536" lon="9.473454458345653"><ele>871.0</ele><time>2026-04-29T13:56:47Z</time></trkpt><trkpt lat="44.60971623457087" lon="9.473597777124581"><ele>871.0</ele><time>2026-04-29T13:56:48Z</time></trkpt><trkpt lat="44.60978698717548" lon="9.473735968128972"><ele>871.0</ele><time>2026-04-29T13:56:49Z</time></trkpt><trkpt lat="44.60988032939024" lon="9.473865280939174"><ele>871.0</ele><time>2026-04-29T13:56:50Z</time></trkpt><trkpt lat="44.60996589790097" lon="9.473991642340202"><ele>871.0</ele><time>2026-04-29T13:56:51Z</time></trkpt><trkpt lat="44.610032174621736" lon="9.474112102412498"><ele>871.5999999999999</ele><time>2026-04-29T13:56:52Z</time></trkpt><trkpt lat="44.61008121892835" lon="9.474234229716192"><ele>872.1999999999999</ele><time>2026-04-29T13:56:53Z</time></trkpt><trkpt lat="44.61009256489306" lon="9.474367659961109"><ele>872.8000000000001</ele><time>2026-04-29T13:56:54Z</time></trkpt><trkpt lat="44.610080922567704" lon="9.474464499019275"><ele>873.4000000000001</ele><time>2026-04-29T13:56:55Z</time></trkpt><trkpt lat="44.610051541464316" lon="9.474588308256521"><ele>874.0</ele><time>2026-04-29T13:56:56Z</time></trkpt><trkpt lat="44.609985918949135" lon="9.474718203040345"><ele>874.0</ele><time>2026-04-29T13:56:57Z</time></trkpt><trkpt lat="44.60989884267876" lon="9.474862668565645"><ele>874.0</ele><time>2026-04-29T13:56:58Z</time></trkpt><trkpt lat="44.609824019516566" lon="9.474998122973258"><ele>874.0</ele><time>2026-04-29T13:56:59Z</time></trkpt><trkpt lat="44.609769492002435" lon="9.47515306479346"><ele>874.0</ele><time>2026-04-29T13:57:00Z</time></trkpt><trkpt lat="44.60973970378262" lon="9.475330507971844"><ele>873.8000000000001</ele><time>2026-04-29T13:57:01Z</time></trkpt><trkpt lat="44.609715081211455" lon="9.475506819513736"><ele>873.6000000000001</ele><time>2026-04-29T13:57:02Z</time></trkpt><trkpt lat="44.609686672221386" lon="9.475634110883274"><ele>873.4</ele><time>2026-04-29T13:57:03Z</time></trkpt><trkpt lat="44.60963388420967" lon="9.475752146805798"><ele>873.2</ele><time>2026-04-29T13:57:04Z</time></trkpt><trkpt lat="44.6095476643528" lon="9.475875759136233"><ele>873.0</ele><time>2026-04-29T13:57:05Z</time></trkpt><trkpt lat="44.609448911034384" lon="9.476007246705473"><ele>880.6666666666667</ele><time>2026-04-29T13:57:06Z</time></trkpt><trkpt lat="44.60933966774694" lon="9.476158652880153"><ele>888.3333333333334</ele><time>2026-04-29T13:57:07Z</time></trkpt><trkpt lat="44.609252148489645" lon="9.476323378731658"><ele>896.0</ele><time>2026-04-29T13:57:08Z</time></trkpt><trkpt lat="44.60917429310121" lon="9.476510573125395"><ele>896.0</ele><time>2026-04-29T13:57:09Z</time></trkpt><trkpt lat="44.60911681003369" lon="9.476703032045782"><ele>896.0</ele><time>2026-04-29T13:57:10Z</time></trkpt><trkpt lat="44.60903581428887" lon="9.47685327715518"><ele>896.0</ele><time>2026-04-29T13:57:11Z</time></trkpt><trkpt lat="44.60899246893591" lon="9.477007715295706"><ele>896.0</ele><time>2026-04-29T13:57:12Z</time></trkpt><trkpt lat="44.60895224618335" lon="9.47714317503903"><ele>895.5999999999999</ele><time>2026-04-29T13:57:13Z</time></trkpt><trkpt lat="44.60892205512333" lon="9.477273888458909"><ele>895.1999999999999</ele><time>2026-04-29T13:57:14Z</time></trkpt><trkpt lat="44.60895212851335" lon="9.477399354535397"><ele>894.8000000000001</ele><time>2026-04-29T13:57:15Z</time></trkpt><trkpt lat="44.60899070335339" lon="9.477530145554516"><ele>894.4000000000001</ele><time>2026-04-29T13:57:16Z</time></trkpt><trkpt lat="44.60906013704744" lon="9.477638075339415"><ele>894.0</ele><time>2026-04-29T13:57:17Z</time></trkpt><trkpt lat="44.60916366930528" lon="9.477752464707224"><ele>894.0</ele><time>2026-04-29T13:57:18Z</time></trkpt><trkpt lat="44.609272031893795" lon="9.47788256681259"><ele>894.0</ele><time>2026-04-29T13:57:19Z</time></trkpt><trkpt lat="44.60936585594219" lon="9.477985212148294"><ele>894.0</ele><time>2026-04-29T13:57:20Z</time></trkpt><trkpt lat="44.609435710748826" lon="9.47808612609625"><ele>894.0</ele><time>2026-04-29T13:57:21Z</time></trkpt><trkpt lat="44.60947820584908" lon="9.478202532164483"><ele>896.2</ele><time>2026-04-29T13:57:22Z</time></trkpt><trkpt lat="44.60948118300692" lon="9.478351957186991"><ele>898.4000000000001</ele><time>2026-04-29T13:57:23Z</time></trkpt><trkpt lat="44.60947351179616" lon="9.478475285611504"><ele>900.6</ele><time>2026-04-29T13:57:24Z</time></trkpt><trkpt lat="44.60942825450448" lon="9.478573874621897"><ele>902.8</ele><time>2026-04-29T13:57:25Z</time></trkpt><trkpt lat="44.60937253320991" lon="9.47871660683064"><ele>905.0</ele><time>2026-04-29T13:57:26Z</time></trkpt><trkpt lat="44.60933923505181" lon="9.478887954422005"><ele>906.0</ele><time>2026-04-29T13:57:27Z</time></trkpt><trkpt lat="44.60931145625087" lon="9.47906414409256"><ele>907.0</ele><time>2026-04-29T13:57:28Z</time></trkpt><trkpt lat="44.6093131277247" lon="9.47927799272349"><ele>908.0</ele><time>2026-04-29T13:57:29Z</time></trkpt><trkpt lat="44.60932007408862" lon="9.479488321683887"><ele>909.0</ele><time>2026-04-29T13:57:30Z</time></trkpt><trkpt lat="44.60933802589861" lon="9.479677052130604"><ele>910.5</ele><time>2026-04-29T13:57:31Z</time></trkpt><trkpt lat="44.6093469935055" lon="9.47983829466849"><ele>912.0</ele><time>2026-04-29T13:57:32Z</time></trkpt><trkpt lat="44.60937560877952" lon="9.479977964784638"><ele>913.5</ele><time>2026-04-29T13:57:33Z</time></trkpt><trkpt lat="44.60944395662275" lon="9.480109954423211"><ele>915.0</ele><time>2026-04-29T13:57:34Z</time></trkpt><trkpt lat="44.60952855869025" lon="9.480265534783578"><ele>910.8</ele><time>2026-04-29T13:57:35Z</time></trkpt><trkpt lat="44.609618386548576" lon="9.480428479304695"><ele>906.6</ele><time>2026-04-29T13:57:36Z</time></trkpt><trkpt lat="44.6096669150879" lon="9.480577117831487"><ele>902.4000000000001</ele><time>2026-04-29T13:57:37Z</time></trkpt><trkpt lat="44.60969298050237" lon="9.480693460555361"><ele>898.2</ele><time>2026-04-29T13:57:38Z</time></trkpt><trkpt lat="44.60969544436222" lon="9.480788585493078"><ele>894.0</ele><time>2026-04-29T13:57:39Z</time></trkpt><trkpt lat="44.60967311565735" lon="9.480893636007258"><ele>894.0</ele><time>2026-04-29T13:57:40Z</time></trkpt><trkpt lat="44.60963849299188" lon="9.481025143791888"><ele>894.0</ele><time>2026-04-29T13:57:41Z</time></trkpt><trkpt lat="44.60954851138742" lon="9.48115228203505"><ele>894.0</ele><time>2026-04-29T13:57:42Z</time></trkpt><trkpt lat="44.60945389765048" lon="9.481325079695926"><ele>894.0</ele><time>2026-04-29T13:57:43Z</time></trkpt><trkpt lat="44.609349985748835" lon="9.481494261128415"><ele>901.0</ele><time>2026-04-29T13:57:44Z</time></trkpt><trkpt lat="44.60924884788496" lon="9.481669784329963"><ele>908.0</ele><time>2026-04-29T13:57:45Z</time></trkpt><trkpt lat="44.60915463910232" lon="9.48184955538986"><ele>915.0</ele><time>2026-04-29T13:57:46Z</time></trkpt><trkpt lat="44.60906742947201" lon="9.48199587337818"><ele>914.6</ele><time>2026-04-29T13:57:47Z</time></trkpt><trkpt lat="44.60899666504232" lon="9.482121893924857"><ele>914.2</ele><time>2026-04-29T13:57:48Z</time></trkpt><trkpt lat="44.60895794285585" lon="9.482237343347817"><ele>913.8</ele><time>2026-04-29T13:57:49Z</time></trkpt><trkpt lat="44.60893807581431" lon="9.482362446669411"><ele>913.4</ele><time>2026-04-29T13:57:50Z</time></trkpt><trkpt lat="44.60895754598442" lon="9.482489937619388"><ele>913.0</ele><time>2026-04-29T13:57:51Z</time></trkpt><trkpt lat="44.609000878059454" lon="9.482639724227491"><ele>912.9999999999999</ele><time>2026-04-29T13:57:52Z</time></trkpt><trkpt lat="44.60902691514157" lon="9.482807846105878"><ele>913.0</ele><time>2026-04-29T13:57:53Z</time></trkpt><trkpt lat="44.60903777755988" lon="9.482930223346525"><ele>913.0</ele><time>2026-04-29T13:57:54Z</time></trkpt><trkpt lat="44.609027079796626" lon="9.483027539296959"><ele>913.0</ele><time>2026-04-29T13:57:55Z</time></trkpt><trkpt lat="44.60900685861569" lon="9.483114677961916"><ele>912.9999999999999</ele><time>2026-04-29T13:57:56Z</time></trkpt><trkpt lat="44.60897700975586" lon="9.48320115485602"><ele>913.0</ele><time>2026-04-29T13:57:57Z</time></trkpt><trkpt lat="44.60890937312734" lon="9.483264105140027"><ele>913.8</ele><time>2026-04-29T13:57:58Z</time></trkpt><trkpt lat="44.60887852341784" lon="9.483349056452669"><ele>914.5999999999999</ele><time>2026-04-29T13:57:59Z</time></trkpt><trkpt lat="44.608815513077886" lon="9.483396058384585"><ele>915.4000000000001</ele><time>2026-04-29T13:58:00Z</time></trkpt><trkpt lat="44.608727242156405" lon="9.483440962814147"><ele>916.2</ele><time>2026-04-29T13:58:01Z</time></trkpt><trkpt lat="44.60862055285551" lon="9.483483958517166"><ele>917.0</ele><time>2026-04-29T13:58:02Z</time></trkpt><trkpt lat="44.60848745004554" lon="9.48343613313061"><ele>918.75</ele><time>2026-04-29T13:58:03Z</time></trkpt><trkpt lat="44.608349847007524" lon="9.483515703514398"><ele>920.5</ele><time>2026-04-29T13:58:04Z</time></trkpt><trkpt lat="44.608242782873766" lon="9.483623612606232"><ele>922.25</ele><time>2026-04-29T13:58:05Z</time></trkpt><trkpt lat="44.60813928336406" lon="9.483743433064205"><ele>924.0</ele><time>2026-04-29T13:58:06Z</time></trkpt><trkpt lat="44.608041345258" lon="9.483839382755857"><ele>922.5</ele><time>2026-04-29T13:58:07Z</time></trkpt><trkpt lat="44.607931892737405" lon="9.483923993128837"><ele>921.0</ele><time>2026-04-29T13:58:08Z</time></trkpt><trkpt lat="44.60781059140199" lon="9.484016979590642"><ele>919.5</ele><time>2026-04-29T13:58:09Z</time></trkpt><trkpt lat="44.60769623034169" lon="9.48410178020257"><ele>918.0</ele><time>2026-04-29T13:58:10Z</time></trkpt><trkpt lat="44.6075905276608" lon="9.484179796319989"><ele>918.0</ele><time>2026-04-29T13:58:11Z</time></trkpt><trkpt lat="44.607490868187725" lon="9.48424223891787"><ele>918.0</ele><time>2026-04-29T13:58:12Z</time></trkpt><trkpt lat="44.607399401892145" lon="9.484288023115782"><ele>918.0</ele><time>2026-04-29T13:58:13Z</time></trkpt><trkpt lat="44.60730192164291" lon="9.484326226962258"><ele>918.0</ele><time>2026-04-29T13:58:14Z</time></trkpt><trkpt lat="44.60722101810211" lon="9.484349084316694"><ele>918.0</ele><time>2026-04-29T13:58:15Z</time></trkpt><trkpt lat="44.60711471755894" lon="9.484346631314624"><ele>918.0</ele><time>2026-04-29T13:58:16Z</time></trkpt><trkpt lat="44.607005229855254" lon="9.484325171616003"><ele>918.0</ele><time>2026-04-29T13:58:17Z</time></trkpt><trkpt lat="44.60690347351504" lon="9.484291885934228"><ele>918.0</ele><time>2026-04-29T13:58:18Z</time></trkpt><trkpt lat="44.60681416444193" lon="9.484248387906524"><ele>918.0</ele><time>2026-04-29T13:58:19Z</time></trkpt><trkpt lat="44.606737617886935" lon="9.484188236838913"><ele>918.0</ele><time>2026-04-29T13:58:20Z</time></trkpt><trkpt lat="44.60667749685827" lon="9.484124676932325"><ele>918.5</ele><time>2026-04-29T13:58:21Z</time></trkpt><trkpt lat="44.60658945855565" lon="9.484029653641118"><ele>919.0</ele><time>2026-04-29T13:58:22Z</time></trkpt><trkpt lat="44.60649047406627" lon="9.483942780555909"><ele>919.5</ele><time>2026-04-29T13:58:23Z</time></trkpt><trkpt lat="44.606364428945" lon="9.483868521259303"><ele>920.0</ele><time>2026-04-29T13:58:24Z</time></trkpt><trkpt lat="44.60625419533209" lon="9.483785547741117"><ele>923.1666666666667</ele><time>2026-04-29T13:58:25Z</time></trkpt><trkpt lat="44.60616493857093" lon="9.48371180683798"><ele>926.3333333333334</ele><time>2026-04-29T13:58:26Z</time></trkpt><trkpt lat="44.6060892022665" lon="9.483704856591308"><ele>929.5</ele><time>2026-04-29T13:58:27Z</time></trkpt><trkpt lat="44.60601750685956" lon="9.48366432980099"><ele>932.6666666666667</ele><time>2026-04-29T13:58:28Z</time></trkpt><trkpt lat="44.60595597441263" lon="9.483642625308985"><ele>935.8333333333334</ele><time>2026-04-29T13:58:29Z</time></trkpt><trkpt lat="44.605879892655345" lon="9.483625170300465"><ele>939.0</ele><time>2026-04-29T13:58:30Z</time></trkpt><trkpt lat="44.605783032185315" lon="9.48359873964911"><ele>939.0</ele><time>2026-04-29T13:58:31Z</time></trkpt><trkpt lat="44.605682725815115" lon="9.483577558408983"><ele>939.0000000000001</ele><time>2026-04-29T13:58:32Z</time></trkpt><trkpt lat="44.60557621664336" lon="9.483574862783097"><ele>939.0000000000001</ele><time>2026-04-29T13:58:33Z</time></trkpt><trkpt lat="44.60546876668532" lon="9.483591418183662"><ele>939.0</ele><time>2026-04-29T13:58:34Z</time></trkpt><trkpt lat="44.605353234887616" lon="9.48365415254943"><ele>939.0</ele><time>2026-04-29T13:58:35Z</time></trkpt><trkpt lat="44.605255121486955" lon="9.4837731154143"><ele>936.6</ele><time>2026-04-29T13:58:36Z</time></trkpt><trkpt lat="44.605143519591955" lon="9.48385861499959"><ele>934.2</ele><time>2026-04-29T13:58:37Z</time></trkpt><trkpt lat="44.6050494002258" lon="9.483957456822308"><ele>931.8000000000001</ele><time>2026-04-29T13:58:38Z</time></trkpt><trkpt lat="44.604961282041856" lon="9.484033016767906"><ele>929.4000000000001</ele><time>2026-04-29T13:58:39Z</time></trkpt><trkpt lat="44.6048831973543" lon="9.484082638965166"><ele>927.0</ele><time>2026-04-29T13:58:40Z</time></trkpt><trkpt lat="44.60478838876888" lon="9.484129691600952"><ele>927.0</ele><time>2026-04-29T13:58:41Z</time></trkpt><trkpt lat="44.60468918448173" lon="9.484116412746419"><ele>927.0</ele><time>2026-04-29T13:58:42Z</time></trkpt><trkpt lat="44.604596569165096" lon="9.48407315843482"><ele>927.0</ele><time>2026-04-29T13:58:43Z</time></trkpt><trkpt lat="44.60451015480415" lon="9.483986053931227"><ele>927.0</ele><time>2026-04-29T13:58:44Z</time></trkpt><trkpt lat="44.60441275421847" lon="9.48386783827085"><ele>927.0</ele><time>2026-04-29T13:58:45Z</time></trkpt><trkpt lat="44.60430975201977" lon="9.483726016986555"><ele>931.0</ele><time>2026-04-29T13:58:46Z</time></trkpt><trkpt lat="44.604198601230486" lon="9.483580536783824"><ele>935.0</ele><time>2026-04-29T13:58:47Z</time></trkpt><trkpt lat="44.60410502502667" lon="9.483454464515225"><ele>939.0</ele><time>2026-04-29T13:58:48Z</time></trkpt><trkpt lat="44.604023214402886" lon="9.483369494275191"><ele>943.0</ele><time>2026-04-29T13:58:49Z</time></trkpt><trkpt lat="44.60394320624818" lon="9.483278140101868"><ele>943.0</ele><time>2026-04-29T13:58:50Z</time></trkpt><trkpt lat="44.60383866930033" lon="9.48325486205105"><ele>943.0</ele><time>2026-04-29T13:58:51Z</time></trkpt><trkpt lat="44.60372730057689" lon="9.483282438428049"><ele>943.0</ele><time>2026-04-29T13:58:52Z</time></trkpt><trkpt lat="44.60362321406627" lon="9.48331374310036"><ele>943.0</ele><time>2026-04-29T13:58:53Z</time></trkpt><trkpt lat="44.603529592389016" lon="9.483332692924504"><ele>943.0</ele><time>2026-04-29T13:58:54Z</time></trkpt><trkpt lat="44.60343214480409" lon="9.483319285988705"><ele>941.75</ele><time>2026-04-29T13:58:55Z</time></trkpt><trkpt lat="44.60332722103092" lon="9.483231774012811"><ele>940.5</ele><time>2026-04-29T13:58:56Z</time></trkpt><trkpt lat="44.60321312768356" lon="9.483126596814659"><ele>939.25</ele><time>2026-04-29T13:58:57Z</time></trkpt><trkpt lat="44.603092746148526" lon="9.483016332935934"><ele>938.0</ele><time>2026-04-29T13:58:58Z</time></trkpt><trkpt lat="44.60297844557146" lon="9.482914349726395"><ele>943.0</ele><time>2026-04-29T13:58:59Z</time></trkpt><trkpt lat="44.60288409874431" lon="9.482808712652972"><ele>948.0</ele><time>2026-04-29T13:59:00Z</time></trkpt><trkpt lat="44.60278506702355" lon="9.482741172665946"><ele>953.0</ele><time>2026-04-29T13:59:01Z</time></trkpt><trkpt lat="44.60269421876768" lon="9.482693562048087"><ele>958.0</ele><time>2026-04-29T13:59:02Z</time></trkpt><trkpt lat="44.60260559759103" lon="9.482661299504723"><ele>963.0</ele><time>2026-04-29T13:59:03Z</time></trkpt><trkpt lat="44.60251133718908" lon="9.482692114723816"><ele>963.75</ele><time>2026-04-29T13:59:04Z</time></trkpt><trkpt lat="44.60241339447554" lon="9.482782854662252"><ele>964.5</ele><time>2026-04-29T13:59:05Z</time></trkpt><trkpt lat="44.60234736964914" lon="9.482935060777894"><ele>965.25</ele><time>2026-04-29T13:59:06Z</time></trkpt><trkpt lat="44.60232167184483" lon="9.483115818253225"><ele>966.0</ele><time>2026-04-29T13:59:07Z</time></trkpt><trkpt lat="44.60237411094947" lon="9.483277598539717"><ele>963.6666666666666</ele><time>2026-04-29T13:59:08Z</time></trkpt><trkpt lat="44.602373260423725" lon="9.48341542625585"><ele>961.3333333333333</ele><time>2026-04-29T13:59:09Z</time></trkpt><trkpt lat="44.60236057948485" lon="9.48350815217586"><ele>959.0</ele><time>2026-04-29T13:59:10Z</time></trkpt><trkpt lat="44.60232425088545" lon="9.483597259027936"><ele>956.6666666666666</ele><time>2026-04-29T13:59:11Z</time></trkpt><trkpt lat="44.602257045530344" lon="9.483688535761296"><ele>954.3333333333333</ele><time>2026-04-29T13:59:12Z</time></trkpt><trkpt lat="44.60215399216015" lon="9.483763626284574"><ele>952.0</ele><time>2026-04-29T13:59:13Z</time></trkpt><trkpt lat="44.60203357856139" lon="9.48382952530059"><ele>951.6666666666666</ele><time>2026-04-29T13:59:14Z</time></trkpt><trkpt lat="44.60189538002995" lon="9.483903206528773"><ele>951.3333333333333</ele><time>2026-04-29T13:59:15Z</time></trkpt><trkpt lat="44.60174871293096" lon="9.483986679279955"><ele>951.0</ele><time>2026-04-29T13:59:16Z</time></trkpt><trkpt lat="44.60158814352341" lon="9.484077843228938"><ele>951.0</ele><time>2026-04-29T13:59:17Z</time></trkpt><trkpt lat="44.60142344686676" lon="9.484170072167773"><ele>951.0</ele><time>2026-04-29T13:59:18Z</time></trkpt><trkpt lat="44.601255508681206" lon="9.484260883433532"><ele>951.0</ele><time>2026-04-29T13:59:19Z</time></trkpt><trkpt lat="44.601093526127066" lon="9.484353331873058"><ele>950.25</ele><time>2026-04-29T13:59:19.999Z</time></trkpt><trkpt lat="44.600948792900844" lon="9.484443698874845"><ele>949.5</ele><time>2026-04-29T13:59:20.999Z</time></trkpt><trkpt lat="44.600821192483735" lon="9.48453232887736"><ele>948.75</ele><time>2026-04-29T13:59:21.999Z</time></trkpt><trkpt lat="44.60069573677319" lon="9.484643646908737"><ele>948.0</ele><time>2026-04-29T13:59:23Z</time></trkpt><trkpt lat="44.60058953829751" lon="9.484799074234257"><ele>948.0</ele><time>2026-04-29T13:59:24Z</time></trkpt><trkpt lat="44.60050523124696" lon="9.484973738531338"><ele>948.0</ele><time>2026-04-29T13:59:25Z</time></trkpt><trkpt lat="44.60041981762594" lon="9.485090443829668"><ele>948.0</ele><time>2026-04-29T13:59:26Z</time></trkpt><trkpt lat="44.600356068336296" lon="9.485190719857712"><ele>948.0</ele><time>2026-04-29T13:59:27Z</time></trkpt><trkpt lat="44.60029533774394" lon="9.485266829321711"><ele>948.0</ele><time>2026-04-29T13:59:28Z</time></trkpt><trkpt lat="44.600207550841915" lon="9.485284075159543"><ele>950.0</ele><time>2026-04-29T13:59:29Z</time></trkpt><trkpt lat="44.60011140282452" lon="9.485266578080108"><ele>952.0</ele><time>2026-04-29T13:59:30Z</time></trkpt><trkpt lat="44.60003055857834" lon="9.485208786742044"><ele>954.0</ele><time>2026-04-29T13:59:31Z</time></trkpt><trkpt lat="44.59996777275084" lon="9.485103495958667"><ele>956.0</ele><time>2026-04-29T13:59:32Z</time></trkpt><trkpt lat="44.59990971766874" lon="9.484944275167372"><ele>958.0</ele><time>2026-04-29T13:59:33Z</time></trkpt><trkpt lat="44.59985670587261" lon="9.484768719008434"><ele>958.0</ele><time>2026-04-29T13:59:34Z</time></trkpt><trkpt lat="44.59980246361564" lon="9.484626636493164"><ele>958.0</ele><time>2026-04-29T13:59:35Z</time></trkpt><trkpt lat="44.59973141898379" lon="9.484511506138007"><ele>958.0</ele><time>2026-04-29T13:59:36Z</time></trkpt><trkpt lat="44.599650718300985" lon="9.484425560878503"><ele>958.0</ele><time>2026-04-29T13:59:37Z</time></trkpt><trkpt lat="44.599556139529575" lon="9.484369218071734"><ele>958.0</ele><time>2026-04-29T13:59:38Z</time></trkpt><trkpt lat="44.599436497655695" lon="9.484331695117271"><ele>962.6666666666666</ele><time>2026-04-29T13:59:39Z</time></trkpt><trkpt lat="44.59929141640925" lon="9.484272014295653"><ele>967.3333333333333</ele><time>2026-04-29T13:59:40Z</time></trkpt><trkpt lat="44.59913260285902" lon="9.484233158304683"><ele>972.0</ele><time>2026-04-29T13:59:41Z</time></trkpt><trkpt lat="44.59899018366732" lon="9.484198255499635"><ele>972.0</ele><time>2026-04-29T13:59:42Z</time></trkpt><trkpt lat="44.598847689674905" lon="9.484158891294857"><ele>972.0</ele><time>2026-04-29T13:59:43Z</time></trkpt><trkpt lat="44.59869570031671" lon="9.484135737267316"><ele>972.0</ele><time>2026-04-29T13:59:44Z</time></trkpt><trkpt lat="44.598559501642434" lon="9.484085781841094"><ele>972.0</ele><time>2026-04-29T13:59:45Z</time></trkpt><trkpt lat="44.59843811259116" lon="9.484035653571029"><ele>970.8</ele><time>2026-04-29T13:59:46Z</time></trkpt><trkpt lat="44.59834189732472" lon="9.483966428907141"><ele>969.6</ele><time>2026-04-29T13:59:47Z</time></trkpt><trkpt lat="44.598276701107665" lon="9.483881137660918"><ele>968.3999999999999</ele><time>2026-04-29T13:59:48Z</time></trkpt><trkpt lat="44.598222115750104" lon="9.483766330832147"><ele>967.1999999999999</ele><time>2026-04-29T13:59:49Z</time></trkpt><trkpt lat="44.598174522007604" lon="9.48362539123022"><ele>966.0</ele><time>2026-04-29T13:59:50Z</time></trkpt><trkpt lat="44.59812400970862" lon="9.483510190820702"><ele>969.0</ele><time>2026-04-29T13:59:51Z</time></trkpt><trkpt lat="44.59806459149066" lon="9.48343069439164"><ele>971.9999999999999</ele><time>2026-04-29T13:59:52Z</time></trkpt><trkpt lat="44.59798537532224" lon="9.483385131141313"><ele>974.9999999999999</ele><time>2026-04-29T13:59:53Z</time></trkpt><trkpt lat="44.59790220548556" lon="9.483351855610199"><ele>978.0</ele><time>2026-04-29T13:59:54Z</time></trkpt><trkpt lat="44.59780411086848" lon="9.48337293810773"><ele>981.0</ele><time>2026-04-29T13:59:55Z</time></trkpt><trkpt lat="44.59769432418488" lon="9.483434306468968"><ele>981.0</ele><time>2026-04-29T13:59:56Z</time></trkpt><trkpt lat="44.59758206785179" lon="9.48351166002819"><ele>981.0</ele><time>2026-04-29T13:59:57Z</time></trkpt><trkpt lat="44.59747684857953" lon="9.483599374315423"><ele>981.0</ele><time>2026-04-29T13:59:58Z</time></trkpt><trkpt lat="44.59738273660902" lon="9.483725364084195"><ele>981.0</ele><time>2026-04-29T13:59:59Z</time></trkpt><trkpt lat="44.59729985923211" lon="9.48388193761526"><ele>978.25</ele><time>2026-04-29T14:00:00Z</time></trkpt><trkpt lat="44.597219924421765" lon="9.484035284663888"><ele>975.5</ele><time>2026-04-29T14:00:01Z</time></trkpt><trkpt lat="44.597155802055724" lon="9.484160903631638"><ele>972.75</ele><time>2026-04-29T14:00:02Z</time></trkpt><trkpt lat="44.597091987533226" lon="9.484272939041842"><ele>970.0</ele><time>2026-04-29T14:00:03Z</time></trkpt><trkpt lat="44.59700996661456" lon="9.484380043095067"><ele>971.0</ele><time>2026-04-29T14:00:04Z</time></trkpt><trkpt lat="44.596906448472" lon="9.484467036585393"><ele>972.0</ele><time>2026-04-29T14:00:05Z</time></trkpt><trkpt lat="44.596778787567764" lon="9.484569400682538"><ele>973.0</ele><time>2026-04-29T14:00:06Z</time></trkpt><trkpt lat="44.5966361284439" lon="9.484631487493726"><ele>974.0</ele><time>2026-04-29T14:00:07Z</time></trkpt><trkpt lat="44.59649504492177" lon="9.484695279141075"><ele>974.0</ele><time>2026-04-29T14:00:08Z</time></trkpt><trkpt lat="44.59637271073969" lon="9.484752711316643"><ele>974.0000000000001</ele><time>2026-04-29T14:00:09Z</time></trkpt><trkpt lat="44.5962777843194" lon="9.484780655200312"><ele>974.0000000000001</ele><time>2026-04-29T14:00:10Z</time></trkpt><trkpt lat="44.59618114251109" lon="9.48476669412842"><ele>974.0</ele><time>2026-04-29T14:00:11Z</time></trkpt><trkpt lat="44.59608192924694" lon="9.48471947305835"><ele>974.0</ele><time>2026-04-29T14:00:12Z</time></trkpt><trkpt lat="44.59598414851768" lon="9.484635183363805"><ele>979.0</ele><time>2026-04-29T14:00:13Z</time></trkpt><trkpt lat="44.595877750458115" lon="9.484532425260786"><ele>984.0</ele><time>2026-04-29T14:00:14Z</time></trkpt><trkpt lat="44.59576314927483" lon="9.484421035373645"><ele>989.0</ele><time>2026-04-29T14:00:15Z</time></trkpt><trkpt lat="44.595645185863496" lon="9.48430266141683"><ele>994.0</ele><time>2026-04-29T14:00:16Z</time></trkpt><trkpt lat="44.595544875589304" lon="9.484205740246814"><ele>994.0</ele><time>2026-04-29T14:00:17Z</time></trkpt><trkpt lat="44.59545749677785" lon="9.484108670406224"><ele>994.0000000000001</ele><time>2026-04-29T14:00:18Z</time></trkpt><trkpt lat="44.59536816254308" lon="9.48407496577215"><ele>994.0000000000001</ele><time>2026-04-29T14:00:19Z</time></trkpt><trkpt lat="44.59527303225616" lon="9.484061114408012"><ele>994.0</ele><time>2026-04-29T14:00:20Z</time></trkpt><trkpt lat="44.59516858506835" lon="9.484071926856734"><ele>994.0</ele><time>2026-04-29T14:00:21Z</time></trkpt><trkpt lat="44.595040339684786" lon="9.484100242889422"><ele>993.0</ele><time>2026-04-29T14:00:22Z</time></trkpt><trkpt lat="44.594903170205534" lon="9.484138076746898"><ele>992.0</ele><time>2026-04-29T14:00:23Z</time></trkpt><trkpt lat="44.594762276489654" lon="9.484182067482488"><ele>991.0</ele><time>2026-04-29T14:00:24Z</time></trkpt><trkpt lat="44.59462314635491" lon="9.484220528853015"><ele>990.0</ele><time>2026-04-29T14:00:25Z</time></trkpt><trkpt lat="44.594499773150034" lon="9.484256269813338"><ele>991.25</ele><time>2026-04-29T14:00:26Z</time></trkpt><trkpt lat="44.594397063505944" lon="9.484320470949385"><ele>992.5</ele><time>2026-04-29T14:00:27Z</time></trkpt><trkpt lat="44.59430412526452" lon="9.484426983288104"><ele>993.75</ele><time>2026-04-29T14:00:28Z</time></trkpt><trkpt lat="44.594228112130395" lon="9.484570278236719"><ele>995.0</ele><time>2026-04-29T14:00:29Z</time></trkpt><trkpt lat="44.59417020344775" lon="9.484733455048046"><ele>995.0</ele><time>2026-04-29T14:00:30Z</time></trkpt><trkpt lat="44.5940993132561" lon="9.484863374946679"><ele>995.0</ele><time>2026-04-29T14:00:31Z</time></trkpt><trkpt lat="44.59404776417791" lon="9.484978889163104"><ele>995.0</ele><time>2026-04-29T14:00:32Z</time></trkpt><trkpt lat="44.59399449022589" lon="9.485079298548749"><ele>995.0</ele><time>2026-04-29T14:00:33Z</time></trkpt><trkpt lat="44.593937854273086" lon="9.48516308227589"><ele>995.0</ele><time>2026-04-29T14:00:34Z</time></trkpt><trkpt lat="44.59386242734044" lon="9.485180551658132"><ele>995.0</ele><time>2026-04-29T14:00:35Z</time></trkpt><trkpt lat="44.59377069651632" lon="9.485177911838015"><ele>995.0</ele><time>2026-04-29T14:00:36Z</time></trkpt><trkpt lat="44.5936751201334" lon="9.485134758805685"><ele>995.0</ele><time>2026-04-29T14:00:37Z</time></trkpt><trkpt lat="44.593590268330885" lon="9.485059168780364"><ele>995.0</ele><time>2026-04-29T14:00:38Z</time></trkpt><trkpt lat="44.59350619171388" lon="9.484980817798945"><ele>995.0</ele><time>2026-04-29T14:00:39Z</time></trkpt><trkpt lat="44.59343562213981" lon="9.484889652252596"><ele>994.0</ele><time>2026-04-29T14:00:40Z</time></trkpt><trkpt lat="44.59338833001684" lon="9.484774208732226"><ele>993.0</ele><time>2026-04-29T14:00:41Z</time></trkpt><trkpt lat="44.593368899726215" lon="9.48463490886416"><ele>992.0</ele><time>2026-04-29T14:00:42Z</time></trkpt><trkpt lat="44.593352173571645" lon="9.484507118778797"><ele>991.0</ele><time>2026-04-29T14:00:43Z</time></trkpt><trkpt lat="44.59331425788977" lon="9.484389103756204"><ele>990.0</ele><time>2026-04-29T14:00:44Z</time></trkpt><trkpt lat="44.59325447839829" lon="9.484284885763879"><ele>994.0</ele><time>2026-04-29T14:00:45Z</time></trkpt><trkpt lat="44.59316820016609" lon="9.484197413809298"><ele>998.0</ele><time>2026-04-29T14:00:46Z</time></trkpt><trkpt lat="44.59306252767657" lon="9.48413347833004"><ele>1002.0</ele><time>2026-04-29T14:00:47Z</time></trkpt><trkpt lat="44.592947834886814" lon="9.484105124462264"><ele>1006.0</ele><time>2026-04-29T14:00:48Z</time></trkpt><trkpt lat="44.59282730365577" lon="9.484101539030924"><ele>1006.0</ele><time>2026-04-29T14:00:49Z</time></trkpt><trkpt lat="44.592705435918326" lon="9.484096448574576"><ele>1006.0</ele><time>2026-04-29T14:00:50Z</time></trkpt><trkpt lat="44.592587394763356" lon="9.48409059096843"><ele>1006.0</ele><time>2026-04-29T14:00:51Z</time></trkpt><trkpt lat="44.592466109138215" lon="9.484074847221843"><ele>1006.0</ele><time>2026-04-29T14:00:52Z</time></trkpt><trkpt lat="44.59234161653566" lon="9.48406873902615"><ele>1006.0</ele><time>2026-04-29T14:00:53Z</time></trkpt><trkpt lat="44.59221781987587" lon="9.484066133932071"><ele>1006.0</ele><time>2026-04-29T14:00:54Z</time></trkpt><trkpt lat="44.5921056746523" lon="9.48406605973947"><ele>1006.0</ele><time>2026-04-29T14:00:55Z</time></trkpt><trkpt lat="44.59199749275852" lon="9.484058424311494"><ele>1006.0</ele><time>2026-04-29T14:00:56Z</time></trkpt><trkpt lat="44.591890836509634" lon="9.484051633323107"><ele>1007.4</ele><time>2026-04-29T14:00:57Z</time></trkpt><trkpt lat="44.59178280277331" lon="9.484038575853804"><ele>1008.8</ele><time>2026-04-29T14:00:58Z</time></trkpt><trkpt lat="44.591674232093055" lon="9.484026193812582"><ele>1010.1999999999999</ele><time>2026-04-29T14:00:59Z</time></trkpt><trkpt lat="44.59156872966386" lon="9.484026436014894"><ele>1011.5999999999999</ele><time>2026-04-29T14:01:00Z</time></trkpt><trkpt lat="44.5914714560788" lon="9.484024939637475"><ele>1013.0</ele><time>2026-04-29T14:01:01Z</time></trkpt><trkpt lat="44.59137807478997" lon="9.484022740440432"><ele>1013.0000000000001</ele><time>2026-04-29T14:01:02Z</time></trkpt><trkpt lat="44.59128980682713" lon="9.484019056919422"><ele>1013.0</ele><time>2026-04-29T14:01:03Z</time></trkpt><trkpt lat="44.591203639060275" lon="9.484013594308848"><ele>1013.0</ele><time>2026-04-29T14:01:04Z</time></trkpt><trkpt lat="44.59112056431225" lon="9.484007402209981"><ele>1013.0</ele><time>2026-04-29T14:01:05Z</time></trkpt><trkpt lat="44.59103236814642" lon="9.484010826916457"><ele>1013.0000000000001</ele><time>2026-04-29T14:01:06Z</time></trkpt><trkpt lat="44.590941479192566" lon="9.48401365032393"><ele>1013.0</ele><time>2026-04-29T14:01:07Z</time></trkpt><trkpt lat="44.59085310848093" lon="9.484044628252919"><ele>1014.8</ele><time>2026-04-29T14:01:08Z</time></trkpt><trkpt lat="44.59076541545429" lon="9.484084799823584"><ele>1016.5999999999999</ele><time>2026-04-29T14:01:09Z</time></trkpt><trkpt lat="44.590691712540625" lon="9.484181851836238"><ele>1018.4000000000001</ele><time>2026-04-29T14:01:10Z</time></trkpt><trkpt lat="44.59063236805749" lon="9.48432782638481"><ele>1020.2</ele><time>2026-04-29T14:01:11Z</time></trkpt><trkpt lat="44.59057728786766" lon="9.484467624708335"><ele>1022.0</ele><time>2026-04-29T14:01:12Z</time></trkpt><trkpt lat="44.59052812086435" lon="9.484596030468307"><ele>1024.4</ele><time>2026-04-29T14:01:13Z</time></trkpt><trkpt lat="44.590476285600026" lon="9.484709679398177"><ele>1026.8000000000002</ele><time>2026-04-29T14:01:14Z</time></trkpt><trkpt lat="44.5904132864573" lon="9.484811710363665"><ele>1029.2</ele><time>2026-04-29T14:01:15Z</time></trkpt><trkpt lat="44.59033186523984" lon="9.484901759674228"><ele>1031.6000000000001</ele><time>2026-04-29T14:01:16Z</time></trkpt><trkpt lat="44.59024466956347" lon="9.484980983476982"><ele>1034.0</ele><time>2026-04-29T14:01:17Z</time></trkpt><trkpt lat="44.59016448902908" lon="9.485069521106116"><ele>1034.0</ele><time>2026-04-29T14:01:18Z</time></trkpt><trkpt lat="44.59008773002793" lon="9.485146965678846"><ele>1034.0</ele><time>2026-04-29T14:01:19Z</time></trkpt><trkpt lat="44.590009097143145" lon="9.485234247464614"><ele>1034.0</ele><time>2026-04-29T14:01:20Z</time></trkpt><trkpt lat="44.589924119124376" lon="9.485321883793905"><ele>1034.0</ele><time>2026-04-29T14:01:21Z</time></trkpt><trkpt lat="44.589848603758455" lon="9.485416349110814"><ele>1034.0</ele><time>2026-04-29T14:01:22Z</time></trkpt><trkpt lat="44.58976474996367" lon="9.48550264047881"><ele>1032.8</ele><time>2026-04-29T14:01:23Z</time></trkpt><trkpt lat="44.58969091756036" lon="9.485588599078373"><ele>1031.6000000000001</ele><time>2026-04-29T14:01:24Z</time></trkpt><trkpt lat="44.589624941272234" lon="9.485671342714374"><ele>1030.4</ele><time>2026-04-29T14:01:25Z</time></trkpt><trkpt lat="44.58956449807772" lon="9.485749627999752"><ele>1029.2</ele><time>2026-04-29T14:01:26Z</time></trkpt><trkpt lat="44.5894975066321" lon="9.485808060767473"><ele>1028.0</ele><time>2026-04-29T14:01:27Z</time></trkpt><trkpt lat="44.58938547292749" lon="9.485850860189926"><ele>1028.0</ele><time>2026-04-29T14:01:29Z</time></trkpt><trkpt lat="44.589277869752465" lon="9.48581158774598"><ele>1028.0</ele><time>2026-04-29T14:01:31Z</time></trkpt><trkpt lat="44.589238782246106" lon="9.485737224356248"><ele>1028.0</ele><time>2026-04-29T14:01:32Z</time></trkpt><trkpt lat="44.58921965819083" lon="9.485639709984628"><ele>1028.0</ele><time>2026-04-29T14:01:33Z</time></trkpt><trkpt lat="44.589233549598276" lon="9.485486997452071"><ele>1028.0</ele><time>2026-04-29T14:01:35Z</time></trkpt><trkpt lat="44.58927650049425" lon="9.485414754975857"><ele>1028.0</ele><time>2026-04-29T14:01:36Z</time></trkpt><trkpt lat="44.589348813320285" lon="9.485354195403758"><ele>1029.5</ele><time>2026-04-29T14:01:37Z</time></trkpt><trkpt lat="44.5894393632352" lon="9.485292983487252"><ele>1031.0</ele><time>2026-04-29T14:01:38Z</time></trkpt><trkpt lat="44.589547421996066" lon="9.4852112251364"><ele>1032.5</ele><time>2026-04-29T14:01:39Z</time></trkpt><trkpt lat="44.589660877954095" lon="9.485124069361326"><ele>1034.0</ele><time>2026-04-29T14:01:40Z</time></trkpt><trkpt lat="44.58977820192122" lon="9.485045062426012"><ele>1034.0</ele><time>2026-04-29T14:01:41Z</time></trkpt><trkpt lat="44.58988306638553" lon="9.484957716214952"><ele>1034.0</ele><time>2026-04-29T14:01:42Z</time></trkpt><trkpt lat="44.58997439138456" lon="9.484882702044398"><ele>1034.0</ele><time>2026-04-29T14:01:43Z</time></trkpt><trkpt lat="44.59004697643127" lon="9.484801508996554"><ele>1034.0</ele><time>2026-04-29T14:01:44Z</time></trkpt><trkpt lat="44.59010009461551" lon="9.484707109864637"><ele>1034.0</ele><time>2026-04-29T14:01:45Z</time></trkpt><trkpt lat="44.590131306168" lon="9.484581682546695"><ele>1037.2</ele><time>2026-04-29T14:01:46Z</time></trkpt><trkpt lat="44.5901443309626" lon="9.484447956088776"><ele>1040.4</ele><time>2026-04-29T14:01:47Z</time></trkpt><trkpt lat="44.590156889638024" lon="9.484303702265887"><ele>1043.6</ele><time>2026-04-29T14:01:48Z</time></trkpt><trkpt lat="44.59017508831683" lon="9.484146441354293"><ele>1046.8</ele><time>2026-04-29T14:01:49Z</time></trkpt><trkpt lat="44.590180740517944" lon="9.483997693026986"><ele>1050.0</ele><time>2026-04-29T14:01:50Z</time></trkpt><trkpt lat="44.59018415520034" lon="9.483857904947293"><ele>1049.6</ele><time>2026-04-29T14:01:51Z</time></trkpt><trkpt lat="44.59019488628666" lon="9.483726757299099"><ele>1049.2</ele><time>2026-04-29T14:01:52Z</time></trkpt><trkpt lat="44.59022724613062" lon="9.483603529535682"><ele>1048.8</ele><time>2026-04-29T14:01:53Z</time></trkpt><trkpt lat="44.590270300161656" lon="9.483484898623558"><ele>1048.4</ele><time>2026-04-29T14:01:54Z</time></trkpt><trkpt lat="44.590331776450235" lon="9.483387353624844"><ele>1048.0</ele><time>2026-04-29T14:01:55Z</time></trkpt><trkpt lat="44.59040916221272" lon="9.483315192399429"><ele>1048.0</ele><time>2026-04-29T14:01:56Z</time></trkpt><trkpt lat="44.5905024062579" lon="9.483254054717769"><ele>1048.0</ele><time>2026-04-29T14:01:57Z</time></trkpt><trkpt lat="44.59060109495279" lon="9.483201466779999"><ele>1048.0</ele><time>2026-04-29T14:01:58Z</time></trkpt><trkpt lat="44.59070685750284" lon="9.48317487978801"><ele>1048.0</ele><time>2026-04-29T14:01:59Z</time></trkpt><trkpt lat="44.59080933565369" lon="9.483181422058397"><ele>1048.0</ele><time>2026-04-29T14:02:00Z</time></trkpt><trkpt lat="44.59090941923457" lon="9.483187980928065"><ele>1048.0</ele><time>2026-04-29T14:02:01Z</time></trkpt><trkpt lat="44.59102734682863" lon="9.483183387194993"><ele>1048.0</ele><time>2026-04-29T14:02:02Z</time></trkpt><trkpt lat="44.59115077135207" lon="9.483173092609102"><ele>1048.0</ele><time>2026-04-29T14:02:03Z</time></trkpt><trkpt lat="44.591260402537635" lon="9.483146922661334"><ele>1048.0</ele><time>2026-04-29T14:02:04Z</time></trkpt><trkpt lat="44.5913662023961" lon="9.483135891214765"><ele>1046.6</ele><time>2026-04-29T14:02:05Z</time></trkpt><trkpt lat="44.59145229365761" lon="9.483123182004059"><ele>1045.1999999999998</ele><time>2026-04-29T14:02:06Z</time></trkpt><trkpt lat="44.59152554361887" lon="9.4831008652554"><ele>1043.8</ele><time>2026-04-29T14:02:07Z</time></trkpt><trkpt lat="44.59158617937002" lon="9.483066700503725"><ele>1042.3999999999999</ele><time>2026-04-29T14:02:08Z</time></trkpt><trkpt lat="44.59165741517275" lon="9.482933049527922"><ele>1041.0</ele><time>2026-04-29T14:02:10Z</time></trkpt><trkpt lat="44.591637983821535" lon="9.482748593848179"><ele>1043.5</ele><time>2026-04-29T14:02:12Z</time></trkpt><trkpt lat="44.591593126206" lon="9.482663963089077"><ele>1046.0</ele><time>2026-04-29T14:02:13Z</time></trkpt><trkpt lat="44.591534330775495" lon="9.482608904856965"><ele>1048.5</ele><time>2026-04-29T14:02:14Z</time></trkpt><trkpt lat="44.59144698433115" lon="9.482591278776042"><ele>1051.0</ele><time>2026-04-29T14:02:15Z</time></trkpt><trkpt lat="44.591359187331825" lon="9.48256788477139"><ele>1053.5</ele><time>2026-04-29T14:02:16Z</time></trkpt><trkpt lat="44.5912497023418" lon="9.48258313788922"><ele>1056.0</ele><time>2026-04-29T14:02:17Z</time></trkpt><trkpt lat="44.59113234319085" lon="9.482598436085787"><ele>1059.25</ele><time>2026-04-29T14:02:18Z</time></trkpt><trkpt lat="44.59100183651238" lon="9.482613292512362"><ele>1062.5</ele><time>2026-04-29T14:02:19Z</time></trkpt><trkpt lat="44.59085411377817" lon="9.482650442287207"><ele>1065.75</ele><time>2026-04-29T14:02:20Z</time></trkpt><trkpt lat="44.590719479436665" lon="9.482645947305238"><ele>1069.0</ele><time>2026-04-29T14:02:21Z</time></trkpt><trkpt lat="44.59060278683152" lon="9.482691604501495"><ele>1069.0</ele><time>2026-04-29T14:02:22Z</time></trkpt><trkpt lat="44.59046160061604" lon="9.48273915568874"><ele>1069.0</ele><time>2026-04-29T14:02:23Z</time></trkpt><trkpt lat="44.59033209826869" lon="9.482821526520066"><ele>1069.0</ele><time>2026-04-29T14:02:24Z</time></trkpt><trkpt lat="44.59020166749178" lon="9.48292858163601"><ele>1069.0</ele><time>2026-04-29T14:02:25Z</time></trkpt><trkpt lat="44.59007968382844" lon="9.48304024018102"><ele>1068.0</ele><time>2026-04-29T14:02:26Z</time></trkpt><trkpt lat="44.58997263595146" lon="9.483149095545873"><ele>1067.0</ele><time>2026-04-29T14:02:27Z</time></trkpt><trkpt lat="44.58987802626533" lon="9.483227797818573"><ele>1066.0</ele><time>2026-04-29T14:02:28Z</time></trkpt><trkpt lat="44.58978884174761" lon="9.483272138238137"><ele>1065.0</ele><time>2026-04-29T14:02:29Z</time></trkpt><trkpt lat="44.58968164533137" lon="9.483293872421928"><ele>1064.0</ele><time>2026-04-29T14:02:30Z</time></trkpt><trkpt lat="44.58954311741" lon="9.483277535212558"><ele>1066.6666666666667</ele><time>2026-04-29T14:02:31Z</time></trkpt><trkpt lat="44.58938923844316" lon="9.483257827457754"><ele>1069.3333333333333</ele><time>2026-04-29T14:02:32Z</time></trkpt><trkpt lat="44.58923309113531" lon="9.483243304755558"><ele>1072.0</ele><time>2026-04-29T14:02:33Z</time></trkpt><trkpt lat="44.58906973027095" lon="9.483223396924455"><ele>1072.0</ele><time>2026-04-29T14:02:34Z</time></trkpt><trkpt lat="44.58890204312449" lon="9.48319923465921"><ele>1072.0</ele><time>2026-04-29T14:02:35Z</time></trkpt><trkpt lat="44.588744861774536" lon="9.483175058533044"><ele>1072.0</ele><time>2026-04-29T14:02:36Z</time></trkpt><trkpt lat="44.58861198619382" lon="9.483153938086081"><ele>1074.5</ele><time>2026-04-29T14:02:37Z</time></trkpt><trkpt lat="44.5884841039992" lon="9.483138102036968"><ele>1077.0</ele><time>2026-04-29T14:02:38Z</time></trkpt><trkpt lat="44.588363390315166" lon="9.483120290489952"><ele>1079.5</ele><time>2026-04-29T14:02:39Z</time></trkpt><trkpt lat="44.58825930502346" lon="9.483120362889236"><ele>1082.0</ele><time>2026-04-29T14:02:40Z</time></trkpt><trkpt lat="44.58817019607409" lon="9.483175694105562"><ele>1082.0</ele><time>2026-04-29T14:02:41Z</time></trkpt><trkpt lat="44.5880633200955" lon="9.483266052083833"><ele>1082.0</ele><time>2026-04-29T14:02:42Z</time></trkpt><trkpt lat="44.58797316603607" lon="9.483431710381337"><ele>1082.0</ele><time>2026-04-29T14:02:43Z</time></trkpt><trkpt lat="44.587894709818954" lon="9.483617435417472"><ele>1082.0</ele><time>2026-04-29T14:02:44Z</time></trkpt><trkpt lat="44.58782350150668" lon="9.483813657093018"><ele>1083.25</ele><time>2026-04-29T14:02:45Z</time></trkpt><trkpt lat="44.58776374216092" lon="9.483980384296464"><ele>1084.5</ele><time>2026-04-29T14:02:46Z</time></trkpt><trkpt lat="44.587705432490665" lon="9.484125508794016"><ele>1085.75</ele><time>2026-04-29T14:02:47Z</time></trkpt><trkpt lat="44.587645563433895" lon="9.484249737197716"><ele>1087.0</ele><time>2026-04-29T14:02:48Z</time></trkpt><trkpt lat="44.58756623122362" lon="9.484313911200141"><ele>1087.0</ele><time>2026-04-29T14:02:49Z</time></trkpt><trkpt lat="44.58747405285361" lon="9.484344966859663"><ele>1087.0</ele><time>2026-04-29T14:02:50Z</time></trkpt><trkpt lat="44.58734697348772" lon="9.484351357119674"><ele>1087.0</ele><time>2026-04-29T14:02:51Z</time></trkpt><trkpt lat="44.58719152030527" lon="9.484352898196539"><ele>1087.0</ele><time>2026-04-29T14:02:52Z</time></trkpt><trkpt lat="44.58703474146396" lon="9.484354303195994"><ele>1090.3333333333333</ele><time>2026-04-29T14:02:53Z</time></trkpt><trkpt lat="44.58685762074458" lon="9.484363853143584"><ele>1093.6666666666667</ele><time>2026-04-29T14:02:54Z</time></trkpt><trkpt lat="44.58668405531521" lon="9.484378326678884"><ele>1097.0</ele><time>2026-04-29T14:02:55Z</time></trkpt><trkpt lat="44.58653265944106" lon="9.484400527740847"><ele>1097.0</ele><time>2026-04-29T14:02:56Z</time></trkpt><trkpt lat="44.5863868774537" lon="9.484447422124768"><ele>1097.0</ele><time>2026-04-29T14:02:57Z</time></trkpt><trkpt lat="44.58624465338084" lon="9.484504726835384"><ele>1097.0</ele><time>2026-04-29T14:02:58Z</time></trkpt><trkpt lat="44.58611923372776" lon="9.48455584935906"><ele>1097.0</ele><time>2026-04-29T14:02:59Z</time></trkpt><trkpt lat="44.585993531230926" lon="9.484606807750218"><ele>1095.25</ele><time>2026-04-29T14:03:00Z</time></trkpt><trkpt lat="44.58587996243574" lon="9.484709733798624"><ele>1093.5</ele><time>2026-04-29T14:03:01Z</time></trkpt><trkpt lat="44.58577861982987" lon="9.484838345914422"><ele>1091.75</ele><time>2026-04-29T14:03:02Z</time></trkpt><trkpt lat="44.58568064759374" lon="9.484980136626321"><ele>1090.0</ele><time>2026-04-29T14:03:03Z</time></trkpt><trkpt lat="44.585582186134864" lon="9.485119313740482"><ele>1090.0</ele><time>2026-04-29T14:03:04Z</time></trkpt><trkpt lat="44.58549576296835" lon="9.485236372416738"><ele>1090.0</ele><time>2026-04-29T14:03:05Z</time></trkpt><trkpt lat="44.58540568100359" lon="9.485327833363263"><ele>1090.0</ele><time>2026-04-29T14:03:06Z</time></trkpt><trkpt lat="44.58531947243909" lon="9.48539978151311"><ele>1090.0</ele><time>2026-04-29T14:03:07Z</time></trkpt><trkpt lat="44.58523074664247" lon="9.485403236282794"><ele>1090.0</ele><time>2026-04-29T14:03:08Z</time></trkpt><trkpt lat="44.58514710087827" lon="9.485370472396394"><ele>1092.0</ele><time>2026-04-29T14:03:09Z</time></trkpt><trkpt lat="44.58507963529242" lon="9.485301661673315"><ele>1094.0</ele><time>2026-04-29T14:03:10Z</time></trkpt><trkpt lat="44.58503105017855" lon="9.48520400938037"><ele>1096.0</ele><time>2026-04-29T14:03:11Z</time></trkpt><trkpt lat="44.585002164655705" lon="9.485079911276333"><ele>1098.0</ele><time>2026-04-29T14:03:12Z</time></trkpt><trkpt lat="44.584995864845425" lon="9.484938507504316"><ele>1100.0</ele><time>2026-04-29T14:03:13Z</time></trkpt><trkpt lat="44.58502113286824" lon="9.484776684866423"><ele>1100.0</ele><time>2026-04-29T14:03:14Z</time></trkpt><trkpt lat="44.58506726303952" lon="9.484618022304996"><ele>1100.0</ele><time>2026-04-29T14:03:15Z</time></trkpt><trkpt lat="44.58512545451589" lon="9.484439223235855"><ele>1100.0</ele><time>2026-04-29T14:03:16Z</time></trkpt><trkpt lat="44.58517963007281" lon="9.484244850648865"><ele>1100.0</ele><time>2026-04-29T14:03:17Z</time></trkpt><trkpt lat="44.58523168759183" lon="9.4840485603617"><ele>1102.0</ele><time>2026-04-29T14:03:18Z</time></trkpt><trkpt lat="44.585291485611926" lon="9.483859199895516"><ele>1104.0</ele><time>2026-04-29T14:03:19Z</time></trkpt><trkpt lat="44.585354653930814" lon="9.48368639207007"><ele>1106.0</ele><time>2026-04-29T14:03:20Z</time></trkpt><trkpt lat="44.585408631538385" lon="9.483522624368955"><ele>1108.0</ele><time>2026-04-29T14:03:21Z</time></trkpt><trkpt lat="44.585476308159215" lon="9.483383938972318"><ele>1109.0</ele><time>2026-04-29T14:03:22Z</time></trkpt><trkpt lat="44.58558310696695" lon="9.48332638263777"><ele>1110.0</ele><time>2026-04-29T14:03:23Z</time></trkpt><trkpt lat="44.585686308310805" lon="9.4832926541591"><ele>1111.0</ele><time>2026-04-29T14:03:24Z</time></trkpt><trkpt lat="44.585816132256596" lon="9.483243920541407"><ele>1112.0</ele><time>2026-04-29T14:03:25Z</time></trkpt><trkpt lat="44.585966906117775" lon="9.483192872921771"><ele>1112.0</ele><time>2026-04-29T14:03:26Z</time></trkpt><trkpt lat="44.58609441611671" lon="9.483151299942476"><ele>1112.0</ele><time>2026-04-29T14:03:27Z</time></trkpt><trkpt lat="44.586223360431276" lon="9.483093380662401"><ele>1112.0</ele><time>2026-04-29T14:03:28Z</time></trkpt><trkpt lat="44.58633597849152" lon="9.483011639371277"><ele>1112.0</ele><time>2026-04-29T14:03:29Z</time></trkpt><trkpt lat="44.586416135595194" lon="9.482903996538866"><ele>1114.5</ele><time>2026-04-29T14:03:30Z</time></trkpt><trkpt lat="44.58646621394616" lon="9.482777728390204"><ele>1117.0</ele><time>2026-04-29T14:03:31Z</time></trkpt><trkpt lat="44.586507124199116" lon="9.48263029763203"><ele>1119.5</ele><time>2026-04-29T14:03:32Z</time></trkpt><trkpt lat="44.58652434041725" lon="9.482463090193736"><ele>1122.0</ele><time>2026-04-29T14:03:33Z</time></trkpt><trkpt lat="44.5865087361796" lon="9.482293273598986"><ele>1122.0</ele><time>2026-04-29T14:03:34Z</time></trkpt><trkpt lat="44.58646301354337" lon="9.48214548856149"><ele>1122.0</ele><time>2026-04-29T14:03:35Z</time></trkpt><trkpt lat="44.58639294499751" lon="9.482012148051664"><ele>1122.0</ele><time>2026-04-29T14:03:36Z</time></trkpt><trkpt lat="44.58630155562731" lon="9.481898425199896"><ele>1122.0</ele><time>2026-04-29T14:03:37Z</time></trkpt><trkpt lat="44.5861910093608" lon="9.481816055545531"><ele>1122.75</ele><time>2026-04-29T14:03:38Z</time></trkpt><trkpt lat="44.58607302019946" lon="9.481776543057615"><ele>1123.5</ele><time>2026-04-29T14:03:39Z</time></trkpt><trkpt lat="44.585949603076884" lon="9.481780596035325"><ele>1124.25</ele><time>2026-04-29T14:03:40Z</time></trkpt><trkpt lat="44.58581561349185" lon="9.481808973320259"><ele>1125.0</ele><time>2026-04-29T14:03:41Z</time></trkpt><trkpt lat="44.58566988311753" lon="9.481860374434566"><ele>1125.0</ele><time>2026-04-29T14:03:42Z</time></trkpt><trkpt lat="44.58552157362758" lon="9.481904059088269"><ele>1125.0</ele><time>2026-04-29T14:03:43Z</time></trkpt><trkpt lat="44.585379973467404" lon="9.481919413437089"><ele>1125.0</ele><time>2026-04-29T14:03:44Z</time></trkpt><trkpt lat="44.58527188201986" lon="9.48194470810013"><ele>1125.0</ele><time>2026-04-29T14:03:45Z</time></trkpt><trkpt lat="44.585176337741295" lon="9.481984392336406"><ele>1126.0</ele><time>2026-04-29T14:03:46Z</time></trkpt><trkpt lat="44.58507133488269" lon="9.481973595448327"><ele>1127.0</ele><time>2026-04-29T14:03:47Z</time></trkpt><trkpt lat="44.58497230594954" lon="9.481874739311055"><ele>1128.0</ele><time>2026-04-29T14:03:48Z</time></trkpt><trkpt lat="44.5848515657799" lon="9.481776347451696"><ele>1129.0</ele><time>2026-04-29T14:03:49Z</time></trkpt><trkpt lat="44.58472682629124" lon="9.481692550129166"><ele>1129.0</ele><time>2026-04-29T14:03:50Z</time></trkpt><trkpt lat="44.58461677250755" lon="9.481625428202825"><ele>1129.0</ele><time>2026-04-29T14:03:51Z</time></trkpt><trkpt lat="44.584492643253924" lon="9.481593512050926"><ele>1129.0</ele><time>2026-04-29T14:03:52Z</time></trkpt><trkpt lat="44.584355598059865" lon="9.481666833524635"><ele>1129.0</ele><time>2026-04-29T14:03:53Z</time></trkpt><trkpt lat="44.58421805748134" lon="9.481749502395596"><ele>1130.6000000000001</ele><time>2026-04-29T14:03:54Z</time></trkpt><trkpt lat="44.58409706320406" lon="9.4818050168279"><ele>1132.2</ele><time>2026-04-29T14:03:55Z</time></trkpt><trkpt lat="44.5840031631294" lon="9.481835559167322"><ele>1133.8000000000002</ele><time>2026-04-29T14:03:56Z</time></trkpt><trkpt lat="44.58391168850028" lon="9.481823017137337"><ele>1135.4</ele><time>2026-04-29T14:03:57Z</time></trkpt><trkpt lat="44.58380607301488" lon="9.481785252174983"><ele>1137.0</ele><time>2026-04-29T14:03:58Z</time></trkpt><trkpt lat="44.58370709160675" lon="9.481785540325108"><ele>1139.6</ele><time>2026-04-29T14:03:59Z</time></trkpt><trkpt lat="44.58362823706889" lon="9.481778975328625"><ele>1142.2</ele><time>2026-04-29T14:04:00Z</time></trkpt><trkpt lat="44.583552558689775" lon="9.48186144199773"><ele>1144.8</ele><time>2026-04-29T14:04:01Z</time></trkpt><trkpt lat="44.58349283085923" lon="9.481981227773757"><ele>1147.4</ele><time>2026-04-29T14:04:02Z</time></trkpt><trkpt lat="44.583459767409174" lon="9.482129523323634"><ele>1150.0</ele><time>2026-04-29T14:04:03Z</time></trkpt><trkpt lat="44.58345798030385" lon="9.48229988262354"><ele>1150.0</ele><time>2026-04-29T14:04:04Z</time></trkpt><trkpt lat="44.58344241379752" lon="9.482464334718733"><ele>1150.0</ele><time>2026-04-29T14:04:05Z</time></trkpt><trkpt lat="44.58340222172596" lon="9.482601819845959"><ele>1150.0</ele><time>2026-04-29T14:04:06Z</time></trkpt><trkpt lat="44.58334453288577" lon="9.482760157570379"><ele>1150.0</ele><time>2026-04-29T14:04:07Z</time></trkpt><trkpt lat="44.583272566882265" lon="9.482937070343825"><ele>1146.5</ele><time>2026-04-29T14:04:08Z</time></trkpt><trkpt lat="44.583187931095914" lon="9.483108867106093"><ele>1143.0</ele><time>2026-04-29T14:04:09Z</time></trkpt><trkpt lat="44.58311636275708" lon="9.483226885850915"><ele>1139.5</ele><time>2026-04-29T14:04:10Z</time></trkpt><trkpt lat="44.58303111178869" lon="9.483338363347855"><ele>1136.0</ele><time>2026-04-29T14:04:11Z</time></trkpt><trkpt lat="44.582916222749674" lon="9.483427459547874"><ele>1138.0</ele><time>2026-04-29T14:04:12Z</time></trkpt><trkpt lat="44.58277996218351" lon="9.483535707706224"><ele>1140.0</ele><time>2026-04-29T14:04:13Z</time></trkpt><trkpt lat="44.582673142811394" lon="9.483629225860648"><ele>1142.0</ele><time>2026-04-29T14:04:14Z</time></trkpt><trkpt lat="44.58258036452083" lon="9.483756442427316"><ele>1144.0</ele><time>2026-04-29T14:04:15Z</time></trkpt><trkpt lat="44.582513324145026" lon="9.48393431680396"><ele>1144.0</ele><time>2026-04-29T14:04:16Z</time></trkpt><trkpt lat="44.58246122865999" lon="9.484081724164328"><ele>1144.0</ele><time>2026-04-29T14:04:17Z</time></trkpt><trkpt lat="44.5824064740414" lon="9.484219178046173"><ele>1144.0</ele><time>2026-04-29T14:04:18Z</time></trkpt><trkpt lat="44.58233708904527" lon="9.484322870650907"><ele>1144.0</ele><time>2026-04-29T14:04:19Z</time></trkpt><trkpt lat="44.582244877682456" lon="9.484414484267472"><ele>1144.0</ele><time>2026-04-29T14:04:20Z</time></trkpt><trkpt lat="44.58214500022597" lon="9.48446404627346"><ele>1144.0</ele><time>2026-04-29T14:04:21Z</time></trkpt><trkpt lat="44.58202813541663" lon="9.48446234043779"><ele>1144.0</ele><time>2026-04-29T14:04:22Z</time></trkpt><trkpt lat="44.58191050590598" lon="9.484445941746266"><ele>1144.0</ele><time>2026-04-29T14:04:23Z</time></trkpt><trkpt lat="44.58177055191912" lon="9.484409806352083"><ele>1144.0</ele><time>2026-04-29T14:04:24Z</time></trkpt><trkpt lat="44.58164238369988" lon="9.484365352355956"><ele>1146.0</ele><time>2026-04-29T14:04:25Z</time></trkpt><trkpt lat="44.581520339797656" lon="9.484313971589058"><ele>1148.0</ele><time>2026-04-29T14:04:26Z</time></trkpt><trkpt lat="44.58140171567895" lon="9.484242503417317"><ele>1150.0</ele><time>2026-04-29T14:04:27Z</time></trkpt><trkpt lat="44.58133155681767" lon="9.484169736917718"><ele>1152.0</ele><time>2026-04-29T14:04:28Z</time></trkpt><trkpt lat="44.5812372201815" lon="9.484048652165574"><ele>1151.25</ele><time>2026-04-29T14:04:29Z</time></trkpt><trkpt lat="44.58114883950678" lon="9.483917583425393"><ele>1150.5</ele><time>2026-04-29T14:04:30Z</time></trkpt><trkpt lat="44.58106567546469" lon="9.483755107961278"><ele>1149.75</ele><time>2026-04-29T14:04:31Z</time></trkpt><trkpt lat="44.58100995659722" lon="9.4836156565554"><ele>1149.0</ele><time>2026-04-29T14:04:32Z</time></trkpt><trkpt lat="44.58099780377994" lon="9.483463864032924"><ele>1149.0</ele><time>2026-04-29T14:04:33Z</time></trkpt><trkpt lat="44.580997268147826" lon="9.483332704238336"><ele>1149.0</ele><time>2026-04-29T14:04:34Z</time></trkpt><trkpt lat="44.58102479777905" lon="9.483172377331424"><ele>1149.0</ele><time>2026-04-29T14:04:35Z</time></trkpt><trkpt lat="44.58107594783936" lon="9.482970694901718"><ele>1149.0</ele><time>2026-04-29T14:04:36Z</time></trkpt><trkpt lat="44.58112953179529" lon="9.482757518579769"><ele>1151.25</ele><time>2026-04-29T14:04:37Z</time></trkpt><trkpt lat="44.5811492000007" lon="9.482563953873708"><ele>1153.5</ele><time>2026-04-29T14:04:38Z</time></trkpt><trkpt lat="44.58116937907367" lon="9.482367139930512"><ele>1155.75</ele><time>2026-04-29T14:04:39Z</time></trkpt><trkpt lat="44.58115019086586" lon="9.482163919003613"><ele>1158.0</ele><time>2026-04-29T14:04:40Z</time></trkpt><trkpt lat="44.58109867833012" lon="9.481946929392137"><ele>1159.6666666666667</ele><time>2026-04-29T14:04:41Z</time></trkpt><trkpt lat="44.581041962472014" lon="9.48172244724292"><ele>1161.3333333333335</ele><time>2026-04-29T14:04:42Z</time></trkpt><trkpt lat="44.58099068237237" lon="9.481494459154897"><ele>1163.0</ele><time>2026-04-29T14:04:43Z</time></trkpt><trkpt lat="44.58094324806781" lon="9.48127727650836"><ele>1164.8</ele><time>2026-04-29T14:04:44Z</time></trkpt><trkpt lat="44.580905119189545" lon="9.48109082396122"><ele>1166.6</ele><time>2026-04-29T14:04:45Z</time></trkpt><trkpt lat="44.58087005697874" lon="9.480951158872509"><ele>1168.4</ele><time>2026-04-29T14:04:46Z</time></trkpt><trkpt lat="44.58082488585565" lon="9.480837929645547"><ele>1170.2</ele><time>2026-04-29T14:04:47Z</time></trkpt><trkpt lat="44.58074446757493" lon="9.480753108007717"><ele>1172.0</ele><time>2026-04-29T14:04:48Z</time></trkpt><trkpt lat="44.58063315337826" lon="9.480682559157435"><ele>1172.0</ele><time>2026-04-29T14:04:49Z</time></trkpt><trkpt lat="44.580519260117356" lon="9.480656245339858"><ele>1172.0</ele><time>2026-04-29T14:04:50Z</time></trkpt><trkpt lat="44.58040987289598" lon="9.480683044871679"><ele>1172.0</ele><time>2026-04-29T14:04:51Z</time></trkpt><trkpt lat="44.58030170291577" lon="9.480771235116213"><ele>1172.0</ele><time>2026-04-29T14:04:52Z</time></trkpt><trkpt lat="44.58020570882835" lon="9.480910183150701"><ele>1170.5</ele><time>2026-04-29T14:04:53Z</time></trkpt><trkpt lat="44.58012466412449" lon="9.481100589412113"><ele>1169.0</ele><time>2026-04-29T14:04:54Z</time></trkpt><trkpt lat="44.580040128822894" lon="9.48129337596104"><ele>1167.5</ele><time>2026-04-29T14:04:55Z</time></trkpt><trkpt lat="44.57996956430095" lon="9.481415392605777"><ele>1166.0</ele><time>2026-04-29T14:04:56Z</time></trkpt><trkpt lat="44.579887800431216" lon="9.48147535032979"><ele>1166.0</ele><time>2026-04-29T14:04:57Z</time></trkpt><trkpt lat="44.57977476832214" lon="9.481443410069085"><ele>1166.0</ele><time>2026-04-29T14:04:58Z</time></trkpt><trkpt lat="44.57967002742895" lon="9.481408213045261"><ele>1166.0</ele><time>2026-04-29T14:04:59Z</time></trkpt><trkpt lat="44.579537189506844" lon="9.481338135916701"><ele>1166.0</ele><time>2026-04-29T14:05:00Z</time></trkpt><trkpt lat="44.57937123022882" lon="9.481284702477216"><ele>1168.25</ele><time>2026-04-29T14:05:01Z</time></trkpt><trkpt lat="44.57923674005456" lon="9.481237872899253"><ele>1170.5</ele><time>2026-04-29T14:05:02Z</time></trkpt><trkpt lat="44.5791274557087" lon="9.481220538375789"><ele>1172.75</ele><time>2026-04-29T14:05:03Z</time></trkpt><trkpt lat="44.579015826949274" lon="9.481242471148642"><ele>1175.0</ele><time>2026-04-29T14:05:04Z</time></trkpt><trkpt lat="44.57890493652111" lon="9.481305305850103"><ele>1175.0</ele><time>2026-04-29T14:05:05Z</time></trkpt><trkpt lat="44.578802419216785" lon="9.481409459832534"><ele>1175.0</ele><time>2026-04-29T14:05:06Z</time></trkpt><trkpt lat="44.578722872440366" lon="9.481554158511921"><ele>1175.0</ele><time>2026-04-29T14:05:07Z</time></trkpt><trkpt lat="44.5786565110637" lon="9.48173441080526"><ele>1175.0</ele><time>2026-04-29T14:05:08Z</time></trkpt><trkpt lat="44.57859234325572" lon="9.481924352972884"><ele>1180.5</ele><time>2026-04-29T14:05:09Z</time></trkpt><trkpt lat="44.57853905987676" lon="9.482122917639614"><ele>1186.0</ele><time>2026-04-29T14:05:10Z</time></trkpt><trkpt lat="44.57849362782805" lon="9.48230086794166"><ele>1191.5</ele><time>2026-04-29T14:05:11Z</time></trkpt><trkpt lat="44.578475101649545" lon="9.482474788516502"><ele>1197.0</ele><time>2026-04-29T14:05:12Z</time></trkpt><trkpt lat="44.57850467454931" lon="9.482666547219631"><ele>1197.0</ele><time>2026-04-29T14:05:13Z</time></trkpt><trkpt lat="44.57856417494449" lon="9.482885181024045"><ele>1197.0</ele><time>2026-04-29T14:05:14Z</time></trkpt><trkpt lat="44.57861972862711" lon="9.483126618861682"><ele>1197.0</ele><time>2026-04-29T14:05:15Z</time></trkpt><trkpt lat="44.5786564194532" lon="9.483361758723516"><ele>1190.5</ele><time>2026-04-29T14:05:16Z</time></trkpt><trkpt lat="44.57869465423375" lon="9.483563988548212"><ele>1184.0</ele><time>2026-04-29T14:05:17Z</time></trkpt><trkpt lat="44.57871694876662" lon="9.483747920130613"><ele>1177.5</ele><time>2026-04-29T14:05:18Z</time></trkpt><trkpt lat="44.578730601819935" lon="9.48393161147884"><ele>1171.0</ele><time>2026-04-29T14:05:19Z</time></trkpt><trkpt lat="44.57869234916703" lon="9.484112627356758"><ele>1178.3999999999999</ele><time>2026-04-29T14:05:20Z</time></trkpt><trkpt lat="44.578663931829844" lon="9.484282354941593"><ele>1185.8</ele><time>2026-04-29T14:05:21Z</time></trkpt><trkpt lat="44.5786212850768" lon="9.484409482679439"><ele>1193.1999999999998</ele><time>2026-04-29T14:05:22Z</time></trkpt><trkpt lat="44.5785747128852" lon="9.48449023115453"><ele>1200.6</ele><time>2026-04-29T14:05:23Z</time></trkpt><trkpt lat="44.57851286986951" lon="9.484543337865533"><ele>1208.0</ele><time>2026-04-29T14:05:24Z</time></trkpt><trkpt lat="44.57842470995579" lon="9.484574077071708"><ele>1200.0</ele><time>2026-04-29T14:05:25Z</time></trkpt><trkpt lat="44.578288926429686" lon="9.484606085335509"><ele>1192.0</ele><time>2026-04-29T14:05:26Z</time></trkpt><trkpt lat="44.57813596304663" lon="9.48467407833633"><ele>1184.0</ele><time>2026-04-29T14:05:27Z</time></trkpt><trkpt lat="44.57799748842974" lon="9.484792614528335"><ele>1184.0</ele><time>2026-04-29T14:05:28Z</time></trkpt><trkpt lat="44.57789053862214" lon="9.48487341099858"><ele>1184.0</ele><time>2026-04-29T14:05:29Z</time></trkpt><trkpt lat="44.577793525587666" lon="9.484920047509723"><ele>1184.0</ele><time>2026-04-29T14:05:30Z</time></trkpt><trkpt lat="44.57768893238026" lon="9.484940362020321"><ele>1184.0</ele><time>2026-04-29T14:05:31Z</time></trkpt><trkpt lat="44.57755086429133" lon="9.484930964223786"><ele>1188.25</ele><time>2026-04-29T14:05:32Z</time></trkpt><trkpt lat="44.577396336616935" lon="9.484910711912207"><ele>1192.5</ele><time>2026-04-29T14:05:33Z</time></trkpt><trkpt lat="44.57725994545883" lon="9.484907607706226"><ele>1196.75</ele><time>2026-04-29T14:05:34Z</time></trkpt><trkpt lat="44.57713908413226" lon="9.484874057131831"><ele>1201.0</ele><time>2026-04-29T14:05:35Z</time></trkpt><trkpt lat="44.57702695858718" lon="9.484884627774127"><ele>1204.25</ele><time>2026-04-29T14:05:36Z</time></trkpt><trkpt lat="44.57691360253453" lon="9.484943573144779"><ele>1207.5</ele><time>2026-04-29T14:05:37Z</time></trkpt><trkpt lat="44.57682171475952" lon="9.485067157437847"><ele>1210.75</ele><time>2026-04-29T14:05:38Z</time></trkpt><trkpt lat="44.576736886435135" lon="9.485187891830392"><ele>1214.0</ele><time>2026-04-29T14:05:39Z</time></trkpt><trkpt lat="44.57664355441378" lon="9.485251297096855"><ele>1214.0</ele><time>2026-04-29T14:05:40Z</time></trkpt><trkpt lat="44.57657105062324" lon="9.48530066269244"><ele>1214.0</ele><time>2026-04-29T14:05:41Z</time></trkpt><trkpt lat="44.576480404506285" lon="9.48531510605357"><ele>1214.0</ele><time>2026-04-29T14:05:42Z</time></trkpt><trkpt lat="44.57637849905599" lon="9.4852562037801"><ele>1214.0</ele><time>2026-04-29T14:05:43Z</time></trkpt><trkpt lat="44.57626996997142" lon="9.485183517788364"><ele>1214.0</ele><time>2026-04-29T14:05:44Z</time></trkpt><trkpt lat="44.576149986804104" lon="9.48508389291405"><ele>1213.0</ele><time>2026-04-29T14:05:45Z</time></trkpt><trkpt lat="44.576004992403156" lon="9.484972030673148"><ele>1212.0</ele><time>2026-04-29T14:05:46Z</time></trkpt><trkpt lat="44.57587054832103" lon="9.48487582269458"><ele>1211.0</ele><time>2026-04-29T14:05:47Z</time></trkpt><trkpt lat="44.57573968696776" lon="9.484807881398716"><ele>1211.0</ele><time>2026-04-29T14:05:48Z</time></trkpt><trkpt lat="44.5756203349961" lon="9.484732110775106"><ele>1211.0</ele><time>2026-04-29T14:05:49Z</time></trkpt><trkpt lat="44.57551672892239" lon="9.484673659638915"><ele>1211.0</ele><time>2026-04-29T14:05:50Z</time></trkpt><trkpt lat="44.57542228221831" lon="9.4846997951584"><ele>1211.0</ele><time>2026-04-29T14:05:51Z</time></trkpt><trkpt lat="44.57531506360508" lon="9.48475430267573"><ele>1214.25</ele><time>2026-04-29T14:05:52Z</time></trkpt><trkpt lat="44.57521827900634" lon="9.484842646097318"><ele>1217.5</ele><time>2026-04-29T14:05:53Z</time></trkpt><trkpt lat="44.57515370072998" lon="9.484992706108141"><ele>1220.75</ele><time>2026-04-29T14:05:54Z</time></trkpt><trkpt lat="44.57509498007417" lon="9.485142511876328"><ele>1224.0</ele><time>2026-04-29T14:05:55Z</time></trkpt><trkpt lat="44.57506879161845" lon="9.485294677332341"><ele>1226.25</ele><time>2026-04-29T14:05:56Z</time></trkpt><trkpt lat="44.57507914653279" lon="9.485454958972799"><ele>1228.5</ele><time>2026-04-29T14:05:57Z</time></trkpt><trkpt lat="44.57511302496931" lon="9.485651812274831"><ele>1230.75</ele><time>2026-04-29T14:05:58Z</time></trkpt><trkpt lat="44.57514179831898" lon="9.485873641040314"><ele>1233.0</ele><time>2026-04-29T14:05:59Z</time></trkpt><trkpt lat="44.57519726490159" lon="9.486110129604677"><ele>1238.0</ele><time>2026-04-29T14:06:00Z</time></trkpt><trkpt lat="44.57522617064936" lon="9.486370253743125"><ele>1243.0</ele><time>2026-04-29T14:06:01Z</time></trkpt><trkpt lat="44.57527014926379" lon="9.486623401880584"><ele>1248.0</ele><time>2026-04-29T14:06:02Z</time></trkpt><trkpt lat="44.57531040707804" lon="9.486833369745334"><ele>1238.3333333333333</ele><time>2026-04-29T14:06:03Z</time></trkpt><trkpt lat="44.575360727502925" lon="9.487020996301265"><ele>1228.6666666666665</ele><time>2026-04-29T14:06:04Z</time></trkpt><trkpt lat="44.575440578580434" lon="9.487213227346512"><ele>1219.0</ele><time>2026-04-29T14:06:05Z</time></trkpt><trkpt lat="44.57552218006964" lon="9.487391652864344"><ele>1219.0</ele><time>2026-04-29T14:06:06Z</time></trkpt><trkpt lat="44.57556840860953" lon="9.48755052153449"><ele>1219.0</ele><time>2026-04-29T14:06:07Z</time></trkpt><trkpt lat="44.57559156753782" lon="9.487685050719856"><ele>1219.0</ele><time>2026-04-29T14:06:08Z</time></trkpt><trkpt lat="44.57558805505467" lon="9.487808656995211"><ele>1219.0</ele><time>2026-04-29T14:06:09Z</time></trkpt><trkpt lat="44.57556362142297" lon="9.487941653948539"><ele>1219.0</ele><time>2026-04-29T14:06:10Z</time></trkpt><trkpt lat="44.57550791467524" lon="9.488085341511818"><ele>1217.3333333333333</ele><time>2026-04-29T14:06:11Z</time></trkpt><trkpt lat="44.5754284854586" lon="9.488235698756945"><ele>1215.6666666666667</ele><time>2026-04-29T14:06:12Z</time></trkpt><trkpt lat="44.57534127529937" lon="9.488414751265807"><ele>1214.0</ele><time>2026-04-29T14:06:13Z</time></trkpt><trkpt lat="44.57525950625138" lon="9.48862121667183"><ele>1219.75</ele><time>2026-04-29T14:06:14Z</time></trkpt><trkpt lat="44.575164721632106" lon="9.48881173010617"><ele>1225.5</ele><time>2026-04-29T14:06:15Z</time></trkpt><trkpt lat="44.57508354047898" lon="9.488990470224541"><ele>1231.25</ele><time>2026-04-29T14:06:16Z</time></trkpt><trkpt lat="44.57501536968334" lon="9.4891448952936"><ele>1237.0</ele><time>2026-04-29T14:06:17Z</time></trkpt><trkpt lat="44.57494552530481" lon="9.489277091307928"><ele>1237.0</ele><time>2026-04-29T14:06:18Z</time></trkpt><trkpt lat="44.57490920990086" lon="9.489396232246822"><ele>1237.0</ele><time>2026-04-29T14:06:19Z</time></trkpt><trkpt lat="44.574868006704634" lon="9.489533535509198"><ele>1237.0</ele><time>2026-04-29T14:06:20Z</time></trkpt><trkpt lat="44.574865911765194" lon="9.489700499459644"><ele>1237.0</ele><time>2026-04-29T14:06:21Z</time></trkpt><trkpt lat="44.57491280787508" lon="9.489843445567757"><ele>1237.0</ele><time>2026-04-29T14:06:22Z</time></trkpt><trkpt lat="44.574976972253225" lon="9.489987094383704"><ele>1239.3333333333333</ele><time>2026-04-29T14:06:23Z</time></trkpt><trkpt lat="44.57505823243931" lon="9.490146974781581"><ele>1241.6666666666667</ele><time>2026-04-29T14:06:24Z</time></trkpt><trkpt lat="44.57514479950576" lon="9.490330926401263"><ele>1244.0</ele><time>2026-04-29T14:06:25Z</time></trkpt><trkpt lat="44.5752455679719" lon="9.49052929996242"><ele>1250.3333333333335</ele><time>2026-04-29T14:06:26Z</time></trkpt><trkpt lat="44.57533885934614" lon="9.490750041071779"><ele>1256.6666666666667</ele><time>2026-04-29T14:06:27Z</time></trkpt><trkpt lat="44.57541968708367" lon="9.490995797608935"><ele>1263.0</ele><time>2026-04-29T14:06:28Z</time></trkpt><trkpt lat="44.575499602495455" lon="9.491249191047835"><ele>1255.0</ele><time>2026-04-29T14:06:29Z</time></trkpt><trkpt lat="44.57559380267428" lon="9.491503457479444"><ele>1247.0</ele><time>2026-04-29T14:06:30Z</time></trkpt><trkpt lat="44.57566427271116" lon="9.491728384739256"><ele>1239.0</ele><time>2026-04-29T14:06:31Z</time></trkpt><trkpt lat="44.57571991685083" lon="9.491896258455307"><ele>1239.0</ele><time>2026-04-29T14:06:32Z</time></trkpt><trkpt lat="44.57576368719517" lon="9.492028707727004"><ele>1239.0</ele><time>2026-04-29T14:06:33Z</time></trkpt><trkpt lat="44.575763728246855" lon="9.49216386738494"><ele>1239.0</ele><time>2026-04-29T14:06:34Z</time></trkpt><trkpt lat="44.575760593653875" lon="9.4922848652949"><ele>1239.0</ele><time>2026-04-29T14:06:35Z</time></trkpt><trkpt lat="44.57573703516498" lon="9.492420059414153"><ele>1239.0</ele><time>2026-04-29T14:06:36Z</time></trkpt><trkpt lat="44.57565562415188" lon="9.492536921215738"><ele>1240.0</ele><time>2026-04-29T14:06:37Z</time></trkpt><trkpt lat="44.57556862610944" lon="9.492635670951266"><ele>1241.0</ele><time>2026-04-29T14:06:38Z</time></trkpt><trkpt lat="44.575476825396954" lon="9.492785114129395"><ele>1242.0</ele><time>2026-04-29T14:06:39Z</time></trkpt><trkpt lat="44.57541852426038" lon="9.492924237827502"><ele>1243.0</ele><time>2026-04-29T14:06:40Z</time></trkpt><trkpt lat="44.57541371995997" lon="9.493069462236155"><ele>1243.5</ele><time>2026-04-29T14:06:41Z</time></trkpt><trkpt lat="44.57546099960125" lon="9.49321001126637"><ele>1244.0</ele><time>2026-04-29T14:06:42Z</time></trkpt><trkpt lat="44.57552824314921" lon="9.49335711681959"><ele>1244.5</ele><time>2026-04-29T14:06:43Z</time></trkpt><trkpt lat="44.57562268707543" lon="9.493511869473538"><ele>1245.0</ele><time>2026-04-29T14:06:44Z</time></trkpt><trkpt lat="44.57572079868514" lon="9.493694990371475"><ele>1247.25</ele><time>2026-04-29T14:06:45Z</time></trkpt><trkpt lat="44.575788662758576" lon="9.49391898816277"><ele>1249.5</ele><time>2026-04-29T14:06:46Z</time></trkpt><trkpt lat="44.57582857968284" lon="9.494116492968958"><ele>1251.75</ele><time>2026-04-29T14:06:47Z</time></trkpt><trkpt lat="44.57587146457449" lon="9.494268586855817"><ele>1254.0</ele><time>2026-04-29T14:06:48Z</time></trkpt><trkpt lat="44.57589312375514" lon="9.494387119709565"><ele>1254.0</ele><time>2026-04-29T14:06:49Z</time></trkpt><trkpt lat="44.575866414237176" lon="9.494526440156658"><ele>1254.0</ele><time>2026-04-29T14:06:50Z</time></trkpt><trkpt lat="44.57583783869943" lon="9.494686017623255"><ele>1254.0</ele><time>2026-04-29T14:06:51Z</time></trkpt><trkpt lat="44.57580133755125" lon="9.494883181474894"><ele>1254.0</ele><time>2026-04-29T14:06:52Z</time></trkpt><trkpt lat="44.575747151173395" lon="9.495091623849556"><ele>1255.3333333333333</ele><time>2026-04-29T14:06:53Z</time></trkpt><trkpt lat="44.57569870892705" lon="9.495303670008301"><ele>1256.6666666666665</ele><time>2026-04-29T14:06:54Z</time></trkpt><trkpt lat="44.575647748474005" lon="9.495530510085054"><ele>1258.0</ele><time>2026-04-29T14:06:55Z</time></trkpt><trkpt lat="44.57559614382081" lon="9.495754430165038"><ele>1258.0</ele><time>2026-04-29T14:06:56Z</time></trkpt><trkpt lat="44.575547226110395" lon="9.495945506522538"><ele>1258.0</ele><time>2026-04-29T14:06:57Z</time></trkpt><trkpt lat="44.57547667338984" lon="9.496114485118278"><ele>1258.0</ele><time>2026-04-29T14:06:58Z</time></trkpt><trkpt lat="44.57538426833198" lon="9.496289387058308"><ele>1258.0</ele><time>2026-04-29T14:06:59Z</time></trkpt><trkpt lat="44.575291962353994" lon="9.496494209010864"><ele>1263.3333333333333</ele><time>2026-04-29T14:07:00Z</time></trkpt><trkpt lat="44.57518788569302" lon="9.496684871779822"><ele>1268.6666666666667</ele><time>2026-04-29T14:07:01Z</time></trkpt><trkpt lat="44.57509813387469" lon="9.496891855584968"><ele>1274.0</ele><time>2026-04-29T14:07:02Z</time></trkpt><trkpt lat="44.57503288011808" lon="9.49712019179599"><ele>1274.0</ele><time>2026-04-29T14:07:03Z</time></trkpt><trkpt lat="44.574977381216144" lon="9.497346524036354"><ele>1274.0</ele><time>2026-04-29T14:07:04Z</time></trkpt><trkpt lat="44.57492943515654" lon="9.49754272292453"><ele>1274.0</ele><time>2026-04-29T14:07:05Z</time></trkpt><trkpt lat="44.57490419929123" lon="9.49770966162768"><ele>1274.0</ele><time>2026-04-29T14:07:06Z</time></trkpt><trkpt lat="44.57487134523004" lon="9.497856473494707"><ele>1275.25</ele><time>2026-04-29T14:07:07Z</time></trkpt><trkpt lat="44.57487169456364" lon="9.497994694247856"><ele>1276.5</ele><time>2026-04-29T14:07:08Z</time></trkpt><trkpt lat="44.574905597683504" lon="9.498142764313748"><ele>1277.75</ele><time>2026-04-29T14:07:09Z</time></trkpt><trkpt lat="44.574984729402544" lon="9.498281917590434"><ele>1279.0</ele><time>2026-04-29T14:07:10Z</time></trkpt><trkpt lat="44.57508031097306" lon="9.498383394436601"><ele>1279.0</ele><time>2026-04-29T14:07:11Z</time></trkpt><trkpt lat="44.5751911861802" lon="9.498470641774052"><ele>1279.0</ele><time>2026-04-29T14:07:12Z</time></trkpt><trkpt lat="44.575335221099756" lon="9.498463908154624"><ele>1279.0</ele><time>2026-04-29T14:07:13Z</time></trkpt><trkpt lat="44.57548847768122" lon="9.498463284956317"><ele>1279.0</ele><time>2026-04-29T14:07:14Z</time></trkpt><trkpt lat="44.57566527302006" lon="9.498458501088015"><ele>1279.6666666666665</ele><time>2026-04-29T14:07:15Z</time></trkpt><trkpt lat="44.575854156580526" lon="9.49849193870845"><ele>1280.3333333333333</ele><time>2026-04-29T14:07:16Z</time></trkpt><trkpt lat="44.57603848529292" lon="9.498517871865067"><ele>1281.0</ele><time>2026-04-29T14:07:17Z</time></trkpt><trkpt lat="44.5761944349024" lon="9.498590224160118"><ele>1281.0</ele><time>2026-04-29T14:07:18Z</time></trkpt><trkpt lat="44.57633024646513" lon="9.498643558996442"><ele>1281.0</ele><time>2026-04-29T14:07:19Z</time></trkpt><trkpt lat="44.57647085582003" lon="9.498670390948535"><ele>1281.0</ele><time>2026-04-29T14:07:20Z</time></trkpt><trkpt lat="44.57662123922859" lon="9.498663499116681"><ele>1281.0</ele><time>2026-04-29T14:07:21Z</time></trkpt><trkpt lat="44.57678416101096" lon="9.498621300918492"><ele>1281.0</ele><time>2026-04-29T14:07:22Z</time></trkpt><trkpt lat="44.576944115153545" lon="9.49857955457116"><ele>1281.0</ele><time>2026-04-29T14:07:23Z</time></trkpt><trkpt lat="44.57708282343421" lon="9.49854789852614"><ele>1281.0</ele><time>2026-04-29T14:07:24Z</time></trkpt><trkpt lat="44.57720081116405" lon="9.49853314295668"><ele>1281.0</ele><time>2026-04-29T14:07:25Z</time></trkpt><trkpt lat="44.57731056548712" lon="9.498548365627016"><ele>1280.6</ele><time>2026-04-29T14:07:26Z</time></trkpt><trkpt lat="44.577411618722515" lon="9.498592671616393"><ele>1280.1999999999998</ele><time>2026-04-29T14:07:27Z</time></trkpt><trkpt lat="44.5775111462449" lon="9.49866743926791"><ele>1279.8000000000002</ele><time>2026-04-29T14:07:28Z</time></trkpt><trkpt lat="44.577601333265825" lon="9.498764487839459"><ele>1279.4</ele><time>2026-04-29T14:07:29Z</time></trkpt><trkpt lat="44.57765704439604" lon="9.498888028993857"><ele>1279.0</ele><time>2026-04-29T14:07:30Z</time></trkpt><trkpt lat="44.577745339319804" lon="9.499035139694778"><ele>1284.75</ele><time>2026-04-29T14:07:31Z</time></trkpt><trkpt lat="44.57779836461103" lon="9.499168304450938"><ele>1290.5</ele><time>2026-04-29T14:07:32Z</time></trkpt><trkpt lat="44.57782006865579" lon="9.499317250135407"><ele>1296.25</ele><time>2026-04-29T14:07:32.999Z</time></trkpt><trkpt lat="44.57782617967299" lon="9.4994956643769"><ele>1302.0</ele><time>2026-04-29T14:07:33.999Z</time></trkpt><trkpt lat="44.57783385939833" lon="9.499682829765419"><ele>1305.1999999999998</ele><time>2026-04-29T14:07:34.999Z</time></trkpt><trkpt lat="44.577826905905" lon="9.499844473939442"><ele>1308.4</ele><time>2026-04-29T14:07:35.999Z</time></trkpt><trkpt lat="44.577842337891575" lon="9.499982593256997"><ele>1311.6</ele><time>2026-04-29T14:07:36.999Z</time></trkpt><trkpt lat="44.57788622092247" lon="9.500108195950979"><ele>1314.8000000000002</ele><time>2026-04-29T14:07:37.999Z</time></trkpt><trkpt lat="44.57796301354699" lon="9.500244063585663"><ele>1318.0</ele><time>2026-04-29T14:07:38.999Z</time></trkpt><trkpt lat="44.57805623796938" lon="9.500379303778757"><ele>1312.0</ele><time>2026-04-29T14:07:39.999Z</time></trkpt><trkpt lat="44.57815411231589" lon="9.50052543554983"><ele>1306.0</ele><time>2026-04-29T14:07:40.999Z</time></trkpt><trkpt lat="44.57825892669907" lon="9.500660384742385"><ele>1300.0</ele><time>2026-04-29T14:07:41.999Z</time></trkpt><trkpt lat="44.578313520491506" lon="9.500806034077886"><ele>1294.0</ele><time>2026-04-29T14:07:42.999Z</time></trkpt><trkpt lat="44.578336711554385" lon="9.500907828193261"><ele>1294.0</ele><time>2026-04-29T14:07:43.999Z</time></trkpt><trkpt lat="44.57835195602848" lon="9.500994408662171"><ele>1294.0</ele><time>2026-04-29T14:07:44.999Z</time></trkpt><trkpt lat="44.57833694422138" lon="9.501097211331277"><ele>1294.0</ele><time>2026-04-29T14:07:45.999Z</time></trkpt><trkpt lat="44.57830565103193" lon="9.501184392446154"><ele>1294.0</ele><time>2026-04-29T14:07:47Z</time></trkpt><trkpt lat="44.57825798671709" lon="9.5012662372374"><ele>1294.0</ele><time>2026-04-29T14:07:48Z</time></trkpt><trkpt lat="44.57817900308735" lon="9.501362757694492"><ele>1294.0</ele><time>2026-04-29T14:07:49Z</time></trkpt><trkpt lat="44.57806642950074" lon="9.501494100976347"><ele>1291.6666666666665</ele><time>2026-04-29T14:07:50Z</time></trkpt><trkpt lat="44.577940838908745" lon="9.501633312480259"><ele>1289.3333333333333</ele><time>2026-04-29T14:07:51Z</time></trkpt><trkpt lat="44.57781321275334" lon="9.501773721957163"><ele>1287.0</ele><time>2026-04-29T14:07:52Z</time></trkpt><trkpt lat="44.57767131455297" lon="9.50192843229523"><ele>1288.75</ele><time>2026-04-29T14:07:53Z</time></trkpt><trkpt lat="44.577549514149894" lon="9.50205617332512"><ele>1290.5</ele><time>2026-04-29T14:07:54Z</time></trkpt><trkpt lat="44.57744069573251" lon="9.50214254770524"><ele>1292.25</ele><time>2026-04-29T14:07:55Z</time></trkpt><trkpt lat="44.57731318299799" lon="9.502196430258655"><ele>1294.0</ele><time>2026-04-29T14:07:56Z</time></trkpt><trkpt lat="44.5771562782393" lon="9.502255060942554"><ele>1301.25</ele><time>2026-04-29T14:07:57Z</time></trkpt><trkpt lat="44.57700548876411" lon="9.502317272252885"><ele>1308.5</ele><time>2026-04-29T14:07:58Z</time></trkpt><trkpt lat="44.5768911745933" lon="9.502376398643882"><ele>1315.75</ele><time>2026-04-29T14:07:59Z</time></trkpt><trkpt lat="44.576805756900896" lon="9.502453732949999"><ele>1323.0</ele><time>2026-04-29T14:08:00Z</time></trkpt><trkpt lat="44.576750631983394" lon="9.502555283792523"><ele>1323.0</ele><time>2026-04-29T14:08:01Z</time></trkpt><trkpt lat="44.57673046325159" lon="9.502702897880923"><ele>1323.0</ele><time>2026-04-29T14:08:02Z</time></trkpt><trkpt lat="44.576706010425674" lon="9.502846672852575"><ele>1323.0</ele><time>2026-04-29T14:08:03Z</time></trkpt><trkpt lat="44.57673737210317" lon="9.503023453627492"><ele>1323.0</ele><time>2026-04-29T14:08:04Z</time></trkpt><trkpt lat="44.57680284716518" lon="9.503156608826645"><ele>1322.2</ele><time>2026-04-29T14:08:05Z</time></trkpt><trkpt lat="44.57688622073187" lon="9.50326845164655"><ele>1321.4</ele><time>2026-04-29T14:08:06Z</time></trkpt><trkpt lat="44.57697211766068" lon="9.503398452733183"><ele>1320.6000000000001</ele><time>2026-04-29T14:08:07Z</time></trkpt><trkpt lat="44.57702183691671" lon="9.503522664784914"><ele>1319.8000000000002</ele><time>2026-04-29T14:08:08Z</time></trkpt><trkpt lat="44.577041770220575" lon="9.503647635659696"><ele>1319.0</ele><time>2026-04-29T14:08:09Z</time></trkpt><trkpt lat="44.57699379519906" lon="9.503780353394628"><ele>1318.2</ele><time>2026-04-29T14:08:10Z</time></trkpt><trkpt lat="44.57694677489943" lon="9.503901107415272"><ele>1317.4</ele><time>2026-04-29T14:08:11Z</time></trkpt><trkpt lat="44.57687457963096" lon="9.503966445313198"><ele>1316.6</ele><time>2026-04-29T14:08:12Z</time></trkpt><trkpt lat="44.57677066995352" lon="9.504044177269865"><ele>1315.8</ele><time>2026-04-29T14:08:13Z</time></trkpt><trkpt lat="44.5766450691712" lon="9.504088257599406"><ele>1315.0</ele><time>2026-04-29T14:08:14Z</time></trkpt><trkpt lat="44.57648349870679" lon="9.504145190896848"><ele>1315.0</ele><time>2026-04-29T14:08:15Z</time></trkpt><trkpt lat="44.57632345756609" lon="9.50421437135991"><ele>1315.0</ele><time>2026-04-29T14:08:16Z</time></trkpt><trkpt lat="44.57619960960504" lon="9.50429391129548"><ele>1315.0</ele><time>2026-04-29T14:08:17Z</time></trkpt><trkpt lat="44.576111565427226" lon="9.504398935649782"><ele>1315.0</ele><time>2026-04-29T14:08:18Z</time></trkpt><trkpt lat="44.57604660264858" lon="9.504501161836547"><ele>1321.5</ele><time>2026-04-29T14:08:19Z</time></trkpt><trkpt lat="44.576013015412556" lon="9.504635982013232"><ele>1328.0</ele><time>2026-04-29T14:08:20Z</time></trkpt><trkpt lat="44.57600259045749" lon="9.504793016067973"><ele>1334.5</ele><time>2026-04-29T14:08:21Z</time></trkpt><trkpt lat="44.5760550182782" lon="9.504963910490439"><ele>1341.0</ele><time>2026-04-29T14:08:22Z</time></trkpt><trkpt lat="44.57614136377569" lon="9.505129163060692"><ele>1340.4</ele><time>2026-04-29T14:08:23Z</time></trkpt><trkpt lat="44.57622326621912" lon="9.505267696473519"><ele>1339.8</ele><time>2026-04-29T14:08:24Z</time></trkpt><trkpt lat="44.576261799294656" lon="9.505389584557603"><ele>1339.2</ele><time>2026-04-29T14:08:25Z</time></trkpt><trkpt lat="44.57622807855432" lon="9.505498857715699"><ele>1338.6000000000001</ele><time>2026-04-29T14:08:26Z</time></trkpt><trkpt lat="44.576173455601214" lon="9.505622714156127"><ele>1338.0</ele><time>2026-04-29T14:08:27Z</time></trkpt><trkpt lat="44.57608697524027" lon="9.505750783082512"><ele>1338.0</ele><time>2026-04-29T14:08:28Z</time></trkpt><trkpt lat="44.57595950874201" lon="9.505856419749291"><ele>1338.0</ele><time>2026-04-29T14:08:29Z</time></trkpt><trkpt lat="44.57586005337563" lon="9.506007716822015"><ele>1338.0</ele><time>2026-04-29T14:08:30Z</time></trkpt><trkpt lat="44.57578496178708" lon="9.506111623184907"><ele>1338.0</ele><time>2026-04-29T14:08:31Z</time></trkpt><trkpt lat="44.57573842150137" lon="9.506225161160717"><ele>1337.25</ele><time>2026-04-29T14:08:32Z</time></trkpt><trkpt lat="44.575725628309435" lon="9.506364017154954"><ele>1336.5</ele><time>2026-04-29T14:08:33Z</time></trkpt><trkpt lat="44.5757623954957" lon="9.506529017366883"><ele>1335.75</ele><time>2026-04-29T14:08:34Z</time></trkpt><trkpt lat="44.575853145249354" lon="9.506707341944074"><ele>1335.0</ele><time>2026-04-29T14:08:35Z</time></trkpt><trkpt lat="44.57590473101599" lon="9.50687965963804"><ele>1335.0</ele><time>2026-04-29T14:08:36Z</time></trkpt><trkpt lat="44.57591626509308" lon="9.506993029053149"><ele>1335.0</ele><time>2026-04-29T14:08:37Z</time></trkpt><trkpt lat="44.57589268275041" lon="9.507104088455822"><ele>1335.0</ele><time>2026-04-29T14:08:38Z</time></trkpt><trkpt lat="44.575866853227836" lon="9.507224129901488"><ele>1335.0</ele><time>2026-04-29T14:08:39Z</time></trkpt><trkpt lat="44.57575669553405" lon="9.507287827858294"><ele>1335.0</ele><time>2026-04-29T14:08:40Z</time></trkpt><trkpt lat="44.57565058512741" lon="9.507383409848655"><ele>1331.3333333333333</ele><time>2026-04-29T14:08:41Z</time></trkpt><trkpt lat="44.57552014867217" lon="9.50749411964225"><ele>1327.6666666666665</ele><time>2026-04-29T14:08:42Z</time></trkpt><trkpt lat="44.57538602957992" lon="9.507604502705092"><ele>1324.0</ele><time>2026-04-29T14:08:43Z</time></trkpt><trkpt lat="44.575263993787296" lon="9.507747977338116"><ele>1330.0</ele><time>2026-04-29T14:08:44Z</time></trkpt><trkpt lat="44.57515873102212" lon="9.507934110010359"><ele>1336.0</ele><time>2026-04-29T14:08:45Z</time></trkpt><trkpt lat="44.57506124187384" lon="9.508153367530701"><ele>1342.0</ele><time>2026-04-29T14:08:46Z</time></trkpt><trkpt lat="44.57498296036795" lon="9.508333724458824"><ele>1342.0</ele><time>2026-04-29T14:08:47Z</time></trkpt><trkpt lat="44.57492210903099" lon="9.50847133474691"><ele>1342.0</ele><time>2026-04-29T14:08:48Z</time></trkpt><trkpt lat="44.57485890800844" lon="9.508573704892681"><ele>1342.0</ele><time>2026-04-29T14:08:49Z</time></trkpt><trkpt lat="44.57479180124478" lon="9.508649469577412"><ele>1342.0</ele><time>2026-04-29T14:08:50Z</time></trkpt><trkpt lat="44.57468694609498" lon="9.508699628774433"><ele>1342.0</ele><time>2026-04-29T14:08:51Z</time></trkpt><trkpt lat="44.57455875306173" lon="9.508763546978887"><ele>1341.25</ele><time>2026-04-29T14:08:52Z</time></trkpt><trkpt lat="44.57443171633565" lon="9.508744954438727"><ele>1340.5</ele><time>2026-04-29T14:08:53Z</time></trkpt><trkpt lat="44.57428945737302" lon="9.508699661564004"><ele>1339.75</ele><time>2026-04-29T14:08:54Z</time></trkpt><trkpt lat="44.574128625761595" lon="9.508678803119574"><ele>1339.0</ele><time>2026-04-29T14:08:55Z</time></trkpt><trkpt lat="44.57397911056245" lon="9.50863711633353"><ele>1343.5</ele><time>2026-04-29T14:08:56Z</time></trkpt><trkpt lat="44.57384120267275" lon="9.508641523119357"><ele>1348.0</ele><time>2026-04-29T14:08:57Z</time></trkpt><trkpt lat="44.573730719531575" lon="9.508673530785245"><ele>1352.5</ele><time>2026-04-29T14:08:58Z</time></trkpt><trkpt lat="44.573638350466304" lon="9.508762341462457"><ele>1357.0</ele><time>2026-04-29T14:08:59Z</time></trkpt><trkpt lat="44.573558358801016" lon="9.508871671136452"><ele>1357.0</ele><time>2026-04-29T14:09:00Z</time></trkpt><trkpt lat="44.57350855545729" lon="9.509008126722817"><ele>1357.0</ele><time>2026-04-29T14:09:01Z</time></trkpt><trkpt lat="44.57349314177089" lon="9.509162703863828"><ele>1357.0</ele><time>2026-04-29T14:09:02Z</time></trkpt><trkpt lat="44.573497131810505" lon="9.509339454382898"><ele>1357.0</ele><time>2026-04-29T14:09:03Z</time></trkpt><trkpt lat="44.573524505471944" lon="9.509499973368628"><ele>1360.25</ele><time>2026-04-29T14:09:04Z</time></trkpt><trkpt lat="44.5735941049054" lon="9.509654234667796"><ele>1363.5</ele><time>2026-04-29T14:09:05Z</time></trkpt><trkpt lat="44.57368570554787" lon="9.509813417504299"><ele>1366.75</ele><time>2026-04-29T14:09:06Z</time></trkpt><trkpt lat="44.573783449641624" lon="9.509984438270147"><ele>1370.0</ele><time>2026-04-29T14:09:07Z</time></trkpt><trkpt lat="44.57386413283805" lon="9.510154907840755"><ele>1364.5</ele><time>2026-04-29T14:09:08Z</time></trkpt><trkpt lat="44.573933786607476" lon="9.510296962226635"><ele>1359.0</ele><time>2026-04-29T14:09:09Z</time></trkpt><trkpt lat="44.57395363845147" lon="9.51045158138534"><ele>1353.5</ele><time>2026-04-29T14:09:10Z</time></trkpt><trkpt lat="44.57399197564891" lon="9.510626561694117"><ele>1348.0</ele><time>2026-04-29T14:09:11Z</time></trkpt><trkpt lat="44.57401705467821" lon="9.510817009518004"><ele>1348.0</ele><time>2026-04-29T14:09:12Z</time></trkpt><trkpt lat="44.57404049713932" lon="9.511038406816883"><ele>1348.0</ele><time>2026-04-29T14:09:13Z</time></trkpt><trkpt lat="44.57406813220805" lon="9.511234833388091"><ele>1348.0</ele><time>2026-04-29T14:09:14Z</time></trkpt><trkpt lat="44.57408854123135" lon="9.511394953150122"><ele>1348.0</ele><time>2026-04-29T14:09:15Z</time></trkpt><trkpt lat="44.57408123640147" lon="9.511548414659984"><ele>1349.25</ele><time>2026-04-29T14:09:16Z</time></trkpt><trkpt lat="44.57405085516579" lon="9.511707777960096"><ele>1350.5</ele><time>2026-04-29T14:09:17Z</time></trkpt><trkpt lat="44.573998589776366" lon="9.511844641965922"><ele>1351.75</ele><time>2026-04-29T14:09:18Z</time></trkpt><trkpt lat="44.573931435972895" lon="9.511969662049504"><ele>1353.0</ele><time>2026-04-29T14:09:19Z</time></trkpt><trkpt lat="44.573844192718084" lon="9.512074341636461"><ele>1353.0</ele><time>2026-04-29T14:09:20Z</time></trkpt><trkpt lat="44.573737505167536" lon="9.51213724809837"><ele>1353.0</ele><time>2026-04-29T14:09:21Z</time></trkpt><trkpt lat="44.573613542254115" lon="9.512207304961255"><ele>1353.0</ele><time>2026-04-29T14:09:22Z</time></trkpt><trkpt lat="44.5734692203464" lon="9.512294102755538"><ele>1353.0</ele><time>2026-04-29T14:09:23Z</time></trkpt><trkpt lat="44.573315284966306" lon="9.512353538251984"><ele>1355.8000000000002</ele><time>2026-04-29T14:09:24Z</time></trkpt><trkpt lat="44.57319643149615" lon="9.51242234621625"><ele>1358.6</ele><time>2026-04-29T14:09:25Z</time></trkpt><trkpt lat="44.57309334631383" lon="9.512493624716166"><ele>1361.4</ele><time>2026-04-29T14:09:26Z</time></trkpt><trkpt lat="44.5730180301608" lon="9.512574853704239"><ele>1364.1999999999998</ele><time>2026-04-29T14:09:27Z</time></trkpt><trkpt lat="44.57296077496139" lon="9.512680703437248"><ele>1367.0</ele><time>2026-04-29T14:09:28Z</time></trkpt><trkpt lat="44.57291801506465" lon="9.512817381775703"><ele>1366.6666666666667</ele><time>2026-04-29T14:09:29Z</time></trkpt><trkpt lat="44.57290995543617" lon="9.512996165050735"><ele>1366.3333333333333</ele><time>2026-04-29T14:09:30Z</time></trkpt><trkpt lat="44.57295774150532" lon="9.513202175363153"><ele>1366.0</ele><time>2026-04-29T14:09:31Z</time></trkpt><trkpt lat="44.57298832788595" lon="9.513438353619925"><ele>1366.0</ele><time>2026-04-29T14:09:32Z</time></trkpt><trkpt lat="44.57303402871961" lon="9.513662005202239"><ele>1366.0</ele><time>2026-04-29T14:09:33Z</time></trkpt><trkpt lat="44.573050571224286" lon="9.513867480234294"><ele>1366.0</ele><time>2026-04-29T14:09:34Z</time></trkpt><trkpt lat="44.573066733543335" lon="9.514046990121376"><ele>1366.0</ele><time>2026-04-29T14:09:35Z</time></trkpt><trkpt lat="44.57307627224061" lon="9.514234078284803"><ele>1368.3333333333333</ele><time>2026-04-29T14:09:36Z</time></trkpt><trkpt lat="44.573081621976335" lon="9.514461399504102"><ele>1370.6666666666667</ele><time>2026-04-29T14:09:37Z</time></trkpt><trkpt lat="44.57308366637879" lon="9.514673171266018"><ele>1373.0</ele><time>2026-04-29T14:09:38Z</time></trkpt><trkpt lat="44.57308385545937" lon="9.514867638788758"><ele>1373.4</ele><time>2026-04-29T14:09:39Z</time></trkpt><trkpt lat="44.57308288460896" lon="9.515009102384619"><ele>1373.8000000000002</ele><time>2026-04-29T14:09:39.999Z</time></trkpt><trkpt lat="44.57307125838025" lon="9.51517587976294"><ele>1374.2</ele><time>2026-04-29T14:09:40.999Z</time></trkpt><trkpt lat="44.57304132217041" lon="9.51530826048042"><ele>1374.6</ele><time>2026-04-29T14:09:41.999Z</time></trkpt><trkpt lat="44.572995581889515" lon="9.515458900538361"><ele>1375.0</ele><time>2026-04-29T14:09:42.999Z</time></trkpt><trkpt lat="44.57289201286208" lon="9.51559338630797"><ele>1380.6666666666665</ele><time>2026-04-29T14:09:43.999Z</time></trkpt><trkpt lat="44.572782697446684" lon="9.515751711615458"><ele>1386.3333333333333</ele><time>2026-04-29T14:09:44.999Z</time></trkpt><trkpt lat="44.57266618276345" lon="9.515927093431806"><ele>1392.0</ele><time>2026-04-29T14:09:45.999Z</time></trkpt><trkpt lat="44.57254773003459" lon="9.5160994996899"><ele>1391.25</ele><time>2026-04-29T14:09:46.999Z</time></trkpt><trkpt lat="44.572425090487954" lon="9.516264137733293"><ele>1390.5</ele><time>2026-04-29T14:09:47.999Z</time></trkpt><trkpt lat="44.57233629410838" lon="9.51642117213997"><ele>1389.75</ele><time>2026-04-29T14:09:48.999Z</time></trkpt><trkpt lat="44.57224604450868" lon="9.516539474297643"><ele>1389.0</ele><time>2026-04-29T14:09:49.999Z</time></trkpt><trkpt lat="44.57219211920368" lon="9.516652549603872"><ele>1389.0</ele><time>2026-04-29T14:09:50.999Z</time></trkpt><trkpt lat="44.572163951081485" lon="9.516797299412417"><ele>1389.0</ele><time>2026-04-29T14:09:51.999Z</time></trkpt><trkpt lat="44.572145649698584" lon="9.516958660008534"><ele>1389.0</ele><time>2026-04-29T14:09:53Z</time></trkpt><trkpt lat="44.5721601564313" lon="9.517125364024354"><ele>1389.0</ele><time>2026-04-29T14:09:54Z</time></trkpt><trkpt lat="44.57219995017717" lon="9.51729264278233"><ele>1391.6666666666667</ele><time>2026-04-29T14:09:55Z</time></trkpt><trkpt lat="44.572255917372566" lon="9.517474498564773"><ele>1394.3333333333335</ele><time>2026-04-29T14:09:56Z</time></trkpt><trkpt lat="44.572332287753035" lon="9.517668468736556"><ele>1397.0</ele><time>2026-04-29T14:09:57Z</time></trkpt><trkpt lat="44.572432024025915" lon="9.517873509528707"><ele>1400.6666666666667</ele><time>2026-04-29T14:09:58Z</time></trkpt><trkpt lat="44.57250800025095" lon="9.51812443243657"><ele>1404.3333333333333</ele><time>2026-04-29T14:09:59Z</time></trkpt><trkpt lat="44.57260215844437" lon="9.518338312273498"><ele>1408.0</ele><time>2026-04-29T14:10:00Z</time></trkpt><trkpt lat="44.57269552586581" lon="9.518537406037646"><ele>1406.3333333333333</ele><time>2026-04-29T14:10:01Z</time></trkpt><trkpt lat="44.57280234478213" lon="9.518736841307613"><ele>1404.6666666666667</ele><time>2026-04-29T14:10:02Z</time></trkpt><trkpt lat="44.57292317953294" lon="9.518939550306506"><ele>1403.0</ele><time>2026-04-29T14:10:03Z</time></trkpt><trkpt lat="44.573055346791314" lon="9.51913995071887"><ele>1403.0</ele><time>2026-04-29T14:10:04Z</time></trkpt><trkpt lat="44.573187465597876" lon="9.519346401501785"><ele>1403.0</ele><time>2026-04-29T14:10:05Z</time></trkpt><trkpt lat="44.57330858994373" lon="9.519541562227241"><ele>1403.0</ele><time>2026-04-29T14:10:06Z</time></trkpt><trkpt lat="44.57341196554467" lon="9.519713278264042"><ele>1403.5</ele><time>2026-04-29T14:10:07Z</time></trkpt><trkpt lat="44.57351741785864" lon="9.51988571072872"><ele>1404.0</ele><time>2026-04-29T14:10:08Z</time></trkpt><trkpt lat="44.57361515911194" lon="9.520042520267896"><ele>1404.5</ele><time>2026-04-29T14:10:09Z</time></trkpt><trkpt lat="44.57367841502533" lon="9.520148849807118"><ele>1405.0</ele><time>2026-04-29T14:10:10Z</time></trkpt><trkpt lat="44.57371949445978" lon="9.52024458394029"><ele>1405.0</ele><time>2026-04-29T14:10:11Z</time></trkpt><trkpt lat="44.57372838209705" lon="9.520345842662262"><ele>1405.0</ele><time>2026-04-29T14:10:12Z</time></trkpt><trkpt lat="44.57370871608215" lon="9.520440288929155"><ele>1405.0</ele><time>2026-04-29T14:10:13Z</time></trkpt><trkpt lat="44.5736743003821" lon="9.520536140851032"><ele>1405.0</ele><time>2026-04-29T14:10:14Z</time></trkpt><trkpt lat="44.573622391768254" lon="9.52063013841635"><ele>1405.0</ele><time>2026-04-29T14:10:15Z</time></trkpt><trkpt lat="44.57355336347028" lon="9.520677455383694"><ele>1405.0</ele><time>2026-04-29T14:10:16Z</time></trkpt><trkpt lat="44.5734797105689" lon="9.52068616299177"><ele>1405.2</ele><time>2026-04-29T14:10:17Z</time></trkpt><trkpt lat="44.57340735007304" lon="9.520642188349871"><ele>1405.4</ele><time>2026-04-29T14:10:18Z</time></trkpt><trkpt lat="44.573331075577855" lon="9.520572155510221"><ele>1405.6</ele><time>2026-04-29T14:10:19Z</time></trkpt><trkpt lat="44.57325438189515" lon="9.520482233623184"><ele>1405.8</ele><time>2026-04-29T14:10:20Z</time></trkpt><trkpt lat="44.573168991651485" lon="9.520361750463037"><ele>1406.0</ele><time>2026-04-29T14:10:21Z</time></trkpt><trkpt lat="44.573059223385584" lon="9.520247255288377"><ele>1407.0</ele><time>2026-04-29T14:10:22Z</time></trkpt><trkpt lat="44.57296542812889" lon="9.520109784348694"><ele>1408.0</ele><time>2026-04-29T14:10:23Z</time></trkpt><trkpt lat="44.57285144060527" lon="9.519986330741926"><ele>1409.0</ele><time>2026-04-29T14:10:24Z</time></trkpt><trkpt lat="44.5727544512763" lon="9.519879948520984"><ele>1410.0</ele><time>2026-04-29T14:10:25Z</time></trkpt><trkpt lat="44.572656177269565" lon="9.519812247553856"><ele>1410.1666666666667</ele><time>2026-04-29T14:10:26Z</time></trkpt><trkpt lat="44.57256546954146" lon="9.51977067196398"><ele>1410.3333333333333</ele><time>2026-04-29T14:10:27Z</time></trkpt><trkpt lat="44.572484801407406" lon="9.519749818376164"><ele>1410.5</ele><time>2026-04-29T14:10:28Z</time></trkpt><trkpt lat="44.572403212881724" lon="9.519747433273011"><ele>1410.6666666666665</ele><time>2026-04-29T14:10:29Z</time></trkpt><trkpt lat="44.57231958817426" lon="9.51976738183846"><ele>1410.8333333333333</ele><time>2026-04-29T14:10:30Z</time></trkpt><trkpt lat="44.57222543614859" lon="9.519818619307687"><ele>1411.0</ele><time>2026-04-29T14:10:31Z</time></trkpt><trkpt lat="44.57211898768197" lon="9.519856034086255"><ele>1412.8</ele><time>2026-04-29T14:10:32Z</time></trkpt><trkpt lat="44.57201698166543" lon="9.519939226345752"><ele>1414.6</ele><time>2026-04-29T14:10:33Z</time></trkpt><trkpt lat="44.57190989014255" lon="9.519996175974098"><ele>1416.4</ele><time>2026-04-29T14:10:34Z</time></trkpt><trkpt lat="44.57181578636921" lon="9.520026426005348"><ele>1418.2</ele><time>2026-04-29T14:10:35Z</time></trkpt><trkpt lat="44.571732576603715" lon="9.520034769216386"><ele>1420.0</ele><time>2026-04-29T14:10:36Z</time></trkpt><trkpt lat="44.57164360751344" lon="9.520021880245888"><ele>1420.0</ele><time>2026-04-29T14:10:37Z</time></trkpt><trkpt lat="44.57154920129499" lon="9.519965243101893"><ele>1420.0</ele><time>2026-04-29T14:10:38Z</time></trkpt><trkpt lat="44.571460011589934" lon="9.519915662466095"><ele>1420.0</ele><time>2026-04-29T14:10:39Z</time></trkpt><trkpt lat="44.57136493472912" lon="9.519867337211343"><ele>1420.0</ele><time>2026-04-29T14:10:40Z</time></trkpt><trkpt lat="44.571271429249876" lon="9.519821033124392"><ele>1420.0</ele><time>2026-04-29T14:10:41Z</time></trkpt><trkpt lat="44.57118101459787" lon="9.519774137903553"><ele>1419.8</ele><time>2026-04-29T14:10:42Z</time></trkpt><trkpt lat="44.57108179341581" lon="9.519720250895901"><ele>1419.6</ele><time>2026-04-29T14:10:43Z</time></trkpt><trkpt lat="44.57098399852136" lon="9.51965872811354"><ele>1419.4</ele><time>2026-04-29T14:10:44Z</time></trkpt><trkpt lat="44.570878237731506" lon="9.5196049557379"><ele>1419.2</ele><time>2026-04-29T14:10:45Z</time></trkpt><trkpt lat="44.570772458425516" lon="9.51956484030586"><ele>1419.0</ele><time>2026-04-29T14:10:46Z</time></trkpt><trkpt lat="44.570664712379724" lon="9.519560759843625"><ele>1419.0</ele><time>2026-04-29T14:10:47Z</time></trkpt><trkpt lat="44.57057360639353" lon="9.519594535750892"><ele>1419.0</ele><time>2026-04-29T14:10:48Z</time></trkpt><trkpt lat="44.57048561971358" lon="9.519665981689386"><ele>1419.0</ele><time>2026-04-29T14:10:49Z</time></trkpt><trkpt lat="44.57038025989757" lon="9.519727254979045"><ele>1419.0</ele><time>2026-04-29T14:10:50Z</time></trkpt><trkpt lat="44.57028909015303" lon="9.519804369602683"><ele>1419.0</ele><time>2026-04-29T14:10:51Z</time></trkpt><trkpt lat="44.57020664989432" lon="9.51986647649061"><ele>1420.75</ele><time>2026-04-29T14:10:52Z</time></trkpt><trkpt lat="44.57010292949413" lon="9.519863450073801"><ele>1422.5</ele><time>2026-04-29T14:10:53Z</time></trkpt><trkpt lat="44.57000145773596" lon="9.519817146168268"><ele>1424.25</ele><time>2026-04-29T14:10:54Z</time></trkpt><trkpt lat="44.5698946579159" lon="9.519740134386833"><ele>1426.0</ele><time>2026-04-29T14:10:55Z</time></trkpt><trkpt lat="44.569783056232296" lon="9.519660871589688"><ele>1426.0</ele><time>2026-04-29T14:10:56Z</time></trkpt><trkpt lat="44.569671452863304" lon="9.519608321212733"><ele>1426.0</ele><time>2026-04-29T14:10:57Z</time></trkpt><trkpt lat="44.569546873671854" lon="9.51958207697949"><ele>1426.0</ele><time>2026-04-29T14:10:58Z</time></trkpt><trkpt lat="44.56941844500949" lon="9.51957879604968"><ele>1426.0</ele><time>2026-04-29T14:10:59Z</time></trkpt><trkpt lat="44.56927563176329" lon="9.51963296252668"><ele>1425.6666666666665</ele><time>2026-04-29T14:11:00Z</time></trkpt><trkpt lat="44.56912597874206" lon="9.519696216825238"><ele>1425.3333333333333</ele><time>2026-04-29T14:11:01Z</time></trkpt><trkpt lat="44.568976714346846" lon="9.519751520676822"><ele>1425.0</ele><time>2026-04-29T14:11:02Z</time></trkpt><trkpt lat="44.56882530896408" lon="9.519781362739893"><ele>1427.0</ele><time>2026-04-29T14:11:03Z</time></trkpt><trkpt lat="44.56868654446278" lon="9.519768319574926"><ele>1429.0</ele><time>2026-04-29T14:11:04Z</time></trkpt><trkpt lat="44.56855532956061" lon="9.519757869281955"><ele>1431.0</ele><time>2026-04-29T14:11:05Z</time></trkpt><trkpt lat="44.56844146869907" lon="9.519760196077511"><ele>1433.0</ele><time>2026-04-29T14:11:06Z</time></trkpt><trkpt lat="44.56833139577554" lon="9.51979390241839"><ele>1433.0</ele><time>2026-04-29T14:11:07Z</time></trkpt><trkpt lat="44.56821657997497" lon="9.519907832924241"><ele>1433.0</ele><time>2026-04-29T14:11:08Z</time></trkpt><trkpt lat="44.56810296167315" lon="9.520059453674468"><ele>1433.0</ele><time>2026-04-29T14:11:09Z</time></trkpt><trkpt lat="44.56798899189462" lon="9.520229949932439"><ele>1431.0</ele><time>2026-04-29T14:11:10Z</time></trkpt><trkpt lat="44.56787615558865" lon="9.520402182939357"><ele>1429.0</ele><time>2026-04-29T14:11:11Z</time></trkpt><trkpt lat="44.567751967667405" lon="9.520594198380014"><ele>1427.0</ele><time>2026-04-29T14:11:12Z</time></trkpt><trkpt lat="44.56763022048695" lon="9.520772609629596"><ele>1432.0</ele><time>2026-04-29T14:11:13Z</time></trkpt><trkpt lat="44.56751895298273" lon="9.520943977208834"><ele>1437.0</ele><time>2026-04-29T14:11:14Z</time></trkpt><trkpt lat="44.56742513032421" lon="9.521115539202533"><ele>1442.0</ele><time>2026-04-29T14:11:15Z</time></trkpt><trkpt lat="44.56736640402658" lon="9.521301527388907"><ele>1442.0</ele><time>2026-04-29T14:11:16Z</time></trkpt><trkpt lat="44.56732358798334" lon="9.521489487754682"><ele>1442.0</ele><time>2026-04-29T14:11:17Z</time></trkpt><trkpt lat="44.56729231013813" lon="9.521698386365744"><ele>1442.0</ele><time>2026-04-29T14:11:18Z</time></trkpt><trkpt lat="44.567278960546076" lon="9.521924545966526"><ele>1441.3999999999999</ele><time>2026-04-29T14:11:19Z</time></trkpt><trkpt lat="44.56724432751888" lon="9.522122243237195"><ele>1440.8</ele><time>2026-04-29T14:11:20Z</time></trkpt><trkpt lat="44.56722044256121" lon="9.522266301948488"><ele>1440.2</ele><time>2026-04-29T14:11:21Z</time></trkpt><trkpt lat="44.56720008198572" lon="9.522388304244922"><ele>1439.6</ele><time>2026-04-29T14:11:22Z</time></trkpt><trkpt lat="44.56713858954037" lon="9.52248258366976"><ele>1439.0</ele><time>2026-04-29T14:11:23Z</time></trkpt><trkpt lat="44.5670593612046" lon="9.522550743112975"><ele>1441.75</ele><time>2026-04-29T14:11:24Z</time></trkpt><trkpt lat="44.56695123172621" lon="9.522576047304328"><ele>1444.5</ele><time>2026-04-29T14:11:25Z</time></trkpt><trkpt lat="44.566790442950584" lon="9.522586319794272"><ele>1447.25</ele><time>2026-04-29T14:11:26Z</time></trkpt><trkpt lat="44.56664950807484" lon="9.522583969924998"><ele>1450.0</ele><time>2026-04-29T14:11:27Z</time></trkpt><trkpt lat="44.56650091308092" lon="9.522585716374621"><ele>1450.0</ele><time>2026-04-29T14:11:28Z</time></trkpt><trkpt lat="44.56633830811833" lon="9.522595595982466"><ele>1450.0</ele><time>2026-04-29T14:11:29Z</time></trkpt><trkpt lat="44.566191509634955" lon="9.522574638164599"><ele>1450.0</ele><time>2026-04-29T14:11:30Z</time></trkpt><trkpt lat="44.566059234584394" lon="9.522559358991392"><ele>1450.0</ele><time>2026-04-29T14:11:31Z</time></trkpt><trkpt lat="44.565943496421035" lon="9.522509638670499"><ele>1448.6666666666665</ele><time>2026-04-29T14:11:31.999Z</time></trkpt><trkpt lat="44.56581745461762" lon="9.522425961127048"><ele>1447.3333333333333</ele><time>2026-04-29T14:11:32.999Z</time></trkpt><trkpt lat="44.56567586451177" lon="9.522326868467674"><ele>1446.0</ele><time>2026-04-29T14:11:33.999Z</time></trkpt><trkpt lat="44.56552759135901" lon="9.522191747007675"><ele>1450.6666666666667</ele><time>2026-04-29T14:11:34.999Z</time></trkpt><trkpt lat="44.565370078814354" lon="9.522050412492488"><ele>1455.3333333333335</ele><time>2026-04-29T14:11:35.999Z</time></trkpt><trkpt lat="44.565214131926965" lon="9.5219100080732"><ele>1460.0</ele><time>2026-04-29T14:11:36.999Z</time></trkpt><trkpt lat="44.56507907915379" lon="9.521789593335166"><ele>1460.0</ele><time>2026-04-29T14:11:37.999Z</time></trkpt><trkpt lat="44.56495640072093" lon="9.521685918546224"><ele>1460.0</ele><time>2026-04-29T14:11:38.999Z</time></trkpt><trkpt lat="44.56483699648096" lon="9.521604905904558"><ele>1460.0</ele><time>2026-04-29T14:11:39.999Z</time></trkpt><trkpt lat="44.5647176616504" lon="9.521564914883973"><ele>1460.0</ele><time>2026-04-29T14:11:40.999Z</time></trkpt><trkpt lat="44.564574753483114" lon="9.521570207905075"><ele>1455.6666666666667</ele><time>2026-04-29T14:11:41.999Z</time></trkpt><trkpt lat="44.564405408242244" lon="9.521586252115892"><ele>1451.3333333333333</ele><time>2026-04-29T14:11:42.999Z</time></trkpt><trkpt lat="44.5642197226538" lon="9.52161313494628"><ele>1447.0</ele><time>2026-04-29T14:11:43.999Z</time></trkpt><trkpt lat="44.5640467126923" lon="9.52161255678759"><ele>1447.0</ele><time>2026-04-29T14:11:44.999Z</time></trkpt><trkpt lat="44.56388706844997" lon="9.521631896836853"><ele>1447.0</ele><time>2026-04-29T14:11:45.999Z</time></trkpt><trkpt lat="44.5637432978252" lon="9.521665260331309"><ele>1447.0</ele><time>2026-04-29T14:11:46.999Z</time></trkpt><trkpt lat="44.56359685697136" lon="9.521732780424227"><ele>1451.5</ele><time>2026-04-29T14:11:47.999Z</time></trkpt><trkpt lat="44.56345431985104" lon="9.521825989208686"><ele>1456.0</ele><time>2026-04-29T14:11:48.999Z</time></trkpt><trkpt lat="44.563317541189576" lon="9.521921201513466"><ele>1460.5</ele><time>2026-04-29T14:11:49.999Z</time></trkpt><trkpt lat="44.56319035741176" lon="9.52200099069557"><ele>1465.0</ele><time>2026-04-29T14:11:50.999Z</time></trkpt><trkpt lat="44.563066061023974" lon="9.522061048546137"><ele>1462.0</ele><time>2026-04-29T14:11:51.999Z</time></trkpt><trkpt lat="44.562926602935214" lon="9.522126862483805"><ele>1459.0</ele><time>2026-04-29T14:11:52.999Z</time></trkpt><trkpt lat="44.562777618150584" lon="9.522196288511854"><ele>1456.0</ele><time>2026-04-29T14:11:53.999Z</time></trkpt><trkpt lat="44.56265020463295" lon="9.52225990029893"><ele>1453.0</ele><time>2026-04-29T14:11:54.999Z</time></trkpt><trkpt lat="44.56254771676276" lon="9.522324844902226"><ele>1453.0</ele><time>2026-04-29T14:11:55.999Z</time></trkpt><trkpt lat="44.56246089702943" lon="9.522406966308372"><ele>1453.0</ele><time>2026-04-29T14:11:56.999Z</time></trkpt><trkpt lat="44.56239565336814" lon="9.522536111903817"><ele>1453.0</ele><time>2026-04-29T14:11:57.999Z</time></trkpt><trkpt lat="44.562338873985865" lon="9.522705772108024"><ele>1453.0</ele><time>2026-04-29T14:11:59Z</time></trkpt><trkpt lat="44.56231954534829" lon="9.522912903802954"><ele>1449.3333333333333</ele><time>2026-04-29T14:12:00Z</time></trkpt><trkpt lat="44.56230385130943" lon="9.523125066038851"><ele>1445.6666666666667</ele><time>2026-04-29T14:12:01Z</time></trkpt><trkpt lat="44.562276924717445" lon="9.523333693721533"><ele>1442.0</ele><time>2026-04-29T14:12:02Z</time></trkpt><trkpt lat="44.56222910064617" lon="9.523537518381339"><ele>1441.0</ele><time>2026-04-29T14:12:03Z</time></trkpt><trkpt lat="44.562167009683606" lon="9.523755518321357"><ele>1440.0</ele><time>2026-04-29T14:12:04Z</time></trkpt><trkpt lat="44.562094971922896" lon="9.523989253380106"><ele>1439.0</ele><time>2026-04-29T14:12:05Z</time></trkpt><trkpt lat="44.56204177937328" lon="9.524175056931927"><ele>1444.0</ele><time>2026-04-29T14:12:06Z</time></trkpt><trkpt lat="44.56198948461013" lon="9.52431264094271"><ele>1449.0</ele><time>2026-04-29T14:12:07Z</time></trkpt><trkpt lat="44.56193782371174" lon="9.524411402947791"><ele>1454.0</ele><time>2026-04-29T14:12:08Z</time></trkpt><trkpt lat="44.56187528368984" lon="9.52446852352739"><ele>1459.0</ele><time>2026-04-29T14:12:09Z</time></trkpt><trkpt lat="44.561799827495086" lon="9.524502746800339"><ele>1464.0</ele><time>2026-04-29T14:12:10Z</time></trkpt><trkpt lat="44.56167969161126" lon="9.52455454654066"><ele>1462.3333333333333</ele><time>2026-04-29T14:12:11Z</time></trkpt><trkpt lat="44.56151188130298" lon="9.524580218559851"><ele>1460.6666666666665</ele><time>2026-04-29T14:12:12Z</time></trkpt><trkpt lat="44.561369846136074" lon="9.524623329802157"><ele>1459.0</ele><time>2026-04-29T14:12:13Z</time></trkpt><trkpt lat="44.561196868694815" lon="9.524643300090942"><ele>1459.0</ele><time>2026-04-29T14:12:14Z</time></trkpt><trkpt lat="44.561027816236745" lon="9.524680221136656"><ele>1459.0</ele><time>2026-04-29T14:12:15Z</time></trkpt><trkpt lat="44.560882908426485" lon="9.524736433396516"><ele>1459.0</ele><time>2026-04-29T14:12:16Z</time></trkpt><trkpt lat="44.56073374104341" lon="9.524768182500383"><ele>1459.0</ele><time>2026-04-29T14:12:17Z</time></trkpt><trkpt lat="44.560570540275684" lon="9.524797086260616"><ele>1459.0</ele><time>2026-04-29T14:12:18Z</time></trkpt><trkpt lat="44.560414590045035" lon="9.524803509509017"><ele>1459.0</ele><time>2026-04-29T14:12:19Z</time></trkpt><trkpt lat="44.56025169611543" lon="9.524764791619438"><ele>1458.6666666666665</ele><time>2026-04-29T14:12:20Z</time></trkpt><trkpt lat="44.56007376667069" lon="9.524692184657214"><ele>1458.3333333333333</ele><time>2026-04-29T14:12:21Z</time></trkpt><trkpt lat="44.55989680148455" lon="9.524603531840024"><ele>1458.0</ele><time>2026-04-29T14:12:22Z</time></trkpt><trkpt lat="44.55972704876517" lon="9.524521177266541"><ele>1462.6666666666667</ele><time>2026-04-29T14:12:23Z</time></trkpt><trkpt lat="44.55957674946526" lon="9.524449284834073"><ele>1467.3333333333335</ele><time>2026-04-29T14:12:24Z</time></trkpt><trkpt lat="44.559435090350036" lon="9.524422239372424"><ele>1472.0</ele><time>2026-04-29T14:12:25Z</time></trkpt><trkpt lat="44.559281356913075" lon="9.524433457278032"><ele>1474.3333333333335</ele><time>2026-04-29T14:12:26Z</time></trkpt><trkpt lat="44.55912653344411" lon="9.524489825862974"><ele>1476.6666666666667</ele><time>2026-04-29T14:12:27Z</time></trkpt><trkpt lat="44.55895217796516" lon="9.524537383103604"><ele>1479.0</ele><time>2026-04-29T14:12:28Z</time></trkpt><trkpt lat="44.558766187779526" lon="9.524603246943975"><ele>1474.6666666666667</ele><time>2026-04-29T14:12:29Z</time></trkpt><trkpt lat="44.55858665242533" lon="9.52466676860002"><ele>1470.3333333333335</ele><time>2026-04-29T14:12:30Z</time></trkpt><trkpt lat="44.55839004532137" lon="9.524736328771239"><ele>1466.0</ele><time>2026-04-29T14:12:31Z</time></trkpt><trkpt lat="44.55822347667904" lon="9.524818871214839"><ele>1466.0</ele><time>2026-04-29T14:12:32Z</time></trkpt><trkpt lat="44.5580868819547" lon="9.524864586483"><ele>1466.0</ele><time>2026-04-29T14:12:33Z</time></trkpt><trkpt lat="44.5579378155699" lon="9.524885808959102"><ele>1466.0</ele><time>2026-04-29T14:12:34Z</time></trkpt><trkpt lat="44.55784711443638" lon="9.524898222800372"><ele>1466.0</ele><time>2026-04-29T14:12:35Z</time></trkpt><trkpt lat="44.557768641238255" lon="9.52487842921201"><ele>1465.6</ele><time>2026-04-29T14:12:36Z</time></trkpt><trkpt lat="44.55770354454148" lon="9.524824241853677"><ele>1465.1999999999998</ele><time>2026-04-29T14:12:37Z</time></trkpt><trkpt lat="44.557635140544335" lon="9.524741213496924"><ele>1464.8000000000002</ele><time>2026-04-29T14:12:38Z</time></trkpt><trkpt lat="44.55759406583182" lon="9.524638329422231"><ele>1464.4</ele><time>2026-04-29T14:12:39Z</time></trkpt><trkpt lat="44.55758561203482" lon="9.524518517318409"><ele>1464.0</ele><time>2026-04-29T14:12:40Z</time></trkpt><trkpt lat="44.55758110653799" lon="9.52435866818154"><ele>1465.3333333333333</ele><time>2026-04-29T14:12:41Z</time></trkpt><trkpt lat="44.55758240001714" lon="9.524165462673677"><ele>1466.6666666666665</ele><time>2026-04-29T14:12:42Z</time></trkpt><trkpt lat="44.557582635036745" lon="9.523950418031346"><ele>1468.0</ele><time>2026-04-29T14:12:43Z</time></trkpt><trkpt lat="44.55758288421595" lon="9.523722417380915"><ele>1471.0</ele><time>2026-04-29T14:12:44Z</time></trkpt><trkpt lat="44.55758047353377" lon="9.523472930946586"><ele>1474.0</ele><time>2026-04-29T14:12:45Z</time></trkpt><trkpt lat="44.55755299320345" lon="9.523231475678198"><ele>1477.0</ele><time>2026-04-29T14:12:46Z</time></trkpt><trkpt lat="44.55752101221723" lon="9.52301124909841"><ele>1481.3333333333333</ele><time>2026-04-29T14:12:47Z</time></trkpt><trkpt lat="44.55746107078633" lon="9.522780050805057"><ele>1485.6666666666667</ele><time>2026-04-29T14:12:48Z</time></trkpt><trkpt lat="44.55739382903325" lon="9.522539483837347"><ele>1490.0</ele><time>2026-04-29T14:12:49Z</time></trkpt><trkpt lat="44.557300913748605" lon="9.522308092604401"><ele>1490.0</ele><time>2026-04-29T14:12:50Z</time></trkpt><trkpt lat="44.55718815293669" lon="9.522074466402044"><ele>1490.0</ele><time>2026-04-29T14:12:51Z</time></trkpt><trkpt lat="44.55706701157589" lon="9.521858588178711"><ele>1490.0</ele><time>2026-04-29T14:12:52Z</time></trkpt><trkpt lat="44.55694094652277" lon="9.521656059597092"><ele>1489.5</ele><time>2026-04-29T14:12:53Z</time></trkpt><trkpt lat="44.55683921947323" lon="9.521492069503733"><ele>1489.0</ele><time>2026-04-29T14:12:54Z</time></trkpt><trkpt lat="44.556758437459564" lon="9.521345861269308"><ele>1488.5</ele><time>2026-04-29T14:12:55Z</time></trkpt><trkpt lat="44.5567211282266" lon="9.521185179507924"><ele>1488.0</ele><time>2026-04-29T14:12:56Z</time></trkpt><trkpt lat="44.55669161892059" lon="9.521033684467607"><ele>1488.0</ele><time>2026-04-29T14:12:57Z</time></trkpt><trkpt lat="44.556679171807104" lon="9.520837082822169"><ele>1488.0</ele><time>2026-04-29T14:12:58Z</time></trkpt><trkpt lat="44.55666155667625" lon="9.52064245762449"><ele>1488.0</ele><time>2026-04-29T14:12:59Z</time></trkpt><trkpt lat="44.5566299403977" lon="9.520462536265871"><ele>1488.0</ele><time>2026-04-29T14:13:00Z</time></trkpt><trkpt lat="44.55657951108909" lon="9.520291944765336"><ele>1490.0</ele><time>2026-04-29T14:13:01Z</time></trkpt><trkpt lat="44.55649068498313" lon="9.520145256963149"><ele>1492.0</ele><time>2026-04-29T14:13:02Z</time></trkpt><trkpt lat="44.55637472418399" lon="9.520014464129535"><ele>1494.0</ele><time>2026-04-29T14:13:03Z</time></trkpt><trkpt lat="44.55630061972965" lon="9.51987001826997"><ele>1496.0</ele><time>2026-04-29T14:13:04Z</time></trkpt><trkpt lat="44.55624802784947" lon="9.519755663867315"><ele>1496.0</ele><time>2026-04-29T14:13:05Z</time></trkpt><trkpt lat="44.55622238891047" lon="9.519616279265863"><ele>1496.0</ele><time>2026-04-29T14:13:06Z</time></trkpt><trkpt lat="44.55619883071698" lon="9.519458127437138"><ele>1496.0</ele><time>2026-04-29T14:13:07Z</time></trkpt><trkpt lat="44.556210140637404" lon="9.519264054273796"><ele>1496.0</ele><time>2026-04-29T14:13:08Z</time></trkpt><trkpt lat="44.55621837748779" lon="9.519052921995524"><ele>1498.25</ele><time>2026-04-29T14:13:09Z</time></trkpt><trkpt lat="44.55622267794361" lon="9.518853991961958"><ele>1500.5</ele><time>2026-04-29T14:13:10Z</time></trkpt><trkpt lat="44.5562092461427" lon="9.518655584856559"><ele>1502.75</ele><time>2026-04-29T14:13:11Z</time></trkpt><trkpt lat="44.556174175621834" lon="9.518436456160202"><ele>1505.0</ele><time>2026-04-29T14:13:12Z</time></trkpt><trkpt lat="44.55610930890051" lon="9.518211280441923"><ele>1503.0</ele><time>2026-04-29T14:13:13Z</time></trkpt><trkpt lat="44.556049607090074" lon="9.517981081260585"><ele>1501.0</ele><time>2026-04-29T14:13:14Z</time></trkpt><trkpt lat="44.55598286498023" lon="9.517772370827823"><ele>1499.0</ele><time>2026-04-29T14:13:15Z</time></trkpt><trkpt lat="44.55589282789636" lon="9.51757415409241"><ele>1499.0</ele><time>2026-04-29T14:13:16Z</time></trkpt><trkpt lat="44.55578413426623" lon="9.517373857839994"><ele>1499.0</ele><time>2026-04-29T14:13:17Z</time></trkpt><trkpt lat="44.55566788194431" lon="9.517159925976868"><ele>1499.0</ele><time>2026-04-29T14:13:18Z</time></trkpt><trkpt lat="44.555557254419895" lon="9.516939320343745"><ele>1499.6666666666667</ele><time>2026-04-29T14:13:19Z</time></trkpt><trkpt lat="44.555449567700165" lon="9.51672469725079"><ele>1500.3333333333333</ele><time>2026-04-29T14:13:20Z</time></trkpt><trkpt lat="44.55536167589226" lon="9.516549739328187"><ele>1501.0</ele><time>2026-04-29T14:13:21Z</time></trkpt><trkpt lat="44.555289845711044" lon="9.516426789143559"><ele>1501.0</ele><time>2026-04-29T14:13:22Z</time></trkpt><trkpt lat="44.555200116952285" lon="9.516330561490745"><ele>1501.0</ele><time>2026-04-29T14:13:22.999Z</time></trkpt><trkpt lat="44.55507692203946" lon="9.51626870936632"><ele>1501.0</ele><time>2026-04-29T14:13:23.999Z</time></trkpt><trkpt lat="44.554924269107225" lon="9.516219438041702"><ele>1501.0</ele><time>2026-04-29T14:13:24.999Z</time></trkpt><trkpt lat="44.55477046823781" lon="9.516157913282935"><ele>1502.0</ele><time>2026-04-29T14:13:25.999Z</time></trkpt><trkpt lat="44.55463158163093" lon="9.516130373166225"><ele>1503.0</ele><time>2026-04-29T14:13:26.999Z</time></trkpt><trkpt lat="44.55451592430013" lon="9.516134816144179"><ele>1504.0</ele><time>2026-04-29T14:13:27.999Z</time></trkpt><trkpt lat="44.554397313082795" lon="9.51618533098068"><ele>1505.0</ele><time>2026-04-29T14:13:28.999Z</time></trkpt><trkpt lat="44.55426886743339" lon="9.516278178172797"><ele>1505.0</ele><time>2026-04-29T14:13:29.999Z</time></trkpt><trkpt lat="44.55414850822089" lon="9.516416479230967"><ele>1505.0</ele><time>2026-04-29T14:13:30.999Z</time></trkpt><trkpt lat="44.55403658056956" lon="9.5165461814357"><ele>1505.0</ele><time>2026-04-29T14:13:31.999Z</time></trkpt><trkpt lat="44.553936986190834" lon="9.516654108828376"><ele>1505.0</ele><time>2026-04-29T14:13:32.999Z</time></trkpt><trkpt lat="44.553844042402574" lon="9.516724249735764"><ele>1505.0</ele><time>2026-04-29T14:13:33.999Z</time></trkpt><trkpt lat="44.553749130614605" lon="9.516742313112724"><ele>1505.0</ele><time>2026-04-29T14:13:34.999Z</time></trkpt><trkpt lat="44.553648376049864" lon="9.5167250962572"><ele>1505.0</ele><time>2026-04-29T14:13:35.999Z</time></trkpt><trkpt lat="44.5535245915822" lon="9.516679519564665"><ele>1505.0</ele><time>2026-04-29T14:13:36.999Z</time></trkpt><trkpt lat="44.55338352349465" lon="9.516605173526811"><ele>1505.3333333333335</ele><time>2026-04-29T14:13:37.999Z</time></trkpt><trkpt lat="44.553202859445236" lon="9.51653836985503"><ele>1505.6666666666667</ele><time>2026-04-29T14:13:38.999Z</time></trkpt><trkpt lat="44.553020593588556" lon="9.516445037516869"><ele>1506.0</ele><time>2026-04-29T14:13:39.999Z</time></trkpt><trkpt lat="44.5528289834668" lon="9.516331153070318"><ele>1503.3333333333333</ele><time>2026-04-29T14:13:40.999Z</time></trkpt><trkpt lat="44.5526443107171" lon="9.516240063912921"><ele>1500.6666666666665</ele><time>2026-04-29T14:13:41.999Z</time></trkpt><trkpt lat="44.55247871374195" lon="9.516177184534952"><ele>1498.0</ele><time>2026-04-29T14:13:42.999Z</time></trkpt><trkpt lat="44.552349186610215" lon="9.516083954154205"><ele>1496.25</ele><time>2026-04-29T14:13:43.999Z</time></trkpt><trkpt lat="44.55224505010597" lon="9.5160256252328"><ele>1494.5</ele><time>2026-04-29T14:13:44.999Z</time></trkpt><trkpt lat="44.55216935774769" lon="9.515894368553539"><ele>1492.75</ele><time>2026-04-29T14:13:45.999Z</time></trkpt><trkpt lat="44.552095471021254" lon="9.515738157061305"><ele>1491.0</ele><time>2026-04-29T14:13:46.999Z</time></trkpt><trkpt lat="44.55200917403977" lon="9.515556973459596"><ele>1494.3333333333333</ele><time>2026-04-29T14:13:47.999Z</time></trkpt><trkpt lat="44.55194246638529" lon="9.515325730697263"><ele>1497.6666666666665</ele><time>2026-04-29T14:13:48.999Z</time></trkpt><trkpt lat="44.551867927293436" lon="9.515078538051393"><ele>1501.0</ele><time>2026-04-29T14:13:49.999Z</time></trkpt><trkpt lat="44.55180634602427" lon="9.514826103851131"><ele>1501.0</ele><time>2026-04-29T14:13:50.999Z</time></trkpt><trkpt lat="44.55175496867702" lon="9.514581869378555"><ele>1501.0</ele><time>2026-04-29T14:13:51.999Z</time></trkpt><trkpt lat="44.55169435069444" lon="9.514370981746689"><ele>1501.0</ele><time>2026-04-29T14:13:52.999Z</time></trkpt><trkpt lat="44.551608927611326" lon="9.514172190979352"><ele>1505.6666666666665</ele><time>2026-04-29T14:13:53.999Z</time></trkpt><trkpt lat="44.5514915919841" lon="9.513985726267608"><ele>1510.3333333333333</ele><time>2026-04-29T14:13:54.999Z</time></trkpt><trkpt lat="44.55135509875535" lon="9.51381258745585"><ele>1515.0</ele><time>2026-04-29T14:13:55.999Z</time></trkpt><trkpt lat="44.55121794794726" lon="9.513662394419915"><ele>1512.6666666666667</ele><time>2026-04-29T14:13:56.999Z</time></trkpt><trkpt lat="44.551121961505046" lon="9.513479442940543"><ele>1510.3333333333335</ele><time>2026-04-29T14:13:57.999Z</time></trkpt><trkpt lat="44.5510358030135" lon="9.513280830577113"><ele>1508.0</ele><time>2026-04-29T14:13:58.999Z</time></trkpt><trkpt lat="44.55094302173711" lon="9.513087628744977"><ele>1512.3333333333335</ele><time>2026-04-29T14:13:59.999Z</time></trkpt><trkpt lat="44.5508630087746" lon="9.512901045234464"><ele>1516.6666666666667</ele><time>2026-04-29T14:14:00.999Z</time></trkpt><trkpt lat="44.55076165441449" lon="9.512742760488432"><ele>1521.0</ele><time>2026-04-29T14:14:01.999Z</time></trkpt><trkpt lat="44.55062895167483" lon="9.51261822306962"><ele>1521.0</ele><time>2026-04-29T14:14:02.999Z</time></trkpt><trkpt lat="44.5504721011638" lon="9.512512581307647"><ele>1521.0</ele><time>2026-04-29T14:14:03.999Z</time></trkpt><trkpt lat="44.550289811914965" lon="9.512420002280106"><ele>1521.0</ele><time>2026-04-29T14:14:05Z</time></trkpt><trkpt lat="44.550110581334025" lon="9.512331968837374"><ele>1516.0</ele><time>2026-04-29T14:14:06Z</time></trkpt><trkpt lat="44.5499577775893" lon="9.512225179566212"><ele>1511.0</ele><time>2026-04-29T14:14:07Z</time></trkpt><trkpt lat="44.549813761165794" lon="9.512144958643733"><ele>1506.0</ele><time>2026-04-29T14:14:08Z</time></trkpt><trkpt lat="44.54968315379041" lon="9.512089084806236"><ele>1506.1999999999998</ele><time>2026-04-29T14:14:09Z</time></trkpt><trkpt lat="44.54958398694574" lon="9.512025501669207"><ele>1506.3999999999999</ele><time>2026-04-29T14:14:10Z</time></trkpt><trkpt lat="44.54951490212406" lon="9.511942911781722"><ele>1506.6</ele><time>2026-04-29T14:14:11Z</time></trkpt><trkpt lat="44.54948178708537" lon="9.5118402169234"><ele>1506.8</ele><time>2026-04-29T14:14:12Z</time></trkpt><trkpt lat="44.54947642624982" lon="9.511719863431729"><ele>1507.0</ele><time>2026-04-29T14:14:13Z</time></trkpt><trkpt lat="44.549490388108445" lon="9.511559963241856"><ele>1507.0</ele><time>2026-04-29T14:14:14Z</time></trkpt><trkpt lat="44.549513371145174" lon="9.511367910551535"><ele>1507.0</ele><time>2026-04-29T14:14:15Z</time></trkpt><trkpt lat="44.54954034556836" lon="9.511150837585005"><ele>1507.0</ele><time>2026-04-29T14:14:16Z</time></trkpt><trkpt lat="44.54958045534385" lon="9.510907793176937"><ele>1511.3333333333333</ele><time>2026-04-29T14:14:17Z</time></trkpt><trkpt lat="44.549639965498585" lon="9.51065624769544"><ele>1515.6666666666667</ele><time>2026-04-29T14:14:18Z</time></trkpt><trkpt lat="44.5496986107797" lon="9.510426820523675"><ele>1520.0</ele><time>2026-04-29T14:14:19Z</time></trkpt><trkpt lat="44.54973875752181" lon="9.510231389504252"><ele>1520.25</ele><time>2026-04-29T14:14:20Z</time></trkpt><trkpt lat="44.549756452342336" lon="9.510055353321025"><ele>1520.5</ele><time>2026-04-29T14:14:21Z</time></trkpt><trkpt lat="44.54973989457786" lon="9.509872564569065"><ele>1520.75</ele><time>2026-04-29T14:14:22Z</time></trkpt><trkpt lat="44.549683929709495" lon="9.509677695788945"><ele>1521.0</ele><time>2026-04-29T14:14:23Z</time></trkpt><trkpt lat="44.549601954078156" lon="9.509466464000461"><ele>1514.6666666666667</ele><time>2026-04-29T14:14:24Z</time></trkpt><trkpt lat="44.5495190443801" lon="9.509261416900216"><ele>1508.3333333333335</ele><time>2026-04-29T14:14:25Z</time></trkpt><trkpt lat="44.54940732598531" lon="9.509072232177415"><ele>1502.0</ele><time>2026-04-29T14:14:26Z</time></trkpt><trkpt lat="44.54929218131487" lon="9.508901041183035"><ele>1502.0</ele><time>2026-04-29T14:14:27Z</time></trkpt><trkpt lat="44.54919184848779" lon="9.508774622633583"><ele>1502.0</ele><time>2026-04-29T14:14:28Z</time></trkpt><trkpt lat="44.54912461234608" lon="9.508645019834068"><ele>1502.0</ele><time>2026-04-29T14:14:29Z</time></trkpt><trkpt lat="44.54906938245605" lon="9.508467495263444"><ele>1502.0</ele><time>2026-04-29T14:14:30Z</time></trkpt><trkpt lat="44.54902324818491" lon="9.508258948548255"><ele>1505.25</ele><time>2026-04-29T14:14:31Z</time></trkpt><trkpt lat="44.54897820464837" lon="9.508053382182286"><ele>1508.5</ele><time>2026-04-29T14:14:32Z</time></trkpt><trkpt lat="44.54893784405543" lon="9.507885646473616"><ele>1511.75</ele><time>2026-04-29T14:14:33Z</time></trkpt><trkpt lat="44.5489169505616" lon="9.507731289490874"><ele>1515.0</ele><time>2026-04-29T14:14:34Z</time></trkpt><trkpt lat="44.5489229262468" lon="9.50755355822498"><ele>1515.0</ele><time>2026-04-29T14:14:35Z</time></trkpt><trkpt lat="44.548978852033734" lon="9.50735331391509"><ele>1515.0</ele><time>2026-04-29T14:14:36Z</time></trkpt><trkpt lat="44.5490180097973" lon="9.50712585280547"><ele>1515.0</ele><time>2026-04-29T14:14:37Z</time></trkpt><trkpt lat="44.549063697473855" lon="9.506903797751692"><ele>1514.5</ele><time>2026-04-29T14:14:38Z</time></trkpt><trkpt lat="44.54910077665343" lon="9.506711273439766"><ele>1514.0</ele><time>2026-04-29T14:14:39Z</time></trkpt><trkpt lat="44.54911567888834" lon="9.506536972288835"><ele>1513.5</ele><time>2026-04-29T14:14:40Z</time></trkpt><trkpt lat="44.54909590738255" lon="9.506359281245496"><ele>1513.0</ele><time>2026-04-29T14:14:41Z</time></trkpt><trkpt lat="44.54904216187861" lon="9.506183547277521"><ele>1513.0</ele><time>2026-04-29T14:14:42Z</time></trkpt><trkpt lat="44.54895292777925" lon="9.506019837023922"><ele>1513.0</ele><time>2026-04-29T14:14:43Z</time></trkpt><trkpt lat="44.5488685264494" lon="9.505861931377773"><ele>1513.0</ele><time>2026-04-29T14:14:44Z</time></trkpt><trkpt lat="44.54879737788658" lon="9.5056941197013"><ele>1513.0</ele><time>2026-04-29T14:14:45Z</time></trkpt><trkpt lat="44.54876407306321" lon="9.50551511849794"><ele>1512.5</ele><time>2026-04-29T14:14:46Z</time></trkpt><trkpt lat="44.54873054556874" lon="9.505313903600939"><ele>1512.0</ele><time>2026-04-29T14:14:47Z</time></trkpt><trkpt lat="44.54868941186683" lon="9.505112012994218"><ele>1511.5</ele><time>2026-04-29T14:14:48Z</time></trkpt><trkpt lat="44.54867407193939" lon="9.504914950553944"><ele>1511.0</ele><time>2026-04-29T14:14:49Z</time></trkpt><trkpt lat="44.54867831676303" lon="9.504736523624384"><ele>1512.5</ele><time>2026-04-29T14:14:50Z</time></trkpt><trkpt lat="44.54870494379476" lon="9.504570191206488"><ele>1514.0</ele><time>2026-04-29T14:14:51Z</time></trkpt><trkpt lat="44.54872930260729" lon="9.504397857815288"><ele>1515.5</ele><time>2026-04-29T14:14:52Z</time></trkpt><trkpt lat="44.548707688369454" lon="9.504227934572844"><ele>1517.0</ele><time>2026-04-29T14:14:53Z</time></trkpt><trkpt lat="44.54864987585815" lon="9.504043918399125"><ele>1509.0</ele><time>2026-04-29T14:14:54Z</time></trkpt><trkpt lat="44.54857078047367" lon="9.503846019096754"><ele>1501.0</ele><time>2026-04-29T14:14:55Z</time></trkpt><trkpt lat="44.54847856586006" lon="9.503621814957748"><ele>1493.0</ele><time>2026-04-29T14:14:56Z</time></trkpt><trkpt lat="44.54838445969303" lon="9.503376934453991"><ele>1493.0</ele><time>2026-04-29T14:14:57Z</time></trkpt><trkpt lat="44.54829728760466" lon="9.503142130013083"><ele>1493.0</ele><time>2026-04-29T14:14:58Z</time></trkpt><trkpt lat="44.548207901479515" lon="9.50291201066204"><ele>1493.0</ele><time>2026-04-29T14:14:59Z</time></trkpt><trkpt lat="44.54812063411179" lon="9.502684400470761"><ele>1495.0</ele><time>2026-04-29T14:15:00Z</time></trkpt><trkpt lat="44.54804793085402" lon="9.50247570462806"><ele>1497.0</ele><time>2026-04-29T14:15:01Z</time></trkpt><trkpt lat="44.54797641307957" lon="9.502301913333957"><ele>1499.0</ele><time>2026-04-29T14:15:02Z</time></trkpt><trkpt lat="44.54791828624951" lon="9.502147595987964"><ele>1501.0</ele><time>2026-04-29T14:15:03Z</time></trkpt><trkpt lat="44.547868121994775" lon="9.502034440122456"><ele>1501.8</ele><time>2026-04-29T14:15:04Z</time></trkpt><trkpt lat="44.54780232928438" lon="9.50195635782988"><ele>1502.6</ele><time>2026-04-29T14:15:05Z</time></trkpt><trkpt lat="44.54771183039897" lon="9.50192072347765"><ele>1503.4</ele><time>2026-04-29T14:15:06Z</time></trkpt><trkpt lat="44.54759534507375" lon="9.501908524813947"><ele>1504.2</ele><time>2026-04-29T14:15:07Z</time></trkpt><trkpt lat="44.547458567987356" lon="9.501968835889999"><ele>1505.0</ele><time>2026-04-29T14:15:08Z</time></trkpt><trkpt lat="44.54730866417781" lon="9.502046498054293"><ele>1498.0</ele><time>2026-04-29T14:15:09Z</time></trkpt><trkpt lat="44.54714330179873" lon="9.50213701859187"><ele>1491.0</ele><time>2026-04-29T14:15:10Z</time></trkpt><trkpt lat="44.546975639914855" lon="9.5022282658712"><ele>1484.0</ele><time>2026-04-29T14:15:11Z</time></trkpt><trkpt lat="44.54680740033641" lon="9.502318498468968"><ele>1484.0</ele><time>2026-04-29T14:15:12Z</time></trkpt><trkpt lat="44.54664894860076" lon="9.50240348150211"><ele>1484.0</ele><time>2026-04-29T14:15:13Z</time></trkpt><trkpt lat="44.54651226814683" lon="9.502474288396138"><ele>1484.0</ele><time>2026-04-29T14:15:14Z</time></trkpt><trkpt lat="44.54640478109471" lon="9.502521699297727"><ele>1484.0</ele><time>2026-04-29T14:15:15Z</time></trkpt><trkpt lat="44.54631105689934" lon="9.502553252025983"><ele>1483.25</ele><time>2026-04-29T14:15:16Z</time></trkpt><trkpt lat="44.54621028396149" lon="9.502530609433657"><ele>1482.5</ele><time>2026-04-29T14:15:17Z</time></trkpt><trkpt lat="44.54609677060679" lon="9.502469069245537"><ele>1481.75</ele><time>2026-04-29T14:15:18Z</time></trkpt><trkpt lat="44.545963769979664" lon="9.502386778760451"><ele>1481.0</ele><time>2026-04-29T14:15:19Z</time></trkpt><trkpt lat="44.54581723225884" lon="9.502309901306617"><ele>1481.0</ele><time>2026-04-29T14:15:20Z</time></trkpt><trkpt lat="44.5456900833244" lon="9.502215108997689"><ele>1481.0</ele><time>2026-04-29T14:15:21Z</time></trkpt><trkpt lat="44.54558108081315" lon="9.50210406077902"><ele>1481.0</ele><time>2026-04-29T14:15:22Z</time></trkpt><trkpt lat="44.545486434041344" lon="9.501960161843435"><ele>1481.0</ele><time>2026-04-29T14:15:23Z</time></trkpt><trkpt lat="44.54540801168222" lon="9.501748528487397"><ele>1482.3333333333335</ele><time>2026-04-29T14:15:24Z</time></trkpt><trkpt lat="44.54529627986779" lon="9.501530398903203"><ele>1483.6666666666667</ele><time>2026-04-29T14:15:25Z</time></trkpt><trkpt lat="44.54519043512556" lon="9.501298780414754"><ele>1485.0</ele><time>2026-04-29T14:15:26Z</time></trkpt><trkpt lat="44.54509475476435" lon="9.501075996132855"><ele>1485.0</ele><time>2026-04-29T14:15:27Z</time></trkpt><trkpt lat="44.545010843288885" lon="9.500884479733395"><ele>1485.0</ele><time>2026-04-29T14:15:28Z</time></trkpt><trkpt lat="44.544940746870964" lon="9.500723372628563"><ele>1485.0</ele><time>2026-04-29T14:15:29Z</time></trkpt><trkpt lat="44.54487920564845" lon="9.500598662352697"><ele>1485.0</ele><time>2026-04-29T14:15:30Z</time></trkpt><trkpt lat="44.544832038192816" lon="9.500484065814678"><ele>1485.75</ele><time>2026-04-29T14:15:31Z</time></trkpt><trkpt lat="44.54474949741473" lon="9.50038148021385"><ele>1486.5</ele><time>2026-04-29T14:15:32Z</time></trkpt><trkpt lat="44.54463836056187" lon="9.500297336017159"><ele>1487.25</ele><time>2026-04-29T14:15:33Z</time></trkpt><trkpt lat="44.5445196122634" lon="9.500268811802691"><ele>1488.0</ele><time>2026-04-29T14:15:34Z</time></trkpt><trkpt lat="44.544386990797896" lon="9.500286790724683"><ele>1488.0</ele><time>2026-04-29T14:15:34.999Z</time></trkpt><trkpt lat="44.54423638895892" lon="9.500344277121386"><ele>1488.0</ele><time>2026-04-29T14:15:35.999Z</time></trkpt><trkpt lat="44.54406988273837" lon="9.500412654409498"><ele>1488.0</ele><time>2026-04-29T14:15:36.999Z</time></trkpt><trkpt lat="44.54392713198006" lon="9.500474980372399"><ele>1485.0</ele><time>2026-04-29T14:15:37.999Z</time></trkpt><trkpt lat="44.54378115409327" lon="9.500529294326887"><ele>1482.0</ele><time>2026-04-29T14:15:38.999Z</time></trkpt><trkpt lat="44.543641456915275" lon="9.500507329577232"><ele>1479.0</ele><time>2026-04-29T14:15:39.999Z</time></trkpt><trkpt lat="44.54351264985582" lon="9.500525106930583"><ele>1476.0</ele><time>2026-04-29T14:15:40.999Z</time></trkpt><trkpt lat="44.54336572351834" lon="9.500591749596703"><ele>1476.0</ele><time>2026-04-29T14:15:41.999Z</time></trkpt><trkpt lat="44.543215232749844" lon="9.500722586686125"><ele>1476.0</ele><time>2026-04-29T14:15:42.999Z</time></trkpt><trkpt lat="44.54306603501663" lon="9.500830421826272"><ele>1476.0</ele><time>2026-04-29T14:15:43.999Z</time></trkpt><trkpt lat="44.54292451012457" lon="9.500907887313936"><ele>1478.3333333333333</ele><time>2026-04-29T14:15:44.999Z</time></trkpt><trkpt lat="44.54276898580566" lon="9.500957121810027"><ele>1480.6666666666665</ele><time>2026-04-29T14:15:45.999Z</time></trkpt><trkpt lat="44.54259213100049" lon="9.500996408914608"><ele>1483.0</ele><time>2026-04-29T14:15:46.999Z</time></trkpt><trkpt lat="44.54242868549985" lon="9.501053144135513"><ele>1483.0</ele><time>2026-04-29T14:15:47.999Z</time></trkpt><trkpt lat="44.54228265072025" lon="9.5010824062031"><ele>1483.0</ele><time>2026-04-29T14:15:48.999Z</time></trkpt><trkpt lat="44.542157415624075" lon="9.501105221714404"><ele>1483.0</ele><time>2026-04-29T14:15:49.999Z</time></trkpt><trkpt lat="44.54204423730194" lon="9.50120680263119"><ele>1483.0</ele><time>2026-04-29T14:15:50.999Z</time></trkpt><trkpt lat="44.541942884129476" lon="9.501349778285693"><ele>1481.75</ele><time>2026-04-29T14:15:51.999Z</time></trkpt><trkpt lat="44.541849871665434" lon="9.501510623931052"><ele>1480.5</ele><time>2026-04-29T14:15:52.999Z</time></trkpt><trkpt lat="44.541760387138176" lon="9.501675312777573"><ele>1479.25</ele><time>2026-04-29T14:15:53.999Z</time></trkpt><trkpt lat="44.54168346313685" lon="9.501812960963793"><ele>1478.0</ele><time>2026-04-29T14:15:54.999Z</time></trkpt><trkpt lat="44.54162164537236" lon="9.501896942071813"><ele>1478.0</ele><time>2026-04-29T14:15:55.999Z</time></trkpt><trkpt lat="44.54154896712329" lon="9.50197593930955"><ele>1478.0</ele><time>2026-04-29T14:15:56.999Z</time></trkpt><trkpt lat="44.54144950655409" lon="9.501990011546713"><ele>1478.0</ele><time>2026-04-29T14:15:57.999Z</time></trkpt><trkpt lat="44.54132947436424" lon="9.50196456054548"><ele>1478.0</ele><time>2026-04-29T14:15:58.999Z</time></trkpt><trkpt lat="44.54119791977006" lon="9.501918733470616"><ele>1478.0</ele><time>2026-04-29T14:15:59.999Z</time></trkpt><trkpt lat="44.54105498999965" lon="9.501868413264996"><ele>1478.6666666666667</ele><time>2026-04-29T14:16:00.999Z</time></trkpt><trkpt lat="44.54088854920304" lon="9.501811837520425"><ele>1479.3333333333333</ele><time>2026-04-29T14:16:01.999Z</time></trkpt><trkpt lat="44.540709594533325" lon="9.501776855433992"><ele>1480.0</ele><time>2026-04-29T14:16:02.999Z</time></trkpt><trkpt lat="44.54052618329184" lon="9.50176157041777"><ele>1478.5</ele><time>2026-04-29T14:16:03.999Z</time></trkpt><trkpt lat="44.540363902215475" lon="9.501755242466785"><ele>1477.0</ele><time>2026-04-29T14:16:04.999Z</time></trkpt><trkpt lat="44.540226650733395" lon="9.501722391054066"><ele>1475.5</ele><time>2026-04-29T14:16:05.999Z</time></trkpt><trkpt lat="44.54009637669134" lon="9.501674867223176"><ele>1474.0</ele><time>2026-04-29T14:16:06.999Z</time></trkpt><trkpt lat="44.539982306030886" lon="9.501614377481951"><ele>1474.0</ele><time>2026-04-29T14:16:07.999Z</time></trkpt><trkpt lat="44.53986344340594" lon="9.501517519407487"><ele>1474.0</ele><time>2026-04-29T14:16:08.999Z</time></trkpt><trkpt lat="44.53973123008912" lon="9.501413179242421"><ele>1474.0</ele><time>2026-04-29T14:16:09.999Z</time></trkpt><trkpt lat="44.539588085568134" lon="9.501310781335647"><ele>1477.25</ele><time>2026-04-29T14:16:11Z</time></trkpt><trkpt lat="44.53945174168467" lon="9.501210731273874"><ele>1480.5</ele><time>2026-04-29T14:16:12Z</time></trkpt><trkpt lat="44.53933790774451" lon="9.501119566499934"><ele>1483.75</ele><time>2026-04-29T14:16:13Z</time></trkpt><trkpt lat="44.539229438064076" lon="9.501058773519242"><ele>1487.0</ele><time>2026-04-29T14:16:14Z</time></trkpt><trkpt lat="44.5391036340382" lon="9.501046936192111"><ele>1487.0</ele><time>2026-04-29T14:16:15Z</time></trkpt><trkpt lat="44.53896424343585" lon="9.50102897523429"><ele>1487.0</ele><time>2026-04-29T14:16:16Z</time></trkpt><trkpt lat="44.53881387069527" lon="9.501046977982064"><ele>1487.0</ele><time>2026-04-29T14:16:17Z</time></trkpt><trkpt lat="44.53866943717892" lon="9.50110419966528"><ele>1487.0</ele><time>2026-04-29T14:16:18Z</time></trkpt><trkpt lat="44.538542034337944" lon="9.501201852596308"><ele>1480.0</ele><time>2026-04-29T14:16:19Z</time></trkpt><trkpt lat="44.53842627275742" lon="9.501318834665943"><ele>1473.0</ele><time>2026-04-29T14:16:20Z</time></trkpt><trkpt lat="44.538316255259296" lon="9.501410736126472"><ele>1466.0</ele><time>2026-04-29T14:16:21Z</time></trkpt><trkpt lat="44.53819790850826" lon="9.501458166973443"><ele>1459.0</ele><time>2026-04-29T14:16:22Z</time></trkpt><trkpt lat="44.538042978733266" lon="9.501491420501242"><ele>1463.3333333333333</ele><time>2026-04-29T14:16:23Z</time></trkpt><trkpt lat="44.53787325850357" lon="9.501525215826003"><ele>1467.6666666666667</ele><time>2026-04-29T14:16:24Z</time></trkpt><trkpt lat="44.537699887276084" lon="9.50156091146487"><ele>1472.0</ele><time>2026-04-29T14:16:25Z</time></trkpt><trkpt lat="44.537527259424806" lon="9.501596907348604"><ele>1472.0</ele><time>2026-04-29T14:16:26Z</time></trkpt><trkpt lat="44.53736836786388" lon="9.501631438518075"><ele>1472.0</ele><time>2026-04-29T14:16:27Z</time></trkpt><trkpt lat="44.53721645019429" lon="9.50166445408292"><ele>1472.0</ele><time>2026-04-29T14:16:28Z</time></trkpt><trkpt lat="44.5370831882785" lon="9.50169050583577"><ele>1472.0</ele><time>2026-04-29T14:16:29Z</time></trkpt><trkpt lat="44.5369514088082" lon="9.50169832333639"><ele>1473.0</ele><time>2026-04-29T14:16:30Z</time></trkpt><trkpt lat="44.53681865558988" lon="9.501682386073952"><ele>1474.0</ele><time>2026-04-29T14:16:31Z</time></trkpt><trkpt lat="44.53667611238031" lon="9.501639741240634"><ele>1475.0</ele><time>2026-04-29T14:16:32Z</time></trkpt><trkpt lat="44.53653164534973" lon="9.501570291056817"><ele>1476.0</ele><time>2026-04-29T14:16:33Z</time></trkpt><trkpt lat="44.5363919911544" lon="9.501520602848121"><ele>1476.0</ele><time>2026-04-29T14:16:34Z</time></trkpt><trkpt lat="44.53627480875007" lon="9.50143144050039"><ele>1476.0</ele><time>2026-04-29T14:16:35Z</time></trkpt><trkpt lat="44.53615601215587" lon="9.501363992476517"><ele>1476.0</ele><time>2026-04-29T14:16:36Z</time></trkpt><trkpt lat="44.53605473280055" lon="9.501319892776184"><ele>1476.0</ele><time>2026-04-29T14:16:37Z</time></trkpt><trkpt lat="44.53597775919611" lon="9.501239978446034"><ele>1474.8</ele><time>2026-04-29T14:16:38Z</time></trkpt><trkpt lat="44.53591168116146" lon="9.501133924730349"><ele>1473.6</ele><time>2026-04-29T14:16:39Z</time></trkpt><trkpt lat="44.53586673357559" lon="9.501003427854435"><ele>1472.4</ele><time>2026-04-29T14:16:40Z</time></trkpt><trkpt lat="44.53583735454611" lon="9.500857477733307"><ele>1471.2</ele><time>2026-04-29T14:16:41Z</time></trkpt><trkpt lat="44.535835346709426" lon="9.500699758180563"><ele>1470.0</ele><time>2026-04-29T14:16:42Z</time></trkpt><trkpt lat="44.535855124009025" lon="9.500540193140155"><ele>1467.75</ele><time>2026-04-29T14:16:43Z</time></trkpt><trkpt lat="44.53590674301877" lon="9.500398511253591"><ele>1465.5</ele><time>2026-04-29T14:16:44Z</time></trkpt><trkpt lat="44.535982384871836" lon="9.500260849653154"><ele>1463.25</ele><time>2026-04-29T14:16:45Z</time></trkpt><trkpt lat="44.5360775687184" lon="9.500117109278959"><ele>1461.0</ele><time>2026-04-29T14:16:46Z</time></trkpt><trkpt lat="44.5361744448108" lon="9.499963870308278"><ele>1463.0</ele><time>2026-04-29T14:16:47Z</time></trkpt><trkpt lat="44.53624950950505" lon="9.499823841351319"><ele>1465.0</ele><time>2026-04-29T14:16:48Z</time></trkpt><trkpt lat="44.53630723027847" lon="9.499677450068797"><ele>1467.0</ele><time>2026-04-29T14:16:49Z</time></trkpt><trkpt lat="44.53633937864331" lon="9.499538960542056"><ele>1469.0</ele><time>2026-04-29T14:16:50Z</time></trkpt><trkpt lat="44.53634681184231" lon="9.499392762569926"><ele>1469.0</ele><time>2026-04-29T14:16:51Z</time></trkpt><trkpt lat="44.53632434032732" lon="9.499242853909886"><ele>1469.0</ele><time>2026-04-29T14:16:52Z</time></trkpt><trkpt lat="44.53630263352794" lon="9.499081807392242"><ele>1469.0</ele><time>2026-04-29T14:16:53Z</time></trkpt><trkpt lat="44.53630395342354" lon="9.498918163300319"><ele>1469.0</ele><time>2026-04-29T14:16:54Z</time></trkpt><trkpt lat="44.53632802431838" lon="9.498741945589218"><ele>1466.0</ele><time>2026-04-29T14:16:55Z</time></trkpt><trkpt lat="44.53637059793404" lon="9.498553964111261"><ele>1463.0</ele><time>2026-04-29T14:16:56Z</time></trkpt><trkpt lat="44.53643453573473" lon="9.498355556048477"><ele>1460.0</ele><time>2026-04-29T14:16:57Z</time></trkpt><trkpt lat="44.53650532471743" lon="9.498159523931324"><ele>1460.0</ele><time>2026-04-29T14:16:58Z</time></trkpt><trkpt lat="44.53657801046127" lon="9.497971740643473"><ele>1460.0</ele><time>2026-04-29T14:16:59Z</time></trkpt><trkpt lat="44.53663125369385" lon="9.49779953939028"><ele>1460.0</ele><time>2026-04-29T14:17:00Z</time></trkpt><trkpt lat="44.53666259203231" lon="9.497617853959774"><ele>1460.0</ele><time>2026-04-29T14:17:01Z</time></trkpt><trkpt lat="44.53665801643127" lon="9.497432142754416"><ele>1458.5</ele><time>2026-04-29T14:17:02Z</time></trkpt><trkpt lat="44.53662558192023" lon="9.497229651875813"><ele>1457.0</ele><time>2026-04-29T14:17:03Z</time></trkpt><trkpt lat="44.53657726286307" lon="9.49704399592862"><ele>1455.5</ele><time>2026-04-29T14:17:04Z</time></trkpt><trkpt lat="44.53654111708902" lon="9.496871141546027"><ele>1454.0</ele><time>2026-04-29T14:17:05Z</time></trkpt><trkpt lat="44.5365472800185" lon="9.496695813234485"><ele>1453.5</ele><time>2026-04-29T14:17:06Z</time></trkpt><trkpt lat="44.53657152142553" lon="9.496510842711764"><ele>1453.0</ele><time>2026-04-29T14:17:07Z</time></trkpt><trkpt lat="44.536619815333644" lon="9.496323699908936"><ele>1452.5</ele><time>2026-04-29T14:17:08Z</time></trkpt><trkpt lat="44.536689472581976" lon="9.496150314030315"><ele>1452.0</ele><time>2026-04-29T14:17:09Z</time></trkpt><trkpt lat="44.536773753803985" lon="9.495982643178454"><ele>1449.0</ele><time>2026-04-29T14:17:10Z</time></trkpt><trkpt lat="44.53688680310674" lon="9.495810387699446"><ele>1446.0</ele><time>2026-04-29T14:17:11Z</time></trkpt><trkpt lat="44.53700640879447" lon="9.495637773247651"><ele>1443.0</ele><time>2026-04-29T14:17:12Z</time></trkpt><trkpt lat="44.537136410975364" lon="9.495457192758202"><ele>1446.3333333333333</ele><time>2026-04-29T14:17:13Z</time></trkpt><trkpt lat="44.53727317785131" lon="9.495266700453719"><ele>1449.6666666666665</ele><time>2026-04-29T14:17:14Z</time></trkpt><trkpt lat="44.53739906297472" lon="9.495077806103643"><ele>1453.0</ele><time>2026-04-29T14:17:15Z</time></trkpt><trkpt lat="44.537514941457886" lon="9.494902115997995"><ele>1453.0</ele><time>2026-04-29T14:17:16Z</time></trkpt><trkpt lat="44.53762449073632" lon="9.49474604071855"><ele>1453.0</ele><time>2026-04-29T14:17:17Z</time></trkpt><trkpt lat="44.53771152766359" lon="9.494604013397595"><ele>1453.0</ele><time>2026-04-29T14:17:18Z</time></trkpt><trkpt lat="44.537771600530085" lon="9.494456265580864"><ele>1453.0</ele><time>2026-04-29T14:17:19Z</time></trkpt><trkpt lat="44.53780884924832" lon="9.494292279560923"><ele>1450.75</ele><time>2026-04-29T14:17:20Z</time></trkpt><trkpt lat="44.537846213355664" lon="9.494126701586847"><ele>1448.5</ele><time>2026-04-29T14:17:21Z</time></trkpt><trkpt lat="44.537829731381606" lon="9.493946765973268"><ele>1446.25</ele><time>2026-04-29T14:17:22Z</time></trkpt><trkpt lat="44.53782309429217" lon="9.493746318503836"><ele>1444.0</ele><time>2026-04-29T14:17:23Z</time></trkpt><trkpt lat="44.53779218485755" lon="9.493540818346696"><ele>1444.0</ele><time>2026-04-29T14:17:24Z</time></trkpt><trkpt lat="44.53775908225398" lon="9.493336700529733"><ele>1444.0</ele><time>2026-04-29T14:17:25Z</time></trkpt><trkpt lat="44.53772115536479" lon="9.493146327236857"><ele>1444.0</ele><time>2026-04-29T14:17:26Z</time></trkpt><trkpt lat="44.537649181289865" lon="9.492947674648399"><ele>1444.0</ele><time>2026-04-29T14:17:27Z</time></trkpt><trkpt lat="44.537555242861174" lon="9.492779263602676"><ele>1445.25</ele><time>2026-04-29T14:17:28Z</time></trkpt><trkpt lat="44.537443606274394" lon="9.492621496663183"><ele>1446.5</ele><time>2026-04-29T14:17:29Z</time></trkpt><trkpt lat="44.537334176677014" lon="9.492466055227197"><ele>1447.75</ele><time>2026-04-29T14:17:30Z</time></trkpt><trkpt lat="44.53724577779583" lon="9.492330125469751"><ele>1449.0</ele><time>2026-04-29T14:17:31Z</time></trkpt><trkpt lat="44.53716963122597" lon="9.49217947115877"><ele>1450.0</ele><time>2026-04-29T14:17:32Z</time></trkpt><trkpt lat="44.537111967209995" lon="9.492010338747662"><ele>1451.0</ele><time>2026-04-29T14:17:33Z</time></trkpt><trkpt lat="44.53708602006961" lon="9.491822964714702"><ele>1452.0</ele><time>2026-04-29T14:17:34Z</time></trkpt><trkpt lat="44.53707621328894" lon="9.491610977357475"><ele>1453.0</ele><time>2026-04-29T14:17:35Z</time></trkpt><trkpt lat="44.53706242819546" lon="9.491391456435315"><ele>1452.0</ele><time>2026-04-29T14:17:36Z</time></trkpt><trkpt lat="44.53706339261399" lon="9.491199399606515"><ele>1451.0</ele><time>2026-04-29T14:17:37Z</time></trkpt><trkpt lat="44.53704864922146" lon="9.491027476575804"><ele>1450.0</ele><time>2026-04-29T14:17:38Z</time></trkpt><trkpt lat="44.53702356711315" lon="9.490863261288933"><ele>1449.0</ele><time>2026-04-29T14:17:39Z</time></trkpt><trkpt lat="44.53694386620883" lon="9.490715838782469"><ele>1443.3333333333333</ele><time>2026-04-29T14:17:40Z</time></trkpt><trkpt lat="44.53683051516874" lon="9.490579795226097"><ele>1437.6666666666665</ele><time>2026-04-29T14:17:41Z</time></trkpt><trkpt lat="44.53670081179827" lon="9.490443385819878"><ele>1432.0</ele><time>2026-04-29T14:17:42Z</time></trkpt><trkpt lat="44.53655811153138" lon="9.490293475013605"><ele>1431.0</ele><time>2026-04-29T14:17:43Z</time></trkpt><trkpt lat="44.53640874818486" lon="9.490134646115843"><ele>1430.0</ele><time>2026-04-29T14:17:44Z</time></trkpt><trkpt lat="44.53627098574878" lon="9.489986652681129"><ele>1429.0</ele><time>2026-04-29T14:17:45Z</time></trkpt><trkpt lat="44.53613565761532" lon="9.489839887802491"><ele>1425.3333333333333</ele><time>2026-04-29T14:17:46Z</time></trkpt><trkpt lat="44.53600511853623" lon="9.489695575497993"><ele>1421.6666666666667</ele><time>2026-04-29T14:17:46.999Z</time></trkpt><trkpt lat="44.535874538135836" lon="9.489546912835287"><ele>1418.0</ele><time>2026-04-29T14:17:47.999Z</time></trkpt><trkpt lat="44.53574557909806" lon="9.489398404885371"><ele>1417.75</ele><time>2026-04-29T14:17:48.999Z</time></trkpt><trkpt lat="44.53560587826301" lon="9.489266726517478"><ele>1417.5</ele><time>2026-04-29T14:17:49.999Z</time></trkpt><trkpt lat="44.535500584563565" lon="9.489133389992311"><ele>1417.25</ele><time>2026-04-29T14:17:50.999Z</time></trkpt><trkpt lat="44.53541485322353" lon="9.489004298780007"><ele>1417.0</ele><time>2026-04-29T14:17:51.999Z</time></trkpt><trkpt lat="44.535364238638486" lon="9.48883285129495"><ele>1417.25</ele><time>2026-04-29T14:17:52.999Z</time></trkpt><trkpt lat="44.53533227309995" lon="9.488659594196607"><ele>1417.5</ele><time>2026-04-29T14:17:53.999Z</time></trkpt><trkpt lat="44.53532514371607" lon="9.488480411357916"><ele>1417.75</ele><time>2026-04-29T14:17:54.999Z</time></trkpt><trkpt lat="44.535351191583096" lon="9.488268514546931"><ele>1418.0</ele><time>2026-04-29T14:17:55.999Z</time></trkpt><trkpt lat="44.535398361468076" lon="9.488025253800929"><ele>1416.0</ele><time>2026-04-29T14:17:56.999Z</time></trkpt><trkpt lat="44.53545489741665" lon="9.487757177595999"><ele>1414.0</ele><time>2026-04-29T14:17:57.999Z</time></trkpt><trkpt lat="44.535514671901375" lon="9.487473890589882"><ele>1412.0</ele><time>2026-04-29T14:17:58.999Z</time></trkpt><trkpt lat="44.53556978278071" lon="9.487201582939704"><ele>1407.6666666666667</ele><time>2026-04-29T14:17:59.999Z</time></trkpt><trkpt lat="44.535626432674796" lon="9.486937870779496"><ele>1403.3333333333333</ele><time>2026-04-29T14:18:00.999Z</time></trkpt><trkpt lat="44.53569525697915" lon="9.486677201742511"><ele>1399.0</ele><time>2026-04-29T14:18:01.999Z</time></trkpt><trkpt lat="44.535781082011546" lon="9.486422402634284"><ele>1394.6666666666665</ele><time>2026-04-29T14:18:02.999Z</time></trkpt><trkpt lat="44.535879050683526" lon="9.486184004133923"><ele>1390.3333333333333</ele><time>2026-04-29T14:18:03.999Z</time></trkpt><trkpt lat="44.53599162330589" lon="9.485967321979643"><ele>1386.0</ele><time>2026-04-29T14:18:04.999Z</time></trkpt><trkpt lat="44.53611831389319" lon="9.485777813291662"><ele>1387.6666666666667</ele><time>2026-04-29T14:18:05.999Z</time></trkpt><trkpt lat="44.53625002460007" lon="9.485618731445287"><ele>1389.3333333333335</ele><time>2026-04-29T14:18:06.999Z</time></trkpt><trkpt lat="44.53636569544826" lon="9.485474779709854"><ele>1391.0</ele><time>2026-04-29T14:18:07.999Z</time></trkpt><trkpt lat="44.53648754630058" lon="9.48533731182034"><ele>1391.0</ele><time>2026-04-29T14:18:08.999Z</time></trkpt><trkpt lat="44.53658220315411" lon="9.485221104822061"><ele>1391.0</ele><time>2026-04-29T14:18:09.999Z</time></trkpt><trkpt lat="44.53665199834484" lon="9.485081603912926"><ele>1391.0</ele><time>2026-04-29T14:18:10.999Z</time></trkpt><trkpt lat="44.53669598995068" lon="9.484912073340478"><ele>1391.0</ele><time>2026-04-29T14:18:11.999Z</time></trkpt><trkpt lat="44.536739205178016" lon="9.484699941091135"><ele>1387.0</ele><time>2026-04-29T14:18:12.999Z</time></trkpt><trkpt lat="44.53678117837781" lon="9.484472077583122"><ele>1383.0</ele><time>2026-04-29T14:18:13.999Z</time></trkpt><trkpt lat="44.53681689519221" lon="9.484240498869552"><ele>1379.0</ele><time>2026-04-29T14:18:14.999Z</time></trkpt><trkpt lat="44.53685580416298" lon="9.484010192358216"><ele>1379.0</ele><time>2026-04-29T14:18:15.999Z</time></trkpt><trkpt lat="44.536901210904695" lon="9.483790997826569"><ele>1379.0</ele><time>2026-04-29T14:18:17Z</time></trkpt><trkpt lat="44.536967195388065" lon="9.483582181289988"><ele>1379.0</ele><time>2026-04-29T14:18:18Z</time></trkpt><trkpt lat="44.53705511095512" lon="9.483368406316165"><ele>1378.3333333333335</ele><time>2026-04-29T14:18:19Z</time></trkpt><trkpt lat="44.53714267275454" lon="9.483152923289117"><ele>1377.6666666666667</ele><time>2026-04-29T14:18:20Z</time></trkpt><trkpt lat="44.537231224805716" lon="9.482950722732863"><ele>1377.0</ele><time>2026-04-29T14:18:21Z</time></trkpt><trkpt lat="44.53732751499869" lon="9.482772614383641"><ele>1377.0</ele><time>2026-04-29T14:18:22Z</time></trkpt><trkpt lat="44.53744800883382" lon="9.48261195482071"><ele>1377.0</ele><time>2026-04-29T14:18:23Z</time></trkpt><trkpt lat="44.53759066688875" lon="9.48244770129341"><ele>1377.0</ele><time>2026-04-29T14:18:24Z</time></trkpt><trkpt lat="44.537749654919175" lon="9.482294872065648"><ele>1376.6666666666667</ele><time>2026-04-29T14:18:25Z</time></trkpt><trkpt lat="44.53790602412127" lon="9.482135815523725"><ele>1376.3333333333335</ele><time>2026-04-29T14:18:26Z</time></trkpt><trkpt lat="44.53805610920296" lon="9.481978008836323"><ele>1376.0</ele><time>2026-04-29T14:18:27Z</time></trkpt><trkpt lat="44.538200899901085" lon="9.481830499099893"><ele>1376.0</ele><time>2026-04-29T14:18:28Z</time></trkpt><trkpt lat="44.53831902739804" lon="9.481705537168496"><ele>1376.0</ele><time>2026-04-29T14:18:29Z</time></trkpt><trkpt lat="44.5383992351186" lon="9.481595747629862"><ele>1376.0</ele><time>2026-04-29T14:18:30Z</time></trkpt><trkpt lat="44.53846494421102" lon="9.481452788285038"><ele>1376.0</ele><time>2026-04-29T14:18:31Z</time></trkpt><trkpt lat="44.538507533976414" lon="9.481288689893525"><ele>1372.25</ele><time>2026-04-29T14:18:32Z</time></trkpt><trkpt lat="44.53852732271268" lon="9.48110138893801"><ele>1368.5</ele><time>2026-04-29T14:18:33Z</time></trkpt><trkpt lat="44.53855047484284" lon="9.4808870644721"><ele>1364.75</ele><time>2026-04-29T14:18:34Z</time></trkpt><trkpt lat="44.538561182427976" lon="9.480669501146577"><ele>1361.0</ele><time>2026-04-29T14:18:35Z</time></trkpt><trkpt lat="44.53856957386132" lon="9.48046599367546"><ele>1359.5</ele><time>2026-04-29T14:18:36Z</time></trkpt><trkpt lat="44.53856189927708" lon="9.480297366294721"><ele>1358.0</ele><time>2026-04-29T14:18:37Z</time></trkpt><trkpt lat="44.538518141011075" lon="9.48013542790073"><ele>1356.5</ele><time>2026-04-29T14:18:38Z</time></trkpt><trkpt lat="44.538440546493696" lon="9.479984630334773"><ele>1355.0</ele><time>2026-04-29T14:18:39Z</time></trkpt><trkpt lat="44.53833710485173" lon="9.479839031311535"><ele>1355.0</ele><time>2026-04-29T14:18:40Z</time></trkpt><trkpt lat="44.538203967941705" lon="9.479689219353443"><ele>1355.0</ele><time>2026-04-29T14:18:41Z</time></trkpt><trkpt lat="44.53806651807951" lon="9.479519793268315"><ele>1355.0</ele><time>2026-04-29T14:18:42Z</time></trkpt><trkpt lat="44.537936810229034" lon="9.479356146941338"><ele>1352.25</ele><time>2026-04-29T14:18:43Z</time></trkpt><trkpt lat="44.53781702371259" lon="9.479209910139799"><ele>1349.5</ele><time>2026-04-29T14:18:44Z</time></trkpt><trkpt lat="44.53771833596186" lon="9.479073592437185"><ele>1346.75</ele><time>2026-04-29T14:18:45Z</time></trkpt><trkpt lat="44.53765805165279" lon="9.478941737139742"><ele>1344.0</ele><time>2026-04-29T14:18:46Z</time></trkpt><trkpt lat="44.537617654387084" lon="9.478779623149318"><ele>1342.6666666666667</ele><time>2026-04-29T14:18:47Z</time></trkpt><trkpt lat="44.53759713774293" lon="9.478582291899858"><ele>1341.3333333333335</ele><time>2026-04-29T14:18:48Z</time></trkpt><trkpt lat="44.53759489188622" lon="9.478354522292726"><ele>1340.0</ele><time>2026-04-29T14:18:49Z</time></trkpt><trkpt lat="44.53759056953051" lon="9.478128704019849"><ele>1340.25</ele><time>2026-04-29T14:18:50Z</time></trkpt><trkpt lat="44.53757294083116" lon="9.477930573771504"><ele>1340.5</ele><time>2026-04-29T14:18:51Z</time></trkpt><trkpt lat="44.53752417353672" lon="9.477755968259777"><ele>1340.75</ele><time>2026-04-29T14:18:52Z</time></trkpt><trkpt lat="44.537447745104195" lon="9.477584130455568"><ele>1341.0</ele><time>2026-04-29T14:18:53Z</time></trkpt><trkpt lat="44.537375087820436" lon="9.477421749153127"><ele>1341.0</ele><time>2026-04-29T14:18:54Z</time></trkpt><trkpt lat="44.53733505884442" lon="9.477272341318894"><ele>1341.0</ele><time>2026-04-29T14:18:55Z</time></trkpt><trkpt lat="44.53733133199156" lon="9.477123499388012"><ele>1341.0</ele><time>2026-04-29T14:18:56Z</time></trkpt><trkpt lat="44.53735631621464" lon="9.476960044133813"><ele>1341.0</ele><time>2026-04-29T14:18:57Z</time></trkpt><trkpt lat="44.537418016054005" lon="9.476780112716286"><ele>1339.75</ele><time>2026-04-29T14:18:58Z</time></trkpt><trkpt lat="44.537485437029886" lon="9.476595631617018"><ele>1338.5</ele><time>2026-04-29T14:18:59Z</time></trkpt><trkpt lat="44.53753051386751" lon="9.47640405140137"><ele>1337.25</ele><time>2026-04-29T14:19:00Z</time></trkpt><trkpt lat="44.53754838452205" lon="9.47619852403715"><ele>1336.0</ele><time>2026-04-29T14:19:01Z</time></trkpt><trkpt lat="44.53757662049874" lon="9.476015204263803"><ele>1335.0</ele><time>2026-04-29T14:19:02Z</time></trkpt><trkpt lat="44.537578915862774" lon="9.475832833561226"><ele>1334.0</ele><time>2026-04-29T14:19:03Z</time></trkpt><trkpt lat="44.53756343523189" lon="9.47565807200455"><ele>1333.0</ele><time>2026-04-29T14:19:04Z</time></trkpt><trkpt lat="44.53751102555235" lon="9.475488985267484"><ele>1332.0</ele><time>2026-04-29T14:19:05Z</time></trkpt><trkpt lat="44.53743754666448" lon="9.475322117841447"><ele>1332.0</ele><time>2026-04-29T14:19:06Z</time></trkpt><trkpt lat="44.53732653072325" lon="9.47516591763787"><ele>1332.0</ele><time>2026-04-29T14:19:07Z</time></trkpt><trkpt lat="44.53721604947832" lon="9.475016703636163"><ele>1332.0</ele><time>2026-04-29T14:19:08Z</time></trkpt><trkpt lat="44.53713391431619" lon="9.474882787462361"><ele>1332.0</ele><time>2026-04-29T14:19:09Z</time></trkpt><trkpt lat="44.53708003908513" lon="9.47474571217999"><ele>1329.6</ele><time>2026-04-29T14:19:10Z</time></trkpt><trkpt lat="44.53706189010669" lon="9.474599406398568"><ele>1327.1999999999998</ele><time>2026-04-29T14:19:11Z</time></trkpt><trkpt lat="44.53706447163446" lon="9.474454346281348"><ele>1324.8</ele><time>2026-04-29T14:19:12Z</time></trkpt><trkpt lat="44.53709237568867" lon="9.47431679851014"><ele>1322.4</ele><time>2026-04-29T14:19:13Z</time></trkpt><trkpt lat="44.537151118472295" lon="9.474177063132087"><ele>1320.0</ele><time>2026-04-29T14:19:14Z</time></trkpt><trkpt lat="44.53724186918561" lon="9.474045555588704"><ele>1320.0</ele><time>2026-04-29T14:19:15Z</time></trkpt><trkpt lat="44.53736037417609" lon="9.473920103002222"><ele>1320.0</ele><time>2026-04-29T14:19:16Z</time></trkpt><trkpt lat="44.5374886540442" lon="9.473790315422791"><ele>1320.0</ele><time>2026-04-29T14:19:17Z</time></trkpt><trkpt lat="44.53759666311241" lon="9.473615703099926"><ele>1314.6666666666667</ele><time>2026-04-29T14:19:18Z</time></trkpt><trkpt lat="44.53769006122464" lon="9.473402930119532"><ele>1309.3333333333335</ele><time>2026-04-29T14:19:19Z</time></trkpt><trkpt lat="44.53775564957656" lon="9.473191797722086"><ele>1304.0</ele><time>2026-04-29T14:19:20Z</time></trkpt><trkpt lat="44.53781401314276" lon="9.473009496684462"><ele>1304.25</ele><time>2026-04-29T14:19:21Z</time></trkpt><trkpt lat="44.53788934843499" lon="9.472872195121145"><ele>1304.5</ele><time>2026-04-29T14:19:22Z</time></trkpt><trkpt lat="44.53800037715385" lon="9.472736656050763"><ele>1304.75</ele><time>2026-04-29T14:19:23Z</time></trkpt><trkpt lat="44.53814248354912" lon="9.472603942898864"><ele>1305.0</ele><time>2026-04-29T14:19:24Z</time></trkpt><trkpt lat="44.53828186700188" lon="9.47246807260941"><ele>1305.0</ele><time>2026-04-29T14:19:25Z</time></trkpt><trkpt lat="44.53840807478877" lon="9.472314073103368"><ele>1305.0</ele><time>2026-04-29T14:19:26Z</time></trkpt><trkpt lat="44.538530834761964" lon="9.472142676706925"><ele>1305.0</ele><time>2026-04-29T14:19:27Z</time></trkpt><trkpt lat="44.538655183452505" lon="9.47197585397537"><ele>1306.75</ele><time>2026-04-29T14:19:28Z</time></trkpt><trkpt lat="44.53877746682484" lon="9.47182708929206"><ele>1308.5</ele><time>2026-04-29T14:19:29Z</time></trkpt><trkpt lat="44.53887405449779" lon="9.471718336770303"><ele>1310.25</ele><time>2026-04-29T14:19:30Z</time></trkpt><trkpt lat="44.53895038366192" lon="9.471582270301282"><ele>1312.0</ele><time>2026-04-29T14:19:31Z</time></trkpt><trkpt lat="44.538982563737946" lon="9.471397520649152"><ele>1308.3333333333333</ele><time>2026-04-29T14:19:32Z</time></trkpt><trkpt lat="44.53900748716769" lon="9.4712031007412"><ele>1304.6666666666667</ele><time>2026-04-29T14:19:32.999Z</time></trkpt><trkpt lat="44.53901099227092" lon="9.470999589697401"><ele>1301.0</ele><time>2026-04-29T14:19:33.999Z</time></trkpt><trkpt lat="44.53901295179838" lon="9.470759629475383"><ele>1301.0</ele><time>2026-04-29T14:19:34.999Z</time></trkpt><trkpt lat="44.539006406891126" lon="9.470525932411483"><ele>1301.0</ele><time>2026-04-29T14:19:35.999Z</time></trkpt><trkpt lat="44.53900828270292" lon="9.470291408308336"><ele>1301.0</ele><time>2026-04-29T14:19:36.999Z</time></trkpt><trkpt lat="44.53901337356813" lon="9.470058656797207"><ele>1298.5</ele><time>2026-04-29T14:19:37.999Z</time></trkpt><trkpt lat="44.539025198329675" lon="9.469838070264148"><ele>1296.0</ele><time>2026-04-29T14:19:38.999Z</time></trkpt><trkpt lat="44.53904811411169" lon="9.469629954361983"><ele>1293.5</ele><time>2026-04-29T14:19:39.999Z</time></trkpt><trkpt lat="44.53907239721404" lon="9.469444474382819"><ele>1291.0</ele><time>2026-04-29T14:19:40.999Z</time></trkpt><trkpt lat="44.53908816369359" lon="9.469283143737762"><ele>1290.5</ele><time>2026-04-29T14:19:41.999Z</time></trkpt><trkpt lat="44.53909227967542" lon="9.469128508368726"><ele>1290.0</ele><time>2026-04-29T14:19:42.999Z</time></trkpt><trkpt lat="44.5390693304408" lon="9.46898907170434"><ele>1289.5</ele><time>2026-04-29T14:19:43.999Z</time></trkpt><trkpt lat="44.53901029923122" lon="9.468833445150764"><ele>1289.0</ele><time>2026-04-29T14:19:44.999Z</time></trkpt><trkpt lat="44.538920374651106" lon="9.468650689949671"><ele>1292.3333333333335</ele><time>2026-04-29T14:19:45.999Z</time></trkpt><trkpt lat="44.538818044448114" lon="9.468474230464622"><ele>1295.6666666666667</ele><time>2026-04-29T14:19:46.999Z</time></trkpt><trkpt lat="44.538704719856604" lon="9.468279079083983"><ele>1299.0</ele><time>2026-04-29T14:19:47.999Z</time></trkpt><trkpt lat="44.538592037888776" lon="9.468064640208132"><ele>1290.3333333333333</ele><time>2026-04-29T14:19:48.999Z</time></trkpt><trkpt lat="44.53849276250478" lon="9.467849037075537"><ele>1281.6666666666665</ele><time>2026-04-29T14:19:49.999Z</time></trkpt><trkpt lat="44.538407734456726" lon="9.467636526081773"><ele>1273.0</ele><time>2026-04-29T14:19:50.999Z</time></trkpt><trkpt lat="44.538333301291956" lon="9.467431661238866"><ele>1273.0</ele><time>2026-04-29T14:19:51.999Z</time></trkpt><trkpt lat="44.53826320560853" lon="9.467245626843498"><ele>1273.0</ele><time>2026-04-29T14:19:52.999Z</time></trkpt><trkpt lat="44.53817635664311" lon="9.46707437666829"><ele>1273.0</ele><time>2026-04-29T14:19:53.999Z</time></trkpt><trkpt lat="44.53806228629513" lon="9.466919490441057"><ele>1272.0</ele><time>2026-04-29T14:19:54.999Z</time></trkpt><trkpt lat="44.53790546694231" lon="9.46683097033573"><ele>1271.0</ele><time>2026-04-29T14:19:55.999Z</time></trkpt><trkpt lat="44.537724200593786" lon="9.466737226746599"><ele>1270.0</ele><time>2026-04-29T14:19:56.999Z</time></trkpt><trkpt lat="44.53758937600329" lon="9.46667450109108"><ele>1270.0</ele><time>2026-04-29T14:19:57.999Z</time></trkpt><trkpt lat="44.537469720942106" lon="9.466645031944521"><ele>1270.0</ele><time>2026-04-29T14:19:58.999Z</time></trkpt><trkpt lat="44.53731114552816" lon="9.46658191263787"><ele>1270.0</ele><time>2026-04-29T14:19:59.999Z</time></trkpt><trkpt lat="44.537161521354584" lon="9.466502931174112"><ele>1270.0</ele><time>2026-04-29T14:20:00.999Z</time></trkpt><trkpt lat="44.5370070004505" lon="9.466451569678961"><ele>1266.25</ele><time>2026-04-29T14:20:01.999Z</time></trkpt><trkpt lat="44.5368585708405" lon="9.466430544185412"><ele>1262.5</ele><time>2026-04-29T14:20:02.999Z</time></trkpt><trkpt lat="44.53672050124132" lon="9.466393118202236"><ele>1258.75</ele><time>2026-04-29T14:20:03.999Z</time></trkpt><trkpt lat="44.53660664672824" lon="9.466334035358901"><ele>1255.0</ele><time>2026-04-29T14:20:04.999Z</time></trkpt><trkpt lat="44.53647653124591" lon="9.466294433074523"><ele>1253.25</ele><time>2026-04-29T14:20:05.999Z</time></trkpt><trkpt lat="44.536355074779834" lon="9.466222749640838"><ele>1251.5</ele><time>2026-04-29T14:20:06.999Z</time></trkpt><trkpt lat="44.53624231696759" lon="9.466142580959795"><ele>1249.75</ele><time>2026-04-29T14:20:07.999Z</time></trkpt><trkpt lat="44.53614848285432" lon="9.466052028784967"><ele>1248.0</ele><time>2026-04-29T14:20:08.999Z</time></trkpt><trkpt lat="44.536074213941475" lon="9.46593873457284"><ele>1248.0</ele><time>2026-04-29T14:20:09.999Z</time></trkpt><trkpt lat="44.536017235494384" lon="9.465809124268555"><ele>1248.0</ele><time>2026-04-29T14:20:10.999Z</time></trkpt><trkpt lat="44.53599236031751" lon="9.46566219625069"><ele>1248.0</ele><time>2026-04-29T14:20:11.999Z</time></trkpt><trkpt lat="44.53597856729608" lon="9.465476580225893"><ele>1248.0</ele><time>2026-04-29T14:20:12.999Z</time></trkpt><trkpt lat="44.535975376656154" lon="9.465257638113778"><ele>1248.3333333333333</ele><time>2026-04-29T14:20:13.999Z</time></trkpt><trkpt lat="44.535969309281164" lon="9.465016163953425"><ele>1248.6666666666665</ele><time>2026-04-29T14:20:14.999Z</time></trkpt><trkpt lat="44.53596254771772" lon="9.464770015026566"><ele>1249.0</ele><time>2026-04-29T14:20:15.999Z</time></trkpt><trkpt lat="44.53595518459857" lon="9.464497857387297"><ele>1247.3333333333333</ele><time>2026-04-29T14:20:16.999Z</time></trkpt><trkpt lat="44.5359575233516" lon="9.464224443233237"><ele>1245.6666666666667</ele><time>2026-04-29T14:20:17.999Z</time></trkpt><trkpt lat="44.53595404199736" lon="9.463956055538446"><ele>1244.0</ele><time>2026-04-29T14:20:18.999Z</time></trkpt><trkpt lat="44.53595124624135" lon="9.463698545462671"><ele>1242.6666666666667</ele><time>2026-04-29T14:20:19.999Z</time></trkpt><trkpt lat="44.535939480779156" lon="9.463469266713005"><ele>1241.3333333333333</ele><time>2026-04-29T14:20:20.999Z</time></trkpt><trkpt lat="44.5358896284794" lon="9.463248669376423"><ele>1240.0</ele><time>2026-04-29T14:20:21.999Z</time></trkpt><trkpt lat="44.5358456305308" lon="9.463037071051223"><ele>1241.5</ele><time>2026-04-29T14:20:23Z</time></trkpt><trkpt lat="44.53579769318388" lon="9.462851079503267"><ele>1243.0</ele><time>2026-04-29T14:20:24Z</time></trkpt><trkpt lat="44.535731277433776" lon="9.462678533020133"><ele>1244.5</ele><time>2026-04-29T14:20:25Z</time></trkpt><trkpt lat="44.535644102754134" lon="9.462523229424079"><ele>1246.0</ele><time>2026-04-29T14:20:26Z</time></trkpt><trkpt lat="44.535535106185726" lon="9.462382362316585"><ele>1246.0</ele><time>2026-04-29T14:20:27Z</time></trkpt><trkpt lat="44.53542031036226" lon="9.462220541761436"><ele>1246.0</ele><time>2026-04-29T14:20:28Z</time></trkpt><trkpt lat="44.53530088844122" lon="9.462084852896467"><ele>1246.0</ele><time>2026-04-29T14:20:29Z</time></trkpt><trkpt lat="44.53520010654523" lon="9.461971884921503"><ele>1246.0</ele><time>2026-04-29T14:20:30Z</time></trkpt><trkpt lat="44.535107003620595" lon="9.461886335942374"><ele>1241.75</ele><time>2026-04-29T14:20:31Z</time></trkpt><trkpt lat="44.53504899896277" lon="9.461776918763322"><ele>1237.5</ele><time>2026-04-29T14:20:32Z</time></trkpt><trkpt lat="44.535011792582324" lon="9.461637339641886"><ele>1233.25</ele><time>2026-04-29T14:20:33Z</time></trkpt><trkpt lat="44.534988036986014" lon="9.461460170539416"><ele>1229.0</ele><time>2026-04-29T14:20:34Z</time></trkpt><trkpt lat="44.534961085773496" lon="9.461263340020508"><ele>1229.0</ele><time>2026-04-29T14:20:35Z</time></trkpt><trkpt lat="44.534920617454354" lon="9.4610380534111"><ele>1229.0</ele><time>2026-04-29T14:20:36Z</time></trkpt><trkpt lat="44.534869417220904" lon="9.460806247741392"><ele>1229.0</ele><time>2026-04-29T14:20:37Z</time></trkpt><trkpt lat="44.5348122679314" lon="9.460588309574643"><ele>1229.0</ele><time>2026-04-29T14:20:38Z</time></trkpt><trkpt lat="44.534761301941685" lon="9.460404053554718"><ele>1229.0</ele><time>2026-04-29T14:20:39Z</time></trkpt><trkpt lat="44.53472888894916" lon="9.46027254812112"><ele>1229.0</ele><time>2026-04-29T14:20:40Z</time></trkpt><trkpt lat="44.53472130476268" lon="9.460130703446378"><ele>1229.0</ele><time>2026-04-29T14:20:41Z</time></trkpt><trkpt lat="44.53474259296757" lon="9.459966186474812"><ele>1229.0</ele><time>2026-04-29T14:20:42Z</time></trkpt><trkpt lat="44.534794876506226" lon="9.459818736889938"><ele>1229.0</ele><time>2026-04-29T14:20:43Z</time></trkpt><trkpt lat="44.5348551720254" lon="9.459684841553168"><ele>1229.0</ele><time>2026-04-29T14:20:44Z</time></trkpt><trkpt lat="44.53488672484137" lon="9.459542945759638"><ele>1229.0</ele><time>2026-04-29T14:20:45Z</time></trkpt><trkpt lat="44.534885111427386" lon="9.45939688127592"><ele>1229.0</ele><time>2026-04-29T14:20:46Z</time></trkpt><trkpt lat="44.5348459950593" lon="9.45924896533616"><ele>1229.0</ele><time>2026-04-29T14:20:47Z</time></trkpt><trkpt lat="44.53477434123261" lon="9.459108158730235"><ele>1229.0</ele><time>2026-04-29T14:20:48Z</time></trkpt><trkpt lat="44.534666434525086" lon="9.458951448805882"><ele>1229.0</ele><time>2026-04-29T14:20:49Z</time></trkpt><trkpt lat="44.53455004356588" lon="9.458771346216714"><ele>1223.0</ele><time>2026-04-29T14:20:50Z</time></trkpt><trkpt lat="44.534441993680346" lon="9.458606432320508"><ele>1217.0</ele><time>2026-04-29T14:20:51Z</time></trkpt><trkpt lat="44.534349061755584" lon="9.45846156905112"><ele>1211.0</ele><time>2026-04-29T14:20:52Z</time></trkpt><trkpt lat="44.534281338013216" lon="9.458329625844044"><ele>1205.0</ele><time>2026-04-29T14:20:53Z</time></trkpt><trkpt lat="44.53423949741839" lon="9.458188824377698"><ele>1205.0</ele><time>2026-04-29T14:20:54Z</time></trkpt><trkpt lat="44.5342280085904" lon="9.458028740845252"><ele>1205.0</ele><time>2026-04-29T14:20:55Z</time></trkpt><trkpt lat="44.5342370798131" lon="9.45783564135936"><ele>1205.0</ele><time>2026-04-29T14:20:56Z</time></trkpt><trkpt lat="44.53426361959148" lon="9.457612549061698"><ele>1205.0</ele><time>2026-04-29T14:20:57Z</time></trkpt><trkpt lat="44.53428344518496" lon="9.457378553222043"><ele>1204.6666666666667</ele><time>2026-04-29T14:20:58Z</time></trkpt><trkpt lat="44.534305729554134" lon="9.457141416103664"><ele>1204.3333333333333</ele><time>2026-04-29T14:20:59Z</time></trkpt><trkpt lat="44.534330836979244" lon="9.456901437408176"><ele>1204.0</ele><time>2026-04-29T14:21:00Z</time></trkpt><trkpt lat="44.534347542727744" lon="9.45670137400813"><ele>1204.0</ele><time>2026-04-29T14:21:01Z</time></trkpt><trkpt lat="44.5343614329211" lon="9.456529840255776"><ele>1204.0</ele><time>2026-04-29T14:21:02Z</time></trkpt><trkpt lat="44.53435029632588" lon="9.456366543837722"><ele>1204.0</ele><time>2026-04-29T14:21:03Z</time></trkpt><trkpt lat="44.53430752102796" lon="9.456200301690188"><ele>1204.0</ele><time>2026-04-29T14:21:04Z</time></trkpt><trkpt lat="44.5342232740177" lon="9.456037174785765"><ele>1204.6666666666665</ele><time>2026-04-29T14:21:05Z</time></trkpt><trkpt lat="44.534110209991674" lon="9.455880883241896"><ele>1205.3333333333333</ele><time>2026-04-29T14:21:06Z</time></trkpt><trkpt lat="44.53399981640232" lon="9.455685959285399"><ele>1206.0</ele><time>2026-04-29T14:21:07Z</time></trkpt><trkpt lat="44.533883522038735" lon="9.455496738792737"><ele>1208.3333333333333</ele><time>2026-04-29T14:21:08Z</time></trkpt><trkpt lat="44.53378835431095" lon="9.455306377991691"><ele>1210.6666666666665</ele><time>2026-04-29T14:21:09Z</time></trkpt><trkpt lat="44.53370618931752" lon="9.455115937425576"><ele>1213.0</ele><time>2026-04-29T14:21:10Z</time></trkpt><trkpt lat="44.533629785587515" lon="9.45496852737328"><ele>1204.0</ele><time>2026-04-29T14:21:11Z</time></trkpt><trkpt lat="44.5335902678824" lon="9.454819122166088"><ele>1195.0</ele><time>2026-04-29T14:21:12Z</time></trkpt><trkpt lat="44.533579757230314" lon="9.454670109235884"><ele>1186.0</ele><time>2026-04-29T14:21:13Z</time></trkpt><trkpt lat="44.53360039725554" lon="9.454518790030317"><ele>1177.0</ele><time>2026-04-29T14:21:14Z</time></trkpt><trkpt lat="44.53365155704347" lon="9.454364127824666"><ele>1177.0</ele><time>2026-04-29T14:21:15Z</time></trkpt><trkpt lat="44.53371415759735" lon="9.454233926636933"><ele>1177.0</ele><time>2026-04-29T14:21:16Z</time></trkpt><trkpt lat="44.533798065929254" lon="9.454128355658584"><ele>1177.0</ele><time>2026-04-29T14:21:17Z</time></trkpt><trkpt lat="44.53390650511243" lon="9.454062884968634"><ele>1177.0</ele><time>2026-04-29T14:21:18Z</time></trkpt><trkpt lat="44.53404257329817" lon="9.45400950159246"><ele>1176.75</ele><time>2026-04-29T14:21:19Z</time></trkpt><trkpt lat="44.53418528262637" lon="9.453958186264893"><ele>1176.5</ele><time>2026-04-29T14:21:20Z</time></trkpt><trkpt lat="44.53430016538618" lon="9.453892054540074"><ele>1176.25</ele><time>2026-04-29T14:21:21Z</time></trkpt><trkpt lat="44.53438468507332" lon="9.45380390878005"><ele>1176.0</ele><time>2026-04-29T14:21:22Z</time></trkpt><trkpt lat="44.53445105270658" lon="9.453693218037172"><ele>1176.0</ele><time>2026-04-29T14:21:23Z</time></trkpt><trkpt lat="44.534508437625675" lon="9.45356641856054"><ele>1176.0</ele><time>2026-04-29T14:21:24Z</time></trkpt><trkpt lat="44.534540226585314" lon="9.45341757769775"><ele>1176.0</ele><time>2026-04-29T14:21:25Z</time></trkpt><trkpt lat="44.53454916011842" lon="9.453259375824102"><ele>1176.0</ele><time>2026-04-29T14:21:26Z</time></trkpt><trkpt lat="44.53454138245646" lon="9.453064954662379"><ele>1173.0</ele><time>2026-04-29T14:21:27Z</time></trkpt><trkpt lat="44.534530576393664" lon="9.45284988663723"><ele>1170.0</ele><time>2026-04-29T14:21:28Z</time></trkpt><trkpt lat="44.53450866520853" lon="9.452593742998786"><ele>1167.0</ele><time>2026-04-29T14:21:29Z</time></trkpt><trkpt lat="44.53450412562781" lon="9.452335090137424"><ele>1167.3333333333333</ele><time>2026-04-29T14:21:30Z</time></trkpt><trkpt lat="44.53449554538334" lon="9.4520886737681"><ele>1167.6666666666665</ele><time>2026-04-29T14:21:31Z</time></trkpt><trkpt lat="44.534474999034884" lon="9.451861402200661"><ele>1168.0</ele><time>2026-04-29T14:21:32Z</time></trkpt><trkpt lat="44.534432629974944" lon="9.451653777078018"><ele>1168.0</ele><time>2026-04-29T14:21:33Z</time></trkpt><trkpt lat="44.53437291939947" lon="9.45146377575146"><ele>1168.0</ele><time>2026-04-29T14:21:34Z</time></trkpt><trkpt lat="44.5342960018894" lon="9.45126806841531"><ele>1168.0</ele><time>2026-04-29T14:21:35Z</time></trkpt><trkpt lat="44.534207164911564" lon="9.451064012812848"><ele>1169.5</ele><time>2026-04-29T14:21:36Z</time></trkpt><trkpt lat="44.53412251821673" lon="9.450871494334525"><ele>1171.0</ele><time>2026-04-29T14:21:37Z</time></trkpt><trkpt lat="44.534047900704394" lon="9.450680753623521"><ele>1172.5</ele><time>2026-04-29T14:21:38Z</time></trkpt><trkpt lat="44.53398713206687" lon="9.450527536773638"><ele>1174.0</ele><time>2026-04-29T14:21:39Z</time></trkpt><trkpt lat="44.53394375518371" lon="9.450394451442238"><ele>1174.0</ele><time>2026-04-29T14:21:40Z</time></trkpt><trkpt lat="44.53392084714358" lon="9.4502503966885"><ele>1174.0</ele><time>2026-04-29T14:21:41Z</time></trkpt><trkpt lat="44.533927337665865" lon="9.45008792473998"><ele>1174.0</ele><time>2026-04-29T14:21:42Z</time></trkpt><trkpt lat="44.53395675567455" lon="9.449928305258195"><ele>1174.0</ele><time>2026-04-29T14:21:43Z</time></trkpt><trkpt lat="44.53400757261445" lon="9.44978380401474"><ele>1174.0</ele><time>2026-04-29T14:21:44Z</time></trkpt><trkpt lat="44.5340877111662" lon="9.449644388949002"><ele>1174.0</ele><time>2026-04-29T14:21:45Z</time></trkpt><trkpt lat="44.5341669652406" lon="9.449453181139797"><ele>1174.0</ele><time>2026-04-29T14:21:46Z</time></trkpt><trkpt lat="44.53426588994699" lon="9.449263564195586"><ele>1170.0</ele><time>2026-04-29T14:21:47Z</time></trkpt><trkpt lat="44.534362298275674" lon="9.449045717730664"><ele>1166.0</ele><time>2026-04-29T14:21:48Z</time></trkpt><trkpt lat="44.53445471744179" lon="9.448842791046754"><ele>1162.0</ele><time>2026-04-29T14:21:48.999Z</time></trkpt><trkpt lat="44.53453641809321" lon="9.448647863733823"><ele>1163.0</ele><time>2026-04-29T14:21:49.999Z</time></trkpt><trkpt lat="44.53460250630396" lon="9.448450979412598"><ele>1164.0</ele><time>2026-04-29T14:21:50.999Z</time></trkpt><trkpt lat="44.53466963317486" lon="9.448257835155207"><ele>1165.0</ele><time>2026-04-29T14:21:51.999Z</time></trkpt><trkpt lat="44.53471881527964" lon="9.448032102292828"><ele>1160.6666666666665</ele><time>2026-04-29T14:21:52.999Z</time></trkpt><trkpt lat="44.5347864678237" lon="9.44782505960904"><ele>1156.3333333333333</ele><time>2026-04-29T14:21:53.999Z</time></trkpt><trkpt lat="44.53486694821503" lon="9.447622935992916"><ele>1152.0</ele><time>2026-04-29T14:21:54.999Z</time></trkpt><trkpt lat="44.534968910146205" lon="9.447427616527214"><ele>1152.0</ele><time>2026-04-29T14:21:55.999Z</time></trkpt><trkpt lat="44.535077796810576" lon="9.447225305968"><ele>1152.0</ele><time>2026-04-29T14:21:56.999Z</time></trkpt><trkpt lat="44.53519633516477" lon="9.44702447375679"><ele>1152.0</ele><time>2026-04-29T14:21:57.999Z</time></trkpt><trkpt lat="44.535302909733254" lon="9.446839244332503"><ele>1150.5</ele><time>2026-04-29T14:21:58.999Z</time></trkpt><trkpt lat="44.53539636719459" lon="9.446674957849666"><ele>1149.0</ele><time>2026-04-29T14:21:59.999Z</time></trkpt><trkpt lat="44.535479534410854" lon="9.446527141079194"><ele>1147.5</ele><time>2026-04-29T14:22:00.999Z</time></trkpt><trkpt lat="44.53554632639823" lon="9.446419894392868"><ele>1146.0</ele><time>2026-04-29T14:22:01.999Z</time></trkpt><trkpt lat="44.535623143302594" lon="9.446342535025279"><ele>1146.0</ele><time>2026-04-29T14:22:02.999Z</time></trkpt><trkpt lat="44.53572156382893" lon="9.446279475412679"><ele>1146.0</ele><time>2026-04-29T14:22:03.999Z</time></trkpt><trkpt lat="44.53583399533731" lon="9.446263057961179"><ele>1146.0</ele><time>2026-04-29T14:22:04.999Z</time></trkpt><trkpt lat="44.53594233312552" lon="9.446281261024515"><ele>1146.0</ele><time>2026-04-29T14:22:05.999Z</time></trkpt><trkpt lat="44.536053963629854" lon="9.44632979709069"><ele>1146.0</ele><time>2026-04-29T14:22:06.999Z</time></trkpt><trkpt lat="44.536158986653284" lon="9.446412598847248"><ele>1141.5</ele><time>2026-04-29T14:22:07.999Z</time></trkpt><trkpt lat="44.53624377515808" lon="9.446518643029084"><ele>1137.0</ele><time>2026-04-29T14:22:08.999Z</time></trkpt><trkpt lat="44.536314566727185" lon="9.446635126697984"><ele>1132.5</ele><time>2026-04-29T14:22:09.999Z</time></trkpt><trkpt lat="44.53635916082819" lon="9.446782259294027"><ele>1128.0</ele><time>2026-04-29T14:22:10.999Z</time></trkpt><trkpt lat="44.53639608649095" lon="9.446949975723056"><ele>1128.0</ele><time>2026-04-29T14:22:11.999Z</time></trkpt><trkpt lat="44.536447842251484" lon="9.447121864756772"><ele>1128.0</ele><time>2026-04-29T14:22:12.999Z</time></trkpt><trkpt lat="44.53652119055591" lon="9.447261822960247"><ele>1128.0</ele><time>2026-04-29T14:22:13.999Z</time></trkpt><trkpt lat="44.53660812433992" lon="9.447387384373595"><ele>1128.0</ele><time>2026-04-29T14:22:14.999Z</time></trkpt><trkpt lat="44.536712651987834" lon="9.44750956144979"><ele>1126.3333333333333</ele><time>2026-04-29T14:22:15.999Z</time></trkpt><trkpt lat="44.53683682884893" lon="9.447620414703268"><ele>1124.6666666666665</ele><time>2026-04-29T14:22:16.999Z</time></trkpt><trkpt lat="44.53698653307946" lon="9.447723705156813"><ele>1123.0</ele><time>2026-04-29T14:22:17.999Z</time></trkpt><trkpt lat="44.53715727839541" lon="9.447810747914694"><ele>1123.0</ele><time>2026-04-29T14:22:18.999Z</time></trkpt><trkpt lat="44.53732698280574" lon="9.447904974472076"><ele>1123.0</ele><time>2026-04-29T14:22:19.999Z</time></trkpt><trkpt lat="44.537484079655485" lon="9.447999972609797"><ele>1123.0</ele><time>2026-04-29T14:22:20.999Z</time></trkpt><trkpt lat="44.53761858259218" lon="9.44808135006284"><ele>1125.2</ele><time>2026-04-29T14:22:21.999Z</time></trkpt><trkpt lat="44.53772924367361" lon="9.448142835675291"><ele>1127.4</ele><time>2026-04-29T14:22:22.999Z</time></trkpt><trkpt lat="44.53781531466766" lon="9.448165003351223"><ele>1129.6000000000001</ele><time>2026-04-29T14:22:23.999Z</time></trkpt><trkpt lat="44.53791021923316" lon="9.44816056443441"><ele>1131.8</ele><time>2026-04-29T14:22:24.999Z</time></trkpt><trkpt lat="44.537999814003534" lon="9.448111994082668"><ele>1134.0</ele><time>2026-04-29T14:22:25.999Z</time></trkpt><trkpt lat="44.53808309153709" lon="9.448024161527373"><ele>1129.75</ele><time>2026-04-29T14:22:26.999Z</time></trkpt><trkpt lat="44.53816932386943" lon="9.447902374465544"><ele>1125.5</ele><time>2026-04-29T14:22:27.999Z</time></trkpt><trkpt lat="44.53825084648613" lon="9.447740155048487"><ele>1121.25</ele><time>2026-04-29T14:22:29Z</time></trkpt><trkpt lat="44.538324188887294" lon="9.447588596313407"><ele>1117.0</ele><time>2026-04-29T14:22:30Z</time></trkpt><trkpt lat="44.53840209440375" lon="9.447475075213994"><ele>1117.0</ele><time>2026-04-29T14:22:31Z</time></trkpt><trkpt lat="44.538504294200365" lon="9.44737992429071"><ele>1117.0</ele><time>2026-04-29T14:22:32Z</time></trkpt><trkpt lat="44.53860979694512" lon="9.447313076470824"><ele>1117.0</ele><time>2026-04-29T14:22:33Z</time></trkpt><trkpt lat="44.53870993768872" lon="9.447280437124633"><ele>1117.0</ele><time>2026-04-29T14:22:34Z</time></trkpt><trkpt lat="44.53883066007206" lon="9.447263859856415"><ele>1118.0</ele><time>2026-04-29T14:22:35Z</time></trkpt><trkpt lat="44.538966161604506" lon="9.447263380112402"><ele>1119.0</ele><time>2026-04-29T14:22:36Z</time></trkpt><trkpt lat="44.539106126109644" lon="9.447271098835923"><ele>1120.0</ele><time>2026-04-29T14:22:37Z</time></trkpt><trkpt lat="44.539246656955086" lon="9.44726487975627"><ele>1121.0</ele><time>2026-04-29T14:22:38Z</time></trkpt><trkpt lat="44.53939403456707" lon="9.447222034564128"><ele>1121.0</ele><time>2026-04-29T14:22:39Z</time></trkpt><trkpt lat="44.53954808902803" lon="9.447140886895195"><ele>1121.0</ele><time>2026-04-29T14:22:40Z</time></trkpt><trkpt lat="44.53970418598412" lon="9.447048703203157"><ele>1121.0</ele><time>2026-04-29T14:22:41Z</time></trkpt><trkpt lat="44.539841974742046" lon="9.446991869906265"><ele>1115.6</ele><time>2026-04-29T14:22:42Z</time></trkpt><trkpt lat="44.53995656259366" lon="9.44693499319182"><ele>1110.1999999999998</ele><time>2026-04-29T14:22:43Z</time></trkpt><trkpt lat="44.54005955746916" lon="9.446904407376675"><ele>1104.8000000000002</ele><time>2026-04-29T14:22:44Z</time></trkpt><trkpt lat="44.54016272829266" lon="9.446917869391655"><ele>1099.4</ele><time>2026-04-29T14:22:45Z</time></trkpt><trkpt lat="44.540253578310256" lon="9.446974566276694"><ele>1094.0</ele><time>2026-04-29T14:22:46Z</time></trkpt><trkpt lat="44.54032868225459" lon="9.447077899363792"><ele>1090.25</ele><time>2026-04-29T14:22:47Z</time></trkpt><trkpt lat="44.54040319650225" lon="9.447216484440322"><ele>1086.5</ele><time>2026-04-29T14:22:48Z</time></trkpt><trkpt lat="44.540473778765154" lon="9.447399673513202"><ele>1082.75</ele><time>2026-04-29T14:22:49Z</time></trkpt><trkpt lat="44.54055024066094" lon="9.447608078987953"><ele>1079.0</ele><time>2026-04-29T14:22:50Z</time></trkpt><trkpt lat="44.54063083293074" lon="9.447801541230376"><ele>1083.3333333333335</ele><time>2026-04-29T14:22:51Z</time></trkpt><trkpt lat="44.54070737582061" lon="9.447997713103918"><ele>1087.6666666666667</ele><time>2026-04-29T14:22:52Z</time></trkpt><trkpt lat="44.54078642797368" lon="9.448198044366697"><ele>1092.0</ele><time>2026-04-29T14:22:53Z</time></trkpt><trkpt lat="44.54087169622722" lon="9.448404017456225"><ele>1092.0</ele><time>2026-04-29T14:22:54Z</time></trkpt><trkpt lat="44.54096029189845" lon="9.448617988701537"><ele>1092.0</ele><time>2026-04-29T14:22:55Z</time></trkpt><trkpt lat="44.54104782395639" lon="9.448827019018664"><ele>1092.0</ele><time>2026-04-29T14:22:56Z</time></trkpt><trkpt lat="44.54112300349957" lon="9.449029416821102"><ele>1089.75</ele><time>2026-04-29T14:22:57Z</time></trkpt><trkpt lat="44.541190825439834" lon="9.449230647799217"><ele>1087.5</ele><time>2026-04-29T14:22:58Z</time></trkpt><trkpt lat="44.541241168537674" lon="9.449430132932768"><ele>1085.25</ele><time>2026-04-29T14:22:59Z</time></trkpt><trkpt lat="44.54127354830718" lon="9.449608539188688"><ele>1083.0</ele><time>2026-04-29T14:23:00Z</time></trkpt><trkpt lat="44.5413161313068" lon="9.449746801768715"><ele>1083.0</ele><time>2026-04-29T14:23:01Z</time></trkpt><trkpt lat="44.541365017878796" lon="9.449870691247867"><ele>1083.0</ele><time>2026-04-29T14:23:02Z</time></trkpt><trkpt lat="44.5414546648464" lon="9.449965988702052"><ele>1083.0</ele><time>2026-04-29T14:23:03Z</time></trkpt><trkpt lat="44.541574904537626" lon="9.450063198435187"><ele>1083.0</ele><time>2026-04-29T14:23:04Z</time></trkpt><trkpt lat="44.5417047758059" lon="9.450147567636087"><ele>1083.0</ele><time>2026-04-29T14:23:05Z</time></trkpt><trkpt lat="44.5418195335626" lon="9.450225384150068"><ele>1083.0</ele><time>2026-04-29T14:23:06Z</time></trkpt><trkpt lat="44.54191473023924" lon="9.45029629880226"><ele>1083.0</ele><time>2026-04-29T14:23:07Z</time></trkpt><trkpt lat="44.541996308417154" lon="9.450396399959706"><ele>1083.0</ele><time>2026-04-29T14:23:08Z</time></trkpt><trkpt lat="44.54205451344848" lon="9.45051921586974"><ele>1083.0</ele><time>2026-04-29T14:23:09Z</time></trkpt><trkpt lat="44.54209105611818" lon="9.450660885616427"><ele>1073.6666666666667</ele><time>2026-04-29T14:23:10Z</time></trkpt><trkpt lat="44.542122613699874" lon="9.450837779969635"><ele>1064.3333333333335</ele><time>2026-04-29T14:23:11Z</time></trkpt><trkpt lat="44.54215752567634" lon="9.451047806643073"><ele>1055.0</ele><time>2026-04-29T14:23:12Z</time></trkpt><trkpt lat="44.5422036231971" lon="9.451282104069898"><ele>1059.0</ele><time>2026-04-29T14:23:13Z</time></trkpt><trkpt lat="44.542266697093424" lon="9.451507022144238"><ele>1063.0</ele><time>2026-04-29T14:23:14Z</time></trkpt><trkpt lat="44.54230742307392" lon="9.45172152170149"><ele>1067.0</ele><time>2026-04-29T14:23:15Z</time></trkpt><trkpt lat="44.54237360556535" lon="9.45192360211536"><ele>1067.0</ele><time>2026-04-29T14:23:16Z</time></trkpt><trkpt lat="44.54242370419336" lon="9.452121037561554"><ele>1067.0</ele><time>2026-04-29T14:23:17Z</time></trkpt><trkpt lat="44.54248924234055" lon="9.452294216556412"><ele>1067.0</ele><time>2026-04-29T14:23:18Z</time></trkpt><trkpt lat="44.542574089219194" lon="9.45244576071618"><ele>1067.0</ele><time>2026-04-29T14:23:19Z</time></trkpt><trkpt lat="44.54267114403856" lon="9.452594817185757"><ele>1069.5</ele><time>2026-04-29T14:23:20Z</time></trkpt><trkpt lat="44.54276614337724" lon="9.452753479287965"><ele>1072.0</ele><time>2026-04-29T14:23:21Z</time></trkpt><trkpt lat="44.542856369046774" lon="9.452897596159177"><ele>1074.5</ele><time>2026-04-29T14:23:22Z</time></trkpt><trkpt lat="44.54291749303212" lon="9.453049579038629"><ele>1077.0</ele><time>2026-04-29T14:23:23Z</time></trkpt><trkpt lat="44.5429926155648" lon="9.45318920593432"><ele>1071.0</ele><time>2026-04-29T14:23:24Z</time></trkpt><trkpt lat="44.54304490846647" lon="9.453365554416736"><ele>1065.0</ele><time>2026-04-29T14:23:25Z</time></trkpt><trkpt lat="44.543086431014835" lon="9.453569253809627"><ele>1059.0</ele><time>2026-04-29T14:23:26Z</time></trkpt><trkpt lat="44.543120524546126" lon="9.453785918070944"><ele>1053.0</ele><time>2026-04-29T14:23:27Z</time></trkpt><trkpt lat="44.54315816886652" lon="9.454007467427271"><ele>1053.0</ele><time>2026-04-29T14:23:28Z</time></trkpt><trkpt lat="44.54319397203557" lon="9.454214018540275"><ele>1053.0</ele><time>2026-04-29T14:23:29Z</time></trkpt><trkpt lat="44.543225256073676" lon="9.45441438839311"><ele>1053.0</ele><time>2026-04-29T14:23:30Z</time></trkpt><trkpt lat="44.54324052637186" lon="9.454607714717687"><ele>1053.0</ele><time>2026-04-29T14:23:31Z</time></trkpt><trkpt lat="44.54325049326003" lon="9.454795180534596"><ele>1053.75</ele><time>2026-04-29T14:23:32Z</time></trkpt><trkpt lat="44.54325376796709" lon="9.454971270479007"><ele>1054.5</ele><time>2026-04-29T14:23:33Z</time></trkpt><trkpt lat="44.54326128086518" lon="9.455136612975771"><ele>1055.25</ele><time>2026-04-29T14:23:34Z</time></trkpt><trkpt lat="44.543267659573715" lon="9.45529730006215"><ele>1056.0</ele><time>2026-04-29T14:23:35Z</time></trkpt><trkpt lat="44.54325733276804" lon="9.455450395865594"><ele>1056.2</ele><time>2026-04-29T14:23:36Z</time></trkpt><trkpt lat="44.54328190536676" lon="9.455596779168342"><ele>1056.3999999999999</ele><time>2026-04-29T14:23:37Z</time></trkpt><trkpt lat="44.54329856346196" lon="9.45573224066769"><ele>1056.6</ele><time>2026-04-29T14:23:38Z</time></trkpt><trkpt lat="44.54334384026515" lon="9.455843080805147"><ele>1056.8</ele><time>2026-04-29T14:23:39Z</time></trkpt><trkpt lat="44.54340141899255" lon="9.455942109026282"><ele>1057.0</ele><time>2026-04-29T14:23:40Z</time></trkpt><trkpt lat="44.543472312573876" lon="9.456020785402163"><ele>1057.0</ele><time>2026-04-29T14:23:41Z</time></trkpt><trkpt lat="44.54356323905168" lon="9.456061598768127"><ele>1057.0</ele><time>2026-04-29T14:23:42Z</time></trkpt><trkpt lat="44.54364637938142" lon="9.45610318689369"><ele>1057.0</ele><time>2026-04-29T14:23:43Z</time></trkpt><trkpt lat="44.54372366933645" lon="9.456125586626477"><ele>1057.0</ele><time>2026-04-29T14:23:44Z</time></trkpt><trkpt lat="44.54379641447859" lon="9.456140286045029"><ele>1057.0</ele><time>2026-04-29T14:23:44.999Z</time></trkpt><trkpt lat="44.543865239655055" lon="9.45615212266917"><ele>1057.0</ele><time>2026-04-29T14:23:45.999Z</time></trkpt><trkpt lat="44.543931499865316" lon="9.456170577228846"><ele>1056.8333333333333</ele><time>2026-04-29T14:23:46.999Z</time></trkpt><trkpt lat="44.54399376155937" lon="9.45619405338376"><ele>1056.6666666666665</ele><time>2026-04-29T14:23:47.999Z</time></trkpt><trkpt lat="44.54411142655719" lon="9.456226723621272"><ele>1056.5</ele><time>2026-04-29T14:23:49.999Z</time></trkpt><trkpt lat="44.544186449827116" lon="9.456258624134597"><ele>1056.3333333333333</ele><time>2026-04-29T14:23:51.999Z</time></trkpt><trkpt lat="44.544253865699844" lon="9.45628484416891"><ele>1056.1666666666667</ele><time>2026-04-29T14:23:54.999Z</time></trkpt><trkpt lat="44.54431671725162" lon="9.456297403502488"><ele>1056.0</ele><time>2026-04-29T14:23:57.999Z</time></trkpt><trkpt lat="44.54437996717662" lon="9.45632355957145"><ele>1056.0</ele><time>2026-04-29T14:24:07.999Z</time></trkpt><trkpt lat="44.54446618407425" lon="9.456354614790852"><ele>1056.0</ele><time>2026-04-29T14:24:28.999Z</time></trkpt><trkpt lat="44.54454519608511" lon="9.45639255157055"><ele>1056.0</ele><time>2026-04-29T14:24:29.999Z</time></trkpt><trkpt lat="44.54463916580574" lon="9.456475399379988"><ele>1056.0</ele><time>2026-04-29T14:24:30.999Z</time></trkpt><trkpt lat="44.54472461365649" lon="9.45657465342873"><ele>1056.0</ele><time>2026-04-29T14:24:31.999Z</time></trkpt><trkpt lat="44.54481748457583" lon="9.456689732562461"><ele>1054.25</ele><time>2026-04-29T14:24:32.999Z</time></trkpt><trkpt lat="44.54492883283781" lon="9.456812439536495"><ele>1052.5</ele><time>2026-04-29T14:24:33.999Z</time></trkpt><trkpt lat="44.54502239228458" lon="9.456932035039694"><ele>1050.75</ele><time>2026-04-29T14:24:35Z</time></trkpt><trkpt lat="44.54510227280088" lon="9.457014113545792"><ele>1049.0</ele><time>2026-04-29T14:24:36Z</time></trkpt><trkpt lat="44.54517901759417" lon="9.457103538453394"><ele>1050.2</ele><time>2026-04-29T14:24:37Z</time></trkpt><trkpt lat="44.545257124644266" lon="9.457157746258167"><ele>1051.4</ele><time>2026-04-29T14:24:38Z</time></trkpt><trkpt lat="44.54533362715663" lon="9.457188526709878"><ele>1052.6</ele><time>2026-04-29T14:24:39Z</time></trkpt><trkpt lat="44.54542137428937" lon="9.457200335779552"><ele>1053.8</ele><time>2026-04-29T14:24:40Z</time></trkpt><trkpt lat="44.545515915195395" lon="9.457179613101808"><ele>1055.0</ele><time>2026-04-29T14:24:41Z</time></trkpt><trkpt lat="44.54561915515973" lon="9.457126659167427"><ele>1053.4</ele><time>2026-04-29T14:24:42Z</time></trkpt><trkpt lat="44.54571525003992" lon="9.457050568056596"><ele>1051.8</ele><time>2026-04-29T14:24:43Z</time></trkpt><trkpt lat="44.54579451859079" lon="9.456947863990854"><ele>1050.2</ele><time>2026-04-29T14:24:44Z</time></trkpt><trkpt lat="44.54586135649962" lon="9.456827286668876"><ele>1048.6</ele><time>2026-04-29T14:24:45Z</time></trkpt><trkpt lat="44.545913472722646" lon="9.4566916339401"><ele>1047.0</ele><time>2026-04-29T14:24:46Z</time></trkpt><trkpt lat="44.54593393188711" lon="9.456548573290545"><ele>1047.0</ele><time>2026-04-29T14:24:47Z</time></trkpt><trkpt lat="44.54593654277192" lon="9.456384014301104"><ele>1047.0</ele><time>2026-04-29T14:24:48Z</time></trkpt><trkpt lat="44.54593063835056" lon="9.456191105760967"><ele>1047.0</ele><time>2026-04-29T14:24:49Z</time></trkpt><trkpt lat="44.54593015221727" lon="9.4559846806379"><ele>1047.0</ele><time>2026-04-29T14:24:50Z</time></trkpt><trkpt lat="44.545939952607924" lon="9.455766872659133"><ele>1045.0</ele><time>2026-04-29T14:24:51Z</time></trkpt><trkpt lat="44.54593992445416" lon="9.455533317279734"><ele>1043.0</ele><time>2026-04-29T14:24:52Z</time></trkpt><trkpt lat="44.54594519757164" lon="9.455309612245559"><ele>1041.0</ele><time>2026-04-29T14:24:53Z</time></trkpt><trkpt lat="44.54595104393693" lon="9.455100420716896"><ele>1040.5</ele><time>2026-04-29T14:24:54Z</time></trkpt><trkpt lat="44.54595352978641" lon="9.454898148183483"><ele>1040.0</ele><time>2026-04-29T14:24:55Z</time></trkpt><trkpt lat="44.54595464945094" lon="9.454709041702698"><ele>1039.5</ele><time>2026-04-29T14:24:56Z</time></trkpt><trkpt lat="44.54596320185629" lon="9.454529419562038"><ele>1039.0</ele><time>2026-04-29T14:24:57Z</time></trkpt><trkpt lat="44.54597978994496" lon="9.454361051108343"><ele>1037.75</ele><time>2026-04-29T14:24:58Z</time></trkpt><trkpt lat="44.546012356061425" lon="9.454199414555603"><ele>1036.5</ele><time>2026-04-29T14:24:59Z</time></trkpt><trkpt lat="44.54607446976324" lon="9.454046348441404"><ele>1035.25</ele><time>2026-04-29T14:25:00Z</time></trkpt><trkpt lat="44.54616030860439" lon="9.453868106544638"><ele>1034.0</ele><time>2026-04-29T14:25:01Z</time></trkpt><trkpt lat="44.54627679985058" lon="9.453690265929728"><ele>1034.0</ele><time>2026-04-29T14:25:02Z</time></trkpt><trkpt lat="44.54639034495474" lon="9.453556908760087"><ele>1034.0</ele><time>2026-04-29T14:25:03Z</time></trkpt><trkpt lat="44.54645338307164" lon="9.453445489045063"><ele>1034.0</ele><time>2026-04-29T14:25:04Z</time></trkpt><trkpt lat="44.54654823177202" lon="9.453326747905034"><ele>1034.0</ele><time>2026-04-29T14:25:05Z</time></trkpt><trkpt lat="44.546639386820644" lon="9.453229307169966"><ele>1034.0</ele><time>2026-04-29T14:25:06Z</time></trkpt><trkpt lat="44.546737183981996" lon="9.453156731608882"><ele>1034.0</ele><time>2026-04-29T14:25:07Z</time></trkpt><trkpt lat="44.546848078771625" lon="9.453110844657564"><ele>1034.0</ele><time>2026-04-29T14:25:08Z</time></trkpt><trkpt lat="44.54695568198054" lon="9.453102064094516"><ele>1034.0</ele><time>2026-04-29T14:25:09Z</time></trkpt><trkpt lat="44.547061687646604" lon="9.453090537782387"><ele>1034.0</ele><time>2026-04-29T14:25:10Z</time></trkpt><trkpt lat="44.54716371493049" lon="9.453112312242498"><ele>1033.4</ele><time>2026-04-29T14:25:11Z</time></trkpt><trkpt lat="44.5472575791856" lon="9.4531632771433"><ele>1032.8000000000002</ele><time>2026-04-29T14:25:12Z</time></trkpt><trkpt lat="44.54733691344376" lon="9.453183491803841"><ele>1032.1999999999998</ele><time>2026-04-29T14:25:13Z</time></trkpt><trkpt lat="44.54745694978374" lon="9.45320110071688"><ele>1031.6</ele><time>2026-04-29T14:25:15Z</time></trkpt><trkpt lat="44.54751354437764" lon="9.453129315828681"><ele>1031.0</ele><time>2026-04-29T14:25:16Z</time></trkpt><trkpt lat="44.5475741779345" lon="9.453033499235673"><ele>1028.8</ele><time>2026-04-29T14:25:17Z</time></trkpt><trkpt lat="44.54756676596534" lon="9.45289133055089"><ele>1026.6</ele><time>2026-04-29T14:25:18Z</time></trkpt><trkpt lat="44.54749129157592" lon="9.452794104194826"><ele>1024.4</ele><time>2026-04-29T14:25:19Z</time></trkpt><trkpt lat="44.54736400227758" lon="9.452818079976689"><ele>1022.2</ele><time>2026-04-29T14:25:21Z</time></trkpt><trkpt lat="44.54727191681329" lon="9.452804723151885"><ele>1020.0</ele><time>2026-04-29T14:25:22Z</time></trkpt><trkpt lat="44.54717645962569" lon="9.452789187317203"><ele>1020.0</ele><time>2026-04-29T14:25:23Z</time></trkpt><trkpt lat="44.54709176099305" lon="9.452739665045584"><ele>1020.0</ele><time>2026-04-29T14:25:24Z</time></trkpt><trkpt lat="44.54700547968867" lon="9.45269145472063"><ele>1020.0</ele><time>2026-04-29T14:25:25Z</time></trkpt><trkpt lat="44.546921016885356" lon="9.452657614740074"><ele>1020.0</ele><time>2026-04-29T14:25:26Z</time></trkpt><trkpt lat="44.546820336961424" lon="9.452662797459995"><ele>1020.0</ele><time>2026-04-29T14:25:27Z</time></trkpt><trkpt lat="44.546717573968024" lon="9.452700618237907"><ele>1018.75</ele><time>2026-04-29T14:25:28Z</time></trkpt><trkpt lat="44.54660936262008" lon="9.452762685897664"><ele>1017.5</ele><time>2026-04-29T14:25:29Z</time></trkpt><trkpt lat="44.546498058757926" lon="9.452839645934361"><ele>1016.25</ele><time>2026-04-29T14:25:30Z</time></trkpt><trkpt lat="44.54640103899136" lon="9.452927489192952"><ele>1015.0</ele><time>2026-04-29T14:25:31Z</time></trkpt><trkpt lat="44.54631288077187" lon="9.452984483676955"><ele>1015.2</ele><time>2026-04-29T14:25:32Z</time></trkpt><trkpt lat="44.54623380096952" lon="9.453024978408983"><ele>1015.4</ele><time>2026-04-29T14:25:33Z</time></trkpt><trkpt lat="44.54616031519406" lon="9.453018655387604"><ele>1015.5999999999999</ele><time>2026-04-29T14:25:34Z</time></trkpt><trkpt lat="44.546088340354075" lon="9.452962032273899"><ele>1015.8</ele><time>2026-04-29T14:25:35Z</time></trkpt><trkpt lat="44.54602447756108" lon="9.452855387923973"><ele>1016.0</ele><time>2026-04-29T14:25:36Z</time></trkpt><trkpt lat="44.5459603408521" lon="9.452726824861854"><ele>1016.0</ele><time>2026-04-29T14:25:37Z</time></trkpt><trkpt lat="44.54590254024534" lon="9.452568965182198"><ele>1016.0</ele><time>2026-04-29T14:25:38Z</time></trkpt><trkpt lat="44.545840846037834" lon="9.452390455267809"><ele>1016.0</ele><time>2026-04-29T14:25:39Z</time></trkpt><trkpt lat="44.5457841430748" lon="9.452234679249118"><ele>1016.0</ele><time>2026-04-29T14:25:40Z</time></trkpt><trkpt lat="44.545737741352106" lon="9.45208375937724"><ele>1016.25</ele><time>2026-04-29T14:25:41Z</time></trkpt><trkpt lat="44.5457125450548" lon="9.451923718765517"><ele>1016.5</ele><time>2026-04-29T14:25:42Z</time></trkpt><trkpt lat="44.54572117705626" lon="9.451777555382662"><ele>1016.75</ele><time>2026-04-29T14:25:43Z</time></trkpt><trkpt lat="44.54576398777935" lon="9.451626799021312"><ele>1017.0</ele><time>2026-04-29T14:25:44Z</time></trkpt><trkpt lat="44.545804739392466" lon="9.451451506638993"><ele>1017.0</ele><time>2026-04-29T14:25:45Z</time></trkpt><trkpt lat="44.54583869983725" lon="9.45125695467877"><ele>1017.0</ele><time>2026-04-29T14:25:46Z</time></trkpt><trkpt lat="44.5458591236761" lon="9.451095628034839"><ele>1017.0</ele><time>2026-04-29T14:25:47Z</time></trkpt><trkpt lat="44.54586259461279" lon="9.450942994274666"><ele>1017.0</ele><time>2026-04-29T14:25:48Z</time></trkpt><trkpt lat="44.54583688509509" lon="9.450791197076779"><ele>1017.0</ele><time>2026-04-29T14:25:49Z</time></trkpt><trkpt lat="44.545794705132955" lon="9.450666280661451"><ele>1017.0</ele><time>2026-04-29T14:25:50Z</time></trkpt><trkpt lat="44.54574992482965" lon="9.450545487950265"><ele>1017.0</ele><time>2026-04-29T14:25:51Z</time></trkpt><trkpt lat="44.54570740119515" lon="9.450424452753431"><ele>1017.0</ele><time>2026-04-29T14:25:52Z</time></trkpt><trkpt lat="44.5456745260208" lon="9.45030553839204"><ele>1017.0</ele><time>2026-04-29T14:25:52.999Z</time></trkpt><trkpt lat="44.545638078151875" lon="9.450200026777395"><ele>1017.0</ele><time>2026-04-29T14:25:53.999Z</time></trkpt><trkpt lat="44.54560740013478" lon="9.450099949436082"><ele>1017.0</ele><time>2026-04-29T14:25:54.999Z</time></trkpt><trkpt lat="44.54558357682091" lon="9.45001312927131"><ele>1017.0</ele><time>2026-04-29T14:25:55.999Z</time></trkpt><trkpt lat="44.54555558502686" lon="9.449865399051294"><ele>1017.0</ele><time>2026-04-29T14:25:57.999Z</time></trkpt><trkpt lat="44.54550948364839" lon="9.449799818876"><ele>1017.0</ele><time>2026-04-29T14:25:59.999Z</time></trkpt><trkpt lat="44.54547165961251" lon="9.449699342137292"><ele>1017.0</ele><time>2026-04-29T14:26:03.999Z</time></trkpt><trkpt lat="44.54540566297407" lon="9.449691945007896"><ele>1017.0</ele><time>2026-04-29T14:32:12.999Z</time></trkpt><trkpt lat="44.54546483607262" lon="9.449743296431055"><ele>1017.0</ele><time>2026-04-29T14:35:32Z</time></trkpt><trkpt lat="44.54553024875391" lon="9.449835591077578"><ele>1017.0</ele><time>2026-04-29T14:40:09Z</time></trkpt><trkpt lat="44.54549332737113" lon="9.449758590742492"><ele>1017.0</ele><time>2026-04-29T14:40:20Z</time></trkpt><trkpt lat="44.545435833390485" lon="9.449715700538043"><ele>1017.0</ele><time>2026-04-29T14:40:45Z</time></trkpt><trkpt lat="44.54538018344822" lon="9.449654359321269"><ele>1017.0</ele><time>2026-04-29T14:49:18Z</time></trkpt><trkpt lat="44.54546133231302" lon="9.449739962603797"><ele>1017.0</ele><time>2026-04-29T14:51:06Z</time></trkpt><trkpt lat="44.54540518965928" lon="9.449691565874334"><ele>1017.0</ele><time>2026-04-29T14:51:23Z</time></trkpt><trkpt lat="44.54530390707504" lon="9.4496829055445"><ele>1017.0</ele><time>2026-04-29T14:57:16Z</time></trkpt><trkpt lat="44.54518131354173" lon="9.449681869331483"><ele>1017.0</ele><time>2026-04-29T14:57:18Z</time></trkpt><trkpt lat="44.54511227281473" lon="9.449707849743625"><ele>1017.0</ele><time>2026-04-29T14:57:19Z</time></trkpt><trkpt lat="44.545033722127116" lon="9.449731149656504"><ele>1017.0</ele><time>2026-04-29T14:57:20Z</time></trkpt><trkpt lat="44.54495788998415" lon="9.449799746082435"><ele>1016.4000000000001</ele><time>2026-04-29T14:57:20.999Z</time></trkpt><trkpt lat="44.544895324265156" lon="9.449894177042996"><ele>1015.8000000000001</ele><time>2026-04-29T14:57:21.999Z</time></trkpt><trkpt lat="44.544836400284396" lon="9.450005232427463"><ele>1015.2</ele><time>2026-04-29T14:57:22.999Z</time></trkpt><trkpt lat="44.5447779917054" lon="9.450127520275219"><ele>1014.6</ele><time>2026-04-29T14:57:23.999Z</time></trkpt><trkpt lat="44.54471794765173" lon="9.450257664173812"><ele>1014.0</ele><time>2026-04-29T14:57:24.999Z</time></trkpt><trkpt lat="44.54465452311767" lon="9.450398793239295"><ele>1015.5</ele><time>2026-04-29T14:57:25.999Z</time></trkpt><trkpt lat="44.54458997556049" lon="9.450543109854246"><ele>1017.0</ele><time>2026-04-29T14:57:26.999Z</time></trkpt><trkpt lat="44.54452537715853" lon="9.45068799777858"><ele>1018.5</ele><time>2026-04-29T14:57:27.999Z</time></trkpt><trkpt lat="44.54446625771528" lon="9.450820565870266"><ele>1020.0</ele><time>2026-04-29T14:57:28.999Z</time></trkpt><trkpt lat="44.54441179176392" lon="9.450942698939079"><ele>1018.0</ele><time>2026-04-29T14:57:29.999Z</time></trkpt><trkpt lat="44.544362850439086" lon="9.451041506103813"><ele>1016.0</ele><time>2026-04-29T14:57:30.999Z</time></trkpt><trkpt lat="44.54433282715729" lon="9.451133935071601"><ele>1014.0</ele><time>2026-04-29T14:57:31.999Z</time></trkpt><trkpt lat="44.54426232928311" lon="9.451229650727447"><ele>1012.0</ele><time>2026-04-29T14:57:33.999Z</time></trkpt><trkpt lat="44.54420858416162" lon="9.451279439117958"><ele>1010.0</ele><time>2026-04-29T14:57:35.999Z</time></trkpt><trkpt lat="44.544125077284896" lon="9.451287500701223"><ele>1008.0</ele><time>2026-04-29T14:57:37.999Z</time></trkpt><trkpt lat="44.544041086699636" lon="9.451252826770848"><ele>1008.0</ele><time>2026-04-29T14:57:39.999Z</time></trkpt><trkpt lat="44.54394249475106" lon="9.451175575111787"><ele>1008.0</ele><time>2026-04-29T14:57:41.999Z</time></trkpt><trkpt lat="44.5438893885003" lon="9.451098923904867"><ele>1008.0</ele><time>2026-04-29T14:57:42.999Z</time></trkpt><trkpt lat="44.54383128514746" lon="9.45101287494786"><ele>1008.0</ele><time>2026-04-29T14:57:43.999Z</time></trkpt><trkpt lat="44.54376524224744" lon="9.450921375459844"><ele>1008.0</ele><time>2026-04-29T14:57:44.999Z</time></trkpt><trkpt lat="44.54368992553837" lon="9.45081331591867"><ele>1008.75</ele><time>2026-04-29T14:57:45.999Z</time></trkpt><trkpt lat="44.54360642864833" lon="9.450688085950517"><ele>1009.5</ele><time>2026-04-29T14:57:46.999Z</time></trkpt><trkpt lat="44.54351733485786" lon="9.450561106877819"><ele>1010.25</ele><time>2026-04-29T14:57:47.999Z</time></trkpt><trkpt lat="44.54343500984157" lon="9.450433024775972"><ele>1011.0</ele><time>2026-04-29T14:57:48.999Z</time></trkpt><trkpt lat="44.543361877200276" lon="9.450301470709743"><ele>1011.0</ele><time>2026-04-29T14:57:49.999Z</time></trkpt><trkpt lat="44.54330738992911" lon="9.450154522906896"><ele>1011.0</ele><time>2026-04-29T14:57:50.999Z</time></trkpt><trkpt lat="44.54326931935183" lon="9.449989300234561"><ele>1011.0</ele><time>2026-04-29T14:57:51.999Z</time></trkpt><trkpt lat="44.54322165046369" lon="9.449810609079517"><ele>1011.0</ele><time>2026-04-29T14:57:52.999Z</time></trkpt><trkpt lat="44.543185652478606" lon="9.449641427671367"><ele>1007.75</ele><time>2026-04-29T14:57:53.999Z</time></trkpt><trkpt lat="44.54314217129465" lon="9.449492223291866"><ele>1004.5</ele><time>2026-04-29T14:57:54.999Z</time></trkpt><trkpt lat="44.543075253219406" lon="9.449347563790376"><ele>1001.25</ele><time>2026-04-29T14:57:55.999Z</time></trkpt><trkpt lat="44.542986739387224" lon="9.44919519731228"><ele>998.0</ele><time>2026-04-29T14:57:56.999Z</time></trkpt><trkpt lat="44.54287291060708" lon="9.449045900321206"><ele>1001.75</ele><time>2026-04-29T14:57:57.999Z</time></trkpt><trkpt lat="44.542755788209575" lon="9.448904966280509"><ele>1005.5</ele><time>2026-04-29T14:57:58.999Z</time></trkpt><trkpt lat="44.54265578920213" lon="9.448770404028389"><ele>1009.25</ele><time>2026-04-29T14:57:59.999Z</time></trkpt><trkpt lat="44.54256991596495" lon="9.448656852955745"><ele>1013.0</ele><time>2026-04-29T14:58:00.999Z</time></trkpt><trkpt lat="44.542514142900686" lon="9.448581047395047"><ele>1013.0</ele><time>2026-04-29T14:58:01.999Z</time></trkpt><trkpt lat="44.542477758170726" lon="9.44848831688424"><ele>1013.0</ele><time>2026-04-29T14:58:02.999Z</time></trkpt><trkpt lat="44.54245991092824" lon="9.448350888448006"><ele>1013.0</ele><time>2026-04-29T14:58:03.999Z</time></trkpt><trkpt lat="44.54246634984401" lon="9.448189256634207"><ele>1013.0</ele><time>2026-04-29T14:58:04.999Z</time></trkpt><trkpt lat="44.542462658538135" lon="9.448042536404817"><ele>1013.0</ele><time>2026-04-29T14:58:05.999Z</time></trkpt><trkpt lat="44.54242972743868" lon="9.447905301742903"><ele>1010.4</ele><time>2026-04-29T14:58:06.999Z</time></trkpt><trkpt lat="44.54236557713453" lon="9.447767636601077"><ele>1007.8</ele><time>2026-04-29T14:58:07.999Z</time></trkpt><trkpt lat="44.54229145744999" lon="9.447646787846423"><ele>1005.2</ele><time>2026-04-29T14:58:08.999Z</time></trkpt><trkpt lat="44.5422330331131" lon="9.447527856718029"><ele>1002.6</ele><time>2026-04-29T14:58:09.999Z</time></trkpt><trkpt lat="44.54220931215376" lon="9.447398311677683"><ele>1000.0</ele><time>2026-04-29T14:58:11Z</time></trkpt><trkpt lat="44.54221292402043" lon="9.447250840340777"><ele>997.6</ele><time>2026-04-29T14:58:12Z</time></trkpt><trkpt lat="44.54219404349088" lon="9.447114333529896"><ele>995.2</ele><time>2026-04-29T14:58:13Z</time></trkpt><trkpt lat="44.542149752799375" lon="9.446981160647928"><ele>992.8</ele><time>2026-04-29T14:58:14Z</time></trkpt><trkpt lat="44.54207223524386" lon="9.446853350107826"><ele>990.4</ele><time>2026-04-29T14:58:15Z</time></trkpt><trkpt lat="44.541972723873265" lon="9.446757079019047"><ele>988.0</ele><time>2026-04-29T14:58:16Z</time></trkpt><trkpt lat="44.54184583420799" lon="9.446634781974167"><ele>990.0</ele><time>2026-04-29T14:58:17Z</time></trkpt><trkpt lat="44.54172698706039" lon="9.446523073852383"><ele>992.0</ele><time>2026-04-29T14:58:18Z</time></trkpt><trkpt lat="44.541639744877536" lon="9.446413837145808"><ele>994.0</ele><time>2026-04-29T14:58:19Z</time></trkpt><trkpt lat="44.54156624306268" lon="9.446265785806474"><ele>996.0</ele><time>2026-04-29T14:58:20Z</time></trkpt><trkpt lat="44.541499220330586" lon="9.446083185880935"><ele>996.0</ele><time>2026-04-29T14:58:21Z</time></trkpt><trkpt lat="44.5414298823071" lon="9.44590253237275"><ele>996.0</ele><time>2026-04-29T14:58:22Z</time></trkpt><trkpt lat="44.54134564467316" lon="9.445732239961151"><ele>996.0</ele><time>2026-04-29T14:58:23Z</time></trkpt><trkpt lat="44.5412518577405" lon="9.4455664956612"><ele>996.0</ele><time>2026-04-29T14:58:24Z</time></trkpt><trkpt lat="44.54116246563479" lon="9.44538770950594"><ele>1002.3333333333333</ele><time>2026-04-29T14:58:25Z</time></trkpt><trkpt lat="44.54107003691713" lon="9.445214636536045"><ele>1008.6666666666666</ele><time>2026-04-29T14:58:26Z</time></trkpt><trkpt lat="44.540984712259416" lon="9.445041216038355"><ele>1015.0</ele><time>2026-04-29T14:58:27Z</time></trkpt><trkpt lat="44.54090671537105" lon="9.4448646059298"><ele>1015.0</ele><time>2026-04-29T14:58:28Z</time></trkpt><trkpt lat="44.5408319534783" lon="9.444701874995589"><ele>1015.0</ele><time>2026-04-29T14:58:29Z</time></trkpt><trkpt lat="44.54075331671695" lon="9.4445520238595"><ele>1015.0</ele><time>2026-04-29T14:58:30Z</time></trkpt><trkpt lat="44.540689541546826" lon="9.444418076264734"><ele>1015.0</ele><time>2026-04-29T14:58:31Z</time></trkpt><trkpt lat="44.54064045393295" lon="9.444280959576469"><ele>1009.75</ele><time>2026-04-29T14:58:32Z</time></trkpt><trkpt lat="44.54060356539104" lon="9.44412802958373"><ele>1004.5</ele><time>2026-04-29T14:58:33Z</time></trkpt><trkpt lat="44.54057499517572" lon="9.443954013122847"><ele>999.25</ele><time>2026-04-29T14:58:34Z</time></trkpt><trkpt lat="44.54055781854791" lon="9.443795161987927"><ele>994.0</ele><time>2026-04-29T14:58:35Z</time></trkpt><trkpt lat="44.54053298086215" lon="9.443644057083574"><ele>992.0</ele><time>2026-04-29T14:58:36Z</time></trkpt><trkpt lat="44.54049281407674" lon="9.443513898813148"><ele>990.0000000000001</ele><time>2026-04-29T14:58:37Z</time></trkpt><trkpt lat="44.54043233308452" lon="9.443408793661408"><ele>988.0000000000001</ele><time>2026-04-29T14:58:38Z</time></trkpt><trkpt lat="44.54034610145858" lon="9.44332944758329"><ele>986.0</ele><time>2026-04-29T14:58:39Z</time></trkpt><trkpt lat="44.540243356615534" lon="9.443282516002695"><ele>984.0</ele><time>2026-04-29T14:58:40Z</time></trkpt><trkpt lat="44.54012782707394" lon="9.443264083282799"><ele>989.25</ele><time>2026-04-29T14:58:41Z</time></trkpt><trkpt lat="44.53999921823874" lon="9.443234033073248"><ele>994.5</ele><time>2026-04-29T14:58:42Z</time></trkpt><trkpt lat="44.53986992770282" lon="9.443235987057827"><ele>999.75</ele><time>2026-04-29T14:58:43Z</time></trkpt><trkpt lat="44.53974417036375" lon="9.443247276345023"><ele>1005.0</ele><time>2026-04-29T14:58:44Z</time></trkpt><trkpt lat="44.539625783458625" lon="9.443307934855202"><ele>1004.4</ele><time>2026-04-29T14:58:45Z</time></trkpt><trkpt lat="44.539518488253755" lon="9.443358109655914"><ele>1003.8</ele><time>2026-04-29T14:58:46Z</time></trkpt><trkpt lat="44.53941883626365" lon="9.443410762467089"><ele>1003.2</ele><time>2026-04-29T14:58:47Z</time></trkpt><trkpt lat="44.539322079542494" lon="9.443448867870996"><ele>1002.6</ele><time>2026-04-29T14:58:48Z</time></trkpt><trkpt lat="44.53922976239306" lon="9.443432116350673"><ele>1002.0</ele><time>2026-04-29T14:58:49Z</time></trkpt><trkpt lat="44.53914066152039" lon="9.443422936716669"><ele>1002.0</ele><time>2026-04-29T14:58:50Z</time></trkpt><trkpt lat="44.53903961032986" lon="9.443383267706778"><ele>1002.0</ele><time>2026-04-29T14:58:51Z</time></trkpt><trkpt lat="44.53893281027485" lon="9.443336375150452"><ele>1002.0</ele><time>2026-04-29T14:58:52Z</time></trkpt><trkpt lat="44.538817305737666" lon="9.443284063894422"><ele>1002.0</ele><time>2026-04-29T14:58:53Z</time></trkpt><trkpt lat="44.53870586423757" lon="9.443233198673887"><ele>1002.8</ele><time>2026-04-29T14:58:54Z</time></trkpt><trkpt lat="44.53859608612796" lon="9.443183168065822"><ele>1003.6</ele><time>2026-04-29T14:58:55Z</time></trkpt><trkpt lat="44.53850094299802" lon="9.443139807288308"><ele>1004.3999999999999</ele><time>2026-04-29T14:58:56Z</time></trkpt><trkpt lat="44.53840707461184" lon="9.443100043928569"><ele>1005.1999999999999</ele><time>2026-04-29T14:58:57Z</time></trkpt><trkpt lat="44.53831461836064" lon="9.443080078822533"><ele>1006.0</ele><time>2026-04-29T14:58:58Z</time></trkpt><trkpt lat="44.53823489993173" lon="9.443025716535548"><ele>1005.9999999999999</ele><time>2026-04-29T14:58:59Z</time></trkpt><trkpt lat="44.53816667960856" lon="9.442997723370778"><ele>1006.0</ele><time>2026-04-29T14:59:00Z</time></trkpt><trkpt lat="44.53812576565207" lon="9.442915890514772"><ele>1006.0</ele><time>2026-04-29T14:59:01Z</time></trkpt><trkpt lat="44.53809758116308" lon="9.442806040108865"><ele>1006.0</ele><time>2026-04-29T14:59:02Z</time></trkpt><trkpt lat="44.53809609258119" lon="9.442684772789686"><ele>1005.9999999999999</ele><time>2026-04-29T14:59:03Z</time></trkpt><trkpt lat="44.53810379963411" lon="9.442552405306731"><ele>1006.0</ele><time>2026-04-29T14:59:04Z</time></trkpt><trkpt lat="44.53812031681774" lon="9.442408733907085"><ele>1002.0</ele><time>2026-04-29T14:59:05Z</time></trkpt><trkpt lat="44.5381345564002" lon="9.44225548887848"><ele>998.0</ele><time>2026-04-29T14:59:06Z</time></trkpt><trkpt lat="44.53812703184132" lon="9.442094293422802"><ele>994.0</ele><time>2026-04-29T14:59:07Z</time></trkpt><trkpt lat="44.53809976800886" lon="9.4419334130105"><ele>990.0</ele><time>2026-04-29T14:59:08Z</time></trkpt><trkpt lat="44.538050792767" lon="9.44178482736675"><ele>990.4</ele><time>2026-04-29T14:59:09Z</time></trkpt><trkpt lat="44.53799623672622" lon="9.441630154387687"><ele>990.8</ele><time>2026-04-29T14:59:10Z</time></trkpt><trkpt lat="44.53794570207376" lon="9.441471816622757"><ele>991.2</ele><time>2026-04-29T14:59:10.999Z</time></trkpt><trkpt lat="44.53791229106021" lon="9.441321478141791"><ele>991.6</ele><time>2026-04-29T14:59:11.999Z</time></trkpt><trkpt lat="44.53786889349437" lon="9.441212397056608"><ele>992.0</ele><time>2026-04-29T14:59:12.999Z</time></trkpt><trkpt lat="44.53781725632005" lon="9.441127286933428"><ele>992.0</ele><time>2026-04-29T14:59:13.999Z</time></trkpt><trkpt lat="44.53777229743824" lon="9.44104267452599"><ele>992.0000000000001</ele><time>2026-04-29T14:59:14.999Z</time></trkpt><trkpt lat="44.537713181275706" lon="9.440993403236845"><ele>992.0</ele><time>2026-04-29T14:59:15.999Z</time></trkpt><trkpt lat="44.53765102490303" lon="9.44096831771121"><ele>992.0</ele><time>2026-04-29T14:59:16.999Z</time></trkpt><trkpt lat="44.53758599225055" lon="9.440954099630021"><ele>992.0000000000001</ele><time>2026-04-29T14:59:17.999Z</time></trkpt><trkpt lat="44.53752259825495" lon="9.440939520983946"><ele>992.0</ele><time>2026-04-29T14:59:18.999Z</time></trkpt><trkpt lat="44.53745979974209" lon="9.44092507935342"><ele>992.0</ele><time>2026-04-29T14:59:19.999Z</time></trkpt><trkpt lat="44.537397708435535" lon="9.44090713961632"><ele>992.0</ele><time>2026-04-29T14:59:20.999Z</time></trkpt><trkpt lat="44.53728250909454" lon="9.44088005149658"><ele>992.0</ele><time>2026-04-29T14:59:22.999Z</time></trkpt><trkpt lat="44.537232456792935" lon="9.440811429816007"><ele>992.0</ele><time>2026-04-29T14:59:23.999Z</time></trkpt><trkpt lat="44.537188651989354" lon="9.440695564209676"><ele>992.0</ele><time>2026-04-29T14:59:24.999Z</time></trkpt><trkpt lat="44.5371494762094" lon="9.440540185289729"><ele>992.0</ele><time>2026-04-29T14:59:25.999Z</time></trkpt><trkpt lat="44.537108013502326" lon="9.440376823663133"><ele>995.75</ele><time>2026-04-29T14:59:26.999Z</time></trkpt><trkpt lat="44.53704762411224" lon="9.44019050978152"><ele>999.5</ele><time>2026-04-29T14:59:27.999Z</time></trkpt><trkpt lat="44.53697141382525" lon="9.440007346908216"><ele>1003.25</ele><time>2026-04-29T14:59:28.999Z</time></trkpt><trkpt lat="44.536892685676726" lon="9.43985815063074"><ele>1007.0</ele><time>2026-04-29T14:59:29.999Z</time></trkpt><trkpt lat="44.53684567256811" lon="9.4397515572805"><ele>1003.0</ele><time>2026-04-29T14:59:30.999Z</time></trkpt><trkpt lat="44.536790911187936" lon="9.439626354814404"><ele>999.0</ele><time>2026-04-29T14:59:31.999Z</time></trkpt><trkpt lat="44.53675092505117" lon="9.439488709108122"><ele>995.0</ele><time>2026-04-29T14:59:32.999Z</time></trkpt><trkpt lat="44.53674241161317" lon="9.439328727551874"><ele>991.0</ele><time>2026-04-29T14:59:33.999Z</time></trkpt><trkpt lat="44.53675220405705" lon="9.439145778706097"><ele>991.0</ele><time>2026-04-29T14:59:34.999Z</time></trkpt><trkpt lat="44.53675897972157" lon="9.438956107472325"><ele>991.0</ele><time>2026-04-29T14:59:35.999Z</time></trkpt><trkpt lat="44.53675698673896" lon="9.438776824457774"><ele>991.0</ele><time>2026-04-29T14:59:36.999Z</time></trkpt><trkpt lat="44.53674051241911" lon="9.438612053666288"><ele>991.0</ele><time>2026-04-29T14:59:37.999Z</time></trkpt><trkpt lat="44.53670063654222" lon="9.438458393176814"><ele>989.5</ele><time>2026-04-29T14:59:38.999Z</time></trkpt><trkpt lat="44.536649178718655" lon="9.438287008095985"><ele>988.0</ele><time>2026-04-29T14:59:39.999Z</time></trkpt><trkpt lat="44.53661607368402" lon="9.438159585673882"><ele>986.5</ele><time>2026-04-29T14:59:40.999Z</time></trkpt><trkpt lat="44.536607223287234" lon="9.438015864330463"><ele>985.0</ele><time>2026-04-29T14:59:41.999Z</time></trkpt><trkpt lat="44.53661330481792" lon="9.437851272966745"><ele>983.4</ele><time>2026-04-29T14:59:42.999Z</time></trkpt><trkpt lat="44.53661504954211" lon="9.437695763967412"><ele>981.8</ele><time>2026-04-29T14:59:43.999Z</time></trkpt><trkpt lat="44.536611095938866" lon="9.437550572199562"><ele>980.2</ele><time>2026-04-29T14:59:44.999Z</time></trkpt><trkpt lat="44.53658368816553" lon="9.437416872227212"><ele>978.6</ele><time>2026-04-29T14:59:45.999Z</time></trkpt><trkpt lat="44.53653847628741" lon="9.437299917751343"><ele>977.0</ele><time>2026-04-29T14:59:46.999Z</time></trkpt><trkpt lat="44.53648168812466" lon="9.437206091219739"><ele>977.0</ele><time>2026-04-29T14:59:47.999Z</time></trkpt><trkpt lat="44.53640379663635" lon="9.437154289430707"><ele>977.0</ele><time>2026-04-29T14:59:48.999Z</time></trkpt><trkpt lat="44.536317689971966" lon="9.43711303903614"><ele>977.0</ele><time>2026-04-29T14:59:49.999Z</time></trkpt><trkpt lat="44.53621104293671" lon="9.437107130024707"><ele>977.0</ele><time>2026-04-29T14:59:50.999Z</time></trkpt><trkpt lat="44.53610147312458" lon="9.437100786963825"><ele>977.0</ele><time>2026-04-29T14:59:51.999Z</time></trkpt><trkpt lat="44.53599543159558" lon="9.43711001907194"><ele>977.0</ele><time>2026-04-29T14:59:52.999Z</time></trkpt><trkpt lat="44.5359011214494" lon="9.4370612420946"><ele>977.0</ele><time>2026-04-29T14:59:53.999Z</time></trkpt><trkpt lat="44.53582984799594" lon="9.436965581488717"><ele>977.0</ele><time>2026-04-29T14:59:54.999Z</time></trkpt><trkpt lat="44.53575956729422" lon="9.43688404589157"><ele>977.0</ele><time>2026-04-29T14:59:55.999Z</time></trkpt><trkpt lat="44.53572229077569" lon="9.436761879728824"><ele>977.0</ele><time>2026-04-29T14:59:56.999Z</time></trkpt><trkpt lat="44.53571497494966" lon="9.436628730331934"><ele>977.0</ele><time>2026-04-29T14:59:57.999Z</time></trkpt><trkpt lat="44.53572799555047" lon="9.436480192115864"><ele>977.0</ele><time>2026-04-29T14:59:58.999Z</time></trkpt><trkpt lat="44.53576059829041" lon="9.436321098640432"><ele>977.0</ele><time>2026-04-29T14:59:59.999Z</time></trkpt><trkpt lat="44.53581455320416" lon="9.436154368764301"><ele>977.0</ele><time>2026-04-29T15:00:00.999Z</time></trkpt><trkpt lat="44.53587676118073" lon="9.435973830462094"><ele>975.4000000000001</ele><time>2026-04-29T15:00:01.999Z</time></trkpt><trkpt lat="44.53593292901424" lon="9.435808846436762"><ele>973.8000000000001</ele><time>2026-04-29T15:00:02.999Z</time></trkpt><trkpt lat="44.53596463584069" lon="9.435678517976324"><ele>972.2</ele><time>2026-04-29T15:00:03.999Z</time></trkpt><trkpt lat="44.53597236190138" lon="9.435547947902649"><ele>970.6</ele><time>2026-04-29T15:00:04.999Z</time></trkpt><trkpt lat="44.53594695945031" lon="9.435417182164018"><ele>969.0</ele><time>2026-04-29T15:00:05.999Z</time></trkpt><trkpt lat="44.53588963100315" lon="9.435281340226886"><ele>966.5</ele><time>2026-04-29T15:00:06.999Z</time></trkpt><trkpt lat="44.535829190810944" lon="9.435131184153352"><ele>964.0</ele><time>2026-04-29T15:00:07.999Z</time></trkpt><trkpt lat="44.53576398088852" lon="9.434952952405068"><ele>961.5</ele><time>2026-04-29T15:00:08.999Z</time></trkpt><trkpt lat="44.5356945060267" lon="9.434769443388442"><ele>959.0</ele><time>2026-04-29T15:00:09.999Z</time></trkpt><trkpt lat="44.53563230478488" lon="9.434586025045679"><ele>955.5</ele><time>2026-04-29T15:00:10.999Z</time></trkpt><trkpt lat="44.53559378500269" lon="9.434410439326882"><ele>952.0</ele><time>2026-04-29T15:00:11.999Z</time></trkpt><trkpt lat="44.53556262942429" lon="9.434257382387353"><ele>948.5</ele><time>2026-04-29T15:00:12.999Z</time></trkpt><trkpt lat="44.535543415374356" lon="9.43409384737609"><ele>945.0</ele><time>2026-04-29T15:00:13.999Z</time></trkpt><trkpt lat="44.535549437901246" lon="9.433928308795606"><ele>946.2</ele><time>2026-04-29T15:00:14.999Z</time></trkpt><trkpt lat="44.535544124951834" lon="9.43377810872531"><ele>947.4</ele><time>2026-04-29T15:00:15.999Z</time></trkpt><trkpt lat="44.53551846819404" lon="9.43363645175033"><ele>948.5999999999999</ele><time>2026-04-29T15:00:17Z</time></trkpt><trkpt lat="44.535470366983795" lon="9.43351226060145"><ele>949.8</ele><time>2026-04-29T15:00:18Z</time></trkpt><trkpt lat="44.535410116126776" lon="9.433388301939852"><ele>951.0</ele><time>2026-04-29T15:00:19Z</time></trkpt><trkpt lat="44.53529945260547" lon="9.433343978920345"><ele>951.0</ele><time>2026-04-29T15:00:20Z</time></trkpt><trkpt lat="44.53519512746222" lon="9.433318651801455"><ele>951.0</ele><time>2026-04-29T15:00:21Z</time></trkpt><trkpt lat="44.53506673886394" lon="9.433298571946331"><ele>951.0</ele><time>2026-04-29T15:00:22Z</time></trkpt><trkpt lat="44.534926015329695" lon="9.433317376372463"><ele>951.0</ele><time>2026-04-29T15:00:23Z</time></trkpt><trkpt lat="44.53479421697922" lon="9.433332335832235"><ele>951.0</ele><time>2026-04-29T15:00:24Z</time></trkpt><trkpt lat="44.534684051506694" lon="9.433344929528053"><ele>950.9999999999999</ele><time>2026-04-29T15:00:25Z</time></trkpt><trkpt lat="44.53458163547437" lon="9.433343055858735"><ele>950.9999999999999</ele><time>2026-04-29T15:00:26Z</time></trkpt><trkpt lat="44.53448599897475" lon="9.43332506066384"><ele>951.0</ele><time>2026-04-29T15:00:27Z</time></trkpt><trkpt lat="44.534412757342714" lon="9.433242931657018"><ele>951.0</ele><time>2026-04-29T15:00:28Z</time></trkpt><trkpt lat="44.5343422508649" lon="9.433128680787423"><ele>951.5</ele><time>2026-04-29T15:00:29Z</time></trkpt><trkpt lat="44.534274204917445" lon="9.432975232953282"><ele>952.0</ele><time>2026-04-29T15:00:30Z</time></trkpt><trkpt lat="44.53421420761804" lon="9.432818772628297"><ele>952.5</ele><time>2026-04-29T15:00:31Z</time></trkpt><trkpt lat="44.53415228345505" lon="9.432678106960786"><ele>953.0</ele><time>2026-04-29T15:00:32Z</time></trkpt><trkpt lat="44.53408775295158" lon="9.432552958246836"><ele>949.8</ele><time>2026-04-29T15:00:33Z</time></trkpt><trkpt lat="44.53402059225294" lon="9.432466120297812"><ele>946.5999999999999</ele><time>2026-04-29T15:00:34Z</time></trkpt><trkpt lat="44.5339365836706" lon="9.432410003618836"><ele>943.4000000000001</ele><time>2026-04-29T15:00:35Z</time></trkpt><trkpt lat="44.53384408900397" lon="9.43239616983629"><ele>940.2</ele><time>2026-04-29T15:00:36Z</time></trkpt><trkpt lat="44.533748913574385" lon="9.432390292504598"><ele>937.0</ele><time>2026-04-29T15:00:37Z</time></trkpt><trkpt lat="44.53365207377883" lon="9.432445970582108"><ele>935.8</ele><time>2026-04-29T15:00:38Z</time></trkpt><trkpt lat="44.53356909598355" lon="9.432531886639586"><ele>934.6</ele><time>2026-04-29T15:00:39Z</time></trkpt><trkpt lat="44.53348939222041" lon="9.43261519721389"><ele>933.3999999999999</ele><time>2026-04-29T15:00:40Z</time></trkpt><trkpt lat="44.53340841277959" lon="9.432679824514203"><ele>932.1999999999999</ele><time>2026-04-29T15:00:41Z</time></trkpt><trkpt lat="44.533340593918055" lon="9.432727969667113"><ele>931.0</ele><time>2026-04-29T15:00:42Z</time></trkpt><trkpt lat="44.53321840756664" lon="9.432752759438621"><ele>930.9999999999999</ele><time>2026-04-29T15:00:44Z</time></trkpt><trkpt lat="44.53312138852851" lon="9.432749386840785"><ele>931.0</ele><time>2026-04-29T15:00:46Z</time></trkpt><trkpt lat="44.5331521174525" lon="9.432638970691043"><ele>931.0</ele><time>2026-04-29T15:00:51Z</time></trkpt><trkpt lat="44.53320161040649" lon="9.432581589471646"><ele>931.0</ele><time>2026-04-29T15:00:52Z</time></trkpt><trkpt lat="44.5332611460555" lon="9.432527885403442"><ele>930.9999999999999</ele><time>2026-04-29T15:00:53Z</time></trkpt><trkpt lat="44.533312456029286" lon="9.43244516951707"><ele>931.0</ele><time>2026-04-29T15:00:54Z</time></trkpt><trkpt lat="44.53336531471351" lon="9.432355890261938"><ele>931.0</ele><time>2026-04-29T15:00:55Z</time></trkpt><trkpt lat="44.53342034008874" lon="9.43224678370935"><ele>930.9999999999999</ele><time>2026-04-29T15:00:56Z</time></trkpt><trkpt lat="44.53348114385549" lon="9.432125839043131"><ele>930.9999999999999</ele><time>2026-04-29T15:00:57Z</time></trkpt><trkpt lat="44.53354504727474" lon="9.43200498438766"><ele>931.0</ele><time>2026-04-29T15:00:58Z</time></trkpt><trkpt lat="44.53361212757835" lon="9.43188343696936"><ele>931.0</ele><time>2026-04-29T15:00:59Z</time></trkpt><trkpt lat="44.53367777674654" lon="9.431772565447611"><ele>928.8333333333333</ele><time>2026-04-29T15:01:00Z</time></trkpt><trkpt lat="44.53374312414479" lon="9.431666846494881"><ele>926.6666666666666</ele><time>2026-04-29T15:01:01Z</time></trkpt><trkpt lat="44.533806225080795" lon="9.431565058746262"><ele>924.5</ele><time>2026-04-29T15:01:02Z</time></trkpt><trkpt lat="44.533866063081916" lon="9.431471039314234"><ele>922.3333333333333</ele><time>2026-04-29T15:01:03Z</time></trkpt><trkpt lat="44.53391486415599" lon="9.431391220792683"><ele>920.1666666666666</ele><time>2026-04-29T15:01:04Z</time></trkpt><trkpt lat="44.53395192466643" lon="9.431307591643453"><ele>918.0</ele><time>2026-04-29T15:01:05Z</time></trkpt><trkpt lat="44.533979727683466" lon="9.431211249471529"><ele>916.3333333333334</ele><time>2026-04-29T15:01:06Z</time></trkpt><trkpt lat="44.533938875412986" lon="9.431096823894315"><ele>914.6666666666667</ele><time>2026-04-29T15:01:07Z</time></trkpt><trkpt lat="44.53390764805626" lon="9.430990270697775"><ele>913.0</ele><time>2026-04-29T15:01:08Z</time></trkpt><trkpt lat="44.53386191628189" lon="9.430894153818812"><ele>911.3333333333334</ele><time>2026-04-29T15:01:09Z</time></trkpt><trkpt lat="44.533819563982526" lon="9.430809771255621"><ele>909.6666666666667</ele><time>2026-04-29T15:01:09.999Z</time></trkpt><trkpt lat="44.533783309950614" lon="9.430653120374025"><ele>908.0</ele><time>2026-04-29T15:01:11.999Z</time></trkpt><trkpt lat="44.53383305048465" lon="9.430560159530808"><ele>908.0</ele><time>2026-04-29T15:01:12.999Z</time></trkpt><trkpt lat="44.5339059607055" lon="9.430501593460185"><ele>908.0</ele><time>2026-04-29T15:01:13.999Z</time></trkpt><trkpt lat="44.53399805800048" lon="9.43048719921459"><ele>908.0</ele><time>2026-04-29T15:01:14.999Z</time></trkpt><trkpt lat="44.53410132511035" lon="9.430467423629599"><ele>908.0</ele><time>2026-04-29T15:01:15.999Z</time></trkpt><trkpt lat="44.53419468409479" lon="9.430437411573806"><ele>908.0</ele><time>2026-04-29T15:01:16.999Z</time></trkpt><trkpt lat="44.53427042622322" lon="9.430404029954623"><ele>906.5000000000001</ele><time>2026-04-29T15:01:17.999Z</time></trkpt><trkpt lat="44.53433370020138" lon="9.430339528520294"><ele>905.0</ele><time>2026-04-29T15:01:18.999Z</time></trkpt><trkpt lat="44.53437946030332" lon="9.430245167270023"><ele>903.5</ele><time>2026-04-29T15:01:19.999Z</time></trkpt><trkpt lat="44.53440104075708" lon="9.430130301109191"><ele>902.0</ele><time>2026-04-29T15:01:20.999Z</time></trkpt><trkpt lat="44.534404463118655" lon="9.430000969623977"><ele>900.5000000000001</ele><time>2026-04-29T15:01:21.999Z</time></trkpt><trkpt lat="44.53438805456858" lon="9.429879024945484"><ele>899.0</ele><time>2026-04-29T15:01:22.999Z</time></trkpt><trkpt lat="44.53436208977957" lon="9.429758445967892"><ele>899.0</ele><time>2026-04-29T15:01:23.999Z</time></trkpt><trkpt lat="44.53428996210672" lon="9.429664558155586"><ele>899.0</ele><time>2026-04-29T15:01:24.999Z</time></trkpt><trkpt lat="44.534195013110946" lon="9.429578271865259"><ele>899.0</ele><time>2026-04-29T15:01:25.999Z</time></trkpt><trkpt lat="44.5340892327636" lon="9.429480281088965"><ele>899.0</ele><time>2026-04-29T15:01:26.999Z</time></trkpt><trkpt lat="44.533983025636154" lon="9.429381895195206"><ele>897.8000000000001</ele><time>2026-04-29T15:01:27.999Z</time></trkpt><trkpt lat="44.53386963357827" lon="9.429283962069258"><ele>896.6000000000001</ele><time>2026-04-29T15:01:28.999Z</time></trkpt><trkpt lat="44.5337715880112" lon="9.429207636457594"><ele>895.4</ele><time>2026-04-29T15:01:29.999Z</time></trkpt><trkpt lat="44.533681115900436" lon="9.429149758550707"><ele>894.2</ele><time>2026-04-29T15:01:30.999Z</time></trkpt><trkpt lat="44.5336159318356" lon="9.429096292659805"><ele>893.0</ele><time>2026-04-29T15:01:31.999Z</time></trkpt><trkpt lat="44.53356016212624" lon="9.429043698388512"><ele>892.2</ele><time>2026-04-29T15:01:32.999Z</time></trkpt><trkpt lat="44.5335709160494" lon="9.42887797284239"><ele>891.4</ele><time>2026-04-29T15:01:34.999Z</time></trkpt><trkpt lat="44.533624034074194" lon="9.428800521388299"><ele>890.6000000000001</ele><time>2026-04-29T15:01:35.999Z</time></trkpt><trkpt lat="44.5337073386737" lon="9.42873043450243"><ele>889.8000000000001</ele><time>2026-04-29T15:01:36.999Z</time></trkpt><trkpt lat="44.53379744157715" lon="9.42866598677467"><ele>889.0</ele><time>2026-04-29T15:01:37.999Z</time></trkpt><trkpt lat="44.533853707501585" lon="9.42860333136322"><ele>888.9999999999999</ele><time>2026-04-29T15:01:38.999Z</time></trkpt><trkpt lat="44.53388946001828" lon="9.428511312225654"><ele>889.0</ele><time>2026-04-29T15:01:39.999Z</time></trkpt><trkpt lat="44.53390234802721" lon="9.428393197420942"><ele>889.0</ele><time>2026-04-29T15:01:40.999Z</time></trkpt><trkpt lat="44.53388178176002" lon="9.428280019264687"><ele>889.0</ele><time>2026-04-29T15:01:41.999Z</time></trkpt><trkpt lat="44.53383603951987" lon="9.428162392824639"><ele>888.9999999999999</ele><time>2026-04-29T15:01:42.999Z</time></trkpt><trkpt lat="44.533771456447994" lon="9.428046739733736"><ele>889.0</ele><time>2026-04-29T15:01:43.999Z</time></trkpt><trkpt lat="44.533703207081146" lon="9.42793087374109"><ele>885.8000000000001</ele><time>2026-04-29T15:01:44.999Z</time></trkpt><trkpt lat="44.53361458592067" lon="9.42784806168617"><ele>882.6000000000001</ele><time>2026-04-29T15:01:45.999Z</time></trkpt><trkpt lat="44.53349867913151" lon="9.427831452532349"><ele>879.4</ele><time>2026-04-29T15:01:46.999Z</time></trkpt><trkpt lat="44.53338112176197" lon="9.42784240269783"><ele>876.2</ele><time>2026-04-29T15:01:47.999Z</time></trkpt><trkpt lat="44.533273548685706" lon="9.427858899904884"><ele>873.0</ele><time>2026-04-29T15:01:48.999Z</time></trkpt><trkpt lat="44.53318597806295" lon="9.427884834318961"><ele>873.0</ele><time>2026-04-29T15:01:49.999Z</time></trkpt><trkpt lat="44.53311672410846" lon="9.427851058943999"><ele>873.0</ele><time>2026-04-29T15:01:50.999Z</time></trkpt><trkpt lat="44.533071898460044" lon="9.427786773942602"><ele>873.0</ele><time>2026-04-29T15:01:51.999Z</time></trkpt><trkpt lat="44.53307790264511" lon="9.427606379698393"><ele>873.0</ele><time>2026-04-29T15:01:53.999Z</time></trkpt><trkpt lat="44.5331399698054" lon="9.42750168360597"><ele>873.0</ele><time>2026-04-29T15:01:54.999Z</time></trkpt><trkpt lat="44.5332149366303" lon="9.427360516716083"><ele>873.0</ele><time>2026-04-29T15:01:56.999Z</time></trkpt><trkpt lat="44.53320623063933" lon="9.42722345524611"><ele>873.0</ele><time>2026-04-29T15:01:58.999Z</time></trkpt><trkpt lat="44.533162293638824" lon="9.427156521393202"><ele>873.0</ele><time>2026-04-29T15:01:59.999Z</time></trkpt><trkpt lat="44.5331098910872" lon="9.42707434411745"><ele>873.0</ele><time>2026-04-29T15:02:00.999Z</time></trkpt><trkpt lat="44.53301584183544" lon="9.427042159362673"><ele>873.0</ele><time>2026-04-29T15:02:01.999Z</time></trkpt><trkpt lat="44.5329289702084" lon="9.427009647566928"><ele>873.0</ele><time>2026-04-29T15:02:02.999Z</time></trkpt><trkpt lat="44.53286063999612" lon="9.426983027338016"><ele>868.4</ele><time>2026-04-29T15:02:03.999Z</time></trkpt><trkpt lat="44.532779877442316" lon="9.426880173196786"><ele>863.8</ele><time>2026-04-29T15:02:05.999Z</time></trkpt><trkpt lat="44.5327602295214" lon="9.426793836112815"><ele>859.2</ele><time>2026-04-29T15:02:06.999Z</time></trkpt><trkpt lat="44.53277630013636" lon="9.426698933814091"><ele>854.6</ele><time>2026-04-29T15:02:07.999Z</time></trkpt><trkpt lat="44.53278158097153" lon="9.42659459800798"><ele>850.0</ele><time>2026-04-29T15:02:08.999Z</time></trkpt><trkpt lat="44.53272731012103" lon="9.426404421203463"><ele>850.0</ele><time>2026-04-29T15:02:10.999Z</time></trkpt><trkpt lat="44.53261841756071" lon="9.426327544574548"><ele>850.0</ele><time>2026-04-29T15:02:11.999Z</time></trkpt><trkpt lat="44.53249904778923" lon="9.426276216945505"><ele>850.0</ele><time>2026-04-29T15:02:12.999Z</time></trkpt><trkpt lat="44.53235752060334" lon="9.426216863341075"><ele>850.0</ele><time>2026-04-29T15:02:13.999Z</time></trkpt><trkpt lat="44.53222998478622" lon="9.426165431541763"><ele>847.8</ele><time>2026-04-29T15:02:14.999Z</time></trkpt><trkpt lat="44.532123388648415" lon="9.426126245345948"><ele>845.6</ele><time>2026-04-29T15:02:15.999Z</time></trkpt><trkpt lat="44.53202075666121" lon="9.42607074701297"><ele>843.4000000000001</ele><time>2026-04-29T15:02:17.999Z</time></trkpt><trkpt lat="44.53193968927816" lon="9.425965884610024"><ele>841.2</ele><time>2026-04-29T15:02:19.999Z</time></trkpt><trkpt lat="44.53190494955825" lon="9.425882139830897"><ele>839.0</ele><time>2026-04-29T15:02:20.999Z</time></trkpt><trkpt lat="44.53190873100454" lon="9.42576095914807"><ele>839.0</ele><time>2026-04-29T15:02:21.999Z</time></trkpt><trkpt lat="44.53194204395687" lon="9.42561692843354"><ele>839.0</ele><time>2026-04-29T15:02:23Z</time></trkpt><trkpt lat="44.53198780436325" lon="9.425448974792674"><ele>839.0</ele><time>2026-04-29T15:02:24Z</time></trkpt><trkpt lat="44.532009498473414" lon="9.425279329072184"><ele>839.0</ele><time>2026-04-29T15:02:25Z</time></trkpt><trkpt lat="44.53202541757518" lon="9.42507213485281"><ele>836.0</ele><time>2026-04-29T15:02:26Z</time></trkpt><trkpt lat="44.53203382758617" lon="9.424830089451614"><ele>833.0</ele><time>2026-04-29T15:02:27Z</time></trkpt><trkpt lat="44.53203340374079" lon="9.424603302479442"><ele>830.0</ele><time>2026-04-29T15:02:28Z</time></trkpt><trkpt lat="44.532037364193" lon="9.424376334027066"><ele>826.6666666666667</ele><time>2026-04-29T15:02:29Z</time></trkpt><trkpt lat="44.53203545536947" lon="9.42415538450432"><ele>823.3333333333333</ele><time>2026-04-29T15:02:30Z</time></trkpt><trkpt lat="44.532029031955815" lon="9.423945585857865"><ele>820.0</ele><time>2026-04-29T15:02:31Z</time></trkpt><trkpt lat="44.532022740307305" lon="9.423739732875783"><ele>818.5</ele><time>2026-04-29T15:02:32Z</time></trkpt><trkpt lat="44.53201978827686" lon="9.423533576184486"><ele>817.0</ele><time>2026-04-29T15:02:33Z</time></trkpt><trkpt lat="44.53202381850404" lon="9.423352402073848"><ele>815.5</ele><time>2026-04-29T15:02:34Z</time></trkpt><trkpt lat="44.53203639537832" lon="9.423212514176306"><ele>814.0</ele><time>2026-04-29T15:02:35Z</time></trkpt><trkpt lat="44.532052919311184" lon="9.423103946733534"><ele>819.0</ele><time>2026-04-29T15:02:36Z</time></trkpt><trkpt lat="44.532083326473085" lon="9.422989311369845"><ele>824.0</ele><time>2026-04-29T15:02:37Z</time></trkpt><trkpt lat="44.532134164229205" lon="9.42285550515568"><ele>829.0</ele><time>2026-04-29T15:02:38Z</time></trkpt><trkpt lat="44.532178952581354" lon="9.422708286423509"><ele>834.0</ele><time>2026-04-29T15:02:39Z</time></trkpt><trkpt lat="44.53220240824332" lon="9.422558795283287"><ele>839.0</ele><time>2026-04-29T15:02:40Z</time></trkpt><trkpt lat="44.532207234054674" lon="9.422409774648097"><ele>839.0000000000001</ele><time>2026-04-29T15:02:41Z</time></trkpt><trkpt lat="44.53221747942762" lon="9.422280235975997"><ele>839.0</ele><time>2026-04-29T15:02:42Z</time></trkpt><trkpt lat="44.53224684550316" lon="9.422182046694292"><ele>839.0</ele><time>2026-04-29T15:02:43Z</time></trkpt><trkpt lat="44.53230361045755" lon="9.422101041563478"><ele>839.0</ele><time>2026-04-29T15:02:44Z</time></trkpt><trkpt lat="44.53237831146428" lon="9.42203541979814"><ele>839.0000000000001</ele><time>2026-04-29T15:02:45Z</time></trkpt><trkpt lat="44.53244833573005" lon="9.421971955265997"><ele>839.0</ele><time>2026-04-29T15:02:46Z</time></trkpt><trkpt lat="44.53249649834788" lon="9.421893540689197"><ele>836.2</ele><time>2026-04-29T15:02:47Z</time></trkpt><trkpt lat="44.532544577512475" lon="9.421791361450586"><ele>833.4000000000001</ele><time>2026-04-29T15:02:48Z</time></trkpt><trkpt lat="44.53254858088611" lon="9.421650095259073"><ele>830.6</ele><time>2026-04-29T15:02:49Z</time></trkpt><trkpt lat="44.532548986289605" lon="9.421508359822784"><ele>827.8</ele><time>2026-04-29T15:02:50Z</time></trkpt><trkpt lat="44.53254616775295" lon="9.421362952372169"><ele>825.0</ele><time>2026-04-29T15:02:51Z</time></trkpt><trkpt lat="44.53256396290151" lon="9.421243783950112"><ele>822.6</ele><time>2026-04-29T15:02:52Z</time></trkpt><trkpt lat="44.53259886960062" lon="9.421127890821847"><ele>820.2</ele><time>2026-04-29T15:02:53Z</time></trkpt><trkpt lat="44.532659816849" lon="9.420990018912962"><ele>817.8</ele><time>2026-04-29T15:02:54Z</time></trkpt><trkpt lat="44.53271720995946" lon="9.420848725244012"><ele>815.4</ele><time>2026-04-29T15:02:55Z</time></trkpt><trkpt lat="44.53276855617916" lon="9.420717387960353"><ele>813.0</ele><time>2026-04-29T15:02:56Z</time></trkpt><trkpt lat="44.532812053058095" lon="9.420609734666112"><ele>813.0</ele><time>2026-04-29T15:02:57Z</time></trkpt><trkpt lat="44.53286184702165" lon="9.420516859271997"><ele>813.0</ele><time>2026-04-29T15:02:58Z</time></trkpt><trkpt lat="44.53292574354359" lon="9.420447495177328"><ele>813.0</ele><time>2026-04-29T15:02:59Z</time></trkpt><trkpt lat="44.53299664117896" lon="9.420412369091272"><ele>813.0</ele><time>2026-04-29T15:03:00Z</time></trkpt><trkpt lat="44.53308565236777" lon="9.420404387889901"><ele>813.0</ele><time>2026-04-29T15:03:01Z</time></trkpt><trkpt lat="44.53319742016877" lon="9.420410597588482"><ele>813.0</ele><time>2026-04-29T15:03:02Z</time></trkpt><trkpt lat="44.53332085105834" lon="9.420420246118661"><ele>815.0</ele><time>2026-04-29T15:03:03Z</time></trkpt><trkpt lat="44.53344718779835" lon="9.42043024255079"><ele>817.0</ele><time>2026-04-29T15:03:04Z</time></trkpt><trkpt lat="44.533582662330026" lon="9.420456780136805"><ele>819.0</ele><time>2026-04-29T15:03:05Z</time></trkpt><trkpt lat="44.5337020439175" lon="9.420485426351089"><ele>821.0</ele><time>2026-04-29T15:03:06Z</time></trkpt><trkpt lat="44.533793298970416" lon="9.420513387566197"><ele>821.0</ele><time>2026-04-29T15:03:07Z</time></trkpt><trkpt lat="44.5338771825205" lon="9.420546498643043"><ele>821.0</ele><time>2026-04-29T15:03:08Z</time></trkpt><trkpt lat="44.53394054917792" lon="9.420563384523371"><ele>821.0</ele><time>2026-04-29T15:03:09Z</time></trkpt><trkpt lat="44.53405369235745" lon="9.420493425633552"><ele>821.0</ele><time>2026-04-29T15:03:11Z</time></trkpt><trkpt lat="44.53407249494315" lon="9.420384155022859"><ele>821.0</ele><time>2026-04-29T15:03:12Z</time></trkpt><trkpt lat="44.5340266567618" lon="9.420265182625267"><ele>819.1999999999999</ele><time>2026-04-29T15:03:13Z</time></trkpt><trkpt lat="44.5339606483967" lon="9.420171865143944"><ele>817.4</ele><time>2026-04-29T15:03:14Z</time></trkpt><trkpt lat="44.53387218596227" lon="9.420079875922749"><ele>815.6</ele><time>2026-04-29T15:03:15Z</time></trkpt><trkpt lat="44.53379101999915" lon="9.419948306098792"><ele>813.8</ele><time>2026-04-29T15:03:16Z</time></trkpt><trkpt lat="44.53370966406968" lon="9.419823917737132"><ele>812.0</ele><time>2026-04-29T15:03:17Z</time></trkpt><trkpt lat="44.53364043249795" lon="9.419721300187174"><ele>807.6</ele><time>2026-04-29T15:03:18Z</time></trkpt><trkpt lat="44.53357400185478" lon="9.41962375273549"><ele>803.2</ele><time>2026-04-29T15:03:19Z</time></trkpt><trkpt lat="44.533485413656805" lon="9.4195632279887"><ele>798.8</ele><time>2026-04-29T15:03:20Z</time></trkpt><trkpt lat="44.53339674628001" lon="9.419535975332527"><ele>794.4</ele><time>2026-04-29T15:03:21Z</time></trkpt><trkpt lat="44.53330097176474" lon="9.419537678923254"><ele>790.0</ele><time>2026-04-29T15:03:22Z</time></trkpt><trkpt lat="44.533206814691134" lon="9.419571267493213"><ele>790.0</ele><time>2026-04-29T15:03:23Z</time></trkpt><trkpt lat="44.533107657776554" lon="9.41962907543474"><ele>790.0</ele><time>2026-04-29T15:03:24Z</time></trkpt><trkpt lat="44.53303569671863" lon="9.419676450036617"><ele>790.0</ele><time>2026-04-29T15:03:25Z</time></trkpt><trkpt lat="44.53292139512669" lon="9.419692583004961"><ele>790.0</ele><time>2026-04-29T15:03:28Z</time></trkpt><trkpt lat="44.53288573825222" lon="9.419617138744067"><ele>790.0</ele><time>2026-04-29T15:03:29Z</time></trkpt><trkpt lat="44.532903431092336" lon="9.419464415371289"><ele>790.0</ele><time>2026-04-29T15:03:31Z</time></trkpt><trkpt lat="44.53294989074286" lon="9.419393698045607"><ele>790.0</ele><time>2026-04-29T15:03:32Z</time></trkpt><trkpt lat="44.53300461017574" lon="9.419323985565422"><ele>790.0</ele><time>2026-04-29T15:03:33Z</time></trkpt><trkpt lat="44.53306517141815" lon="9.41925356231666"><ele>790.0</ele><time>2026-04-29T15:03:34Z</time></trkpt><trkpt lat="44.53312713077469" lon="9.419197913024135"><ele>790.0</ele><time>2026-04-29T15:03:35Z</time></trkpt><trkpt lat="44.53319019649437" lon="9.419156392014242"><ele>790.0</ele><time>2026-04-29T15:03:36Z</time></trkpt><trkpt lat="44.53325014861096" lon="9.419126905346591"><ele>790.0</ele><time>2026-04-29T15:03:37Z</time></trkpt><trkpt lat="44.53330259115926" lon="9.419013414352232"><ele>790.0</ele><time>2026-04-29T15:03:38.999Z</time></trkpt><trkpt lat="44.53332095843058" lon="9.418921392104279"><ele>790.0</ele><time>2026-04-29T15:03:39.999Z</time></trkpt><trkpt lat="44.533281108845856" lon="9.418808840377448"><ele>790.0</ele><time>2026-04-29T15:03:40.999Z</time></trkpt><trkpt lat="44.533205900580995" lon="9.41873250237273"><ele>790.0</ele><time>2026-04-29T15:03:41.999Z</time></trkpt><trkpt lat="44.53313428180112" lon="9.418632310436136"><ele>790.0</ele><time>2026-04-29T15:03:42.999Z</time></trkpt><trkpt lat="44.533059849509016" lon="9.418529925150168"><ele>789.4</ele><time>2026-04-29T15:03:43.999Z</time></trkpt><trkpt lat="44.53298638396325" lon="9.41843631916275"><ele>788.8</ele><time>2026-04-29T15:03:44.999Z</time></trkpt><trkpt lat="44.53291519230239" lon="9.418342206716192"><ele>788.2</ele><time>2026-04-29T15:03:45.999Z</time></trkpt><trkpt lat="44.53281475072756" lon="9.418312873175447"><ele>787.6</ele><time>2026-04-29T15:03:46.999Z</time></trkpt><trkpt lat="44.53275247356605" lon="9.418283706669806"><ele>787.0</ele><time>2026-04-29T15:03:47.999Z</time></trkpt><trkpt lat="44.53267381292685" lon="9.418232051675428"><ele>783.6</ele><time>2026-04-29T15:03:49.999Z</time></trkpt><trkpt lat="44.532666505777385" lon="9.418050069336225"><ele>780.2</ele><time>2026-04-29T15:03:51.999Z</time></trkpt><trkpt lat="44.53267220387226" lon="9.4179192382154"><ele>776.8</ele><time>2026-04-29T15:03:52.999Z</time></trkpt><trkpt lat="44.532662290884545" lon="9.417779689396692"><ele>773.4</ele><time>2026-04-29T15:03:53.999Z</time></trkpt><trkpt lat="44.532641005088095" lon="9.417661919437183"><ele>770.0</ele><time>2026-04-29T15:03:54.999Z</time></trkpt><trkpt lat="44.532629518359485" lon="9.417550373381383"><ele>769.8333333333334</ele><time>2026-04-29T15:03:55.999Z</time></trkpt><trkpt lat="44.53265255607467" lon="9.41745361552863"><ele>769.6666666666667</ele><time>2026-04-29T15:03:56.999Z</time></trkpt><trkpt lat="44.53268912877855" lon="9.417346067355421"><ele>769.5</ele><time>2026-04-29T15:03:57.999Z</time></trkpt><trkpt lat="44.532726743430466" lon="9.41720089563014"><ele>769.3333333333333</ele><time>2026-04-29T15:03:59.999Z</time></trkpt><trkpt lat="44.53271236716476" lon="9.417112361176459"><ele>769.1666666666666</ele><time>2026-04-29T15:04:00.999Z</time></trkpt><trkpt lat="44.53266909851843" lon="9.417042232048527"><ele>769.0</ele><time>2026-04-29T15:04:01.999Z</time></trkpt><trkpt lat="44.53260981536965" lon="9.41696027941951"><ele>769.5</ele><time>2026-04-29T15:04:02.999Z</time></trkpt><trkpt lat="44.53252080810211" lon="9.416906392511668"><ele>770.0</ele><time>2026-04-29T15:04:03.999Z</time></trkpt><trkpt lat="44.532409280946695" lon="9.41686376544793"><ele>770.5</ele><time>2026-04-29T15:04:04.999Z</time></trkpt><trkpt lat="44.53227400921241" lon="9.41682929591726"><ele>771.0</ele><time>2026-04-29T15:04:05.999Z</time></trkpt><trkpt lat="44.532153247800245" lon="9.41679916963798"><ele>768.5</ele><time>2026-04-29T15:04:06.999Z</time></trkpt><trkpt lat="44.53205127135432" lon="9.416767993599034"><ele>766.0</ele><time>2026-04-29T15:04:07.999Z</time></trkpt><trkpt lat="44.5319633634757" lon="9.416731725546"><ele>763.5</ele><time>2026-04-29T15:04:08.999Z</time></trkpt><trkpt lat="44.53187552908383" lon="9.416701867780244"><ele>761.0</ele><time>2026-04-29T15:04:09.999Z</time></trkpt><trkpt lat="44.531820869126726" lon="9.416640956735508"><ele>758.5</ele><time>2026-04-29T15:04:10.999Z</time></trkpt><trkpt lat="44.53178383975661" lon="9.416561710996426"><ele>756.0</ele><time>2026-04-29T15:04:11.999Z</time></trkpt><trkpt lat="44.53177151317972" lon="9.416452679243067"><ele>755.5</ele><time>2026-04-29T15:04:12.999Z</time></trkpt><trkpt lat="44.531787635836835" lon="9.416316806391636"><ele>755.0</ele><time>2026-04-29T15:04:13.999Z</time></trkpt><trkpt lat="44.53183729246982" lon="9.416146773343895"><ele>754.5</ele><time>2026-04-29T15:04:14.999Z</time></trkpt><trkpt lat="44.53189105148301" lon="9.415983113200921"><ele>754.0</ele><time>2026-04-29T15:04:15.999Z</time></trkpt><trkpt lat="44.53191888134743" lon="9.415817501700074"><ele>754.0</ele><time>2026-04-29T15:04:16.999Z</time></trkpt><trkpt lat="44.5319235342262" lon="9.415650841770175"><ele>754.0</ele><time>2026-04-29T15:04:17.999Z</time></trkpt><trkpt lat="44.5317882809009" lon="9.415614895635223"><ele>754.0</ele><time>2026-04-29T15:04:18.999Z</time></trkpt><trkpt lat="44.531707210973984" lon="9.415530514804558"><ele>754.0</ele><time>2026-04-29T15:04:19.999Z</time></trkpt><trkpt lat="44.53161089725717" lon="9.4154290886706"><ele>755.0</ele><time>2026-04-29T15:04:20.999Z</time></trkpt><trkpt lat="44.53143102695174" lon="9.415237648360307"><ele>756.0</ele><time>2026-04-29T15:04:21.999Z</time></trkpt><trkpt lat="44.531402474842665" lon="9.414886070627393"><ele>756.0</ele><time>2026-04-29T15:04:22.999Z</time></trkpt><trkpt lat="44.531500167764335" lon="9.415393087298735"><ele>756.0</ele><time>2026-04-29T15:04:23.999Z</time></trkpt><trkpt lat="44.53142352164454" lon="9.415321761962781"><ele>756.0</ele><time>2026-04-29T15:04:24.999Z</time></trkpt><trkpt lat="44.53137083026442" lon="9.41523788134291"><ele>756.0</ele><time>2026-04-29T15:04:25.999Z</time></trkpt><trkpt lat="44.531348424986696" lon="9.415146008032297"><ele>756.0</ele><time>2026-04-29T15:04:26.999Z</time></trkpt><trkpt lat="44.53134689218224" lon="9.415045665180791"><ele>756.0</ele><time>2026-04-29T15:04:27.999Z</time></trkpt><trkpt lat="44.531361057336326" lon="9.414922461458389"><ele>756.0</ele><time>2026-04-29T15:04:29Z</time></trkpt><trkpt lat="44.53135045156595" lon="9.414761125288353"><ele>756.0</ele><time>2026-04-29T15:04:30Z</time></trkpt><trkpt lat="44.53136300064123" lon="9.414564529662828"><ele>754.75</ele><time>2026-04-29T15:04:31Z</time></trkpt><trkpt lat="44.53135686716398" lon="9.414343045202928"><ele>753.5</ele><time>2026-04-29T15:04:32Z</time></trkpt><trkpt lat="44.531348157242185" lon="9.414199794531955"><ele>752.25</ele><time>2026-04-29T15:04:33Z</time></trkpt><trkpt lat="44.531336001906574" lon="9.413984747754293"><ele>751.0</ele><time>2026-04-29T15:04:34Z</time></trkpt><trkpt lat="44.531320338270845" lon="9.413815461518945"><ele>747.8333333333334</ele><time>2026-04-29T15:04:35Z</time></trkpt><trkpt lat="44.53129400954213" lon="9.413680188756276"><ele>744.6666666666667</ele><time>2026-04-29T15:04:36Z</time></trkpt><trkpt lat="44.531296331121794" lon="9.413573918660752"><ele>741.5</ele><time>2026-04-29T15:04:37Z</time></trkpt><trkpt lat="44.53130933594139" lon="9.413476994877177"><ele>738.3333333333334</ele><time>2026-04-29T15:04:38Z</time></trkpt><trkpt lat="44.53138493834082" lon="9.413356140653057"><ele>735.1666666666666</ele><time>2026-04-29T15:04:40Z</time></trkpt><trkpt lat="44.531456849898305" lon="9.41332567790107"><ele>732.0</ele><time>2026-04-29T15:04:41Z</time></trkpt><trkpt lat="44.5315539374125" lon="9.413293364968503"><ele>732.0</ele><time>2026-04-29T15:04:42Z</time></trkpt><trkpt lat="44.53165219669616" lon="9.413253513077871"><ele>732.0</ele><time>2026-04-29T15:04:43Z</time></trkpt><trkpt lat="44.53174317828856" lon="9.413216612710405"><ele>732.0</ele><time>2026-04-29T15:04:44Z</time></trkpt><trkpt lat="44.53181969116237" lon="9.413192937063215"><ele>732.0</ele><time>2026-04-29T15:04:45Z</time></trkpt><trkpt lat="44.53192460421822" lon="9.413224437734602"><ele>732.0</ele><time>2026-04-29T15:04:47Z</time></trkpt><trkpt lat="44.532040875050235" lon="9.413350824282759"><ele>730.4000000000001</ele><time>2026-04-29T15:04:49Z</time></trkpt><trkpt lat="44.53215056831182" lon="9.413346608012963"><ele>728.8000000000001</ele><time>2026-04-29T15:04:51Z</time></trkpt><trkpt lat="44.53221558103384" lon="9.413203648382185"><ele>727.2</ele><time>2026-04-29T15:04:53Z</time></trkpt><trkpt lat="44.53221539204282" lon="9.413105405888974"><ele>725.6</ele><time>2026-04-29T15:04:54Z</time></trkpt><trkpt lat="44.53220911106933" lon="9.412981791920343"><ele>724.0</ele><time>2026-04-29T15:04:55Z</time></trkpt><trkpt lat="44.532218672244454" lon="9.412882073193744"><ele>724.0</ele><time>2026-04-29T15:04:56Z</time></trkpt><trkpt lat="44.532236032003716" lon="9.41276052872047"><ele>724.0</ele><time>2026-04-29T15:04:57Z</time></trkpt><trkpt lat="44.53228517880747" lon="9.412651503375619"><ele>724.0</ele><time>2026-04-29T15:04:58Z</time></trkpt><trkpt lat="44.53233738064454" lon="9.412539601622992"><ele>724.0</ele><time>2026-04-29T15:04:59Z</time></trkpt><trkpt lat="44.53241287787286" lon="9.412457448416378"><ele>724.0</ele><time>2026-04-29T15:05:00Z</time></trkpt><trkpt lat="44.53249734588335" lon="9.412380481192034"><ele>724.0</ele><time>2026-04-29T15:05:01Z</time></trkpt><trkpt lat="44.53259605081663" lon="9.412313605888457"><ele>724.0</ele><time>2026-04-29T15:05:02Z</time></trkpt><trkpt lat="44.5327098733267" lon="9.412261023297354"><ele>724.0</ele><time>2026-04-29T15:05:03Z</time></trkpt><trkpt lat="44.53280126673303" lon="9.412229712913682"><ele>724.0</ele><time>2026-04-29T15:05:04Z</time></trkpt><trkpt lat="44.532913457452814" lon="9.412156132806457"><ele>724.0</ele><time>2026-04-29T15:05:05Z</time></trkpt><trkpt lat="44.532985235747084" lon="9.412071839346398"><ele>724.75</ele><time>2026-04-29T15:05:06Z</time></trkpt><trkpt lat="44.53305056105144" lon="9.411955352165498"><ele>725.5</ele><time>2026-04-29T15:05:07Z</time></trkpt><trkpt lat="44.53310340931243" lon="9.41181943159967"><ele>726.25</ele><time>2026-04-29T15:05:08Z</time></trkpt><trkpt lat="44.53315086109333" lon="9.41165992794374"><ele>727.0</ele><time>2026-04-29T15:05:09Z</time></trkpt><trkpt lat="44.53321201810713" lon="9.411505003025683"><ele>727.0</ele><time>2026-04-29T15:05:10Z</time></trkpt><trkpt lat="44.53330153978985" lon="9.411374870338408"><ele>727.0</ele><time>2026-04-29T15:05:11Z</time></trkpt><trkpt lat="44.533357813619766" lon="9.411221404531327"><ele>727.0</ele><time>2026-04-29T15:05:12Z</time></trkpt><trkpt lat="44.533397279599605" lon="9.411052910020215"><ele>727.0</ele><time>2026-04-29T15:05:13Z</time></trkpt><trkpt lat="44.53340434094881" lon="9.410874907541835"><ele>722.8</ele><time>2026-04-29T15:05:14Z</time></trkpt><trkpt lat="44.53342883270356" lon="9.410715110039376"><ele>718.6</ele><time>2026-04-29T15:05:15Z</time></trkpt><trkpt lat="44.53346353572345" lon="9.410604509984944"><ele>714.4</ele><time>2026-04-29T15:05:16Z</time></trkpt><trkpt lat="44.533492911748084" lon="9.410523487749742"><ele>710.1999999999999</ele><time>2026-04-29T15:05:17Z</time></trkpt><trkpt lat="44.533560800878604" lon="9.410374578634553"><ele>706.0</ele><time>2026-04-29T15:05:18Z</time></trkpt><trkpt lat="44.53363662524682" lon="9.410317259241772"><ele>703.0</ele><time>2026-04-29T15:05:19Z</time></trkpt><trkpt lat="44.53367056880739" lon="9.410231985105781"><ele>700.0</ele><time>2026-04-29T15:05:20Z</time></trkpt><trkpt lat="44.53371233723057" lon="9.410143811936218"><ele>697.0</ele><time>2026-04-29T15:05:21Z</time></trkpt><trkpt lat="44.533680192045324" lon="9.410001654557755"><ele>694.0</ele><time>2026-04-29T15:05:22Z</time></trkpt><trkpt lat="44.533696746446374" lon="9.40984598231148"><ele>691.0</ele><time>2026-04-29T15:05:23Z</time></trkpt><trkpt lat="44.5336967464509" lon="9.409672475769538"><ele>689.5999999999999</ele><time>2026-04-29T15:05:24Z</time></trkpt><trkpt lat="44.53369811423067" lon="9.409519080635631"><ele>688.2</ele><time>2026-04-29T15:05:25Z</time></trkpt><trkpt lat="44.53371230446047" lon="9.409387746839297"><ele>686.8</ele><time>2026-04-29T15:05:26Z</time></trkpt><trkpt lat="44.53373785784684" lon="9.409257518734345"><ele>685.4000000000001</ele><time>2026-04-29T15:05:27Z</time></trkpt><trkpt lat="44.53377574577255" lon="9.409115621982753"><ele>684.0</ele><time>2026-04-29T15:05:28Z</time></trkpt><trkpt lat="44.5338199469319" lon="9.408961856537841"><ele>685.2</ele><time>2026-04-29T15:05:29Z</time></trkpt><trkpt lat="44.53385036855942" lon="9.408797518134826"><ele>686.4000000000001</ele><time>2026-04-29T15:05:30Z</time></trkpt><trkpt lat="44.53388286476145" lon="9.408651096651894"><ele>687.6</ele><time>2026-04-29T15:05:31Z</time></trkpt><trkpt lat="44.53390952130676" lon="9.408496236017147"><ele>688.8</ele><time>2026-04-29T15:05:32Z</time></trkpt><trkpt lat="44.5339322650586" lon="9.408401832999292"><ele>690.0</ele><time>2026-04-29T15:05:33Z</time></trkpt><trkpt lat="44.53395695864031" lon="9.40831354541584"><ele>690.0</ele><time>2026-04-29T15:05:34Z</time></trkpt><trkpt lat="44.534031880647106" lon="9.408174650920005"><ele>690.0</ele><time>2026-04-29T15:05:36Z</time></trkpt><trkpt lat="44.53412616842592" lon="9.408090546436263"><ele>690.0</ele><time>2026-04-29T15:05:38Z</time></trkpt><trkpt lat="44.53418452081231" lon="9.408035569436903"><ele>690.0</ele><time>2026-04-29T15:05:40Z</time></trkpt><trkpt lat="44.5342338390866" lon="9.407957668107102"><ele>690.0</ele><time>2026-04-29T15:05:43Z</time></trkpt><trkpt lat="44.53416659249771" lon="9.407820254439917"><ele>686.8</ele><time>2026-04-29T15:05:44Z</time></trkpt><trkpt lat="44.5341418990534" lon="9.40771222631835"><ele>683.6</ele><time>2026-04-29T15:05:45Z</time></trkpt><trkpt lat="44.53411366122639" lon="9.407592032288724"><ele>680.4000000000001</ele><time>2026-04-29T15:05:46Z</time></trkpt><trkpt lat="44.53409203340137" lon="9.407459319380632"><ele>677.2</ele><time>2026-04-29T15:05:47Z</time></trkpt><trkpt lat="44.53407107421797" lon="9.407317108136217"><ele>674.0</ele><time>2026-04-29T15:05:48Z</time></trkpt><trkpt lat="44.534049238033205" lon="9.40717443363544"><ele>674.25</ele><time>2026-04-29T15:05:49Z</time></trkpt><trkpt lat="44.5340274713436" lon="9.407005327780768"><ele>674.5</ele><time>2026-04-29T15:05:50Z</time></trkpt><trkpt lat="44.5339878332717" lon="9.406798936145252"><ele>674.75</ele><time>2026-04-29T15:05:51Z</time></trkpt><trkpt lat="44.53396221176748" lon="9.40660162308388"><ele>675.0</ele><time>2026-04-29T15:05:52Z</time></trkpt><trkpt lat="44.533943762847365" lon="9.406437351134615"><ele>674.0</ele><time>2026-04-29T15:05:53Z</time></trkpt><trkpt lat="44.53391327333044" lon="9.406295161418495"><ele>673.0</ele><time>2026-04-29T15:05:54Z</time></trkpt><trkpt lat="44.5338821250872" lon="9.406180240773352"><ele>672.0</ele><time>2026-04-29T15:05:55Z</time></trkpt><trkpt lat="44.53385631370379" lon="9.406077831924732"><ele>671.0</ele><time>2026-04-29T15:05:56Z</time></trkpt><trkpt lat="44.53379774761412" lon="9.4060038712208"><ele>670.0</ele><time>2026-04-29T15:05:57Z</time></trkpt><trkpt lat="44.53368636028516" lon="9.405988127494158"><ele>673.0</ele><time>2026-04-29T15:05:58Z</time></trkpt><trkpt lat="44.533579786809426" lon="9.405970128328649"><ele>676.0</ele><time>2026-04-29T15:05:59Z</time></trkpt><trkpt lat="44.533455461017844" lon="9.405951799568061"><ele>679.0</ele><time>2026-04-29T15:06:00Z</time></trkpt><trkpt lat="44.533307633634394" lon="9.405897840454328"><ele>682.0</ele><time>2026-04-29T15:06:01Z</time></trkpt><trkpt lat="44.5331749246913" lon="9.405856600094404"><ele>682.0</ele><time>2026-04-29T15:06:02Z</time></trkpt><trkpt lat="44.53304090060644" lon="9.40581039181602"><ele>682.0</ele><time>2026-04-29T15:06:03Z</time></trkpt><trkpt lat="44.53291773534493" lon="9.405765077749379"><ele>682.0</ele><time>2026-04-29T15:06:04Z</time></trkpt><trkpt lat="44.53279475470062" lon="9.405736037291163"><ele>682.0</ele><time>2026-04-29T15:06:05Z</time></trkpt><trkpt lat="44.532700260550335" lon="9.40573897962187"><ele>680.0</ele><time>2026-04-29T15:06:06Z</time></trkpt><trkpt lat="44.53258509807869" lon="9.405694905278422"><ele>678.0</ele><time>2026-04-29T15:06:06.999Z</time></trkpt><trkpt lat="44.53248054916346" lon="9.405619301562167"><ele>676.0</ele><time>2026-04-29T15:06:07.999Z</time></trkpt><trkpt lat="44.53235263841172" lon="9.405527871261771"><ele>674.0</ele><time>2026-04-29T15:06:08.999Z</time></trkpt><trkpt lat="44.53223533463697" lon="9.405445470253218"><ele>674.0</ele><time>2026-04-29T15:06:09.999Z</time></trkpt><trkpt lat="44.53212740668922" lon="9.405385958102224"><ele>674.0</ele><time>2026-04-29T15:06:10.999Z</time></trkpt><trkpt lat="44.53202258686499" lon="9.405318968570333"><ele>674.0</ele><time>2026-04-29T15:06:11.999Z</time></trkpt><trkpt lat="44.53192995862107" lon="9.405240691511155"><ele>674.0</ele><time>2026-04-29T15:06:12.999Z</time></trkpt><trkpt lat="44.53184824787617" lon="9.40515054321179"><ele>674.0</ele><time>2026-04-29T15:06:13.999Z</time></trkpt><trkpt lat="44.5317781040366" lon="9.405048349922499"><ele>674.25</ele><time>2026-04-29T15:06:14.999Z</time></trkpt><trkpt lat="44.531718213522076" lon="9.40493017699376"><ele>674.5</ele><time>2026-04-29T15:06:15.999Z</time></trkpt><trkpt lat="44.53167211236662" lon="9.40477977204434"><ele>674.75</ele><time>2026-04-29T15:06:16.999Z</time></trkpt><trkpt lat="44.53157491578372" lon="9.404644958183134"><ele>675.0</ele><time>2026-04-29T15:06:17.999Z</time></trkpt><trkpt lat="44.53146866992023" lon="9.40449896916491"><ele>675.0</ele><time>2026-04-29T15:06:18.999Z</time></trkpt><trkpt lat="44.531374119657556" lon="9.404365636339332"><ele>675.0</ele><time>2026-04-29T15:06:19.999Z</time></trkpt><trkpt lat="44.531292828066015" lon="9.404248861126632"><ele>675.0</ele><time>2026-04-29T15:06:20.999Z</time></trkpt><trkpt lat="44.53123164566747" lon="9.404116422563666"><ele>675.0</ele><time>2026-04-29T15:06:21.999Z</time></trkpt><trkpt lat="44.53117743708413" lon="9.403954841737646"><ele>680.0</ele><time>2026-04-29T15:06:22.999Z</time></trkpt><trkpt lat="44.53112777440813" lon="9.403772792379904"><ele>685.0</ele><time>2026-04-29T15:06:23.999Z</time></trkpt><trkpt lat="44.53108250649473" lon="9.403572157865401"><ele>690.0</ele><time>2026-04-29T15:06:24.999Z</time></trkpt><trkpt lat="44.53103627498852" lon="9.403359783335887"><ele>695.0</ele><time>2026-04-29T15:06:25.999Z</time></trkpt><trkpt lat="44.53099557881873" lon="9.403128375640566"><ele>692.0</ele><time>2026-04-29T15:06:26.999Z</time></trkpt><trkpt lat="44.53096519180056" lon="9.402890193997644"><ele>689.0</ele><time>2026-04-29T15:06:27.999Z</time></trkpt><trkpt lat="44.53093944652627" lon="9.402655678405159"><ele>686.0</ele><time>2026-04-29T15:06:28.999Z</time></trkpt><trkpt lat="44.53090762842577" lon="9.402413958311191"><ele>685.0</ele><time>2026-04-29T15:06:29.999Z</time></trkpt><trkpt lat="44.53086915318835" lon="9.402148161347728"><ele>684.0</ele><time>2026-04-29T15:06:30.999Z</time></trkpt><trkpt lat="44.53083403480983" lon="9.401886848859917"><ele>683.0</ele><time>2026-04-29T15:06:31.999Z</time></trkpt><trkpt lat="44.530799105678305" lon="9.401627618532883"><ele>683.0</ele><time>2026-04-29T15:06:32.999Z</time></trkpt><trkpt lat="44.53076845267537" lon="9.401387515954047"><ele>683.0</ele><time>2026-04-29T15:06:33.999Z</time></trkpt><trkpt lat="44.530742503391416" lon="9.40115984019352"><ele>683.0</ele><time>2026-04-29T15:06:35Z</time></trkpt><trkpt lat="44.53071588629994" lon="9.400946920300687"><ele>683.0</ele><time>2026-04-29T15:06:36Z</time></trkpt><trkpt lat="44.5306849693295" lon="9.400742043874828"><ele>683.0</ele><time>2026-04-29T15:06:37Z</time></trkpt><trkpt lat="44.53065774114672" lon="9.400562674116204"><ele>683.0</ele><time>2026-04-29T15:06:38Z</time></trkpt><trkpt lat="44.53063698460281" lon="9.400393283715436"><ele>683.0</ele><time>2026-04-29T15:06:39Z</time></trkpt><trkpt lat="44.530619227115544" lon="9.400237942879881"><ele>682.5999999999999</ele><time>2026-04-29T15:06:40Z</time></trkpt><trkpt lat="44.530611259497526" lon="9.400088895357605"><ele>682.1999999999999</ele><time>2026-04-29T15:06:41Z</time></trkpt><trkpt lat="44.53059451019156" lon="9.39993771296939"><ele>681.8</ele><time>2026-04-29T15:06:42Z</time></trkpt><trkpt lat="44.53057081015155" lon="9.39983180163455"><ele>681.4</ele><time>2026-04-29T15:06:43Z</time></trkpt><trkpt lat="44.53057051866693" lon="9.399659767949519"><ele>681.0</ele><time>2026-04-29T15:06:44Z</time></trkpt><trkpt lat="44.5305963200498" lon="9.399525950752627"><ele>682.25</ele><time>2026-04-29T15:06:45Z</time></trkpt><trkpt lat="44.53063035917798" lon="9.399385895003013"><ele>683.5</ele><time>2026-04-29T15:06:46Z</time></trkpt><trkpt lat="44.53068586113852" lon="9.399244979303981"><ele>684.75</ele><time>2026-04-29T15:06:47Z</time></trkpt><trkpt lat="44.530759972933765" lon="9.399096239575533"><ele>686.0</ele><time>2026-04-29T15:06:48Z</time></trkpt><trkpt lat="44.53083154488711" lon="9.398934867049515"><ele>687.75</ele><time>2026-04-29T15:06:49Z</time></trkpt><trkpt lat="44.5308985263284" lon="9.398773903411689"><ele>689.5</ele><time>2026-04-29T15:06:50Z</time></trkpt><trkpt lat="44.53096276194832" lon="9.398626629269641"><ele>691.25</ele><time>2026-04-29T15:06:51Z</time></trkpt><trkpt lat="44.53101879798876" lon="9.398495997571963"><ele>693.0</ele><time>2026-04-29T15:06:52Z</time></trkpt><trkpt lat="44.53106499160431" lon="9.39838329329378"><ele>693.0</ele><time>2026-04-29T15:06:53Z</time></trkpt><trkpt lat="44.53109652862033" lon="9.398267849612354"><ele>693.0</ele><time>2026-04-29T15:06:54Z</time></trkpt><trkpt lat="44.531106146311124" lon="9.39814829856439"><ele>693.0</ele><time>2026-04-29T15:06:55Z</time></trkpt><trkpt lat="44.53109197585623" lon="9.398010172223573"><ele>693.0</ele><time>2026-04-29T15:06:56Z</time></trkpt><trkpt lat="44.531072590534485" lon="9.397820637299263"><ele>693.0</ele><time>2026-04-29T15:06:57Z</time></trkpt><trkpt lat="44.53103057793655" lon="9.3976221638346"><ele>692.6666666666666</ele><time>2026-04-29T15:06:58Z</time></trkpt><trkpt lat="44.53099258085147" lon="9.397416354636169"><ele>692.3333333333333</ele><time>2026-04-29T15:06:59Z</time></trkpt><trkpt lat="44.53095695163368" lon="9.397183829076527"><ele>692.0</ele><time>2026-04-29T15:07:00Z</time></trkpt><trkpt lat="44.53092305427459" lon="9.396958727770295"><ele>690.0</ele><time>2026-04-29T15:07:01Z</time></trkpt><trkpt lat="44.53089393832962" lon="9.396763196621428"><ele>688.0</ele><time>2026-04-29T15:07:02Z</time></trkpt><trkpt lat="44.53086330555475" lon="9.39659094178022"><ele>686.0</ele><time>2026-04-29T15:07:03Z</time></trkpt><trkpt lat="44.53082664604736" lon="9.396439649597143"><ele>684.0</ele><time>2026-04-29T15:07:04Z</time></trkpt><trkpt lat="44.53076293050296" lon="9.396297798429051"><ele>683.0</ele><time>2026-04-29T15:07:05Z</time></trkpt><trkpt lat="44.530683735312856" lon="9.396144597293787"><ele>682.0</ele><time>2026-04-29T15:07:06Z</time></trkpt><trkpt lat="44.530590940856776" lon="9.395980804460496"><ele>681.0</ele><time>2026-04-29T15:07:07Z</time></trkpt><trkpt lat="44.53047998711745" lon="9.39579653022594"><ele>681.3333333333334</ele><time>2026-04-29T15:07:08Z</time></trkpt><trkpt lat="44.5303594334565" lon="9.395596229727579"><ele>681.6666666666667</ele><time>2026-04-29T15:07:09Z</time></trkpt><trkpt lat="44.53024339088653" lon="9.395399662862035"><ele>682.0</ele><time>2026-04-29T15:07:10Z</time></trkpt><trkpt lat="44.53013244682075" lon="9.395214373709779"><ele>682.0</ele><time>2026-04-29T15:07:11Z</time></trkpt><trkpt lat="44.530020156352116" lon="9.395017587052717"><ele>682.0</ele><time>2026-04-29T15:07:12Z</time></trkpt><trkpt lat="44.52992593980773" lon="9.394868485025116"><ele>682.0</ele><time>2026-04-29T15:07:13Z</time></trkpt><trkpt lat="44.52983448690797" lon="9.394720986958834"><ele>682.0</ele><time>2026-04-29T15:07:14Z</time></trkpt><trkpt lat="44.52975154318848" lon="9.39458506519891"><ele>682.0</ele><time>2026-04-29T15:07:15Z</time></trkpt><trkpt lat="44.52968218054226" lon="9.394462084569051"><ele>682.0</ele><time>2026-04-29T15:07:16Z</time></trkpt><trkpt lat="44.529614344154226" lon="9.394347576618348"><ele>682.0</ele><time>2026-04-29T15:07:17Z</time></trkpt><trkpt lat="44.52955311764682" lon="9.394243066783707"><ele>682.0</ele><time>2026-04-29T15:07:18Z</time></trkpt><trkpt lat="44.52948919739198" lon="9.394147681143554"><ele>682.0</ele><time>2026-04-29T15:07:19Z</time></trkpt><trkpt lat="44.529439139742834" lon="9.394076899261117"><ele>682.0</ele><time>2026-04-29T15:07:20Z</time></trkpt><trkpt lat="44.52935968016299" lon="9.394024902384295"><ele>682.0</ele><time>2026-04-29T15:07:21Z</time></trkpt><trkpt lat="44.5292469173762" lon="9.393977773286473"><ele>682.0</ele><time>2026-04-29T15:07:22Z</time></trkpt><trkpt lat="44.529102036609885" lon="9.393925142981278"><ele>682.0</ele><time>2026-04-29T15:07:23Z</time></trkpt><trkpt lat="44.52894059575886" lon="9.39386887821095"><ele>681.6666666666667</ele><time>2026-04-29T15:07:24Z</time></trkpt><trkpt lat="44.52878853852345" lon="9.393811037799505"><ele>681.3333333333334</ele><time>2026-04-29T15:07:25Z</time></trkpt><trkpt lat="44.52862998698961" lon="9.393745512333494"><ele>681.0</ele><time>2026-04-29T15:07:26Z</time></trkpt><trkpt lat="44.52847445194093" lon="9.393683514096853"><ele>681.75</ele><time>2026-04-29T15:07:27Z</time></trkpt><trkpt lat="44.528330036002146" lon="9.393616642659461"><ele>682.5</ele><time>2026-04-29T15:07:28Z</time></trkpt><trkpt lat="44.528216244443314" lon="9.393522217503639"><ele>683.25</ele><time>2026-04-29T15:07:29Z</time></trkpt><trkpt lat="44.528113277284014" lon="9.393429346871214"><ele>684.0</ele><time>2026-04-29T15:07:30Z</time></trkpt><trkpt lat="44.52801171054306" lon="9.393328137825911"><ele>684.0</ele><time>2026-04-29T15:07:31Z</time></trkpt><trkpt lat="44.527898050094244" lon="9.393228981799634"><ele>684.0</ele><time>2026-04-29T15:07:32Z</time></trkpt><trkpt lat="44.527804910090346" lon="9.393091838889527"><ele>684.0</ele><time>2026-04-29T15:07:33Z</time></trkpt><trkpt lat="44.52774966808187" lon="9.393003283001924"><ele>684.0</ele><time>2026-04-29T15:07:34Z</time></trkpt><trkpt lat="44.52768725689925" lon="9.392769176204341"><ele>685.5</ele><time>2026-04-29T15:07:35Z</time></trkpt><trkpt lat="44.52760157151486" lon="9.39261330616045"><ele>687.0</ele><time>2026-04-29T15:07:36Z</time></trkpt><trkpt lat="44.52752443514139" lon="9.392446695469674"><ele>688.5</ele><time>2026-04-29T15:07:37Z</time></trkpt><trkpt lat="44.52746417641864" lon="9.392286018665516"><ele>690.0</ele><time>2026-04-29T15:07:38Z</time></trkpt><trkpt lat="44.52741701983357" lon="9.392120493664851"><ele>690.25</ele><time>2026-04-29T15:07:39Z</time></trkpt><trkpt lat="44.52738042083701" lon="9.391966832946192"><ele>690.5</ele><time>2026-04-29T15:07:40Z</time></trkpt><trkpt lat="44.527353336910274" lon="9.391795823515674"><ele>690.75</ele><time>2026-04-29T15:07:41Z</time></trkpt><trkpt lat="44.52734880061653" lon="9.391599141995247"><ele>691.0</ele><time>2026-04-29T15:07:42Z</time></trkpt><trkpt lat="44.52735002883052" lon="9.39137366633189"><ele>690.3333333333334</ele><time>2026-04-29T15:07:43Z</time></trkpt><trkpt lat="44.52734760001491" lon="9.391148365719191"><ele>689.6666666666666</ele><time>2026-04-29T15:07:44Z</time></trkpt><trkpt lat="44.5273256294735" lon="9.390926288397242"><ele>689.0</ele><time>2026-04-29T15:07:45Z</time></trkpt><trkpt lat="44.52729184101863" lon="9.39069354778214"><ele>687.6666666666666</ele><time>2026-04-29T15:07:46Z</time></trkpt><trkpt lat="44.52725054408092" lon="9.390452305664"><ele>686.3333333333334</ele><time>2026-04-29T15:07:47Z</time></trkpt><trkpt lat="44.527216292551394" lon="9.390223505181618"><ele>685.0</ele><time>2026-04-29T15:07:48Z</time></trkpt><trkpt lat="44.52717272636746" lon="9.39001705596773"><ele>685.0</ele><time>2026-04-29T15:07:49Z</time></trkpt><trkpt lat="44.52713942228147" lon="9.389840323469743"><ele>685.0</ele><time>2026-04-29T15:07:50Z</time></trkpt><trkpt lat="44.52708995858444" lon="9.38966380539138"><ele>685.0</ele><time>2026-04-29T15:07:51Z</time></trkpt><trkpt lat="44.52701420210085" lon="9.389482405658212"><ele>685.0</ele><time>2026-04-29T15:07:52Z</time></trkpt><trkpt lat="44.526942219835654" lon="9.38927965903576"><ele>688.6666666666667</ele><time>2026-04-29T15:07:53Z</time></trkpt><trkpt lat="44.52685618910722" lon="9.389075356940593"><ele>692.3333333333334</ele><time>2026-04-29T15:07:54Z</time></trkpt><trkpt lat="44.52678074779962" lon="9.388867659404594"><ele>696.0</ele><time>2026-04-29T15:07:55Z</time></trkpt><trkpt lat="44.5267068592816" lon="9.388694693137888"><ele>696.0</ele><time>2026-04-29T15:07:56Z</time></trkpt><trkpt lat="44.526657905765184" lon="9.38854390015362"><ele>696.0</ele><time>2026-04-29T15:07:57Z</time></trkpt><trkpt lat="44.5266052138527" lon="9.38839733584666"><ele>696.0</ele><time>2026-04-29T15:07:58Z</time></trkpt><trkpt lat="44.52655603026459" lon="9.38829317119038"><ele>696.0</ele><time>2026-04-29T15:07:59Z</time></trkpt><trkpt lat="44.526493728263134" lon="9.388206154988465"><ele>696.0</ele><time>2026-04-29T15:08:00Z</time></trkpt><trkpt lat="44.52641754130738" lon="9.388130695297129"><ele>696.0</ele><time>2026-04-29T15:08:01Z</time></trkpt><trkpt lat="44.526319278775006" lon="9.388061723636344"><ele>696.0</ele><time>2026-04-29T15:08:02Z</time></trkpt><trkpt lat="44.5261925827894" lon="9.387970972177301"><ele>696.0</ele><time>2026-04-29T15:08:03Z</time></trkpt><trkpt lat="44.526083907690975" lon="9.38788564144084"><ele>696.0</ele><time>2026-04-29T15:08:04Z</time></trkpt><trkpt lat="44.5259879720284" lon="9.387813124923314"><ele>698.6666666666666</ele><time>2026-04-29T15:08:05Z</time></trkpt><trkpt lat="44.52590956011933" lon="9.387738313294355"><ele>701.3333333333334</ele><time>2026-04-29T15:08:06Z</time></trkpt><trkpt lat="44.52584863471909" lon="9.387675081157157"><ele>704.0</ele><time>2026-04-29T15:08:07Z</time></trkpt><trkpt lat="44.525812086909305" lon="9.387599886952707"><ele>706.6666666666667</ele><time>2026-04-29T15:08:08Z</time></trkpt><trkpt lat="44.525781866134174" lon="9.387486757974406"><ele>709.3333333333334</ele><time>2026-04-29T15:08:09Z</time></trkpt><trkpt lat="44.52576513933054" lon="9.387350692055989"><ele>712.0</ele><time>2026-04-29T15:08:10Z</time></trkpt><trkpt lat="44.5257649163004" lon="9.387239225922169"><ele>712.4000000000001</ele><time>2026-04-29T15:08:11Z</time></trkpt><trkpt lat="44.52576613773547" lon="9.387089723361303"><ele>712.8000000000001</ele><time>2026-04-29T15:08:12Z</time></trkpt><trkpt lat="44.525788890725096" lon="9.38696286386723"><ele>713.2</ele><time>2026-04-29T15:08:13Z</time></trkpt><trkpt lat="44.52581069818982" lon="9.38683178518832"><ele>713.6</ele><time>2026-04-29T15:08:13.999Z</time></trkpt><trkpt lat="44.5258308686881" lon="9.386701562580289"><ele>714.0</ele><time>2026-04-29T15:08:14.999Z</time></trkpt><trkpt lat="44.52583928703166" lon="9.386595994159824"><ele>714.0</ele><time>2026-04-29T15:08:15.999Z</time></trkpt><trkpt lat="44.52586958790909" lon="9.386510575751617"><ele>714.0</ele><time>2026-04-29T15:08:16.999Z</time></trkpt><trkpt lat="44.52587133992068" lon="9.386408900446368"><ele>714.0</ele><time>2026-04-29T15:08:18.999Z</time></trkpt><trkpt lat="44.52589141113393" lon="9.386287739750186"><ele>714.0</ele><time>2026-04-29T15:08:21.999Z</time></trkpt><trkpt lat="44.52596272640336" lon="9.386111731858815"><ele>714.0</ele><time>2026-04-29T15:08:23.999Z</time></trkpt><trkpt lat="44.52601197259535" lon="9.38601025128844"><ele>715.0</ele><time>2026-04-29T15:08:24.999Z</time></trkpt><trkpt lat="44.52604130242895" lon="9.38590049248196"><ele>716.0</ele><time>2026-04-29T15:08:25.999Z</time></trkpt><trkpt lat="44.52605734831106" lon="9.385780906672817"><ele>717.0</ele><time>2026-04-29T15:08:26.999Z</time></trkpt><trkpt lat="44.526070188458284" lon="9.385670295817901"><ele>718.0</ele><time>2026-04-29T15:08:27.999Z</time></trkpt><trkpt lat="44.52606419195367" lon="9.385572752597735"><ele>719.0</ele><time>2026-04-29T15:08:28.999Z</time></trkpt><trkpt lat="44.52605827204983" lon="9.385472185491114"><ele>720.0</ele><time>2026-04-29T15:08:29.999Z</time></trkpt><trkpt lat="44.52603380952166" lon="9.385373726888147"><ele>718.0</ele><time>2026-04-29T15:08:30.999Z</time></trkpt><trkpt lat="44.526002215742366" lon="9.385281363943989"><ele>716.0</ele><time>2026-04-29T15:08:31.999Z</time></trkpt><trkpt lat="44.52595497737844" lon="9.385193248948777"><ele>714.0</ele><time>2026-04-29T15:08:32.999Z</time></trkpt><trkpt lat="44.52589193976405" lon="9.385138530606875"><ele>712.0</ele><time>2026-04-29T15:08:33.999Z</time></trkpt><trkpt lat="44.525806331605615" lon="9.385060646145956"><ele>710.0</ele><time>2026-04-29T15:08:34.999Z</time></trkpt><trkpt lat="44.525727695191684" lon="9.38501933984157"><ele>708.0</ele><time>2026-04-29T15:08:35.999Z</time></trkpt><trkpt lat="44.52563833078882" lon="9.38501702958945"><ele>708.0</ele><time>2026-04-29T15:08:36.999Z</time></trkpt><trkpt lat="44.525533345303245" lon="9.385047424042941"><ele>708.0</ele><time>2026-04-29T15:08:37.999Z</time></trkpt><trkpt lat="44.52544112285381" lon="9.385084039418915"><ele>708.0</ele><time>2026-04-29T15:08:38.999Z</time></trkpt><trkpt lat="44.52533121766823" lon="9.385134177071555"><ele>708.0</ele><time>2026-04-29T15:08:39.999Z</time></trkpt><trkpt lat="44.52523408557363" lon="9.38518194808697"><ele>708.0</ele><time>2026-04-29T15:08:41Z</time></trkpt><trkpt lat="44.52512630085405" lon="9.385222805480025"><ele>708.25</ele><time>2026-04-29T15:08:42Z</time></trkpt><trkpt lat="44.525018966551585" lon="9.385222324266454"><ele>708.5</ele><time>2026-04-29T15:08:43Z</time></trkpt><trkpt lat="44.524883406267" lon="9.385203088329629"><ele>708.75</ele><time>2026-04-29T15:08:44Z</time></trkpt><trkpt lat="44.52474613231445" lon="9.385149353452732"><ele>709.0</ele><time>2026-04-29T15:08:45Z</time></trkpt><trkpt lat="44.52460415153395" lon="9.385090932746584"><ele>712.25</ele><time>2026-04-29T15:08:46Z</time></trkpt><trkpt lat="44.52446187866605" lon="9.38502132254441"><ele>715.5</ele><time>2026-04-29T15:08:47Z</time></trkpt><trkpt lat="44.52435021307429" lon="9.384933306534178"><ele>718.75</ele><time>2026-04-29T15:08:48Z</time></trkpt><trkpt lat="44.52424234830749" lon="9.384874343636627"><ele>722.0</ele><time>2026-04-29T15:08:49Z</time></trkpt><trkpt lat="44.524134299510266" lon="9.384772182543403"><ele>714.0</ele><time>2026-04-29T15:08:50Z</time></trkpt><trkpt lat="44.52403652283647" lon="9.384663608094101"><ele>706.0</ele><time>2026-04-29T15:08:51Z</time></trkpt><trkpt lat="44.52393253577781" lon="9.384499077113267"><ele>698.0</ele><time>2026-04-29T15:08:52Z</time></trkpt><trkpt lat="44.52380420564722" lon="9.384321447276742"><ele>701.3333333333333</ele><time>2026-04-29T15:08:53Z</time></trkpt><trkpt lat="44.52369291004308" lon="9.384118729289172"><ele>704.6666666666666</ele><time>2026-04-29T15:08:54Z</time></trkpt><trkpt lat="44.52356836446428" lon="9.383904099695277"><ele>708.0</ele><time>2026-04-29T15:08:55Z</time></trkpt><trkpt lat="44.52347000647169" lon="9.383697688283023"><ele>708.0</ele><time>2026-04-29T15:08:56Z</time></trkpt><trkpt lat="44.52339258738595" lon="9.383517428608862"><ele>708.0</ele><time>2026-04-29T15:08:57Z</time></trkpt><trkpt lat="44.52333242882333" lon="9.38337759059946"><ele>708.0</ele><time>2026-04-29T15:08:58Z</time></trkpt><trkpt lat="44.523284114488916" lon="9.383271991651602"><ele>708.0</ele><time>2026-04-29T15:08:59Z</time></trkpt><trkpt lat="44.523250161342006" lon="9.383181372863541"><ele>708.0</ele><time>2026-04-29T15:09:00Z</time></trkpt><trkpt lat="44.523246751414284" lon="9.383038595906527"><ele>707.25</ele><time>2026-04-29T15:09:02Z</time></trkpt><trkpt lat="44.523300666094" lon="9.382895857580445"><ele>706.5</ele><time>2026-04-29T15:09:03Z</time></trkpt><trkpt lat="44.52337170976454" lon="9.382794887150101"><ele>705.75</ele><time>2026-04-29T15:09:04Z</time></trkpt><trkpt lat="44.52345316476367" lon="9.382667025919144"><ele>705.0</ele><time>2026-04-29T15:09:05Z</time></trkpt><trkpt lat="44.523548879590045" lon="9.382514011634273"><ele>705.0</ele><time>2026-04-29T15:09:06Z</time></trkpt><trkpt lat="44.52365859424201" lon="9.38234875742083"><ele>705.0</ele><time>2026-04-29T15:09:07Z</time></trkpt><trkpt lat="44.52376145326643" lon="9.382199366689282"><ele>705.0</ele><time>2026-04-29T15:09:08Z</time></trkpt><trkpt lat="44.52387683150808" lon="9.382014153135305"><ele>703.0</ele><time>2026-04-29T15:09:09Z</time></trkpt><trkpt lat="44.52400430825333" lon="9.381809242378798"><ele>701.0</ele><time>2026-04-29T15:09:10Z</time></trkpt><trkpt lat="44.52414451266234" lon="9.381601482193815"><ele>699.0</ele><time>2026-04-29T15:09:11Z</time></trkpt><trkpt lat="44.524280078357314" lon="9.381397201693721"><ele>699.0</ele><time>2026-04-29T15:09:12Z</time></trkpt><trkpt lat="44.52441442240902" lon="9.381201205269152"><ele>699.0</ele><time>2026-04-29T15:09:13Z</time></trkpt><trkpt lat="44.52454879602487" lon="9.381011114434056"><ele>699.0</ele><time>2026-04-29T15:09:14Z</time></trkpt><trkpt lat="44.5246807489248" lon="9.380826935031564"><ele>699.0</ele><time>2026-04-29T15:09:15Z</time></trkpt><trkpt lat="44.52480475954413" lon="9.380634533173472"><ele>699.0</ele><time>2026-04-29T15:09:16Z</time></trkpt><trkpt lat="44.52493465324807" lon="9.380441798502211"><ele>699.0</ele><time>2026-04-29T15:09:17Z</time></trkpt><trkpt lat="44.525051053317455" lon="9.380257813538714"><ele>700.25</ele><time>2026-04-29T15:09:18Z</time></trkpt><trkpt lat="44.52514297159705" lon="9.380111731444694"><ele>701.5</ele><time>2026-04-29T15:09:19Z</time></trkpt><trkpt lat="44.525224891281404" lon="9.37996909504775"><ele>702.75</ele><time>2026-04-29T15:09:20Z</time></trkpt><trkpt lat="44.52529097703716" lon="9.379817571829971"><ele>704.0</ele><time>2026-04-29T15:09:21Z</time></trkpt><trkpt lat="44.52535752101249" lon="9.379648043115266"><ele>704.0</ele><time>2026-04-29T15:09:22Z</time></trkpt><trkpt lat="44.525420735289806" lon="9.379474047937121"><ele>704.0</ele><time>2026-04-29T15:09:23Z</time></trkpt><trkpt lat="44.52548543497034" lon="9.379309089083463"><ele>704.0</ele><time>2026-04-29T15:09:24Z</time></trkpt><trkpt lat="44.525526084639644" lon="9.379156653909442"><ele>704.0</ele><time>2026-04-29T15:09:25Z</time></trkpt><trkpt lat="44.525564603041005" lon="9.379034396367091"><ele>704.0</ele><time>2026-04-29T15:09:26Z</time></trkpt><trkpt lat="44.525597015010696" lon="9.378928788720048"><ele>704.0</ele><time>2026-04-29T15:09:27Z</time></trkpt><trkpt lat="44.52561539272989" lon="9.378835628813732"><ele>704.0</ele><time>2026-04-29T15:09:28Z</time></trkpt><trkpt lat="44.52561015891953" lon="9.378729803806365"><ele>704.0</ele><time>2026-04-29T15:09:29Z</time></trkpt><trkpt lat="44.525582389269545" lon="9.378624131594352"><ele>704.0</ele><time>2026-04-29T15:09:30Z</time></trkpt><trkpt lat="44.52553038078344" lon="9.378526222207151"><ele>704.0</ele><time>2026-04-29T15:09:31Z</time></trkpt><trkpt lat="44.52546411115699" lon="9.37845065008403"><ele>704.5</ele><time>2026-04-29T15:09:32Z</time></trkpt><trkpt lat="44.525385037998056" lon="9.37838196038259"><ele>705.0</ele><time>2026-04-29T15:09:33Z</time></trkpt><trkpt lat="44.52530190430997" lon="9.378321290450202"><ele>705.5</ele><time>2026-04-29T15:09:34Z</time></trkpt><trkpt lat="44.52523144447529" lon="9.378279268225926"><ele>706.0</ele><time>2026-04-29T15:09:35Z</time></trkpt><trkpt lat="44.52517133107704" lon="9.378239013834342"><ele>706.5</ele><time>2026-04-29T15:09:36Z</time></trkpt><trkpt lat="44.52510880163458" lon="9.378203258610206"><ele>707.0</ele><time>2026-04-29T15:09:38Z</time></trkpt><trkpt lat="44.525040290125695" lon="9.378145021132172"><ele>707.0</ele><time>2026-04-29T15:12:04Z</time></trkpt><trkpt lat="44.52497653573366" lon="9.378113682838986"><ele>707.0</ele><time>2026-04-29T15:12:05Z</time></trkpt><trkpt lat="44.524897400005194" lon="9.378056316815957"><ele>707.0</ele><time>2026-04-29T15:12:06Z</time></trkpt><trkpt lat="44.5247907273715" lon="9.377973729759129"><ele>707.0</ele><time>2026-04-29T15:12:07Z</time></trkpt><trkpt lat="44.52467461693642" lon="9.377898557619254"><ele>707.0</ele><time>2026-04-29T15:12:08Z</time></trkpt><trkpt lat="44.52457724875703" lon="9.377814226078716"><ele>708.0</ele><time>2026-04-29T15:12:09Z</time></trkpt><trkpt lat="44.52448577773279" lon="9.3777414317244"><ele>709.0</ele><time>2026-04-29T15:12:10Z</time></trkpt><trkpt lat="44.52438102647246" lon="9.377652892523741"><ele>710.0</ele><time>2026-04-29T15:12:11Z</time></trkpt><trkpt lat="44.524273593463306" lon="9.377552285195003"><ele>711.0</ele><time>2026-04-29T15:12:12Z</time></trkpt><trkpt lat="44.524169167096716" lon="9.377446351521524"><ele>711.0</ele><time>2026-04-29T15:12:13Z</time></trkpt><trkpt lat="44.52406627712216" lon="9.377330428860388"><ele>711.0</ele><time>2026-04-29T15:12:14Z</time></trkpt><trkpt lat="44.52394095485538" lon="9.377231751979203"><ele>711.0</ele><time>2026-04-29T15:12:15Z</time></trkpt><trkpt lat="44.52380493660402" lon="9.377156605849805"><ele>711.0</ele><time>2026-04-29T15:12:16Z</time></trkpt><trkpt lat="44.52366597335652" lon="9.377080801579119"><ele>715.3333333333334</ele><time>2026-04-29T15:12:17Z</time></trkpt><trkpt lat="44.52351649810422" lon="9.37699513104543"><ele>719.6666666666667</ele><time>2026-04-29T15:12:18Z</time></trkpt><trkpt lat="44.52335940491462" lon="9.376894919606903"><ele>724.0</ele><time>2026-04-29T15:12:18.999Z</time></trkpt><trkpt lat="44.52322234984038" lon="9.376790972850682"><ele>724.0</ele><time>2026-04-29T15:12:19.999Z</time></trkpt><trkpt lat="44.52308313931748" lon="9.376735218378421"><ele>724.0</ele><time>2026-04-29T15:12:20.999Z</time></trkpt><trkpt lat="44.522953636215625" lon="9.376674008016836"><ele>724.0</ele><time>2026-04-29T15:12:21.999Z</time></trkpt><trkpt lat="44.5228145483878" lon="9.3765971878278"><ele>724.0</ele><time>2026-04-29T15:12:22.999Z</time></trkpt><trkpt lat="44.52266696413097" lon="9.376546928664935"><ele>721.0</ele><time>2026-04-29T15:12:23.999Z</time></trkpt><trkpt lat="44.522495774264954" lon="9.376503614207781"><ele>718.0</ele><time>2026-04-29T15:12:24.999Z</time></trkpt><trkpt lat="44.52233242929346" lon="9.376466049429856"><ele>715.0</ele><time>2026-04-29T15:12:25.999Z</time></trkpt><trkpt lat="44.52215722558922" lon="9.376427912257066"><ele>714.0</ele><time>2026-04-29T15:12:26.999Z</time></trkpt><trkpt lat="44.521979780256586" lon="9.376386896243746"><ele>713.0</ele><time>2026-04-29T15:12:27.999Z</time></trkpt><trkpt lat="44.52181100235987" lon="9.376346313964921"><ele>712.0</ele><time>2026-04-29T15:12:28.999Z</time></trkpt><trkpt lat="44.52165352325113" lon="9.37630739057043"><ele>716.6666666666667</ele><time>2026-04-29T15:12:29.999Z</time></trkpt><trkpt lat="44.52149782022451" lon="9.37626869684647"><ele>721.3333333333334</ele><time>2026-04-29T15:12:30.999Z</time></trkpt><trkpt lat="44.521351213139766" lon="9.376226900190272"><ele>726.0</ele><time>2026-04-29T15:12:31.999Z</time></trkpt><trkpt lat="44.521208008063525" lon="9.376199851923044"><ele>726.0</ele><time>2026-04-29T15:12:32.999Z</time></trkpt><trkpt lat="44.52105694770749" lon="9.37612812999498"><ele>726.0</ele><time>2026-04-29T15:12:33.999Z</time></trkpt><trkpt lat="44.52091152322267" lon="9.376076895238276"><ele>726.0</ele><time>2026-04-29T15:12:34.999Z</time></trkpt><trkpt lat="44.52077571061466" lon="9.37601964894765"><ele>726.0</ele><time>2026-04-29T15:12:35.999Z</time></trkpt><trkpt lat="44.52065366968325" lon="9.375977920151442"><ele>726.0</ele><time>2026-04-29T15:12:36.999Z</time></trkpt><trkpt lat="44.520558524760986" lon="9.375947014261875"><ele>726.0</ele><time>2026-04-29T15:12:37.999Z</time></trkpt><trkpt lat="44.520473285466295" lon="9.375918332408201"><ele>726.0</ele><time>2026-04-29T15:12:38.999Z</time></trkpt><trkpt lat="44.52039094279045" lon="9.375902397014036"><ele>726.0</ele><time>2026-04-29T15:12:39.999Z</time></trkpt><trkpt lat="44.52033056737797" lon="9.375838233231232"><ele>724.0</ele><time>2026-04-29T15:12:40.999Z</time></trkpt><trkpt lat="44.520286215510176" lon="9.375761053894312"><ele>722.0</ele><time>2026-04-29T15:12:41.999Z</time></trkpt><trkpt lat="44.52025942734387" lon="9.37566045193807"><ele>720.0</ele><time>2026-04-29T15:12:42.999Z</time></trkpt><trkpt lat="44.52025536335189" lon="9.375562863701461"><ele>718.0</ele><time>2026-04-29T15:12:43.999Z</time></trkpt><trkpt lat="44.52028408082346" lon="9.37545750966526"><ele>716.0</ele><time>2026-04-29T15:12:44.999Z</time></trkpt><trkpt lat="44.520313793839826" lon="9.3753364017938"><ele>714.0</ele><time>2026-04-29T15:12:45.999Z</time></trkpt><trkpt lat="44.5203769585116" lon="9.375211027115903"><ele>719.4000000000001</ele><time>2026-04-29T15:12:46.999Z</time></trkpt><trkpt lat="44.52041968783312" lon="9.375086586550458"><ele>724.8</ele><time>2026-04-29T15:12:47.999Z</time></trkpt><trkpt lat="44.52044148025852" lon="9.374959253325903"><ele>730.2</ele><time>2026-04-29T15:12:48.999Z</time></trkpt><trkpt lat="44.520454737921796" lon="9.37481298021704"><ele>735.5999999999999</ele><time>2026-04-29T15:12:49.999Z</time></trkpt><trkpt lat="44.52044966966951" lon="9.374652899852263"><ele>741.0</ele><time>2026-04-29T15:12:50.999Z</time></trkpt><trkpt lat="44.52040172326803" lon="9.374499192255753"><ele>736.5</ele><time>2026-04-29T15:12:51.999Z</time></trkpt><trkpt lat="44.52035308247491" lon="9.37435953718546"><ele>732.0</ele><time>2026-04-29T15:12:53Z</time></trkpt><trkpt lat="44.52028604684038" lon="9.374218783475108"><ele>727.5</ele><time>2026-04-29T15:12:54Z</time></trkpt><trkpt lat="44.5201881707462" lon="9.374075187085957"><ele>723.0</ele><time>2026-04-29T15:12:55Z</time></trkpt><trkpt lat="44.52009309833108" lon="9.373921448557763"><ele>731.0</ele><time>2026-04-29T15:12:56Z</time></trkpt><trkpt lat="44.51996621498643" lon="9.373782263699434"><ele>739.0</ele><time>2026-04-29T15:12:57Z</time></trkpt><trkpt lat="44.5198375085642" lon="9.373628448022908"><ele>747.0</ele><time>2026-04-29T15:12:58Z</time></trkpt><trkpt lat="44.5196958022256" lon="9.373508772582996"><ele>747.0</ele><time>2026-04-29T15:12:59Z</time></trkpt><trkpt lat="44.51957072629582" lon="9.37340742923167"><ele>747.0</ele><time>2026-04-29T15:13:00Z</time></trkpt><trkpt lat="44.51946110419194" lon="9.373313327092758"><ele>747.0</ele><time>2026-04-29T15:13:01Z</time></trkpt><trkpt lat="44.519372554394394" lon="9.37322361770519"><ele>747.0</ele><time>2026-04-29T15:13:02Z</time></trkpt><trkpt lat="44.51929364247533" lon="9.373109558808757"><ele>744.25</ele><time>2026-04-29T15:13:03Z</time></trkpt><trkpt lat="44.51920735629736" lon="9.372956732454938"><ele>741.5</ele><time>2026-04-29T15:13:04Z</time></trkpt><trkpt lat="44.51912169790355" lon="9.372800513436"><ele>738.75</ele><time>2026-04-29T15:13:05Z</time></trkpt><trkpt lat="44.519045481112784" lon="9.372627847499132"><ele>736.0</ele><time>2026-04-29T15:13:06Z</time></trkpt><trkpt lat="44.51897645247331" lon="9.372472921785736"><ele>736.0</ele><time>2026-04-29T15:13:07Z</time></trkpt><trkpt lat="44.51890389680654" lon="9.372355878657189"><ele>736.0</ele><time>2026-04-29T15:13:08Z</time></trkpt><trkpt lat="44.518816988601564" lon="9.372270096086876"><ele>736.0</ele><time>2026-04-29T15:13:09Z</time></trkpt><trkpt lat="44.51870724008861" lon="9.37221805623645"><ele>736.0</ele><time>2026-04-29T15:13:10Z</time></trkpt><trkpt lat="44.51857462572023" lon="9.372157352994508"><ele>731.6666666666667</ele><time>2026-04-29T15:13:11Z</time></trkpt><trkpt lat="44.5184245948007" lon="9.372128138683824"><ele>727.3333333333334</ele><time>2026-04-29T15:13:12Z</time></trkpt><trkpt lat="44.51826133929263" lon="9.372116826044763"><ele>723.0</ele><time>2026-04-29T15:13:13Z</time></trkpt><trkpt lat="44.518086511779885" lon="9.37207326010398"><ele>723.0</ele><time>2026-04-29T15:13:14Z</time></trkpt><trkpt lat="44.51790777677913" lon="9.37203387938068"><ele>723.0</ele><time>2026-04-29T15:13:15Z</time></trkpt><trkpt lat="44.51773369772024" lon="9.371993608721942"><ele>723.0</ele><time>2026-04-29T15:13:16Z</time></trkpt><trkpt lat="44.51755176824767" lon="9.371956265924956"><ele>722.3333333333334</ele><time>2026-04-29T15:13:17Z</time></trkpt><trkpt lat="44.5173719508084" lon="9.371920115242693"><ele>721.6666666666667</ele><time>2026-04-29T15:13:18Z</time></trkpt><trkpt lat="44.517192241117435" lon="9.37188134368248"><ele>721.0</ele><time>2026-04-29T15:13:19Z</time></trkpt><trkpt lat="44.51702498216269" lon="9.37184448190461"><ele>721.0</ele><time>2026-04-29T15:13:20Z</time></trkpt><trkpt lat="44.5168784139367" lon="9.371810138798313"><ele>721.0</ele><time>2026-04-29T15:13:21Z</time></trkpt><trkpt lat="44.516750728659886" lon="9.371782924406812"><ele>721.0</ele><time>2026-04-29T15:13:22Z</time></trkpt><trkpt lat="44.51662958092459" lon="9.371759441580455"><ele>721.0</ele><time>2026-04-29T15:13:23Z</time></trkpt><trkpt lat="44.51651916968734" lon="9.371722393543333"><ele>721.0</ele><time>2026-04-29T15:13:24Z</time></trkpt><trkpt lat="44.51641133395305" lon="9.371650597866378"><ele>721.0</ele><time>2026-04-29T15:13:25Z</time></trkpt><trkpt lat="44.51630457831781" lon="9.371545569618545"><ele>721.0</ele><time>2026-04-29T15:13:26Z</time></trkpt><trkpt lat="44.516192277144825" lon="9.371410351505453"><ele>721.0</ele><time>2026-04-29T15:13:27Z</time></trkpt><trkpt lat="44.516078463252704" lon="9.371251972450738"><ele>724.3333333333334</ele><time>2026-04-29T15:13:28Z</time></trkpt><trkpt lat="44.51597282200174" lon="9.371069110771689"><ele>727.6666666666666</ele><time>2026-04-29T15:13:29Z</time></trkpt><trkpt lat="44.51586529768017" lon="9.37085470602566"><ele>731.0</ele><time>2026-04-29T15:13:30Z</time></trkpt><trkpt lat="44.515761375947875" lon="9.370650427492636"><ele>727.3333333333333</ele><time>2026-04-29T15:13:31Z</time></trkpt><trkpt lat="44.51564447536462" lon="9.370430001461086"><ele>723.6666666666666</ele><time>2026-04-29T15:13:32Z</time></trkpt><trkpt lat="44.515533713291646" lon="9.3702000227254"><ele>720.0</ele><time>2026-04-29T15:13:33Z</time></trkpt><trkpt lat="44.5154201547158" lon="9.369962960451192"><ele>724.3333333333334</ele><time>2026-04-29T15:13:34Z</time></trkpt><trkpt lat="44.51530528204167" lon="9.369737653939868"><ele>728.6666666666667</ele><time>2026-04-29T15:13:35Z</time></trkpt><trkpt lat="44.51519356535163" lon="9.369549703301454"><ele>733.0</ele><time>2026-04-29T15:13:36Z</time></trkpt><trkpt lat="44.51511063059946" lon="9.36934513178427"><ele>733.0</ele><time>2026-04-29T15:13:37Z</time></trkpt><trkpt lat="44.51502487701404" lon="9.369171120585314"><ele>733.0</ele><time>2026-04-29T15:13:38Z</time></trkpt><trkpt lat="44.51493174197612" lon="9.369014038730887"><ele>733.0</ele><time>2026-04-29T15:13:39Z</time></trkpt><trkpt lat="44.514847333793796" lon="9.36888575355845"><ele>733.0</ele><time>2026-04-29T15:13:40Z</time></trkpt><trkpt lat="44.514786923327094" lon="9.368809788439597"><ele>734.75</ele><time>2026-04-29T15:13:41Z</time></trkpt><trkpt lat="44.514703559926126" lon="9.368749448268058"><ele>736.5</ele><time>2026-04-29T15:13:42Z</time></trkpt><trkpt lat="44.514565650074886" lon="9.368639952195993"><ele>738.25</ele><time>2026-04-29T15:13:43Z</time></trkpt><trkpt lat="44.514429742918665" lon="9.368505070917184"><ele>740.0</ele><time>2026-04-29T15:13:44Z</time></trkpt><trkpt lat="44.51428468342569" lon="9.368363859683075"><ele>740.0</ele><time>2026-04-29T15:13:45Z</time></trkpt><trkpt lat="44.51411830312433" lon="9.368216453450005"><ele>740.0</ele><time>2026-04-29T15:13:46Z</time></trkpt><trkpt lat="44.51394170597099" lon="9.368070122847495"><ele>740.0</ele><time>2026-04-29T15:13:47Z</time></trkpt><trkpt lat="44.51378150077914" lon="9.367931402226095"><ele>741.3333333333333</ele><time>2026-04-29T15:13:48Z</time></trkpt><trkpt lat="44.51363457116272" lon="9.367800229696638"><ele>742.6666666666666</ele><time>2026-04-29T15:13:49Z</time></trkpt><trkpt lat="44.51349854890934" lon="9.367677085373288"><ele>744.0</ele><time>2026-04-29T15:13:50Z</time></trkpt><trkpt lat="44.51337483460292" lon="9.367566396152545"><ele>744.0</ele><time>2026-04-29T15:13:51Z</time></trkpt><trkpt lat="44.513285961126954" lon="9.367479267767415"><ele>744.0</ele><time>2026-04-29T15:13:52Z</time></trkpt><trkpt lat="44.513220676313914" lon="9.367410114939434"><ele>744.0</ele><time>2026-04-29T15:13:53Z</time></trkpt><trkpt lat="44.51314929157843" lon="9.36725701297467"><ele>744.0</ele><time>2026-04-29T15:13:55Z</time></trkpt><trkpt lat="44.513111599676826" lon="9.367138048129753"><ele>744.0</ele><time>2026-04-29T15:13:56Z</time></trkpt><trkpt lat="44.51306274563475" lon="9.367014082200456"><ele>740.5</ele><time>2026-04-29T15:13:57Z</time></trkpt><trkpt lat="44.51302346388073" lon="9.366887527914685"><ele>737.0</ele><time>2026-04-29T15:13:58Z</time></trkpt><trkpt lat="44.512961888567204" lon="9.366736259755479"><ele>733.5</ele><time>2026-04-29T15:13:59Z</time></trkpt><trkpt lat="44.512883574478025" lon="9.366579070982715"><ele>730.0</ele><time>2026-04-29T15:14:00Z</time></trkpt><trkpt lat="44.512790328108096" lon="9.366432077604836"><ele>733.75</ele><time>2026-04-29T15:14:01Z</time></trkpt><trkpt lat="44.51268871902631" lon="9.366277963334454"><ele>737.5</ele><time>2026-04-29T15:14:02Z</time></trkpt><trkpt lat="44.51258770668313" lon="9.366127996022977"><ele>741.25</ele><time>2026-04-29T15:14:03Z</time></trkpt><trkpt lat="44.51250065930802" lon="9.365994194401667"><ele>745.0</ele><time>2026-04-29T15:14:04Z</time></trkpt><trkpt lat="44.512409626109694" lon="9.365839268782123"><ele>745.0</ele><time>2026-04-29T15:14:05Z</time></trkpt><trkpt lat="44.512330084986864" lon="9.36565192627025"><ele>745.0</ele><time>2026-04-29T15:14:06Z</time></trkpt><trkpt lat="44.512274481729875" lon="9.36548539637411"><ele>745.0</ele><time>2026-04-29T15:14:07Z</time></trkpt><trkpt lat="44.51223993674663" lon="9.365359579426928"><ele>745.0</ele><time>2026-04-29T15:14:08Z</time></trkpt><trkpt lat="44.512206258960326" lon="9.365230270332649"><ele>743.25</ele><time>2026-04-29T15:14:09Z</time></trkpt><trkpt lat="44.51220286661145" lon="9.365082371617966"><ele>741.5</ele><time>2026-04-29T15:14:10Z</time></trkpt><trkpt lat="44.512229592406456" lon="9.3649125456407"><ele>739.75</ele><time>2026-04-29T15:14:11Z</time></trkpt><trkpt lat="44.51227355071458" lon="9.364727986035067"><ele>738.0</ele><time>2026-04-29T15:14:12Z</time></trkpt><trkpt lat="44.512300376898565" lon="9.364519997022272"><ele>738.0</ele><time>2026-04-29T15:14:13Z</time></trkpt><trkpt lat="44.512276909728456" lon="9.364309043059613"><ele>738.0</ele><time>2026-04-29T15:14:14Z</time></trkpt><trkpt lat="44.51225436316355" lon="9.364105518619267"><ele>738.0</ele><time>2026-04-29T15:14:15Z</time></trkpt><trkpt lat="44.51221784029296" lon="9.363923091344947"><ele>738.0</ele><time>2026-04-29T15:14:16Z</time></trkpt><trkpt lat="44.51216771243213" lon="9.363767874138563"><ele>737.8333333333334</ele><time>2026-04-29T15:14:17Z</time></trkpt><trkpt lat="44.51209901189806" lon="9.363647101731742"><ele>737.6666666666666</ele><time>2026-04-29T15:14:18Z</time></trkpt><trkpt lat="44.51202509250634" lon="9.363553864578554"><ele>737.5</ele><time>2026-04-29T15:14:19Z</time></trkpt><trkpt lat="44.51196516052186" lon="9.36348072314426"><ele>737.3333333333333</ele><time>2026-04-29T15:14:20.999Z</time></trkpt><trkpt lat="44.511925685208816" lon="9.363401737371518"><ele>737.1666666666666</ele><time>2026-04-29T15:14:21.999Z</time></trkpt><trkpt lat="44.51191152008028" lon="9.363302729837118"><ele>737.0</ele><time>2026-04-29T15:14:22.999Z</time></trkpt><trkpt lat="44.51191469234834" lon="9.363183636673083"><ele>737.5</ele><time>2026-04-29T15:14:23.999Z</time></trkpt><trkpt lat="44.51194758026426" lon="9.3630483498881"><ele>738.0</ele><time>2026-04-29T15:14:24.999Z</time></trkpt><trkpt lat="44.51198465717102" lon="9.362870128582735"><ele>738.5</ele><time>2026-04-29T15:14:25.999Z</time></trkpt><trkpt lat="44.51203847207976" lon="9.362680398469028"><ele>739.0</ele><time>2026-04-29T15:14:26.999Z</time></trkpt><trkpt lat="44.51208604309578" lon="9.362507361996933"><ele>739.0</ele><time>2026-04-29T15:14:27.999Z</time></trkpt><trkpt lat="44.512120991147924" lon="9.362371459227607"><ele>739.0</ele><time>2026-04-29T15:14:28.999Z</time></trkpt><trkpt lat="44.51213984203468" lon="9.362249799821539"><ele>739.0</ele><time>2026-04-29T15:14:29.999Z</time></trkpt><trkpt lat="44.512142014845345" lon="9.362130451679885"><ele>739.0</ele><time>2026-04-29T15:14:30.999Z</time></trkpt><trkpt lat="44.51210918176543" lon="9.361994308753973"><ele>739.0</ele><time>2026-04-29T15:14:31.999Z</time></trkpt><trkpt lat="44.512060328155506" lon="9.361830403206268"><ele>748.0</ele><time>2026-04-29T15:14:32.999Z</time></trkpt><trkpt lat="44.51201493420736" lon="9.36167001027481"><ele>757.0</ele><time>2026-04-29T15:14:33.999Z</time></trkpt><trkpt lat="44.511988291045924" lon="9.361517311357165"><ele>766.0</ele><time>2026-04-29T15:14:34.999Z</time></trkpt><trkpt lat="44.51198342965782" lon="9.361362624677025"><ele>775.0</ele><time>2026-04-29T15:14:35.999Z</time></trkpt><trkpt lat="44.51199614936621" lon="9.361210399678317"><ele>775.0</ele><time>2026-04-29T15:14:36.999Z</time></trkpt><trkpt lat="44.51203975149646" lon="9.361110365475058"><ele>775.0</ele><time>2026-04-29T15:14:37.999Z</time></trkpt><trkpt lat="44.51200858921856" lon="9.360990243987098"><ele>775.0</ele><time>2026-04-29T15:14:38.999Z</time></trkpt><trkpt lat="44.51198521966088" lon="9.360848538792172"><ele>775.0</ele><time>2026-04-29T15:14:39.999Z</time></trkpt><trkpt lat="44.51194980271793" lon="9.36071977255064"><ele>775.0</ele><time>2026-04-29T15:14:40.999Z</time></trkpt><trkpt lat="44.5118970807728" lon="9.36061287147125"><ele>774.9999999999999</ele><time>2026-04-29T15:14:41.999Z</time></trkpt><trkpt lat="44.51182623623537" lon="9.360540121160811"><ele>775.0</ele><time>2026-04-29T15:14:42.999Z</time></trkpt><trkpt lat="44.51172107138616" lon="9.360493345800858"><ele>775.0</ele><time>2026-04-29T15:14:43.999Z</time></trkpt><trkpt lat="44.511626517297486" lon="9.360458816082875"><ele>775.0</ele><time>2026-04-29T15:14:44.999Z</time></trkpt><trkpt lat="44.51155485370422" lon="9.360422915159807"><ele>774.9999999999999</ele><time>2026-04-29T15:14:45.999Z</time></trkpt><trkpt lat="44.511509054100244" lon="9.360355320542554"><ele>775.0</ele><time>2026-04-29T15:14:46.999Z</time></trkpt><trkpt lat="44.51148556354851" lon="9.360262469608221"><ele>774.8</ele><time>2026-04-29T15:14:47.999Z</time></trkpt><trkpt lat="44.511479762081635" lon="9.360158484239825"><ele>774.6</ele><time>2026-04-29T15:14:48.999Z</time></trkpt><trkpt lat="44.51149627326972" lon="9.360033076585731"><ele>774.4000000000001</ele><time>2026-04-29T15:14:49.999Z</time></trkpt><trkpt lat="44.51157410574152" lon="9.359930020747043"><ele>774.2</ele><time>2026-04-29T15:14:50.999Z</time></trkpt><trkpt lat="44.51161722782475" lon="9.359791470648426"><ele>774.0</ele><time>2026-04-29T15:14:51.999Z</time></trkpt><trkpt lat="44.51167690222624" lon="9.359645813659295"><ele>774.0</ele><time>2026-04-29T15:14:52.999Z</time></trkpt><trkpt lat="44.511722696351455" lon="9.359468198125922"><ele>774.0</ele><time>2026-04-29T15:14:53.999Z</time></trkpt><trkpt lat="44.51175645765354" lon="9.359333680287127"><ele>774.0</ele><time>2026-04-29T15:14:54.999Z</time></trkpt><trkpt lat="44.51178173597344" lon="9.359188409423783"><ele>774.0</ele><time>2026-04-29T15:14:55.999Z</time></trkpt><trkpt lat="44.51176770435939" lon="9.3589959470315"><ele>776.75</ele><time>2026-04-29T15:14:56.999Z</time></trkpt><trkpt lat="44.51175197859478" lon="9.358821987925333"><ele>779.5</ele><time>2026-04-29T15:14:57.999Z</time></trkpt><trkpt lat="44.51175064288875" lon="9.35867244798839"><ele>782.25</ele><time>2026-04-29T15:14:59Z</time></trkpt><trkpt lat="44.51178335222608" lon="9.358538110754003"><ele>785.0</ele><time>2026-04-29T15:15:00Z</time></trkpt><trkpt lat="44.51185026718547" lon="9.35838951966157"><ele>785.0</ele><time>2026-04-29T15:15:01Z</time></trkpt><trkpt lat="44.511916672915106" lon="9.358226097598322"><ele>785.0</ele><time>2026-04-29T15:15:02Z</time></trkpt><trkpt lat="44.51195318726139" lon="9.358055729049976"><ele>785.0</ele><time>2026-04-29T15:15:03Z</time></trkpt><trkpt lat="44.51197136278304" lon="9.357842404075313"><ele>785.0</ele><time>2026-04-29T15:15:04Z</time></trkpt><trkpt lat="44.51198909952528" lon="9.35762241498429"><ele>785.25</ele><time>2026-04-29T15:15:05Z</time></trkpt><trkpt lat="44.51199553812303" lon="9.357388044964397"><ele>785.5</ele><time>2026-04-29T15:15:06Z</time></trkpt><trkpt lat="44.512011041879354" lon="9.357197778936461"><ele>785.75</ele><time>2026-04-29T15:15:07Z</time></trkpt><trkpt lat="44.51201098800033" lon="9.357059467574034"><ele>786.0</ele><time>2026-04-29T15:15:08Z</time></trkpt><trkpt lat="44.51199780898657" lon="9.35693314038332"><ele>786.0</ele><time>2026-04-29T15:15:09Z</time></trkpt><trkpt lat="44.51195736834578" lon="9.356788249138393"><ele>786.0</ele><time>2026-04-29T15:15:10Z</time></trkpt><trkpt lat="44.51189539754077" lon="9.356655901721632"><ele>786.0</ele><time>2026-04-29T15:15:11Z</time></trkpt><trkpt lat="44.51180682948231" lon="9.35650650401378"><ele>786.0</ele><time>2026-04-29T15:15:12Z</time></trkpt><trkpt lat="44.51170951003654" lon="9.356344438887463"><ele>783.0</ele><time>2026-04-29T15:15:13Z</time></trkpt><trkpt lat="44.511605670615715" lon="9.356178365104059"><ele>780.0</ele><time>2026-04-29T15:15:14Z</time></trkpt><trkpt lat="44.51151077055856" lon="9.356023472729106"><ele>777.0</ele><time>2026-04-29T15:15:15Z</time></trkpt><trkpt lat="44.51142978315651" lon="9.35589727767292"><ele>774.0</ele><time>2026-04-29T15:15:16Z</time></trkpt><trkpt lat="44.511353993949974" lon="9.355802326631565"><ele>774.0</ele><time>2026-04-29T15:15:17Z</time></trkpt><trkpt lat="44.51129747028101" lon="9.355735958430309"><ele>774.0</ele><time>2026-04-29T15:15:18Z</time></trkpt><trkpt lat="44.51122179313676" lon="9.355688831252348"><ele>774.0</ele><time>2026-04-29T15:15:19Z</time></trkpt><trkpt lat="44.51111228309021" lon="9.355654222638375"><ele>774.0</ele><time>2026-04-29T15:15:20Z</time></trkpt><trkpt lat="44.5109722885561" lon="9.355622174560205"><ele>774.0</ele><time>2026-04-29T15:15:21Z</time></trkpt><trkpt lat="44.51082703662983" lon="9.355571326337062"><ele>776.4000000000001</ele><time>2026-04-29T15:15:22Z</time></trkpt><trkpt lat="44.510685208948026" lon="9.355541817644438"><ele>778.8</ele><time>2026-04-29T15:15:23Z</time></trkpt><trkpt lat="44.51057080621983" lon="9.355513784061854"><ele>781.2</ele><time>2026-04-29T15:15:24Z</time></trkpt><trkpt lat="44.510467187244295" lon="9.35549050013184"><ele>783.5999999999999</ele><time>2026-04-29T15:15:25Z</time></trkpt><trkpt lat="44.51039663686479" lon="9.355452140056528"><ele>786.0</ele><time>2026-04-29T15:15:26Z</time></trkpt><trkpt lat="44.510326643249876" lon="9.355390016834544"><ele>789.8</ele><time>2026-04-29T15:15:27Z</time></trkpt><trkpt lat="44.510260135701806" lon="9.355286802017675"><ele>793.5999999999999</ele><time>2026-04-29T15:15:28Z</time></trkpt><trkpt lat="44.51020696086256" lon="9.35515875415383"><ele>797.4</ele><time>2026-04-29T15:15:29Z</time></trkpt><trkpt lat="44.51016605719268" lon="9.355012202050373"><ele>801.2</ele><time>2026-04-29T15:15:30Z</time></trkpt><trkpt lat="44.51012570383195" lon="9.354861415661317"><ele>805.0</ele><time>2026-04-29T15:15:31Z</time></trkpt><trkpt lat="44.51007349923094" lon="9.35472856934119"><ele>802.8</ele><time>2026-04-29T15:15:32Z</time></trkpt><trkpt lat="44.510039019988874" lon="9.354600871148369"><ele>800.6</ele><time>2026-04-29T15:15:33Z</time></trkpt><trkpt lat="44.50999911144369" lon="9.354496235584458"><ele>798.4000000000001</ele><time>2026-04-29T15:15:34Z</time></trkpt><trkpt lat="44.50995116062434" lon="9.35441679426478"><ele>796.2</ele><time>2026-04-29T15:15:35Z</time></trkpt><trkpt lat="44.50987790378732" lon="9.3543493094476"><ele>794.0</ele><time>2026-04-29T15:15:36Z</time></trkpt><trkpt lat="44.509770111302245" lon="9.354311818734525"><ele>794.0</ele><time>2026-04-29T15:15:37Z</time></trkpt><trkpt lat="44.509629957558836" lon="9.35429242755363"><ele>794.0</ele><time>2026-04-29T15:15:38Z</time></trkpt><trkpt lat="44.50945705255067" lon="9.354278176757171"><ele>794.0</ele><time>2026-04-29T15:15:39Z</time></trkpt><trkpt lat="44.50929074836635" lon="9.354258334780736"><ele>797.6666666666667</ele><time>2026-04-29T15:15:40Z</time></trkpt><trkpt lat="44.509111362070485" lon="9.354230093208503"><ele>801.3333333333333</ele><time>2026-04-29T15:15:41Z</time></trkpt><trkpt lat="44.50896010133528" lon="9.354216379832977"><ele>805.0</ele><time>2026-04-29T15:15:42Z</time></trkpt><trkpt lat="44.50882404226836" lon="9.354202386050893"><ele>806.0</ele><time>2026-04-29T15:15:43Z</time></trkpt><trkpt lat="44.508705093442344" lon="9.354195544305616"><ele>807.0</ele><time>2026-04-29T15:15:44Z</time></trkpt><trkpt lat="44.50861370228841" lon="9.354225762806605"><ele>808.0</ele><time>2026-04-29T15:15:45Z</time></trkpt><trkpt lat="44.50851938611171" lon="9.354293275717069"><ele>809.0</ele><time>2026-04-29T15:15:46Z</time></trkpt><trkpt lat="44.50839853635414" lon="9.35440078081849"><ele>809.0</ele><time>2026-04-29T15:15:47Z</time></trkpt><trkpt lat="44.508266764689" lon="9.354546890228399"><ele>809.0</ele><time>2026-04-29T15:15:48Z</time></trkpt><trkpt lat="44.50812512055408" lon="9.354680588237482"><ele>809.0</ele><time>2026-04-29T15:15:49Z</time></trkpt><trkpt lat="44.50801256270252" lon="9.35480236302253"><ele>809.75</ele><time>2026-04-29T15:15:50Z</time></trkpt><trkpt lat="44.507898214074984" lon="9.354889876076934"><ele>810.5</ele><time>2026-04-29T15:15:51Z</time></trkpt><trkpt lat="44.50779448697518" lon="9.35495439591095"><ele>811.25</ele><time>2026-04-29T15:15:52Z</time></trkpt><trkpt lat="44.50769116937236" lon="9.355024602618037"><ele>812.0</ele><time>2026-04-29T15:15:53Z</time></trkpt><trkpt lat="44.50758309771399" lon="9.355085642887591"><ele>812.0</ele><time>2026-04-29T15:15:54Z</time></trkpt><trkpt lat="44.50748478846082" lon="9.35513098414431"><ele>812.0</ele><time>2026-04-29T15:15:55Z</time></trkpt><trkpt lat="44.507383835018835" lon="9.355156221562996"><ele>812.0</ele><time>2026-04-29T15:15:56Z</time></trkpt><trkpt lat="44.5072793288344" lon="9.35518452131946"><ele>812.0</ele><time>2026-04-29T15:15:57Z</time></trkpt><trkpt lat="44.50716156549814" lon="9.355204680447331"><ele>812.0</ele><time>2026-04-29T15:15:58Z</time></trkpt><trkpt lat="44.50703335053861" lon="9.35520547638345"><ele>812.5</ele><time>2026-04-29T15:15:59Z</time></trkpt><trkpt lat="44.506903338942564" lon="9.35519681227236"><ele>813.0</ele><time>2026-04-29T15:16:00Z</time></trkpt><trkpt lat="44.50676461923349" lon="9.355179861815381"><ele>813.5</ele><time>2026-04-29T15:16:01Z</time></trkpt><trkpt lat="44.50664477560244" lon="9.355168573635492"><ele>814.0</ele><time>2026-04-29T15:16:02Z</time></trkpt><trkpt lat="44.50653661692475" lon="9.355138839484036"><ele>814.0</ele><time>2026-04-29T15:16:03Z</time></trkpt><trkpt lat="44.506449845331204" lon="9.355095093984032"><ele>814.0</ele><time>2026-04-29T15:16:04Z</time></trkpt><trkpt lat="44.506351576907306" lon="9.355039210146952"><ele>814.0</ele><time>2026-04-29T15:16:05Z</time></trkpt><trkpt lat="44.50626931351344" lon="9.354923950564293"><ele>814.0</ele><time>2026-04-29T15:16:06Z</time></trkpt><trkpt lat="44.50616762600849" lon="9.354779383036336"><ele>813.6</ele><time>2026-04-29T15:16:07Z</time></trkpt><trkpt lat="44.50608994233486" lon="9.354608358588143"><ele>813.2</ele><time>2026-04-29T15:16:08Z</time></trkpt><trkpt lat="44.50602633678478" lon="9.354496798358356"><ele>812.8000000000001</ele><time>2026-04-29T15:16:09Z</time></trkpt><trkpt lat="44.505994942913006" lon="9.354370320668048"><ele>812.4000000000001</ele><time>2026-04-29T15:16:09.999Z</time></trkpt><trkpt lat="44.50595134095982" lon="9.35424630790315"><ele>812.0</ele><time>2026-04-29T15:16:10.999Z</time></trkpt><trkpt lat="44.50588656743687" lon="9.354158566151273"><ele>812.0</ele><time>2026-04-29T15:16:11.999Z</time></trkpt><trkpt lat="44.50580381064448" lon="9.354096122447736"><ele>812.0</ele><time>2026-04-29T15:16:12.999Z</time></trkpt><trkpt lat="44.505693347389524" lon="9.354063559981173"><ele>812.0</ele><time>2026-04-29T15:16:13.999Z</time></trkpt><trkpt lat="44.50555357579176" lon="9.353998992909403"><ele>812.0</ele><time>2026-04-29T15:16:14.999Z</time></trkpt><trkpt lat="44.50540588615481" lon="9.353987969122265"><ele>811.5</ele><time>2026-04-29T15:16:15.999Z</time></trkpt><trkpt lat="44.50527477394017" lon="9.353946248251354"><ele>811.0</ele><time>2026-04-29T15:16:16.999Z</time></trkpt><trkpt lat="44.505144158837126" lon="9.353864535466357"><ele>810.5</ele><time>2026-04-29T15:16:17.999Z</time></trkpt><trkpt lat="44.50501879470115" lon="9.353771881694684"><ele>810.0</ele><time>2026-04-29T15:16:18.999Z</time></trkpt><trkpt lat="44.504887958643174" lon="9.35368202625491"><ele>810.0</ele><time>2026-04-29T15:16:19.999Z</time></trkpt><trkpt lat="44.504752948038394" lon="9.353567710232777"><ele>810.0</ele><time>2026-04-29T15:16:20.999Z</time></trkpt><trkpt lat="44.504596039561136" lon="9.353482103821998"><ele>810.0</ele><time>2026-04-29T15:16:21.999Z</time></trkpt><trkpt lat="44.5044072649216" lon="9.353393242342898"><ele>810.0</ele><time>2026-04-29T15:16:22.999Z</time></trkpt><trkpt lat="44.50422982320225" lon="9.353311469326625"><ele>810.0</ele><time>2026-04-29T15:16:23.999Z</time></trkpt><trkpt lat="44.5040508732347" lon="9.353228104302648"><ele>810.0</ele><time>2026-04-29T15:16:24.999Z</time></trkpt><trkpt lat="44.50384772172254" lon="9.353125246352727"><ele>809.3333333333333</ele><time>2026-04-29T15:16:25.999Z</time></trkpt><trkpt lat="44.503642249260835" lon="9.353030566784234"><ele>808.6666666666666</ele><time>2026-04-29T15:16:26.999Z</time></trkpt><trkpt lat="44.50344365198934" lon="9.352939106763529"><ele>808.0</ele><time>2026-04-29T15:16:27.999Z</time></trkpt><trkpt lat="44.503270326385554" lon="9.352863338215526"><ele>808.0</ele><time>2026-04-29T15:16:28.999Z</time></trkpt><trkpt lat="44.503104837728465" lon="9.352788406384866"><ele>808.0</ele><time>2026-04-29T15:16:29.999Z</time></trkpt><trkpt lat="44.50294356624496" lon="9.352713102808426"><ele>808.0</ele><time>2026-04-29T15:16:30.999Z</time></trkpt><trkpt lat="44.50278349004382" lon="9.352643237432586"><ele>810.3333333333333</ele><time>2026-04-29T15:16:31.999Z</time></trkpt><trkpt lat="44.50262083899533" lon="9.352571376917458"><ele>812.6666666666667</ele><time>2026-04-29T15:16:32.999Z</time></trkpt><trkpt lat="44.5024688164667" lon="9.352508908834082"><ele>815.0</ele><time>2026-04-29T15:16:33.999Z</time></trkpt><trkpt lat="44.50232488526161" lon="9.352437564750552"><ele>815.0</ele><time>2026-04-29T15:16:34.999Z</time></trkpt><trkpt lat="44.50218209223322" lon="9.352357890510902"><ele>815.0</ele><time>2026-04-29T15:16:35.999Z</time></trkpt><trkpt lat="44.502054042993024" lon="9.352289098926665"><ele>815.0</ele><time>2026-04-29T15:16:36.999Z</time></trkpt><trkpt lat="44.50194929800317" lon="9.352198685343668"><ele>815.0</ele><time>2026-04-29T15:16:37.999Z</time></trkpt><trkpt lat="44.50184466935466" lon="9.352084183445251"><ele>814.3333333333334</ele><time>2026-04-29T15:16:38.999Z</time></trkpt><trkpt lat="44.50172801672481" lon="9.351943711522352"><ele>813.6666666666667</ele><time>2026-04-29T15:16:39.999Z</time></trkpt><trkpt lat="44.50161958363032" lon="9.351778579395694"><ele>813.0</ele><time>2026-04-29T15:16:40.999Z</time></trkpt><trkpt lat="44.501509280341374" lon="9.351599281392941"><ele>813.0</ele><time>2026-04-29T15:16:41.999Z</time></trkpt><trkpt lat="44.501398147230354" lon="9.351427580391814"><ele>813.0</ele><time>2026-04-29T15:16:42.999Z</time></trkpt><trkpt lat="44.50129947185857" lon="9.351267402814926"><ele>813.0</ele><time>2026-04-29T15:16:43.999Z</time></trkpt><trkpt lat="44.501234911745094" lon="9.351116069380614"><ele>813.0</ele><time>2026-04-29T15:16:44.999Z</time></trkpt><trkpt lat="44.50118568345108" lon="9.35097415077346"><ele>812.8</ele><time>2026-04-29T15:16:45.999Z</time></trkpt><trkpt lat="44.501143777195765" lon="9.350847177390573"><ele>812.5999999999999</ele><time>2026-04-29T15:16:46.999Z</time></trkpt><trkpt lat="44.50109842499065" lon="9.350722335292497"><ele>812.4000000000001</ele><time>2026-04-29T15:16:47.999Z</time></trkpt><trkpt lat="44.50102661560237" lon="9.350656589051725"><ele>812.2</ele><time>2026-04-29T15:16:48.999Z</time></trkpt><trkpt lat="44.500919284403544" lon="9.3506068661097"><ele>812.0</ele><time>2026-04-29T15:16:49.999Z</time></trkpt><trkpt lat="44.50080997160757" lon="9.350582603877863"><ele>812.0</ele><time>2026-04-29T15:16:50.999Z</time></trkpt><trkpt lat="44.50070558560137" lon="9.350591851384776"><ele>812.0</ele><time>2026-04-29T15:16:51.999Z</time></trkpt><trkpt lat="44.5005798912986" lon="9.35060529302925"><ele>812.0</ele><time>2026-04-29T15:16:52.999Z</time></trkpt><trkpt lat="44.50044136281145" lon="9.350567706968134"><ele>812.0</ele><time>2026-04-29T15:16:53.999Z</time></trkpt><trkpt lat="44.50031636640441" lon="9.350576827908455"><ele>812.0</ele><time>2026-04-29T15:16:54.999Z</time></trkpt><trkpt lat="44.50024357464252" lon="9.350535447480814"><ele>812.0</ele><time>2026-04-29T15:16:55.999Z</time></trkpt><trkpt lat="44.50017118429722" lon="9.350542995232074"><ele>812.0</ele><time>2026-04-29T15:16:56.999Z</time></trkpt><trkpt lat="44.50001302967866" lon="9.350665694199217"><ele>812.0</ele><time>2026-04-29T15:16:57.999Z</time></trkpt><trkpt lat="44.499868527556075" lon="9.350742718789657"><ele>812.0</ele><time>2026-04-29T15:16:58.999Z</time></trkpt><trkpt lat="44.499726777424236" lon="9.350866187857617"><ele>812.0</ele><time>2026-04-29T15:16:59.999Z</time></trkpt><trkpt lat="44.49955787576842" lon="9.350972442528828"><ele>812.0</ele><time>2026-04-29T15:17:00.999Z</time></trkpt><trkpt lat="44.49939631943963" lon="9.35109927468686"><ele>812.3333333333334</ele><time>2026-04-29T15:17:01.999Z</time></trkpt><trkpt lat="44.499258761005564" lon="9.351226472807712"><ele>812.6666666666667</ele><time>2026-04-29T15:17:02.999Z</time></trkpt><trkpt lat="44.499139480762935" lon="9.351344515712954"><ele>813.0</ele><time>2026-04-29T15:17:03.999Z</time></trkpt><trkpt lat="44.4990083101389" lon="9.351413957443206"><ele>813.0</ele><time>2026-04-29T15:17:05Z</time></trkpt><trkpt lat="44.4988941432481" lon="9.351484872706363"><ele>813.0</ele><time>2026-04-29T15:17:06Z</time></trkpt><trkpt lat="44.49878482757599" lon="9.351577607851043"><ele>813.0</ele><time>2026-04-29T15:17:07Z</time></trkpt><trkpt lat="44.49868327021364" lon="9.351615372538546"><ele>813.0</ele><time>2026-04-29T15:17:08Z</time></trkpt><trkpt lat="44.49859906766559" lon="9.351639684669738"><ele>813.0</ele><time>2026-04-29T15:17:09Z</time></trkpt><trkpt lat="44.49851304290123" lon="9.35161476842752"><ele>812.0</ele><time>2026-04-29T15:17:10Z</time></trkpt><trkpt lat="44.49842438094905" lon="9.351549361753928"><ele>811.0</ele><time>2026-04-29T15:17:11Z</time></trkpt><trkpt lat="44.498350313364156" lon="9.351454763156447"><ele>810.0</ele><time>2026-04-29T15:17:12Z</time></trkpt><trkpt lat="44.49826478870248" lon="9.351317208186417"><ele>809.0</ele><time>2026-04-29T15:17:13Z</time></trkpt><trkpt lat="44.49817507187829" lon="9.351150422331715"><ele>809.0</ele><time>2026-04-29T15:17:14Z</time></trkpt><trkpt lat="44.498051863254936" lon="9.350978288071376"><ele>809.0</ele><time>2026-04-29T15:17:15Z</time></trkpt><trkpt lat="44.49789330333879" lon="9.35080817465036"><ele>809.0</ele><time>2026-04-29T15:17:16Z</time></trkpt><trkpt lat="44.497732371897555" lon="9.350648773506473"><ele>809.6666666666667</ele><time>2026-04-29T15:17:17Z</time></trkpt><trkpt lat="44.497596236767876" lon="9.350504160251193"><ele>810.3333333333333</ele><time>2026-04-29T15:17:18Z</time></trkpt><trkpt lat="44.497473587569964" lon="9.350358933210824"><ele>811.0</ele><time>2026-04-29T15:17:19Z</time></trkpt><trkpt lat="44.49736497599202" lon="9.35022364934592"><ele>811.0</ele><time>2026-04-29T15:17:20Z</time></trkpt><trkpt lat="44.4972623872135" lon="9.350131027137522"><ele>811.0</ele><time>2026-04-29T15:17:21Z</time></trkpt><trkpt lat="44.49714274073102" lon="9.350047659771203"><ele>811.0</ele><time>2026-04-29T15:17:22Z</time></trkpt><trkpt lat="44.497051037997984" lon="9.349945879232438"><ele>811.0</ele><time>2026-04-29T15:17:23Z</time></trkpt><trkpt lat="44.49697423798603" lon="9.34981726695739"><ele>813.0</ele><time>2026-04-29T15:17:24Z</time></trkpt><trkpt lat="44.496919397194254" lon="9.349692097384898"><ele>815.0</ele><time>2026-04-29T15:17:25Z</time></trkpt><trkpt lat="44.49687855501693" lon="9.349564969440664"><ele>817.0</ele><time>2026-04-29T15:17:26Z</time></trkpt><trkpt lat="44.49683615722196" lon="9.349418608496334"><ele>819.0</ele><time>2026-04-29T15:17:27Z</time></trkpt><trkpt lat="44.49678548583981" lon="9.349256528126944"><ele>821.0</ele><time>2026-04-29T15:17:28Z</time></trkpt><trkpt lat="44.496745334642284" lon="9.349049523469759"><ele>819.3333333333334</ele><time>2026-04-29T15:17:29Z</time></trkpt><trkpt lat="44.49670924106609" lon="9.348796300022048"><ele>817.6666666666667</ele><time>2026-04-29T15:17:30Z</time></trkpt><trkpt lat="44.49666813802331" lon="9.348586331788935"><ele>816.0</ele><time>2026-04-29T15:17:31Z</time></trkpt><trkpt lat="44.49662859698568" lon="9.348380957623199"><ele>816.0</ele><time>2026-04-29T15:17:32Z</time></trkpt><trkpt lat="44.496596240341276" lon="9.34819327512367"><ele>816.0</ele><time>2026-04-29T15:17:33Z</time></trkpt><trkpt lat="44.49657219574482" lon="9.348011495782414"><ele>816.0</ele><time>2026-04-29T15:17:34Z</time></trkpt><trkpt lat="44.49654472618479" lon="9.34785396061066"><ele>816.0</ele><time>2026-04-29T15:17:35Z</time></trkpt><trkpt lat="44.496512629564485" lon="9.34769880854893"><ele>815.0</ele><time>2026-04-29T15:17:36Z</time></trkpt><trkpt lat="44.49646848202451" lon="9.34756275573482"><ele>814.0</ele><time>2026-04-29T15:17:37Z</time></trkpt><trkpt lat="44.49640659224431" lon="9.34741905065237"><ele>813.0</ele><time>2026-04-29T15:17:38Z</time></trkpt><trkpt lat="44.49633075785604" lon="9.347285048136204"><ele>812.0</ele><time>2026-04-29T15:17:39Z</time></trkpt><trkpt lat="44.496234172541975" lon="9.347161615617978"><ele>812.0</ele><time>2026-04-29T15:17:40Z</time></trkpt><trkpt lat="44.49612180041466" lon="9.347055039777715"><ele>812.0</ele><time>2026-04-29T15:17:41Z</time></trkpt><trkpt lat="44.49599632779534" lon="9.346970013188498"><ele>812.0</ele><time>2026-04-29T15:17:42Z</time></trkpt><trkpt lat="44.49587854780034" lon="9.346922153749695"><ele>812.0</ele><time>2026-04-29T15:17:43Z</time></trkpt><trkpt lat="44.49573107373696" lon="9.346909279086498"><ele>812.0</ele><time>2026-04-29T15:17:44Z</time></trkpt><trkpt lat="44.49559575189508" lon="9.346898891592524"><ele>812.0</ele><time>2026-04-29T15:17:45Z</time></trkpt><trkpt lat="44.49550119090166" lon="9.346893213222257"><ele>812.0</ele><time>2026-04-29T15:17:46Z</time></trkpt><trkpt lat="44.495430139342645" lon="9.346862767998605"><ele>812.0</ele><time>2026-04-29T15:17:47Z</time></trkpt><trkpt lat="44.49536985070583" lon="9.346788009576825"><ele>812.0</ele><time>2026-04-29T15:17:48Z</time></trkpt><trkpt lat="44.49532801650321" lon="9.346696874615734"><ele>812.2</ele><time>2026-04-29T15:17:49Z</time></trkpt><trkpt lat="44.49529016824297" lon="9.34657879249892"><ele>812.4000000000001</ele><time>2026-04-29T15:17:50Z</time></trkpt><trkpt lat="44.49525354291225" lon="9.34643783742005"><ele>812.5999999999999</ele><time>2026-04-29T15:17:51Z</time></trkpt><trkpt lat="44.495205904004386" lon="9.346270852776678"><ele>812.8</ele><time>2026-04-29T15:17:52Z</time></trkpt><trkpt lat="44.49516601001803" lon="9.346144700038849"><ele>813.0</ele><time>2026-04-29T15:17:53Z</time></trkpt><trkpt lat="44.49511387154712" lon="9.345987299262454"><ele>812.25</ele><time>2026-04-29T15:17:54Z</time></trkpt><trkpt lat="44.49504884907429" lon="9.34582931087201"><ele>811.5</ele><time>2026-04-29T15:17:55Z</time></trkpt><trkpt lat="44.49497073684884" lon="9.345675286497931"><ele>810.75</ele><time>2026-04-29T15:17:56Z</time></trkpt><trkpt lat="44.49487869967812" lon="9.34552395831271"><ele>810.0</ele><time>2026-04-29T15:17:57Z</time></trkpt><trkpt lat="44.49477719380074" lon="9.345363862805502"><ele>812.3333333333333</ele><time>2026-04-29T15:17:58Z</time></trkpt><trkpt lat="44.494666919545146" lon="9.345197340020956"><ele>814.6666666666666</ele><time>2026-04-29T15:17:59Z</time></trkpt><trkpt lat="44.49455191442372" lon="9.345021154924941"><ele>817.0</ele><time>2026-04-29T15:18:00Z</time></trkpt><trkpt lat="44.49444389641912" lon="9.34486427870064"><ele>817.0</ele><time>2026-04-29T15:18:01Z</time></trkpt><trkpt lat="44.494339196708424" lon="9.344730976259177"><ele>817.0</ele><time>2026-04-29T15:18:02Z</time></trkpt><trkpt lat="44.49423290585778" lon="9.344592077384211"><ele>817.0</ele><time>2026-04-29T15:18:03Z</time></trkpt><trkpt lat="44.494090788386075" lon="9.344479651724516"><ele>817.3333333333333</ele><time>2026-04-29T15:18:04Z</time></trkpt><trkpt lat="44.493939598738656" lon="9.344359265686961"><ele>817.6666666666667</ele><time>2026-04-29T15:18:05Z</time></trkpt><trkpt lat="44.49379790926175" lon="9.34424782838902"><ele>818.0</ele><time>2026-04-29T15:18:06Z</time></trkpt><trkpt lat="44.49365512523754" lon="9.34414190162855"><ele>818.0</ele><time>2026-04-29T15:18:07Z</time></trkpt><trkpt lat="44.49354001738159" lon="9.344059515725075"><ele>818.0</ele><time>2026-04-29T15:18:08Z</time></trkpt><trkpt lat="44.493450468057866" lon="9.343978964199245"><ele>818.0</ele><time>2026-04-29T15:18:09Z</time></trkpt><trkpt lat="44.49336389400952" lon="9.343911502689311"><ele>818.0</ele><time>2026-04-29T15:18:10Z</time></trkpt><trkpt lat="44.49330707035331" lon="9.343798946618426"><ele>818.0</ele><time>2026-04-29T15:18:11Z</time></trkpt><trkpt lat="44.493255526031085" lon="9.343664791155025"><ele>818.75</ele><time>2026-04-29T15:18:12Z</time></trkpt><trkpt lat="44.49322090374168" lon="9.343507685862427"><ele>819.5</ele><time>2026-04-29T15:18:13Z</time></trkpt><trkpt lat="44.493198803947145" lon="9.343313087404814"><ele>820.25</ele><time>2026-04-29T15:18:14Z</time></trkpt><trkpt lat="44.4931780595436" lon="9.343086323502073"><ele>821.0</ele><time>2026-04-29T15:18:15Z</time></trkpt><trkpt lat="44.493145162969036" lon="9.342841431365521"><ele>821.0</ele><time>2026-04-29T15:18:16Z</time></trkpt><trkpt lat="44.49311341927789" lon="9.342612854041269"><ele>821.0</ele><time>2026-04-29T15:18:17Z</time></trkpt><trkpt lat="44.493076671686964" lon="9.342390657345726"><ele>821.0</ele><time>2026-04-29T15:18:18Z</time></trkpt><trkpt lat="44.493045368580304" lon="9.342170279867835"><ele>820.0</ele><time>2026-04-29T15:18:19Z</time></trkpt><trkpt lat="44.493013427986966" lon="9.341963488973574"><ele>819.0</ele><time>2026-04-29T15:18:20Z</time></trkpt><trkpt lat="44.49298407644125" lon="9.341771877932667"><ele>818.0</ele><time>2026-04-29T15:18:21Z</time></trkpt><trkpt lat="44.49295418055183" lon="9.34159217459818"><ele>817.0</ele><time>2026-04-29T15:18:21.999Z</time></trkpt><trkpt lat="44.492901647304656" lon="9.341433992173842"><ele>816.6666666666666</ele><time>2026-04-29T15:18:22.999Z</time></trkpt><trkpt lat="44.4928438909604" lon="9.34124497198217"><ele>816.3333333333333</ele><time>2026-04-29T15:18:23.999Z</time></trkpt><trkpt lat="44.4927426686657" lon="9.341046271281513"><ele>816.0</ele><time>2026-04-29T15:18:24.999Z</time></trkpt><trkpt lat="44.492635680390684" lon="9.340843895134947"><ele>816.0</ele><time>2026-04-29T15:18:25.999Z</time></trkpt><trkpt lat="44.492533483551895" lon="9.340654299377322"><ele>816.0</ele><time>2026-04-29T15:18:26.999Z</time></trkpt><trkpt lat="44.49243203383678" lon="9.340476585308943"><ele>816.0</ele><time>2026-04-29T15:18:27.999Z</time></trkpt><trkpt lat="44.49231224078964" lon="9.340297323555014"><ele>816.0</ele><time>2026-04-29T15:18:28.999Z</time></trkpt><trkpt lat="44.49215964602948" lon="9.340132121974689"><ele>816.0</ele><time>2026-04-29T15:18:29.999Z</time></trkpt><trkpt lat="44.491986509468205" lon="9.3399797149328"><ele>816.0</ele><time>2026-04-29T15:18:30.999Z</time></trkpt><trkpt lat="44.491826598212015" lon="9.339831073985087"><ele>817.6666666666667</ele><time>2026-04-29T15:18:31.999Z</time></trkpt><trkpt lat="44.4916971630635" lon="9.339678395768534"><ele>819.3333333333334</ele><time>2026-04-29T15:18:32.999Z</time></trkpt><trkpt lat="44.49156266886407" lon="9.339569240201044"><ele>821.0</ele><time>2026-04-29T15:18:33.999Z</time></trkpt><trkpt lat="44.4914139224222" lon="9.339496784889958"><ele>821.0</ele><time>2026-04-29T15:18:34.999Z</time></trkpt><trkpt lat="44.491257380660585" lon="9.339464109128407"><ele>821.0</ele><time>2026-04-29T15:18:35.999Z</time></trkpt><trkpt lat="44.491117089282326" lon="9.339425877801084"><ele>821.0</ele><time>2026-04-29T15:18:36.999Z</time></trkpt><trkpt lat="44.49099134537046" lon="9.339396917431392"><ele>821.0</ele><time>2026-04-29T15:18:37.999Z</time></trkpt><trkpt lat="44.49084665409019" lon="9.339306500941106"><ele>820.5</ele><time>2026-04-29T15:18:38.999Z</time></trkpt><trkpt lat="44.490701265566024" lon="9.339206637272977"><ele>820.0</ele><time>2026-04-29T15:18:39.999Z</time></trkpt><trkpt lat="44.49056734288053" lon="9.33911619478378"><ele>819.5</ele><time>2026-04-29T15:18:40.999Z</time></trkpt><trkpt lat="44.49046321982524" lon="9.339007166632962"><ele>819.0</ele><time>2026-04-29T15:18:41.999Z</time></trkpt><trkpt lat="44.49037059372534" lon="9.338923498245322"><ele>819.5</ele><time>2026-04-29T15:18:42.999Z</time></trkpt><trkpt lat="44.49028568829638" lon="9.338796235817947"><ele>820.0</ele><time>2026-04-29T15:18:43.999Z</time></trkpt><trkpt lat="44.49018983948289" lon="9.33864054776841"><ele>820.5</ele><time>2026-04-29T15:18:44.999Z</time></trkpt><trkpt lat="44.490085012116275" lon="9.338472312915911"><ele>821.0</ele><time>2026-04-29T15:18:45.999Z</time></trkpt><trkpt lat="44.48996626345586" lon="9.338290026992636"><ele>821.0</ele><time>2026-04-29T15:18:46.999Z</time></trkpt><trkpt lat="44.48984956377356" lon="9.338119624149506"><ele>821.0</ele><time>2026-04-29T15:18:47.999Z</time></trkpt><trkpt lat="44.489737588827275" lon="9.337940618191347"><ele>821.0</ele><time>2026-04-29T15:18:48.999Z</time></trkpt><trkpt lat="44.4896167581081" lon="9.337766112711455"><ele>821.0</ele><time>2026-04-29T15:18:49.999Z</time></trkpt><trkpt lat="44.48949705179769" lon="9.337602914879845"><ele>821.0</ele><time>2026-04-29T15:18:50.999Z</time></trkpt><trkpt lat="44.48937710521295" lon="9.33743950668712"><ele>821.0</ele><time>2026-04-29T15:18:51.999Z</time></trkpt><trkpt lat="44.48925709125242" lon="9.337269453318365"><ele>822.6666666666667</ele><time>2026-04-29T15:18:52.999Z</time></trkpt><trkpt lat="44.48913425300773" lon="9.337090936795667"><ele>824.3333333333333</ele><time>2026-04-29T15:18:53.999Z</time></trkpt><trkpt lat="44.489008110272145" lon="9.336913352116111"><ele>826.0</ele><time>2026-04-29T15:18:54.999Z</time></trkpt><trkpt lat="44.48888815551498" lon="9.336747928385183"><ele>826.0</ele><time>2026-04-29T15:18:55.999Z</time></trkpt><trkpt lat="44.488775418945416" lon="9.336590785989815"><ele>826.0</ele><time>2026-04-29T15:18:56.999Z</time></trkpt><trkpt lat="44.488668905490854" lon="9.336442509131407"><ele>826.0</ele><time>2026-04-29T15:18:57.999Z</time></trkpt><trkpt lat="44.48856568116357" lon="9.336299444868326"><ele>831.3333333333333</ele><time>2026-04-29T15:18:58.999Z</time></trkpt><trkpt lat="44.48845493427773" lon="9.336160934104134"><ele>836.6666666666667</ele><time>2026-04-29T15:18:59.999Z</time></trkpt><trkpt lat="44.48831394074534" lon="9.336030681846035"><ele>842.0</ele><time>2026-04-29T15:19:00.999Z</time></trkpt><trkpt lat="44.48815064614463" lon="9.335907362436298"><ele>842.0</ele><time>2026-04-29T15:19:01.999Z</time></trkpt><trkpt lat="44.487959875784355" lon="9.3357759543546"><ele>842.0</ele><time>2026-04-29T15:19:02.999Z</time></trkpt><trkpt lat="44.487788857298426" lon="9.335669053981645"><ele>842.0</ele><time>2026-04-29T15:19:03.999Z</time></trkpt><trkpt lat="44.48762590530353" lon="9.335550187154515"><ele>842.0</ele><time>2026-04-29T15:19:04.999Z</time></trkpt><trkpt lat="44.4874898036916" lon="9.335448136763015"><ele>842.0</ele><time>2026-04-29T15:19:05.999Z</time></trkpt><trkpt lat="44.48734283389042" lon="9.335367420526131"><ele>842.0</ele><time>2026-04-29T15:19:06.999Z</time></trkpt><trkpt lat="44.48719850645883" lon="9.335272137019281"><ele>836.3333333333334</ele><time>2026-04-29T15:19:07.999Z</time></trkpt><trkpt lat="44.48706079295026" lon="9.335173695856662"><ele>830.6666666666667</ele><time>2026-04-29T15:19:08.999Z</time></trkpt><trkpt lat="44.48692160166818" lon="9.335045194060095"><ele>825.0</ele><time>2026-04-29T15:19:09.999Z</time></trkpt><trkpt lat="44.48679728098946" lon="9.334916138885648"><ele>825.0</ele><time>2026-04-29T15:19:11Z</time></trkpt><trkpt lat="44.48667813066934" lon="9.334778024967322"><ele>825.0</ele><time>2026-04-29T15:19:12Z</time></trkpt><trkpt lat="44.48655879658538" lon="9.334656420184755"><ele>825.0</ele><time>2026-04-29T15:19:13Z</time></trkpt><trkpt lat="44.486452948333095" lon="9.33453150730295"><ele>825.0</ele><time>2026-04-29T15:19:14Z</time></trkpt><trkpt lat="44.48635086458435" lon="9.33442677834063"><ele>825.75</ele><time>2026-04-29T15:19:15Z</time></trkpt><trkpt lat="44.48626878390688" lon="9.33431931216461"><ele>826.5</ele><time>2026-04-29T15:19:16Z</time></trkpt><trkpt lat="44.48620571669816" lon="9.334188781752594"><ele>827.25</ele><time>2026-04-29T15:19:17Z</time></trkpt><trkpt lat="44.48613777673994" lon="9.334008649119207"><ele>828.0</ele><time>2026-04-29T15:19:18Z</time></trkpt><trkpt lat="44.48606044544683" lon="9.333815313361772"><ele>828.0</ele><time>2026-04-29T15:19:19Z</time></trkpt><trkpt lat="44.48596980717156" lon="9.333597978956789"><ele>828.0</ele><time>2026-04-29T15:19:20Z</time></trkpt><trkpt lat="44.48588031111189" lon="9.333349007357402"><ele>828.0</ele><time>2026-04-29T15:19:21Z</time></trkpt><trkpt lat="44.48578368754088" lon="9.333101207728625"><ele>831.6666666666667</ele><time>2026-04-29T15:19:22Z</time></trkpt><trkpt lat="44.48570554660256" lon="9.33288375983267"><ele>835.3333333333334</ele><time>2026-04-29T15:19:23Z</time></trkpt><trkpt lat="44.48562412999514" lon="9.332666924938103"><ele>839.0</ele><time>2026-04-29T15:19:24Z</time></trkpt><trkpt lat="44.485537298596554" lon="9.332468938317843"><ele>839.0</ele><time>2026-04-29T15:19:25Z</time></trkpt><trkpt lat="44.48543893745477" lon="9.33229320841726"><ele>839.0</ele><time>2026-04-29T15:19:26Z</time></trkpt><trkpt lat="44.48533542197058" lon="9.332116917176975"><ele>839.0</ele><time>2026-04-29T15:19:27Z</time></trkpt><trkpt lat="44.485244570080376" lon="9.331953354909704"><ele>838.5</ele><time>2026-04-29T15:19:28Z</time></trkpt><trkpt lat="44.485152928906174" lon="9.331848612006137"><ele>838.0</ele><time>2026-04-29T15:19:29Z</time></trkpt><trkpt lat="44.485069023386224" lon="9.331721150485057"><ele>837.5</ele><time>2026-04-29T15:19:30Z</time></trkpt><trkpt lat="44.48496370758817" lon="9.331591932857998"><ele>837.0</ele><time>2026-04-29T15:19:31Z</time></trkpt><trkpt lat="44.48484027278393" lon="9.331448044595641"><ele>835.6666666666667</ele><time>2026-04-29T15:19:32Z</time></trkpt><trkpt lat="44.48470772246927" lon="9.331298667295622"><ele>834.3333333333334</ele><time>2026-04-29T15:19:33Z</time></trkpt><trkpt lat="44.484568040587334" lon="9.331161475805184"><ele>833.0</ele><time>2026-04-29T15:19:34Z</time></trkpt><trkpt lat="44.484446194140624" lon="9.331011324258789"><ele>833.0</ele><time>2026-04-29T15:19:35Z</time></trkpt><trkpt lat="44.48431470006158" lon="9.330848533581241"><ele>833.0</ele><time>2026-04-29T15:19:36Z</time></trkpt><trkpt lat="44.48417012422514" lon="9.330676760068469"><ele>833.0</ele><time>2026-04-29T15:19:37Z</time></trkpt><trkpt lat="44.48401716361521" lon="9.33049954203559"><ele>831.3333333333334</ele><time>2026-04-29T15:19:38Z</time></trkpt><trkpt lat="44.48388191424908" lon="9.33030224699941"><ele>829.6666666666667</ele><time>2026-04-29T15:19:39Z</time></trkpt><trkpt lat="44.483727065947726" lon="9.330132191431582"><ele>828.0</ele><time>2026-04-29T15:19:40Z</time></trkpt><trkpt lat="44.483572468525686" lon="9.329948434307255"><ele>828.0</ele><time>2026-04-29T15:19:41Z</time></trkpt><trkpt lat="44.48343120074692" lon="9.329771584097392"><ele>828.0</ele><time>2026-04-29T15:19:42Z</time></trkpt><trkpt lat="44.48329156557966" lon="9.329590928788893"><ele>828.0</ele><time>2026-04-29T15:19:43Z</time></trkpt><trkpt lat="44.48316558569604" lon="9.329431338000417"><ele>828.0</ele><time>2026-04-29T15:19:44Z</time></trkpt><trkpt lat="44.4830480234502" lon="9.329282911848289"><ele>828.0</ele><time>2026-04-29T15:19:45Z</time></trkpt><trkpt lat="44.48293556830869" lon="9.32914442076007"><ele>828.0</ele><time>2026-04-29T15:19:46Z</time></trkpt><trkpt lat="44.48281734580717" lon="9.329031024017333"><ele>828.0</ele><time>2026-04-29T15:19:47Z</time></trkpt><trkpt lat="44.48268912118903" lon="9.328944890194066"><ele>828.0</ele><time>2026-04-29T15:19:48Z</time></trkpt><trkpt lat="44.48254723914069" lon="9.328865191922398"><ele>828.0</ele><time>2026-04-29T15:19:49Z</time></trkpt><trkpt lat="44.482403857976756" lon="9.328779251790671"><ele>828.5</ele><time>2026-04-29T15:19:50Z</time></trkpt><trkpt lat="44.48227579785711" lon="9.328701419346173"><ele>829.0</ele><time>2026-04-29T15:19:51Z</time></trkpt><trkpt lat="44.48215128314279" lon="9.328619806816304"><ele>829.5</ele><time>2026-04-29T15:19:52Z</time></trkpt><trkpt lat="44.48202299571205" lon="9.328529858793189"><ele>830.0</ele><time>2026-04-29T15:19:53Z</time></trkpt><trkpt lat="44.48189424283617" lon="9.32843191428455"><ele>830.0</ele><time>2026-04-29T15:19:54Z</time></trkpt><trkpt lat="44.481755496541126" lon="9.328324123873236"><ele>830.0</ele><time>2026-04-29T15:19:55Z</time></trkpt><trkpt lat="44.481616739505796" lon="9.328201965908113"><ele>830.0</ele><time>2026-04-29T15:19:56Z</time></trkpt><trkpt lat="44.481477272874535" lon="9.328065866497289"><ele>830.0</ele><time>2026-04-29T15:19:57Z</time></trkpt><trkpt lat="44.481337031120084" lon="9.327893583011408"><ele>830.0</ele><time>2026-04-29T15:19:58Z</time></trkpt><trkpt lat="44.481191024556644" lon="9.32771466042288"><ele>830.0</ele><time>2026-04-29T15:19:59Z</time></trkpt><trkpt lat="44.4810433789783" lon="9.327537352444427"><ele>830.0</ele><time>2026-04-29T15:20:00Z</time></trkpt><trkpt lat="44.480897803903396" lon="9.327370309695432"><ele>830.0</ele><time>2026-04-29T15:20:01Z</time></trkpt><trkpt lat="44.48075893267954" lon="9.32720882159523"><ele>830.0</ele><time>2026-04-29T15:20:02Z</time></trkpt><trkpt lat="44.48062761961131" lon="9.327048047556202"><ele>831.3333333333334</ele><time>2026-04-29T15:20:03Z</time></trkpt><trkpt lat="44.480493666713635" lon="9.326894606928295"><ele>832.6666666666667</ele><time>2026-04-29T15:20:04Z</time></trkpt><trkpt lat="44.48035023819096" lon="9.326757806887796"><ele>834.0</ele><time>2026-04-29T15:20:05Z</time></trkpt><trkpt lat="44.48020880552607" lon="9.326640458319002"><ele>832.0</ele><time>2026-04-29T15:20:06Z</time></trkpt><trkpt lat="44.4800806090252" lon="9.326551046938578"><ele>830.0</ele><time>2026-04-29T15:20:07Z</time></trkpt><trkpt lat="44.47996541772241" lon="9.326492040103668"><ele>828.0</ele><time>2026-04-29T15:20:08Z</time></trkpt><trkpt lat="44.47987076166742" lon="9.32645384788825"><ele>826.0</ele><time>2026-04-29T15:20:09Z</time></trkpt><trkpt lat="44.47979470431444" lon="9.326402732829967"><ele>824.0</ele><time>2026-04-29T15:20:10Z</time></trkpt><trkpt lat="44.47973772936115" lon="9.326335090267643"><ele>824.0</ele><time>2026-04-29T15:20:11Z</time></trkpt><trkpt lat="44.4796761548537" lon="9.326290439125106"><ele>824.0</ele><time>2026-04-29T15:20:13Z</time></trkpt><trkpt lat="44.47970926848703" lon="9.326076449818675"><ele>824.0</ele><time>2026-04-29T15:20:14Z</time></trkpt><trkpt lat="44.479729421066274" lon="9.325975526568275"><ele>824.0</ele><time>2026-04-29T15:20:15Z</time></trkpt><trkpt lat="44.47975348074971" lon="9.325862389812574"><ele>824.0</ele><time>2026-04-29T15:20:16Z</time></trkpt><trkpt lat="44.47979278073904" lon="9.325755830345933"><ele>824.0</ele><time>2026-04-29T15:20:17Z</time></trkpt><trkpt lat="44.47980114243057" lon="9.325658025181122"><ele>824.0</ele><time>2026-04-29T15:20:18Z</time></trkpt><trkpt lat="44.47984077655958" lon="9.325077853613143"><ele>824.0</ele><time>2026-04-29T15:20:20Z</time></trkpt><trkpt lat="44.47984025223315" lon="9.324904438056473"><ele>824.0</ele><time>2026-04-29T15:20:21Z</time></trkpt><trkpt lat="44.47982105520068" lon="9.32470164070798"><ele>824.0</ele><time>2026-04-29T15:20:22Z</time></trkpt><trkpt lat="44.479794823696864" lon="9.32449671090262"><ele>824.0</ele><time>2026-04-29T15:20:23Z</time></trkpt><trkpt lat="44.47976199111382" lon="9.324247675600734"><ele>823.6666666666667</ele><time>2026-04-29T15:20:24Z</time></trkpt><trkpt lat="44.47972905006164" lon="9.323992069588003"><ele>823.3333333333333</ele><time>2026-04-29T15:20:25Z</time></trkpt><trkpt lat="44.479693769211266" lon="9.323727515589182"><ele>823.0</ele><time>2026-04-29T15:20:26Z</time></trkpt><trkpt lat="44.4796637724807" lon="9.32349698589149"><ele>822.75</ele><time>2026-04-29T15:20:27Z</time></trkpt><trkpt lat="44.479634108688494" lon="9.323285197960887"><ele>822.5</ele><time>2026-04-29T15:20:28Z</time></trkpt><trkpt lat="44.479607459620404" lon="9.32308873463184"><ele>822.25</ele><time>2026-04-29T15:20:29Z</time></trkpt><trkpt lat="44.47959251396403" lon="9.322943874743201"><ele>822.0</ele><time>2026-04-29T15:20:30Z</time></trkpt><trkpt lat="44.47959095726801" lon="9.322821127392068"><ele>822.75</ele><time>2026-04-29T15:20:31Z</time></trkpt><trkpt lat="44.47961032759403" lon="9.322709228515473"><ele>823.5</ele><time>2026-04-29T15:20:32Z</time></trkpt><trkpt lat="44.47967753124994" lon="9.322604541955418"><ele>824.25</ele><time>2026-04-29T15:20:32.999Z</time></trkpt><trkpt lat="44.47975792897273" lon="9.322444897249133"><ele>825.0</ele><time>2026-04-29T15:20:33.999Z</time></trkpt><trkpt lat="44.47984166143668" lon="9.322258639879925"><ele>824.6666666666667</ele><time>2026-04-29T15:20:34.999Z</time></trkpt><trkpt lat="44.479932748008395" lon="9.322064347054017"><ele>824.3333333333334</ele><time>2026-04-29T15:20:35.999Z</time></trkpt><trkpt lat="44.480046834323005" lon="9.32183942174895"><ele>824.0</ele><time>2026-04-29T15:20:36.999Z</time></trkpt><trkpt lat="44.48014353972554" lon="9.32157942535826"><ele>823.6666666666667</ele><time>2026-04-29T15:20:37.999Z</time></trkpt><trkpt lat="44.480241885832704" lon="9.321326682166326"><ele>823.3333333333333</ele><time>2026-04-29T15:20:38.999Z</time></trkpt><trkpt lat="44.48032459429866" lon="9.321088719254455"><ele>823.0</ele><time>2026-04-29T15:20:39.999Z</time></trkpt><trkpt lat="44.48041322751281" lon="9.320876647330731"><ele>827.0</ele><time>2026-04-29T15:20:40.999Z</time></trkpt><trkpt lat="44.48049679530359" lon="9.320678811834828"><ele>831.0</ele><time>2026-04-29T15:20:41.999Z</time></trkpt><trkpt lat="44.48056910674985" lon="9.320492961203286"><ele>835.0</ele><time>2026-04-29T15:20:42.999Z</time></trkpt><trkpt lat="44.48062967232771" lon="9.320289986567436"><ele>835.0</ele><time>2026-04-29T15:20:43.999Z</time></trkpt><trkpt lat="44.48068396912562" lon="9.320059993140179"><ele>835.0</ele><time>2026-04-29T15:20:44.999Z</time></trkpt><trkpt lat="44.480731811765914" lon="9.31983767512712"><ele>835.0</ele><time>2026-04-29T15:20:45.999Z</time></trkpt><trkpt lat="44.48077673853631" lon="9.319636232122509"><ele>833.0</ele><time>2026-04-29T15:20:46.999Z</time></trkpt><trkpt lat="44.48082298888863" lon="9.319438419653975"><ele>831.0</ele><time>2026-04-29T15:20:47.999Z</time></trkpt><trkpt lat="44.48091121934191" lon="9.319259850173315"><ele>829.0</ele><time>2026-04-29T15:20:48.999Z</time></trkpt><trkpt lat="44.480994419198574" lon="9.319054954991525"><ele>828.25</ele><time>2026-04-29T15:20:49.999Z</time></trkpt><trkpt lat="44.48107749727926" lon="9.318877044036949"><ele>827.5</ele><time>2026-04-29T15:20:50.999Z</time></trkpt><trkpt lat="44.48115743687077" lon="9.318739906074944"><ele>826.75</ele><time>2026-04-29T15:20:51.999Z</time></trkpt><trkpt lat="44.481246834969944" lon="9.31861557634242"><ele>826.0</ele><time>2026-04-29T15:20:52.999Z</time></trkpt><trkpt lat="44.481361110021425" lon="9.318508416125328"><ele>828.3333333333333</ele><time>2026-04-29T15:20:53.999Z</time></trkpt><trkpt lat="44.48149725997107" lon="9.318402943323813"><ele>830.6666666666667</ele><time>2026-04-29T15:20:54.999Z</time></trkpt><trkpt lat="44.481635214202804" lon="9.318294794439462"><ele>833.0</ele><time>2026-04-29T15:20:55.999Z</time></trkpt><trkpt lat="44.481753908917945" lon="9.318189382062636"><ele>833.0</ele><time>2026-04-29T15:20:56.999Z</time></trkpt><trkpt lat="44.48185751024729" lon="9.318092117038407"><ele>833.0</ele><time>2026-04-29T15:20:57.999Z</time></trkpt><trkpt lat="44.481949078826766" lon="9.31795201934822"><ele>833.0</ele><time>2026-04-29T15:20:58.999Z</time></trkpt><trkpt lat="44.4820258144076" lon="9.31778428107849"><ele>833.0</ele><time>2026-04-29T15:20:59.999Z</time></trkpt><trkpt lat="44.4820841076358" lon="9.317580535932494"><ele>836.0</ele><time>2026-04-29T15:21:00.999Z</time></trkpt><trkpt lat="44.48212222283806" lon="9.317341411481774"><ele>839.0</ele><time>2026-04-29T15:21:01.999Z</time></trkpt><trkpt lat="44.48214764719633" lon="9.317068876082475"><ele>842.0</ele><time>2026-04-29T15:21:02.999Z</time></trkpt><trkpt lat="44.4822051849664" lon="9.316783917672117"><ele>842.0</ele><time>2026-04-29T15:21:03.999Z</time></trkpt><trkpt lat="44.48224662808904" lon="9.316501909637955"><ele>842.0</ele><time>2026-04-29T15:21:04.999Z</time></trkpt><trkpt lat="44.4822911332663" lon="9.31619762544598"><ele>842.0</ele><time>2026-04-29T15:21:05.999Z</time></trkpt><trkpt lat="44.48233892629274" lon="9.315870197408854"><ele>839.6666666666667</ele><time>2026-04-29T15:21:06.999Z</time></trkpt><trkpt lat="44.4823843475041" lon="9.315559018563903"><ele>837.3333333333333</ele><time>2026-04-29T15:21:07.999Z</time></trkpt><trkpt lat="44.48242586290088" lon="9.315276057903551"><ele>835.0</ele><time>2026-04-29T15:21:08.999Z</time></trkpt><trkpt lat="44.482467634940576" lon="9.315004502018857"><ele>834.6666666666666</ele><time>2026-04-29T15:21:09.999Z</time></trkpt><trkpt lat="44.48250759120097" lon="9.314723188640347"><ele>834.3333333333333</ele><time>2026-04-29T15:21:10.999Z</time></trkpt><trkpt lat="44.48254084572544" lon="9.314430562936307"><ele>834.0</ele><time>2026-04-29T15:21:11.999Z</time></trkpt><trkpt lat="44.482568829744594" lon="9.31413268061389"><ele>834.6666666666667</ele><time>2026-04-29T15:21:12.999Z</time></trkpt><trkpt lat="44.48259570765711" lon="9.313830775239143"><ele>835.3333333333334</ele><time>2026-04-29T15:21:13.999Z</time></trkpt><trkpt lat="44.482621325321865" lon="9.31354843149187"><ele>836.0</ele><time>2026-04-29T15:21:14.999Z</time></trkpt><trkpt lat="44.48264497853303" lon="9.313287738896662"><ele>836.0</ele><time>2026-04-29T15:21:15.999Z</time></trkpt><trkpt lat="44.48266832684892" lon="9.313075121063687"><ele>836.0</ele><time>2026-04-29T15:21:17Z</time></trkpt><trkpt lat="44.48270008704266" lon="9.312900533370316"><ele>836.0</ele><time>2026-04-29T15:21:18Z</time></trkpt><trkpt lat="44.48275461562277" lon="9.312715817828847"><ele>836.0</ele><time>2026-04-29T15:21:19Z</time></trkpt><trkpt lat="44.48282382799728" lon="9.312508372864507"><ele>835.3333333333334</ele><time>2026-04-29T15:21:20Z</time></trkpt><trkpt lat="44.482905499717965" lon="9.312281173690936"><ele>834.6666666666667</ele><time>2026-04-29T15:21:21Z</time></trkpt><trkpt lat="44.482982790353745" lon="9.312031596167314"><ele>834.0</ele><time>2026-04-29T15:21:22Z</time></trkpt><trkpt lat="44.48309528682305" lon="9.311808367746817"><ele>833.6666666666667</ele><time>2026-04-29T15:21:23Z</time></trkpt><trkpt lat="44.483200433615785" lon="9.31157999033386"><ele>833.3333333333334</ele><time>2026-04-29T15:21:24Z</time></trkpt><trkpt lat="44.4833156209665" lon="9.311358376592743"><ele>833.0</ele><time>2026-04-29T15:21:25Z</time></trkpt><trkpt lat="44.48341928298877" lon="9.311132838475148"><ele>833.0</ele><time>2026-04-29T15:21:26Z</time></trkpt><trkpt lat="44.48353677502163" lon="9.310927461223033"><ele>833.0</ele><time>2026-04-29T15:21:27Z</time></trkpt><trkpt lat="44.48365071997985" lon="9.310731123831726"><ele>833.0</ele><time>2026-04-29T15:21:28Z</time></trkpt><trkpt lat="44.48377165588598" lon="9.310564241063544"><ele>836.75</ele><time>2026-04-29T15:21:29Z</time></trkpt><trkpt lat="44.48385612524743" lon="9.310380706899075"><ele>840.5</ele><time>2026-04-29T15:21:30Z</time></trkpt><trkpt lat="44.483922935096" lon="9.31022370591092"><ele>844.25</ele><time>2026-04-29T15:21:31Z</time></trkpt><trkpt lat="44.48397411835022" lon="9.310046679982289"><ele>848.0</ele><time>2026-04-29T15:21:32Z</time></trkpt><trkpt lat="44.48404776812769" lon="9.309859324283929"><ele>845.0</ele><time>2026-04-29T15:21:33Z</time></trkpt><trkpt lat="44.48409242767464" lon="9.309648576996409"><ele>842.0</ele><time>2026-04-29T15:21:34Z</time></trkpt><trkpt lat="44.48415311686506" lon="9.30944496763587"><ele>839.0</ele><time>2026-04-29T15:21:35Z</time></trkpt><trkpt lat="44.48420536862913" lon="9.309250313203487"><ele>839.0</ele><time>2026-04-29T15:21:36Z</time></trkpt><trkpt lat="44.484278522134" lon="9.309078325748665"><ele>839.0</ele><time>2026-04-29T15:21:37Z</time></trkpt><trkpt lat="44.48436098495018" lon="9.308880247766519"><ele>839.0</ele><time>2026-04-29T15:21:38Z</time></trkpt><trkpt lat="44.48444208941097" lon="9.308659426301372"><ele>840.0</ele><time>2026-04-29T15:21:39Z</time></trkpt><trkpt lat="44.48454181373615" lon="9.308440976513229"><ele>841.0</ele><time>2026-04-29T15:21:40Z</time></trkpt><trkpt lat="44.48462889021265" lon="9.308241803360202"><ele>842.0</ele><time>2026-04-29T15:21:41Z</time></trkpt><trkpt lat="44.48471069189808" lon="9.308048047858929"><ele>840.5</ele><time>2026-04-29T15:21:42Z</time></trkpt><trkpt lat="44.48478479240901" lon="9.307868253481491"><ele>839.0</ele><time>2026-04-29T15:21:43Z</time></trkpt><trkpt lat="44.48484752451375" lon="9.307688693247343"><ele>837.5</ele><time>2026-04-29T15:21:44Z</time></trkpt><trkpt lat="44.48488260810818" lon="9.307514635395565"><ele>836.0</ele><time>2026-04-29T15:21:45Z</time></trkpt><trkpt lat="44.48491689208475" lon="9.307312457519796"><ele>836.3333333333334</ele><time>2026-04-29T15:21:46Z</time></trkpt><trkpt lat="44.48493219497551" lon="9.307093495798455"><ele>836.6666666666667</ele><time>2026-04-29T15:21:47Z</time></trkpt><trkpt lat="44.48493813657685" lon="9.306870807158221"><ele>837.0</ele><time>2026-04-29T15:21:48Z</time></trkpt><trkpt lat="44.48494670488544" lon="9.306675709981159"><ele>837.0</ele><time>2026-04-29T15:21:49Z</time></trkpt><trkpt lat="44.48495668734682" lon="9.306499493996215"><ele>837.0</ele><time>2026-04-29T15:21:50Z</time></trkpt><trkpt lat="44.48497371542409" lon="9.306377701614306"><ele>837.0</ele><time>2026-04-29T15:21:51Z</time></trkpt><trkpt lat="44.48499779518686" lon="9.3062764745212"><ele>837.0</ele><time>2026-04-29T15:21:52Z</time></trkpt><trkpt lat="44.485042573223645" lon="9.306189033261182"><ele>837.0</ele><time>2026-04-29T15:21:53Z</time></trkpt><trkpt lat="44.485106645572046" lon="9.306138616024832"><ele>837.0</ele><time>2026-04-29T15:21:54Z</time></trkpt><trkpt lat="44.48518587491083" lon="9.306138270424698"><ele>837.6</ele><time>2026-04-29T15:21:55Z</time></trkpt><trkpt lat="44.48527365764126" lon="9.306155939290216"><ele>838.2</ele><time>2026-04-29T15:21:56Z</time></trkpt><trkpt lat="44.48536042353801" lon="9.306171329162268"><ele>838.8</ele><time>2026-04-29T15:21:57Z</time></trkpt><trkpt lat="44.485425625873155" lon="9.306157698886171"><ele>839.4</ele><time>2026-04-29T15:21:58Z</time></trkpt><trkpt lat="44.48550856704815" lon="9.306053333455141"><ele>840.0</ele><time>2026-04-29T15:22:00Z</time></trkpt><trkpt lat="44.4854799549676" lon="9.305913263051607"><ele>842.3333333333334</ele><time>2026-04-29T15:22:01Z</time></trkpt><trkpt lat="44.4854656402693" lon="9.305775894929356"><ele>844.6666666666667</ele><time>2026-04-29T15:22:02Z</time></trkpt><trkpt lat="44.48547909544433" lon="9.3056414344395"><ele>847.0</ele><time>2026-04-29T15:22:03Z</time></trkpt><trkpt lat="44.4855251500382" lon="9.305531720150299"><ele>849.3333333333334</ele><time>2026-04-29T15:22:04Z</time></trkpt><trkpt lat="44.485536875441866" lon="9.305417385784587"><ele>851.6666666666667</ele><time>2026-04-29T15:22:05Z</time></trkpt><trkpt lat="44.48554470918752" lon="9.305320021340256"><ele>854.0</ele><time>2026-04-29T15:22:06Z</time></trkpt><trkpt lat="44.4854630487798" lon="9.305199063055241"><ele>852.2</ele><time>2026-04-29T15:22:08Z</time></trkpt><trkpt lat="44.48534919555092" lon="9.30523168660058"><ele>850.4000000000001</ele><time>2026-04-29T15:22:09Z</time></trkpt><trkpt lat="44.48524942690613" lon="9.305230574829027"><ele>848.6</ele><time>2026-04-29T15:22:10Z</time></trkpt><trkpt lat="44.48519287314682" lon="9.305160828654826"><ele>846.8</ele><time>2026-04-29T15:22:12Z</time></trkpt><trkpt lat="44.485211250404774" lon="9.304975924039733"><ele>845.0</ele><time>2026-04-29T15:22:14Z</time></trkpt><trkpt lat="44.485249775959176" lon="9.304851124492405"><ele>845.25</ele><time>2026-04-29T15:22:15Z</time></trkpt><trkpt lat="44.48525549240758" lon="9.304662986248985"><ele>845.5</ele><time>2026-04-29T15:22:16Z</time></trkpt><trkpt lat="44.485261995371175" lon="9.304498147384454"><ele>845.75</ele><time>2026-04-29T15:22:17Z</time></trkpt><trkpt lat="44.485265554127345" lon="9.304335127511882"><ele>846.0</ele><time>2026-04-29T15:22:18Z</time></trkpt><trkpt lat="44.485246764829526" lon="9.304168199351166"><ele>846.0</ele><time>2026-04-29T15:22:19Z</time></trkpt><trkpt lat="44.48520096532178" lon="9.303988010000717"><ele>846.0</ele><time>2026-04-29T15:22:20Z</time></trkpt><trkpt lat="44.48513921043555" lon="9.303800539263673"><ele>846.0</ele><time>2026-04-29T15:22:21Z</time></trkpt><trkpt lat="44.48509221524767" lon="9.303613117272757"><ele>846.0</ele><time>2026-04-29T15:22:22Z</time></trkpt><trkpt lat="44.48501203073717" lon="9.303458572808937"><ele>847.25</ele><time>2026-04-29T15:22:23Z</time></trkpt><trkpt lat="44.484914231013185" lon="9.303310895478761"><ele>848.5</ele><time>2026-04-29T15:22:24Z</time></trkpt><trkpt lat="44.48480029074161" lon="9.303169906028947"><ele>849.75</ele><time>2026-04-29T15:22:25Z</time></trkpt><trkpt lat="44.484697245699444" lon="9.303054525152247"><ele>851.0</ele><time>2026-04-29T15:22:26Z</time></trkpt><trkpt lat="44.484635738709684" lon="9.302924822131525"><ele>849.4</ele><time>2026-04-29T15:22:27Z</time></trkpt><trkpt lat="44.4845976637689" lon="9.302820094339758"><ele>847.8</ele><time>2026-04-29T15:22:28Z</time></trkpt><trkpt lat="44.48456497032898" lon="9.302692132691142"><ele>846.1999999999999</ele><time>2026-04-29T15:22:29Z</time></trkpt><trkpt lat="44.48455520188646" lon="9.302551465072929"><ele>844.5999999999999</ele><time>2026-04-29T15:22:30Z</time></trkpt><trkpt lat="44.48459158248703" lon="9.302399080983117"><ele>843.0</ele><time>2026-04-29T15:22:30.999Z</time></trkpt><trkpt lat="44.48462623407025" lon="9.302214727963074"><ele>851.0</ele><time>2026-04-29T15:22:31.999Z</time></trkpt><trkpt lat="44.48466005452398" lon="9.301986831676343"><ele>859.0</ele><time>2026-04-29T15:22:32.999Z</time></trkpt><trkpt lat="44.48470302262392" lon="9.301742485921949"><ele>867.0</ele><time>2026-04-29T15:22:33.999Z</time></trkpt><trkpt lat="44.48475229904179" lon="9.301492874578708"><ele>865.3333333333333</ele><time>2026-04-29T15:22:34.999Z</time></trkpt><trkpt lat="44.484792567062755" lon="9.301227424103425"><ele>863.6666666666666</ele><time>2026-04-29T15:22:35.999Z</time></trkpt><trkpt lat="44.484829238613585" lon="9.300959999890205"><ele>862.0</ele><time>2026-04-29T15:22:36.999Z</time></trkpt><trkpt lat="44.48486293796282" lon="9.300707670037633"><ele>860.6666666666666</ele><time>2026-04-29T15:22:37.999Z</time></trkpt><trkpt lat="44.484899939602684" lon="9.300464939798788"><ele>859.3333333333333</ele><time>2026-04-29T15:22:38.999Z</time></trkpt><trkpt lat="44.484934169465014" lon="9.300226035233951"><ele>858.0</ele><time>2026-04-29T15:22:39.999Z</time></trkpt><trkpt lat="44.48496303406797" lon="9.299991713847163"><ele>858.0</ele><time>2026-04-29T15:22:40.999Z</time></trkpt><trkpt lat="44.484998040134656" lon="9.299751248771452"><ele>858.0</ele><time>2026-04-29T15:22:41.999Z</time></trkpt><trkpt lat="44.485026238864975" lon="9.299528448237467"><ele>858.0</ele><time>2026-04-29T15:22:42.999Z</time></trkpt><trkpt lat="44.48505662374448" lon="9.299311819258854"><ele>857.25</ele><time>2026-04-29T15:22:43.999Z</time></trkpt><trkpt lat="44.48508642359686" lon="9.29910947779941"><ele>856.5</ele><time>2026-04-29T15:22:44.999Z</time></trkpt><trkpt lat="44.48511229912262" lon="9.298923916184037"><ele>855.75</ele><time>2026-04-29T15:22:45.999Z</time></trkpt><trkpt lat="44.48513891643509" lon="9.298736404033935"><ele>855.0</ele><time>2026-04-29T15:22:46.999Z</time></trkpt><trkpt lat="44.48517024308905" lon="9.298555258537426"><ele>854.25</ele><time>2026-04-29T15:22:47.999Z</time></trkpt><trkpt lat="44.4851988732161" lon="9.298390761826875"><ele>853.5</ele><time>2026-04-29T15:22:48.999Z</time></trkpt><trkpt lat="44.485213543064475" lon="9.298221055129202"><ele>852.75</ele><time>2026-04-29T15:22:49.999Z</time></trkpt><trkpt lat="44.4852075820649" lon="9.298065130054766"><ele>852.0</ele><time>2026-04-29T15:22:50.999Z</time></trkpt><trkpt lat="44.48516534312449" lon="9.297880635415337"><ele>852.0</ele><time>2026-04-29T15:22:51.999Z</time></trkpt><trkpt lat="44.48511663113582" lon="9.297712494570533"><ele>852.0</ele><time>2026-04-29T15:22:52.999Z</time></trkpt><trkpt lat="44.48505972599535" lon="9.297550819859477"><ele>852.0</ele><time>2026-04-29T15:22:53.999Z</time></trkpt><trkpt lat="44.48499982959257" lon="9.297419236525027"><ele>852.0</ele><time>2026-04-29T15:22:54.999Z</time></trkpt><trkpt lat="44.48490925264784" lon="9.297306074653772"><ele>851.0</ele><time>2026-04-29T15:22:55.999Z</time></trkpt><trkpt lat="44.48479169169242" lon="9.297178484011864"><ele>850.0</ele><time>2026-04-29T15:22:56.999Z</time></trkpt><trkpt lat="44.48468497935855" lon="9.29709524287373"><ele>849.0</ele><time>2026-04-29T15:22:57.999Z</time></trkpt><trkpt lat="44.48457933950357" lon="9.296981456153647"><ele>848.0</ele><time>2026-04-29T15:22:58.999Z</time></trkpt><trkpt lat="44.4845045129722" lon="9.296867200576274"><ele>848.0</ele><time>2026-04-29T15:22:59.999Z</time></trkpt><trkpt lat="44.48446646044488" lon="9.296751253959627"><ele>848.0</ele><time>2026-04-29T15:23:00.999Z</time></trkpt><trkpt lat="44.48441946164602" lon="9.296649097636761"><ele>848.0</ele><time>2026-04-29T15:23:01.999Z</time></trkpt><trkpt lat="44.48436708757957" lon="9.296527726888945"><ele>848.0</ele><time>2026-04-29T15:23:02.999Z</time></trkpt><trkpt lat="44.48432148170025" lon="9.29638703108414"><ele>848.0</ele><time>2026-04-29T15:23:03.999Z</time></trkpt><trkpt lat="44.484267433086366" lon="9.296219798401472"><ele>848.5</ele><time>2026-04-29T15:23:04.999Z</time></trkpt><trkpt lat="44.48419810966599" lon="9.29606165711462"><ele>849.0</ele><time>2026-04-29T15:23:05.999Z</time></trkpt><trkpt lat="44.48412253135365" lon="9.295893999038377"><ele>849.5</ele><time>2026-04-29T15:23:06.999Z</time></trkpt><trkpt lat="44.484038460766534" lon="9.295699712676326"><ele>850.0</ele><time>2026-04-29T15:23:07.999Z</time></trkpt><trkpt lat="44.483952244483845" lon="9.295494156000858"><ele>849.6666666666666</ele><time>2026-04-29T15:23:08.999Z</time></trkpt><trkpt lat="44.48386038457006" lon="9.29527842281384"><ele>849.3333333333333</ele><time>2026-04-29T15:23:09.999Z</time></trkpt><trkpt lat="44.4837607839461" lon="9.295050724160893"><ele>849.0</ele><time>2026-04-29T15:23:10.999Z</time></trkpt><trkpt lat="44.48367222939151" lon="9.294835592485054"><ele>851.3333333333333</ele><time>2026-04-29T15:23:11.999Z</time></trkpt><trkpt lat="44.48358729633527" lon="9.294631460259367"><ele>853.6666666666666</ele><time>2026-04-29T15:23:12.999Z</time></trkpt><trkpt lat="44.483506517276005" lon="9.294439528997405"><ele>856.0</ele><time>2026-04-29T15:23:13.999Z</time></trkpt><trkpt lat="44.48343500375142" lon="9.294251893182652"><ele>856.0</ele><time>2026-04-29T15:23:14.999Z</time></trkpt><trkpt lat="44.48337416632585" lon="9.29406536395756"><ele>856.0</ele><time>2026-04-29T15:23:15.999Z</time></trkpt><trkpt lat="44.48332870728981" lon="9.293881807777957"><ele>856.0</ele><time>2026-04-29T15:23:16.999Z</time></trkpt><trkpt lat="44.48330107341828" lon="9.293691535211746"><ele>856.0</ele><time>2026-04-29T15:23:17.999Z</time></trkpt><trkpt lat="44.48329681479995" lon="9.293477603309483"><ele>858.0</ele><time>2026-04-29T15:23:18.999Z</time></trkpt><trkpt lat="44.48330298144353" lon="9.293225960430616"><ele>860.0</ele><time>2026-04-29T15:23:19.999Z</time></trkpt><trkpt lat="44.48330710355894" lon="9.292962537319674"><ele>862.0</ele><time>2026-04-29T15:23:20.999Z</time></trkpt><trkpt lat="44.48330795567999" lon="9.292684989949894"><ele>863.0</ele><time>2026-04-29T15:23:21.999Z</time></trkpt><trkpt lat="44.483298311907625" lon="9.292434966781338"><ele>864.0</ele><time>2026-04-29T15:23:23Z</time></trkpt><trkpt lat="44.48328855852301" lon="9.292199878483238"><ele>865.0</ele><time>2026-04-29T15:23:24Z</time></trkpt><trkpt lat="44.4832814385541" lon="9.291978823037265"><ele>865.0</ele><time>2026-04-29T15:23:25Z</time></trkpt><trkpt lat="44.48327582786676" lon="9.291757779761207"><ele>865.0</ele><time>2026-04-29T15:23:26Z</time></trkpt><trkpt lat="44.48326292333066" lon="9.291524564307378"><ele>865.0</ele><time>2026-04-29T15:23:27Z</time></trkpt><trkpt lat="44.483271533130946" lon="9.291310209215819"><ele>863.0</ele><time>2026-04-29T15:23:28Z</time></trkpt><trkpt lat="44.48328074710758" lon="9.291068442212028"><ele>861.0</ele><time>2026-04-29T15:23:29Z</time></trkpt><trkpt lat="44.48330160125063" lon="9.290811810243456"><ele>859.0</ele><time>2026-04-29T15:23:30Z</time></trkpt><trkpt lat="44.48332768205742" lon="9.29054269136318"><ele>857.0</ele><time>2026-04-29T15:23:31Z</time></trkpt><trkpt lat="44.48335075514713" lon="9.290261066073883"><ele>855.0</ele><time>2026-04-29T15:23:32Z</time></trkpt><trkpt lat="44.483376423610096" lon="9.289978969002338"><ele>853.0</ele><time>2026-04-29T15:23:33Z</time></trkpt><trkpt lat="44.48340301262708" lon="9.28968547411842"><ele>852.6666666666666</ele><time>2026-04-29T15:23:34Z</time></trkpt><trkpt lat="44.48343236276061" lon="9.28941491666499"><ele>852.3333333333333</ele><time>2026-04-29T15:23:35Z</time></trkpt><trkpt lat="44.4834535160038" lon="9.289188861209421"><ele>852.0</ele><time>2026-04-29T15:23:36Z</time></trkpt><trkpt lat="44.483472729654125" lon="9.288987764583654"><ele>852.75</ele><time>2026-04-29T15:23:37Z</time></trkpt><trkpt lat="44.483480721471" lon="9.288815660385335"><ele>853.5</ele><time>2026-04-29T15:23:38Z</time></trkpt><trkpt lat="44.4834606607704" lon="9.288649737385077"><ele>854.25</ele><time>2026-04-29T15:23:39Z</time></trkpt><trkpt lat="44.483423255507034" lon="9.28845377975894"><ele>855.0</ele><time>2026-04-29T15:23:40Z</time></trkpt><trkpt lat="44.48337612880498" lon="9.288239205940194"><ele>856.0</ele><time>2026-04-29T15:23:41Z</time></trkpt><trkpt lat="44.483334809135165" lon="9.28799061803991"><ele>857.0</ele><time>2026-04-29T15:23:42Z</time></trkpt><trkpt lat="44.483293467739855" lon="9.287763987298506"><ele>858.0</ele><time>2026-04-29T15:23:43Z</time></trkpt><trkpt lat="44.48325607556208" lon="9.287556511545336"><ele>858.0</ele><time>2026-04-29T15:23:44Z</time></trkpt><trkpt lat="44.48322153953904" lon="9.287328133051533"><ele>858.0</ele><time>2026-04-29T15:23:45Z</time></trkpt><trkpt lat="44.48318413991883" lon="9.287091642219536"><ele>858.0</ele><time>2026-04-29T15:23:46Z</time></trkpt><trkpt lat="44.48315693175854" lon="9.286841197481898"><ele>860.6666666666667</ele><time>2026-04-29T15:23:47Z</time></trkpt><trkpt lat="44.483135418247535" lon="9.286588063224112"><ele>863.3333333333334</ele><time>2026-04-29T15:23:48Z</time></trkpt><trkpt lat="44.48311675154385" lon="9.28634753926272"><ele>866.0</ele><time>2026-04-29T15:23:49Z</time></trkpt><trkpt lat="44.48312274709516" lon="9.286126988438857"><ele>867.0</ele><time>2026-04-29T15:23:50Z</time></trkpt><trkpt lat="44.48313990832871" lon="9.285880478580694"><ele>868.0</ele><time>2026-04-29T15:23:51Z</time></trkpt><trkpt lat="44.483164479586456" lon="9.285642545223324"><ele>869.0</ele><time>2026-04-29T15:23:52Z</time></trkpt><trkpt lat="44.48317542675164" lon="9.285420241602303"><ele>869.75</ele><time>2026-04-29T15:23:53Z</time></trkpt><trkpt lat="44.48317905732207" lon="9.285236267080672"><ele>870.5</ele><time>2026-04-29T15:23:54Z</time></trkpt><trkpt lat="44.48316627554114" lon="9.285075047137962"><ele>871.25</ele><time>2026-04-29T15:23:55Z</time></trkpt><trkpt lat="44.48312079488516" lon="9.284886739301493"><ele>872.0</ele><time>2026-04-29T15:23:56Z</time></trkpt><trkpt lat="44.48306018191577" lon="9.284691906118512"><ele>870.0</ele><time>2026-04-29T15:23:57Z</time></trkpt><trkpt lat="44.483011743467756" lon="9.28452342181708"><ele>868.0</ele><time>2026-04-29T15:23:58Z</time></trkpt><trkpt lat="44.482948179104795" lon="9.284385664129225"><ele>866.0</ele><time>2026-04-29T15:23:59Z</time></trkpt><trkpt lat="44.48286121578018" lon="9.284237910163307"><ele>864.0</ele><time>2026-04-29T15:24:00Z</time></trkpt><trkpt lat="44.48274414768496" lon="9.284097839651661"><ele>864.0</ele><time>2026-04-29T15:24:01Z</time></trkpt><trkpt lat="44.482613861576866" lon="9.283943151590819"><ele>864.0</ele><time>2026-04-29T15:24:02Z</time></trkpt><trkpt lat="44.482480708243465" lon="9.28378107508677"><ele>864.0</ele><time>2026-04-29T15:24:03Z</time></trkpt><trkpt lat="44.48233033177365" lon="9.283631297667123"><ele>863.0</ele><time>2026-04-29T15:24:04Z</time></trkpt><trkpt lat="44.48219982890884" lon="9.283475127809147"><ele>862.0</ele><time>2026-04-29T15:24:05Z</time></trkpt><trkpt lat="44.482076597746975" lon="9.283321066886268"><ele>861.0</ele><time>2026-04-29T15:24:06Z</time></trkpt><trkpt lat="44.48196368921349" lon="9.283184017975536"><ele>861.75</ele><time>2026-04-29T15:24:07Z</time></trkpt><trkpt lat="44.48187171616055" lon="9.283052511005852"><ele>862.5</ele><time>2026-04-29T15:24:08Z</time></trkpt><trkpt lat="44.48178413973886" lon="9.28290331157191"><ele>863.25</ele><time>2026-04-29T15:24:09Z</time></trkpt><trkpt lat="44.481694907991205" lon="9.28273823025174"><ele>864.0</ele><time>2026-04-29T15:24:10Z</time></trkpt><trkpt lat="44.48159477909925" lon="9.282563174088109"><ele>864.0</ele><time>2026-04-29T15:24:11Z</time></trkpt><trkpt lat="44.48150149918393" lon="9.2824023950133"><ele>864.0</ele><time>2026-04-29T15:24:12Z</time></trkpt><trkpt lat="44.481419426893645" lon="9.282253849484297"><ele>864.0</ele><time>2026-04-29T15:24:13Z</time></trkpt><trkpt lat="44.48135472956473" lon="9.28210156871612"><ele>864.0</ele><time>2026-04-29T15:24:14Z</time></trkpt><trkpt lat="44.48131290078281" lon="9.281925385063607"><ele>863.25</ele><time>2026-04-29T15:24:15Z</time></trkpt><trkpt lat="44.48128773504481" lon="9.28172403434529"><ele>862.5</ele><time>2026-04-29T15:24:16Z</time></trkpt><trkpt lat="44.48127172971394" lon="9.281551610152746"><ele>861.75</ele><time>2026-04-29T15:24:17Z</time></trkpt><trkpt lat="44.48126096004175" lon="9.281386643688204"><ele>861.0</ele><time>2026-04-29T15:24:18Z</time></trkpt><trkpt lat="44.481274003545586" lon="9.281228566171706"><ele>864.25</ele><time>2026-04-29T15:24:19Z</time></trkpt><trkpt lat="44.48130665128083" lon="9.281071659414557"><ele>867.5</ele><time>2026-04-29T15:24:20Z</time></trkpt><trkpt lat="44.48135351887886" lon="9.280897552444651"><ele>870.75</ele><time>2026-04-29T15:24:21Z</time></trkpt><trkpt lat="44.4813993651386" lon="9.280734248460604"><ele>874.0</ele><time>2026-04-29T15:24:22Z</time></trkpt><trkpt lat="44.481460447849116" lon="9.280606514026537"><ele>873.25</ele><time>2026-04-29T15:24:23Z</time></trkpt><trkpt lat="44.48154722629708" lon="9.280472008664315"><ele>872.5</ele><time>2026-04-29T15:24:24Z</time></trkpt><trkpt lat="44.48165200925625" lon="9.28032497377032"><ele>871.75</ele><time>2026-04-29T15:24:25Z</time></trkpt><trkpt lat="44.481767500029406" lon="9.280169589341462"><ele>871.0</ele><time>2026-04-29T15:24:26Z</time></trkpt><trkpt lat="44.48188284928547" lon="9.280006225051713"><ele>871.0</ele><time>2026-04-29T15:24:27Z</time></trkpt><trkpt lat="44.481981231259695" lon="9.279859935025002"><ele>871.0</ele><time>2026-04-29T15:24:28Z</time></trkpt><trkpt lat="44.48207003596803" lon="9.27973051872839"><ele>871.0</ele><time>2026-04-29T15:24:29Z</time></trkpt><trkpt lat="44.48214190000868" lon="9.279608063390748"><ele>871.0</ele><time>2026-04-29T15:24:30Z</time></trkpt><trkpt lat="44.48219605839866" lon="9.279472273999884"><ele>876.25</ele><time>2026-04-29T15:24:31Z</time></trkpt><trkpt lat="44.48223135145819" lon="9.279336336172538"><ele>881.5</ele><time>2026-04-29T15:24:32Z</time></trkpt><trkpt lat="44.48224384219066" lon="9.279161684548605"><ele>886.75</ele><time>2026-04-29T15:24:33Z</time></trkpt><trkpt lat="44.48223201475217" lon="9.278965151030066"><ele>892.0</ele><time>2026-04-29T15:24:34Z</time></trkpt><trkpt lat="44.48221383652676" lon="9.278741784951462"><ele>892.0</ele><time>2026-04-29T15:24:35Z</time></trkpt><trkpt lat="44.482197116045924" lon="9.278498315316927"><ele>892.0</ele><time>2026-04-29T15:24:35.999Z</time></trkpt><trkpt lat="44.48218977500227" lon="9.278235773615705"><ele>892.0</ele><time>2026-04-29T15:24:36.999Z</time></trkpt><trkpt lat="44.482174270752324" lon="9.277989769673615"><ele>892.0</ele><time>2026-04-29T15:24:37.999Z</time></trkpt><trkpt lat="44.482155538992835" lon="9.277757917381502"><ele>892.0</ele><time>2026-04-29T15:24:38.999Z</time></trkpt><trkpt lat="44.482122925949426" lon="9.277528958738056"><ele>892.0</ele><time>2026-04-29T15:24:39.999Z</time></trkpt><trkpt lat="44.482060785381044" lon="9.277273543595816"><ele>887.3333333333333</ele><time>2026-04-29T15:24:40.999Z</time></trkpt><trkpt lat="44.48199583698817" lon="9.276998787233934"><ele>882.6666666666667</ele><time>2026-04-29T15:24:41.999Z</time></trkpt><trkpt lat="44.48192393907224" lon="9.276734748023499"><ele>878.0</ele><time>2026-04-29T15:24:42.999Z</time></trkpt><trkpt lat="44.48185626599303" lon="9.27645702973169"><ele>880.6666666666667</ele><time>2026-04-29T15:24:43.999Z</time></trkpt><trkpt lat="44.481795190258424" lon="9.276206963662771"><ele>883.3333333333333</ele><time>2026-04-29T15:24:44.999Z</time></trkpt><trkpt lat="44.481737802371484" lon="9.275977730788519"><ele>886.0</ele><time>2026-04-29T15:24:45.999Z</time></trkpt><trkpt lat="44.48168713561494" lon="9.27576543897329"><ele>885.75</ele><time>2026-04-29T15:24:46.999Z</time></trkpt><trkpt lat="44.48164764025036" lon="9.27558360080396"><ele>885.5</ele><time>2026-04-29T15:24:47.999Z</time></trkpt><trkpt lat="44.48162672336985" lon="9.275409984469702"><ele>885.25</ele><time>2026-04-29T15:24:48.999Z</time></trkpt><trkpt lat="44.48163015058136" lon="9.27523942269497"><ele>885.0</ele><time>2026-04-29T15:24:49.999Z</time></trkpt><trkpt lat="44.481654914263046" lon="9.275067283381443"><ele>885.0</ele><time>2026-04-29T15:24:50.999Z</time></trkpt><trkpt lat="44.48170606335244" lon="9.274886108629739"><ele>885.0</ele><time>2026-04-29T15:24:51.999Z</time></trkpt><trkpt lat="44.48177304006471" lon="9.274687964198916"><ele>885.0</ele><time>2026-04-29T15:24:52.999Z</time></trkpt><trkpt lat="44.48183413540649" lon="9.274492714795834"><ele>885.0</ele><time>2026-04-29T15:24:53.999Z</time></trkpt><trkpt lat="44.48188411054936" lon="9.274324574585133"><ele>886.0</ele><time>2026-04-29T15:24:54.999Z</time></trkpt><trkpt lat="44.48190914704067" lon="9.274178157306372"><ele>887.0</ele><time>2026-04-29T15:24:55.999Z</time></trkpt><trkpt lat="44.481905800998895" lon="9.274028163499853"><ele>888.0</ele><time>2026-04-29T15:24:56.999Z</time></trkpt><trkpt lat="44.48188836947987" lon="9.273858727011454"><ele>889.0</ele><time>2026-04-29T15:24:57.999Z</time></trkpt><trkpt lat="44.48184427342574" lon="9.273677656074028"><ele>889.0</ele><time>2026-04-29T15:24:58.999Z</time></trkpt><trkpt lat="44.481767818969466" lon="9.273497239323973"><ele>889.0</ele><time>2026-04-29T15:24:59.999Z</time></trkpt><trkpt lat="44.48167799861998" lon="9.273310404066343"><ele>889.0</ele><time>2026-04-29T15:25:00.999Z</time></trkpt><trkpt lat="44.481599392189764" lon="9.273150353196339"><ele>889.0</ele><time>2026-04-29T15:25:01.999Z</time></trkpt><trkpt lat="44.48151231542487" lon="9.273025144839295"><ele>889.3333333333333</ele><time>2026-04-29T15:25:02.999Z</time></trkpt><trkpt lat="44.48140800733239" lon="9.272911092898939"><ele>889.6666666666667</ele><time>2026-04-29T15:25:03.999Z</time></trkpt><trkpt lat="44.48125998675094" lon="9.272815453650448"><ele>890.0</ele><time>2026-04-29T15:25:04.999Z</time></trkpt><trkpt lat="44.481087338432" lon="9.272698063064109"><ele>890.0</ele><time>2026-04-29T15:25:05.999Z</time></trkpt><trkpt lat="44.48090542441275" lon="9.272556314283422"><ele>890.0</ele><time>2026-04-29T15:25:06.999Z</time></trkpt><trkpt lat="44.48071601485413" lon="9.27244704683936"><ele>890.0</ele><time>2026-04-29T15:25:07.999Z</time></trkpt><trkpt lat="44.480533583815514" lon="9.272305164953652"><ele>889.0</ele><time>2026-04-29T15:25:08.999Z</time></trkpt><trkpt lat="44.480352795878325" lon="9.272172172885723"><ele>888.0</ele><time>2026-04-29T15:25:09.999Z</time></trkpt><trkpt lat="44.48017934743993" lon="9.272052848164638"><ele>887.0</ele><time>2026-04-29T15:25:10.999Z</time></trkpt><trkpt lat="44.48003138269928" lon="9.271934032279514"><ele>887.0</ele><time>2026-04-29T15:25:11.999Z</time></trkpt><trkpt lat="44.47988989194882" lon="9.271828889630886"><ele>887.0</ele><time>2026-04-29T15:25:12.999Z</time></trkpt><trkpt lat="44.479772296929625" lon="9.271716747458157"><ele>887.0</ele><time>2026-04-29T15:25:13.999Z</time></trkpt><trkpt lat="44.47966003125042" lon="9.27157743239164"><ele>887.0</ele><time>2026-04-29T15:25:14.999Z</time></trkpt><trkpt lat="44.479571163761534" lon="9.27143840736664"><ele>887.0</ele><time>2026-04-29T15:25:15.999Z</time></trkpt><trkpt lat="44.479485733880985" lon="9.27129991342941"><ele>887.0</ele><time>2026-04-29T15:25:16.999Z</time></trkpt><trkpt lat="44.479417816365746" lon="9.271166078508909"><ele>887.0</ele><time>2026-04-29T15:25:17.999Z</time></trkpt><trkpt lat="44.479373446410406" lon="9.271029995963767"><ele>887.0</ele><time>2026-04-29T15:25:18.999Z</time></trkpt><trkpt lat="44.47934490102496" lon="9.270846126544463"><ele>887.0</ele><time>2026-04-29T15:25:19.999Z</time></trkpt><trkpt lat="44.47929983055824" lon="9.270632214328446"><ele>887.0</ele><time>2026-04-29T15:25:20.999Z</time></trkpt><trkpt lat="44.47924127897573" lon="9.27038840070711"><ele>890.0</ele><time>2026-04-29T15:25:21.999Z</time></trkpt><trkpt lat="44.47918394481901" lon="9.270154053005644"><ele>893.0</ele><time>2026-04-29T15:25:22.999Z</time></trkpt><trkpt lat="44.47913151695308" lon="9.269927976484801"><ele>896.0</ele><time>2026-04-29T15:25:23.999Z</time></trkpt><trkpt lat="44.47907445972011" lon="9.269692019043033"><ele>900.0</ele><time>2026-04-29T15:25:24.999Z</time></trkpt><trkpt lat="44.478993647657894" lon="9.269461582208885"><ele>904.0</ele><time>2026-04-29T15:25:25.999Z</time></trkpt><trkpt lat="44.47889281749909" lon="9.269216725652555"><ele>908.0</ele><time>2026-04-29T15:25:26.999Z</time></trkpt><trkpt lat="44.47878874074005" lon="9.26897575941829"><ele>902.3333333333334</ele><time>2026-04-29T15:25:27.999Z</time></trkpt><trkpt lat="44.47869459877997" lon="9.268744617241119"><ele>896.6666666666667</ele><time>2026-04-29T15:25:29Z</time></trkpt><trkpt lat="44.47860545584579" lon="9.268527161274587"><ele>891.0</ele><time>2026-04-29T15:25:30Z</time></trkpt><trkpt lat="44.47850730318838" lon="9.26834000148271"><ele>891.0</ele><time>2026-04-29T15:25:31Z</time></trkpt><trkpt lat="44.47839793451552" lon="9.268171815434268"><ele>891.0</ele><time>2026-04-29T15:25:32Z</time></trkpt><trkpt lat="44.4782803320785" lon="9.268017537581036"><ele>891.0</ele><time>2026-04-29T15:25:33Z</time></trkpt><trkpt lat="44.478172550394206" lon="9.267863480137011"><ele>892.6666666666667</ele><time>2026-04-29T15:25:34Z</time></trkpt><trkpt lat="44.478074742026315" lon="9.267690632879132"><ele>894.3333333333334</ele><time>2026-04-29T15:25:35Z</time></trkpt><trkpt lat="44.477982123189996" lon="9.267482463401707"><ele>896.0</ele><time>2026-04-29T15:25:36Z</time></trkpt><trkpt lat="44.47788630731344" lon="9.267254882357966"><ele>896.0</ele><time>2026-04-29T15:25:37Z</time></trkpt><trkpt lat="44.47779480509813" lon="9.267027403311973"><ele>896.0</ele><time>2026-04-29T15:25:38Z</time></trkpt><trkpt lat="44.477703174552964" lon="9.266799175745893"><ele>896.0</ele><time>2026-04-29T15:25:39Z</time></trkpt><trkpt lat="44.477596845838875" lon="9.26657860835661"><ele>900.3333333333334</ele><time>2026-04-29T15:25:40Z</time></trkpt><trkpt lat="44.47747714217446" lon="9.266351642463508"><ele>904.6666666666667</ele><time>2026-04-29T15:25:41Z</time></trkpt><trkpt lat="44.477367014405765" lon="9.266151126078302"><ele>909.0</ele><time>2026-04-29T15:25:42Z</time></trkpt><trkpt lat="44.47726385277586" lon="9.26596165477733"><ele>909.0</ele><time>2026-04-29T15:25:43Z</time></trkpt><trkpt lat="44.47717114177937" lon="9.265758618684323"><ele>909.0</ele><time>2026-04-29T15:25:44Z</time></trkpt><trkpt lat="44.477086343805425" lon="9.265541276610456"><ele>909.0</ele><time>2026-04-29T15:25:45Z</time></trkpt><trkpt lat="44.47701115621215" lon="9.265300070466514"><ele>907.6666666666667</ele><time>2026-04-29T15:25:46Z</time></trkpt><trkpt lat="44.476942617849964" lon="9.26503118206136"><ele>906.3333333333334</ele><time>2026-04-29T15:25:47Z</time></trkpt><trkpt lat="44.47687484938002" lon="9.26477470398929"><ele>905.0</ele><time>2026-04-29T15:25:48Z</time></trkpt><trkpt lat="44.476810663653815" lon="9.264533256678384"><ele>905.0</ele><time>2026-04-29T15:25:49Z</time></trkpt><trkpt lat="44.47674807175229" lon="9.264310689566221"><ele>905.0</ele><time>2026-04-29T15:25:50Z</time></trkpt><trkpt lat="44.47668726067223" lon="9.26410266252044"><ele>905.0</ele><time>2026-04-29T15:25:51Z</time></trkpt><trkpt lat="44.476608266491134" lon="9.263911703477296"><ele>908.6666666666667</ele><time>2026-04-29T15:25:52Z</time></trkpt><trkpt lat="44.4765014944272" lon="9.263712270535306"><ele>912.3333333333333</ele><time>2026-04-29T15:25:53Z</time></trkpt><trkpt lat="44.476380059642004" lon="9.263499771516368"><ele>916.0</ele><time>2026-04-29T15:25:54Z</time></trkpt><trkpt lat="44.47626980891665" lon="9.263305643014887"><ele>912.8</ele><time>2026-04-29T15:25:55Z</time></trkpt><trkpt lat="44.47617425335207" lon="9.26313376935305"><ele>909.5999999999999</ele><time>2026-04-29T15:25:56Z</time></trkpt><trkpt lat="44.4761168890457" lon="9.263017891498995"><ele>906.4</ele><time>2026-04-29T15:25:57Z</time></trkpt><trkpt lat="44.47608630316862" lon="9.262892810205717"><ele>903.2</ele><time>2026-04-29T15:25:58Z</time></trkpt><trkpt lat="44.47608184398879" lon="9.262769522947943"><ele>900.0</ele><time>2026-04-29T15:25:59Z</time></trkpt><trkpt lat="44.476110457701886" lon="9.262632469981446"><ele>899.75</ele><time>2026-04-29T15:26:00Z</time></trkpt><trkpt lat="44.47615913248044" lon="9.262499008975643"><ele>899.5</ele><time>2026-04-29T15:26:01Z</time></trkpt><trkpt lat="44.476228208143596" lon="9.262325366249494"><ele>899.25</ele><time>2026-04-29T15:26:02Z</time></trkpt><trkpt lat="44.476295351230846" lon="9.262139622488162"><ele>899.0</ele><time>2026-04-29T15:26:03Z</time></trkpt><trkpt lat="44.47637069189806" lon="9.261946982970144"><ele>905.5</ele><time>2026-04-29T15:26:04Z</time></trkpt><trkpt lat="44.47644089209203" lon="9.261739570484586"><ele>912.0</ele><time>2026-04-29T15:26:05Z</time></trkpt><trkpt lat="44.47650049290444" lon="9.261555131160161"><ele>918.5</ele><time>2026-04-29T15:26:06Z</time></trkpt><trkpt lat="44.47654646513659" lon="9.26139282108518"><ele>925.0</ele><time>2026-04-29T15:26:07Z</time></trkpt><trkpt lat="44.47657342953791" lon="9.261241064211926"><ele>925.0</ele><time>2026-04-29T15:26:08Z</time></trkpt><trkpt lat="44.47658016263251" lon="9.26107282096245"><ele>925.0</ele><time>2026-04-29T15:26:09Z</time></trkpt><trkpt lat="44.476558053968255" lon="9.26090370360774"><ele>925.0</ele><time>2026-04-29T15:26:10Z</time></trkpt><trkpt lat="44.47650260375301" lon="9.260722389379078"><ele>925.0</ele><time>2026-04-29T15:26:11Z</time></trkpt><trkpt lat="44.47643808424584" lon="9.260519341306518"><ele>927.6666666666666</ele><time>2026-04-29T15:26:12Z</time></trkpt><trkpt lat="44.47637015150838" lon="9.260320521659967"><ele>930.3333333333333</ele><time>2026-04-29T15:26:13Z</time></trkpt><trkpt lat="44.47629688199642" lon="9.260126795766654"><ele>933.0</ele><time>2026-04-29T15:26:14Z</time></trkpt><trkpt lat="44.47620132776256" lon="9.25993248835393"><ele>927.5</ele><time>2026-04-29T15:26:15Z</time></trkpt><trkpt lat="44.47610805286455" lon="9.259758255566641"><ele>922.0</ele><time>2026-04-29T15:26:16Z</time></trkpt><trkpt lat="44.47602211712029" lon="9.259597725063218"><ele>916.5</ele><time>2026-04-29T15:26:17Z</time></trkpt><trkpt lat="44.4759484771469" lon="9.259442232731198"><ele>911.0</ele><time>2026-04-29T15:26:18Z</time></trkpt><trkpt lat="44.47588630083267" lon="9.259301789243809"><ele>911.0</ele><time>2026-04-29T15:26:19Z</time></trkpt><trkpt lat="44.47583945990733" lon="9.259162900513505"><ele>910.9999999999999</ele><time>2026-04-29T15:26:20Z</time></trkpt><trkpt lat="44.47581843484446" lon="9.259014228631308"><ele>910.9999999999999</ele><time>2026-04-29T15:26:21Z</time></trkpt><trkpt lat="44.475817947550546" lon="9.258860055882268"><ele>911.0</ele><time>2026-04-29T15:26:22Z</time></trkpt><trkpt lat="44.47583185621853" lon="9.258707821356904"><ele>911.0</ele><time>2026-04-29T15:26:23Z</time></trkpt><trkpt lat="44.475871988714076" lon="9.258557611283369"><ele>910.8</ele><time>2026-04-29T15:26:24Z</time></trkpt><trkpt lat="44.47593306580704" lon="9.258405050644932"><ele>910.5999999999999</ele><time>2026-04-29T15:26:25Z</time></trkpt><trkpt lat="44.47599836065002" lon="9.258269940546612"><ele>910.4</ele><time>2026-04-29T15:26:26Z</time></trkpt><trkpt lat="44.476067496898196" lon="9.258160548700818"><ele>910.2</ele><time>2026-04-29T15:26:27Z</time></trkpt><trkpt lat="44.476149397056126" lon="9.258071056538105"><ele>910.0</ele><time>2026-04-29T15:26:28Z</time></trkpt><trkpt lat="44.4762458639229" lon="9.25800503672973"><ele>909.75</ele><time>2026-04-29T15:26:29Z</time></trkpt><trkpt lat="44.476359778200745" lon="9.257960747197101"><ele>909.5</ele><time>2026-04-29T15:26:30Z</time></trkpt><trkpt lat="44.47647661356136" lon="9.257924048539408"><ele>909.25</ele><time>2026-04-29T15:26:31Z</time></trkpt><trkpt lat="44.47658564606722" lon="9.25790725931863"><ele>909.0</ele><time>2026-04-29T15:26:32Z</time></trkpt><trkpt lat="44.47668672717809" lon="9.257940865227704"><ele>909.0</ele><time>2026-04-29T15:26:33Z</time></trkpt><trkpt lat="44.476799483169685" lon="9.257982062444274"><ele>909.0000000000001</ele><time>2026-04-29T15:26:34Z</time></trkpt><trkpt lat="44.476901531609904" lon="9.258011703022282"><ele>909.0000000000001</ele><time>2026-04-29T15:26:35Z</time></trkpt><trkpt lat="44.477003042182155" lon="9.258019798777143"><ele>909.0</ele><time>2026-04-29T15:26:36Z</time></trkpt><trkpt lat="44.47708724094075" lon="9.257991737058072"><ele>909.0</ele><time>2026-04-29T15:26:37Z</time></trkpt><trkpt lat="44.477188621230646" lon="9.257919310565185"><ele>910.0</ele><time>2026-04-29T15:26:38Z</time></trkpt><trkpt lat="44.47728621764171" lon="9.257834845266494"><ele>911.0</ele><time>2026-04-29T15:26:39Z</time></trkpt><trkpt lat="44.477365284415754" lon="9.257721820601128"><ele>912.0</ele><time>2026-04-29T15:26:40Z</time></trkpt><trkpt lat="44.477420230133134" lon="9.257589049978312"><ele>913.0</ele><time>2026-04-29T15:26:41Z</time></trkpt><trkpt lat="44.47746057406341" lon="9.257429771803507"><ele>914.5</ele><time>2026-04-29T15:26:42Z</time></trkpt><trkpt lat="44.47748437379869" lon="9.257232289783717"><ele>916.0</ele><time>2026-04-29T15:26:43Z</time></trkpt><trkpt lat="44.47751089549786" lon="9.257019522979375"><ele>917.5</ele><time>2026-04-29T15:26:44Z</time></trkpt><trkpt lat="44.47753140453072" lon="9.256823386877457"><ele>919.0</ele><time>2026-04-29T15:26:44.999Z</time></trkpt><trkpt lat="44.47754496787366" lon="9.256651427410032"><ele>919.0</ele><time>2026-04-29T15:26:45.999Z</time></trkpt><trkpt lat="44.47753078231726" lon="9.256474450026557"><ele>919.0</ele><time>2026-04-29T15:26:46.999Z</time></trkpt><trkpt lat="44.47749200152819" lon="9.256296922902884"><ele>919.0</ele><time>2026-04-29T15:26:47.999Z</time></trkpt><trkpt lat="44.47744182593657" lon="9.256079003564237"><ele>919.0</ele><time>2026-04-29T15:26:48.999Z</time></trkpt><trkpt lat="44.47737499629513" lon="9.255876663299237"><ele>918.6666666666666</ele><time>2026-04-29T15:26:49.999Z</time></trkpt><trkpt lat="44.4773050412344" lon="9.255668567098244"><ele>918.3333333333333</ele><time>2026-04-29T15:26:50.999Z</time></trkpt><trkpt lat="44.477204859506344" lon="9.255466129912538"><ele>918.0</ele><time>2026-04-29T15:26:51.999Z</time></trkpt><trkpt lat="44.47707968671066" lon="9.255257172351808"><ele>918.0</ele><time>2026-04-29T15:26:52.999Z</time></trkpt><trkpt lat="44.476969553735614" lon="9.255075452926429"><ele>918.0</ele><time>2026-04-29T15:26:53.999Z</time></trkpt><trkpt lat="44.47686674589145" lon="9.254905819979616"><ele>918.0</ele><time>2026-04-29T15:26:54.999Z</time></trkpt><trkpt lat="44.47676320699758" lon="9.254742345235044"><ele>920.3333333333333</ele><time>2026-04-29T15:26:55.999Z</time></trkpt><trkpt lat="44.476645221704125" lon="9.254606226574746"><ele>922.6666666666666</ele><time>2026-04-29T15:26:56.999Z</time></trkpt><trkpt lat="44.47652114218703" lon="9.254496835873057"><ele>925.0</ele><time>2026-04-29T15:26:57.999Z</time></trkpt><trkpt lat="44.47638232173198" lon="9.254378039203653"><ele>923.0</ele><time>2026-04-29T15:26:58.999Z</time></trkpt><trkpt lat="44.47624061943568" lon="9.254256802350536"><ele>921.0</ele><time>2026-04-29T15:26:59.999Z</time></trkpt><trkpt lat="44.4761081137132" lon="9.254143433831386"><ele>919.0</ele><time>2026-04-29T15:27:00.999Z</time></trkpt><trkpt lat="44.47597922113978" lon="9.254056239077123"><ele>923.0</ele><time>2026-04-29T15:27:01.999Z</time></trkpt><trkpt lat="44.475866217694566" lon="9.25394647965096"><ele>927.0</ele><time>2026-04-29T15:27:02.999Z</time></trkpt><trkpt lat="44.47575027712612" lon="9.253800687620164"><ele>931.0</ele><time>2026-04-29T15:27:03.999Z</time></trkpt><trkpt lat="44.47564359876489" lon="9.253635715130653"><ele>931.0</ele><time>2026-04-29T15:27:04.999Z</time></trkpt><trkpt lat="44.47553861915248" lon="9.25344875677133"><ele>931.0</ele><time>2026-04-29T15:27:05.999Z</time></trkpt><trkpt lat="44.47545675458375" lon="9.253311299321075"><ele>931.0</ele><time>2026-04-29T15:27:06.999Z</time></trkpt><trkpt lat="44.47537155839303" lon="9.253160466101251"><ele>931.0</ele><time>2026-04-29T15:27:07.999Z</time></trkpt><trkpt lat="44.47531195052638" lon="9.253031422780289"><ele>927.75</ele><time>2026-04-29T15:27:08.999Z</time></trkpt><trkpt lat="44.4752836871953" lon="9.252902719226388"><ele>924.5</ele><time>2026-04-29T15:27:09.999Z</time></trkpt><trkpt lat="44.47526086283739" lon="9.252738479913253"><ele>921.25</ele><time>2026-04-29T15:27:10.999Z</time></trkpt><trkpt lat="44.47524682425548" lon="9.252551529213958"><ele>918.0</ele><time>2026-04-29T15:27:11.999Z</time></trkpt><trkpt lat="44.4752325827777" lon="9.25235686284538"><ele>921.0</ele><time>2026-04-29T15:27:12.999Z</time></trkpt><trkpt lat="44.47521195089364" lon="9.252174218990966"><ele>924.0</ele><time>2026-04-29T15:27:13.999Z</time></trkpt><trkpt lat="44.475160482438376" lon="9.251973779646967"><ele>927.0</ele><time>2026-04-29T15:27:14.999Z</time></trkpt><trkpt lat="44.47508696945029" lon="9.251745510405394"><ele>927.0</ele><time>2026-04-29T15:27:15.999Z</time></trkpt><trkpt lat="44.475011635351564" lon="9.251509796735375"><ele>927.0</ele><time>2026-04-29T15:27:16.999Z</time></trkpt><trkpt lat="44.474938521210014" lon="9.251289939389977"><ele>927.0</ele><time>2026-04-29T15:27:17.999Z</time></trkpt><trkpt lat="44.4748693828158" lon="9.25107175958187"><ele>928.5</ele><time>2026-04-29T15:27:18.999Z</time></trkpt><trkpt lat="44.47481927553667" lon="9.25088874953669"><ele>930.0</ele><time>2026-04-29T15:27:19.999Z</time></trkpt><trkpt lat="44.47477369736421" lon="9.25073381441973"><ele>931.5</ele><time>2026-04-29T15:27:20.999Z</time></trkpt><trkpt lat="44.47472337904493" lon="9.250605478166447"><ele>933.0</ele><time>2026-04-29T15:27:21.999Z</time></trkpt><trkpt lat="44.47464676455511" lon="9.250502264652104"><ele>933.75</ele><time>2026-04-29T15:27:22.999Z</time></trkpt><trkpt lat="44.47454294506816" lon="9.250425612633443"><ele>934.5</ele><time>2026-04-29T15:27:23.999Z</time></trkpt><trkpt lat="44.474410294844226" lon="9.250363086029783"><ele>935.25</ele><time>2026-04-29T15:27:24.999Z</time></trkpt><trkpt lat="44.47425079052814" lon="9.250290418188928"><ele>936.0</ele><time>2026-04-29T15:27:25.999Z</time></trkpt><trkpt lat="44.474078332003565" lon="9.250204749288345"><ele>936.0</ele><time>2026-04-29T15:27:26.999Z</time></trkpt><trkpt lat="44.473908693964454" lon="9.250130785058392"><ele>936.0</ele><time>2026-04-29T15:27:27.999Z</time></trkpt><trkpt lat="44.47372155626352" lon="9.25004045872477"><ele>936.0</ele><time>2026-04-29T15:27:28.999Z</time></trkpt><trkpt lat="44.47355767654466" lon="9.249969506741934"><ele>935.75</ele><time>2026-04-29T15:27:29.999Z</time></trkpt><trkpt lat="44.47340409784517" lon="9.249901881265256"><ele>935.5</ele><time>2026-04-29T15:27:30.999Z</time></trkpt><trkpt lat="44.473264705471436" lon="9.249843613038914"><ele>935.25</ele><time>2026-04-29T15:27:31.999Z</time></trkpt><trkpt lat="44.47315820797911" lon="9.249801869860915"><ele>935.0</ele><time>2026-04-29T15:27:32.999Z</time></trkpt><trkpt lat="44.473053003028234" lon="9.249800509332884"><ele>933.25</ele><time>2026-04-29T15:27:33.999Z</time></trkpt><trkpt lat="44.472937092757036" lon="9.249809127019072"><ele>931.5</ele><time>2026-04-29T15:27:35Z</time></trkpt><trkpt lat="44.47282745279581" lon="9.249851125700724"><ele>929.75</ele><time>2026-04-29T15:27:36Z</time></trkpt><trkpt lat="44.47272125144657" lon="9.249918720373005"><ele>928.0</ele><time>2026-04-29T15:27:37Z</time></trkpt><trkpt lat="44.472614339354124" lon="9.249991459203153"><ele>928.0</ele><time>2026-04-29T15:27:38Z</time></trkpt><trkpt lat="44.472526482843826" lon="9.250073491712824"><ele>928.0</ele><time>2026-04-29T15:27:39Z</time></trkpt><trkpt lat="44.47243108540278" lon="9.250135039644762"><ele>928.0</ele><time>2026-04-29T15:27:40Z</time></trkpt><trkpt lat="44.47235981382794" lon="9.250184351009356"><ele>928.0</ele><time>2026-04-29T15:27:41Z</time></trkpt><trkpt lat="44.4722460989734" lon="9.250216941885249"><ele>928.0</ele><time>2026-04-29T15:27:43Z</time></trkpt><trkpt lat="44.47218436190511" lon="9.250181574428694"><ele>928.0</ele><time>2026-04-29T15:27:44Z</time></trkpt><trkpt lat="44.47212705590267" lon="9.250118788980675"><ele>928.0</ele><time>2026-04-29T15:27:45Z</time></trkpt><trkpt lat="44.4720840785175" lon="9.25003734525324"><ele>928.0</ele><time>2026-04-29T15:27:46Z</time></trkpt><trkpt lat="44.472035208591144" lon="9.249918394113184"><ele>928.0</ele><time>2026-04-29T15:27:47Z</time></trkpt><trkpt lat="44.47197537850638" lon="9.249753449630923"><ele>928.0</ele><time>2026-04-29T15:27:48Z</time></trkpt><trkpt lat="44.47191526942703" lon="9.249621092809106"><ele>926.25</ele><time>2026-04-29T15:27:49Z</time></trkpt><trkpt lat="44.471861199296164" lon="9.24948642359314"><ele>924.5</ele><time>2026-04-29T15:27:50Z</time></trkpt><trkpt lat="44.47179810037225" lon="9.249361980579337"><ele>922.75</ele><time>2026-04-29T15:27:51Z</time></trkpt><trkpt lat="44.4717174387892" lon="9.249257081452141"><ele>921.0</ele><time>2026-04-29T15:27:52Z</time></trkpt><trkpt lat="44.47161509808923" lon="9.249158030244326"><ele>921.0</ele><time>2026-04-29T15:27:53Z</time></trkpt><trkpt lat="44.471493927991716" lon="9.249023437483789"><ele>921.0</ele><time>2026-04-29T15:27:54Z</time></trkpt><trkpt lat="44.471355737692214" lon="9.248943956762183"><ele>921.0</ele><time>2026-04-29T15:27:55Z</time></trkpt><trkpt lat="44.47123232865866" lon="9.248846458989018"><ele>921.0</ele><time>2026-04-29T15:27:56Z</time></trkpt><trkpt lat="44.47112678622746" lon="9.248714126748531"><ele>918.0</ele><time>2026-04-29T15:27:57Z</time></trkpt><trkpt lat="44.4710346055879" lon="9.248566360462071"><ele>915.0</ele><time>2026-04-29T15:27:58Z</time></trkpt><trkpt lat="44.470923688358106" lon="9.24844376336216"><ele>912.0</ele><time>2026-04-29T15:27:59Z</time></trkpt><trkpt lat="44.47080819715994" lon="9.248342133484591"><ele>909.0</ele><time>2026-04-29T15:28:00Z</time></trkpt><trkpt lat="44.47071492804618" lon="9.248248550739582"><ele>902.5</ele><time>2026-04-29T15:28:01Z</time></trkpt><trkpt lat="44.47064178670541" lon="9.248108315507292"><ele>896.0</ele><time>2026-04-29T15:28:02Z</time></trkpt><trkpt lat="44.47059490103186" lon="9.247943778960442"><ele>889.5</ele><time>2026-04-29T15:28:03Z</time></trkpt><trkpt lat="44.47053300348384" lon="9.247795307357917"><ele>883.0</ele><time>2026-04-29T15:28:04Z</time></trkpt><trkpt lat="44.47042375528605" lon="9.24761651115811"><ele>883.0</ele><time>2026-04-29T15:28:05Z</time></trkpt><trkpt lat="44.47026745212926" lon="9.247443050211949"><ele>883.0</ele><time>2026-04-29T15:28:06Z</time></trkpt><trkpt lat="44.47011796570205" lon="9.24727118725328"><ele>883.0</ele><time>2026-04-29T15:28:07Z</time></trkpt><trkpt lat="44.46998429861968" lon="9.247125389444406"><ele>879.25</ele><time>2026-04-29T15:28:08Z</time></trkpt><trkpt lat="44.46987467834993" lon="9.246973122663794"><ele>875.5</ele><time>2026-04-29T15:28:09Z</time></trkpt><trkpt lat="44.46978449281864" lon="9.246813733418117"><ele>871.75</ele><time>2026-04-29T15:28:10Z</time></trkpt><trkpt lat="44.46970057037468" lon="9.246744962095114"><ele>868.0</ele><time>2026-04-29T15:28:11Z</time></trkpt><trkpt lat="44.46958757973267" lon="9.246638218077713"><ele>868.0</ele><time>2026-04-29T15:28:12Z</time></trkpt><trkpt lat="44.46942953307641" lon="9.246533927996095"><ele>868.0</ele><time>2026-04-29T15:28:13Z</time></trkpt><trkpt lat="44.46924207895746" lon="9.246425597298698"><ele>868.0</ele><time>2026-04-29T15:28:14Z</time></trkpt><trkpt lat="44.4690514679097" lon="9.246322316915096"><ele>873.3333333333333</ele><time>2026-04-29T15:28:15Z</time></trkpt><trkpt lat="44.46887064740012" lon="9.246225258413745"><ele>878.6666666666667</ele><time>2026-04-29T15:28:16Z</time></trkpt><trkpt lat="44.46869297810088" lon="9.246117755208624"><ele>884.0</ele><time>2026-04-29T15:28:17Z</time></trkpt><trkpt lat="44.46852626164075" lon="9.246012919144732"><ele>884.0</ele><time>2026-04-29T15:28:18Z</time></trkpt><trkpt lat="44.4683531088622" lon="9.245922900534046"><ele>884.0</ele><time>2026-04-29T15:28:19Z</time></trkpt><trkpt lat="44.46818108534318" lon="9.245859660616643"><ele>884.0</ele><time>2026-04-29T15:28:20Z</time></trkpt><trkpt lat="44.4680352693809" lon="9.245829437535987"><ele>875.0</ele><time>2026-04-29T15:28:21Z</time></trkpt><trkpt lat="44.46790479126016" lon="9.24580912676684"><ele>866.0</ele><time>2026-04-29T15:28:22Z</time></trkpt><trkpt lat="44.46779111333831" lon="9.245788554339548"><ele>857.0</ele><time>2026-04-29T15:28:23Z</time></trkpt><trkpt lat="44.46767945406755" lon="9.24574808885431"><ele>848.0</ele><time>2026-04-29T15:28:24Z</time></trkpt><trkpt lat="44.46758040892144" lon="9.245702071686686"><ele>848.0000000000001</ele><time>2026-04-29T15:28:25Z</time></trkpt><trkpt lat="44.46750002044169" lon="9.24562964451193"><ele>848.0</ele><time>2026-04-29T15:28:26Z</time></trkpt><trkpt lat="44.46744891203855" lon="9.24553632680151"><ele>848.0</ele><time>2026-04-29T15:28:27Z</time></trkpt><trkpt lat="44.46741604956651" lon="9.245424489450558"><ele>848.0</ele><time>2026-04-29T15:28:28Z</time></trkpt><trkpt lat="44.46741597334707" lon="9.245311961108449"><ele>848.0000000000001</ele><time>2026-04-29T15:28:29Z</time></trkpt><trkpt lat="44.46743616894482" lon="9.245177575355351"><ele>848.0</ele><time>2026-04-29T15:28:30Z</time></trkpt><trkpt lat="44.46745802473268" lon="9.245040574714231"><ele>853.5</ele><time>2026-04-29T15:28:31Z</time></trkpt><trkpt lat="44.467458193318734" lon="9.24489357017363"><ele>859.0</ele><time>2026-04-29T15:28:32Z</time></trkpt><trkpt lat="44.46742586965885" lon="9.244740420034057"><ele>864.5</ele><time>2026-04-29T15:28:33Z</time></trkpt><trkpt lat="44.467384784368825" lon="9.244584495496062"><ele>870.0</ele><time>2026-04-29T15:28:34Z</time></trkpt><trkpt lat="44.467340940618996" lon="9.244433329370437"><ele>872.0</ele><time>2026-04-29T15:28:35Z</time></trkpt><trkpt lat="44.467281214136484" lon="9.244297661715336"><ele>874.0</ele><time>2026-04-29T15:28:36Z</time></trkpt><trkpt lat="44.467207153304514" lon="9.244183074279118"><ele>876.0</ele><time>2026-04-29T15:28:37Z</time></trkpt><trkpt lat="44.4671323726059" lon="9.244067982958626"><ele>878.0</ele><time>2026-04-29T15:28:38Z</time></trkpt><trkpt lat="44.46706442748088" lon="9.24395098331089"><ele>880.0</ele><time>2026-04-29T15:28:39Z</time></trkpt><trkpt lat="44.46702068826094" lon="9.243841952661056"><ele>877.1666666666666</ele><time>2026-04-29T15:28:40Z</time></trkpt><trkpt lat="44.46699622714989" lon="9.243710747968233"><ele>874.3333333333333</ele><time>2026-04-29T15:28:41Z</time></trkpt><trkpt lat="44.46698613698508" lon="9.243578769155917"><ele>871.5</ele><time>2026-04-29T15:28:42Z</time></trkpt><trkpt lat="44.466986358666695" lon="9.243469981887817"><ele>868.6666666666667</ele><time>2026-04-29T15:28:43Z</time></trkpt><trkpt lat="44.46696468222495" lon="9.24337779811712"><ele>865.8333333333334</ele><time>2026-04-29T15:28:44Z</time></trkpt><trkpt lat="44.466917950283566" lon="9.24324939759341"><ele>863.0</ele><time>2026-04-29T15:28:45Z</time></trkpt><trkpt lat="44.466838530696265" lon="9.243102938378351"><ele>863.0</ele><time>2026-04-29T15:28:46Z</time></trkpt><trkpt lat="44.46671887871068" lon="9.243013166033979"><ele>863.0</ele><time>2026-04-29T15:28:47Z</time></trkpt><trkpt lat="44.466616048081455" lon="9.242969397880684"><ele>863.0</ele><time>2026-04-29T15:28:48Z</time></trkpt><trkpt lat="44.466558106484946" lon="9.242924219241154"><ele>863.0</ele><time>2026-04-29T15:28:49Z</time></trkpt><trkpt lat="44.46651812816167" lon="9.2428543538638"><ele>863.0</ele><time>2026-04-29T15:28:50Z</time></trkpt><trkpt lat="44.466476530036786" lon="9.242736591190821"><ele>863.0</ele><time>2026-04-29T15:28:51Z</time></trkpt><trkpt lat="44.46643605148646" lon="9.242599741361968"><ele>863.0</ele><time>2026-04-29T15:28:51.999Z</time></trkpt><trkpt lat="44.466391978159656" lon="9.242486911449408"><ele>863.0</ele><time>2026-04-29T15:28:52.999Z</time></trkpt><trkpt lat="44.466315738119334" lon="9.242391537268391"><ele>863.0</ele><time>2026-04-29T15:28:53.999Z</time></trkpt><trkpt lat="44.46621248341897" lon="9.242348676661647"><ele>863.0</ele><time>2026-04-29T15:28:54.999Z</time></trkpt><trkpt lat="44.46609663655281" lon="9.242346323584618"><ele>863.4</ele><time>2026-04-29T15:28:55.999Z</time></trkpt><trkpt lat="44.46598802755795" lon="9.242332856821314"><ele>863.8</ele><time>2026-04-29T15:28:56.999Z</time></trkpt><trkpt lat="44.46588630316142" lon="9.242306926494193"><ele>864.2</ele><time>2026-04-29T15:28:57.999Z</time></trkpt><trkpt lat="44.46579264524562" lon="9.242267777894797"><ele>864.6</ele><time>2026-04-29T15:28:58.999Z</time></trkpt><trkpt lat="44.46570650920628" lon="9.242220905863654"><ele>865.0</ele><time>2026-04-29T15:28:59.999Z</time></trkpt><trkpt lat="44.46561623291298" lon="9.242184806596951"><ele>865.0</ele><time>2026-04-29T15:29:00.999Z</time></trkpt><trkpt lat="44.465512088841194" lon="9.242171036968827"><ele>865.0</ele><time>2026-04-29T15:29:01.999Z</time></trkpt><trkpt lat="44.465397124591824" lon="9.242194116512927"><ele>865.0</ele><time>2026-04-29T15:29:02.999Z</time></trkpt><trkpt lat="44.46528536641365" lon="9.24224199510789"><ele>865.0</ele><time>2026-04-29T15:29:03.999Z</time></trkpt><trkpt lat="44.46518434589668" lon="9.242274449190623"><ele>865.0</ele><time>2026-04-29T15:29:04.999Z</time></trkpt><trkpt lat="44.465101581620544" lon="9.242275814935592"><ele>861.25</ele><time>2026-04-29T15:29:05.999Z</time></trkpt><trkpt lat="44.464961907226346" lon="9.242206213602662"><ele>857.5</ele><time>2026-04-29T15:29:07.999Z</time></trkpt><trkpt lat="44.46486834847879" lon="9.242112765057312"><ele>853.75</ele><time>2026-04-29T15:29:08.999Z</time></trkpt><trkpt lat="44.46479566201682" lon="9.242056895083492"><ele>850.0</ele><time>2026-04-29T15:29:09.999Z</time></trkpt><trkpt lat="44.464690925094985" lon="9.242030527381127"><ele>849.0</ele><time>2026-04-29T15:29:10.999Z</time></trkpt><trkpt lat="44.464572581988016" lon="9.242029367138358"><ele>848.0</ele><time>2026-04-29T15:29:11.999Z</time></trkpt><trkpt lat="44.46444479690402" lon="9.242078465153842"><ele>847.0</ele><time>2026-04-29T15:29:12.999Z</time></trkpt><trkpt lat="44.46430043559908" lon="9.242140454375757"><ele>846.0</ele><time>2026-04-29T15:29:13.999Z</time></trkpt><trkpt lat="44.4641868427242" lon="9.24218923153132"><ele>846.0</ele><time>2026-04-29T15:29:14.999Z</time></trkpt><trkpt lat="44.46409963519591" lon="9.242220429901995"><ele>846.0</ele><time>2026-04-29T15:29:15.999Z</time></trkpt><trkpt lat="44.464014570832276" lon="9.242261497226908"><ele>846.0</ele><time>2026-04-29T15:29:16.999Z</time></trkpt><trkpt lat="44.46389094082564" lon="9.242213350189227"><ele>846.0</ele><time>2026-04-29T15:29:17.999Z</time></trkpt><trkpt lat="44.463773013732244" lon="9.242136515107395"><ele>846.0</ele><time>2026-04-29T15:29:18.999Z</time></trkpt><trkpt lat="44.463634707567756" lon="9.242091404138135"><ele>844.0</ele><time>2026-04-29T15:29:19.999Z</time></trkpt><trkpt lat="44.463520092768235" lon="9.242028084798676"><ele>842.0</ele><time>2026-04-29T15:29:20.999Z</time></trkpt><trkpt lat="44.463427713224846" lon="9.241995327737552"><ele>840.0</ele><time>2026-04-29T15:29:21.999Z</time></trkpt><trkpt lat="44.46334060151768" lon="9.241986736102383"><ele>838.0</ele><time>2026-04-29T15:29:22.999Z</time></trkpt><trkpt lat="44.463259143453286" lon="9.241980592897514"><ele>836.0</ele><time>2026-04-29T15:29:23.999Z</time></trkpt><trkpt lat="44.46314599171711" lon="9.242029437245671"><ele>836.0</ele><time>2026-04-29T15:29:24.999Z</time></trkpt><trkpt lat="44.46302251182576" lon="9.242128620213316"><ele>836.0</ele><time>2026-04-29T15:29:25.999Z</time></trkpt><trkpt lat="44.462895798971914" lon="9.242240361532968"><ele>836.0</ele><time>2026-04-29T15:29:26.999Z</time></trkpt><trkpt lat="44.46277000420712" lon="9.242351580514006"><ele>836.0</ele><time>2026-04-29T15:29:27.999Z</time></trkpt><trkpt lat="44.46264466492391" lon="9.242477745555663"><ele>828.25</ele><time>2026-04-29T15:29:28.999Z</time></trkpt><trkpt lat="44.462514826938246" lon="9.242594306176843"><ele>820.5</ele><time>2026-04-29T15:29:29.999Z</time></trkpt><trkpt lat="44.46238964267715" lon="9.242697359097768"><ele>812.75</ele><time>2026-04-29T15:29:30.999Z</time></trkpt><trkpt lat="44.46228948218931" lon="9.242778262718028"><ele>805.0</ele><time>2026-04-29T15:29:31.999Z</time></trkpt><trkpt lat="44.46220046222259" lon="9.242844936683841"><ele>807.2</ele><time>2026-04-29T15:29:32.999Z</time></trkpt><trkpt lat="44.462113898615904" lon="9.24288411104235"><ele>809.4</ele><time>2026-04-29T15:29:33.999Z</time></trkpt><trkpt lat="44.46201258828143" lon="9.242891328166253"><ele>811.5999999999999</ele><time>2026-04-29T15:29:34.999Z</time></trkpt><trkpt lat="44.46189931534119" lon="9.242871263962263"><ele>813.8</ele><time>2026-04-29T15:29:35.999Z</time></trkpt><trkpt lat="44.46178658436521" lon="9.242838746160732"><ele>816.0</ele><time>2026-04-29T15:29:36.999Z</time></trkpt><trkpt lat="44.461684426160666" lon="9.24281139509964"><ele>816.0</ele><time>2026-04-29T15:29:37.999Z</time></trkpt><trkpt lat="44.46158205971672" lon="9.242814521488233"><ele>816.0</ele><time>2026-04-29T15:29:38.999Z</time></trkpt><trkpt lat="44.461481046723776" lon="9.242850922132426"><ele>816.0</ele><time>2026-04-29T15:29:39.999Z</time></trkpt><trkpt lat="44.46140098211408" lon="9.242919352238124"><ele>816.0</ele><time>2026-04-29T15:29:41Z</time></trkpt><trkpt lat="44.46132604463421" lon="9.243021272711278"><ele>816.0</ele><time>2026-04-29T15:29:42Z</time></trkpt><trkpt lat="44.461264258533966" lon="9.243148653939949"><ele>810.0</ele><time>2026-04-29T15:29:43Z</time></trkpt><trkpt lat="44.46119005275721" lon="9.24324740992793"><ele>804.0</ele><time>2026-04-29T15:29:44Z</time></trkpt><trkpt lat="44.46112904599274" lon="9.243336936001587"><ele>798.0</ele><time>2026-04-29T15:29:45Z</time></trkpt><trkpt lat="44.46104580863473" lon="9.24340719893304"><ele>792.0</ele><time>2026-04-29T15:29:46Z</time></trkpt><trkpt lat="44.460946438132936" lon="9.243473918141907"><ele>786.0</ele><time>2026-04-29T15:29:47Z</time></trkpt><trkpt lat="44.46081625348285" lon="9.243488192633345"><ele>786.0</ele><time>2026-04-29T15:29:48Z</time></trkpt><trkpt lat="44.46069411574092" lon="9.243500669462836"><ele>786.0</ele><time>2026-04-29T15:29:49Z</time></trkpt><trkpt lat="44.46056913622807" lon="9.243531135997857"><ele>786.0</ele><time>2026-04-29T15:29:50Z</time></trkpt><trkpt lat="44.460438939767066" lon="9.24359262538231"><ele>786.0</ele><time>2026-04-29T15:29:51Z</time></trkpt><trkpt lat="44.460313939074624" lon="9.24368399010172"><ele>789.75</ele><time>2026-04-29T15:29:52Z</time></trkpt><trkpt lat="44.46019562682384" lon="9.24379932211754"><ele>793.5</ele><time>2026-04-29T15:29:53Z</time></trkpt><trkpt lat="44.46007854234513" lon="9.243904712873452"><ele>797.25</ele><time>2026-04-29T15:29:54Z</time></trkpt><trkpt lat="44.45995821212209" lon="9.244028629285914"><ele>801.0</ele><time>2026-04-29T15:29:55Z</time></trkpt><trkpt lat="44.45983801958591" lon="9.244154620965714"><ele>798.0</ele><time>2026-04-29T15:29:56Z</time></trkpt><trkpt lat="44.45972716076212" lon="9.244298749181253"><ele>795.0</ele><time>2026-04-29T15:29:57Z</time></trkpt><trkpt lat="44.459636414100004" lon="9.24445339268499"><ele>792.0</ele><time>2026-04-29T15:29:58Z</time></trkpt><trkpt lat="44.459557335091375" lon="9.244593714392055"><ele>789.0</ele><time>2026-04-29T15:29:59Z</time></trkpt><trkpt lat="44.459477235307126" lon="9.244735755263148"><ele>781.75</ele><time>2026-04-29T15:30:00Z</time></trkpt><trkpt lat="44.45939995378213" lon="9.244869991211571"><ele>774.5</ele><time>2026-04-29T15:30:01Z</time></trkpt><trkpt lat="44.459316657438244" lon="9.244989947316435"><ele>767.25</ele><time>2026-04-29T15:30:02Z</time></trkpt><trkpt lat="44.45922871629286" lon="9.245095961086928"><ele>760.0</ele><time>2026-04-29T15:30:03Z</time></trkpt><trkpt lat="44.45913932889921" lon="9.245197625760303"><ele>760.0</ele><time>2026-04-29T15:30:04Z</time></trkpt><trkpt lat="44.459048704335316" lon="9.245254229002498"><ele>760.0</ele><time>2026-04-29T15:30:05Z</time></trkpt><trkpt lat="44.45897813765736" lon="9.245392361471072"><ele>760.0</ele><time>2026-04-29T15:30:07Z</time></trkpt><trkpt lat="44.458970453475374" lon="9.24549171710731"><ele>760.0</ele><time>2026-04-29T15:30:08Z</time></trkpt><trkpt lat="44.45902363417369" lon="9.245582353394003"><ele>760.0</ele><time>2026-04-29T15:30:09Z</time></trkpt><trkpt lat="44.45911265342781" lon="9.245588734075387"><ele>760.0</ele><time>2026-04-29T15:30:10Z</time></trkpt><trkpt lat="44.459201311283294" lon="9.245559048909143"><ele>760.0</ele><time>2026-04-29T15:30:11Z</time></trkpt><trkpt lat="44.45931601199401" lon="9.245506974827837"><ele>760.0</ele><time>2026-04-29T15:30:12Z</time></trkpt><trkpt lat="44.459450186316644" lon="9.245446514248131"><ele>760.0</ele><time>2026-04-29T15:30:13Z</time></trkpt><trkpt lat="44.45959258436708" lon="9.245403007380823"><ele>756.75</ele><time>2026-04-29T15:30:14Z</time></trkpt><trkpt lat="44.45973175574344" lon="9.245406085903015"><ele>753.5</ele><time>2026-04-29T15:30:15Z</time></trkpt><trkpt lat="44.459864010778475" lon="9.24536600683939"><ele>750.25</ele><time>2026-04-29T15:30:16Z</time></trkpt><trkpt lat="44.46000243964947" lon="9.245351533305476"><ele>747.0</ele><time>2026-04-29T15:30:17Z</time></trkpt><trkpt lat="44.460137623197404" lon="9.245265798169745"><ele>747.0</ele><time>2026-04-29T15:30:18Z</time></trkpt><trkpt lat="44.460277729610105" lon="9.245185914893975"><ele>747.0</ele><time>2026-04-29T15:30:19Z</time></trkpt><trkpt lat="44.46042890411036" lon="9.245114767557576"><ele>747.0</ele><time>2026-04-29T15:30:20Z</time></trkpt><trkpt lat="44.46057326165217" lon="9.245016443593045"><ele>748.75</ele><time>2026-04-29T15:30:21Z</time></trkpt><trkpt lat="44.46069417476542" lon="9.244887612033327"><ele>750.5</ele><time>2026-04-29T15:30:22Z</time></trkpt><trkpt lat="44.460788239081914" lon="9.244778853223"><ele>752.25</ele><time>2026-04-29T15:30:23Z</time></trkpt><trkpt lat="44.46087313901415" lon="9.244652665020649"><ele>754.0</ele><time>2026-04-29T15:30:24Z</time></trkpt><trkpt lat="44.46095489233706" lon="9.244561198678296"><ele>754.0</ele><time>2026-04-29T15:30:25Z</time></trkpt><trkpt lat="44.46100989841318" lon="9.244487071640055"><ele>754.0</ele><time>2026-04-29T15:30:26Z</time></trkpt><trkpt lat="44.46110249280872" lon="9.244434250757536"><ele>754.0</ele><time>2026-04-29T15:30:28Z</time></trkpt><trkpt lat="44.46115390262433" lon="9.244560556962096"><ele>754.0</ele><time>2026-04-29T15:30:30Z</time></trkpt><trkpt lat="44.46107469678398" lon="9.244711463579776"><ele>754.0</ele><time>2026-04-29T15:30:32Z</time></trkpt><trkpt lat="44.461012877158986" lon="9.244800577028304"><ele>747.75</ele><time>2026-04-29T15:30:33Z</time></trkpt><trkpt lat="44.460935455837856" lon="9.244932592435289"><ele>741.5</ele><time>2026-04-29T15:30:34Z</time></trkpt><trkpt lat="44.46084854322394" lon="9.245076298143633"><ele>735.25</ele><time>2026-04-29T15:30:35Z</time></trkpt><trkpt lat="44.46074046128086" lon="9.245244227807618"><ele>729.0</ele><time>2026-04-29T15:30:36Z</time></trkpt><trkpt lat="44.46060703663408" lon="9.245384387330915"><ele>729.0</ele><time>2026-04-29T15:30:37Z</time></trkpt><trkpt lat="44.46046469342147" lon="9.24551714408495"><ele>729.0</ele><time>2026-04-29T15:30:38Z</time></trkpt><trkpt lat="44.46031217057507" lon="9.245658813247038"><ele>729.0</ele><time>2026-04-29T15:30:39Z</time></trkpt><trkpt lat="44.460148109671216" lon="9.245791693422332"><ele>726.5</ele><time>2026-04-29T15:30:40Z</time></trkpt><trkpt lat="44.46001130257865" lon="9.245919648321335"><ele>724.0</ele><time>2026-04-29T15:30:41Z</time></trkpt><trkpt lat="44.45990466233583" lon="9.246025146435972"><ele>721.5</ele><time>2026-04-29T15:30:42Z</time></trkpt><trkpt lat="44.45982525455395" lon="9.246133441044243"><ele>719.0</ele><time>2026-04-29T15:30:43Z</time></trkpt><trkpt lat="44.45976539436941" lon="9.246283536175914"><ele>719.0</ele><time>2026-04-29T15:30:44Z</time></trkpt><trkpt lat="44.459727104039544" lon="9.246435692483582"><ele>719.0</ele><time>2026-04-29T15:30:45Z</time></trkpt><trkpt lat="44.45970312376176" lon="9.246562245602611"><ele>719.0</ele><time>2026-04-29T15:30:46Z</time></trkpt><trkpt lat="44.459659069196675" lon="9.246664309025931"><ele>719.0</ele><time>2026-04-29T15:30:47Z</time></trkpt><trkpt lat="44.45958797566332" lon="9.246758734292523"><ele>719.0</ele><time>2026-04-29T15:30:48Z</time></trkpt><trkpt lat="44.459490502063936" lon="9.246833130429719"><ele>715.8000000000001</ele><time>2026-04-29T15:30:49Z</time></trkpt><trkpt lat="44.459392310281906" lon="9.246875422176707"><ele>712.6</ele><time>2026-04-29T15:30:49.999Z</time></trkpt><trkpt lat="44.459295319876425" lon="9.246884059990194"><ele>709.4</ele><time>2026-04-29T15:30:50.999Z</time></trkpt><trkpt lat="44.459205623824566" lon="9.246855867592618"><ele>706.2</ele><time>2026-04-29T15:30:51.999Z</time></trkpt><trkpt lat="44.45909949250437" lon="9.246799569240856"><ele>703.0</ele><time>2026-04-29T15:30:52.999Z</time></trkpt><trkpt lat="44.45897206996758" lon="9.246735494956662"><ele>703.0</ele><time>2026-04-29T15:30:53.999Z</time></trkpt><trkpt lat="44.458841570688264" lon="9.24667426953964"><ele>703.0</ele><time>2026-04-29T15:30:54.999Z</time></trkpt><trkpt lat="44.45870527548768" lon="9.246602803462444"><ele>703.0</ele><time>2026-04-29T15:30:55.999Z</time></trkpt><trkpt lat="44.458569612132365" lon="9.24650507388656"><ele>703.0</ele><time>2026-04-29T15:30:56.999Z</time></trkpt><trkpt lat="44.45842812467816" lon="9.246367458710317"><ele>708.3333333333334</ele><time>2026-04-29T15:30:57.999Z</time></trkpt><trkpt lat="44.45827356106054" lon="9.246207387397567"><ele>713.6666666666666</ele><time>2026-04-29T15:30:58.999Z</time></trkpt><trkpt lat="44.458136865953605" lon="9.246093580554545"><ele>719.0</ele><time>2026-04-29T15:30:59.999Z</time></trkpt><trkpt lat="44.458003242855106" lon="9.24597809137139"><ele>713.5</ele><time>2026-04-29T15:31:00.999Z</time></trkpt><trkpt lat="44.45787703289427" lon="9.245970017982732"><ele>708.0</ele><time>2026-04-29T15:31:02.999Z</time></trkpt><trkpt lat="44.457751808057566" lon="9.246006608464494"><ele>702.5</ele><time>2026-04-29T15:31:03.999Z</time></trkpt><trkpt lat="44.45758979304284" lon="9.246072258254692"><ele>697.0</ele><time>2026-04-29T15:31:04.999Z</time></trkpt><trkpt lat="44.457434104256464" lon="9.246121041955202"><ele>697.0</ele><time>2026-04-29T15:31:05.999Z</time></trkpt><trkpt lat="44.45727491833805" lon="9.246151301031423"><ele>697.0</ele><time>2026-04-29T15:31:06.999Z</time></trkpt><trkpt lat="44.45711903433727" lon="9.24619266414868"><ele>697.0</ele><time>2026-04-29T15:31:07.999Z</time></trkpt><trkpt lat="44.45698420388121" lon="9.246266037865892"><ele>694.0</ele><time>2026-04-29T15:31:08.999Z</time></trkpt><trkpt lat="44.45685226868183" lon="9.246362029827454"><ele>691.0</ele><time>2026-04-29T15:31:09.999Z</time></trkpt><trkpt lat="44.45671728654717" lon="9.246472612026547"><ele>688.0</ele><time>2026-04-29T15:31:10.999Z</time></trkpt><trkpt lat="44.456567293868" lon="9.24657316130539"><ele>684.0</ele><time>2026-04-29T15:31:11.999Z</time></trkpt><trkpt lat="44.456434274282074" lon="9.246682939569446"><ele>680.0</ele><time>2026-04-29T15:31:12.999Z</time></trkpt><trkpt lat="44.45632741374299" lon="9.246783035217836"><ele>676.0</ele><time>2026-04-29T15:31:13.999Z</time></trkpt><trkpt lat="44.456248960917065" lon="9.246869169970315"><ele>672.0</ele><time>2026-04-29T15:31:14.999Z</time></trkpt><trkpt lat="44.45619703006759" lon="9.246934079694396"><ele>672.0</ele><time>2026-04-29T15:31:15.999Z</time></trkpt><trkpt lat="44.45615251378722" lon="9.247018268324528"><ele>672.0</ele><time>2026-04-29T15:31:16.999Z</time></trkpt><trkpt lat="44.4561490532455" lon="9.24713713424197"><ele>672.0</ele><time>2026-04-29T15:31:17.999Z</time></trkpt><trkpt lat="44.456193817440855" lon="9.247245694110068"><ele>672.0</ele><time>2026-04-29T15:31:18.999Z</time></trkpt><trkpt lat="44.45628310717114" lon="9.24729802001122"><ele>672.0</ele><time>2026-04-29T15:31:19.999Z</time></trkpt><trkpt lat="44.4563784468721" lon="9.247253965781123"><ele>672.0</ele><time>2026-04-29T15:31:20.999Z</time></trkpt><trkpt lat="44.45648954928668" lon="9.247217276719857"><ele>672.0</ele><time>2026-04-29T15:31:21.999Z</time></trkpt><trkpt lat="44.456603437778995" lon="9.247183396918192"><ele>672.0</ele><time>2026-04-29T15:31:22.999Z</time></trkpt><trkpt lat="44.45671959923986" lon="9.247164018946185"><ele>672.0</ele><time>2026-04-29T15:31:23.999Z</time></trkpt><trkpt lat="44.45685723611039" lon="9.247174381089756"><ele>672.0</ele><time>2026-04-29T15:31:24.999Z</time></trkpt><trkpt lat="44.45700413597446" lon="9.247214546022077"><ele>672.0</ele><time>2026-04-29T15:31:25.999Z</time></trkpt><trkpt lat="44.45715076756353" lon="9.24725925378856"><ele>672.0</ele><time>2026-04-29T15:31:26.999Z</time></trkpt><trkpt lat="44.457315279469846" lon="9.247289278524699"><ele>672.0</ele><time>2026-04-29T15:31:27.999Z</time></trkpt><trkpt lat="44.45748994263633" lon="9.247289735842347"><ele>672.0</ele><time>2026-04-29T15:31:28.999Z</time></trkpt><trkpt lat="44.45766558037872" lon="9.247285743946518"><ele>672.0</ele><time>2026-04-29T15:31:29.999Z</time></trkpt><trkpt lat="44.45783325101544" lon="9.247311720559233"><ele>672.0</ele><time>2026-04-29T15:31:30.999Z</time></trkpt><trkpt lat="44.45798696340995" lon="9.247366440058606"><ele>669.4000000000001</ele><time>2026-04-29T15:31:31.999Z</time></trkpt><trkpt lat="44.45810761720655" lon="9.247410035784492"><ele>666.8000000000001</ele><time>2026-04-29T15:31:32.999Z</time></trkpt><trkpt lat="44.4582046329324" lon="9.247445474457098"><ele>664.2</ele><time>2026-04-29T15:31:33.999Z</time></trkpt><trkpt lat="44.45827480349274" lon="9.247473437384789"><ele>661.6</ele><time>2026-04-29T15:31:34.999Z</time></trkpt><trkpt lat="44.458361614322136" lon="9.247533149590556"><ele>659.0</ele><time>2026-04-29T15:31:36.999Z</time></trkpt><trkpt lat="44.45831843249006" lon="9.247670698728314"><ele>659.0</ele><time>2026-04-29T15:31:38.999Z</time></trkpt><trkpt lat="44.45825070881869" lon="9.247698287640137"><ele>659.0</ele><time>2026-04-29T15:31:39.999Z</time></trkpt><trkpt lat="44.45818015774299" lon="9.247703470337427"><ele>659.0</ele><time>2026-04-29T15:31:40.999Z</time></trkpt><trkpt lat="44.45807609588435" lon="9.247687817537818"><ele>659.0</ele><time>2026-04-29T15:31:41.999Z</time></trkpt><trkpt lat="44.45795395652435" lon="9.24766716305652"><ele>659.0</ele><time>2026-04-29T15:31:42.999Z</time></trkpt><trkpt lat="44.457817150542375" lon="9.247669441591663"><ele>659.0</ele><time>2026-04-29T15:31:43.999Z</time></trkpt><trkpt lat="44.45768090830499" lon="9.247685763265313"><ele>659.0</ele><time>2026-04-29T15:31:44.999Z</time></trkpt><trkpt lat="44.45754744051994" lon="9.247721931492737"><ele>659.0</ele><time>2026-04-29T15:31:45.999Z</time></trkpt><trkpt lat="44.457389249705656" lon="9.24780486443085"><ele>659.0</ele><time>2026-04-29T15:31:47Z</time></trkpt><trkpt lat="44.45722843266989" lon="9.247911483679584"><ele>657.6666666666666</ele><time>2026-04-29T15:31:48Z</time></trkpt><trkpt lat="44.45704256754924" lon="9.248041998271011"><ele>656.3333333333334</ele><time>2026-04-29T15:31:49Z</time></trkpt><trkpt lat="44.456849637272164" lon="9.248167335558842"><ele>655.0</ele><time>2026-04-29T15:31:50Z</time></trkpt><trkpt lat="44.4566671110367" lon="9.248285941397896"><ele>649.6666666666667</ele><time>2026-04-29T15:31:51Z</time></trkpt><trkpt lat="44.456502745170745" lon="9.248398036290597"><ele>644.3333333333334</ele><time>2026-04-29T15:31:52Z</time></trkpt><trkpt lat="44.45634934668682" lon="9.248516923144583"><ele>639.0</ele><time>2026-04-29T15:31:53Z</time></trkpt><trkpt lat="44.45621496164418" lon="9.248657585205128"><ele>639.0</ele><time>2026-04-29T15:31:54Z</time></trkpt><trkpt lat="44.45608671011601" lon="9.248809203492431"><ele>639.0</ele><time>2026-04-29T15:31:55Z</time></trkpt><trkpt lat="44.45596684792936" lon="9.248945473642614"><ele>639.0</ele><time>2026-04-29T15:31:56Z</time></trkpt><trkpt lat="44.455855142422315" lon="9.249069170494371"><ele>635.75</ele><time>2026-04-29T15:31:57Z</time></trkpt><trkpt lat="44.455741872537835" lon="9.249188767298334"><ele>632.5</ele><time>2026-04-29T15:31:58Z</time></trkpt><trkpt lat="44.455643111317286" lon="9.249290095741879"><ele>629.25</ele><time>2026-04-29T15:31:59Z</time></trkpt><trkpt lat="44.45554056730294" lon="9.249392202571057"><ele>626.0</ele><time>2026-04-29T15:32:00Z</time></trkpt><trkpt lat="44.455432159905065" lon="9.249484338271888"><ele>626.0</ele><time>2026-04-29T15:32:01Z</time></trkpt><trkpt lat="44.45532096245973" lon="9.249553656864022"><ele>626.0</ele><time>2026-04-29T15:32:02Z</time></trkpt><trkpt lat="44.45520961994411" lon="9.249629110679985"><ele>626.0</ele><time>2026-04-29T15:32:03Z</time></trkpt><trkpt lat="44.45510595745258" lon="9.249714394997937"><ele>626.0</ele><time>2026-04-29T15:32:04Z</time></trkpt><trkpt lat="44.4549932959957" lon="9.249774475736091"><ele>622.25</ele><time>2026-04-29T15:32:05Z</time></trkpt><trkpt lat="44.45487865664565" lon="9.249865981665135"><ele>618.5</ele><time>2026-04-29T15:32:06Z</time></trkpt><trkpt lat="44.45477231286282" lon="9.249993683288269"><ele>614.75</ele><time>2026-04-29T15:32:07Z</time></trkpt><trkpt lat="44.45464652447928" lon="9.250112084714797"><ele>611.0</ele><time>2026-04-29T15:32:08Z</time></trkpt><trkpt lat="44.45452066548151" lon="9.250228949652403"><ele>611.0</ele><time>2026-04-29T15:32:09Z</time></trkpt><trkpt lat="44.454399643788555" lon="9.250338288943482"><ele>611.0</ele><time>2026-04-29T15:32:10Z</time></trkpt><trkpt lat="44.45428790128172" lon="9.250443142432372"><ele>611.0</ele><time>2026-04-29T15:32:11Z</time></trkpt><trkpt lat="44.45418037265665" lon="9.250543735883637"><ele>611.0</ele><time>2026-04-29T15:32:12Z</time></trkpt><trkpt lat="44.45408611246788" lon="9.250632187561166"><ele>608.6666666666666</ele><time>2026-04-29T15:32:13Z</time></trkpt><trkpt lat="44.4540107236567" lon="9.25070801391586"><ele>606.3333333333333</ele><time>2026-04-29T15:32:14Z</time></trkpt><trkpt lat="44.45396135989174" lon="9.25079087611275"><ele>604.0</ele><time>2026-04-29T15:32:15Z</time></trkpt><trkpt lat="44.45394374278869" lon="9.250881336060663"><ele>601.6666666666666</ele><time>2026-04-29T15:32:16Z</time></trkpt><trkpt lat="44.45395826617348" lon="9.250985122413388"><ele>599.3333333333334</ele><time>2026-04-29T15:32:17Z</time></trkpt><trkpt lat="44.45399483898162" lon="9.25108054926926"><ele>597.0</ele><time>2026-04-29T15:32:18Z</time></trkpt><trkpt lat="44.454084795526796" lon="9.251134859167486"><ele>597.0</ele><time>2026-04-29T15:32:19Z</time></trkpt><trkpt lat="44.454184478387475" lon="9.251078290118441"><ele>597.0</ele><time>2026-04-29T15:32:20Z</time></trkpt><trkpt lat="44.45428292713841" lon="9.2510161252372"><ele>597.0</ele><time>2026-04-29T15:32:21Z</time></trkpt><trkpt lat="44.4544062597238" lon="9.25090995168225"><ele>597.0</ele><time>2026-04-29T15:32:22Z</time></trkpt><trkpt lat="44.45451180095887" lon="9.250817616974029"><ele>598.0</ele><time>2026-04-29T15:32:23Z</time></trkpt><trkpt lat="44.45463650059621" lon="9.25071738125603"><ele>599.0</ele><time>2026-04-29T15:32:24Z</time></trkpt><trkpt lat="44.45475115653395" lon="9.250599457081009"><ele>600.0</ele><time>2026-04-29T15:32:25Z</time></trkpt><trkpt lat="44.45485581077796" lon="9.250469099033705"><ele>601.0</ele><time>2026-04-29T15:32:26Z</time></trkpt><trkpt lat="44.45494712511795" lon="9.250353883582738"><ele>601.0</ele><time>2026-04-29T15:32:27Z</time></trkpt><trkpt lat="44.455041792748936" lon="9.25026575478824"><ele>601.0</ele><time>2026-04-29T15:32:28Z</time></trkpt><trkpt lat="44.45514866615433" lon="9.250203558539662"><ele>601.0</ele><time>2026-04-29T15:32:29Z</time></trkpt><trkpt lat="44.45528198271212" lon="9.250158886948281"><ele>601.0</ele><time>2026-04-29T15:32:30Z</time></trkpt><trkpt lat="44.45543469160753" lon="9.25011759496917"><ele>595.0</ele><time>2026-04-29T15:32:31Z</time></trkpt><trkpt lat="44.45557773771814" lon="9.250069598333877"><ele>589.0</ele><time>2026-04-29T15:32:32Z</time></trkpt><trkpt lat="44.455721506683965" lon="9.250026748124608"><ele>583.0</ele><time>2026-04-29T15:32:33Z</time></trkpt><trkpt lat="44.45586592312676" lon="9.249986213724151"><ele>577.0</ele><time>2026-04-29T15:32:34Z</time></trkpt><trkpt lat="44.45599692263353" lon="9.249897282017416"><ele>582.0</ele><time>2026-04-29T15:32:35Z</time></trkpt><trkpt lat="44.45611297804815" lon="9.249791698718832"><ele>587.0</ele><time>2026-04-29T15:32:36Z</time></trkpt><trkpt lat="44.45624029851581" lon="9.249736454671073"><ele>592.0</ele><time>2026-04-29T15:32:37Z</time></trkpt><trkpt lat="44.4563908663957" lon="9.24971145060469"><ele>597.0</ele><time>2026-04-29T15:32:38Z</time></trkpt><trkpt lat="44.45654630631437" lon="9.249712357994525"><ele>597.0</ele><time>2026-04-29T15:32:39Z</time></trkpt><trkpt lat="44.456696280689194" lon="9.249726424976043"><ele>597.0</ele><time>2026-04-29T15:32:40Z</time></trkpt><trkpt lat="44.4568363978901" lon="9.249749129099719"><ele>597.0</ele><time>2026-04-29T15:32:41Z</time></trkpt><trkpt lat="44.456994872484444" lon="9.249791199502692"><ele>586.0</ele><time>2026-04-29T15:32:41.999Z</time></trkpt><trkpt lat="44.457168000272084" lon="9.249866174230226"><ele>575.0</ele><time>2026-04-29T15:32:42.999Z</time></trkpt><trkpt lat="44.45732721549738" lon="9.249942778273406"><ele>564.0</ele><time>2026-04-29T15:32:43.999Z</time></trkpt><trkpt lat="44.45748548085821" lon="9.249998264580784"><ele>564.0</ele><time>2026-04-29T15:32:44.999Z</time></trkpt><trkpt lat="44.457637446839115" lon="9.250041565268496"><ele>564.0</ele><time>2026-04-29T15:32:45.999Z</time></trkpt><trkpt lat="44.45778485405903" lon="9.25009450188688"><ele>564.0</ele><time>2026-04-29T15:32:46.999Z</time></trkpt><trkpt lat="44.457929307693014" lon="9.25014598031957"><ele>565.5</ele><time>2026-04-29T15:32:47.999Z</time></trkpt><trkpt lat="44.4580672081856" lon="9.250200712487995"><ele>567.0</ele><time>2026-04-29T15:32:48.999Z</time></trkpt><trkpt lat="44.45820242722385" lon="9.250261492780629"><ele>568.5</ele><time>2026-04-29T15:32:49.999Z</time></trkpt><trkpt lat="44.458323688721585" lon="9.250323787243216"><ele>570.0</ele><time>2026-04-29T15:32:50.999Z</time></trkpt><trkpt lat="44.458429329824746" lon="9.250373149114417"><ele>570.0</ele><time>2026-04-29T15:32:51.999Z</time></trkpt><trkpt lat="44.45852384906878" lon="9.250408627628243"><ele>570.0</ele><time>2026-04-29T15:32:52.999Z</time></trkpt><trkpt lat="44.45860817440183" lon="9.250437574107519"><ele>570.0</ele><time>2026-04-29T15:32:53.999Z</time></trkpt><trkpt lat="44.45867878274627" lon="9.250462490914327"><ele>570.0</ele><time>2026-04-29T15:32:54.999Z</time></trkpt><trkpt lat="44.458770363390876" lon="9.250552189866557"><ele>570.0</ele><time>2026-04-29T15:32:56.999Z</time></trkpt><trkpt lat="44.45879171958587" lon="9.250635732549398"><ele>570.0</ele><time>2026-04-29T15:32:57.999Z</time></trkpt><trkpt lat="44.45874220231737" lon="9.250806891240439"><ele>566.0</ele><time>2026-04-29T15:32:59.999Z</time></trkpt><trkpt lat="44.45866396382442" lon="9.250843546635615"><ele>562.0</ele><time>2026-04-29T15:33:00.999Z</time></trkpt><trkpt lat="44.45857895641289" lon="9.25083926222834"><ele>558.0</ele><time>2026-04-29T15:33:01.999Z</time></trkpt><trkpt lat="44.458476493579596" lon="9.250834552434338"><ele>554.0</ele><time>2026-04-29T15:33:02.999Z</time></trkpt><trkpt lat="44.458372415883524" lon="9.250846827932683"><ele>550.0</ele><time>2026-04-29T15:33:03.999Z</time></trkpt><trkpt lat="44.45828831296282" lon="9.250832373218572"><ele>550.0</ele><time>2026-04-29T15:33:04.999Z</time></trkpt><trkpt lat="44.458179847289145" lon="9.250764951888224"><ele>550.0</ele><time>2026-04-29T15:33:05.999Z</time></trkpt><trkpt lat="44.458091046804874" lon="9.250678858599601"><ele>550.0</ele><time>2026-04-29T15:33:06.999Z</time></trkpt><trkpt lat="44.45801003919293" lon="9.250642357618089"><ele>550.0</ele><time>2026-04-29T15:33:07.999Z</time></trkpt><trkpt lat="44.45794970232268" lon="9.250598924330816"><ele>550.0</ele><time>2026-04-29T15:33:08.999Z</time></trkpt><trkpt lat="44.45789514813908" lon="9.250551996909309"><ele>550.0</ele><time>2026-04-29T15:33:09.999Z</time></trkpt><trkpt lat="44.45782583858439" lon="9.250539586704493"><ele>548.0</ele><time>2026-04-29T15:33:10.999Z</time></trkpt><trkpt lat="44.45770617402775" lon="9.250644977327868"><ele>546.0</ele><time>2026-04-29T15:33:12.999Z</time></trkpt><trkpt lat="44.4576778028778" lon="9.250776770030262"><ele>544.0</ele><time>2026-04-29T15:33:13.999Z</time></trkpt><trkpt lat="44.457698218679596" lon="9.250894956093576"><ele>542.0</ele><time>2026-04-29T15:33:14.999Z</time></trkpt><trkpt lat="44.457751644876126" lon="9.250975116238761"><ele>540.0</ele><time>2026-04-29T15:33:15.999Z</time></trkpt><trkpt lat="44.457829492337986" lon="9.25101621374749"><ele>540.0</ele><time>2026-04-29T15:33:16.999Z</time></trkpt><trkpt lat="44.45791686210741" lon="9.251069110582987"><ele>540.0</ele><time>2026-04-29T15:33:17.999Z</time></trkpt><trkpt lat="44.45801863551575" lon="9.251129721234962"><ele>540.0</ele><time>2026-04-29T15:33:18.999Z</time></trkpt><trkpt lat="44.45816282883158" lon="9.251215881551897"><ele>540.0</ele><time>2026-04-29T15:33:19.999Z</time></trkpt><trkpt lat="44.45828445962059" lon="9.251288559980402"><ele>538.0</ele><time>2026-04-29T15:33:20.999Z</time></trkpt><trkpt lat="44.45840448239429" lon="9.251355051928483"><ele>536.0</ele><time>2026-04-29T15:33:21.999Z</time></trkpt><trkpt lat="44.45851839234863" lon="9.251403968808559"><ele>534.0</ele><time>2026-04-29T15:33:22.999Z</time></trkpt><trkpt lat="44.458639456185935" lon="9.251428709330812"><ele>532.0</ele><time>2026-04-29T15:33:23.999Z</time></trkpt><trkpt lat="44.4587499655468" lon="9.251471863443477"><ele>531.6</ele><time>2026-04-29T15:33:24.999Z</time></trkpt><trkpt lat="44.45886128911758" lon="9.251520670733372"><ele>531.2</ele><time>2026-04-29T15:33:25.999Z</time></trkpt><trkpt lat="44.4589648721311" lon="9.251545287346717"><ele>530.8</ele><time>2026-04-29T15:33:26.999Z</time></trkpt><trkpt lat="44.45906203461706" lon="9.251557424997806"><ele>530.4</ele><time>2026-04-29T15:33:27.999Z</time></trkpt><trkpt lat="44.45915719872671" lon="9.25153542663901"><ele>530.0</ele><time>2026-04-29T15:33:28.999Z</time></trkpt><trkpt lat="44.459255849958105" lon="9.251473512809094"><ele>532.4</ele><time>2026-04-29T15:33:29.999Z</time></trkpt><trkpt lat="44.459359025713546" lon="9.2513916152697"><ele>534.8</ele><time>2026-04-29T15:33:30.999Z</time></trkpt><trkpt lat="44.45944758057933" lon="9.25130041144464"><ele>537.2</ele><time>2026-04-29T15:33:31.999Z</time></trkpt><trkpt lat="44.45953881004071" lon="9.251220269000791"><ele>539.6</ele><time>2026-04-29T15:33:32.999Z</time></trkpt><trkpt lat="44.459640001899004" lon="9.251159740484583"><ele>542.0</ele><time>2026-04-29T15:33:33.999Z</time></trkpt><trkpt lat="44.45975148739215" lon="9.251112085520976"><ele>542.0</ele><time>2026-04-29T15:33:34.999Z</time></trkpt><trkpt lat="44.45986377311861" lon="9.251070689682662"><ele>542.0</ele><time>2026-04-29T15:33:35.999Z</time></trkpt><trkpt lat="44.459965746289555" lon="9.251036285232237"><ele>542.0</ele><time>2026-04-29T15:33:36.999Z</time></trkpt><trkpt lat="44.46006755480266" lon="9.251010032101192"><ele>542.0</ele><time>2026-04-29T15:33:37.999Z</time></trkpt><trkpt lat="44.46016521850275" lon="9.250979900345019"><ele>542.0</ele><time>2026-04-29T15:33:38.999Z</time></trkpt><trkpt lat="44.46024978755956" lon="9.250934773523715"><ele>542.0</ele><time>2026-04-29T15:33:39.999Z</time></trkpt><trkpt lat="44.460338469887475" lon="9.250881519595533"><ele>542.0</ele><time>2026-04-29T15:33:40.999Z</time></trkpt><trkpt lat="44.460419444468045" lon="9.250767969693666"><ele>542.0</ele><time>2026-04-29T15:33:41.999Z</time></trkpt><trkpt lat="44.46047664100542" lon="9.250641042556065"><ele>542.0</ele><time>2026-04-29T15:33:42.999Z</time></trkpt><trkpt lat="44.46052432989882" lon="9.250532271470915"><ele>542.0</ele><time>2026-04-29T15:33:43.999Z</time></trkpt><trkpt lat="44.46056246733737" lon="9.250459467570632"><ele>541.2</ele><time>2026-04-29T15:33:44.999Z</time></trkpt><trkpt lat="44.460655663308806" lon="9.250411281570448"><ele>540.4000000000001</ele><time>2026-04-29T15:33:46.999Z</time></trkpt><trkpt lat="44.460712779132294" lon="9.250583164458314"><ele>539.5999999999999</ele><time>2026-04-29T15:33:48.999Z</time></trkpt><trkpt lat="44.46068484094374" lon="9.250696473034164"><ele>538.8</ele><time>2026-04-29T15:33:49.999Z</time></trkpt><trkpt lat="44.460637852210056" lon="9.250811623601738"><ele>538.0</ele><time>2026-04-29T15:33:50.999Z</time></trkpt><trkpt lat="44.4605537920745" lon="9.250953084561308"><ele>539.3333333333334</ele><time>2026-04-29T15:33:51.999Z</time></trkpt><trkpt lat="44.4604078003326" lon="9.251100979891314"><ele>540.6666666666666</ele><time>2026-04-29T15:33:52.999Z</time></trkpt><trkpt lat="44.46026953089753" lon="9.251262419513543"><ele>542.0</ele><time>2026-04-29T15:33:53.999Z</time></trkpt><trkpt lat="44.46018420837829" lon="9.25136473850773"><ele>535.5</ele><time>2026-04-29T15:33:55.999Z</time></trkpt><trkpt lat="44.46009891649646" lon="9.251496495333898"><ele>529.0</ele><time>2026-04-29T15:33:56.999Z</time></trkpt><trkpt lat="44.46001212952577" lon="9.251616424582739"><ele>522.5</ele><time>2026-04-29T15:33:57.999Z</time></trkpt><trkpt lat="44.45994516000842" lon="9.251784238474292"><ele>516.0</ele><time>2026-04-29T15:33:58.999Z</time></trkpt><trkpt lat="44.45988522664053" lon="9.251973033047259"><ele>516.0</ele><time>2026-04-29T15:33:59.999Z</time></trkpt><trkpt lat="44.45980782065039" lon="9.252142577443228"><ele>516.0</ele><time>2026-04-29T15:34:00.999Z</time></trkpt><trkpt lat="44.45974523504957" lon="9.25230816111786"><ele>516.0</ele><time>2026-04-29T15:34:01.999Z</time></trkpt><trkpt lat="44.45968451085257" lon="9.252462012126818"><ele>516.0</ele><time>2026-04-29T15:34:02.999Z</time></trkpt><trkpt lat="44.45961502216031" lon="9.252614306609951"><ele>515.0</ele><time>2026-04-29T15:34:03.999Z</time></trkpt><trkpt lat="44.45953196099998" lon="9.25275090510796"><ele>514.0</ele><time>2026-04-29T15:34:04.999Z</time></trkpt><trkpt lat="44.45944892076916" lon="9.252869958218914"><ele>513.0</ele><time>2026-04-29T15:34:05.999Z</time></trkpt><trkpt lat="44.45936798358068" lon="9.252956546987082"><ele>512.0</ele><time>2026-04-29T15:34:07Z</time></trkpt><trkpt lat="44.45928661859028" lon="9.253014992315293"><ele>511.0</ele><time>2026-04-29T15:34:08Z</time></trkpt><trkpt lat="44.459194007578105" lon="9.25303047807707"><ele>511.0</ele><time>2026-04-29T15:34:09Z</time></trkpt><trkpt lat="44.459098479827915" lon="9.253015182802478"><ele>511.0</ele><time>2026-04-29T15:34:10Z</time></trkpt><trkpt lat="44.45895976124624" lon="9.25298295295213"><ele>511.0</ele><time>2026-04-29T15:34:11Z</time></trkpt><trkpt lat="44.458793522106646" lon="9.252943267113308"><ele>511.0</ele><time>2026-04-29T15:34:12Z</time></trkpt><trkpt lat="44.458618147651286" lon="9.252899663970746"><ele>507.6666666666667</ele><time>2026-04-29T15:34:13Z</time></trkpt><trkpt lat="44.45846105946249" lon="9.252878700493522"><ele>504.33333333333337</ele><time>2026-04-29T15:34:14Z</time></trkpt><trkpt lat="44.4583173509328" lon="9.252834920901156"><ele>501.0</ele><time>2026-04-29T15:34:15Z</time></trkpt><trkpt lat="44.45817062209045" lon="9.25278805359858"><ele>501.0</ele><time>2026-04-29T15:34:16Z</time></trkpt><trkpt lat="44.45804985441372" lon="9.252755642122903"><ele>501.0</ele><time>2026-04-29T15:34:17Z</time></trkpt><trkpt lat="44.45796881275357" lon="9.252685666803718"><ele>501.0</ele><time>2026-04-29T15:34:18Z</time></trkpt><trkpt lat="44.457876034513646" lon="9.252612935860363"><ele>501.0</ele><time>2026-04-29T15:34:19Z</time></trkpt><trkpt lat="44.457810453340606" lon="9.252505369688842"><ele>501.0</ele><time>2026-04-29T15:34:20Z</time></trkpt><trkpt lat="44.45776023867196" lon="9.252413124328644"><ele>499.0</ele><time>2026-04-29T15:34:21Z</time></trkpt><trkpt lat="44.45768862991609" lon="9.252368069930341"><ele>497.0</ele><time>2026-04-29T15:34:22Z</time></trkpt><trkpt lat="44.45759606141412" lon="9.252398260310299"><ele>495.0</ele><time>2026-04-29T15:34:23Z</time></trkpt><trkpt lat="44.45752180735724" lon="9.252447833485562"><ele>493.0</ele><time>2026-04-29T15:34:24Z</time></trkpt><trkpt lat="44.45744028721617" lon="9.252575004568229"><ele>491.0</ele><time>2026-04-29T15:34:25Z</time></trkpt><trkpt lat="44.457356498946446" lon="9.252702364051862"><ele>491.0</ele><time>2026-04-29T15:34:26Z</time></trkpt><trkpt lat="44.45728620496314" lon="9.25278937726799"><ele>491.0</ele><time>2026-04-29T15:34:27Z</time></trkpt><trkpt lat="44.4572228615036" lon="9.252837978663363"><ele>491.0</ele><time>2026-04-29T15:34:28Z</time></trkpt><trkpt lat="44.457125662475555" lon="9.25284867805707"><ele>491.0</ele><time>2026-04-29T15:34:29Z</time></trkpt><trkpt lat="44.45701434144119" lon="9.252893098186837"><ele>491.0</ele><time>2026-04-29T15:34:30Z</time></trkpt><trkpt lat="44.45692043902309" lon="9.25300235161765"><ele>489.6</ele><time>2026-04-29T15:34:31Z</time></trkpt><trkpt lat="44.456881849600165" lon="9.253154958631336"><ele>488.20000000000005</ele><time>2026-04-29T15:34:32Z</time></trkpt><trkpt lat="44.45687635773752" lon="9.253328425077154"><ele>486.79999999999995</ele><time>2026-04-29T15:34:33Z</time></trkpt><trkpt lat="44.45683241621444" lon="9.253450090973958"><ele>485.4</ele><time>2026-04-29T15:34:34Z</time></trkpt><trkpt lat="44.45676730183311" lon="9.253546336675331"><ele>484.0</ele><time>2026-04-29T15:34:35Z</time></trkpt><trkpt lat="44.45667545371051" lon="9.253639632814648"><ele>484.0</ele><time>2026-04-29T15:34:36Z</time></trkpt><trkpt lat="44.456544118504794" lon="9.253786198585448"><ele>484.0</ele><time>2026-04-29T15:34:37Z</time></trkpt><trkpt lat="44.45642880017705" lon="9.253932852635433"><ele>484.0</ele><time>2026-04-29T15:34:38Z</time></trkpt><trkpt lat="44.45631058876652" lon="9.254030624246312"><ele>482.0</ele><time>2026-04-29T15:34:39Z</time></trkpt><trkpt lat="44.456208960596804" lon="9.254122123130614"><ele>480.0</ele><time>2026-04-29T15:34:40Z</time></trkpt><trkpt lat="44.456087888825" lon="9.254207161721196"><ele>478.0</ele><time>2026-04-29T15:34:41Z</time></trkpt><trkpt lat="44.455955693966025" lon="9.254232559621151"><ele>476.0</ele><time>2026-04-29T15:34:42Z</time></trkpt><trkpt lat="44.4558594109521" lon="9.254239740832643"><ele>476.0</ele><time>2026-04-29T15:34:43Z</time></trkpt><trkpt lat="44.45576428247178" lon="9.25424707285493"><ele>476.0</ele><time>2026-04-29T15:34:44Z</time></trkpt><trkpt lat="44.45570617865372" lon="9.25429136326124"><ele>476.0</ele><time>2026-04-29T15:34:44.999Z</time></trkpt><trkpt lat="44.45564664909247" lon="9.254471909221008"><ele>476.0</ele><time>2026-04-29T15:34:46.999Z</time></trkpt><trkpt lat="44.45567402019469" lon="9.254584027019613"><ele>476.0</ele><time>2026-04-29T15:34:47.999Z</time></trkpt><trkpt lat="44.45575032582064" lon="9.25466104434457"><ele>476.0</ele><time>2026-04-29T15:34:48.999Z</time></trkpt><trkpt lat="44.455834423016654" lon="9.25465562691293"><ele>476.0</ele><time>2026-04-29T15:34:49.999Z</time></trkpt><trkpt lat="44.45594429128733" lon="9.25456127986191"><ele>476.0</ele><time>2026-04-29T15:34:50.999Z</time></trkpt><trkpt lat="44.45608856527413" lon="9.254472288486957"><ele>476.0</ele><time>2026-04-29T15:34:51.999Z</time></trkpt><trkpt lat="44.45623991453358" lon="9.254426522350535"><ele>471.25</ele><time>2026-04-29T15:34:52.999Z</time></trkpt><trkpt lat="44.4563755904692" lon="9.254410780021148"><ele>466.5</ele><time>2026-04-29T15:34:53.999Z</time></trkpt><trkpt lat="44.45650621158402" lon="9.254394695222924"><ele>461.75</ele><time>2026-04-29T15:34:54.999Z</time></trkpt><trkpt lat="44.456621479719885" lon="9.25436728857965"><ele>457.0</ele><time>2026-04-29T15:34:55.999Z</time></trkpt><trkpt lat="44.45672259482726" lon="9.254294072338238"><ele>457.0</ele><time>2026-04-29T15:34:56.999Z</time></trkpt><trkpt lat="44.456816676942005" lon="9.254215584124166"><ele>457.0</ele><time>2026-04-29T15:34:57.999Z</time></trkpt><trkpt lat="44.456937124847684" lon="9.254077538139445"><ele>457.0</ele><time>2026-04-29T15:34:58.999Z</time></trkpt><trkpt lat="44.45703970128997" lon="9.2539179575595"><ele>457.0</ele><time>2026-04-29T15:34:59.999Z</time></trkpt><trkpt lat="44.45711719498911" lon="9.253757270501602"><ele>458.6</ele><time>2026-04-29T15:35:00.999Z</time></trkpt><trkpt lat="44.4572008634262" lon="9.25365739930767"><ele>460.20000000000005</ele><time>2026-04-29T15:35:01.999Z</time></trkpt><trkpt lat="44.457269558226656" lon="9.253586155751371"><ele>461.8</ele><time>2026-04-29T15:35:02.999Z</time></trkpt><trkpt lat="44.457366486897655" lon="9.253566844719167"><ele>463.4</ele><time>2026-04-29T15:35:03.999Z</time></trkpt><trkpt lat="44.45747246071408" lon="9.253519768702086"><ele>465.0</ele><time>2026-04-29T15:35:04.999Z</time></trkpt><trkpt lat="44.45754984707715" lon="9.253498925089934"><ele>465.0</ele><time>2026-04-29T15:35:05.999Z</time></trkpt><trkpt lat="44.457662240344554" lon="9.253528982416574"><ele>465.0</ele><time>2026-04-29T15:35:07.999Z</time></trkpt><trkpt lat="44.45769902146406" lon="9.253616447015316"><ele>465.0</ele><time>2026-04-29T15:35:08.999Z</time></trkpt><trkpt lat="44.457713853759984" lon="9.253735746219037"><ele>465.0</ele><time>2026-04-29T15:35:09.999Z</time></trkpt><trkpt lat="44.457712745460704" lon="9.253863168798368"><ele>465.0</ele><time>2026-04-29T15:35:10.999Z</time></trkpt><trkpt lat="44.457723720901065" lon="9.253976820124722"><ele>465.0</ele><time>2026-04-29T15:35:11.999Z</time></trkpt><trkpt lat="44.45776783670441" lon="9.254066609477011"><ele>460.8</ele><time>2026-04-29T15:35:12.999Z</time></trkpt><trkpt lat="44.45784813964688" lon="9.254127585500786"><ele>456.6</ele><time>2026-04-29T15:35:13.999Z</time></trkpt><trkpt lat="44.45794929860549" lon="9.25416238423106"><ele>452.4</ele><time>2026-04-29T15:35:14.999Z</time></trkpt><trkpt lat="44.458070459479195" lon="9.254159369480206"><ele>448.2</ele><time>2026-04-29T15:35:15.999Z</time></trkpt><trkpt lat="44.458179198464684" lon="9.254193631823991"><ele>444.0</ele><time>2026-04-29T15:35:16.999Z</time></trkpt><trkpt lat="44.45827166938164" lon="9.254262563946403"><ele>444.0</ele><time>2026-04-29T15:35:17.999Z</time></trkpt><trkpt lat="44.45836454993927" lon="9.25432836575382"><ele>444.0</ele><time>2026-04-29T15:35:18.999Z</time></trkpt><trkpt lat="44.458484070297615" lon="9.254390120266688"><ele>444.0</ele><time>2026-04-29T15:35:19.999Z</time></trkpt><trkpt lat="44.4586042334879" lon="9.254388388946953"><ele>444.0</ele><time>2026-04-29T15:35:20.999Z</time></trkpt><trkpt lat="44.45871534616302" lon="9.254398542793567"><ele>444.0</ele><time>2026-04-29T15:35:21.999Z</time></trkpt><trkpt lat="44.45883330113784" lon="9.25440075207997"><ele>444.0</ele><time>2026-04-29T15:35:22.999Z</time></trkpt><trkpt lat="44.458940393527556" lon="9.254410913734992"><ele>444.0</ele><time>2026-04-29T15:35:23.999Z</time></trkpt><trkpt lat="44.459052156215115" lon="9.254429034064257"><ele>444.0</ele><time>2026-04-29T15:35:24.999Z</time></trkpt><trkpt lat="44.459153009220095" lon="9.254456841465771"><ele>444.0</ele><time>2026-04-29T15:35:25.999Z</time></trkpt><trkpt lat="44.45923978844861" lon="9.254501913019997"><ele>444.0</ele><time>2026-04-29T15:35:26.999Z</time></trkpt><trkpt lat="44.4593086116138" lon="9.254549950153995"><ele>444.0</ele><time>2026-04-29T15:35:27.999Z</time></trkpt><trkpt lat="44.459384491921085" lon="9.254654375635807"><ele>444.0</ele><time>2026-04-29T15:35:29.999Z</time></trkpt><trkpt lat="44.45939292897584" lon="9.254745745026664"><ele>444.0</ele><time>2026-04-29T15:35:30.999Z</time></trkpt><trkpt lat="44.45935013180414" lon="9.254816730004043"><ele>444.0</ele><time>2026-04-29T15:35:31.999Z</time></trkpt><trkpt lat="44.45928485897614" lon="9.254855161996224"><ele>444.0</ele><time>2026-04-29T15:35:32.999Z</time></trkpt><trkpt lat="44.45919210664917" lon="9.254865599664356"><ele>437.5</ele><time>2026-04-29T15:35:33.999Z</time></trkpt><trkpt lat="44.45907962292543" lon="9.25490756060278"><ele>431.0</ele><time>2026-04-29T15:35:34.999Z</time></trkpt><trkpt lat="44.458973272516225" lon="9.254971182489916"><ele>424.5</ele><time>2026-04-29T15:35:35.999Z</time></trkpt><trkpt lat="44.45887341995644" lon="9.255064086667222"><ele>418.0</ele><time>2026-04-29T15:35:36.999Z</time></trkpt><trkpt lat="44.45878721319695" lon="9.255147654583944"><ele>417.4</ele><time>2026-04-29T15:35:37.999Z</time></trkpt><trkpt lat="44.45872182923591" lon="9.255202926019905"><ele>416.79999999999995</ele><time>2026-04-29T15:35:38.999Z</time></trkpt><trkpt lat="44.458651875627574" lon="9.255203045186315"><ele>416.2</ele><time>2026-04-29T15:35:39.999Z</time></trkpt><trkpt lat="44.45856134295961" lon="9.255190203713955"><ele>415.6</ele><time>2026-04-29T15:35:40.999Z</time></trkpt><trkpt lat="44.45844472595522" lon="9.255170255500287"><ele>415.0</ele><time>2026-04-29T15:35:41.999Z</time></trkpt><trkpt lat="44.45830653688214" lon="9.255136220042605"><ele>415.0</ele><time>2026-04-29T15:35:42.999Z</time></trkpt><trkpt lat="44.45821297274883" lon="9.255110411313984"><ele>415.0</ele><time>2026-04-29T15:35:43.999Z</time></trkpt><trkpt lat="44.45809692161388" lon="9.255080135837025"><ele>415.0</ele><time>2026-04-29T15:35:44.999Z</time></trkpt><trkpt lat="44.45800205969875" lon="9.255039761901617"><ele>415.0</ele><time>2026-04-29T15:35:45.999Z</time></trkpt><trkpt lat="44.45792326969018" lon="9.254951928809158"><ele>415.0</ele><time>2026-04-29T15:35:46.999Z</time></trkpt><trkpt lat="44.4578616170505" lon="9.25484959288751"><ele>418.6666666666667</ele><time>2026-04-29T15:35:47.999Z</time></trkpt><trkpt lat="44.45779740557958" lon="9.254740729698549"><ele>422.33333333333337</ele><time>2026-04-29T15:35:48.999Z</time></trkpt><trkpt lat="44.457732021038694" lon="9.254670284008332"><ele>426.0</ele><time>2026-04-29T15:35:49.999Z</time></trkpt><trkpt lat="44.457660478779495" lon="9.254636467964255"><ele>429.66666666666663</ele><time>2026-04-29T15:35:50.999Z</time></trkpt><trkpt lat="44.457560132975544" lon="9.254639644246405"><ele>433.3333333333333</ele><time>2026-04-29T15:35:51.999Z</time></trkpt><trkpt lat="44.45750150928358" lon="9.254688889120297"><ele>437.0</ele><time>2026-04-29T15:35:52.999Z</time></trkpt><trkpt lat="44.45745460020041" lon="9.254786360466701"><ele>432.8333333333333</ele><time>2026-04-29T15:35:53.999Z</time></trkpt><trkpt lat="44.45741656765709" lon="9.254895084590855"><ele>428.66666666666663</ele><time>2026-04-29T15:35:54.999Z</time></trkpt><trkpt lat="44.45738394260774" lon="9.254999524795247"><ele>424.5</ele><time>2026-04-29T15:35:55.999Z</time></trkpt><trkpt lat="44.45735012824146" lon="9.25509420778854"><ele>420.33333333333337</ele><time>2026-04-29T15:35:56.999Z</time></trkpt><trkpt lat="44.45730659256694" lon="9.255186583757874"><ele>416.1666666666667</ele><time>2026-04-29T15:35:57.999Z</time></trkpt><trkpt lat="44.45727192390924" lon="9.255269376327776"><ele>412.0</ele><time>2026-04-29T15:35:59Z</time></trkpt><trkpt lat="44.457241542752016" lon="9.255356419219613"><ele>412.0</ele><time>2026-04-29T15:36:00Z</time></trkpt><trkpt lat="44.457205734983816" lon="9.25543081444138"><ele>412.0</ele><time>2026-04-29T15:36:01Z</time></trkpt><trkpt lat="44.45717648581712" lon="9.255520471787028"><ele>412.0</ele><time>2026-04-29T15:36:02Z</time></trkpt><trkpt lat="44.45712498883147" lon="9.255625086762619"><ele>412.0</ele><time>2026-04-29T15:36:03Z</time></trkpt><trkpt lat="44.45704751106671" lon="9.255720973946525"><ele>412.0</ele><time>2026-04-29T15:36:04Z</time></trkpt><trkpt lat="44.45694580784058" lon="9.255820917578202"><ele>410.25</ele><time>2026-04-29T15:36:05Z</time></trkpt><trkpt lat="44.456830396214734" lon="9.25594243388907"><ele>408.5</ele><time>2026-04-29T15:36:06Z</time></trkpt><trkpt lat="44.45672794697529" lon="9.256025723412172"><ele>406.75</ele><time>2026-04-29T15:36:07Z</time></trkpt><trkpt lat="44.45662324315968" lon="9.25610910959742"><ele>405.0</ele><time>2026-04-29T15:36:08Z</time></trkpt><trkpt lat="44.456535450934965" lon="9.256187949364211"><ele>405.0</ele><time>2026-04-29T15:36:09Z</time></trkpt><trkpt lat="44.45646256905758" lon="9.256248379631261"><ele>405.0</ele><time>2026-04-29T15:36:10Z</time></trkpt><trkpt lat="44.45639202966039" lon="9.256280262722093"><ele>405.0</ele><time>2026-04-29T15:36:11Z</time></trkpt><trkpt lat="44.456311841390736" lon="9.25627101706975"><ele>405.0</ele><time>2026-04-29T15:36:12Z</time></trkpt><trkpt lat="44.456209854906234" lon="9.25623004639797"><ele>405.0</ele><time>2026-04-29T15:36:13Z</time></trkpt><trkpt lat="44.456091837015805" lon="9.256142296067052"><ele>405.75</ele><time>2026-04-29T15:36:14Z</time></trkpt><trkpt lat="44.4559840903155" lon="9.25608414293724"><ele>406.5</ele><time>2026-04-29T15:36:15Z</time></trkpt><trkpt lat="44.45585038309104" lon="9.256066053327428"><ele>407.25</ele><time>2026-04-29T15:36:16Z</time></trkpt><trkpt lat="44.45573627906683" lon="9.25608301133291"><ele>408.0</ele><time>2026-04-29T15:36:17Z</time></trkpt><trkpt lat="44.45563274414338" lon="9.256080520913276"><ele>408.0</ele><time>2026-04-29T15:36:18Z</time></trkpt><trkpt lat="44.45554164678614" lon="9.256075946577644"><ele>408.0</ele><time>2026-04-29T15:36:19Z</time></trkpt><trkpt lat="44.45547864961567" lon="9.256088471510886"><ele>408.0</ele><time>2026-04-29T15:36:20Z</time></trkpt><trkpt lat="44.45540002452" lon="9.256198690253495"><ele>408.0</ele><time>2026-04-29T15:36:22Z</time></trkpt><trkpt lat="44.45540057794787" lon="9.256290197149399"><ele>408.0</ele><time>2026-04-29T15:36:23Z</time></trkpt><trkpt lat="44.45541223121057" lon="9.256387692407968"><ele>408.0</ele><time>2026-04-29T15:36:24Z</time></trkpt><trkpt lat="44.45552973796586" lon="9.256495156840355"><ele>408.0</ele><time>2026-04-29T15:36:26Z</time></trkpt><trkpt lat="44.45563049530676" lon="9.256424359300636"><ele>408.0</ele><time>2026-04-29T15:36:27Z</time></trkpt><trkpt lat="44.45573464485888" lon="9.256382928131151"><ele>408.0</ele><time>2026-04-29T15:36:28Z</time></trkpt><trkpt lat="44.455817020346025" lon="9.256347850723019"><ele>408.0</ele><time>2026-04-29T15:36:29Z</time></trkpt><trkpt lat="44.4558898325864" lon="9.256346815246236"><ele>408.0</ele><time>2026-04-29T15:36:30Z</time></trkpt><trkpt lat="44.45595738216551" lon="9.256351680932166"><ele>408.0</ele><time>2026-04-29T15:36:31Z</time></trkpt><trkpt lat="44.45599252154428" lon="9.256463756065493"><ele>402.4</ele><time>2026-04-29T15:36:32Z</time></trkpt><trkpt lat="44.45604871070817" lon="9.25654955376228"><ele>396.79999999999995</ele><time>2026-04-29T15:36:33Z</time></trkpt><trkpt lat="44.4561072086324" lon="9.256636517198302"><ele>391.2</ele><time>2026-04-29T15:36:34Z</time></trkpt><trkpt lat="44.45622128624434" lon="9.256727443958923"><ele>385.6</ele><time>2026-04-29T15:36:36Z</time></trkpt><trkpt lat="44.45631553615181" lon="9.256706673633477"><ele>380.0</ele><time>2026-04-29T15:36:37Z</time></trkpt><trkpt lat="44.45639863764474" lon="9.256625820059769"><ele>378.5</ele><time>2026-04-29T15:36:38Z</time></trkpt><trkpt lat="44.45650517841116" lon="9.256573779537895"><ele>377.0</ele><time>2026-04-29T15:36:39Z</time></trkpt><trkpt lat="44.45661186927532" lon="9.256513649510003"><ele>375.5</ele><time>2026-04-29T15:36:40Z</time></trkpt><trkpt lat="44.45675039328661" lon="9.256502766737569"><ele>374.0</ele><time>2026-04-29T15:36:41Z</time></trkpt><trkpt lat="44.45688170790533" lon="9.25646755601994"><ele>377.0</ele><time>2026-04-29T15:36:42Z</time></trkpt><trkpt lat="44.456999100782184" lon="9.25642656514088"><ele>380.0</ele><time>2026-04-29T15:36:43Z</time></trkpt><trkpt lat="44.457099847719654" lon="9.256389851898202"><ele>383.0</ele><time>2026-04-29T15:36:44Z</time></trkpt><trkpt lat="44.4571861832696" lon="9.256353450139787"><ele>386.0</ele><time>2026-04-29T15:36:45Z</time></trkpt><trkpt lat="44.4572555227969" lon="9.256297497345457"><ele>389.0</ele><time>2026-04-29T15:36:46Z</time></trkpt><trkpt lat="44.4572927841034" lon="9.256172914214265"><ele>388.99999999999994</ele><time>2026-04-29T15:36:47Z</time></trkpt><trkpt lat="44.457357364295675" lon="9.256039665780682"><ele>389.0</ele><time>2026-04-29T15:36:48Z</time></trkpt><trkpt lat="44.45740054903657" lon="9.255920193027091"><ele>389.0</ele><time>2026-04-29T15:36:49Z</time></trkpt><trkpt lat="44.457454886131465" lon="9.255825553167499"><ele>389.0</ele><time>2026-04-29T15:36:50Z</time></trkpt><trkpt lat="44.45751396831675" lon="9.25575776959848"><ele>388.99999999999994</ele><time>2026-04-29T15:36:51Z</time></trkpt><trkpt lat="44.457572331885146" lon="9.255705832492275"><ele>389.0</ele><time>2026-04-29T15:36:52Z</time></trkpt><trkpt lat="44.45763628192061" lon="9.255679034876067"><ele>389.0</ele><time>2026-04-29T15:36:53Z</time></trkpt><trkpt lat="44.4577357953197" lon="9.255739843583887"><ele>389.0</ele><time>2026-04-29T15:36:55Z</time></trkpt><trkpt lat="44.45781966477281" lon="9.255814218466547"><ele>389.0</ele><time>2026-04-29T15:36:56Z</time></trkpt><trkpt lat="44.45788328986619" lon="9.255920962822714"><ele>389.0</ele><time>2026-04-29T15:36:57Z</time></trkpt><trkpt lat="44.457929735969806" lon="9.256017727781538"><ele>389.0</ele><time>2026-04-29T15:36:58Z</time></trkpt><trkpt lat="44.45798729232266" lon="9.256083370081933"><ele>389.0</ele><time>2026-04-29T15:36:59Z</time></trkpt><trkpt lat="44.4580444714097" lon="9.256139776924524"><ele>389.0</ele><time>2026-04-29T15:37:00Z</time></trkpt><trkpt lat="44.45814165327287" lon="9.256147543001711"><ele>389.0</ele><time>2026-04-29T15:37:01Z</time></trkpt><trkpt lat="44.458243802820235" lon="9.256125871057591"><ele>389.0</ele><time>2026-04-29T15:37:02Z</time></trkpt><trkpt lat="44.45835690225656" lon="9.256138721556928"><ele>389.0</ele><time>2026-04-29T15:37:03Z</time></trkpt><trkpt lat="44.45846765695359" lon="9.256136843003581"><ele>389.0</ele><time>2026-04-29T15:37:04Z</time></trkpt><trkpt lat="44.458570123543645" lon="9.256140170583576"><ele>389.0</ele><time>2026-04-29T15:37:05Z</time></trkpt><trkpt lat="44.45867432995328" lon="9.256149509714854"><ele>389.0</ele><time>2026-04-29T15:37:06Z</time></trkpt><trkpt lat="44.45877257787284" lon="9.256227741059337"><ele>389.0</ele><time>2026-04-29T15:37:07Z</time></trkpt><trkpt lat="44.458833509094205" lon="9.25629843837298"><ele>389.0</ele><time>2026-04-29T15:37:08Z</time></trkpt><trkpt lat="44.458920630318545" lon="9.256367874555952"><ele>390.0</ele><time>2026-04-29T15:37:09Z</time></trkpt><trkpt lat="44.458990951335544" lon="9.256408493662049"><ele>391.0</ele><time>2026-04-29T15:37:10Z</time></trkpt><trkpt lat="44.45908637899022" lon="9.256418722797678"><ele>392.0</ele><time>2026-04-29T15:37:11Z</time></trkpt><trkpt lat="44.45919618433073" lon="9.256435999289328"><ele>393.0</ele><time>2026-04-29T15:37:12Z</time></trkpt><trkpt lat="44.45929297064551" lon="9.256421057634284"><ele>394.0</ele><time>2026-04-29T15:37:13Z</time></trkpt><trkpt lat="44.459394236378365" lon="9.256402585210767"><ele>394.0</ele><time>2026-04-29T15:37:14Z</time></trkpt><trkpt lat="44.459473505919135" lon="9.256391578981633"><ele>394.0</ele><time>2026-04-29T15:37:15Z</time></trkpt><trkpt lat="44.45954213606905" lon="9.25638233073361"><ele>394.0</ele><time>2026-04-29T15:37:16Z</time></trkpt><trkpt lat="44.45960001144536" lon="9.256441345685195"><ele>394.0</ele><time>2026-04-29T15:37:17Z</time></trkpt><trkpt lat="44.459658159646295" lon="9.256639051512455"><ele>394.0</ele><time>2026-04-29T15:37:19Z</time></trkpt><trkpt lat="44.45968269508229" lon="9.25677813400725"><ele>390.5</ele><time>2026-04-29T15:37:20Z</time></trkpt><trkpt lat="44.45972341541854" lon="9.256922918614785"><ele>387.0</ele><time>2026-04-29T15:37:21Z</time></trkpt><trkpt lat="44.45979491526403" lon="9.257078615552583"><ele>383.5</ele><time>2026-04-29T15:37:22Z</time></trkpt><trkpt lat="44.45983963726256" lon="9.257234391523726"><ele>380.0</ele><time>2026-04-29T15:37:23Z</time></trkpt><trkpt lat="44.45989691563926" lon="9.257365105356268"><ele>378.6</ele><time>2026-04-29T15:37:24Z</time></trkpt><trkpt lat="44.459936022358114" lon="9.257467514194401"><ele>377.2</ele><time>2026-04-29T15:37:25Z</time></trkpt><trkpt lat="44.459957111304696" lon="9.25760243214122"><ele>375.79999999999995</ele><time>2026-04-29T15:37:27Z</time></trkpt><trkpt lat="44.45997398953284" lon="9.257746582440708"><ele>374.4</ele><time>2026-04-29T15:37:29Z</time></trkpt><trkpt lat="44.45988263482514" lon="9.257866966398542"><ele>373.0</ele><time>2026-04-29T15:37:31Z</time></trkpt><trkpt lat="44.45976317483616" lon="9.257932098795699"><ele>373.0</ele><time>2026-04-29T15:37:32Z</time></trkpt><trkpt lat="44.459644456447684" lon="9.257856940140314"><ele>373.0</ele><time>2026-04-29T15:37:33Z</time></trkpt><trkpt lat="44.459583287705435" lon="9.257763043315668"><ele>373.0</ele><time>2026-04-29T15:37:34Z</time></trkpt><trkpt lat="44.45953431893305" lon="9.257681886550978"><ele>373.0</ele><time>2026-04-29T15:37:35Z</time></trkpt><trkpt lat="44.45947537300054" lon="9.25759699802895"><ele>373.0</ele><time>2026-04-29T15:37:36Z</time></trkpt><trkpt lat="44.45934703958839" lon="9.25751199804445"><ele>369.75</ele><time>2026-04-29T15:37:38Z</time></trkpt><trkpt lat="44.45924883276122" lon="9.257482327152545"><ele>366.5</ele><time>2026-04-29T15:37:39Z</time></trkpt><trkpt lat="44.45912806230799" lon="9.257472066378899"><ele>363.25</ele><time>2026-04-29T15:37:40Z</time></trkpt><trkpt lat="44.459001420774435" lon="9.257490461877953"><ele>360.0</ele><time>2026-04-29T15:37:41Z</time></trkpt><trkpt lat="44.45888883204619" lon="9.257505688845884"><ele>356.0</ele><time>2026-04-29T15:37:41.999Z</time></trkpt><trkpt lat="44.45877193110045" lon="9.257536895743401"><ele>352.0</ele><time>2026-04-29T15:37:42.999Z</time></trkpt><trkpt lat="44.45866261371684" lon="9.257606197676314"><ele>348.0</ele><time>2026-04-29T15:37:43.999Z</time></trkpt><trkpt lat="44.458555677209375" lon="9.257717420162356"><ele>344.0</ele><time>2026-04-29T15:37:44.999Z</time></trkpt><trkpt lat="44.458444278970035" lon="9.257857531314274"><ele>344.0</ele><time>2026-04-29T15:37:45.999Z</time></trkpt><trkpt lat="44.4583425876035" lon="9.25800317191428"><ele>344.0</ele><time>2026-04-29T15:37:46.999Z</time></trkpt><trkpt lat="44.458255956853236" lon="9.258143309067046"><ele>344.0</ele><time>2026-04-29T15:37:47.999Z</time></trkpt><trkpt lat="44.45815322870469" lon="9.258227746382556"><ele>344.0</ele><time>2026-04-29T15:37:48.999Z</time></trkpt><trkpt lat="44.45802919742837" lon="9.258305480280002"><ele>344.0</ele><time>2026-04-29T15:37:49.999Z</time></trkpt><trkpt lat="44.45789987486569" lon="9.258367614679358"><ele>344.0</ele><time>2026-04-29T15:37:50.999Z</time></trkpt><trkpt lat="44.45776998299469" lon="9.258414764014171"><ele>344.0</ele><time>2026-04-29T15:37:51.999Z</time></trkpt><trkpt lat="44.45764978113517" lon="9.258442279826097"><ele>344.0</ele><time>2026-04-29T15:37:52.999Z</time></trkpt><trkpt lat="44.45753218941342" lon="9.25847901989686"><ele>344.0</ele><time>2026-04-29T15:37:53.999Z</time></trkpt><trkpt lat="44.457403774134086" lon="9.258537508588354"><ele>344.0</ele><time>2026-04-29T15:37:54.999Z</time></trkpt><trkpt lat="44.45726296907775" lon="9.258611951606898"><ele>344.0</ele><time>2026-04-29T15:37:55.999Z</time></trkpt><trkpt lat="44.457110809704126" lon="9.258722889406574"><ele>343.33333333333337</ele><time>2026-04-29T15:37:56.999Z</time></trkpt><trkpt lat="44.45696066652204" lon="9.258841531269976"><ele>342.6666666666667</ele><time>2026-04-29T15:37:57.999Z</time></trkpt><trkpt lat="44.456801404955705" lon="9.258987390701224"><ele>342.0</ele><time>2026-04-29T15:37:58.999Z</time></trkpt><trkpt lat="44.45663965499649" lon="9.259127840591711"><ele>342.0</ele><time>2026-04-29T15:37:59.999Z</time></trkpt><trkpt lat="44.45649419119628" lon="9.259276411282677"><ele>342.0</ele><time>2026-04-29T15:38:00.999Z</time></trkpt><trkpt lat="44.45636030799608" lon="9.259418326257212"><ele>342.0</ele><time>2026-04-29T15:38:01.999Z</time></trkpt><trkpt lat="44.45623014119623" lon="9.25954639555517"><ele>343.5</ele><time>2026-04-29T15:38:02.999Z</time></trkpt><trkpt lat="44.45610342863576" lon="9.259648041221702"><ele>345.0</ele><time>2026-04-29T15:38:03.999Z</time></trkpt><trkpt lat="44.455989123223894" lon="9.259714419168887"><ele>346.5</ele><time>2026-04-29T15:38:05Z</time></trkpt><trkpt lat="44.455857646276044" lon="9.25974946577504"><ele>348.0</ele><time>2026-04-29T15:38:06Z</time></trkpt><trkpt lat="44.45571771168464" lon="9.259808467470236"><ele>348.0</ele><time>2026-04-29T15:38:07Z</time></trkpt><trkpt lat="44.455607032881026" lon="9.259859732910165"><ele>348.0</ele><time>2026-04-29T15:38:08Z</time></trkpt><trkpt lat="44.455497955189436" lon="9.259917801039878"><ele>348.0</ele><time>2026-04-29T15:38:09Z</time></trkpt><trkpt lat="44.45539451141497" lon="9.259967216731875"><ele>348.0</ele><time>2026-04-29T15:38:10Z</time></trkpt><trkpt lat="44.45532543274517" lon="9.260008862397827"><ele>348.0</ele><time>2026-04-29T15:38:11Z</time></trkpt><trkpt lat="44.45527380391261" lon="9.260075166009903"><ele>345.0</ele><time>2026-04-29T15:38:12Z</time></trkpt><trkpt lat="44.4552387604112" lon="9.26025674022381"><ele>342.0</ele><time>2026-04-29T15:38:14Z</time></trkpt><trkpt lat="44.45527325669711" lon="9.26039394294149"><ele>339.0</ele><time>2026-04-29T15:38:15Z</time></trkpt><trkpt lat="44.45531417762986" lon="9.260540779095782"><ele>336.0</ele><time>2026-04-29T15:38:16Z</time></trkpt><trkpt lat="44.45535403232159" lon="9.260683789020907"><ele>336.0</ele><time>2026-04-29T15:38:17Z</time></trkpt><trkpt lat="44.45538817734501" lon="9.260809712694781"><ele>336.0</ele><time>2026-04-29T15:38:18Z</time></trkpt><trkpt lat="44.45541417803228" lon="9.260917911858028"><ele>336.0</ele><time>2026-04-29T15:38:19Z</time></trkpt><trkpt lat="44.45542758179819" lon="9.261072659922995"><ele>336.0</ele><time>2026-04-29T15:38:21Z</time></trkpt><trkpt lat="44.4553376358299" lon="9.261133013045315"><ele>336.0</ele><time>2026-04-29T15:38:23Z</time></trkpt><trkpt lat="44.45527331844096" lon="9.261115435054402"><ele>336.0</ele><time>2026-04-29T15:38:24Z</time></trkpt><trkpt lat="44.45520957690841" lon="9.26104910161943"><ele>336.0</ele><time>2026-04-29T15:38:25Z</time></trkpt><trkpt lat="44.455165031480874" lon="9.260967616683416"><ele>336.0</ele><time>2026-04-29T15:38:26Z</time></trkpt><trkpt lat="44.45512283365292" lon="9.26087881769215"><ele>336.0</ele><time>2026-04-29T15:38:27Z</time></trkpt><trkpt lat="44.455076055566934" lon="9.260781157954789"><ele>336.0</ele><time>2026-04-29T15:38:28Z</time></trkpt><trkpt lat="44.45502178572342" lon="9.26069967248364"><ele>336.0</ele><time>2026-04-29T15:38:29Z</time></trkpt><trkpt lat="44.45495124370389" lon="9.260610960224726"><ele>334.0</ele><time>2026-04-29T15:38:30Z</time></trkpt><trkpt lat="44.454891827619406" lon="9.26052775280904"><ele>332.0</ele><time>2026-04-29T15:38:31Z</time></trkpt><trkpt lat="44.45482054370625" lon="9.260439374980642"><ele>330.0</ele><time>2026-04-29T15:38:32Z</time></trkpt><trkpt lat="44.454752934980895" lon="9.26035460790016"><ele>328.0</ele><time>2026-04-29T15:38:33Z</time></trkpt><trkpt lat="44.454690023371725" lon="9.260267792785909"><ele>326.0</ele><time>2026-04-29T15:38:34Z</time></trkpt><trkpt lat="44.454631696146265" lon="9.260184289220483"><ele>324.0</ele><time>2026-04-29T15:38:35Z</time></trkpt><trkpt lat="44.454574189926454" lon="9.260107564798027"><ele>323.1666666666667</ele><time>2026-04-29T15:38:36Z</time></trkpt><trkpt lat="44.454519133561526" lon="9.260030018098568"><ele>322.3333333333333</ele><time>2026-04-29T15:38:37Z</time></trkpt><trkpt lat="44.454467970327066" lon="9.25995496661627"><ele>321.5</ele><time>2026-04-29T15:38:38Z</time></trkpt><trkpt lat="44.4544061477177" lon="9.259889948378447"><ele>320.66666666666663</ele><time>2026-04-29T15:38:39Z</time></trkpt><trkpt lat="44.45434937319291" lon="9.259834207175226"><ele>319.8333333333333</ele><time>2026-04-29T15:38:40Z</time></trkpt><trkpt lat="44.45428097008586" lon="9.259807613254678"><ele>319.0</ele><time>2026-04-29T15:38:41Z</time></trkpt><trkpt lat="44.45419634646012" lon="9.259805776840953"><ele>319.0</ele><time>2026-04-29T15:38:42Z</time></trkpt><trkpt lat="44.45410787877428" lon="9.259833418353129"><ele>319.0</ele><time>2026-04-29T15:38:43Z</time></trkpt><trkpt lat="44.454011315009865" lon="9.259871526426139"><ele>319.0</ele><time>2026-04-29T15:38:44Z</time></trkpt><trkpt lat="44.45392311039107" lon="9.259907445703181"><ele>319.0</ele><time>2026-04-29T15:38:45Z</time></trkpt><trkpt lat="44.453849251529775" lon="9.259936956266573"><ele>319.0</ele><time>2026-04-29T15:38:46Z</time></trkpt><trkpt lat="44.453779965592624" lon="9.259980720407306"><ele>319.0</ele><time>2026-04-29T15:38:47Z</time></trkpt><trkpt lat="44.45371658646346" lon="9.260045317201554"><ele>315.8333333333333</ele><time>2026-04-29T15:38:48Z</time></trkpt><trkpt lat="44.45366070870688" lon="9.260124178253923"><ele>312.66666666666663</ele><time>2026-04-29T15:38:49Z</time></trkpt><trkpt lat="44.45361011219274" lon="9.260196067816732"><ele>309.5</ele><time>2026-04-29T15:38:50Z</time></trkpt><trkpt lat="44.45360625230732" lon="9.260329632970894"><ele>306.3333333333333</ele><time>2026-04-29T15:38:51Z</time></trkpt><trkpt lat="44.45360625230594" lon="9.26044891233418"><ele>303.1666666666667</ele><time>2026-04-29T15:38:52Z</time></trkpt><trkpt lat="44.45360664143219" lon="9.260573434938452"><ele>300.0</ele><time>2026-04-29T15:38:53Z</time></trkpt><trkpt lat="44.45360792356501" lon="9.260701515647227"><ele>300.0</ele><time>2026-04-29T15:38:54Z</time></trkpt><trkpt lat="44.45360924099848" lon="9.260830770043185"><ele>300.0</ele><time>2026-04-29T15:38:55Z</time></trkpt><trkpt lat="44.45361104899878" lon="9.26096218334872"><ele>300.0</ele><time>2026-04-29T15:38:56Z</time></trkpt><trkpt lat="44.45360863200695" lon="9.261085815203023"><ele>300.0</ele><time>2026-04-29T15:38:57Z</time></trkpt><trkpt lat="44.453595869220386" lon="9.26119590908261"><ele>300.0</ele><time>2026-04-29T15:38:58Z</time></trkpt><trkpt lat="44.45356780652524" lon="9.261290657871324"><ele>300.0</ele><time>2026-04-29T15:38:59Z</time></trkpt><trkpt lat="44.453501480182815" lon="9.26141996643142"><ele>300.0</ele><time>2026-04-29T15:39:01Z</time></trkpt><trkpt lat="44.45340107592921" lon="9.261501766961201"><ele>300.0</ele><time>2026-04-29T15:39:03Z</time></trkpt><trkpt lat="44.45330903857753" lon="9.261525519727165"><ele>300.0</ele><time>2026-04-29T15:39:05Z</time></trkpt><trkpt lat="44.45325051085172" lon="9.261488829527625"><ele>300.0</ele><time>2026-04-29T15:39:07Z</time></trkpt><trkpt lat="44.45316875196298" lon="9.261444936926916"><ele>300.0</ele><time>2026-04-29T15:39:10Z</time></trkpt><trkpt lat="44.453115294071814" lon="9.261394251815457"><ele>300.0</ele><time>2026-04-29T15:49:01Z</time></trkpt><trkpt lat="44.45305386730501" lon="9.261339559096907"><ele>300.0</ele><time>2026-04-29T15:49:05Z</time></trkpt><trkpt lat="44.453088405477835" lon="9.261417220952387"><ele>300.0</ele><time>2026-04-29T15:49:09Z</time></trkpt><trkpt lat="44.45325913625482" lon="9.26138011403786"><ele>300.0</ele><time>2026-04-29T15:49:11Z</time></trkpt><trkpt lat="44.453203875178794" lon="9.261502341048827"><ele>300.0</ele><time>2026-04-29T15:49:14Z</time></trkpt><trkpt lat="44.453130541388184" lon="9.261483107897876"><ele>300.0</ele><time>2026-04-29T15:49:18Z</time></trkpt><trkpt lat="44.453059422848526" lon="9.261408578008512"><ele>300.0</ele><time>2026-04-29T15:49:20Z</time></trkpt><trkpt lat="44.45300482321301" lon="9.261322937736507"><ele>300.0</ele><time>2026-04-29T15:49:22Z</time></trkpt><trkpt lat="44.45296373960541" lon="9.261210484204376"><ele>300.0</ele><time>2026-04-29T15:49:24Z</time></trkpt><trkpt lat="44.45293534533975" lon="9.261089730127928"><ele>300.0</ele><time>2026-04-29T15:49:26Z</time></trkpt><trkpt lat="44.4529074619825" lon="9.260966861435504"><ele>300.0</ele><time>2026-04-29T15:49:28Z</time></trkpt><trkpt lat="44.45287646633445" lon="9.260835897308322"><ele>300.8333333333333</ele><time>2026-04-29T15:49:30Z</time></trkpt><trkpt lat="44.45284548578241" lon="9.260703114132246"><ele>301.6666666666667</ele><time>2026-04-29T15:49:32Z</time></trkpt><trkpt lat="44.4528122673767" lon="9.260560663034617"><ele>302.5</ele><time>2026-04-29T15:49:34Z</time></trkpt><trkpt lat="44.45278804583401" lon="9.26047475791227"><ele>303.33333333333337</ele><time>2026-04-29T15:49:35Z</time></trkpt><trkpt lat="44.452757441903586" lon="9.26038866648867"><ele>304.1666666666667</ele><time>2026-04-29T15:49:36Z</time></trkpt><trkpt lat="44.45272342646566" lon="9.260297175754761"><ele>305.0</ele><time>2026-04-29T15:49:37Z</time></trkpt><trkpt lat="44.45268469716058" lon="9.260209382107822"><ele>305.0</ele><time>2026-04-29T15:49:38Z</time></trkpt><trkpt lat="44.45264561619381" lon="9.26012836640435"><ele>305.0</ele><time>2026-04-29T15:49:39Z</time></trkpt><trkpt lat="44.452609707722075" lon="9.260053423462518"><ele>305.0</ele><time>2026-04-29T15:49:40Z</time></trkpt><trkpt lat="44.45257008058966" lon="9.259900894261886"><ele>305.0</ele><time>2026-04-29T15:49:42Z</time></trkpt><trkpt lat="44.45257292759775" lon="9.259761451612816"><ele>305.0</ele><time>2026-04-29T15:49:44Z</time></trkpt><trkpt lat="44.45261307275612" lon="9.25958046898271"><ele>302.5</ele><time>2026-04-29T15:49:46Z</time></trkpt><trkpt lat="44.4526496327436" lon="9.259480020017852"><ele>300.0</ele><time>2026-04-29T15:49:47Z</time></trkpt><trkpt lat="44.452683734637176" lon="9.259378375962203"><ele>297.5</ele><time>2026-04-29T15:49:48Z</time></trkpt><trkpt lat="44.45271051118911" lon="9.259277827221597"><ele>295.0</ele><time>2026-04-29T15:49:49Z</time></trkpt><trkpt lat="44.45273785248182" lon="9.259192231825239"><ele>292.5</ele><time>2026-04-29T15:49:50Z</time></trkpt><trkpt lat="44.45275678621797" lon="9.25910442793351"><ele>290.0</ele><time>2026-04-29T15:49:51Z</time></trkpt><trkpt lat="44.452737726483825" lon="9.258960116666824"><ele>290.8</ele><time>2026-04-29T15:49:52.999Z</time></trkpt><trkpt lat="44.45268529358978" lon="9.258874983980409"><ele>291.6</ele><time>2026-04-29T15:49:53.999Z</time></trkpt><trkpt lat="44.45262168314394" lon="9.258787065195651"><ele>292.4</ele><time>2026-04-29T15:49:54.999Z</time></trkpt><trkpt lat="44.452560673971306" lon="9.258676680961372"><ele>293.2</ele><time>2026-04-29T15:49:55.999Z</time></trkpt><trkpt lat="44.45248432002876" lon="9.258550162390843"><ele>294.0</ele><time>2026-04-29T15:49:56.999Z</time></trkpt><trkpt lat="44.45239601897302" lon="9.258416752449282"><ele>294.0</ele><time>2026-04-29T15:49:57.999Z</time></trkpt><trkpt lat="44.45230215882387" lon="9.258287515265073"><ele>294.0</ele><time>2026-04-29T15:49:58.999Z</time></trkpt><trkpt lat="44.45221443395264" lon="9.258160178526559"><ele>294.0</ele><time>2026-04-29T15:49:59.999Z</time></trkpt><trkpt lat="44.45213101003269" lon="9.258057782125249"><ele>294.0</ele><time>2026-04-29T15:50:00.999Z</time></trkpt><trkpt lat="44.452055320046505" lon="9.257954290064228"><ele>297.0</ele><time>2026-04-29T15:50:01.999Z</time></trkpt><trkpt lat="44.451971577294714" lon="9.25783440192112"><ele>300.0</ele><time>2026-04-29T15:50:02.999Z</time></trkpt><trkpt lat="44.4518643773722" lon="9.257739650169304"><ele>303.0</ele><time>2026-04-29T15:50:03.999Z</time></trkpt><trkpt lat="44.45176162196273" lon="9.257641213027206"><ele>306.0</ele><time>2026-04-29T15:50:04.999Z</time></trkpt><trkpt lat="44.45167713408897" lon="9.257565358714922"><ele>306.0</ele><time>2026-04-29T15:50:05.999Z</time></trkpt><trkpt lat="44.451604165644916" lon="9.257514523681598"><ele>306.0</ele><time>2026-04-29T15:50:06.999Z</time></trkpt><trkpt lat="44.451524017471804" lon="9.257482987591054"><ele>306.0</ele><time>2026-04-29T15:50:07.999Z</time></trkpt><trkpt lat="44.45141850530382" lon="9.257507673501994"><ele>306.0</ele><time>2026-04-29T15:50:08.999Z</time></trkpt><trkpt lat="44.45131181867114" lon="9.257500532649871"><ele>306.0</ele><time>2026-04-29T15:50:09.999Z</time></trkpt><trkpt lat="44.4511949948057" lon="9.257525501820991"><ele>303.0</ele><time>2026-04-29T15:50:10.999Z</time></trkpt><trkpt lat="44.451083602364356" lon="9.257559217151027"><ele>300.0</ele><time>2026-04-29T15:50:11.999Z</time></trkpt><trkpt lat="44.450978810801885" lon="9.257618347887243"><ele>297.0</ele><time>2026-04-29T15:50:12.999Z</time></trkpt><trkpt lat="44.45085301861598" lon="9.257623778023657"><ele>294.0</ele><time>2026-04-29T15:50:13.999Z</time></trkpt><trkpt lat="44.45071263935562" lon="9.25761035514963"><ele>294.0</ele><time>2026-04-29T15:50:14.999Z</time></trkpt><trkpt lat="44.450559528891766" lon="9.25758984470959"><ele>294.0</ele><time>2026-04-29T15:50:15.999Z</time></trkpt><trkpt lat="44.45040279781738" lon="9.257586926254346"><ele>294.0</ele><time>2026-04-29T15:50:16.999Z</time></trkpt><trkpt lat="44.4502512501476" lon="9.257588883118935"><ele>294.3333333333333</ele><time>2026-04-29T15:50:17.999Z</time></trkpt><trkpt lat="44.450099856711205" lon="9.257599312371198"><ele>294.66666666666663</ele><time>2026-04-29T15:50:18.999Z</time></trkpt><trkpt lat="44.44994565135923" lon="9.257605431565677"><ele>295.0</ele><time>2026-04-29T15:50:19.999Z</time></trkpt><trkpt lat="44.449787182211885" lon="9.257612526001935"><ele>295.0</ele><time>2026-04-29T15:50:20.999Z</time></trkpt><trkpt lat="44.449630464022135" lon="9.25761702489726"><ele>295.0</ele><time>2026-04-29T15:50:21.999Z</time></trkpt><trkpt lat="44.44948237596366" lon="9.257617794285176"><ele>295.0</ele><time>2026-04-29T15:50:22.999Z</time></trkpt><trkpt lat="44.44934680852236" lon="9.25762568346458"><ele>295.0</ele><time>2026-04-29T15:50:23.999Z</time></trkpt><trkpt lat="44.44921727953665" lon="9.25762864028112"><ele>293.75</ele><time>2026-04-29T15:50:24.999Z</time></trkpt><trkpt lat="44.449086117738304" lon="9.257616042325198"><ele>292.5</ele><time>2026-04-29T15:50:25.999Z</time></trkpt><trkpt lat="44.4489553612439" lon="9.257579849949227"><ele>291.25</ele><time>2026-04-29T15:50:26.999Z</time></trkpt><trkpt lat="44.448825381071806" lon="9.257529633627593"><ele>290.0</ele><time>2026-04-29T15:50:27.999Z</time></trkpt><trkpt lat="44.448704301461454" lon="9.257479338722373"><ele>288.8</ele><time>2026-04-29T15:50:28.999Z</time></trkpt><trkpt lat="44.448596145469516" lon="9.25742218431923"><ele>287.6</ele><time>2026-04-29T15:50:29.999Z</time></trkpt><trkpt lat="44.44849383149041" lon="9.257346764371212"><ele>286.4</ele><time>2026-04-29T15:50:30.999Z</time></trkpt><trkpt lat="44.44839549065537" lon="9.257268721708154"><ele>285.2</ele><time>2026-04-29T15:50:31.999Z</time></trkpt><trkpt lat="44.44831629188143" lon="9.257205794871213"><ele>284.0</ele><time>2026-04-29T15:50:32.999Z</time></trkpt><trkpt lat="44.44824769424983" lon="9.257118522398994"><ele>284.0</ele><time>2026-04-29T15:50:33.999Z</time></trkpt><trkpt lat="44.44819576566254" lon="9.25700616228293"><ele>284.0</ele><time>2026-04-29T15:50:34.999Z</time></trkpt><trkpt lat="44.44815013544802" lon="9.256860267985214"><ele>284.0</ele><time>2026-04-29T15:50:35.999Z</time></trkpt><trkpt lat="44.44809508236623" lon="9.256725352796574"><ele>284.0</ele><time>2026-04-29T15:50:36.999Z</time></trkpt><trkpt lat="44.44800370620778" lon="9.256565225463868"><ele>279.0</ele><time>2026-04-29T15:50:37.999Z</time></trkpt><trkpt lat="44.447880981804936" lon="9.256410933905972"><ele>274.0</ele><time>2026-04-29T15:50:38.999Z</time></trkpt><trkpt lat="44.447769234326195" lon="9.256256181438891"><ele>269.0</ele><time>2026-04-29T15:50:39.999Z</time></trkpt><trkpt lat="44.44766314649083" lon="9.256102522980457"><ele>269.0</ele><time>2026-04-29T15:50:40.999Z</time></trkpt><trkpt lat="44.447563547420124" lon="9.255962779403504"><ele>269.0</ele><time>2026-04-29T15:50:41.999Z</time></trkpt><trkpt lat="44.447464947779686" lon="9.255840265280504"><ele>269.0</ele><time>2026-04-29T15:50:42.999Z</time></trkpt><trkpt lat="44.44737667586449" lon="9.255714915776924"><ele>269.0</ele><time>2026-04-29T15:50:43.999Z</time></trkpt><trkpt lat="44.44726006349297" lon="9.255636368173395"><ele>273.6666666666667</ele><time>2026-04-29T15:50:44.999Z</time></trkpt><trkpt lat="44.44712582439897" lon="9.255541570480453"><ele>278.3333333333333</ele><time>2026-04-29T15:50:45.999Z</time></trkpt><trkpt lat="44.44695225508238" lon="9.255598084955682"><ele>283.0</ele><time>2026-04-29T15:50:46.999Z</time></trkpt><trkpt lat="44.44679160196022" lon="9.25558189225671"><ele>283.0</ele><time>2026-04-29T15:50:47.999Z</time></trkpt><trkpt lat="44.44664348889983" lon="9.255584828122918"><ele>283.0</ele><time>2026-04-29T15:50:48.999Z</time></trkpt><trkpt lat="44.44649688288434" lon="9.255592349856434"><ele>283.0</ele><time>2026-04-29T15:50:49.999Z</time></trkpt><trkpt lat="44.44636199781005" lon="9.255591298377242"><ele>283.0</ele><time>2026-04-29T15:50:50.999Z</time></trkpt><trkpt lat="44.44624106157064" lon="9.255613086668532"><ele>277.5</ele><time>2026-04-29T15:50:51.999Z</time></trkpt><trkpt lat="44.44611891833094" lon="9.25566676247272"><ele>272.0</ele><time>2026-04-29T15:50:52.999Z</time></trkpt><trkpt lat="44.44600263562997" lon="9.25572262521715"><ele>266.5</ele><time>2026-04-29T15:50:53.999Z</time></trkpt><trkpt lat="44.445887973035" lon="9.25577072937482"><ele>261.0</ele><time>2026-04-29T15:50:54.999Z</time></trkpt><trkpt lat="44.445781410878666" lon="9.255829196898347"><ele>261.0</ele><time>2026-04-29T15:50:55.999Z</time></trkpt><trkpt lat="44.4456734558767" lon="9.255882032426747"><ele>261.0</ele><time>2026-04-29T15:50:56.999Z</time></trkpt><trkpt lat="44.445572853305414" lon="9.255951365637161"><ele>261.0</ele><time>2026-04-29T15:50:57.999Z</time></trkpt><trkpt lat="44.445466733058936" lon="9.25601342869855"><ele>261.0</ele><time>2026-04-29T15:50:58.999Z</time></trkpt><trkpt lat="44.44538658730523" lon="9.256120607960847"><ele>260.2</ele><time>2026-04-29T15:51:00Z</time></trkpt><trkpt lat="44.445304735219324" lon="9.256204761426567"><ele>259.40000000000003</ele><time>2026-04-29T15:51:01Z</time></trkpt><trkpt lat="44.445231037427284" lon="9.256254649391776"><ele>258.6</ele><time>2026-04-29T15:51:02Z</time></trkpt><trkpt lat="44.44514901908853" lon="9.256260477749299"><ele>257.8</ele><time>2026-04-29T15:51:03Z</time></trkpt><trkpt lat="44.445050134184086" lon="9.256220263154512"><ele>257.0</ele><time>2026-04-29T15:51:04Z</time></trkpt><trkpt lat="44.44494093181959" lon="9.256143775423512"><ele>257.0</ele><time>2026-04-29T15:51:05Z</time></trkpt><trkpt lat="44.444812949315" lon="9.256039444614688"><ele>257.0</ele><time>2026-04-29T15:51:06Z</time></trkpt><trkpt lat="44.44469533125379" lon="9.255938088629424"><ele>257.0</ele><time>2026-04-29T15:51:07Z</time></trkpt><trkpt lat="44.444577983133705" lon="9.255824808895882"><ele>257.0</ele><time>2026-04-29T15:51:08Z</time></trkpt><trkpt lat="44.44445034572063" lon="9.255717488541535"><ele>255.0</ele><time>2026-04-29T15:51:09Z</time></trkpt><trkpt lat="44.444305368065" lon="9.255627739976209"><ele>253.0</ele><time>2026-04-29T15:51:10Z</time></trkpt><trkpt lat="44.44417218839276" lon="9.255561466652509"><ele>251.0</ele><time>2026-04-29T15:51:11Z</time></trkpt><trkpt lat="44.44403628184438" lon="9.255487267445602"><ele>249.0</ele><time>2026-04-29T15:51:12Z</time></trkpt><trkpt lat="44.44391369671696" lon="9.255436792498971"><ele>256.4</ele><time>2026-04-29T15:51:13Z</time></trkpt><trkpt lat="44.443790097421996" lon="9.255408098509092"><ele>263.79999999999995</ele><time>2026-04-29T15:51:14Z</time></trkpt><trkpt lat="44.44368576361287" lon="9.255402312410235"><ele>271.20000000000005</ele><time>2026-04-29T15:51:15Z</time></trkpt><trkpt lat="44.44360411289087" lon="9.255426977974313"><ele>278.6</ele><time>2026-04-29T15:51:16Z</time></trkpt><trkpt lat="44.44353130191807" lon="9.255489298314618"><ele>286.0</ele><time>2026-04-29T15:51:17Z</time></trkpt><trkpt lat="44.443442276821656" lon="9.255556492596492"><ele>277.0</ele><time>2026-04-29T15:51:18Z</time></trkpt><trkpt lat="44.44333875893604" lon="9.255668160969039"><ele>268.0</ele><time>2026-04-29T15:51:19Z</time></trkpt><trkpt lat="44.443235762025516" lon="9.255779267165172"><ele>259.0</ele><time>2026-04-29T15:51:20Z</time></trkpt><trkpt lat="44.44314056007727" lon="9.255879914629691"><ele>250.0</ele><time>2026-04-29T15:51:21Z</time></trkpt><trkpt lat="44.44306165715994" lon="9.255960537609708"><ele>250.0</ele><time>2026-04-29T15:51:22Z</time></trkpt><trkpt lat="44.44299491994173" lon="9.256007649395734"><ele>250.0</ele><time>2026-04-29T15:51:23Z</time></trkpt><trkpt lat="44.442920585100765" lon="9.256037694523133"><ele>250.0</ele><time>2026-04-29T15:51:24Z</time></trkpt><trkpt lat="44.44281178836099" lon="9.256007518933286"><ele>250.0</ele><time>2026-04-29T15:51:25Z</time></trkpt><trkpt lat="44.44269894632086" lon="9.255956358786092"><ele>250.0</ele><time>2026-04-29T15:51:26Z</time></trkpt><trkpt lat="44.44259333507391" lon="9.255910113358468"><ele>251.2</ele><time>2026-04-29T15:51:27Z</time></trkpt><trkpt lat="44.44248441981417" lon="9.255851958481275"><ele>252.4</ele><time>2026-04-29T15:51:28Z</time></trkpt><trkpt lat="44.4423890795482" lon="9.255805011606574"><ele>253.60000000000002</ele><time>2026-04-29T15:51:29Z</time></trkpt><trkpt lat="44.44229945096092" lon="9.25579095014609"><ele>254.8</ele><time>2026-04-29T15:51:30Z</time></trkpt><trkpt lat="44.44220919024967" lon="9.255781375824903"><ele>256.0</ele><time>2026-04-29T15:51:31Z</time></trkpt><trkpt lat="44.44211898903116" lon="9.255829020441379"><ele>256.6</ele><time>2026-04-29T15:51:32Z</time></trkpt><trkpt lat="44.44204626484884" lon="9.255936174371598"><ele>257.20000000000005</ele><time>2026-04-29T15:51:33Z</time></trkpt><trkpt lat="44.44199780287653" lon="9.256064091455615"><ele>257.79999999999995</ele><time>2026-04-29T15:51:34Z</time></trkpt><trkpt lat="44.44195804144541" lon="9.25620439328454"><ele>258.4</ele><time>2026-04-29T15:51:35Z</time></trkpt><trkpt lat="44.44195231289497" lon="9.256347536294625"><ele>259.0</ele><time>2026-04-29T15:51:36Z</time></trkpt><trkpt lat="44.44198946694702" lon="9.256471997654808"><ele>254.79999999999998</ele><time>2026-04-29T15:51:37Z</time></trkpt><trkpt lat="44.44200605215664" lon="9.256564770621392"><ele>250.59999999999997</ele><time>2026-04-29T15:51:38Z</time></trkpt><trkpt lat="44.44199022689833" lon="9.256708137218673"><ele>246.4</ele><time>2026-04-29T15:51:40Z</time></trkpt><trkpt lat="44.44188080299649" lon="9.256782434640243"><ele>242.2</ele><time>2026-04-29T15:51:42Z</time></trkpt><trkpt lat="44.44181272387125" lon="9.256750381999625"><ele>238.0</ele><time>2026-04-29T15:51:43Z</time></trkpt><trkpt lat="44.4417256196749" lon="9.256688071453851"><ele>238.0</ele><time>2026-04-29T15:51:44Z</time></trkpt><trkpt lat="44.441622815369975" lon="9.256615061194486"><ele>238.0</ele><time>2026-04-29T15:51:45Z</time></trkpt><trkpt lat="44.44152219156107" lon="9.25653881012367"><ele>238.0</ele><time>2026-04-29T15:51:46Z</time></trkpt><trkpt lat="44.44142923398047" lon="9.256481507017197"><ele>238.0</ele><time>2026-04-29T15:51:46.999Z</time></trkpt><trkpt lat="44.44133751578237" lon="9.256432485951512"><ele>238.0</ele><time>2026-04-29T15:51:47.999Z</time></trkpt><trkpt lat="44.44124735752567" lon="9.256402306508804"><ele>237.2</ele><time>2026-04-29T15:51:48.999Z</time></trkpt><trkpt lat="44.441161491087655" lon="9.256359249937068"><ele>236.4</ele><time>2026-04-29T15:51:49.999Z</time></trkpt><trkpt lat="44.44105748206147" lon="9.256367856957656"><ele>235.59999999999997</ele><time>2026-04-29T15:51:50.999Z</time></trkpt><trkpt lat="44.440953431833286" lon="9.256417227379306"><ele>234.79999999999998</ele><time>2026-04-29T15:51:51.999Z</time></trkpt><trkpt lat="44.440861319266155" lon="9.256467356122464"><ele>234.0</ele><time>2026-04-29T15:51:52.999Z</time></trkpt><trkpt lat="44.44076437391052" lon="9.256535945325265"><ele>234.0</ele><time>2026-04-29T15:51:53.999Z</time></trkpt><trkpt lat="44.44068509393935" lon="9.256626365448769"><ele>233.99999999999997</ele><time>2026-04-29T15:51:54.999Z</time></trkpt><trkpt lat="44.44062197751422" lon="9.25673445062886"><ele>233.99999999999997</ele><time>2026-04-29T15:51:55.999Z</time></trkpt><trkpt lat="44.44057253022154" lon="9.256847804876807"><ele>234.0</ele><time>2026-04-29T15:51:56.999Z</time></trkpt><trkpt lat="44.44052757897671" lon="9.256961980149544"><ele>234.0</ele><time>2026-04-29T15:51:57.999Z</time></trkpt><trkpt lat="44.44048419749382" lon="9.2570773573199"><ele>232.5</ele><time>2026-04-29T15:51:58.999Z</time></trkpt><trkpt lat="44.44045026436607" lon="9.257181434516415"><ele>231.0</ele><time>2026-04-29T15:51:59.999Z</time></trkpt><trkpt lat="44.44041105867776" lon="9.257259088062211"><ele>229.5</ele><time>2026-04-29T15:52:00.999Z</time></trkpt><trkpt lat="44.44035609161169" lon="9.25732448121666"><ele>228.0</ele><time>2026-04-29T15:52:01.999Z</time></trkpt><trkpt lat="44.440275795507354" lon="9.257331647033702"><ele>226.5</ele><time>2026-04-29T15:52:02.999Z</time></trkpt><trkpt lat="44.440197695544114" lon="9.25729309224504"><ele>225.0</ele><time>2026-04-29T15:52:03.999Z</time></trkpt><trkpt lat="44.4401254309574" lon="9.25722330901206"><ele>225.0</ele><time>2026-04-29T15:52:04.999Z</time></trkpt><trkpt lat="44.440068807665426" lon="9.257113126535215"><ele>225.0</ele><time>2026-04-29T15:52:05.999Z</time></trkpt><trkpt lat="44.440040821441336" lon="9.256996173120815"><ele>225.0</ele><time>2026-04-29T15:52:06.999Z</time></trkpt><trkpt lat="44.440037575028526" lon="9.256860946338008"><ele>225.0</ele><time>2026-04-29T15:52:07.999Z</time></trkpt><trkpt lat="44.440046231884324" lon="9.256721831539652"><ele>225.0</ele><time>2026-04-29T15:52:08.999Z</time></trkpt><trkpt lat="44.44004855591416" lon="9.256589640944739"><ele>225.0</ele><time>2026-04-29T15:52:09.999Z</time></trkpt><trkpt lat="44.44002465468355" lon="9.256468753266013"><ele>225.0</ele><time>2026-04-29T15:52:10.999Z</time></trkpt><trkpt lat="44.439981713698934" lon="9.256364279415227"><ele>225.0</ele><time>2026-04-29T15:52:11.999Z</time></trkpt><trkpt lat="44.43991698217688" lon="9.256271407292026"><ele>225.0</ele><time>2026-04-29T15:52:12.999Z</time></trkpt><trkpt lat="44.43982584862489" lon="9.256179214791453"><ele>225.0</ele><time>2026-04-29T15:52:13.999Z</time></trkpt><trkpt lat="44.43973386263638" lon="9.256083241201225"><ele>223.5</ele><time>2026-04-29T15:52:14.999Z</time></trkpt><trkpt lat="44.43963522191876" lon="9.255995629799386"><ele>222.0</ele><time>2026-04-29T15:52:15.999Z</time></trkpt><trkpt lat="44.43953955137936" lon="9.255901138707483"><ele>220.5</ele><time>2026-04-29T15:52:16.999Z</time></trkpt><trkpt lat="44.43944187111687" lon="9.255809762029104"><ele>219.0</ele><time>2026-04-29T15:52:17.999Z</time></trkpt><trkpt lat="44.43934258655785" lon="9.255714957334767"><ele>219.0</ele><time>2026-04-29T15:52:18.999Z</time></trkpt><trkpt lat="44.439252644889734" lon="9.25562593322412"><ele>219.0</ele><time>2026-04-29T15:52:19.999Z</time></trkpt><trkpt lat="44.439129567428616" lon="9.255592561682997"><ele>219.0</ele><time>2026-04-29T15:52:20.999Z</time></trkpt><trkpt lat="44.43901894159512" lon="9.255571791080389"><ele>219.0</ele><time>2026-04-29T15:52:21.999Z</time></trkpt><trkpt lat="44.438915038146334" lon="9.25554834510864"><ele>217.0</ele><time>2026-04-29T15:52:22.999Z</time></trkpt><trkpt lat="44.43880031420421" lon="9.255581665915706"><ele>214.99999999999997</ele><time>2026-04-29T15:52:23.999Z</time></trkpt><trkpt lat="44.43869355766406" lon="9.25563453765665"><ele>213.0</ele><time>2026-04-29T15:52:24.999Z</time></trkpt><trkpt lat="44.43858952857323" lon="9.255681037656815"><ele>211.0</ele><time>2026-04-29T15:52:25.999Z</time></trkpt><trkpt lat="44.43848198604176" lon="9.255703753282676"><ele>209.0</ele><time>2026-04-29T15:52:26.999Z</time></trkpt><trkpt lat="44.438369945463386" lon="9.255729410500678"><ele>209.0</ele><time>2026-04-29T15:52:27.999Z</time></trkpt><trkpt lat="44.4382627932932" lon="9.255725742574324"><ele>209.0</ele><time>2026-04-29T15:52:28.999Z</time></trkpt><trkpt lat="44.438159950161555" lon="9.255708966406775"><ele>209.0</ele><time>2026-04-29T15:52:29.999Z</time></trkpt><trkpt lat="44.438031360382084" lon="9.255763477184491"><ele>209.0</ele><time>2026-04-29T15:52:30.999Z</time></trkpt><trkpt lat="44.43788118961937" lon="9.255877255070299"><ele>214.66666666666669</ele><time>2026-04-29T15:52:31.999Z</time></trkpt><trkpt lat="44.4377277344181" lon="9.255993448031946"><ele>220.33333333333331</ele><time>2026-04-29T15:52:32.999Z</time></trkpt><trkpt lat="44.437590859839126" lon="9.25609922614728"><ele>226.0</ele><time>2026-04-29T15:52:33.999Z</time></trkpt><trkpt lat="44.43747733078459" lon="9.256188719923893"><ele>226.0</ele><time>2026-04-29T15:52:34.999Z</time></trkpt><trkpt lat="44.437378436478646" lon="9.25626785089796"><ele>226.00000000000003</ele><time>2026-04-29T15:52:35.999Z</time></trkpt><trkpt lat="44.437307281175244" lon="9.256357745980555"><ele>226.00000000000003</ele><time>2026-04-29T15:52:36.999Z</time></trkpt><trkpt lat="44.437250243657616" lon="9.25648291902988"><ele>226.0</ele><time>2026-04-29T15:52:37.999Z</time></trkpt><trkpt lat="44.43720282557068" lon="9.25663214278554"><ele>226.0</ele><time>2026-04-29T15:52:38.999Z</time></trkpt><trkpt lat="44.43716555436656" lon="9.25675943464454"><ele>223.14285714285714</ele><time>2026-04-29T15:52:39.999Z</time></trkpt><trkpt lat="44.437133356268774" lon="9.256856159193385"><ele>220.28571428571428</ele><time>2026-04-29T15:52:40.999Z</time></trkpt><trkpt lat="44.43709101196079" lon="9.256929988079895"><ele>217.42857142857142</ele><time>2026-04-29T15:52:41.999Z</time></trkpt><trkpt lat="44.43704335945574" lon="9.25698973478145"><ele>214.57142857142856</ele><time>2026-04-29T15:52:42.999Z</time></trkpt><trkpt lat="44.436979304321575" lon="9.257006350136415"><ele>211.71428571428572</ele><time>2026-04-29T15:52:43.999Z</time></trkpt><trkpt lat="44.43689785476684" lon="9.2569896103635"><ele>208.85714285714283</ele><time>2026-04-29T15:52:44.999Z</time></trkpt><trkpt lat="44.43681342440876" lon="9.256931381703264"><ele>206.0</ele><time>2026-04-29T15:52:45.999Z</time></trkpt><trkpt lat="44.43671183250699" lon="9.256837856032089"><ele>206.0</ele><time>2026-04-29T15:52:46.999Z</time></trkpt><trkpt lat="44.436603510942945" lon="9.256736286043484"><ele>206.0</ele><time>2026-04-29T15:52:47.999Z</time></trkpt><trkpt lat="44.436496007583" lon="9.256654767897016"><ele>206.0</ele><time>2026-04-29T15:52:48.999Z</time></trkpt><trkpt lat="44.43638525233993" lon="9.25656709202109"><ele>206.0</ele><time>2026-04-29T15:52:49.999Z</time></trkpt><trkpt lat="44.43626398962187" lon="9.256464533239173"><ele>208.25</ele><time>2026-04-29T15:52:50.999Z</time></trkpt><trkpt lat="44.43613102166082" lon="9.256354796520602"><ele>210.5</ele><time>2026-04-29T15:52:51.999Z</time></trkpt><trkpt lat="44.43600752692696" lon="9.256250662470501"><ele>212.75</ele><time>2026-04-29T15:52:52.999Z</time></trkpt><trkpt lat="44.43589191850253" lon="9.256155315295118"><ele>215.0</ele><time>2026-04-29T15:52:53.999Z</time></trkpt><trkpt lat="44.43578110610122" lon="9.256066949083408"><ele>215.0</ele><time>2026-04-29T15:52:54.999Z</time></trkpt><trkpt lat="44.4356751713379" lon="9.255981072593928"><ele>215.0</ele><time>2026-04-29T15:52:55.999Z</time></trkpt><trkpt lat="44.435579312323235" lon="9.255898598394293"><ele>215.0</ele><time>2026-04-29T15:52:56.999Z</time></trkpt><trkpt lat="44.43549072641221" lon="9.255829238154114"><ele>215.0</ele><time>2026-04-29T15:52:57.999Z</time></trkpt><trkpt lat="44.43540886444072" lon="9.25578283665703"><ele>215.0</ele><time>2026-04-29T15:52:58.999Z</time></trkpt><trkpt lat="44.43531931708944" lon="9.255762289486587"><ele>214.5</ele><time>2026-04-29T15:52:59.999Z</time></trkpt><trkpt lat="44.43521284635893" lon="9.255784419641074"><ele>214.0</ele><time>2026-04-29T15:53:00.999Z</time></trkpt><trkpt lat="44.43508624574181" lon="9.255833864077866"><ele>213.5</ele><time>2026-04-29T15:53:01.999Z</time></trkpt><trkpt lat="44.43494985427817" lon="9.255889319273162"><ele>213.0</ele><time>2026-04-29T15:53:02.999Z</time></trkpt><trkpt lat="44.4348180292251" lon="9.255917357045542"><ele>213.0</ele><time>2026-04-29T15:53:03.999Z</time></trkpt><trkpt lat="44.43471700198042" lon="9.255997723442968"><ele>213.0</ele><time>2026-04-29T15:53:04.999Z</time></trkpt><trkpt lat="44.43461128443584" lon="9.25605186951035"><ele>213.0</ele><time>2026-04-29T15:53:05.999Z</time></trkpt><trkpt lat="44.434502993048824" lon="9.256158358715354"><ele>213.0</ele><time>2026-04-29T15:53:06.999Z</time></trkpt><trkpt lat="44.43441880954791" lon="9.256267402097656"><ele>212.16666666666666</ele><time>2026-04-29T15:53:07.999Z</time></trkpt><trkpt lat="44.43436347783371" lon="9.256361043577636"><ele>211.33333333333331</ele><time>2026-04-29T15:53:08.999Z</time></trkpt><trkpt lat="44.43427766103299" lon="9.256471979872286"><ele>210.5</ele><time>2026-04-29T15:53:11Z</time></trkpt><trkpt lat="44.434192282611406" lon="9.25648176521184"><ele>209.66666666666666</ele><time>2026-04-29T15:53:12Z</time></trkpt><trkpt lat="44.434121674782666" lon="9.25646135062434"><ele>208.83333333333331</ele><time>2026-04-29T15:53:13Z</time></trkpt><trkpt lat="44.43405175396087" lon="9.256414881385787"><ele>208.0</ele><time>2026-04-29T15:53:14Z</time></trkpt><trkpt lat="44.433987789308226" lon="9.256338847474963"><ele>208.0</ele><time>2026-04-29T15:53:15Z</time></trkpt><trkpt lat="44.43392700760903" lon="9.256200478031579"><ele>208.0</ele><time>2026-04-29T15:53:16Z</time></trkpt><trkpt lat="44.43385572986616" lon="9.256036223723662"><ele>208.0</ele><time>2026-04-29T15:53:17Z</time></trkpt><trkpt lat="44.43377316096624" lon="9.255874951906273"><ele>208.0</ele><time>2026-04-29T15:53:18Z</time></trkpt><trkpt lat="44.43366594648741" lon="9.25571105870275"><ele>209.4</ele><time>2026-04-29T15:53:19Z</time></trkpt><trkpt lat="44.43357663221377" lon="9.255580777408246"><ele>210.8</ele><time>2026-04-29T15:53:20Z</time></trkpt><trkpt lat="44.43349778765585" lon="9.255490217671085"><ele>212.2</ele><time>2026-04-29T15:53:21Z</time></trkpt><trkpt lat="44.433412635505576" lon="9.255436028442757"><ele>213.6</ele><time>2026-04-29T15:53:22Z</time></trkpt><trkpt lat="44.43333295009346" lon="9.255410728783566"><ele>215.0</ele><time>2026-04-29T15:53:23Z</time></trkpt><trkpt lat="44.433269081631956" lon="9.255387746747997"><ele>215.0</ele><time>2026-04-29T15:53:24Z</time></trkpt><trkpt lat="44.43318862974352" lon="9.25541030813153"><ele>215.0</ele><time>2026-04-29T15:53:25Z</time></trkpt><trkpt lat="44.433099214885345" lon="9.255449308015047"><ele>215.0</ele><time>2026-04-29T15:53:26Z</time></trkpt><trkpt lat="44.43299739011222" lon="9.255517694954854"><ele>215.0</ele><time>2026-04-29T15:53:27Z</time></trkpt><trkpt lat="44.43287237775791" lon="9.25552998538425"><ele>215.0</ele><time>2026-04-29T15:53:28Z</time></trkpt><trkpt lat="44.432760463973615" lon="9.255515187285933"><ele>216.66666666666669</ele><time>2026-04-29T15:53:29Z</time></trkpt><trkpt lat="44.43262338955333" lon="9.255504744176177"><ele>218.33333333333331</ele><time>2026-04-29T15:53:30Z</time></trkpt><trkpt lat="44.432469357634815" lon="9.255582785352418"><ele>220.0</ele><time>2026-04-29T15:53:31Z</time></trkpt><trkpt lat="44.4323327545717" lon="9.255683197066825"><ele>215.66666666666666</ele><time>2026-04-29T15:53:32Z</time></trkpt><trkpt lat="44.432180592814014" lon="9.255788039111389"><ele>211.33333333333331</ele><time>2026-04-29T15:53:33Z</time></trkpt><trkpt lat="44.43202869525896" lon="9.255920257699863"><ele>207.0</ele><time>2026-04-29T15:53:34Z</time></trkpt><trkpt lat="44.43192035692798" lon="9.256050213028768"><ele>207.0</ele><time>2026-04-29T15:53:35Z</time></trkpt><trkpt lat="44.43179230025925" lon="9.25614038757925"><ele>207.0</ele><time>2026-04-29T15:53:36Z</time></trkpt><trkpt lat="44.43168452175813" lon="9.256212394916124"><ele>207.0</ele><time>2026-04-29T15:53:37Z</time></trkpt><trkpt lat="44.431572885717124" lon="9.256271867950213"><ele>207.0</ele><time>2026-04-29T15:53:38Z</time></trkpt><trkpt lat="44.43146644513424" lon="9.256393845686926"><ele>210.5</ele><time>2026-04-29T15:53:39Z</time></trkpt><trkpt lat="44.43137865982567" lon="9.256533294086829"><ele>214.0</ele><time>2026-04-29T15:53:40Z</time></trkpt><trkpt lat="44.431308957429934" lon="9.256675796127137"><ele>217.5</ele><time>2026-04-29T15:53:41Z</time></trkpt><trkpt lat="44.4312605842207" lon="9.256803902049658"><ele>221.0</ele><time>2026-04-29T15:53:42Z</time></trkpt><trkpt lat="44.43123406141397" lon="9.256926386156229"><ele>221.0</ele><time>2026-04-29T15:53:43Z</time></trkpt><trkpt lat="44.43124758028349" lon="9.257073714805719"><ele>221.00000000000003</ele><time>2026-04-29T15:53:44Z</time></trkpt><trkpt lat="44.431297525620465" lon="9.257208367598599"><ele>221.00000000000003</ele><time>2026-04-29T15:53:45Z</time></trkpt><trkpt lat="44.43138786623844" lon="9.257329399799993"><ele>221.0</ele><time>2026-04-29T15:53:46Z</time></trkpt><trkpt lat="44.43144672154766" lon="9.257438132163132"><ele>221.0</ele><time>2026-04-29T15:53:47Z</time></trkpt><trkpt lat="44.43146206459986" lon="9.257540569003412"><ele>214.60000000000002</ele><time>2026-04-29T15:53:48Z</time></trkpt><trkpt lat="44.43145063372648" lon="9.257712578546023"><ele>208.20000000000002</ele><time>2026-04-29T15:53:50Z</time></trkpt><trkpt lat="44.43140031874369" lon="9.257795296004671"><ele>201.8</ele><time>2026-04-29T15:53:51Z</time></trkpt><trkpt lat="44.43132782511405" lon="9.257842918731"><ele>195.39999999999998</ele><time>2026-04-29T15:53:52Z</time></trkpt><trkpt lat="44.431243967011625" lon="9.257833688131328"><ele>189.0</ele><time>2026-04-29T15:53:53Z</time></trkpt><trkpt lat="44.43115125846745" lon="9.257795347058659"><ele>189.0</ele><time>2026-04-29T15:53:54Z</time></trkpt><trkpt lat="44.43103091421916" lon="9.257718227820721"><ele>189.0</ele><time>2026-04-29T15:53:55Z</time></trkpt><trkpt lat="44.43089839002995" lon="9.257646441417958"><ele>189.0</ele><time>2026-04-29T15:53:56Z</time></trkpt><trkpt lat="44.43077511181796" lon="9.25758361838987"><ele>189.0</ele><time>2026-04-29T15:53:57Z</time></trkpt><trkpt lat="44.430650431005475" lon="9.257524819967696"><ele>189.0</ele><time>2026-04-29T15:53:58Z</time></trkpt><trkpt lat="44.430507083317586" lon="9.25748443218779"><ele>189.0</ele><time>2026-04-29T15:53:59Z</time></trkpt><trkpt lat="44.430349251173325" lon="9.25746207657132"><ele>189.0</ele><time>2026-04-29T15:54:00Z</time></trkpt><trkpt lat="44.43016796893009" lon="9.257468327979966"><ele>188.33333333333334</ele><time>2026-04-29T15:54:01Z</time></trkpt><trkpt lat="44.42998051649552" lon="9.257487970861048"><ele>187.66666666666669</ele><time>2026-04-29T15:54:02Z</time></trkpt><trkpt lat="44.42980373758369" lon="9.257500322322635"><ele>187.0</ele><time>2026-04-29T15:54:03Z</time></trkpt><trkpt lat="44.429657881798036" lon="9.257504814092913"><ele>193.0</ele><time>2026-04-29T15:54:04Z</time></trkpt><trkpt lat="44.42952648920591" lon="9.257542526177282"><ele>199.0</ele><time>2026-04-29T15:54:05Z</time></trkpt><trkpt lat="44.42940006127078" lon="9.25761599945178"><ele>205.0</ele><time>2026-04-29T15:54:06Z</time></trkpt><trkpt lat="44.42929789678647" lon="9.25772365814694"><ele>211.0</ele><time>2026-04-29T15:54:07Z</time></trkpt><trkpt lat="44.42920495139519" lon="9.257880062372392"><ele>211.0</ele><time>2026-04-29T15:54:08Z</time></trkpt><trkpt lat="44.4291410150973" lon="9.258062272622434"><ele>211.0</ele><time>2026-04-29T15:54:09Z</time></trkpt><trkpt lat="44.42910446135426" lon="9.258264251027645"><ele>211.0</ele><time>2026-04-29T15:54:10Z</time></trkpt><trkpt lat="44.429050756966355" lon="9.258443679568131"><ele>211.0</ele><time>2026-04-29T15:54:11Z</time></trkpt><trkpt lat="44.429019511843286" lon="9.258591372521328"><ele>207.33333333333331</ele><time>2026-04-29T15:54:12Z</time></trkpt><trkpt lat="44.42900708636744" lon="9.25870215121631"><ele>203.66666666666666</ele><time>2026-04-29T15:54:13Z</time></trkpt><trkpt lat="44.42894332160357" lon="9.25879514971048"><ele>200.0</ele><time>2026-04-29T15:54:14Z</time></trkpt><trkpt lat="44.42887802740854" lon="9.258842672367864"><ele>196.33333333333331</ele><time>2026-04-29T15:54:15Z</time></trkpt><trkpt lat="44.42880422410054" lon="9.258853951166312"><ele>192.66666666666666</ele><time>2026-04-29T15:54:16Z</time></trkpt><trkpt lat="44.42872555875731" lon="9.258807684776029"><ele>189.0</ele><time>2026-04-29T15:54:17Z</time></trkpt><trkpt lat="44.428646052398925" lon="9.258722409565129"><ele>189.0</ele><time>2026-04-29T15:54:18Z</time></trkpt><trkpt lat="44.42854857368783" lon="9.258597371265795"><ele>189.0</ele><time>2026-04-29T15:54:19Z</time></trkpt><trkpt lat="44.42846235267058" lon="9.258484332485427"><ele>189.0</ele><time>2026-04-29T15:54:20Z</time></trkpt><trkpt lat="44.428379181130694" lon="9.258397056561947"><ele>189.0</ele><time>2026-04-29T15:54:21Z</time></trkpt><trkpt lat="44.428290664130536" lon="9.25833510664001"><ele>189.0</ele><time>2026-04-29T15:54:22Z</time></trkpt><trkpt lat="44.428178974073006" lon="9.258321269140739"><ele>189.0</ele><time>2026-04-29T15:54:23Z</time></trkpt><trkpt lat="44.42805774738298" lon="9.258359301006122"><ele>189.0</ele><time>2026-04-29T15:54:24Z</time></trkpt><trkpt lat="44.42791234537829" lon="9.258392576142606"><ele>189.0</ele><time>2026-04-29T15:54:25Z</time></trkpt><trkpt lat="44.427771389446825" lon="9.258462858903147"><ele>192.0</ele><time>2026-04-29T15:54:25.999Z</time></trkpt><trkpt lat="44.42764294906403" lon="9.258495332887463"><ele>195.0</ele><time>2026-04-29T15:54:26.999Z</time></trkpt><trkpt lat="44.42752229076936" lon="9.258571847087204"><ele>198.0</ele><time>2026-04-29T15:54:27.999Z</time></trkpt><trkpt lat="44.427398954688485" lon="9.258696649449975"><ele>201.0</ele><time>2026-04-29T15:54:28.999Z</time></trkpt><trkpt lat="44.427299642602875" lon="9.258824535739377"><ele>204.66666666666669</ele><time>2026-04-29T15:54:29.999Z</time></trkpt><trkpt lat="44.42721096783846" lon="9.258992517469215"><ele>208.33333333333334</ele><time>2026-04-29T15:54:30.999Z</time></trkpt><trkpt lat="44.42714058291008" lon="9.259181694122647"><ele>212.0</ele><time>2026-04-29T15:54:31.999Z</time></trkpt><trkpt lat="44.42708667948221" lon="9.259384065026222"><ele>212.0</ele><time>2026-04-29T15:54:32.999Z</time></trkpt><trkpt lat="44.42703830194568" lon="9.259576301514546"><ele>212.0</ele><time>2026-04-29T15:54:33.999Z</time></trkpt><trkpt lat="44.426993867516764" lon="9.259755435865495"><ele>212.0</ele><time>2026-04-29T15:54:34.999Z</time></trkpt><trkpt lat="44.4269487790991" lon="9.259899949995528"><ele>212.0</ele><time>2026-04-29T15:54:35.999Z</time></trkpt><trkpt lat="44.42689439797902" lon="9.260025184914054"><ele>205.8</ele><time>2026-04-29T15:54:36.999Z</time></trkpt><trkpt lat="44.42682393708679" lon="9.260129363894595"><ele>199.6</ele><time>2026-04-29T15:54:37.999Z</time></trkpt><trkpt lat="44.42672441169933" lon="9.260223651230428"><ele>193.4</ele><time>2026-04-29T15:54:38.999Z</time></trkpt><trkpt lat="44.42663296577518" lon="9.260302446829128"><ele>187.20000000000002</ele><time>2026-04-29T15:54:39.999Z</time></trkpt><trkpt lat="44.42652818675471" lon="9.260323342467105"><ele>181.0</ele><time>2026-04-29T15:54:40.999Z</time></trkpt><trkpt lat="44.426409551904484" lon="9.260322244174112"><ele>182.75</ele><time>2026-04-29T15:54:41.999Z</time></trkpt><trkpt lat="44.42626583939349" lon="9.260305575310447"><ele>184.5</ele><time>2026-04-29T15:54:42.999Z</time></trkpt><trkpt lat="44.42612788081961" lon="9.26029431215167"><ele>186.25</ele><time>2026-04-29T15:54:43.999Z</time></trkpt><trkpt lat="44.42597886812773" lon="9.26030439641495"><ele>188.0</ele><time>2026-04-29T15:54:44.999Z</time></trkpt><trkpt lat="44.42581188386842" lon="9.260309175951114"><ele>188.0</ele><time>2026-04-29T15:54:45.999Z</time></trkpt><trkpt lat="44.42566742940989" lon="9.260324694824549"><ele>188.0</ele><time>2026-04-29T15:54:46.999Z</time></trkpt><trkpt lat="44.425551373229794" lon="9.260343980952978"><ele>188.0</ele><time>2026-04-29T15:54:47.999Z</time></trkpt><trkpt lat="44.425444540559404" lon="9.260358492924347"><ele>188.0</ele><time>2026-04-29T15:54:48.999Z</time></trkpt><trkpt lat="44.425333221110975" lon="9.260370663566103"><ele>186.75</ele><time>2026-04-29T15:54:49.999Z</time></trkpt><trkpt lat="44.42521056368795" lon="9.260377107340485"><ele>185.5</ele><time>2026-04-29T15:54:50.999Z</time></trkpt><trkpt lat="44.42507082953846" lon="9.26035814258738"><ele>184.25</ele><time>2026-04-29T15:54:51.999Z</time></trkpt><trkpt lat="44.424930124330984" lon="9.260338646235198"><ele>183.0</ele><time>2026-04-29T15:54:53Z</time></trkpt><trkpt lat="44.42479640360737" lon="9.260327446261769"><ele>183.0</ele><time>2026-04-29T15:54:54Z</time></trkpt><trkpt lat="44.42467688931089" lon="9.260305994362737"><ele>183.0</ele><time>2026-04-29T15:54:55Z</time></trkpt><trkpt lat="44.42456214069959" lon="9.260288408082538"><ele>183.0</ele><time>2026-04-29T15:54:56Z</time></trkpt><trkpt lat="44.42445226340982" lon="9.26026566800673"><ele>183.0</ele><time>2026-04-29T15:54:57Z</time></trkpt><trkpt lat="44.424355793527155" lon="9.260235216669198"><ele>183.0</ele><time>2026-04-29T15:54:58Z</time></trkpt><trkpt lat="44.42424866861185" lon="9.26019186970713"><ele>180.0</ele><time>2026-04-29T15:54:59Z</time></trkpt><trkpt lat="44.42413921632437" lon="9.260141566779389"><ele>177.0</ele><time>2026-04-29T15:55:00Z</time></trkpt><trkpt lat="44.424032013631965" lon="9.260095053612456"><ele>174.0</ele><time>2026-04-29T15:55:01Z</time></trkpt><trkpt lat="44.423927958590845" lon="9.260055076112122"><ele>171.0</ele><time>2026-04-29T15:55:02Z</time></trkpt><trkpt lat="44.42383176078848" lon="9.259996711965137"><ele>168.0</ele><time>2026-04-29T15:55:03Z</time></trkpt><trkpt lat="44.423749574718805" lon="9.259921274857108"><ele>166.0</ele><time>2026-04-29T15:55:04Z</time></trkpt><trkpt lat="44.423672300123975" lon="9.25982068383084"><ele>164.0</ele><time>2026-04-29T15:55:05Z</time></trkpt><trkpt lat="44.42359861197366" lon="9.259696351290117"><ele>162.0</ele><time>2026-04-29T15:55:06Z</time></trkpt><trkpt lat="44.4235310365507" lon="9.259553635716403"><ele>160.0</ele><time>2026-04-29T15:55:07Z</time></trkpt><trkpt lat="44.423474987395856" lon="9.2594242835455"><ele>160.0</ele><time>2026-04-29T15:55:08Z</time></trkpt><trkpt lat="44.42344220854287" lon="9.259311555270227"><ele>160.0</ele><time>2026-04-29T15:55:09Z</time></trkpt><trkpt lat="44.423404160303875" lon="9.259177676476082"><ele>160.0</ele><time>2026-04-29T15:55:10Z</time></trkpt><trkpt lat="44.423376249061135" lon="9.259044579028549"><ele>160.0</ele><time>2026-04-29T15:55:11Z</time></trkpt><trkpt lat="44.42333876270577" lon="9.258924185366824"><ele>160.0</ele><time>2026-04-29T15:55:12Z</time></trkpt><trkpt lat="44.42328405825555" lon="9.258824280854432"><ele>158.2</ele><time>2026-04-29T15:55:13Z</time></trkpt><trkpt lat="44.42321142941445" lon="9.25874126696777"><ele>156.4</ele><time>2026-04-29T15:55:14Z</time></trkpt><trkpt lat="44.4231192922629" lon="9.258650851510716"><ele>154.6</ele><time>2026-04-29T15:55:15Z</time></trkpt><trkpt lat="44.42303595655873" lon="9.258547991588586"><ele>152.8</ele><time>2026-04-29T15:55:16Z</time></trkpt><trkpt lat="44.42296321524309" lon="9.258450628324868"><ele>151.0</ele><time>2026-04-29T15:55:17Z</time></trkpt><trkpt lat="44.42289208132433" lon="9.258353387677118"><ele>151.0</ele><time>2026-04-29T15:55:18Z</time></trkpt><trkpt lat="44.42282671704435" lon="9.258253309859178"><ele>151.0</ele><time>2026-04-29T15:55:19Z</time></trkpt><trkpt lat="44.422755417854745" lon="9.258157890066094"><ele>151.0</ele><time>2026-04-29T15:55:20Z</time></trkpt><trkpt lat="44.42269543825728" lon="9.258036025275693"><ele>151.0</ele><time>2026-04-29T15:55:21Z</time></trkpt><trkpt lat="44.42264081486403" lon="9.257884113239152"><ele>151.0</ele><time>2026-04-29T15:55:22Z</time></trkpt><trkpt lat="44.42260252093105" lon="9.25772979412288"><ele>154.75</ele><time>2026-04-29T15:55:23Z</time></trkpt><trkpt lat="44.422533175667816" lon="9.257602634161445"><ele>158.5</ele><time>2026-04-29T15:55:24Z</time></trkpt><trkpt lat="44.42241491773018" lon="9.257453932113044"><ele>162.25</ele><time>2026-04-29T15:55:25Z</time></trkpt><trkpt lat="44.4223131919004" lon="9.2573086891629"><ele>166.0</ele><time>2026-04-29T15:55:26Z</time></trkpt><trkpt lat="44.422222053977954" lon="9.257223781881159"><ele>162.0</ele><time>2026-04-29T15:55:27Z</time></trkpt><trkpt lat="44.42213601838475" lon="9.25711713308479"><ele>158.0</ele><time>2026-04-29T15:55:28Z</time></trkpt><trkpt lat="44.422029700140364" lon="9.256977622640779"><ele>154.0</ele><time>2026-04-29T15:55:29Z</time></trkpt><trkpt lat="44.421942293126136" lon="9.256856108709105"><ele>150.0</ele><time>2026-04-29T15:55:30Z</time></trkpt><trkpt lat="44.421868830839685" lon="9.256752690508634"><ele>150.0</ele><time>2026-04-29T15:55:31Z</time></trkpt><trkpt lat="44.42179335534889" lon="9.256643403268827"><ele>150.0</ele><time>2026-04-29T15:55:32Z</time></trkpt><trkpt lat="44.421717575608675" lon="9.256537386652845"><ele>150.0</ele><time>2026-04-29T15:55:33Z</time></trkpt><trkpt lat="44.421657093031335" lon="9.256418230708903"><ele>150.0</ele><time>2026-04-29T15:55:34Z</time></trkpt><trkpt lat="44.421590651965076" lon="9.256221480886158"><ele>153.75</ele><time>2026-04-29T15:55:35Z</time></trkpt><trkpt lat="44.421516684675716" lon="9.256009557294062"><ele>157.5</ele><time>2026-04-29T15:55:36Z</time></trkpt><trkpt lat="44.42148609786108" lon="9.25592386653387"><ele>161.25</ele><time>2026-04-29T15:55:37Z</time></trkpt><trkpt lat="44.42141520442362" lon="9.255782148518815"><ele>165.0</ele><time>2026-04-29T15:55:38Z</time></trkpt><trkpt lat="44.42134732164571" lon="9.255648662387337"><ele>159.75</ele><time>2026-04-29T15:55:39Z</time></trkpt><trkpt lat="44.42126292764478" lon="9.255515328510988"><ele>154.5</ele><time>2026-04-29T15:55:40Z</time></trkpt><trkpt lat="44.42117433458836" lon="9.255416017517259"><ele>149.25</ele><time>2026-04-29T15:55:41Z</time></trkpt><trkpt lat="44.42108893519447" lon="9.255308110622877"><ele>144.0</ele><time>2026-04-29T15:55:42Z</time></trkpt><trkpt lat="44.42104450377777" lon="9.255184562747209"><ele>144.0</ele><time>2026-04-29T15:55:43Z</time></trkpt><trkpt lat="44.42098645008064" lon="9.255048429505285"><ele>144.0</ele><time>2026-04-29T15:55:44Z</time></trkpt><trkpt lat="44.420900686240785" lon="9.2549294641069"><ele>144.0</ele><time>2026-04-29T15:55:45Z</time></trkpt><trkpt lat="44.4208094482374" lon="9.254827623673098"><ele>144.0</ele><time>2026-04-29T15:55:46Z</time></trkpt><trkpt lat="44.42069353442923" lon="9.25475473655546"><ele>144.66666666666666</ele><time>2026-04-29T15:55:47Z</time></trkpt><trkpt lat="44.42053903373322" lon="9.25467136971993"><ele>145.33333333333331</ele><time>2026-04-29T15:55:48Z</time></trkpt><trkpt lat="44.42038302435898" lon="9.254590845554462"><ele>146.0</ele><time>2026-04-29T15:55:49Z</time></trkpt><trkpt lat="44.42024595606572" lon="9.254518083620022"><ele>146.0</ele><time>2026-04-29T15:55:50Z</time></trkpt><trkpt lat="44.420122934197444" lon="9.254452119723155"><ele>146.0</ele><time>2026-04-29T15:55:51Z</time></trkpt><trkpt lat="44.42002503978083" lon="9.25441302189006"><ele>146.0</ele><time>2026-04-29T15:55:52Z</time></trkpt><trkpt lat="44.419938610833576" lon="9.254368864440655"><ele>146.0</ele><time>2026-04-29T15:55:53Z</time></trkpt><trkpt lat="44.41988630760049" lon="9.254297057591964"><ele>146.0</ele><time>2026-04-29T15:55:54Z</time></trkpt><trkpt lat="44.41982809876692" lon="9.254187315572016"><ele>146.0</ele><time>2026-04-29T15:55:55Z</time></trkpt><trkpt lat="44.4198030930789" lon="9.254015523713992"><ele>146.0</ele><time>2026-04-29T15:55:56Z</time></trkpt><trkpt lat="44.41974591039632" lon="9.253824900671553"><ele>146.0</ele><time>2026-04-29T15:55:57Z</time></trkpt><trkpt lat="44.419651580775195" lon="9.253625845676828"><ele>146.0</ele><time>2026-04-29T15:55:58Z</time></trkpt><trkpt lat="44.419577098342685" lon="9.253411739057587"><ele>144.25</ele><time>2026-04-29T15:55:59Z</time></trkpt><trkpt lat="44.41950497855112" lon="9.253198517796097"><ele>142.5</ele><time>2026-04-29T15:56:00Z</time></trkpt><trkpt lat="44.41941955240363" lon="9.253060334129744"><ele>140.75</ele><time>2026-04-29T15:56:01Z</time></trkpt><trkpt lat="44.41932769980993" lon="9.252945141217529"><ele>139.0</ele><time>2026-04-29T15:56:02Z</time></trkpt><trkpt lat="44.41923998648685" lon="9.252869878546395"><ele>144.0</ele><time>2026-04-29T15:56:03Z</time></trkpt><trkpt lat="44.41915098488065" lon="9.252803622297577"><ele>149.0</ele><time>2026-04-29T15:56:04Z</time></trkpt><trkpt lat="44.41904223482594" lon="9.252785307056081"><ele>154.0</ele><time>2026-04-29T15:56:05Z</time></trkpt><trkpt lat="44.418930211018456" lon="9.252796244903044"><ele>159.0</ele><time>2026-04-29T15:56:06Z</time></trkpt><trkpt lat="44.418808611834244" lon="9.252778581468256"><ele>164.0</ele><time>2026-04-29T15:56:07Z</time></trkpt><trkpt lat="44.41870548062847" lon="9.252731672853127"><ele>164.0</ele><time>2026-04-29T15:56:08Z</time></trkpt><trkpt lat="44.41858709219148" lon="9.252688509981517"><ele>164.0</ele><time>2026-04-29T15:56:09Z</time></trkpt><trkpt lat="44.41847541780939" lon="9.252642423279339"><ele>164.0</ele><time>2026-04-29T15:56:10Z</time></trkpt><trkpt lat="44.41838087493102" lon="9.252616120125163"><ele>164.0</ele><time>2026-04-29T15:56:11Z</time></trkpt><trkpt lat="44.418250915560805" lon="9.252687752627411"><ele>164.0</ele><time>2026-04-29T15:56:12Z</time></trkpt><trkpt lat="44.41812988547784" lon="9.252758052377358"><ele>164.0</ele><time>2026-04-29T15:56:13Z</time></trkpt><trkpt lat="44.418026958451065" lon="9.25282033036866"><ele>164.0</ele><time>2026-04-29T15:56:14Z</time></trkpt><trkpt lat="44.4179301547677" lon="9.252920266255229"><ele>164.0</ele><time>2026-04-29T15:56:15Z</time></trkpt><trkpt lat="44.41784930478944" lon="9.253061119327358"><ele>156.5</ele><time>2026-04-29T15:56:16Z</time></trkpt><trkpt lat="44.41777507636295" lon="9.253254395565087"><ele>149.0</ele><time>2026-04-29T15:56:17Z</time></trkpt><trkpt lat="44.4176926661906" lon="9.253386001614718"><ele>141.5</ele><time>2026-04-29T15:56:18Z</time></trkpt><trkpt lat="44.417637572230916" lon="9.253480585364382"><ele>134.0</ele><time>2026-04-29T15:56:19Z</time></trkpt><trkpt lat="44.41758708866946" lon="9.253576908520897"><ele>134.0</ele><time>2026-04-29T15:56:20Z</time></trkpt><trkpt lat="44.41751064785524" lon="9.25362263442749"><ele>134.0</ele><time>2026-04-29T15:56:21Z</time></trkpt><trkpt lat="44.41742474552051" lon="9.253620185189519"><ele>134.0</ele><time>2026-04-29T15:56:22Z</time></trkpt><trkpt lat="44.41730756808761" lon="9.253607006608478"><ele>134.0</ele><time>2026-04-29T15:56:23Z</time></trkpt><trkpt lat="44.41717483284845" lon="9.253592102183712"><ele>134.0</ele><time>2026-04-29T15:56:24Z</time></trkpt><trkpt lat="44.41705356213501" lon="9.253585667851873"><ele>132.6</ele><time>2026-04-29T15:56:25Z</time></trkpt><trkpt lat="44.41695323445146" lon="9.253541625246731"><ele>131.2</ele><time>2026-04-29T15:56:26Z</time></trkpt><trkpt lat="44.41686069735225" lon="9.25347465045094"><ele>129.79999999999998</ele><time>2026-04-29T15:56:27Z</time></trkpt><trkpt lat="44.41678871525671" lon="9.253396348078995"><ele>128.4</ele><time>2026-04-29T15:56:28Z</time></trkpt><trkpt lat="44.41671957348319" lon="9.253288239992095"><ele>127.0</ele><time>2026-04-29T15:56:29Z</time></trkpt><trkpt lat="44.41664499859216" lon="9.253160314241573"><ele>130.75</ele><time>2026-04-29T15:56:30Z</time></trkpt><trkpt lat="44.41658718807131" lon="9.253006199701758"><ele>134.5</ele><time>2026-04-29T15:56:31Z</time></trkpt><trkpt lat="44.41654201873339" lon="9.252860979741467"><ele>138.25</ele><time>2026-04-29T15:56:32Z</time></trkpt><trkpt lat="44.4164762533926" lon="9.252736034544291"><ele>142.0</ele><time>2026-04-29T15:56:33Z</time></trkpt><trkpt lat="44.416396661598036" lon="9.252641440325144"><ele>141.25</ele><time>2026-04-29T15:56:34Z</time></trkpt><trkpt lat="44.41629193032802" lon="9.252565498946256"><ele>140.5</ele><time>2026-04-29T15:56:35Z</time></trkpt><trkpt lat="44.416178590183485" lon="9.252511595571548"><ele>139.75</ele><time>2026-04-29T15:56:36Z</time></trkpt><trkpt lat="44.416067659865675" lon="9.252478554598403"><ele>139.0</ele><time>2026-04-29T15:56:37Z</time></trkpt><trkpt lat="44.41594799268975" lon="9.252518235266741"><ele>139.0</ele><time>2026-04-29T15:56:38Z</time></trkpt><trkpt lat="44.415806960576624" lon="9.252585889731009"><ele>139.0</ele><time>2026-04-29T15:56:39Z</time></trkpt><trkpt lat="44.415679881659436" lon="9.252634507063908"><ele>139.0</ele><time>2026-04-29T15:56:40Z</time></trkpt><trkpt lat="44.41555382603711" lon="9.252678261923664"><ele>139.0</ele><time>2026-04-29T15:56:41Z</time></trkpt><trkpt lat="44.41544202407592" lon="9.252728084490698"><ele>138.0</ele><time>2026-04-29T15:56:42Z</time></trkpt><trkpt lat="44.41533806908078" lon="9.252774164473609"><ele>137.0</ele><time>2026-04-29T15:56:43Z</time></trkpt><trkpt lat="44.415254399298554" lon="9.252904887366501"><ele>136.0</ele><time>2026-04-29T15:56:44Z</time></trkpt><trkpt lat="44.415179158758626" lon="9.253019476705008"><ele>135.0</ele><time>2026-04-29T15:56:45Z</time></trkpt><trkpt lat="44.41510717979358" lon="9.253067875771706"><ele>134.0</ele><time>2026-04-29T15:56:46Z</time></trkpt><trkpt lat="44.4150350418485" lon="9.253132550247791"><ele>134.0</ele><time>2026-04-29T15:56:47Z</time></trkpt><trkpt lat="44.414929436105865" lon="9.253139099199537"><ele>134.0</ele><time>2026-04-29T15:56:48Z</time></trkpt><trkpt lat="44.414808533466896" lon="9.253115483941665"><ele>134.0</ele><time>2026-04-29T15:56:49Z</time></trkpt><trkpt lat="44.414668652758195" lon="9.253079830909842"><ele>134.0</ele><time>2026-04-29T15:56:50Z</time></trkpt><trkpt lat="44.41451204991403" lon="9.253056270111095"><ele>129.66666666666666</ele><time>2026-04-29T15:56:51Z</time></trkpt><trkpt lat="44.41434970793912" lon="9.25303264213239"><ele>125.33333333333334</ele><time>2026-04-29T15:56:52Z</time></trkpt><trkpt lat="44.41418005800922" lon="9.253016412467336"><ele>121.0</ele><time>2026-04-29T15:56:53Z</time></trkpt><trkpt lat="44.41403127629767" lon="9.252993005784898"><ele>121.0</ele><time>2026-04-29T15:56:54Z</time></trkpt><trkpt lat="44.41387819902758" lon="9.25297151637349"><ele>121.0</ele><time>2026-04-29T15:56:55Z</time></trkpt><trkpt lat="44.41373028958453" lon="9.252952000927106"><ele>121.0</ele><time>2026-04-29T15:56:56Z</time></trkpt><trkpt lat="44.41359614970979" lon="9.252936912906534"><ele>121.0</ele><time>2026-04-29T15:56:57Z</time></trkpt><trkpt lat="44.41345853999941" lon="9.252921845718003"><ele>118.5</ele><time>2026-04-29T15:56:58Z</time></trkpt><trkpt lat="44.41333727569105" lon="9.252899262257955"><ele>116.0</ele><time>2026-04-29T15:56:59Z</time></trkpt><trkpt lat="44.41322217595957" lon="9.252877285453224"><ele>113.5</ele><time>2026-04-29T15:57:00Z</time></trkpt><trkpt lat="44.41311477435278" lon="9.252837618910682"><ele>111.0</ele><time>2026-04-29T15:57:01Z</time></trkpt><trkpt lat="44.413004028915374" lon="9.252787934946761"><ele>109.0</ele><time>2026-04-29T15:57:02Z</time></trkpt><trkpt lat="44.412897778645366" lon="9.252706078849204"><ele>107.0</ele><time>2026-04-29T15:57:03Z</time></trkpt><trkpt lat="44.412789753374135" lon="9.252613892221072"><ele>105.0</ele><time>2026-04-29T15:57:04Z</time></trkpt><trkpt lat="44.412692638534416" lon="9.25251788977953"><ele>103.0</ele><time>2026-04-29T15:57:05Z</time></trkpt><trkpt lat="44.41259907275023" lon="9.252441101022773"><ele>103.0</ele><time>2026-04-29T15:57:06Z</time></trkpt><trkpt lat="44.41249078757173" lon="9.252397752042892"><ele>103.0</ele><time>2026-04-29T15:57:07Z</time></trkpt><trkpt lat="44.41237740035768" lon="9.25235623113278"><ele>103.0</ele><time>2026-04-29T15:57:08Z</time></trkpt><trkpt lat="44.412239150126304" lon="9.252313339562349"><ele>103.0</ele><time>2026-04-29T15:57:09Z</time></trkpt><trkpt lat="44.41209180349801" lon="9.252270436364167"><ele>105.66666666666667</ele><time>2026-04-29T15:57:10Z</time></trkpt><trkpt lat="44.411954972999226" lon="9.252207971462438"><ele>108.33333333333334</ele><time>2026-04-29T15:57:11Z</time></trkpt><trkpt lat="44.41178448157555" lon="9.252156124582983"><ele>111.0</ele><time>2026-04-29T15:57:12Z</time></trkpt><trkpt lat="44.411633327571245" lon="9.25210389821443"><ele>111.0</ele><time>2026-04-29T15:57:13Z</time></trkpt><trkpt lat="44.411490927764525" lon="9.252053354821033"><ele>111.0</ele><time>2026-04-29T15:57:14Z</time></trkpt><trkpt lat="44.411359239268144" lon="9.252001147034456"><ele>111.0</ele><time>2026-04-29T15:57:15Z</time></trkpt><trkpt lat="44.41123464904143" lon="9.251962712293473"><ele>111.0</ele><time>2026-04-29T15:57:16Z</time></trkpt><trkpt lat="44.411113591359225" lon="9.251905937344935"><ele>109.5</ele><time>2026-04-29T15:57:17Z</time></trkpt><trkpt lat="44.41096838394962" lon="9.251848930654614"><ele>108.0</ele><time>2026-04-29T15:57:18Z</time></trkpt><trkpt lat="44.41087050096462" lon="9.251822135121374"><ele>106.5</ele><time>2026-04-29T15:57:19Z</time></trkpt><trkpt lat="44.41076570915785" lon="9.25178684057225"><ele>105.0</ele><time>2026-04-29T15:57:20Z</time></trkpt><trkpt lat="44.41067606255264" lon="9.251751940707011"><ele>105.0</ele><time>2026-04-29T15:57:21Z</time></trkpt><trkpt lat="44.41058967076637" lon="9.251694366660082"><ele>105.0</ele><time>2026-04-29T15:57:22Z</time></trkpt><trkpt lat="44.41053304784866" lon="9.251566510942581"><ele>105.0</ele><time>2026-04-29T15:57:23Z</time></trkpt><trkpt lat="44.41047517107018" lon="9.251403839349905"><ele>105.0</ele><time>2026-04-29T15:57:24Z</time></trkpt><trkpt lat="44.4104197612322" lon="9.251286196220137"><ele>105.0</ele><time>2026-04-29T15:57:25Z</time></trkpt><trkpt lat="44.41036351072181" lon="9.251102406608748"><ele>105.75</ele><time>2026-04-29T15:57:26Z</time></trkpt><trkpt lat="44.41030124188679" lon="9.250896635196263"><ele>106.5</ele><time>2026-04-29T15:57:27Z</time></trkpt><trkpt lat="44.410243354763885" lon="9.250707332428481"><ele>107.25</ele><time>2026-04-29T15:57:28Z</time></trkpt><trkpt lat="44.41018892824937" lon="9.250532828944205"><ele>108.0</ele><time>2026-04-29T15:57:29Z</time></trkpt><trkpt lat="44.41014086216553" lon="9.250363484428988"><ele>108.0</ele><time>2026-04-29T15:57:30Z</time></trkpt><trkpt lat="44.41008397118567" lon="9.250194758110583"><ele>108.0</ele><time>2026-04-29T15:57:31Z</time></trkpt><trkpt lat="44.41001353316494" lon="9.250048825803107"><ele>108.0</ele><time>2026-04-29T15:57:32Z</time></trkpt><trkpt lat="44.40992144463273" lon="9.249889897222833"><ele>108.0</ele><time>2026-04-29T15:57:33Z</time></trkpt><trkpt lat="44.4098104878837" lon="9.24974987286858"><ele>105.5</ele><time>2026-04-29T15:57:34Z</time></trkpt><trkpt lat="44.40971313966605" lon="9.249622288608597"><ele>103.0</ele><time>2026-04-29T15:57:35Z</time></trkpt><trkpt lat="44.40962277870581" lon="9.249484191255661"><ele>100.5</ele><time>2026-04-29T15:57:36Z</time></trkpt><trkpt lat="44.409530194772444" lon="9.249375773315425"><ele>98.0</ele><time>2026-04-29T15:57:37Z</time></trkpt><trkpt lat="44.4094677637678" lon="9.249235420995689"><ele>98.0</ele><time>2026-04-29T15:57:38Z</time></trkpt><trkpt lat="44.409419282390324" lon="9.249111459521822"><ele>98.0</ele><time>2026-04-29T15:57:39Z</time></trkpt><trkpt lat="44.40937756038164" lon="9.248966955498798"><ele>98.0</ele><time>2026-04-29T15:57:40Z</time></trkpt><trkpt lat="44.409343018121284" lon="9.248783358925712"><ele>98.0</ele><time>2026-04-29T15:57:41Z</time></trkpt><trkpt lat="44.40931878359237" lon="9.248602040974594"><ele>99.60000000000001</ele><time>2026-04-29T15:57:42Z</time></trkpt><trkpt lat="44.409289434703204" lon="9.24843447830606"><ele>101.2</ele><time>2026-04-29T15:57:43Z</time></trkpt><trkpt lat="44.409255324202654" lon="9.248294996241547"><ele>102.8</ele><time>2026-04-29T15:57:44Z</time></trkpt><trkpt lat="44.40920194793961" lon="9.248170121707473"><ele>104.4</ele><time>2026-04-29T15:57:45Z</time></trkpt><trkpt lat="44.409127275263934" lon="9.248069664518882"><ele>106.0</ele><time>2026-04-29T15:57:46Z</time></trkpt><trkpt lat="44.40901019888861" lon="9.247968585105017"><ele>108.66666666666667</ele><time>2026-04-29T15:57:47Z</time></trkpt><trkpt lat="44.40883935480442" lon="9.247870295853074"><ele>111.33333333333334</ele><time>2026-04-29T15:57:48Z</time></trkpt><trkpt lat="44.40865199149714" lon="9.247765418357815"><ele>114.0</ele><time>2026-04-29T15:57:49Z</time></trkpt><trkpt lat="44.408499687658896" lon="9.24763744548791"><ele>111.75</ele><time>2026-04-29T15:57:50Z</time></trkpt><trkpt lat="44.408362326773556" lon="9.247530216845206"><ele>109.5</ele><time>2026-04-29T15:57:51Z</time></trkpt><trkpt lat="44.40823289615169" lon="9.24743448526325"><ele>107.25</ele><time>2026-04-29T15:57:52Z</time></trkpt><trkpt lat="44.40810219638668" lon="9.247344411186372"><ele>105.0</ele><time>2026-04-29T15:57:53Z</time></trkpt><trkpt lat="44.40797903862602" lon="9.247258094402502"><ele>105.0</ele><time>2026-04-29T15:57:54Z</time></trkpt><trkpt lat="44.4078466903026" lon="9.247178786611414"><ele>105.0</ele><time>2026-04-29T15:57:55Z</time></trkpt><trkpt lat="44.407724518170824" lon="9.247113296159903"><ele>105.0</ele><time>2026-04-29T15:57:56Z</time></trkpt><trkpt lat="44.40760806953336" lon="9.247070019581718"><ele>105.0</ele><time>2026-04-29T15:57:57Z</time></trkpt><trkpt lat="44.40748351766772" lon="9.247067567032843"><ele>105.0</ele><time>2026-04-29T15:57:58Z</time></trkpt><trkpt lat="44.40736380326949" lon="9.24708418648266"><ele>105.0</ele><time>2026-04-29T15:57:59Z</time></trkpt><trkpt lat="44.40722611078016" lon="9.247136033266738"><ele>105.0</ele><time>2026-04-29T15:58:00Z</time></trkpt><trkpt lat="44.40708134282842" lon="9.247197077494043"><ele>105.0</ele><time>2026-04-29T15:58:01Z</time></trkpt><trkpt lat="44.4069383814536" lon="9.247250487522292"><ele>101.0</ele><time>2026-04-29T15:58:02Z</time></trkpt><trkpt lat="44.40680357760407" lon="9.247312517266696"><ele>97.0</ele><time>2026-04-29T15:58:03Z</time></trkpt><trkpt lat="44.40666671724288" lon="9.24735923345012"><ele>93.0</ele><time>2026-04-29T15:58:04Z</time></trkpt><trkpt lat="44.406533200275994" lon="9.247416812957969"><ele>89.0</ele><time>2026-04-29T15:58:05Z</time></trkpt><trkpt lat="44.40641370248741" lon="9.247495753144213"><ele>93.75</ele><time>2026-04-29T15:58:06Z</time></trkpt><trkpt lat="44.40629843392051" lon="9.247637936570905"><ele>98.5</ele><time>2026-04-29T15:58:07Z</time></trkpt><trkpt lat="44.406182549113645" lon="9.24777369516631"><ele>103.25</ele><time>2026-04-29T15:58:08Z</time></trkpt><trkpt lat="44.40609210444783" lon="9.247921412178286"><ele>108.0</ele><time>2026-04-29T15:58:09Z</time></trkpt><trkpt lat="44.4060047193291" lon="9.248113398979296"><ele>104.0</ele><time>2026-04-29T15:58:10Z</time></trkpt><trkpt lat="44.40592289279389" lon="9.248319909191437"><ele>100.0</ele><time>2026-04-29T15:58:11Z</time></trkpt><trkpt lat="44.40584355476245" lon="9.24856804269216"><ele>96.0</ele><time>2026-04-29T15:58:12Z</time></trkpt><trkpt lat="44.405752709603505" lon="9.248786070981378"><ele>93.0</ele><time>2026-04-29T15:58:13Z</time></trkpt><trkpt lat="44.40567994426986" lon="9.248995643924225"><ele>90.0</ele><time>2026-04-29T15:58:14Z</time></trkpt><trkpt lat="44.4056122259601" lon="9.249185516352538"><ele>87.0</ele><time>2026-04-29T15:58:15Z</time></trkpt><trkpt lat="44.40554825103312" lon="9.249364675630842"><ele>86.5</ele><time>2026-04-29T15:58:16Z</time></trkpt><trkpt lat="44.4054897666735" lon="9.249520463367897"><ele>86.0</ele><time>2026-04-29T15:58:17Z</time></trkpt><trkpt lat="44.40542236225464" lon="9.249677686621826"><ele>85.5</ele><time>2026-04-29T15:58:18Z</time></trkpt><trkpt lat="44.40535120503247" lon="9.249816664312284"><ele>85.0</ele><time>2026-04-29T15:58:19Z</time></trkpt><trkpt lat="44.4052934206183" lon="9.249921653532647"><ele>85.0</ele><time>2026-04-29T15:58:20Z</time></trkpt><trkpt lat="44.40523346771656" lon="9.25004765074017"><ele>85.0</ele><time>2026-04-29T15:58:21Z</time></trkpt><trkpt lat="44.40515752472075" lon="9.250123683884356"><ele>85.0</ele><time>2026-04-29T15:58:22Z</time></trkpt><trkpt lat="44.40507370351642" lon="9.250168003307987"><ele>85.0</ele><time>2026-04-29T15:58:23Z</time></trkpt><trkpt lat="44.4049767715842" lon="9.250172988188062"><ele>85.0</ele><time>2026-04-29T15:58:24Z</time></trkpt><trkpt lat="44.404861112458576" lon="9.250153589775628"><ele>85.0</ele><time>2026-04-29T15:58:25Z</time></trkpt><trkpt lat="44.40472467517171" lon="9.25013016626409"><ele>85.0</ele><time>2026-04-29T15:58:26Z</time></trkpt><trkpt lat="44.404565063078984" lon="9.25009679359889"><ele>85.0</ele><time>2026-04-29T15:58:27Z</time></trkpt><trkpt lat="44.40439394355078" lon="9.250068211951637"><ele>85.0</ele><time>2026-04-29T15:58:28Z</time></trkpt><trkpt lat="44.40423950830544" lon="9.250038908948127"><ele>85.0</ele><time>2026-04-29T15:58:29Z</time></trkpt><trkpt lat="44.404097603541" lon="9.250015693989527"><ele>85.0</ele><time>2026-04-29T15:58:30Z</time></trkpt><trkpt lat="44.403962285912556" lon="9.249992957206587"><ele>85.0</ele><time>2026-04-29T15:58:31Z</time></trkpt><trkpt lat="44.40383627806901" lon="9.249972038794702"><ele>83.75</ele><time>2026-04-29T15:58:32Z</time></trkpt><trkpt lat="44.40371746925529" lon="9.249946577226309"><ele>82.5</ele><time>2026-04-29T15:58:33Z</time></trkpt><trkpt lat="44.4036039955522" lon="9.249925008572788"><ele>81.25</ele><time>2026-04-29T15:58:34Z</time></trkpt><trkpt lat="44.4034935251343" lon="9.249909046436711"><ele>80.0</ele><time>2026-04-29T15:58:35Z</time></trkpt><trkpt lat="44.4033788631303" lon="9.249890295968306"><ele>80.0</ele><time>2026-04-29T15:58:36Z</time></trkpt><trkpt lat="44.40326582088227" lon="9.249868231921957"><ele>80.0</ele><time>2026-04-29T15:58:37Z</time></trkpt><trkpt lat="44.40316538267669" lon="9.249842564936664"><ele>80.0</ele><time>2026-04-29T15:58:38Z</time></trkpt><trkpt lat="44.40307056067762" lon="9.249820336209906"><ele>80.0</ele><time>2026-04-29T15:58:39Z</time></trkpt><trkpt lat="44.40298304820725" lon="9.249800254615215"><ele>80.0</ele><time>2026-04-29T15:58:40Z</time></trkpt><trkpt lat="44.40287976011032" lon="9.249749904165869"><ele>79.83333333333334</ele><time>2026-04-29T15:58:42Z</time></trkpt><trkpt lat="44.40281196227629" lon="9.24970181308838"><ele>79.66666666666667</ele><time>2026-04-29T15:58:44Z</time></trkpt><trkpt lat="44.40273988556565" lon="9.24971180992216"><ele>79.5</ele><time>2026-04-29T15:58:47Z</time></trkpt><trkpt lat="44.402691648922634" lon="9.24977593580585"><ele>79.33333333333333</ele><time>2026-04-29T15:58:48Z</time></trkpt><trkpt lat="44.40266256896002" lon="9.249885286109333"><ele>79.16666666666666</ele><time>2026-04-29T15:58:49Z</time></trkpt><trkpt lat="44.4026261436198" lon="9.250000768915235"><ele>79.0</ele><time>2026-04-29T15:58:50Z</time></trkpt><trkpt lat="44.40257418165941" lon="9.250108627915175"><ele>78.4</ele><time>2026-04-29T15:58:51Z</time></trkpt><trkpt lat="44.40252914327767" lon="9.250234798913947"><ele>77.80000000000001</ele><time>2026-04-29T15:58:52Z</time></trkpt><trkpt lat="44.40248263504382" lon="9.25036843731839"><ele>77.19999999999999</ele><time>2026-04-29T15:58:53Z</time></trkpt><trkpt lat="44.40244773931492" lon="9.250517250887766"><ele>76.6</ele><time>2026-04-29T15:58:54Z</time></trkpt><trkpt lat="44.4023919966673" lon="9.250631234124429"><ele>76.0</ele><time>2026-04-29T15:58:55Z</time></trkpt><trkpt lat="44.40234607962044" lon="9.250765332602594"><ele>75.6</ele><time>2026-04-29T15:58:56Z</time></trkpt><trkpt lat="44.40229960575707" lon="9.250898033109687"><ele>75.19999999999999</ele><time>2026-04-29T15:58:57Z</time></trkpt><trkpt lat="44.4022550796977" lon="9.25102910683224"><ele>74.80000000000001</ele><time>2026-04-29T15:58:58Z</time></trkpt><trkpt lat="44.40221434399066" lon="9.25114935992454"><ele>74.4</ele><time>2026-04-29T15:58:59Z</time></trkpt><trkpt lat="44.40217564682151" lon="9.251263595194168"><ele>74.0</ele><time>2026-04-29T15:59:00Z</time></trkpt><trkpt lat="44.40214331620874" lon="9.251391784863603"><ele>74.4</ele><time>2026-04-29T15:59:01Z</time></trkpt><trkpt lat="44.40209819474526" lon="9.25152114734033"><ele>74.80000000000001</ele><time>2026-04-29T15:59:02Z</time></trkpt><trkpt lat="44.40205426596529" lon="9.251657560542466"><ele>75.19999999999999</ele><time>2026-04-29T15:59:03Z</time></trkpt><trkpt lat="44.402006121222676" lon="9.251794947462761"><ele>75.6</ele><time>2026-04-29T15:59:04Z</time></trkpt><trkpt lat="44.40195799742329" lon="9.251945002862223"><ele>76.0</ele><time>2026-04-29T15:59:05Z</time></trkpt><trkpt lat="44.40190676100311" lon="9.25209820850283"><ele>76.0</ele><time>2026-04-29T15:59:06Z</time></trkpt><trkpt lat="44.40185157293015" lon="9.252251508633467"><ele>76.0</ele><time>2026-04-29T15:59:07Z</time></trkpt><trkpt lat="44.401798904994656" lon="9.252405314736306"><ele>76.0</ele><time>2026-04-29T15:59:08Z</time></trkpt><trkpt lat="44.40174552505423" lon="9.2525560681729"><ele>76.0</ele><time>2026-04-29T15:59:09Z</time></trkpt><trkpt lat="44.40169055106074" lon="9.252699655502193"><ele>76.2</ele><time>2026-04-29T15:59:10Z</time></trkpt><trkpt lat="44.401637485379126" lon="9.252841139006785"><ele>76.39999999999999</ele><time>2026-04-29T15:59:11Z</time></trkpt><trkpt lat="44.40158820963609" lon="9.25298470884859"><ele>76.6</ele><time>2026-04-29T15:59:12Z</time></trkpt><trkpt lat="44.40154352961537" lon="9.253112690515493"><ele>76.8</ele><time>2026-04-29T15:59:13Z</time></trkpt><trkpt lat="44.40150388402194" lon="9.253228363738648"><ele>77.0</ele><time>2026-04-29T15:59:14Z</time></trkpt><trkpt lat="44.40146073147805" lon="9.253322235757665"><ele>77.33333333333334</ele><time>2026-04-29T15:59:15Z</time></trkpt><trkpt lat="44.401425198600805" lon="9.253417770799404"><ele>77.66666666666667</ele><time>2026-04-29T15:59:16Z</time></trkpt><trkpt lat="44.40139377359689" lon="9.253520347180826"><ele>78.0</ele><time>2026-04-29T15:59:17Z</time></trkpt><trkpt lat="44.401355025196565" lon="9.253621287739717"><ele>78.33333333333333</ele><time>2026-04-29T15:59:18Z</time></trkpt><trkpt lat="44.401322762197275" lon="9.253720704395237"><ele>78.66666666666666</ele><time>2026-04-29T15:59:19Z</time></trkpt><trkpt lat="44.401289473769744" lon="9.253821761137159"><ele>79.0</ele><time>2026-04-29T15:59:20Z</time></trkpt><trkpt lat="44.401257939592185" lon="9.253922227952158"><ele>78.33333333333333</ele><time>2026-04-29T15:59:21Z</time></trkpt><trkpt lat="44.401227478079726" lon="9.25401963072343"><ele>77.66666666666666</ele><time>2026-04-29T15:59:22Z</time></trkpt><trkpt lat="44.40119722336484" lon="9.254115510875286"><ele>77.0</ele><time>2026-04-29T15:59:23Z</time></trkpt><trkpt lat="44.40116143486372" lon="9.25420540112542"><ele>76.33333333333333</ele><time>2026-04-29T15:59:24Z</time></trkpt><trkpt lat="44.40112239984255" lon="9.254292674406791"><ele>75.66666666666667</ele><time>2026-04-29T15:59:25Z</time></trkpt><trkpt lat="44.40108658740468" lon="9.254372138286769"><ele>75.0</ele><time>2026-04-29T15:59:26Z</time></trkpt><trkpt lat="44.40103139083406" lon="9.254492598816462"><ele>75.0</ele><time>2026-04-29T15:59:28Z</time></trkpt><trkpt lat="44.40099651232923" lon="9.25458778556624"><ele>75.0</ele><time>2026-04-29T15:59:30Z</time></trkpt><trkpt lat="44.400973011919405" lon="9.254673983407434"><ele>75.0</ele><time>2026-04-29T15:59:33Z</time></trkpt><trkpt lat="44.400942146255524" lon="9.254786636726399"><ele>75.0</ele><time>2026-04-29T15:59:36Z</time></trkpt><trkpt lat="44.40091389014658" lon="9.254883713654905"><ele>75.0</ele><time>2026-04-29T15:59:37Z</time></trkpt><trkpt lat="44.40087553796407" lon="9.254991350617145"><ele>75.0</ele><time>2026-04-29T15:59:38Z</time></trkpt><trkpt lat="44.40083396503074" lon="9.2550993167623"><ele>75.0</ele><time>2026-04-29T15:59:39Z</time></trkpt><trkpt lat="44.40079378434855" lon="9.25520468867206"><ele>75.0</ele><time>2026-04-29T15:59:40Z</time></trkpt><trkpt lat="44.40076482998115" lon="9.25531310139196"><ele>75.0</ele><time>2026-04-29T15:59:41Z</time></trkpt><trkpt lat="44.400739996834474" lon="9.255432660015384"><ele>75.0</ele><time>2026-04-29T15:59:42Z</time></trkpt><trkpt lat="44.40071891923574" lon="9.25555298695065"><ele>75.0</ele><time>2026-04-29T15:59:43Z</time></trkpt><trkpt lat="44.400732552478125" lon="9.255694096187845"><ele>75.0</ele><time>2026-04-29T15:59:44Z</time></trkpt><trkpt lat="44.4007623119235" lon="9.255844364968903"><ele>74.75</ele><time>2026-04-29T15:59:45Z</time></trkpt><trkpt lat="44.40080062271705" lon="9.256005074727932"><ele>74.5</ele><time>2026-04-29T15:59:46Z</time></trkpt><trkpt lat="44.40083937181396" lon="9.256156894955812"><ele>74.25</ele><time>2026-04-29T15:59:47Z</time></trkpt><trkpt lat="44.40087859441903" lon="9.25631057041205"><ele>74.0</ele><time>2026-04-29T15:59:48Z</time></trkpt><trkpt lat="44.40091580295731" lon="9.256456354686604"><ele>73.8</ele><time>2026-04-29T15:59:49Z</time></trkpt><trkpt lat="44.40094979291003" lon="9.256588837190469"><ele>73.60000000000001</ele><time>2026-04-29T15:59:50Z</time></trkpt><trkpt lat="44.400979976211815" lon="9.256706050080641"><ele>73.4</ele><time>2026-04-29T15:59:51Z</time></trkpt><trkpt lat="44.40101131857674" lon="9.256827589317078"><ele>73.2</ele><time>2026-04-29T15:59:52Z</time></trkpt><trkpt lat="44.40106793963561" lon="9.25694396053286"><ele>73.0</ele><time>2026-04-29T15:59:53Z</time></trkpt><trkpt lat="44.40109727218919" lon="9.25708622726573"><ele>73.0</ele><time>2026-04-29T15:59:54Z</time></trkpt><trkpt lat="44.40112591343681" lon="9.257233331793007"><ele>73.0</ele><time>2026-04-29T15:59:55Z</time></trkpt><trkpt lat="44.40115033510376" lon="9.257378020031483"><ele>73.0</ele><time>2026-04-29T15:59:56Z</time></trkpt><trkpt lat="44.40116029440723" lon="9.25752424323414"><ele>73.0</ele><time>2026-04-29T15:59:57Z</time></trkpt><trkpt lat="44.40115597139041" lon="9.257670320905966"><ele>73.0</ele><time>2026-04-29T15:59:58Z</time></trkpt><trkpt lat="44.401131070120556" lon="9.257813024778912"><ele>73.16666666666666</ele><time>2026-04-29T15:59:59Z</time></trkpt><trkpt lat="44.40109359360692" lon="9.257938053335694"><ele>73.33333333333333</ele><time>2026-04-29T16:00:00Z</time></trkpt><trkpt lat="44.40104812779959" lon="9.258055019074854"><ele>73.5</ele><time>2026-04-29T16:00:01Z</time></trkpt><trkpt lat="44.40099841586814" lon="9.258161148078392"><ele>73.66666666666667</ele><time>2026-04-29T16:00:02Z</time></trkpt><trkpt lat="44.400944948578015" lon="9.258247521867682"><ele>73.83333333333334</ele><time>2026-04-29T16:00:03Z</time></trkpt><trkpt lat="44.40089080217734" lon="9.258324526445474"><ele>74.0</ele><time>2026-04-29T16:00:04Z</time></trkpt><trkpt lat="44.400843077343225" lon="9.258393372140125"><ele>74.66666666666667</ele><time>2026-04-29T16:00:05Z</time></trkpt><trkpt lat="44.40080153894046" lon="9.258459823129073"><ele>75.33333333333334</ele><time>2026-04-29T16:00:06Z</time></trkpt><trkpt lat="44.40073525027916" lon="9.258590115076863"><ele>76.0</ele><time>2026-04-29T16:00:08Z</time></trkpt><trkpt lat="44.400693439486574" lon="9.25866137778132"><ele>76.66666666666667</ele><time>2026-04-29T16:00:09Z</time></trkpt><trkpt lat="44.40064974777154" lon="9.25873264400046"><ele>77.33333333333333</ele><time>2026-04-29T16:00:10Z</time></trkpt><trkpt lat="44.40060945359863" lon="9.258802089703776"><ele>78.0</ele><time>2026-04-29T16:00:11Z</time></trkpt><trkpt lat="44.40053936809646" lon="9.258938418807302"><ele>77.6</ele><time>2026-04-29T16:00:13Z</time></trkpt><trkpt lat="44.400483664752066" lon="9.259038267159317"><ele>77.19999999999999</ele><time>2026-04-29T16:00:15Z</time></trkpt><trkpt lat="44.40042992719114" lon="9.259109809619233"><ele>76.8</ele><time>2026-04-29T16:01:05Z</time></trkpt><trkpt lat="44.400368684246885" lon="9.25917851310258"><ele>76.39999999999999</ele><time>2026-04-29T16:01:18Z</time></trkpt><trkpt lat="44.40028771879969" lon="9.259250793656584"><ele>76.0</ele><time>2026-04-29T16:01:19Z</time></trkpt><trkpt lat="44.400185592797925" lon="9.259317030480332"><ele>76.0</ele><time>2026-04-29T16:01:20Z</time></trkpt><trkpt lat="44.40006869224114" lon="9.259366061179122"><ele>76.0</ele><time>2026-04-29T16:01:21Z</time></trkpt><trkpt lat="44.39993190747495" lon="9.25941095741227"><ele>76.0</ele><time>2026-04-29T16:01:22Z</time></trkpt><trkpt lat="44.399763800862644" lon="9.259451454892043"><ele>76.0</ele><time>2026-04-29T16:01:23Z</time></trkpt><trkpt lat="44.399603497364275" lon="9.259502614370387"><ele>74.25</ele><time>2026-04-29T16:01:24Z</time></trkpt><trkpt lat="44.39945188905251" lon="9.259553394232954"><ele>72.5</ele><time>2026-04-29T16:01:25Z</time></trkpt><trkpt lat="44.399309039856064" lon="9.259600393498806"><ele>70.75</ele><time>2026-04-29T16:01:26Z</time></trkpt><trkpt lat="44.39917664466215" lon="9.25964424333603"><ele>69.0</ele><time>2026-04-29T16:01:27Z</time></trkpt><trkpt lat="44.39905878948448" lon="9.259693362427097"><ele>69.0</ele><time>2026-04-29T16:01:28Z</time></trkpt><trkpt lat="44.39895458020899" lon="9.259718343752958"><ele>69.0</ele><time>2026-04-29T16:01:29Z</time></trkpt><trkpt lat="44.39884767340199" lon="9.259718576648137"><ele>69.0</ele><time>2026-04-29T16:01:30Z</time></trkpt><trkpt lat="44.39873879574566" lon="9.259677108351179"><ele>69.0</ele><time>2026-04-29T16:01:31Z</time></trkpt><trkpt lat="44.39861655069918" lon="9.259597162267099"><ele>69.0</ele><time>2026-04-29T16:01:32Z</time></trkpt><trkpt lat="44.39848748398411" lon="9.259521297851252"><ele>69.0</ele><time>2026-04-29T16:01:33Z</time></trkpt><trkpt lat="44.39836693157148" lon="9.25946001566124"><ele>69.0</ele><time>2026-04-29T16:01:34Z</time></trkpt><trkpt lat="44.398248523082366" lon="9.25942113592326"><ele>69.0</ele><time>2026-04-29T16:01:35Z</time></trkpt><trkpt lat="44.3981344235848" lon="9.25939375943945"><ele>69.0</ele><time>2026-04-29T16:01:36Z</time></trkpt><trkpt lat="44.39801692696986" lon="9.259385353476809"><ele>69.0</ele><time>2026-04-29T16:01:37Z</time></trkpt><trkpt lat="44.3978949151481" lon="9.259366067759663"><ele>69.0</ele><time>2026-04-29T16:01:38Z</time></trkpt><trkpt lat="44.397777114879254" lon="9.259345861689168"><ele>69.0</ele><time>2026-04-29T16:01:39Z</time></trkpt><trkpt lat="44.39765940504246" lon="9.259323235973465"><ele>69.5</ele><time>2026-04-29T16:01:40Z</time></trkpt><trkpt lat="44.397542260777044" lon="9.259305409942673"><ele>70.0</ele><time>2026-04-29T16:01:41Z</time></trkpt><trkpt lat="44.3974189872094" lon="9.259276429196722"><ele>70.5</ele><time>2026-04-29T16:01:42Z</time></trkpt><trkpt lat="44.397288220481464" lon="9.259255984474338"><ele>71.0</ele><time>2026-04-29T16:01:43Z</time></trkpt><trkpt lat="44.39716249218122" lon="9.259231561528976"><ele>71.0</ele><time>2026-04-29T16:01:44Z</time></trkpt><trkpt lat="44.397048089022675" lon="9.259213023371665"><ele>71.0</ele><time>2026-04-29T16:01:45Z</time></trkpt><trkpt lat="44.39693905167658" lon="9.259214337114445"><ele>71.0</ele><time>2026-04-29T16:01:46Z</time></trkpt><trkpt lat="44.396819740234484" lon="9.259239295334394"><ele>71.0</ele><time>2026-04-29T16:01:47Z</time></trkpt><trkpt lat="44.39668214611356" lon="9.259281527239574"><ele>71.0</ele><time>2026-04-29T16:01:48Z</time></trkpt><trkpt lat="44.396535972597" lon="9.25932619721527"><ele>71.0</ele><time>2026-04-29T16:01:49Z</time></trkpt><trkpt lat="44.396405064499724" lon="9.259368233725304"><ele>71.0</ele><time>2026-04-29T16:01:50Z</time></trkpt><trkpt lat="44.39628469955549" lon="9.25942115512494"><ele>71.0</ele><time>2026-04-29T16:01:51Z</time></trkpt><trkpt lat="44.39617426553972" lon="9.259464427966886"><ele>70.25</ele><time>2026-04-29T16:01:52Z</time></trkpt><trkpt lat="44.39605571168493" lon="9.25951529673728"><ele>69.5</ele><time>2026-04-29T16:01:53Z</time></trkpt><trkpt lat="44.39593255026353" lon="9.259565766548278"><ele>68.75</ele><time>2026-04-29T16:01:54Z</time></trkpt><trkpt lat="44.39579799001445" lon="9.259622028237969"><ele>68.0</ele><time>2026-04-29T16:01:55Z</time></trkpt><trkpt lat="44.39566064622351" lon="9.259677918396997"><ele>68.0</ele><time>2026-04-29T16:01:56Z</time></trkpt><trkpt lat="44.39553445886434" lon="9.259749442066402"><ele>68.0</ele><time>2026-04-29T16:01:57Z</time></trkpt><trkpt lat="44.395421336052046" lon="9.259853340258903"><ele>68.0</ele><time>2026-04-29T16:01:58Z</time></trkpt><trkpt lat="44.39532020332836" lon="9.259982442705178"><ele>68.0</ele><time>2026-04-29T16:01:59Z</time></trkpt><trkpt lat="44.39523878592817" lon="9.260132024143916"><ele>68.5</ele><time>2026-04-29T16:02:00Z</time></trkpt><trkpt lat="44.395178962070695" lon="9.260294982470986"><ele>69.0</ele><time>2026-04-29T16:02:01Z</time></trkpt><trkpt lat="44.39512076360997" lon="9.260446461070494"><ele>69.5</ele><time>2026-04-29T16:02:02Z</time></trkpt><trkpt lat="44.39507023071612" lon="9.260599146526104"><ele>70.0</ele><time>2026-04-29T16:02:03Z</time></trkpt><trkpt lat="44.39501713386428" lon="9.26075862188077"><ele>72.0</ele><time>2026-04-29T16:02:04Z</time></trkpt><trkpt lat="44.39496390685112" lon="9.260924481333456"><ele>74.0</ele><time>2026-04-29T16:02:05Z</time></trkpt><trkpt lat="44.3948969260286" lon="9.261122597331621"><ele>76.0</ele><time>2026-04-29T16:02:06Z</time></trkpt><trkpt lat="44.39482455477462" lon="9.261343646777782"><ele>77.66666666666666</ele><time>2026-04-29T16:02:07Z</time></trkpt><trkpt lat="44.394753306350886" lon="9.261547417242868"><ele>79.33333333333333</ele><time>2026-04-29T16:02:08Z</time></trkpt><trkpt lat="44.39468286869682" lon="9.261745473160685"><ele>81.0</ele><time>2026-04-29T16:02:09Z</time></trkpt><trkpt lat="44.394619499482054" lon="9.261926320922385"><ele>76.75</ele><time>2026-04-29T16:02:10Z</time></trkpt><trkpt lat="44.39457313768428" lon="9.262108790451329"><ele>72.5</ele><time>2026-04-29T16:02:11Z</time></trkpt><trkpt lat="44.394552438419936" lon="9.262312730083883"><ele>68.25</ele><time>2026-04-29T16:02:12Z</time></trkpt><trkpt lat="44.39454836314861" lon="9.262521464395256"><ele>64.0</ele><time>2026-04-29T16:02:13Z</time></trkpt><trkpt lat="44.39456972670387" lon="9.262735997340243"><ele>64.0</ele><time>2026-04-29T16:02:14Z</time></trkpt><trkpt lat="44.394611753854406" lon="9.262954917009433"><ele>64.0</ele><time>2026-04-29T16:02:15Z</time></trkpt><trkpt lat="44.394671544360364" lon="9.263203456137262"><ele>64.0</ele><time>2026-04-29T16:02:16Z</time></trkpt><trkpt lat="44.39475313542356" lon="9.263436599999734"><ele>68.0</ele><time>2026-04-29T16:02:17Z</time></trkpt><trkpt lat="44.39484602163471" lon="9.263645193925674"><ele>72.0</ele><time>2026-04-29T16:02:18Z</time></trkpt><trkpt lat="44.39490641901477" lon="9.263869392186406"><ele>76.0</ele><time>2026-04-29T16:02:19Z</time></trkpt><trkpt lat="44.39496825270705" lon="9.26406455471744"><ele>76.0</ele><time>2026-04-29T16:02:20Z</time></trkpt><trkpt lat="44.395005960648604" lon="9.264241681717422"><ele>76.0</ele><time>2026-04-29T16:02:21Z</time></trkpt><trkpt lat="44.395025950696095" lon="9.264401173207354"><ele>76.0</ele><time>2026-04-29T16:02:22Z</time></trkpt><trkpt lat="44.395047461820916" lon="9.264578648308408"><ele>76.0</ele><time>2026-04-29T16:02:23Z</time></trkpt><trkpt lat="44.3950236805673" lon="9.264836074199115"><ele>75.66666666666666</ele><time>2026-04-29T16:02:24Z</time></trkpt><trkpt lat="44.394970872794886" lon="9.26507807583094"><ele>75.33333333333333</ele><time>2026-04-29T16:02:25Z</time></trkpt><trkpt lat="44.394949912513574" lon="9.265317877480422"><ele>75.0</ele><time>2026-04-29T16:02:26Z</time></trkpt><trkpt lat="44.394910744738446" lon="9.265552253994331"><ele>74.33333333333333</ele><time>2026-04-29T16:02:27Z</time></trkpt><trkpt lat="44.39487723629082" lon="9.265792854536258"><ele>73.66666666666666</ele><time>2026-04-29T16:02:28Z</time></trkpt><trkpt lat="44.39484629600787" lon="9.266026482502529"><ele>73.0</ele><time>2026-04-29T16:02:29Z</time></trkpt><trkpt lat="44.394813238051704" lon="9.266244587932928"><ele>73.0</ele><time>2026-04-29T16:02:30Z</time></trkpt><trkpt lat="44.39478374608189" lon="9.26642327518568"><ele>73.0</ele><time>2026-04-29T16:02:31Z</time></trkpt><trkpt lat="44.394761043724735" lon="9.26659124633192"><ele>73.0</ele><time>2026-04-29T16:02:32Z</time></trkpt><trkpt lat="44.394733484863075" lon="9.266747554513968"><ele>73.0</ele><time>2026-04-29T16:02:33Z</time></trkpt><trkpt lat="44.39469768117351" lon="9.266886403986279"><ele>74.14285714285714</ele><time>2026-04-29T16:02:34Z</time></trkpt><trkpt lat="44.39467706005628" lon="9.266974595889033"><ele>75.28571428571429</ele><time>2026-04-29T16:02:35Z</time></trkpt><trkpt lat="44.39464313470036" lon="9.26706620695698"><ele>76.42857142857143</ele><time>2026-04-29T16:02:36Z</time></trkpt><trkpt lat="44.39461844563976" lon="9.2671731938089"><ele>77.57142857142857</ele><time>2026-04-29T16:02:37Z</time></trkpt><trkpt lat="44.39462763727917" lon="9.267265745626036"><ele>78.71428571428571</ele><time>2026-04-29T16:02:38Z</time></trkpt><trkpt lat="44.39458663200128" lon="9.267358616997276"><ele>79.85714285714286</ele><time>2026-04-29T16:02:39Z</time></trkpt><trkpt lat="44.394555743025606" lon="9.26746038914161"><ele>81.0</ele><time>2026-04-29T16:02:40Z</time></trkpt><trkpt lat="44.394506411071994" lon="9.2675571716731"><ele>78.2</ele><time>2026-04-29T16:02:41Z</time></trkpt><trkpt lat="44.394443153393304" lon="9.267644390457274"><ele>75.39999999999999</ele><time>2026-04-29T16:02:42Z</time></trkpt><trkpt lat="44.3943772602" lon="9.267731360020584"><ele>72.6</ele><time>2026-04-29T16:02:43Z</time></trkpt><trkpt lat="44.394314469504565" lon="9.267840054950758"><ele>69.8</ele><time>2026-04-29T16:02:44Z</time></trkpt><trkpt lat="44.39425117446331" lon="9.267996417121768"><ele>67.0</ele><time>2026-04-29T16:02:45Z</time></trkpt><trkpt lat="44.39418839165068" lon="9.268169105033977"><ele>67.0</ele><time>2026-04-29T16:02:46Z</time></trkpt><trkpt lat="44.39412132496821" lon="9.268345635721884"><ele>67.0</ele><time>2026-04-29T16:02:47Z</time></trkpt><trkpt lat="44.394057220053256" lon="9.268522927810402"><ele>67.0</ele><time>2026-04-29T16:02:48Z</time></trkpt><trkpt lat="44.39399348141902" lon="9.268684259730064"><ele>67.0</ele><time>2026-04-29T16:02:49Z</time></trkpt><trkpt lat="44.39393014844651" lon="9.268824499756535"><ele>67.8</ele><time>2026-04-29T16:02:50Z</time></trkpt><trkpt lat="44.39386841324897" lon="9.26898034416387"><ele>68.6</ele><time>2026-04-29T16:02:51Z</time></trkpt><trkpt lat="44.39380802530134" lon="9.269118375498728"><ele>69.39999999999999</ele><time>2026-04-29T16:02:52Z</time></trkpt><trkpt lat="44.39375836922213" lon="9.269224717880576"><ele>70.2</ele><time>2026-04-29T16:02:53Z</time></trkpt><trkpt lat="44.39369342738115" lon="9.26932939025886"><ele>71.0</ele><time>2026-04-29T16:02:54Z</time></trkpt><trkpt lat="44.393629326013716" lon="9.269401593655935"><ele>69.5</ele><time>2026-04-29T16:02:55Z</time></trkpt><trkpt lat="44.39355479677723" lon="9.269438770410662"><ele>68.0</ele><time>2026-04-29T16:02:56Z</time></trkpt><trkpt lat="44.39347578208668" lon="9.269458507267355"><ele>66.5</ele><time>2026-04-29T16:02:57Z</time></trkpt><trkpt lat="44.39340516319018" lon="9.26941995325053"><ele>65.0</ele><time>2026-04-29T16:02:58Z</time></trkpt><trkpt lat="44.39333713675287" lon="9.269357817177863"><ele>63.50000000000001</ele><time>2026-04-29T16:02:59Z</time></trkpt><trkpt lat="44.39326341916369" lon="9.269267792332707"><ele>62.0</ele><time>2026-04-29T16:03:00Z</time></trkpt><trkpt lat="44.393178020810694" lon="9.269152773483118"><ele>62.0</ele><time>2026-04-29T16:03:01Z</time></trkpt><trkpt lat="44.39308562499542" lon="9.26902824083804"><ele>62.0</ele><time>2026-04-29T16:03:02Z</time></trkpt><trkpt lat="44.392994145950034" lon="9.268900945108186"><ele>62.0</ele><time>2026-04-29T16:03:03Z</time></trkpt><trkpt lat="44.39289409581876" lon="9.268760900518252"><ele>62.0</ele><time>2026-04-29T16:03:04Z</time></trkpt><trkpt lat="44.39279329442466" lon="9.268628153820819"><ele>62.5</ele><time>2026-04-29T16:03:05Z</time></trkpt><trkpt lat="44.39269581905321" lon="9.26850516498074"><ele>63.0</ele><time>2026-04-29T16:03:06Z</time></trkpt><trkpt lat="44.3926001773065" lon="9.268371421600904"><ele>63.5</ele><time>2026-04-29T16:03:07Z</time></trkpt><trkpt lat="44.392492999875415" lon="9.26823376695075"><ele>64.0</ele><time>2026-04-29T16:03:08Z</time></trkpt><trkpt lat="44.39239069415999" lon="9.268088850193111"><ele>64.0</ele><time>2026-04-29T16:03:09Z</time></trkpt><trkpt lat="44.39230334869752" lon="9.267965454846147"><ele>64.0</ele><time>2026-04-29T16:03:10Z</time></trkpt><trkpt lat="44.39221751939681" lon="9.267866555136651"><ele>64.0</ele><time>2026-04-29T16:03:11Z</time></trkpt><trkpt lat="44.392132451330255" lon="9.267776616100507"><ele>64.0</ele><time>2026-04-29T16:03:12Z</time></trkpt><trkpt lat="44.39206053234973" lon="9.26769818393904"><ele>64.0</ele><time>2026-04-29T16:03:13Z</time></trkpt><trkpt lat="44.391987677792706" lon="9.267646185352948"><ele>66.60000000000001</ele><time>2026-04-29T16:03:14Z</time></trkpt><trkpt lat="44.39189422667806" lon="9.267599768897897"><ele>69.2</ele><time>2026-04-29T16:03:15Z</time></trkpt><trkpt lat="44.39178752447657" lon="9.267561275425827"><ele>71.80000000000001</ele><time>2026-04-29T16:03:16Z</time></trkpt><trkpt lat="44.391691874585185" lon="9.2675387549965"><ele>74.4</ele><time>2026-04-29T16:03:17Z</time></trkpt><trkpt lat="44.3916109851899" lon="9.267534802143025"><ele>77.0</ele><time>2026-04-29T16:03:18Z</time></trkpt><trkpt lat="44.39153123139079" lon="9.267573148419661"><ele>77.0</ele><time>2026-04-29T16:03:19Z</time></trkpt><trkpt lat="44.39144343089451" lon="9.267619523481022"><ele>77.0</ele><time>2026-04-29T16:03:20Z</time></trkpt><trkpt lat="44.39139895055331" lon="9.267713544676367"><ele>77.0</ele><time>2026-04-29T16:03:21Z</time></trkpt><trkpt lat="44.39134229530961" lon="9.267839993515954"><ele>77.0</ele><time>2026-04-29T16:03:22Z</time></trkpt><trkpt lat="44.39127935328519" lon="9.26799218327654"><ele>77.0</ele><time>2026-04-29T16:03:23Z</time></trkpt><trkpt lat="44.391219783683496" lon="9.268128430323364"><ele>80.5</ele><time>2026-04-29T16:03:24Z</time></trkpt><trkpt lat="44.391168992709304" lon="9.268241185251174"><ele>84.0</ele><time>2026-04-29T16:03:25Z</time></trkpt><trkpt lat="44.391142546635855" lon="9.268408108605032"><ele>87.5</ele><time>2026-04-29T16:03:26Z</time></trkpt><trkpt lat="44.39102278893092" lon="9.268483325049568"><ele>91.0</ele><time>2026-04-29T16:03:27Z</time></trkpt><trkpt lat="44.39091650843645" lon="9.268597038627787"><ele>91.0</ele><time>2026-04-29T16:03:28Z</time></trkpt><trkpt lat="44.39082685037522" lon="9.268687911160221"><ele>91.0</ele><time>2026-04-29T16:03:29Z</time></trkpt><trkpt lat="44.39074332638323" lon="9.268795525421883"><ele>91.0</ele><time>2026-04-29T16:03:30Z</time></trkpt><trkpt lat="44.39061610970731" lon="9.26889960917585"><ele>91.0</ele><time>2026-04-29T16:03:31Z</time></trkpt><trkpt lat="44.390510406048186" lon="9.269027067952656"><ele>96.25</ele><time>2026-04-29T16:03:32Z</time></trkpt><trkpt lat="44.39040869798134" lon="9.269152820622374"><ele>101.5</ele><time>2026-04-29T16:03:33Z</time></trkpt><trkpt lat="44.39032162208565" lon="9.269274377838887"><ele>106.75</ele><time>2026-04-29T16:03:34Z</time></trkpt><trkpt lat="44.39024446916169" lon="9.269431939626037"><ele>112.0</ele><time>2026-04-29T16:03:35Z</time></trkpt><trkpt lat="44.39015771846124" lon="9.269561046782933"><ele>112.0</ele><time>2026-04-29T16:03:36Z</time></trkpt><trkpt lat="44.39007434946465" lon="9.269676068002912"><ele>112.0</ele><time>2026-04-29T16:03:37Z</time></trkpt><trkpt lat="44.38997177886432" lon="9.26977636032125"><ele>112.0</ele><time>2026-04-29T16:03:38Z</time></trkpt><trkpt lat="44.38984735450385" lon="9.269873161147009"><ele>112.0</ele><time>2026-04-29T16:03:39Z</time></trkpt><trkpt lat="44.389716009370346" lon="9.269968064695789"><ele>114.25</ele><time>2026-04-29T16:03:40Z</time></trkpt><trkpt lat="44.38957324035608" lon="9.270067817679449"><ele>116.5</ele><time>2026-04-29T16:03:41Z</time></trkpt><trkpt lat="44.38945769946445" lon="9.270208907969769"><ele>118.75</ele><time>2026-04-29T16:03:42Z</time></trkpt><trkpt lat="44.38934235829792" lon="9.270307625673386"><ele>121.0</ele><time>2026-04-29T16:03:43Z</time></trkpt><trkpt lat="44.389240472761834" lon="9.270383904711673"><ele>121.00000000000001</ele><time>2026-04-29T16:03:44Z</time></trkpt><trkpt lat="44.38916048779881" lon="9.270460005282397"><ele>121.0</ele><time>2026-04-29T16:03:45Z</time></trkpt><trkpt lat="44.38907541127711" lon="9.270507831314116"><ele>121.0</ele><time>2026-04-29T16:03:46Z</time></trkpt><trkpt lat="44.389007845706836" lon="9.270534685769505"><ele>121.0</ele><time>2026-04-29T16:03:47Z</time></trkpt><trkpt lat="44.38894058971989" lon="9.270539592442143"><ele>121.00000000000001</ele><time>2026-04-29T16:03:48Z</time></trkpt><trkpt lat="44.38888021605821" lon="9.270511300435258"><ele>121.0</ele><time>2026-04-29T16:03:49Z</time></trkpt><trkpt lat="44.3888266706728" lon="9.27043357483959"><ele>120.4</ele><time>2026-04-29T16:03:50Z</time></trkpt><trkpt lat="44.3887657663182" lon="9.270320309835787"><ele>119.8</ele><time>2026-04-29T16:03:51Z</time></trkpt><trkpt lat="44.388688008652366" lon="9.270223008201205"><ele>119.20000000000002</ele><time>2026-04-29T16:03:52Z</time></trkpt><trkpt lat="44.38860206456296" lon="9.270146529679819"><ele>118.60000000000001</ele><time>2026-04-29T16:03:53Z</time></trkpt><trkpt lat="44.38849505576442" lon="9.270088047308823"><ele>118.0</ele><time>2026-04-29T16:03:54Z</time></trkpt><trkpt lat="44.388390839819635" lon="9.270052470075155"><ele>118.0</ele><time>2026-04-29T16:03:55Z</time></trkpt><trkpt lat="44.38831310803361" lon="9.270007213902698"><ele>118.00000000000001</ele><time>2026-04-29T16:03:56Z</time></trkpt><trkpt lat="44.38824648685546" lon="9.269973646812902"><ele>118.00000000000001</ele><time>2026-04-29T16:03:57Z</time></trkpt><trkpt lat="44.38816548221427" lon="9.269895185821902"><ele>118.0</ele><time>2026-04-29T16:03:58Z</time></trkpt><trkpt lat="44.38807522869654" lon="9.269769297025372"><ele>118.0</ele><time>2026-04-29T16:03:59Z</time></trkpt><trkpt lat="44.38799486605946" lon="9.269669255967534"><ele>117.60000000000001</ele><time>2026-04-29T16:04:00Z</time></trkpt><trkpt lat="44.387943828844" lon="9.269591909984339"><ele>117.20000000000002</ele><time>2026-04-29T16:04:01Z</time></trkpt><trkpt lat="44.3879079823505" lon="9.269491338430765"><ele>116.8</ele><time>2026-04-29T16:04:02Z</time></trkpt><trkpt lat="44.387859021137665" lon="9.269371105535475"><ele>116.4</ele><time>2026-04-29T16:04:03Z</time></trkpt><trkpt lat="44.387816805652825" lon="9.269195491183263"><ele>116.0</ele><time>2026-04-29T16:04:04Z</time></trkpt><trkpt lat="44.38777432463935" lon="9.26902314029728"><ele>120.4</ele><time>2026-04-29T16:04:05Z</time></trkpt><trkpt lat="44.38773397942266" lon="9.268863137395389"><ele>124.8</ele><time>2026-04-29T16:04:06Z</time></trkpt><trkpt lat="44.38767434994186" lon="9.268742077502367"><ele>129.20000000000002</ele><time>2026-04-29T16:04:07Z</time></trkpt><trkpt lat="44.387624829202046" lon="9.26863787207475"><ele>133.6</ele><time>2026-04-29T16:04:08Z</time></trkpt><trkpt lat="44.38759356744891" lon="9.268560300888819"><ele>138.0</ele><time>2026-04-29T16:04:09Z</time></trkpt><trkpt lat="44.387562217953366" lon="9.268382012177184"><ele>138.0</ele><time>2026-04-29T16:04:11Z</time></trkpt><trkpt lat="44.38754449752038" lon="9.268281384892184"><ele>138.0</ele><time>2026-04-29T16:04:12Z</time></trkpt><trkpt lat="44.3874727877769" lon="9.268224789242845"><ele>138.0</ele><time>2026-04-29T16:04:13Z</time></trkpt><trkpt lat="44.38738147898802" lon="9.268211379962473"><ele>138.0</ele><time>2026-04-29T16:04:14Z</time></trkpt><trkpt lat="44.38731213228994" lon="9.268196105976385"><ele>138.0</ele><time>2026-04-29T16:04:15Z</time></trkpt><trkpt lat="44.387262625215335" lon="9.26813770382638"><ele>138.0</ele><time>2026-04-29T16:04:16Z</time></trkpt><trkpt lat="44.387194592829744" lon="9.268059400679675"><ele>135.8</ele><time>2026-04-29T16:04:17Z</time></trkpt><trkpt lat="44.387184369126864" lon="9.267900461008878"><ele>133.60000000000002</ele><time>2026-04-29T16:04:18Z</time></trkpt><trkpt lat="44.387160975579675" lon="9.267755807335853"><ele>131.39999999999998</ele><time>2026-04-29T16:04:19Z</time></trkpt><trkpt lat="44.38712335934115" lon="9.267643117975238"><ele>129.2</ele><time>2026-04-29T16:04:20Z</time></trkpt><trkpt lat="44.38711658924187" lon="9.267513617038848"><ele>127.0</ele><time>2026-04-29T16:04:21Z</time></trkpt><trkpt lat="44.38709901021191" lon="9.267399987099074"><ele>127.00000000000001</ele><time>2026-04-29T16:04:22Z</time></trkpt><trkpt lat="44.38705803058026" lon="9.267301279932457"><ele>127.0</ele><time>2026-04-29T16:04:23Z</time></trkpt><trkpt lat="44.38700951063767" lon="9.2672255539875"><ele>127.0</ele><time>2026-04-29T16:04:24Z</time></trkpt><trkpt lat="44.386909832408904" lon="9.267206107426263"><ele>127.0</ele><time>2026-04-29T16:04:25Z</time></trkpt><trkpt lat="44.386848411653844" lon="9.267179305538631"><ele>127.00000000000001</ele><time>2026-04-29T16:04:26Z</time></trkpt><trkpt lat="44.38674343969575" lon="9.267083512862634"><ele>127.0</ele><time>2026-04-29T16:04:28Z</time></trkpt><trkpt lat="44.38670372242054" lon="9.266989823881547"><ele>130.5</ele><time>2026-04-29T16:04:29Z</time></trkpt><trkpt lat="44.386669433678165" lon="9.266854856372445"><ele>134.0</ele><time>2026-04-29T16:04:30Z</time></trkpt><trkpt lat="44.386641799641524" lon="9.26669782520172"><ele>137.5</ele><time>2026-04-29T16:04:31Z</time></trkpt><trkpt lat="44.386614735811584" lon="9.266524014414882"><ele>141.0</ele><time>2026-04-29T16:04:32Z</time></trkpt><trkpt lat="44.38659037238751" lon="9.266352030100233"><ele>144.2</ele><time>2026-04-29T16:04:33Z</time></trkpt><trkpt lat="44.386589940960846" lon="9.266176117775506"><ele>147.39999999999998</ele><time>2026-04-29T16:04:34Z</time></trkpt><trkpt lat="44.3866047307253" lon="9.266018180648006"><ele>150.6</ele><time>2026-04-29T16:04:35Z</time></trkpt><trkpt lat="44.38660008328787" lon="9.265889735429749"><ele>153.79999999999998</ele><time>2026-04-29T16:04:36Z</time></trkpt><trkpt lat="44.38658199015911" lon="9.265761589163056"><ele>157.0</ele><time>2026-04-29T16:04:37Z</time></trkpt><trkpt lat="44.3864551487119" lon="9.26554546728404"><ele>156.66666666666669</ele><time>2026-04-29T16:04:38Z</time></trkpt><trkpt lat="44.38637542503019" lon="9.265378409688497"><ele>156.33333333333334</ele><time>2026-04-29T16:04:39Z</time></trkpt><trkpt lat="44.38627560762088" lon="9.26518323286168"><ele>156.0</ele><time>2026-04-29T16:04:40Z</time></trkpt><trkpt lat="44.386183526366466" lon="9.265024555495037"><ele>156.0</ele><time>2026-04-29T16:04:41Z</time></trkpt><trkpt lat="44.38611049470649" lon="9.264883389753036"><ele>156.0</ele><time>2026-04-29T16:04:42Z</time></trkpt><trkpt lat="44.38605620329499" lon="9.264769238050109"><ele>156.0</ele><time>2026-04-29T16:04:43Z</time></trkpt><trkpt lat="44.38598795615202" lon="9.2646746442479"><ele>156.0</ele><time>2026-04-29T16:04:44Z</time></trkpt><trkpt lat="44.38589588336233" lon="9.2646143236024"><ele>156.0</ele><time>2026-04-29T16:04:45Z</time></trkpt><trkpt lat="44.38580904424294" lon="9.264588941541401"><ele>158.0</ele><time>2026-04-29T16:04:46Z</time></trkpt><trkpt lat="44.385739634582556" lon="9.264566260635577"><ele>160.0</ele><time>2026-04-29T16:04:47Z</time></trkpt><trkpt lat="44.38567701614954" lon="9.26444714615674"><ele>162.0</ele><time>2026-04-29T16:04:49Z</time></trkpt><trkpt lat="44.38571940045092" lon="9.26433658603465"><ele>164.0</ele><time>2026-04-29T16:04:51Z</time></trkpt><trkpt lat="44.385796392160614" lon="9.264363203789095"><ele>166.0</ele><time>2026-04-29T16:04:52Z</time></trkpt><trkpt lat="44.38585949626028" lon="9.264379384060481"><ele>168.0</ele><time>2026-04-29T16:04:53Z</time></trkpt><trkpt lat="44.38594099825603" lon="9.264402321468769"><ele>168.0</ele><time>2026-04-29T16:04:54Z</time></trkpt><trkpt lat="44.38601071412014" lon="9.264433817030213"><ele>168.0</ele><time>2026-04-29T16:04:55Z</time></trkpt><trkpt lat="44.38606323428679" lon="9.26450119039485"><ele>168.0</ele><time>2026-04-29T16:04:56Z</time></trkpt><trkpt lat="44.38612085014503" lon="9.264614927318457"><ele>168.0</ele><time>2026-04-29T16:04:57Z</time></trkpt><trkpt lat="44.38617273840213" lon="9.26472364109441"><ele>168.0</ele><time>2026-04-29T16:04:58Z</time></trkpt><trkpt lat="44.38625697593166" lon="9.26483213889559"><ele>171.25</ele><time>2026-04-29T16:04:59Z</time></trkpt><trkpt lat="44.386410174312246" lon="9.264910654701186"><ele>174.5</ele><time>2026-04-29T16:05:00Z</time></trkpt><trkpt lat="44.3865008503728" lon="9.264982458238478"><ele>177.75</ele><time>2026-04-29T16:05:01Z</time></trkpt><trkpt lat="44.3865370292259" lon="9.265093126449383"><ele>181.0</ele><time>2026-04-29T16:05:02Z</time></trkpt><trkpt lat="44.386575601921216" lon="9.265221214248339"><ele>181.0</ele><time>2026-04-29T16:05:03Z</time></trkpt><trkpt lat="44.386624683401514" lon="9.265319600673289"><ele>181.0</ele><time>2026-04-29T16:05:04Z</time></trkpt><trkpt lat="44.38670573371372" lon="9.265420463436284"><ele>181.0</ele><time>2026-04-29T16:05:05Z</time></trkpt><trkpt lat="44.386807891569156" lon="9.265470965408026"><ele>181.0</ele><time>2026-04-29T16:05:06Z</time></trkpt><trkpt lat="44.386918824108676" lon="9.265489059057238"><ele>181.0</ele><time>2026-04-29T16:05:07Z</time></trkpt><trkpt lat="44.38703191943778" lon="9.265507670433546"><ele>181.0</ele><time>2026-04-29T16:05:08Z</time></trkpt><trkpt lat="44.387131906937626" lon="9.265541929985101"><ele>181.0</ele><time>2026-04-29T16:05:09Z</time></trkpt><trkpt lat="44.38720421058174" lon="9.265588056602825"><ele>181.0</ele><time>2026-04-29T16:05:10Z</time></trkpt><trkpt lat="44.38727785556925" lon="9.265651520038706"><ele>181.0</ele><time>2026-04-29T16:05:11Z</time></trkpt><trkpt lat="44.38733254142066" lon="9.265745558606419"><ele>181.0</ele><time>2026-04-29T16:05:12Z</time></trkpt><trkpt lat="44.38738235924987" lon="9.265852422928601"><ele>181.0</ele><time>2026-04-29T16:05:13Z</time></trkpt><trkpt lat="44.38744334347017" lon="9.265968649736582"><ele>182.20000000000002</ele><time>2026-04-29T16:05:14Z</time></trkpt><trkpt lat="44.387510078184526" lon="9.266041519413337"><ele>183.4</ele><time>2026-04-29T16:05:15Z</time></trkpt><trkpt lat="44.3875881336188" lon="9.266105119855283"><ele>184.6</ele><time>2026-04-29T16:05:16Z</time></trkpt><trkpt lat="44.38769433250202" lon="9.2661430444853"><ele>185.8</ele><time>2026-04-29T16:05:17Z</time></trkpt><trkpt lat="44.38776066276697" lon="9.266186620310837"><ele>187.0</ele><time>2026-04-29T16:05:18Z</time></trkpt><trkpt lat="44.387816497844106" lon="9.266304484189176"><ele>187.0</ele><time>2026-04-29T16:05:20Z</time></trkpt><trkpt lat="44.38782716729978" lon="9.266401294248649"><ele>187.0</ele><time>2026-04-29T16:05:21Z</time></trkpt><trkpt lat="44.38785776959294" lon="9.266557067344419"><ele>187.0</ele><time>2026-04-29T16:05:22Z</time></trkpt><trkpt lat="44.387882547911495" lon="9.26668930141329"><ele>187.0</ele><time>2026-04-29T16:05:23Z</time></trkpt><trkpt lat="44.38790378103735" lon="9.266793145365678"><ele>187.0</ele><time>2026-04-29T16:05:24Z</time></trkpt><trkpt lat="44.38797758824297" lon="9.266902132240828"><ele>190.6</ele><time>2026-04-29T16:05:26Z</time></trkpt><trkpt lat="44.38805523832812" lon="9.266885685629966"><ele>194.2</ele><time>2026-04-29T16:05:27Z</time></trkpt><trkpt lat="44.38808755742942" lon="9.266754403323683"><ele>197.8</ele><time>2026-04-29T16:05:28Z</time></trkpt><trkpt lat="44.38807748180142" lon="9.266655361960225"><ele>201.4</ele><time>2026-04-29T16:05:29Z</time></trkpt><trkpt lat="44.38805178821795" lon="9.266521804503931"><ele>205.0</ele><time>2026-04-29T16:05:30Z</time></trkpt><trkpt lat="44.388035187117836" lon="9.26635911019233"><ele>207.8</ele><time>2026-04-29T16:05:31Z</time></trkpt><trkpt lat="44.38802030855078" lon="9.266193405465753"><ele>210.6</ele><time>2026-04-29T16:05:32Z</time></trkpt><trkpt lat="44.38800020522444" lon="9.266032376000586"><ele>213.39999999999998</ele><time>2026-04-29T16:05:33Z</time></trkpt><trkpt lat="44.38797138129592" lon="9.265893446669635"><ele>216.2</ele><time>2026-04-29T16:05:34Z</time></trkpt><trkpt lat="44.387917548791805" lon="9.265782021674665"><ele>219.0</ele><time>2026-04-29T16:05:35Z</time></trkpt><trkpt lat="44.38783535106219" lon="9.265668123096807"><ele>218.0</ele><time>2026-04-29T16:05:36Z</time></trkpt><trkpt lat="44.38776187049102" lon="9.265572640119052"><ele>216.99999999999997</ele><time>2026-04-29T16:05:37Z</time></trkpt><trkpt lat="44.38771267243168" lon="9.265480009684854"><ele>215.99999999999997</ele><time>2026-04-29T16:05:38Z</time></trkpt><trkpt lat="44.38767044442668" lon="9.2653680394902"><ele>215.0</ele><time>2026-04-29T16:05:39Z</time></trkpt><trkpt lat="44.38763757517711" lon="9.2652360235417"><ele>214.0</ele><time>2026-04-29T16:05:40Z</time></trkpt><trkpt lat="44.38760212311058" lon="9.265131635377955"><ele>214.0</ele><time>2026-04-29T16:05:41Z</time></trkpt><trkpt lat="44.38752874800725" lon="9.265056632038608"><ele>213.99999999999997</ele><time>2026-04-29T16:05:42Z</time></trkpt><trkpt lat="44.38742098391364" lon="9.26501517271601"><ele>213.99999999999997</ele><time>2026-04-29T16:05:43Z</time></trkpt><trkpt lat="44.38729908832933" lon="9.265002969233594"><ele>214.0</ele><time>2026-04-29T16:05:44Z</time></trkpt><trkpt lat="44.38720700179191" lon="9.264972937071063"><ele>214.0</ele><time>2026-04-29T16:05:45Z</time></trkpt><trkpt lat="44.387153561473866" lon="9.26490606924098"><ele>209.6</ele><time>2026-04-29T16:05:46Z</time></trkpt><trkpt lat="44.38712974490359" lon="9.264818896135361"><ele>205.2</ele><time>2026-04-29T16:05:47Z</time></trkpt><trkpt lat="44.38711806885123" lon="9.264691538293897"><ele>200.79999999999998</ele><time>2026-04-29T16:05:48Z</time></trkpt><trkpt lat="44.38711330164255" lon="9.264506719772562"><ele>196.39999999999998</ele><time>2026-04-29T16:05:49Z</time></trkpt><trkpt lat="44.38710215339675" lon="9.26430410692723"><ele>192.0</ele><time>2026-04-29T16:05:50Z</time></trkpt><trkpt lat="44.387087939089895" lon="9.264106093960425"><ele>195.0</ele><time>2026-04-29T16:05:51Z</time></trkpt><trkpt lat="44.38708835616279" lon="9.263878200173439"><ele>198.0</ele><time>2026-04-29T16:05:52Z</time></trkpt><trkpt lat="44.38710343259982" lon="9.263654844336642"><ele>201.0</ele><time>2026-04-29T16:05:53Z</time></trkpt><trkpt lat="44.387107269546355" lon="9.263456878038674"><ele>201.0</ele><time>2026-04-29T16:05:54Z</time></trkpt><trkpt lat="44.38709912568135" lon="9.26328720064173"><ele>201.0</ele><time>2026-04-29T16:05:55Z</time></trkpt><trkpt lat="44.38705890445255" lon="9.263139046182225"><ele>201.0</ele><time>2026-04-29T16:05:56Z</time></trkpt><trkpt lat="44.387008928838235" lon="9.26302840584116"><ele>201.0</ele><time>2026-04-29T16:05:57Z</time></trkpt><trkpt lat="44.38696963845443" lon="9.262937500055195"><ele>201.0</ele><time>2026-04-29T16:05:58Z</time></trkpt><trkpt lat="44.38695452673645" lon="9.262849790391039"><ele>203.66666666666666</ele><time>2026-04-29T16:05:59Z</time></trkpt><trkpt lat="44.38697609484464" lon="9.26275928858698"><ele>206.33333333333331</ele><time>2026-04-29T16:06:00Z</time></trkpt><trkpt lat="44.387023188955474" lon="9.262695738720575"><ele>209.0</ele><time>2026-04-29T16:06:01Z</time></trkpt><trkpt lat="44.387152330830006" lon="9.26271797361968"><ele>211.66666666666666</ele><time>2026-04-29T16:06:03Z</time></trkpt><trkpt lat="44.38719548728388" lon="9.262796519535678"><ele>214.33333333333331</ele><time>2026-04-29T16:06:04Z</time></trkpt><trkpt lat="44.38722973015531" lon="9.262895660007647"><ele>217.0</ele><time>2026-04-29T16:06:05Z</time></trkpt><trkpt lat="44.38727237050663" lon="9.26301820894141"><ele>223.75</ele><time>2026-04-29T16:06:06Z</time></trkpt><trkpt lat="44.38732064062237" lon="9.26316231690336"><ele>230.5</ele><time>2026-04-29T16:06:07Z</time></trkpt><trkpt lat="44.387375653617326" lon="9.263338412339525"><ele>237.25</ele><time>2026-04-29T16:06:08Z</time></trkpt><trkpt lat="44.38743093407297" lon="9.263515661427231"><ele>244.0</ele><time>2026-04-29T16:06:09Z</time></trkpt><trkpt lat="44.38747559388519" lon="9.263684142800317"><ele>244.0</ele><time>2026-04-29T16:06:10Z</time></trkpt><trkpt lat="44.3874988955042" lon="9.26381762601171"><ele>243.99999999999997</ele><time>2026-04-29T16:06:11Z</time></trkpt><trkpt lat="44.387512279263674" lon="9.263951981009898"><ele>243.99999999999997</ele><time>2026-04-29T16:06:12Z</time></trkpt><trkpt lat="44.3875164950386" lon="9.264090056832423"><ele>244.0</ele><time>2026-04-29T16:06:13Z</time></trkpt><trkpt lat="44.38749875311924" lon="9.264213271712512"><ele>244.0</ele><time>2026-04-29T16:06:14Z</time></trkpt><trkpt lat="44.38748532419847" lon="9.264355169885281"><ele>242.2</ele><time>2026-04-29T16:06:15Z</time></trkpt><trkpt lat="44.38748015581085" lon="9.264467798455328"><ele>240.39999999999998</ele><time>2026-04-29T16:06:16Z</time></trkpt><trkpt lat="44.387531756136006" lon="9.264633749326642"><ele>238.6</ele><time>2026-04-29T16:06:18Z</time></trkpt><trkpt lat="44.3876078231223" lon="9.26469486286265"><ele>236.8</ele><time>2026-04-29T16:06:19Z</time></trkpt><trkpt lat="44.387708201499215" lon="9.264727972857214"><ele>235.0</ele><time>2026-04-29T16:06:20Z</time></trkpt><trkpt lat="44.38779606512284" lon="9.264803349150883"><ele>236.49999999999997</ele><time>2026-04-29T16:06:21Z</time></trkpt><trkpt lat="44.387853080550485" lon="9.264878490287792"><ele>238.0</ele><time>2026-04-29T16:06:22Z</time></trkpt><trkpt lat="44.38790804011149" lon="9.264969607583332"><ele>239.5</ele><time>2026-04-29T16:06:23Z</time></trkpt><trkpt lat="44.38795907416095" lon="9.265055747724254"><ele>241.0</ele><time>2026-04-29T16:06:24Z</time></trkpt><trkpt lat="44.38801444122261" lon="9.265127335989582"><ele>242.49999999999997</ele><time>2026-04-29T16:06:25Z</time></trkpt><trkpt lat="44.388100228388424" lon="9.265175695632683"><ele>244.0</ele><time>2026-04-29T16:06:26Z</time></trkpt><trkpt lat="44.38822162321503" lon="9.265149604837735"><ele>244.0</ele><time>2026-04-29T16:06:27Z</time></trkpt><trkpt lat="44.38834575850922" lon="9.265205669446555"><ele>243.99999999999997</ele><time>2026-04-29T16:06:28Z</time></trkpt><trkpt lat="44.38845750809271" lon="9.265265426919113"><ele>243.99999999999997</ele><time>2026-04-29T16:06:29Z</time></trkpt><trkpt lat="44.38854243290201" lon="9.265306038407111"><ele>244.0</ele><time>2026-04-29T16:06:30Z</time></trkpt><trkpt lat="44.38861757099919" lon="9.265373124736096"><ele>244.0</ele><time>2026-04-29T16:06:31Z</time></trkpt><trkpt lat="44.38868788160917" lon="9.265460871178096"><ele>244.0</ele><time>2026-04-29T16:06:32Z</time></trkpt><trkpt lat="44.38876575746963" lon="9.265558768577986"><ele>243.99999999999997</ele><time>2026-04-29T16:06:33Z</time></trkpt><trkpt lat="44.38885483733653" lon="9.265646260028031"><ele>243.99999999999997</ele><time>2026-04-29T16:06:34Z</time></trkpt><trkpt lat="44.38894114102213" lon="9.265697543655705"><ele>244.0</ele><time>2026-04-29T16:06:35Z</time></trkpt><trkpt lat="44.38902160410723" lon="9.265713667716188"><ele>244.0</ele><time>2026-04-29T16:06:36Z</time></trkpt><trkpt lat="44.3891432027124" lon="9.265661755981084"><ele>244.39999999999998</ele><time>2026-04-29T16:06:37Z</time></trkpt><trkpt lat="44.38921286149101" lon="9.265586041033462"><ele>244.79999999999998</ele><time>2026-04-29T16:06:38Z</time></trkpt><trkpt lat="44.389288864431386" lon="9.265506366466763"><ele>245.20000000000002</ele><time>2026-04-29T16:06:39Z</time></trkpt><trkpt lat="44.38936030503153" lon="9.265371929426808"><ele>245.60000000000002</ele><time>2026-04-29T16:06:40Z</time></trkpt><trkpt lat="44.38942779193318" lon="9.26525367506607"><ele>246.0</ele><time>2026-04-29T16:06:41Z</time></trkpt><trkpt lat="44.389467997234576" lon="9.265143849132247"><ele>246.0</ele><time>2026-04-29T16:06:42Z</time></trkpt><trkpt lat="44.389473972422095" lon="9.265025982212993"><ele>246.0</ele><time>2026-04-29T16:06:43Z</time></trkpt><trkpt lat="44.38944504934846" lon="9.264885998623205"><ele>246.0</ele><time>2026-04-29T16:06:44Z</time></trkpt><trkpt lat="44.389399316550985" lon="9.264728070301162"><ele>246.0</ele><time>2026-04-29T16:06:45Z</time></trkpt><trkpt lat="44.38935877739644" lon="9.264535499936088"><ele>250.0</ele><time>2026-04-29T16:06:46Z</time></trkpt><trkpt lat="44.389365814024785" lon="9.26436444930895"><ele>254.0</ele><time>2026-04-29T16:06:47Z</time></trkpt><trkpt lat="44.389367279980554" lon="9.264213170520787"><ele>258.0</ele><time>2026-04-29T16:06:48Z</time></trkpt><trkpt lat="44.389342953707796" lon="9.264079102711639"><ele>262.0</ele><time>2026-04-29T16:06:49Z</time></trkpt><trkpt lat="44.38928433612827" lon="9.263926861413184"><ele>264.4</ele><time>2026-04-29T16:06:50Z</time></trkpt><trkpt lat="44.38922031501756" lon="9.2637907867707"><ele>266.79999999999995</ele><time>2026-04-29T16:06:51Z</time></trkpt><trkpt lat="44.389196627015316" lon="9.263659458921298"><ele>269.2</ele><time>2026-04-29T16:06:52Z</time></trkpt><trkpt lat="44.38921138463038" lon="9.263532038878308"><ele>271.59999999999997</ele><time>2026-04-29T16:06:53Z</time></trkpt><trkpt lat="44.389269352051755" lon="9.263397741323574"><ele>274.0</ele><time>2026-04-29T16:06:54Z</time></trkpt><trkpt lat="44.389342774641676" lon="9.263269150126652"><ele>277.75</ele><time>2026-04-29T16:06:55Z</time></trkpt><trkpt lat="44.3894288920153" lon="9.263110908039804"><ele>281.5</ele><time>2026-04-29T16:06:56Z</time></trkpt><trkpt lat="44.38952315591866" lon="9.262953619016328"><ele>285.25</ele><time>2026-04-29T16:06:57Z</time></trkpt><trkpt lat="44.38958657855043" lon="9.262779497205425"><ele>289.0</ele><time>2026-04-29T16:06:58Z</time></trkpt><trkpt lat="44.38963206917027" lon="9.26256216429282"><ele>289.0</ele><time>2026-04-29T16:06:59Z</time></trkpt><trkpt lat="44.389647798450525" lon="9.26234315298891"><ele>289.0</ele><time>2026-04-29T16:07:00Z</time></trkpt><trkpt lat="44.38969437846334" lon="9.262062158489961"><ele>289.0</ele><time>2026-04-29T16:07:01Z</time></trkpt><trkpt lat="44.389704645687154" lon="9.26179957511683"><ele>282.66666666666663</ele><time>2026-04-29T16:07:02Z</time></trkpt><trkpt lat="44.38967573689684" lon="9.261534113179604"><ele>276.3333333333333</ele><time>2026-04-29T16:07:03Z</time></trkpt><trkpt lat="44.38967366620821" lon="9.261287757145848"><ele>270.0</ele><time>2026-04-29T16:07:04Z</time></trkpt><trkpt lat="44.389702995247454" lon="9.261080336902518"><ele>270.0</ele><time>2026-04-29T16:07:05Z</time></trkpt><trkpt lat="44.38971027159311" lon="9.260911503536684"><ele>270.0</ele><time>2026-04-29T16:07:06Z</time></trkpt><trkpt lat="44.38972715911621" lon="9.260752717634357"><ele>270.0</ele><time>2026-04-29T16:07:07Z</time></trkpt><trkpt lat="44.38976342543469" lon="9.260599062260013"><ele>270.0</ele><time>2026-04-29T16:07:08Z</time></trkpt><trkpt lat="44.38976936443781" lon="9.260501709164389"><ele>270.0</ele><time>2026-04-29T16:07:09Z</time></trkpt><trkpt lat="44.38978583807194" lon="9.26039698579464"><ele>274.2</ele><time>2026-04-29T16:07:10Z</time></trkpt><trkpt lat="44.38974370594472" lon="9.260303890689016"><ele>278.4</ele><time>2026-04-29T16:07:12Z</time></trkpt><trkpt lat="44.38962151505224" lon="9.260327844157981"><ele>282.6</ele><time>2026-04-29T16:07:14Z</time></trkpt><trkpt lat="44.389567537894266" lon="9.260447962049994"><ele>286.8</ele><time>2026-04-29T16:07:15Z</time></trkpt><trkpt lat="44.389498341025536" lon="9.260567970154305"><ele>291.0</ele><time>2026-04-29T16:07:16Z</time></trkpt><trkpt lat="44.38946920472091" lon="9.260748273631199"><ele>296.0</ele><time>2026-04-29T16:07:17Z</time></trkpt><trkpt lat="44.38941171850966" lon="9.260885821081343"><ele>301.0</ele><time>2026-04-29T16:07:18Z</time></trkpt><trkpt lat="44.38930922148433" lon="9.261033906037852"><ele>306.0</ele><time>2026-04-29T16:07:19Z</time></trkpt><trkpt lat="44.38922285654858" lon="9.261199695373453"><ele>311.0</ele><time>2026-04-29T16:07:20Z</time></trkpt><trkpt lat="44.38916370413735" lon="9.261394956040949"><ele>307.75</ele><time>2026-04-29T16:07:21Z</time></trkpt><trkpt lat="44.389107851395494" lon="9.261584500033106"><ele>304.5</ele><time>2026-04-29T16:07:22Z</time></trkpt><trkpt lat="44.3890751293223" lon="9.261752795131077"><ele>301.25</ele><time>2026-04-29T16:07:23Z</time></trkpt><trkpt lat="44.38903458699826" lon="9.261890170719331"><ele>298.0</ele><time>2026-04-29T16:07:24Z</time></trkpt><trkpt lat="44.3890051614861" lon="9.26201249994769"><ele>298.0</ele><time>2026-04-29T16:07:25Z</time></trkpt><trkpt lat="44.388967578961946" lon="9.26211833374348"><ele>298.0</ele><time>2026-04-29T16:07:26Z</time></trkpt><trkpt lat="44.388900474494044" lon="9.262264482371274"><ele>298.0</ele><time>2026-04-29T16:07:27Z</time></trkpt><trkpt lat="44.38882384424523" lon="9.262396507858055"><ele>298.0</ele><time>2026-04-29T16:07:28Z</time></trkpt><trkpt lat="44.388739304055605" lon="9.26251997187597"><ele>298.6</ele><time>2026-04-29T16:07:29Z</time></trkpt><trkpt lat="44.38867286771957" lon="9.26264626409447"><ele>299.20000000000005</ele><time>2026-04-29T16:07:30Z</time></trkpt><trkpt lat="44.38862720903293" lon="9.262763642962604"><ele>299.8</ele><time>2026-04-29T16:07:31Z</time></trkpt><trkpt lat="44.388588751148134" lon="9.262838384975847"><ele>300.40000000000003</ele><time>2026-04-29T16:07:32Z</time></trkpt><trkpt lat="44.388515983606" lon="9.262868379226086"><ele>301.0</ele><time>2026-04-29T16:07:34Z</time></trkpt><trkpt lat="44.388428245352905" lon="9.262736082218801"><ele>301.0</ele><time>2026-04-29T16:07:36Z</time></trkpt><trkpt lat="44.38840531694744" lon="9.262625157540018"><ele>301.0</ele><time>2026-04-29T16:07:37Z</time></trkpt><trkpt lat="44.38834522535328" lon="9.26248803720256"><ele>301.0</ele><time>2026-04-29T16:07:38Z</time></trkpt><trkpt lat="44.388302295194755" lon="9.262328060447107"><ele>301.0</ele><time>2026-04-29T16:07:39Z</time></trkpt><trkpt lat="44.38824764232365" lon="9.262172710497195"><ele>301.0</ele><time>2026-04-29T16:07:40Z</time></trkpt><trkpt lat="44.388208857075206" lon="9.262022458577421"><ele>303.16666666666663</ele><time>2026-04-29T16:07:41Z</time></trkpt><trkpt lat="44.388178183089686" lon="9.261904293570257"><ele>305.3333333333333</ele><time>2026-04-29T16:07:42Z</time></trkpt><trkpt lat="44.38815998282518" lon="9.261789735806582"><ele>307.5</ele><time>2026-04-29T16:07:43Z</time></trkpt><trkpt lat="44.38816765763467" lon="9.261682536883225"><ele>309.6666666666667</ele><time>2026-04-29T16:07:44Z</time></trkpt><trkpt lat="44.38819715270109" lon="9.261592130084953"><ele>311.83333333333337</ele><time>2026-04-29T16:07:45Z</time></trkpt><trkpt lat="44.38824499684413" lon="9.261455947663698"><ele>314.0</ele><time>2026-04-29T16:07:46Z</time></trkpt><trkpt lat="44.38828632470145" lon="9.261278908332132"><ele>315.25</ele><time>2026-04-29T16:07:47Z</time></trkpt><trkpt lat="44.388311209348025" lon="9.261088519673057"><ele>316.5</ele><time>2026-04-29T16:07:48Z</time></trkpt><trkpt lat="44.388332624426994" lon="9.260912318517812"><ele>317.75</ele><time>2026-04-29T16:07:49Z</time></trkpt><trkpt lat="44.38833507360088" lon="9.26075155104032"><ele>319.0</ele><time>2026-04-29T16:07:50Z</time></trkpt><trkpt lat="44.38833813101151" lon="9.260617382812551"><ele>322.75</ele><time>2026-04-29T16:07:51Z</time></trkpt><trkpt lat="44.38832084134269" lon="9.260475694999554"><ele>326.5</ele><time>2026-04-29T16:07:52Z</time></trkpt><trkpt lat="44.38828529073848" lon="9.260338839415274"><ele>330.25</ele><time>2026-04-29T16:07:53Z</time></trkpt><trkpt lat="44.38821762460668" lon="9.260206265696423"><ele>334.0</ele><time>2026-04-29T16:07:54Z</time></trkpt><trkpt lat="44.38812888456664" lon="9.260072711706501"><ele>334.0</ele><time>2026-04-29T16:07:55Z</time></trkpt><trkpt lat="44.38803318716915" lon="9.259918976319387"><ele>334.0</ele><time>2026-04-29T16:07:56Z</time></trkpt><trkpt lat="44.38793343203969" lon="9.259769369515492"><ele>334.0</ele><time>2026-04-29T16:07:57Z</time></trkpt><trkpt lat="44.38783676024477" lon="9.259617337898373"><ele>334.0</ele><time>2026-04-29T16:07:58Z</time></trkpt><trkpt lat="44.38774124073615" lon="9.259476118564477"><ele>335.75</ele><time>2026-04-29T16:07:59Z</time></trkpt><trkpt lat="44.387638388571254" lon="9.259339539104186"><ele>337.5</ele><time>2026-04-29T16:08:00Z</time></trkpt><trkpt lat="44.387554673055746" lon="9.259220014358382"><ele>339.25</ele><time>2026-04-29T16:08:01Z</time></trkpt><trkpt lat="44.38747502848461" lon="9.259106126536794"><ele>341.0</ele><time>2026-04-29T16:08:02Z</time></trkpt><trkpt lat="44.387387012160225" lon="9.259012011811885"><ele>340.0</ele><time>2026-04-29T16:08:03Z</time></trkpt><trkpt lat="44.38727225461659" lon="9.258934144239472"><ele>339.0</ele><time>2026-04-29T16:08:04Z</time></trkpt><trkpt lat="44.38713702528349" lon="9.258880928878671"><ele>338.0</ele><time>2026-04-29T16:08:05Z</time></trkpt><trkpt lat="44.38702001022737" lon="9.258859832788476"><ele>337.0</ele><time>2026-04-29T16:08:06Z</time></trkpt><trkpt lat="44.38692157012881" lon="9.258836068035855"><ele>337.0</ele><time>2026-04-29T16:08:07Z</time></trkpt><trkpt lat="44.386835375899516" lon="9.258794032903817"><ele>337.0</ele><time>2026-04-29T16:08:08Z</time></trkpt><trkpt lat="44.38675996220614" lon="9.258753441685196"><ele>337.0</ele><time>2026-04-29T16:08:09Z</time></trkpt><trkpt lat="44.386668473832984" lon="9.258677082475181"><ele>337.0</ele><time>2026-04-29T16:08:11Z</time></trkpt><trkpt lat="44.3866584061574" lon="9.258537203143536"><ele>337.0</ele><time>2026-04-29T16:08:13Z</time></trkpt><trkpt lat="44.38668816118339" lon="9.258454543022705"><ele>337.0</ele><time>2026-04-29T16:08:14Z</time></trkpt><trkpt lat="44.38671846727362" lon="9.258351233678178"><ele>337.0</ele><time>2026-04-29T16:08:15Z</time></trkpt><trkpt lat="44.38676742873953" lon="9.258232073041217"><ele>337.0</ele><time>2026-04-29T16:08:16Z</time></trkpt><trkpt lat="44.386834359295165" lon="9.258123184473561"><ele>337.0</ele><time>2026-04-29T16:08:17Z</time></trkpt><trkpt lat="44.386886698075614" lon="9.258011209748874"><ele>337.0</ele><time>2026-04-29T16:08:18Z</time></trkpt><trkpt lat="44.38692110117602" lon="9.25789065713667"><ele>337.0</ele><time>2026-04-29T16:08:19Z</time></trkpt><trkpt lat="44.386935051564826" lon="9.257767037303449"><ele>339.5</ele><time>2026-04-29T16:08:20Z</time></trkpt><trkpt lat="44.38691583177734" lon="9.257627147025778"><ele>342.0</ele><time>2026-04-29T16:08:21Z</time></trkpt><trkpt lat="44.38686900536688" lon="9.257470405765176"><ele>344.5</ele><time>2026-04-29T16:08:22Z</time></trkpt><trkpt lat="44.38681191251424" lon="9.257308241674036"><ele>347.0</ele><time>2026-04-29T16:08:23Z</time></trkpt><trkpt lat="44.38676304242315" lon="9.25715751281905"><ele>351.40000000000003</ele><time>2026-04-29T16:08:24Z</time></trkpt><trkpt lat="44.38673260499286" lon="9.257009313220545"><ele>355.8</ele><time>2026-04-29T16:08:25Z</time></trkpt><trkpt lat="44.38671099490386" lon="9.25686103651359"><ele>360.2</ele><time>2026-04-29T16:08:26Z</time></trkpt><trkpt lat="44.38668339157011" lon="9.256735267348935"><ele>364.6</ele><time>2026-04-29T16:08:27Z</time></trkpt><trkpt lat="44.38663699728059" lon="9.256634282854527"><ele>369.0</ele><time>2026-04-29T16:08:28Z</time></trkpt><trkpt lat="44.386553667121795" lon="9.256580073584184"><ele>369.0</ele><time>2026-04-29T16:08:29Z</time></trkpt><trkpt lat="44.38644977755498" lon="9.256558761334842"><ele>369.0</ele><time>2026-04-29T16:08:30Z</time></trkpt><trkpt lat="44.386330459921695" lon="9.25655349414801"><ele>369.0</ele><time>2026-04-29T16:08:31Z</time></trkpt><trkpt lat="44.386215475217234" lon="9.256540263602847"><ele>369.0</ele><time>2026-04-29T16:08:32Z</time></trkpt><trkpt lat="44.38611578615632" lon="9.256468159394359"><ele>370.79999999999995</ele><time>2026-04-29T16:08:34Z</time></trkpt><trkpt lat="44.38608183936266" lon="9.256387770101444"><ele>372.59999999999997</ele><time>2026-04-29T16:08:35Z</time></trkpt><trkpt lat="44.386057881779564" lon="9.25626692480694"><ele>374.4</ele><time>2026-04-29T16:08:36Z</time></trkpt><trkpt lat="44.38601635260102" lon="9.256172073192383"><ele>376.2</ele><time>2026-04-29T16:08:37Z</time></trkpt><trkpt lat="44.385942025688294" lon="9.256099259938987"><ele>378.0</ele><time>2026-04-29T16:08:38Z</time></trkpt><trkpt lat="44.38581361658318" lon="9.256082021047506"><ele>378.0</ele><time>2026-04-29T16:08:39Z</time></trkpt><trkpt lat="44.3857184815131" lon="9.256043871847213"><ele>378.0</ele><time>2026-04-29T16:08:40Z</time></trkpt><trkpt lat="44.385625634996536" lon="9.255895785600309"><ele>378.0</ele><time>2026-04-29T16:08:42Z</time></trkpt><trkpt lat="44.38560176509592" lon="9.255774286433399"><ele>378.0</ele><time>2026-04-29T16:08:43Z</time></trkpt><trkpt lat="44.385595287145485" lon="9.255620320507589"><ele>378.0</ele><time>2026-04-29T16:08:44Z</time></trkpt><trkpt lat="44.385587988838616" lon="9.255456915646972"><ele>380.4</ele><time>2026-04-29T16:08:45Z</time></trkpt><trkpt lat="44.38557270124634" lon="9.255319517518783"><ele>382.79999999999995</ele><time>2026-04-29T16:08:46Z</time></trkpt><trkpt lat="44.38554069083972" lon="9.255214765902634"><ele>385.2</ele><time>2026-04-29T16:08:47Z</time></trkpt><trkpt lat="44.38546232317902" lon="9.255083778006556"><ele>387.6</ele><time>2026-04-29T16:08:49Z</time></trkpt><trkpt lat="44.3853623349852" lon="9.255059643270574"><ele>390.0</ele><time>2026-04-29T16:08:50Z</time></trkpt><trkpt lat="44.38526299441771" lon="9.255060855282835"><ele>390.0</ele><time>2026-04-29T16:08:51Z</time></trkpt><trkpt lat="44.38514660649596" lon="9.25503930638521"><ele>390.0</ele><time>2026-04-29T16:08:52Z</time></trkpt><trkpt lat="44.38503676069751" lon="9.255013510966307"><ele>390.0</ele><time>2026-04-29T16:08:53Z</time></trkpt><trkpt lat="44.38494340106668" lon="9.255006325361444"><ele>390.0</ele><time>2026-04-29T16:08:54Z</time></trkpt><trkpt lat="44.3848702386929" lon="9.254967427228543"><ele>390.0</ele><time>2026-04-29T16:08:55Z</time></trkpt><trkpt lat="44.38480889961638" lon="9.254936966774418"><ele>390.0</ele><time>2026-04-29T16:08:56Z</time></trkpt><trkpt lat="44.38475555105091" lon="9.254872557221574"><ele>390.0</ele><time>2026-04-29T16:08:57Z</time></trkpt><trkpt lat="44.384734527049865" lon="9.254776123467925"><ele>390.0</ele><time>2026-04-29T16:08:59Z</time></trkpt><trkpt lat="44.3847919364102" lon="9.254707552186717"><ele>390.0</ele><time>2026-04-29T16:09:01Z</time></trkpt><trkpt lat="44.38491968611917" lon="9.25479738252655"><ele>390.0</ele><time>2026-04-29T16:09:03Z</time></trkpt><trkpt lat="44.38499465823659" lon="9.254850026913637"><ele>390.0</ele><time>2026-04-29T16:09:04Z</time></trkpt><trkpt lat="44.38507826778708" lon="9.254882374344476"><ele>390.0</ele><time>2026-04-29T16:09:05Z</time></trkpt><trkpt lat="44.385164383299625" lon="9.254887561793268"><ele>390.0</ele><time>2026-04-29T16:09:06Z</time></trkpt><trkpt lat="44.385270484327066" lon="9.254878134905121"><ele>390.0</ele><time>2026-04-29T16:09:07Z</time></trkpt><trkpt lat="44.38538875778394" lon="9.254850155154616"><ele>390.0</ele><time>2026-04-29T16:09:08Z</time></trkpt><trkpt lat="44.38549149486551" lon="9.254831490349934"><ele>390.0</ele><time>2026-04-29T16:09:09Z</time></trkpt><trkpt lat="44.38556928527081" lon="9.254823398963577"><ele>393.0</ele><time>2026-04-29T16:09:10Z</time></trkpt><trkpt lat="44.38562970566817" lon="9.254848387548538"><ele>396.0</ele><time>2026-04-29T16:09:11Z</time></trkpt><trkpt lat="44.38569140830735" lon="9.254905484167022"><ele>399.0</ele><time>2026-04-29T16:09:12Z</time></trkpt><trkpt lat="44.385733182191245" lon="9.255041157024513"><ele>402.0</ele><time>2026-04-29T16:09:13Z</time></trkpt><trkpt lat="44.385788537560444" lon="9.255166868921847"><ele>405.0</ele><time>2026-04-29T16:09:14Z</time></trkpt><trkpt lat="44.38585345690252" lon="9.255256155904974"><ele>408.0</ele><time>2026-04-29T16:09:15Z</time></trkpt><trkpt lat="44.38590684715519" lon="9.25531624231923"><ele>408.0</ele><time>2026-04-29T16:09:16Z</time></trkpt><trkpt lat="44.38596692838201" lon="9.255368998454756"><ele>408.0</ele><time>2026-04-29T16:09:17Z</time></trkpt><trkpt lat="44.38606560123121" lon="9.2553670233963"><ele>408.0</ele><time>2026-04-29T16:09:18Z</time></trkpt><trkpt lat="44.38619523324072" lon="9.25535124452486"><ele>408.0</ele><time>2026-04-29T16:09:19Z</time></trkpt><trkpt lat="44.38627757273107" lon="9.25534268498646"><ele>408.0</ele><time>2026-04-29T16:09:20Z</time></trkpt><trkpt lat="44.386394492821054" lon="9.255380556002844"><ele>407.1666666666667</ele><time>2026-04-29T16:09:22Z</time></trkpt><trkpt lat="44.38644411898914" lon="9.255446189965072"><ele>406.33333333333337</ele><time>2026-04-29T16:09:23Z</time></trkpt><trkpt lat="44.38647624571858" lon="9.255564042160541"><ele>405.5</ele><time>2026-04-29T16:09:24Z</time></trkpt><trkpt lat="44.386506502246945" lon="9.255676258606297"><ele>404.6666666666667</ele><time>2026-04-29T16:09:25Z</time></trkpt><trkpt lat="44.386544102416735" lon="9.255760965650293"><ele>403.83333333333337</ele><time>2026-04-29T16:09:26Z</time></trkpt><trkpt lat="44.38660060721379" lon="9.25582588962619"><ele>403.0</ele><time>2026-04-29T16:09:27Z</time></trkpt><trkpt lat="44.38665954078685" lon="9.255891863291327"><ele>403.0</ele><time>2026-04-29T16:09:28Z</time></trkpt><trkpt lat="44.386763711028685" lon="9.255907365866761"><ele>403.0</ele><time>2026-04-29T16:09:29Z</time></trkpt><trkpt lat="44.386882448307055" lon="9.255873016335258"><ele>403.0</ele><time>2026-04-29T16:09:30Z</time></trkpt><trkpt lat="44.38698804708358" lon="9.255899652872015"><ele>403.0</ele><time>2026-04-29T16:09:31Z</time></trkpt><trkpt lat="44.387091348211506" lon="9.255964995915123"><ele>403.0</ele><time>2026-04-29T16:09:32Z</time></trkpt><trkpt lat="44.387191411132164" lon="9.256030540306266"><ele>403.4</ele><time>2026-04-29T16:09:33Z</time></trkpt><trkpt lat="44.38728376997611" lon="9.256111877432618"><ele>403.79999999999995</ele><time>2026-04-29T16:09:34Z</time></trkpt><trkpt lat="44.387349409838926" lon="9.256190084287987"><ele>404.2</ele><time>2026-04-29T16:09:35Z</time></trkpt><trkpt lat="44.38740677474608" lon="9.2562865357863"><ele>404.6</ele><time>2026-04-29T16:09:36Z</time></trkpt><trkpt lat="44.3874564306136" lon="9.256401664479737"><ele>405.0</ele><time>2026-04-29T16:09:37Z</time></trkpt><trkpt lat="44.387501035955985" lon="9.256522773881871"><ele>405.0</ele><time>2026-04-29T16:09:38Z</time></trkpt><trkpt lat="44.38754483260325" lon="9.256625945205503"><ele>405.0</ele><time>2026-04-29T16:09:39Z</time></trkpt><trkpt lat="44.38761427188688" lon="9.25672638611213"><ele>405.0</ele><time>2026-04-29T16:09:40Z</time></trkpt><trkpt lat="44.387723918029536" lon="9.256822271442351"><ele>405.0</ele><time>2026-04-29T16:09:41Z</time></trkpt><trkpt lat="44.38784206476327" lon="9.256903232824174"><ele>405.0</ele><time>2026-04-29T16:09:42Z</time></trkpt><trkpt lat="44.38793638645743" lon="9.256981166620253"><ele>405.0</ele><time>2026-04-29T16:09:43Z</time></trkpt><trkpt lat="44.38800460347679" lon="9.257067090037141"><ele>405.0</ele><time>2026-04-29T16:09:44Z</time></trkpt><trkpt lat="44.388049809576316" lon="9.257180000067239"><ele>405.0</ele><time>2026-04-29T16:09:45Z</time></trkpt><trkpt lat="44.388078233571065" lon="9.257314488374433"><ele>405.0</ele><time>2026-04-29T16:09:46Z</time></trkpt><trkpt lat="44.38810217963584" lon="9.257436681481717"><ele>405.0</ele><time>2026-04-29T16:09:47Z</time></trkpt><trkpt lat="44.3881290719516" lon="9.257554168029426"><ele>407.3333333333333</ele><time>2026-04-29T16:09:48Z</time></trkpt><trkpt lat="44.38817775456157" lon="9.257649141875024"><ele>409.66666666666663</ele><time>2026-04-29T16:09:49Z</time></trkpt><trkpt lat="44.38825971514667" lon="9.257699545645421"><ele>412.0</ele><time>2026-04-29T16:09:50Z</time></trkpt><trkpt lat="44.388336865921126" lon="9.25769401472243"><ele>414.3333333333333</ele><time>2026-04-29T16:09:51Z</time></trkpt><trkpt lat="44.38841019947931" lon="9.257618817784248"><ele>416.66666666666663</ele><time>2026-04-29T16:09:52Z</time></trkpt><trkpt lat="44.388472144480176" lon="9.257507046346031"><ele>419.0</ele><time>2026-04-29T16:09:53Z</time></trkpt><trkpt lat="44.38855528877024" lon="9.257372922226018"><ele>419.79999999999995</ele><time>2026-04-29T16:09:54Z</time></trkpt><trkpt lat="44.3886406305863" lon="9.25722971829344"><ele>420.59999999999997</ele><time>2026-04-29T16:09:55Z</time></trkpt><trkpt lat="44.38872288561884" lon="9.257091693993925"><ele>421.4</ele><time>2026-04-29T16:09:56Z</time></trkpt><trkpt lat="44.38879536174556" lon="9.256975610843373"><ele>422.2</ele><time>2026-04-29T16:09:57Z</time></trkpt><trkpt lat="44.38882847773343" lon="9.256882142988392"><ele>423.0</ele><time>2026-04-29T16:09:58Z</time></trkpt><trkpt lat="44.38884430487277" lon="9.256776690584449"><ele>425.59999999999997</ele><time>2026-04-29T16:09:59Z</time></trkpt><trkpt lat="44.388811491104036" lon="9.256671245009272"><ele>428.2</ele><time>2026-04-29T16:10:00Z</time></trkpt><trkpt lat="44.38873074271964" lon="9.256587007123843"><ele>430.8</ele><time>2026-04-29T16:10:01Z</time></trkpt><trkpt lat="44.388675133239204" lon="9.256490837178683"><ele>433.4</ele><time>2026-04-29T16:10:02Z</time></trkpt><trkpt lat="44.388608890163205" lon="9.256380613253173"><ele>436.0</ele><time>2026-04-29T16:10:03Z</time></trkpt><trkpt lat="44.38855702764947" lon="9.256281496555946"><ele>437.0</ele><time>2026-04-29T16:10:04Z</time></trkpt><trkpt lat="44.38851864176523" lon="9.256193091919013"><ele>438.0</ele><time>2026-04-29T16:10:05Z</time></trkpt><trkpt lat="44.38853449307099" lon="9.256083023794659"><ele>439.0</ele><time>2026-04-29T16:10:06Z</time></trkpt><trkpt lat="44.388507960198076" lon="9.255914390711354"><ele>440.0</ele><time>2026-04-29T16:10:07Z</time></trkpt><trkpt lat="44.388497433668185" lon="9.255712518093437"><ele>441.0</ele><time>2026-04-29T16:10:08Z</time></trkpt><trkpt lat="44.38845998439679" lon="9.255541355645198"><ele>441.0</ele><time>2026-04-29T16:10:09Z</time></trkpt><trkpt lat="44.38841563106101" lon="9.2554171962079"><ele>441.0</ele><time>2026-04-29T16:10:10Z</time></trkpt><trkpt lat="44.38835825073152" lon="9.255309314372889"><ele>441.0</ele><time>2026-04-29T16:10:11Z</time></trkpt><trkpt lat="44.388343422270935" lon="9.255209283991535"><ele>441.0</ele><time>2026-04-29T16:10:12Z</time></trkpt><trkpt lat="44.388232540070476" lon="9.255109802955868"><ele>441.0</ele><time>2026-04-29T16:10:14Z</time></trkpt><trkpt lat="44.38814647715654" lon="9.255090303077"><ele>441.0</ele><time>2026-04-29T16:10:15Z</time></trkpt><trkpt lat="44.38804407068218" lon="9.255096154809298"><ele>441.0</ele><time>2026-04-29T16:10:16Z</time></trkpt><trkpt lat="44.387897908193665" lon="9.255108336809299"><ele>441.0</ele><time>2026-04-29T16:10:17Z</time></trkpt><trkpt lat="44.3877604641167" lon="9.255083545243327"><ele>441.0</ele><time>2026-04-29T16:10:18Z</time></trkpt><trkpt lat="44.38765430449532" lon="9.255056194647327"><ele>441.25</ele><time>2026-04-29T16:10:19Z</time></trkpt><trkpt lat="44.3875513223115" lon="9.254985366898225"><ele>441.5</ele><time>2026-04-29T16:10:20Z</time></trkpt><trkpt lat="44.38743236385952" lon="9.254891823715896"><ele>441.75</ele><time>2026-04-29T16:10:21Z</time></trkpt><trkpt lat="44.38729994328469" lon="9.254812073791628"><ele>442.0</ele><time>2026-04-29T16:10:22Z</time></trkpt><trkpt lat="44.38719374924701" lon="9.254714115992728"><ele>447.20000000000005</ele><time>2026-04-29T16:10:23Z</time></trkpt><trkpt lat="44.387081564349906" lon="9.25462751727662"><ele>452.40000000000003</ele><time>2026-04-29T16:10:24Z</time></trkpt><trkpt lat="44.386989620709365" lon="9.254554205105421"><ele>457.59999999999997</ele><time>2026-04-29T16:10:25Z</time></trkpt><trkpt lat="44.386907253707236" lon="9.254472182235942"><ele>462.79999999999995</ele><time>2026-04-29T16:10:26Z</time></trkpt><trkpt lat="44.38683283935457" lon="9.254379127643432"><ele>468.0</ele><time>2026-04-29T16:10:27Z</time></trkpt><trkpt lat="44.38675068586265" lon="9.2542803122242"><ele>468.0</ele><time>2026-04-29T16:10:28Z</time></trkpt><trkpt lat="44.38665250085428" lon="9.254201041950353"><ele>467.99999999999994</ele><time>2026-04-29T16:10:29Z</time></trkpt><trkpt lat="44.386535863952204" lon="9.254137117821319"><ele>467.99999999999994</ele><time>2026-04-29T16:10:30Z</time></trkpt><trkpt lat="44.386433628292096" lon="9.254103786198801"><ele>468.0</ele><time>2026-04-29T16:10:31Z</time></trkpt><trkpt lat="44.38635406618816" lon="9.254011539322372"><ele>468.0</ele><time>2026-04-29T16:10:32Z</time></trkpt><trkpt lat="44.38628013077408" lon="9.253944036777936"><ele>470.75</ele><time>2026-04-29T16:10:33Z</time></trkpt><trkpt lat="44.38619783530796" lon="9.253814578755694"><ele>473.5</ele><time>2026-04-29T16:10:34Z</time></trkpt><trkpt lat="44.38610240797158" lon="9.253683098001705"><ele>476.25</ele><time>2026-04-29T16:10:35Z</time></trkpt><trkpt lat="44.38602679964634" lon="9.253594499407141"><ele>479.0</ele><time>2026-04-29T16:10:36Z</time></trkpt><trkpt lat="44.38594856893928" lon="9.253501119180049"><ele>479.0</ele><time>2026-04-29T16:10:37Z</time></trkpt><trkpt lat="44.38588446346371" lon="9.253416980916295"><ele>479.0</ele><time>2026-04-29T16:10:38Z</time></trkpt><trkpt lat="44.38582870102132" lon="9.253276036352082"><ele>479.0</ele><time>2026-04-29T16:10:39Z</time></trkpt><trkpt lat="44.38577914368159" lon="9.253118891093353"><ele>479.0</ele><time>2026-04-29T16:10:40Z</time></trkpt><trkpt lat="44.38573007584232" lon="9.252953506398498"><ele>482.25</ele><time>2026-04-29T16:10:41Z</time></trkpt><trkpt lat="44.385680232694185" lon="9.252792046082366"><ele>485.5</ele><time>2026-04-29T16:10:42Z</time></trkpt><trkpt lat="44.38565178013638" lon="9.252643171688629"><ele>488.75</ele><time>2026-04-29T16:10:43Z</time></trkpt><trkpt lat="44.385656174327615" lon="9.25249395934999"><ele>492.0</ele><time>2026-04-29T16:10:44Z</time></trkpt><trkpt lat="44.38564488705628" lon="9.252344910665977"><ele>492.75</ele><time>2026-04-29T16:10:45Z</time></trkpt><trkpt lat="44.385602890288354" lon="9.252218791680678"><ele>493.5</ele><time>2026-04-29T16:10:46Z</time></trkpt><trkpt lat="44.385529103195026" lon="9.252081858097029"><ele>494.25</ele><time>2026-04-29T16:10:47Z</time></trkpt><trkpt lat="44.38541360975857" lon="9.25195153929582"><ele>495.0</ele><time>2026-04-29T16:10:48Z</time></trkpt><trkpt lat="44.385300321606536" lon="9.251832126388452"><ele>495.0</ele><time>2026-04-29T16:10:49Z</time></trkpt><trkpt lat="44.3852014022425" lon="9.251719084925924"><ele>495.0</ele><time>2026-04-29T16:10:50Z</time></trkpt><trkpt lat="44.385084477070734" lon="9.25162385452949"><ele>495.0</ele><time>2026-04-29T16:10:51Z</time></trkpt><trkpt lat="44.38499070841029" lon="9.251547438491684"><ele>495.0</ele><time>2026-04-29T16:10:52Z</time></trkpt><trkpt lat="44.38491909622176" lon="9.251496323837868"><ele>495.6</ele><time>2026-04-29T16:10:53Z</time></trkpt><trkpt lat="44.384857464008164" lon="9.251422550748766"><ele>496.2</ele><time>2026-04-29T16:10:54Z</time></trkpt><trkpt lat="44.38480691499198" lon="9.251306736880691"><ele>496.79999999999995</ele><time>2026-04-29T16:10:55Z</time></trkpt><trkpt lat="44.384762123343926" lon="9.251156331914768"><ele>497.4</ele><time>2026-04-29T16:10:56Z</time></trkpt><trkpt lat="44.38470698425257" lon="9.250992334083199"><ele>498.0</ele><time>2026-04-29T16:10:57Z</time></trkpt><trkpt lat="44.384630874828765" lon="9.250822655489378"><ele>498.0</ele><time>2026-04-29T16:10:58Z</time></trkpt><trkpt lat="44.38453700363565" lon="9.250664878095295"><ele>498.0</ele><time>2026-04-29T16:10:59Z</time></trkpt><trkpt lat="44.38445513750367" lon="9.250505392229813"><ele>498.0</ele><time>2026-04-29T16:11:00Z</time></trkpt><trkpt lat="44.38436514551749" lon="9.250379679065386"><ele>498.0</ele><time>2026-04-29T16:11:01Z</time></trkpt><trkpt lat="44.384265477857745" lon="9.250264352194385"><ele>505.0</ele><time>2026-04-29T16:11:02Z</time></trkpt><trkpt lat="44.38414649361164" lon="9.250154912245847"><ele>512.0</ele><time>2026-04-29T16:11:03Z</time></trkpt><trkpt lat="44.38402953732323" lon="9.250082420915131"><ele>519.0</ele><time>2026-04-29T16:11:04Z</time></trkpt><trkpt lat="44.38393421671738" lon="9.250010382728068"><ele>526.0</ele><time>2026-04-29T16:11:05Z</time></trkpt><trkpt lat="44.38385214503775" lon="9.249962641516532"><ele>526.0</ele><time>2026-04-29T16:11:06Z</time></trkpt><trkpt lat="44.38377830399981" lon="9.249932078830017"><ele>526.0</ele><time>2026-04-29T16:11:07Z</time></trkpt><trkpt lat="44.383718242104116" lon="9.249905428126816"><ele>526.0</ele><time>2026-04-29T16:11:08Z</time></trkpt><trkpt lat="44.38366405960225" lon="9.24985494293802"><ele>526.0</ele><time>2026-04-29T16:11:10Z</time></trkpt><trkpt lat="44.383689234309635" lon="9.249739780695148"><ele>526.0</ele><time>2026-04-29T16:11:13Z</time></trkpt><trkpt lat="44.38379567324352" lon="9.249819900868465"><ele>526.0</ele><time>2026-04-29T16:11:15Z</time></trkpt><trkpt lat="44.38389439691542" lon="9.24987348799278"><ele>526.0</ele><time>2026-04-29T16:11:16Z</time></trkpt><trkpt lat="44.383998140456924" lon="9.249893982927984"><ele>526.0</ele><time>2026-04-29T16:11:17Z</time></trkpt><trkpt lat="44.38409528939569" lon="9.24993989444183"><ele>526.0</ele><time>2026-04-29T16:11:18Z</time></trkpt><trkpt lat="44.3841989316756" lon="9.249952269714289"><ele>526.0</ele><time>2026-04-29T16:11:19Z</time></trkpt><trkpt lat="44.384296178207165" lon="9.249996076681645"><ele>526.0</ele><time>2026-04-29T16:11:20Z</time></trkpt><trkpt lat="44.38436605868422" lon="9.25002081210297"><ele>526.0</ele><time>2026-04-29T16:11:21Z</time></trkpt><trkpt lat="44.38446856149128" lon="9.249981996901075"><ele>526.0</ele><time>2026-04-29T16:11:22Z</time></trkpt><trkpt lat="44.38450743832753" lon="9.249823791857919"><ele>526.0</ele><time>2026-04-29T16:11:24Z</time></trkpt><trkpt lat="44.384492898670395" lon="9.249723214726286"><ele>526.0</ele><time>2026-04-29T16:11:25Z</time></trkpt><trkpt lat="44.38446092233103" lon="9.249601411400622"><ele>526.0</ele><time>2026-04-29T16:11:26Z</time></trkpt><trkpt lat="44.38442125991743" lon="9.249432424912358"><ele>531.0</ele><time>2026-04-29T16:11:27Z</time></trkpt><trkpt lat="44.38438523292662" lon="9.24923073789332"><ele>536.0</ele><time>2026-04-29T16:11:28Z</time></trkpt><trkpt lat="44.384367433144355" lon="9.249023430889297"><ele>541.0</ele><time>2026-04-29T16:11:29Z</time></trkpt><trkpt lat="44.38433408182485" lon="9.248860742356824"><ele>546.0</ele><time>2026-04-29T16:11:30Z</time></trkpt><trkpt lat="44.38432463835864" lon="9.24866884356248"><ele>549.25</ele><time>2026-04-29T16:11:31Z</time></trkpt><trkpt lat="44.38429521816504" lon="9.248468319765587"><ele>552.5</ele><time>2026-04-29T16:11:32Z</time></trkpt><trkpt lat="44.384280931707586" lon="9.248289302936954"><ele>555.75</ele><time>2026-04-29T16:11:33Z</time></trkpt><trkpt lat="44.384268780001015" lon="9.248145822505862"><ele>559.0</ele><time>2026-04-29T16:11:34Z</time></trkpt><trkpt lat="44.38424681770232" lon="9.24798819627312"><ele>562.0</ele><time>2026-04-29T16:11:35Z</time></trkpt><trkpt lat="44.38426725881063" lon="9.247836970547093"><ele>565.0</ele><time>2026-04-29T16:11:36Z</time></trkpt><trkpt lat="44.38431717979367" lon="9.247660993477238"><ele>568.0</ele><time>2026-04-29T16:11:37Z</time></trkpt><trkpt lat="44.38435885524068" lon="9.247489655296295"><ele>571.0</ele><time>2026-04-29T16:11:38Z</time></trkpt><trkpt lat="44.38440209915479" lon="9.24731612729133"><ele>576.4</ele><time>2026-04-29T16:11:39Z</time></trkpt><trkpt lat="44.38442349416128" lon="9.247189789886232"><ele>581.8</ele><time>2026-04-29T16:11:40Z</time></trkpt><trkpt lat="44.38443048366386" lon="9.247079908880387"><ele>587.1999999999999</ele><time>2026-04-29T16:11:41Z</time></trkpt><trkpt lat="44.38447618885902" lon="9.246963219958317"><ele>592.6</ele><time>2026-04-29T16:11:42Z</time></trkpt><trkpt lat="44.38454359432126" lon="9.246861315618032"><ele>598.0</ele><time>2026-04-29T16:11:43Z</time></trkpt><trkpt lat="44.38463418669303" lon="9.246833539616196"><ele>590.3333333333334</ele><time>2026-04-29T16:11:44Z</time></trkpt><trkpt lat="44.384704974099236" lon="9.246767846845113"><ele>582.6666666666667</ele><time>2026-04-29T16:11:45Z</time></trkpt><trkpt lat="44.38477215304343" lon="9.246708542046608"><ele>575.0</ele><time>2026-04-29T16:11:46Z</time></trkpt><trkpt lat="44.384815149411146" lon="9.24660506523163"><ele>567.3333333333334</ele><time>2026-04-29T16:11:47Z</time></trkpt><trkpt lat="44.384846540087274" lon="9.246483283621387"><ele>559.6666666666666</ele><time>2026-04-29T16:11:48Z</time></trkpt><trkpt lat="44.38484122891071" lon="9.246344327231109"><ele>552.0</ele><time>2026-04-29T16:11:49Z</time></trkpt><trkpt lat="44.384836292851865" lon="9.246167330857872"><ele>552.0</ele><time>2026-04-29T16:11:50Z</time></trkpt><trkpt lat="44.38482878207114" lon="9.246036866805058"><ele>552.0</ele><time>2026-04-29T16:11:51Z</time></trkpt><trkpt lat="44.38482111310748" lon="9.245925787805907"><ele>552.0</ele><time>2026-04-29T16:11:52Z</time></trkpt><trkpt lat="44.38480460543777" lon="9.245814036635148"><ele>552.0</ele><time>2026-04-29T16:11:53Z</time></trkpt><trkpt lat="44.384754706087335" lon="9.245701632944947"><ele>552.0</ele><time>2026-04-29T16:11:54Z</time></trkpt><trkpt lat="44.384682681758" lon="9.245591053678206"><ele>565.75</ele><time>2026-04-29T16:11:55Z</time></trkpt><trkpt lat="44.38461521931796" lon="9.24548406335237"><ele>579.5</ele><time>2026-04-29T16:11:56Z</time></trkpt><trkpt lat="44.38458167871268" lon="9.245369002769076"><ele>593.25</ele><time>2026-04-29T16:11:57Z</time></trkpt><trkpt lat="44.38456844443234" lon="9.245198501892036"><ele>607.0</ele><time>2026-04-29T16:11:58Z</time></trkpt><trkpt lat="44.384542274459484" lon="9.244948633496183"><ele>606.6</ele><time>2026-04-29T16:11:59Z</time></trkpt><trkpt lat="44.38454284719209" lon="9.24477244054198"><ele>606.2</ele><time>2026-04-29T16:12:00Z</time></trkpt><trkpt lat="44.384543282887144" lon="9.24464147163746"><ele>605.8</ele><time>2026-04-29T16:12:01Z</time></trkpt><trkpt lat="44.38456331200898" lon="9.244505835521947"><ele>605.4</ele><time>2026-04-29T16:12:02Z</time></trkpt><trkpt lat="44.38462915794959" lon="9.244380838106265"><ele>605.0</ele><time>2026-04-29T16:12:03Z</time></trkpt><trkpt lat="44.38467178550367" lon="9.244234670804646"><ele>599.6</ele><time>2026-04-29T16:12:04Z</time></trkpt><trkpt lat="44.38472918146164" lon="9.244090844142807"><ele>594.2</ele><time>2026-04-29T16:12:05Z</time></trkpt><trkpt lat="44.38481137296567" lon="9.243974095693082"><ele>588.8</ele><time>2026-04-29T16:12:06Z</time></trkpt><trkpt lat="44.38486267164016" lon="9.243864089731732"><ele>583.4</ele><time>2026-04-29T16:12:07Z</time></trkpt><trkpt lat="44.384911408663214" lon="9.243721053606894"><ele>578.0</ele><time>2026-04-29T16:12:08Z</time></trkpt><trkpt lat="44.384875446340565" lon="9.243610683228171"><ele>578.0</ele><time>2026-04-29T16:12:09Z</time></trkpt><trkpt lat="44.384894351636504" lon="9.243496606427469"><ele>578.0</ele><time>2026-04-29T16:12:10Z</time></trkpt><trkpt lat="44.38480636063208" lon="9.243345455505022"><ele>578.0</ele><time>2026-04-29T16:12:11Z</time></trkpt><trkpt lat="44.38476305394286" lon="9.24316657958204"><ele>578.0</ele><time>2026-04-29T16:12:12Z</time></trkpt><trkpt lat="44.384716477098955" lon="9.242981622742606"><ele>577.8333333333333</ele><time>2026-04-29T16:12:13Z</time></trkpt><trkpt lat="44.38467777290033" lon="9.242819273894602"><ele>577.6666666666666</ele><time>2026-04-29T16:12:14Z</time></trkpt><trkpt lat="44.38467330859416" lon="9.242677579611929"><ele>577.5</ele><time>2026-04-29T16:12:15Z</time></trkpt><trkpt lat="44.38467328590513" lon="9.242551991951569"><ele>577.3333333333334</ele><time>2026-04-29T16:12:16Z</time></trkpt><trkpt lat="44.38466579609514" lon="9.24246002061817"><ele>577.1666666666667</ele><time>2026-04-29T16:12:17Z</time></trkpt><trkpt lat="44.38466482767838" lon="9.242365763776698"><ele>577.0</ele><time>2026-04-29T16:12:18Z</time></trkpt><trkpt lat="44.38462839789984" lon="9.242244324520643"><ele>577.0</ele><time>2026-04-29T16:12:20Z</time></trkpt><trkpt lat="44.384536807929365" lon="9.242207299402832"><ele>577.0</ele><time>2026-04-29T16:12:22Z</time></trkpt><trkpt lat="44.38445067238344" lon="9.242362616341657"><ele>577.0</ele><time>2026-04-29T16:12:24Z</time></trkpt><trkpt lat="44.38441239916764" lon="9.24246893081114"><ele>577.0</ele><time>2026-04-29T16:12:25Z</time></trkpt><trkpt lat="44.38435251960305" lon="9.242600661783737"><ele>577.0</ele><time>2026-04-29T16:12:26Z</time></trkpt><trkpt lat="44.38430894646544" lon="9.242730753943992"><ele>577.6666666666667</ele><time>2026-04-29T16:12:27Z</time></trkpt><trkpt lat="44.38425792140418" lon="9.242831801004932"><ele>578.3333333333334</ele><time>2026-04-29T16:12:28Z</time></trkpt><trkpt lat="44.38420234734127" lon="9.24293576736946"><ele>579.0</ele><time>2026-04-29T16:12:29Z</time></trkpt><trkpt lat="44.38413274067339" lon="9.243009535280777"><ele>579.6666666666666</ele><time>2026-04-29T16:12:30Z</time></trkpt><trkpt lat="44.384064455012854" lon="9.243074733794032"><ele>580.3333333333333</ele><time>2026-04-29T16:12:31Z</time></trkpt><trkpt lat="44.3840052546379" lon="9.243158343961644"><ele>581.0</ele><time>2026-04-29T16:12:32Z</time></trkpt><trkpt lat="44.38393175642499" lon="9.243211401077337"><ele>583.8</ele><time>2026-04-29T16:12:33Z</time></trkpt><trkpt lat="44.38387229668886" lon="9.243268036958884"><ele>586.6</ele><time>2026-04-29T16:12:34Z</time></trkpt><trkpt lat="44.38380994517534" lon="9.243382378940893"><ele>589.4</ele><time>2026-04-29T16:12:36Z</time></trkpt><trkpt lat="44.383727874229926" lon="9.243497022543671"><ele>592.2</ele><time>2026-04-29T16:14:28Z</time></trkpt><trkpt lat="44.383698629744785" lon="9.243595391416621"><ele>595.0</ele><time>2026-04-29T16:14:29Z</time></trkpt><trkpt lat="44.383682139490254" lon="9.243715261799652"><ele>589.0</ele><time>2026-04-29T16:14:30Z</time></trkpt><trkpt lat="44.38366384286868" lon="9.243846298783266"><ele>583.0</ele><time>2026-04-29T16:14:31Z</time></trkpt><trkpt lat="44.38364609272471" lon="9.243977176613505"><ele>577.0</ele><time>2026-04-29T16:14:32Z</time></trkpt><trkpt lat="44.383626209252085" lon="9.244097878050766"><ele>571.0</ele><time>2026-04-29T16:14:33Z</time></trkpt><trkpt lat="44.38360042880001" lon="9.24420106466744"><ele>565.0</ele><time>2026-04-29T16:14:34Z</time></trkpt><trkpt lat="44.3835687275362" lon="9.244326798641232"><ele>565.0</ele><time>2026-04-29T16:14:35Z</time></trkpt><trkpt lat="44.38354277950083" lon="9.244446069706683"><ele>565.0</ele><time>2026-04-29T16:14:36Z</time></trkpt><trkpt lat="44.38351431962915" lon="9.244567696540754"><ele>565.0</ele><time>2026-04-29T16:14:37Z</time></trkpt><trkpt lat="44.38346130641213" lon="9.244676315853956"><ele>565.0</ele><time>2026-04-29T16:14:38Z</time></trkpt><trkpt lat="44.383411663598935" lon="9.244787414545936"><ele>565.0</ele><time>2026-04-29T16:14:39Z</time></trkpt><trkpt lat="44.383344329835296" lon="9.244892147127544"><ele>567.0</ele><time>2026-04-29T16:14:40Z</time></trkpt><trkpt lat="44.38328179531861" lon="9.244991187772058"><ele>569.0</ele><time>2026-04-29T16:14:41Z</time></trkpt><trkpt lat="44.38325584575002" lon="9.245093593182519"><ele>571.0</ele><time>2026-04-29T16:14:42Z</time></trkpt><trkpt lat="44.38322801893419" lon="9.24520127070507"><ele>573.0</ele><time>2026-04-29T16:14:43Z</time></trkpt><trkpt lat="44.38318485324603" lon="9.245306522896106"><ele>575.0</ele><time>2026-04-29T16:14:44Z</time></trkpt><trkpt lat="44.38310386324811" lon="9.245384011457663"><ele>577.0</ele><time>2026-04-29T16:14:45Z</time></trkpt><trkpt lat="44.38303064178479" lon="9.24548339730135"><ele>573.4</ele><time>2026-04-29T16:14:46Z</time></trkpt><trkpt lat="44.382964715684146" lon="9.245593950704714"><ele>569.8000000000001</ele><time>2026-04-29T16:14:47Z</time></trkpt><trkpt lat="44.38290726146739" lon="9.245712649554427"><ele>566.2</ele><time>2026-04-29T16:14:48Z</time></trkpt><trkpt lat="44.382846057985105" lon="9.245824269258748"><ele>562.6</ele><time>2026-04-29T16:14:49Z</time></trkpt><trkpt lat="44.38275690238836" lon="9.245918403403698"><ele>559.0</ele><time>2026-04-29T16:14:50Z</time></trkpt><trkpt lat="44.382660429762474" lon="9.245993165812585"><ele>559.0</ele><time>2026-04-29T16:14:51Z</time></trkpt><trkpt lat="44.38256950273708" lon="9.246058657291632"><ele>559.0</ele><time>2026-04-29T16:14:52Z</time></trkpt><trkpt lat="44.382485571156565" lon="9.246133098667912"><ele>559.0</ele><time>2026-04-29T16:14:53Z</time></trkpt><trkpt lat="44.38241069482061" lon="9.246193859565592"><ele>559.0</ele><time>2026-04-29T16:14:54Z</time></trkpt><trkpt lat="44.382325762464745" lon="9.246237288820067"><ele>559.0</ele><time>2026-04-29T16:14:55Z</time></trkpt><trkpt lat="44.38224918501024" lon="9.246276914634823"><ele>554.8333333333334</ele><time>2026-04-29T16:14:56Z</time></trkpt><trkpt lat="44.38217033446381" lon="9.246276556873635"><ele>550.6666666666667</ele><time>2026-04-29T16:14:57Z</time></trkpt><trkpt lat="44.38208172308932" lon="9.246270663906342"><ele>546.5</ele><time>2026-04-29T16:14:58Z</time></trkpt><trkpt lat="44.38200452539661" lon="9.246278887935453"><ele>542.3333333333334</ele><time>2026-04-29T16:14:59Z</time></trkpt><trkpt lat="44.38191769785811" lon="9.246288891535148"><ele>538.1666666666666</ele><time>2026-04-29T16:15:00Z</time></trkpt><trkpt lat="44.3818215018641" lon="9.246296487923395"><ele>534.0</ele><time>2026-04-29T16:15:01Z</time></trkpt><trkpt lat="44.38174527517076" lon="9.246272360856707"><ele>534.0</ele><time>2026-04-29T16:15:02Z</time></trkpt><trkpt lat="44.381680437118526" lon="9.2462633501834"><ele>534.0</ele><time>2026-04-29T16:15:03Z</time></trkpt><trkpt lat="44.381563710055836" lon="9.246329969930901"><ele>534.0</ele><time>2026-04-29T16:15:05Z</time></trkpt><trkpt lat="44.38151449871614" lon="9.24641125054604"><ele>534.0</ele><time>2026-04-29T16:15:06Z</time></trkpt><trkpt lat="44.38147219827206" lon="9.24653030388735"><ele>534.0</ele><time>2026-04-29T16:15:07Z</time></trkpt><trkpt lat="44.38141680931889" lon="9.246642703952393"><ele>533.0</ele><time>2026-04-29T16:15:08Z</time></trkpt><trkpt lat="44.3813857078706" lon="9.24677344195979"><ele>532.0</ele><time>2026-04-29T16:15:09Z</time></trkpt><trkpt lat="44.381332123214165" lon="9.246890807133685"><ele>531.0</ele><time>2026-04-29T16:15:10Z</time></trkpt><trkpt lat="44.38127121432295" lon="9.246989925708146"><ele>530.0</ele><time>2026-04-29T16:15:11Z</time></trkpt><trkpt lat="44.38121118009006" lon="9.24709146112489"><ele>529.0</ele><time>2026-04-29T16:15:12Z</time></trkpt><trkpt lat="44.38114621859731" lon="9.247186249521382"><ele>529.0</ele><time>2026-04-29T16:15:13Z</time></trkpt><trkpt lat="44.38106847176144" lon="9.247250614694986"><ele>529.0</ele><time>2026-04-29T16:15:14Z</time></trkpt><trkpt lat="44.380998490034806" lon="9.247324046173409"><ele>529.0</ele><time>2026-04-29T16:15:15Z</time></trkpt><trkpt lat="44.38093311742019" lon="9.247415719095503"><ele>529.0</ele><time>2026-04-29T16:15:16Z</time></trkpt><trkpt lat="44.38086529575748" lon="9.247511689437287"><ele>529.0</ele><time>2026-04-29T16:15:17Z</time></trkpt><trkpt lat="44.38079685495607" lon="9.247588031305327"><ele>528.2</ele><time>2026-04-29T16:15:18Z</time></trkpt><trkpt lat="44.38072325438412" lon="9.24765884849227"><ele>527.4</ele><time>2026-04-29T16:15:19Z</time></trkpt><trkpt lat="44.38064283886321" lon="9.247724214818646"><ele>526.6</ele><time>2026-04-29T16:15:20Z</time></trkpt><trkpt lat="44.38055035547939" lon="9.247789453024534"><ele>525.8</ele><time>2026-04-29T16:15:21Z</time></trkpt><trkpt lat="44.38045885737577" lon="9.247864709991621"><ele>525.0</ele><time>2026-04-29T16:15:22Z</time></trkpt><trkpt lat="44.380360863190724" lon="9.247937133483585"><ele>525.0</ele><time>2026-04-29T16:15:23Z</time></trkpt><trkpt lat="44.38027734878362" lon="9.247983929560895"><ele>525.0</ele><time>2026-04-29T16:15:24Z</time></trkpt><trkpt lat="44.380207846868444" lon="9.248019427293126"><ele>525.0</ele><time>2026-04-29T16:15:25Z</time></trkpt><trkpt lat="44.38014103261153" lon="9.248039634720293"><ele>525.0</ele><time>2026-04-29T16:15:26Z</time></trkpt><trkpt lat="44.38004585076126" lon="9.24805462614516"><ele>525.0</ele><time>2026-04-29T16:15:28Z</time></trkpt><trkpt lat="44.37998521620632" lon="9.247988045019174"><ele>525.0</ele><time>2026-04-29T16:15:30Z</time></trkpt><trkpt lat="44.38004050420704" lon="9.247899539387891"><ele>525.0</ele><time>2026-04-29T16:15:32Z</time></trkpt><trkpt lat="44.380142415539375" lon="9.247949886231213"><ele>525.0</ele><time>2026-04-29T16:15:34Z</time></trkpt><trkpt lat="44.38020901608039" lon="9.247931292329177"><ele>525.0</ele><time>2026-04-29T16:15:35Z</time></trkpt><trkpt lat="44.38027521598303" lon="9.247890055298587"><ele>525.0</ele><time>2026-04-29T16:15:36Z</time></trkpt><trkpt lat="44.38033953743673" lon="9.24782480197261"><ele>525.0</ele><time>2026-04-29T16:15:37Z</time></trkpt><trkpt lat="44.38039311222615" lon="9.247731437740724"><ele>525.0</ele><time>2026-04-29T16:15:38Z</time></trkpt><trkpt lat="44.380438104222534" lon="9.247633187121084"><ele>525.0</ele><time>2026-04-29T16:15:39Z</time></trkpt><trkpt lat="44.380452036666284" lon="9.24750647193539"><ele>525.0</ele><time>2026-04-29T16:15:40Z</time></trkpt><trkpt lat="44.38046738652423" lon="9.247403469414943"><ele>525.0</ele><time>2026-04-29T16:15:41Z</time></trkpt><trkpt lat="44.38054522235438" lon="9.247293643691512"><ele>525.0</ele><time>2026-04-29T16:15:43Z</time></trkpt><trkpt lat="44.38062126176342" lon="9.24721831591023"><ele>525.0</ele><time>2026-04-29T16:15:44Z</time></trkpt><trkpt lat="44.380680954633114" lon="9.247112679985044"><ele>525.6666666666666</ele><time>2026-04-29T16:15:45Z</time></trkpt><trkpt lat="44.38072913427169" lon="9.24700776445835"><ele>526.3333333333334</ele><time>2026-04-29T16:15:46Z</time></trkpt><trkpt lat="44.380773353892124" lon="9.246906456532347"><ele>527.0</ele><time>2026-04-29T16:15:47Z</time></trkpt><trkpt lat="44.38081370741486" lon="9.24680401794856"><ele>527.6666666666667</ele><time>2026-04-29T16:15:48Z</time></trkpt><trkpt lat="44.38087039227404" lon="9.24671929384189"><ele>528.3333333333334</ele><time>2026-04-29T16:15:49Z</time></trkpt><trkpt lat="44.38092369083819" lon="9.24662563479695"><ele>529.0</ele><time>2026-04-29T16:15:50Z</time></trkpt><trkpt lat="44.380949901705456" lon="9.246515295626805"><ele>525.3333333333334</ele><time>2026-04-29T16:15:51Z</time></trkpt><trkpt lat="44.380964454437525" lon="9.246392333840895"><ele>521.6666666666667</ele><time>2026-04-29T16:15:52Z</time></trkpt><trkpt lat="44.380959149581024" lon="9.246260893319873"><ele>518.0</ele><time>2026-04-29T16:15:53Z</time></trkpt><trkpt lat="44.38096588517171" lon="9.246160904793788"><ele>514.3333333333334</ele><time>2026-04-29T16:15:54Z</time></trkpt><trkpt lat="44.38097719174493" lon="9.24605670568654"><ele>510.6666666666667</ele><time>2026-04-29T16:15:55Z</time></trkpt><trkpt lat="44.380989151504785" lon="9.245937677752556"><ele>507.0</ele><time>2026-04-29T16:15:56Z</time></trkpt><trkpt lat="44.381036002866615" lon="9.24581982084146"><ele>507.0</ele><time>2026-04-29T16:15:57Z</time></trkpt><trkpt lat="44.38108131374769" lon="9.245694991044555"><ele>507.0</ele><time>2026-04-29T16:15:58Z</time></trkpt><trkpt lat="44.38112662604515" lon="9.245575842085678"><ele>507.0</ele><time>2026-04-29T16:15:59Z</time></trkpt><trkpt lat="44.38116904624738" lon="9.245467826512634"><ele>507.0</ele><time>2026-04-29T16:16:00Z</time></trkpt><trkpt lat="44.381209818892586" lon="9.245384358188304"><ele>507.0</ele><time>2026-04-29T16:16:01Z</time></trkpt><trkpt lat="44.38126696740237" lon="9.245304954128843"><ele>507.0</ele><time>2026-04-29T16:16:02Z</time></trkpt><trkpt lat="44.381334102443496" lon="9.245230506817409"><ele>508.1666666666667</ele><time>2026-04-29T16:16:03Z</time></trkpt><trkpt lat="44.38140295688808" lon="9.245158708212097"><ele>509.33333333333337</ele><time>2026-04-29T16:16:04Z</time></trkpt><trkpt lat="44.38146419876716" lon="9.245095844059493"><ele>510.5</ele><time>2026-04-29T16:16:05Z</time></trkpt><trkpt lat="44.38153341354612" lon="9.245039360369635"><ele>511.6666666666667</ele><time>2026-04-29T16:16:06Z</time></trkpt><trkpt lat="44.38161996986013" lon="9.245004250244257"><ele>512.8333333333334</ele><time>2026-04-29T16:16:07Z</time></trkpt><trkpt lat="44.38171091864895" lon="9.245021184757404"><ele>514.0</ele><time>2026-04-29T16:16:08Z</time></trkpt><trkpt lat="44.38179122599469" lon="9.244972690634812"><ele>514.0</ele><time>2026-04-29T16:16:09Z</time></trkpt><trkpt lat="44.381862315978594" lon="9.24491436035945"><ele>514.0</ele><time>2026-04-29T16:16:10Z</time></trkpt><trkpt lat="44.38194339243037" lon="9.244870266109587"><ele>514.0</ele><time>2026-04-29T16:16:11Z</time></trkpt><trkpt lat="44.38201625135579" lon="9.244787124250125"><ele>514.0</ele><time>2026-04-29T16:16:12Z</time></trkpt><trkpt lat="44.38210267925469" lon="9.244735050625124"><ele>514.0</ele><time>2026-04-29T16:16:13Z</time></trkpt><trkpt lat="44.38218003520315" lon="9.244678976512018"><ele>514.0</ele><time>2026-04-29T16:16:14Z</time></trkpt><trkpt lat="44.38224738120898" lon="9.244609755638132"><ele>515.0</ele><time>2026-04-29T16:16:15Z</time></trkpt><trkpt lat="44.382302984730735" lon="9.24451801710602"><ele>516.0</ele><time>2026-04-29T16:16:16Z</time></trkpt><trkpt lat="44.38235602159497" lon="9.244429207550098"><ele>517.0</ele><time>2026-04-29T16:16:17Z</time></trkpt><trkpt lat="44.382392238708704" lon="9.244321416011886"><ele>518.0</ele><time>2026-04-29T16:16:18Z</time></trkpt><trkpt lat="44.382429101224474" lon="9.24421879114781"><ele>519.0</ele><time>2026-04-29T16:16:19Z</time></trkpt><trkpt lat="44.38241943701044" lon="9.24408674949133"><ele>520.0</ele><time>2026-04-29T16:16:20Z</time></trkpt><trkpt lat="44.38242147581197" lon="9.243948600901328"><ele>516.8</ele><time>2026-04-29T16:16:21Z</time></trkpt><trkpt lat="44.38242102503822" lon="9.243791780539546"><ele>513.6</ele><time>2026-04-29T16:16:22Z</time></trkpt><trkpt lat="44.3824286003179" lon="9.243630137691378"><ele>510.4</ele><time>2026-04-29T16:16:23Z</time></trkpt><trkpt lat="44.382439487551494" lon="9.243478112223949"><ele>507.2</ele><time>2026-04-29T16:16:24Z</time></trkpt><trkpt lat="44.38244939609814" lon="9.243334008178763"><ele>504.0</ele><time>2026-04-29T16:16:25Z</time></trkpt><trkpt lat="44.38245127939417" lon="9.243192558866303"><ele>502.8333333333333</ele><time>2026-04-29T16:16:26Z</time></trkpt><trkpt lat="44.38244330019594" lon="9.24305669998167"><ele>501.66666666666663</ele><time>2026-04-29T16:16:27Z</time></trkpt><trkpt lat="44.38244049099074" lon="9.242936864608986"><ele>500.5</ele><time>2026-04-29T16:16:28Z</time></trkpt><trkpt lat="44.38245337269054" lon="9.242816901290897"><ele>499.3333333333333</ele><time>2026-04-29T16:16:29Z</time></trkpt><trkpt lat="44.38247220814644" lon="9.24272105782247"><ele>498.16666666666663</ele><time>2026-04-29T16:16:30Z</time></trkpt><trkpt lat="44.38249850732876" lon="9.242605637679938"><ele>497.0</ele><time>2026-04-29T16:16:31Z</time></trkpt><trkpt lat="44.38252054796588" lon="9.242507346243736"><ele>496.99999999999994</ele><time>2026-04-29T16:16:32Z</time></trkpt><trkpt lat="44.38254537706509" lon="9.242397987513693"><ele>497.0</ele><time>2026-04-29T16:16:33Z</time></trkpt><trkpt lat="44.38256304308626" lon="9.242289951230838"><ele>497.0</ele><time>2026-04-29T16:16:34Z</time></trkpt><trkpt lat="44.38256648981308" lon="9.242175710138001"><ele>497.0</ele><time>2026-04-29T16:16:35Z</time></trkpt><trkpt lat="44.382562114688184" lon="9.242060997721467"><ele>496.99999999999994</ele><time>2026-04-29T16:16:36Z</time></trkpt><trkpt lat="44.382542207688616" lon="9.241944070778437"><ele>497.0</ele><time>2026-04-29T16:16:37Z</time></trkpt><trkpt lat="44.382530363231936" lon="9.241814876575786"><ele>497.20000000000005</ele><time>2026-04-29T16:16:38Z</time></trkpt><trkpt lat="44.38251939562536" lon="9.24168336093349"><ele>497.40000000000003</ele><time>2026-04-29T16:16:39Z</time></trkpt><trkpt lat="44.38248344234291" lon="9.241549824915124"><ele>497.59999999999997</ele><time>2026-04-29T16:16:40Z</time></trkpt><trkpt lat="44.38243590490957" lon="9.241421893206985"><ele>497.79999999999995</ele><time>2026-04-29T16:16:41Z</time></trkpt><trkpt lat="44.38237961281521" lon="9.241305395695667"><ele>498.0</ele><time>2026-04-29T16:16:42Z</time></trkpt><trkpt lat="44.382319069327444" lon="9.241208434449103"><ele>499.0</ele><time>2026-04-29T16:16:43Z</time></trkpt><trkpt lat="44.38225160409046" lon="9.241131142679961"><ele>500.0</ele><time>2026-04-29T16:16:44Z</time></trkpt><trkpt lat="44.38218991016853" lon="9.24104627027952"><ele>501.0</ele><time>2026-04-29T16:16:45Z</time></trkpt><trkpt lat="44.38213320549456" lon="9.240962655864042"><ele>502.0</ele><time>2026-04-29T16:16:46Z</time></trkpt><trkpt lat="44.38208315272877" lon="9.240876569144707"><ele>503.0</ele><time>2026-04-29T16:16:47Z</time></trkpt><trkpt lat="44.38204353901548" lon="9.24078709159877"><ele>504.0</ele><time>2026-04-29T16:16:48Z</time></trkpt><trkpt lat="44.382005894074084" lon="9.24070151659391"><ele>497.3333333333333</ele><time>2026-04-29T16:16:49Z</time></trkpt><trkpt lat="44.381959111033076" lon="9.240583008248892"><ele>490.66666666666663</ele><time>2026-04-29T16:16:50Z</time></trkpt><trkpt lat="44.38194815104872" lon="9.240467232561274"><ele>484.0</ele><time>2026-04-29T16:16:51Z</time></trkpt><trkpt lat="44.38194841914517" lon="9.240354529686888"><ele>477.3333333333333</ele><time>2026-04-29T16:16:52Z</time></trkpt><trkpt lat="44.381953749128954" lon="9.240257726787561"><ele>470.66666666666663</ele><time>2026-04-29T16:16:53Z</time></trkpt><trkpt lat="44.381933353258184" lon="9.240121226588107"><ele>464.0</ele><time>2026-04-29T16:16:55Z</time></trkpt><trkpt lat="44.381848887142695" lon="9.24009866000238"><ele>464.0</ele><time>2026-04-29T16:16:57Z</time></trkpt><trkpt lat="44.38177722890609" lon="9.240231938675224"><ele>464.0</ele><time>2026-04-29T16:16:59Z</time></trkpt><trkpt lat="44.3817517154074" lon="9.240328994548554"><ele>464.0</ele><time>2026-04-29T16:17:00Z</time></trkpt><trkpt lat="44.38171934328896" lon="9.240455959050648"><ele>464.0</ele><time>2026-04-29T16:17:01Z</time></trkpt><trkpt lat="44.38169217401281" lon="9.240574691736203"><ele>464.0</ele><time>2026-04-29T16:17:02Z</time></trkpt><trkpt lat="44.381673210253936" lon="9.24069919516164"><ele>463.66666666666663</ele><time>2026-04-29T16:17:03Z</time></trkpt><trkpt lat="44.38166970864391" lon="9.240820834796178"><ele>463.3333333333333</ele><time>2026-04-29T16:17:04Z</time></trkpt><trkpt lat="44.38167864246715" lon="9.240947210360027"><ele>463.0</ele><time>2026-04-29T16:17:05Z</time></trkpt><trkpt lat="44.381696453859526" lon="9.241062445212393"><ele>462.66666666666663</ele><time>2026-04-29T16:17:06Z</time></trkpt><trkpt lat="44.38173073680798" lon="9.241170983298328"><ele>462.3333333333333</ele><time>2026-04-29T16:17:07Z</time></trkpt><trkpt lat="44.38177575250477" lon="9.241278205364495"><ele>462.0</ele><time>2026-04-29T16:17:08Z</time></trkpt><trkpt lat="44.38181925191451" lon="9.241385643008355"><ele>460.6</ele><time>2026-04-29T16:17:09Z</time></trkpt><trkpt lat="44.38185075820866" lon="9.24148754455877"><ele>459.20000000000005</ele><time>2026-04-29T16:17:10Z</time></trkpt><trkpt lat="44.38187070761784" lon="9.241597559661393"><ele>457.8</ele><time>2026-04-29T16:17:11Z</time></trkpt><trkpt lat="44.38186808882015" lon="9.241726860102535"><ele>456.4</ele><time>2026-04-29T16:17:12Z</time></trkpt><trkpt lat="44.38186323838365" lon="9.241894084868838"><ele>455.0</ele><time>2026-04-29T16:17:13Z</time></trkpt><trkpt lat="44.381855639714395" lon="9.242072906934808"><ele>455.0</ele><time>2026-04-29T16:17:14Z</time></trkpt><trkpt lat="44.381852352493226" lon="9.242231382990441"><ele>455.0</ele><time>2026-04-29T16:17:15Z</time></trkpt><trkpt lat="44.381864508587064" lon="9.242376807314374"><ele>455.0</ele><time>2026-04-29T16:17:16Z</time></trkpt><trkpt lat="44.3818636283153" lon="9.242533981946373"><ele>455.0</ele><time>2026-04-29T16:17:17Z</time></trkpt><trkpt lat="44.381842609663444" lon="9.242673964177543"><ele>455.0</ele><time>2026-04-29T16:17:18Z</time></trkpt><trkpt lat="44.38181471658217" lon="9.242806976817787"><ele>454.8333333333333</ele><time>2026-04-29T16:17:19Z</time></trkpt><trkpt lat="44.38178763107223" lon="9.242933789709518"><ele>454.66666666666663</ele><time>2026-04-29T16:17:20Z</time></trkpt><trkpt lat="44.38176272745224" lon="9.243029708673008"><ele>454.5</ele><time>2026-04-29T16:17:21Z</time></trkpt><trkpt lat="44.381722748880094" lon="9.243122919531391"><ele>454.33333333333337</ele><time>2026-04-29T16:17:22Z</time></trkpt><trkpt lat="44.38167964845902" lon="9.243215247204864"><ele>454.1666666666667</ele><time>2026-04-29T16:17:23Z</time></trkpt><trkpt lat="44.38164116054598" lon="9.243310719040721"><ele>454.0</ele><time>2026-04-29T16:17:24Z</time></trkpt><trkpt lat="44.38160167448036" lon="9.243398389327497"><ele>455.42857142857144</ele><time>2026-04-29T16:17:25Z</time></trkpt><trkpt lat="44.38155369658853" lon="9.243465090168655"><ele>456.8571428571429</ele><time>2026-04-29T16:17:26Z</time></trkpt><trkpt lat="44.38148231746604" lon="9.2435054957411"><ele>458.28571428571433</ele><time>2026-04-29T16:17:27Z</time></trkpt><trkpt lat="44.381408162366135" lon="9.243531628791652"><ele>459.7142857142858</ele><time>2026-04-29T16:17:28Z</time></trkpt><trkpt lat="44.381338352383466" lon="9.243546086774957"><ele>461.14285714285717</ele><time>2026-04-29T16:17:29Z</time></trkpt><trkpt lat="44.38127279112486" lon="9.24354769051837"><ele>462.57142857142867</ele><time>2026-04-29T16:17:30Z</time></trkpt><trkpt lat="44.38120891535867" lon="9.243534785552804"><ele>464.00000000000006</ele><time>2026-04-29T16:17:31Z</time></trkpt><trkpt lat="44.3810970366256" lon="9.243532436137954"><ele>458.8333333333333</ele><time>2026-04-29T16:17:33Z</time></trkpt><trkpt lat="44.381034142996874" lon="9.243528071778567"><ele>453.66666666666663</ele><time>2026-04-29T16:17:34Z</time></trkpt><trkpt lat="44.380946122384316" lon="9.243579389477702"><ele>448.5</ele><time>2026-04-29T16:17:35Z</time></trkpt><trkpt lat="44.38086933039153" lon="9.243675417574007"><ele>443.33333333333337</ele><time>2026-04-29T16:17:36Z</time></trkpt><trkpt lat="44.380809890899435" lon="9.243766271189132"><ele>438.1666666666667</ele><time>2026-04-29T16:17:37Z</time></trkpt><trkpt lat="44.38075772182236" lon="9.243840586085463"><ele>433.0</ele><time>2026-04-29T16:17:38Z</time></trkpt><trkpt lat="44.38070272308254" lon="9.243918950414015"><ele>431.5</ele><time>2026-04-29T16:17:39Z</time></trkpt><trkpt lat="44.38062591210338" lon="9.243969202893132"><ele>430.0</ele><time>2026-04-29T16:17:41Z</time></trkpt><trkpt lat="44.380515653922544" lon="9.244027365487048"><ele>428.5</ele><time>2026-04-29T16:17:43Z</time></trkpt><trkpt lat="44.38039740864527" lon="9.24411218836762"><ele>427.0</ele><time>2026-04-29T16:17:44Z</time></trkpt><trkpt lat="44.380292647283106" lon="9.24422174377585"><ele>427.0</ele><time>2026-04-29T16:17:45Z</time></trkpt><trkpt lat="44.38012566809846" lon="9.2443537804448"><ele>427.0</ele><time>2026-04-29T16:17:46Z</time></trkpt><trkpt lat="44.38007317149404" lon="9.244466299199152"><ele>427.0</ele><time>2026-04-29T16:17:47Z</time></trkpt><trkpt lat="44.38000879643943" lon="9.244538148162933"><ele>427.0</ele><time>2026-04-29T16:17:48Z</time></trkpt><trkpt lat="44.37994257477244" lon="9.244620937551828"><ele>427.0</ele><time>2026-04-29T16:17:49Z</time></trkpt><trkpt lat="44.37985616601682" lon="9.244676658755584"><ele>427.00000000000006</ele><time>2026-04-29T16:17:50Z</time></trkpt><trkpt lat="44.37978345052341" lon="9.2447485440724"><ele>427.00000000000006</ele><time>2026-04-29T16:17:51Z</time></trkpt><trkpt lat="44.37971828684141" lon="9.244834681860413"><ele>427.0</ele><time>2026-04-29T16:17:52Z</time></trkpt><trkpt lat="44.37966170260073" lon="9.244932298729388"><ele>427.0</ele><time>2026-04-29T16:17:53Z</time></trkpt><trkpt lat="44.37963367603081" lon="9.245052603684607"><ele>424.33333333333337</ele><time>2026-04-29T16:17:54Z</time></trkpt><trkpt lat="44.37960633389739" lon="9.24518129644579"><ele>421.6666666666667</ele><time>2026-04-29T16:17:55Z</time></trkpt><trkpt lat="44.37957629739645" lon="9.245308842757227"><ele>419.0</ele><time>2026-04-29T16:17:56Z</time></trkpt><trkpt lat="44.37955029907225" lon="9.245421290890349"><ele>416.33333333333337</ele><time>2026-04-29T16:17:57Z</time></trkpt><trkpt lat="44.3795312932119" lon="9.245518118476216"><ele>413.6666666666667</ele><time>2026-04-29T16:17:58Z</time></trkpt><trkpt lat="44.37947154507226" lon="9.24558664641829"><ele>411.0</ele><time>2026-04-29T16:17:59Z</time></trkpt><trkpt lat="44.3793991188335" lon="9.245618536019819"><ele>415.1666666666667</ele><time>2026-04-29T16:18:00Z</time></trkpt><trkpt lat="44.37931132680447" lon="9.245632518229367"><ele>419.33333333333337</ele><time>2026-04-29T16:18:01Z</time></trkpt><trkpt lat="44.37922979182575" lon="9.245670115504907"><ele>423.5</ele><time>2026-04-29T16:18:02Z</time></trkpt><trkpt lat="44.37915726180477" lon="9.245742306036206"><ele>427.6666666666667</ele><time>2026-04-29T16:18:03Z</time></trkpt><trkpt lat="44.37908644946711" lon="9.245801526266607"><ele>431.83333333333337</ele><time>2026-04-29T16:18:04Z</time></trkpt><trkpt lat="44.379012937219166" lon="9.245841291019"><ele>436.0</ele><time>2026-04-29T16:18:05Z</time></trkpt><trkpt lat="44.37893566153334" lon="9.245864173715914"><ele>436.00000000000006</ele><time>2026-04-29T16:18:06Z</time></trkpt><trkpt lat="44.378853365282716" lon="9.24585017908745"><ele>436.0</ele><time>2026-04-29T16:18:07Z</time></trkpt><trkpt lat="44.37877027895917" lon="9.245809955705383"><ele>436.0</ele><time>2026-04-29T16:18:08Z</time></trkpt><trkpt lat="44.37870642285215" lon="9.245772454211087"><ele>436.0</ele><time>2026-04-29T16:18:09Z</time></trkpt><trkpt lat="44.37857862114088" lon="9.245801482879687"><ele>436.00000000000006</ele><time>2026-04-29T16:18:11Z</time></trkpt><trkpt lat="44.37851402557619" lon="9.245842855749459"><ele>436.0</ele><time>2026-04-29T16:18:12Z</time></trkpt><trkpt lat="44.378430048590495" lon="9.245843952316559"><ele>433.5</ele><time>2026-04-29T16:18:13Z</time></trkpt><trkpt lat="44.378329129560356" lon="9.24579616372471"><ele>431.0</ele><time>2026-04-29T16:18:14Z</time></trkpt><trkpt lat="44.3782211821576" lon="9.245716767328295"><ele>428.5</ele><time>2026-04-29T16:18:15Z</time></trkpt><trkpt lat="44.378120252247385" lon="9.245644346510872"><ele>426.0</ele><time>2026-04-29T16:18:16Z</time></trkpt><trkpt lat="44.37801306104454" lon="9.24558946700712"><ele>425.25</ele><time>2026-04-29T16:18:17Z</time></trkpt><trkpt lat="44.377895262188915" lon="9.245616291859324"><ele>424.5</ele><time>2026-04-29T16:18:18Z</time></trkpt><trkpt lat="44.37776238692214" lon="9.245679287037394"><ele>423.75</ele><time>2026-04-29T16:18:19Z</time></trkpt><trkpt lat="44.377658446857446" lon="9.245676354981004"><ele>423.0</ele><time>2026-04-29T16:18:20Z</time></trkpt><trkpt lat="44.37755414887758" lon="9.245634766486281"><ele>413.0</ele><time>2026-04-29T16:18:21Z</time></trkpt><trkpt lat="44.377446445074206" lon="9.24528278173073"><ele>403.0</ele><time>2026-04-29T16:18:22Z</time></trkpt><trkpt lat="44.37752603289999" lon="9.245370151704822"><ele>393.0</ele><time>2026-04-29T16:18:26Z</time></trkpt><trkpt lat="44.3774392308226" lon="9.245262268549656"><ele>393.0</ele><time>2026-04-29T16:18:29Z</time></trkpt><trkpt lat="44.37737283395651" lon="9.245273569337169"><ele>393.0</ele><time>2026-04-29T16:18:30Z</time></trkpt><trkpt lat="44.37724725488368" lon="9.245322729166258"><ele>393.0</ele><time>2026-04-29T16:18:32Z</time></trkpt><trkpt lat="44.37716215811059" lon="9.245387584248407"><ele>393.0</ele><time>2026-04-29T16:18:33Z</time></trkpt><trkpt lat="44.377108998806634" lon="9.245457816578835"><ele>393.0</ele><time>2026-04-29T16:18:34Z</time></trkpt><trkpt lat="44.37706013087089" lon="9.245524531056633"><ele>393.0</ele><time>2026-04-29T16:18:35Z</time></trkpt><trkpt lat="44.377007550274094" lon="9.245577042959896"><ele>391.0</ele><time>2026-04-29T16:18:36Z</time></trkpt><trkpt lat="44.376938189508685" lon="9.245608275672938"><ele>389.0</ele><time>2026-04-29T16:18:37Z</time></trkpt><trkpt lat="44.37685465017115" lon="9.245612811045637"><ele>387.0</ele><time>2026-04-29T16:18:38Z</time></trkpt><trkpt lat="44.37677175277338" lon="9.245588709744066"><ele>385.0</ele><time>2026-04-29T16:18:39Z</time></trkpt><trkpt lat="44.37668949642643" lon="9.245563086160244"><ele>383.0</ele><time>2026-04-29T16:18:40Z</time></trkpt><trkpt lat="44.37660010454866" lon="9.245530189189292"><ele>381.0</ele><time>2026-04-29T16:18:41Z</time></trkpt><trkpt lat="44.376521046437546" lon="9.245518232371536"><ele>381.0</ele><time>2026-04-29T16:18:42Z</time></trkpt><trkpt lat="44.37646613830335" lon="9.245474000826334"><ele>381.0</ele><time>2026-04-29T16:18:43Z</time></trkpt><trkpt lat="44.376343903252945" lon="9.245401334674366"><ele>381.0</ele><time>2026-04-29T16:18:45Z</time></trkpt><trkpt lat="44.37623922373396" lon="9.245435201635106"><ele>381.0</ele><time>2026-04-29T16:18:47Z</time></trkpt><trkpt lat="44.376181197041014" lon="9.245490464046448"><ele>381.0</ele><time>2026-04-29T16:18:48Z</time></trkpt><trkpt lat="44.37612886788532" lon="9.245562742551124"><ele>381.0</ele><time>2026-04-29T16:18:49Z</time></trkpt><trkpt lat="44.37608103862317" lon="9.245634812875231"><ele>381.8333333333333</ele><time>2026-04-29T16:18:50Z</time></trkpt><trkpt lat="44.376008109033215" lon="9.245671464041164"><ele>382.66666666666663</ele><time>2026-04-29T16:18:51Z</time></trkpt><trkpt lat="44.37592295828822" lon="9.24568540186681"><ele>383.5</ele><time>2026-04-29T16:18:52Z</time></trkpt><trkpt lat="44.375846905038344" lon="9.245671928853486"><ele>384.3333333333333</ele><time>2026-04-29T16:18:53Z</time></trkpt><trkpt lat="44.37578536111336" lon="9.245651663575966"><ele>385.16666666666663</ele><time>2026-04-29T16:18:54Z</time></trkpt><trkpt lat="44.37568326524684" lon="9.245681859218179"><ele>386.0</ele><time>2026-04-29T16:18:56Z</time></trkpt><trkpt lat="44.375626613501574" lon="9.245741607598692"><ele>386.0</ele><time>2026-04-29T16:18:57Z</time></trkpt><trkpt lat="44.375575550761596" lon="9.2458489775642"><ele>386.0</ele><time>2026-04-29T16:18:58Z</time></trkpt><trkpt lat="44.37553247149511" lon="9.245971362073126"><ele>386.0</ele><time>2026-04-29T16:18:59Z</time></trkpt><trkpt lat="44.37549258456243" lon="9.246087740989216"><ele>386.0</ele><time>2026-04-29T16:19:00Z</time></trkpt><trkpt lat="44.3754627662154" lon="9.246213273051772"><ele>386.0</ele><time>2026-04-29T16:19:01Z</time></trkpt><trkpt lat="44.37543323805496" lon="9.24635309369964"><ele>377.25</ele><time>2026-04-29T16:19:02Z</time></trkpt><trkpt lat="44.37539976001651" lon="9.246501968312545"><ele>368.5</ele><time>2026-04-29T16:19:03Z</time></trkpt><trkpt lat="44.37537663911853" lon="9.246668310265623"><ele>359.75</ele><time>2026-04-29T16:19:04Z</time></trkpt><trkpt lat="44.37535426530671" lon="9.24682815569483"><ele>351.0</ele><time>2026-04-29T16:19:05Z</time></trkpt><trkpt lat="44.37533240766174" lon="9.246981294900792"><ele>351.0</ele><time>2026-04-29T16:19:06Z</time></trkpt><trkpt lat="44.375314846989006" lon="9.247129740525354"><ele>351.0</ele><time>2026-04-29T16:19:07Z</time></trkpt><trkpt lat="44.37527593107635" lon="9.247250034960622"><ele>351.0</ele><time>2026-04-29T16:19:08Z</time></trkpt><trkpt lat="44.375215761261586" lon="9.247379821585687"><ele>351.0</ele><time>2026-04-29T16:19:09Z</time></trkpt><trkpt lat="44.37514271181048" lon="9.247503050774904"><ele>351.0</ele><time>2026-04-29T16:19:10Z</time></trkpt><trkpt lat="44.37506486131646" lon="9.247635550820409"><ele>354.0</ele><time>2026-04-29T16:19:11Z</time></trkpt><trkpt lat="44.374987300969366" lon="9.247749094726302"><ele>357.0</ele><time>2026-04-29T16:19:12Z</time></trkpt><trkpt lat="44.37491458450498" lon="9.247854244622719"><ele>360.0</ele><time>2026-04-29T16:19:13Z</time></trkpt><trkpt lat="44.374845656594566" lon="9.247936587300817"><ele>363.0</ele><time>2026-04-29T16:19:14Z</time></trkpt><trkpt lat="44.374792491008954" lon="9.248033947678673"><ele>366.0</ele><time>2026-04-29T16:19:15Z</time></trkpt><trkpt lat="44.374752643722246" lon="9.248149591542292"><ele>369.0</ele><time>2026-04-29T16:19:16Z</time></trkpt><trkpt lat="44.374735128009966" lon="9.248280794114033"><ele>372.0</ele><time>2026-04-29T16:19:17Z</time></trkpt><trkpt lat="44.37472496796569" lon="9.248434584768397"><ele>375.0</ele><time>2026-04-29T16:19:18Z</time></trkpt><trkpt lat="44.37473007495621" lon="9.248585410541507"><ele>378.0</ele><time>2026-04-29T16:19:19Z</time></trkpt><trkpt lat="44.3747348804897" lon="9.24871395223487"><ele>381.0</ele><time>2026-04-29T16:19:20Z</time></trkpt><trkpt lat="44.37473527829679" lon="9.24881783003064"><ele>381.0</ele><time>2026-04-29T16:19:21Z</time></trkpt><trkpt lat="44.37472637069268" lon="9.24891236910997"><ele>381.0</ele><time>2026-04-29T16:19:22Z</time></trkpt><trkpt lat="44.37464373463271" lon="9.249050882163717"><ele>381.0</ele><time>2026-04-29T16:19:24Z</time></trkpt><trkpt lat="44.374567412336695" lon="9.24908706546588"><ele>381.0</ele><time>2026-04-29T16:19:25Z</time></trkpt><trkpt lat="44.37448047459061" lon="9.249113132903076"><ele>381.0</ele><time>2026-04-29T16:19:26Z</time></trkpt><trkpt lat="44.37439992274913" lon="9.249108836588288"><ele>381.0</ele><time>2026-04-29T16:19:27Z</time></trkpt><trkpt lat="44.374328718119635" lon="9.249131653421752"><ele>376.8</ele><time>2026-04-29T16:19:28Z</time></trkpt><trkpt lat="44.374268077873325" lon="9.249197625267646"><ele>372.6</ele><time>2026-04-29T16:19:29Z</time></trkpt><trkpt lat="44.374182725665115" lon="9.249314758351188"><ele>368.4</ele><time>2026-04-29T16:19:30Z</time></trkpt><trkpt lat="44.37409996689363" lon="9.249421004159808"><ele>364.2</ele><time>2026-04-29T16:19:31Z</time></trkpt><trkpt lat="44.37402665925693" lon="9.249524299001383"><ele>360.0</ele><time>2026-04-29T16:19:32Z</time></trkpt><trkpt lat="44.373966117274755" lon="9.24961673397839"><ele>360.0</ele><time>2026-04-29T16:19:33Z</time></trkpt><trkpt lat="44.373907996260684" lon="9.249690109213313"><ele>360.0</ele><time>2026-04-29T16:19:34Z</time></trkpt><trkpt lat="44.37387314155612" lon="9.24981607366374"><ele>360.0</ele><time>2026-04-29T16:19:35Z</time></trkpt><trkpt lat="44.37385725278562" lon="9.249969087730527"><ele>360.0</ele><time>2026-04-29T16:19:36Z</time></trkpt><trkpt lat="44.37384431512886" lon="9.250105515773855"><ele>360.0</ele><time>2026-04-29T16:19:37Z</time></trkpt><trkpt lat="44.37382287322506" lon="9.250243158312978"><ele>357.4</ele><time>2026-04-29T16:19:39Z</time></trkpt><trkpt lat="44.373763853944745" lon="9.250309376336272"><ele>354.8</ele><time>2026-04-29T16:19:41Z</time></trkpt><trkpt lat="44.37367833007364" lon="9.250235052351178"><ele>352.20000000000005</ele><time>2026-04-29T16:19:43Z</time></trkpt><trkpt lat="44.37369261801763" lon="9.250067642533631"><ele>349.6</ele><time>2026-04-29T16:19:45Z</time></trkpt><trkpt lat="44.37371826793271" lon="9.249959772768195"><ele>347.0</ele><time>2026-04-29T16:19:46Z</time></trkpt><trkpt lat="44.373757287432376" lon="9.249842339887936"><ele>349.1666666666667</ele><time>2026-04-29T16:19:47Z</time></trkpt><trkpt lat="44.37379734157483" lon="9.249731302072345"><ele>351.33333333333337</ele><time>2026-04-29T16:19:48Z</time></trkpt><trkpt lat="44.37382013639378" lon="9.249609672615396"><ele>353.5</ele><time>2026-04-29T16:19:49Z</time></trkpt><trkpt lat="44.37384449911867" lon="9.249517084858942"><ele>355.6666666666667</ele><time>2026-04-29T16:19:50Z</time></trkpt><trkpt lat="44.3738915034579" lon="9.249422186286111"><ele>357.8333333333333</ele><time>2026-04-29T16:19:51Z</time></trkpt><trkpt lat="44.37396668006662" lon="9.249330274682235"><ele>360.0</ele><time>2026-04-29T16:19:52Z</time></trkpt><trkpt lat="44.37404171024062" lon="9.249234795577896"><ele>360.0</ele><time>2026-04-29T16:19:53Z</time></trkpt><trkpt lat="44.37410009389307" lon="9.2491290342422"><ele>360.0</ele><time>2026-04-29T16:19:54Z</time></trkpt><trkpt lat="44.374178016156144" lon="9.24903783332632"><ele>360.0</ele><time>2026-04-29T16:19:55Z</time></trkpt><trkpt lat="44.37426183536514" lon="9.248984042776176"><ele>360.0</ele><time>2026-04-29T16:19:56Z</time></trkpt><trkpt lat="44.37433609931031" lon="9.248919568314678"><ele>360.0</ele><time>2026-04-29T16:19:57Z</time></trkpt><trkpt lat="44.374403416481925" lon="9.248866238684917"><ele>356.4</ele><time>2026-04-29T16:19:58Z</time></trkpt><trkpt lat="44.374464092081624" lon="9.248700141367582"><ele>352.8</ele><time>2026-04-29T16:20:00Z</time></trkpt><trkpt lat="44.37441357478195" lon="9.248582278906216"><ele>349.20000000000005</ele><time>2026-04-29T16:20:01Z</time></trkpt><trkpt lat="44.374368273888095" lon="9.248468589050796"><ele>345.6</ele><time>2026-04-29T16:20:02Z</time></trkpt><trkpt lat="44.37432652641928" lon="9.248370061457779"><ele>342.0</ele><time>2026-04-29T16:20:03Z</time></trkpt><trkpt lat="44.37430707053574" lon="9.248274618058252"><ele>339.20000000000005</ele><time>2026-04-29T16:20:04Z</time></trkpt><trkpt lat="44.37433233631619" lon="9.24810740786168"><ele>336.4</ele><time>2026-04-29T16:20:06Z</time></trkpt><trkpt lat="44.37436224023874" lon="9.247985288237917"><ele>333.6</ele><time>2026-04-29T16:20:07Z</time></trkpt><trkpt lat="44.374392151745916" lon="9.247852263307689"><ele>330.79999999999995</ele><time>2026-04-29T16:20:08Z</time></trkpt><trkpt lat="44.37442197533151" lon="9.247741828893558"><ele>328.0</ele><time>2026-04-29T16:20:09Z</time></trkpt><trkpt lat="44.374462094122656" lon="9.247641515995927"><ele>328.0</ele><time>2026-04-29T16:20:10Z</time></trkpt><trkpt lat="44.37450484822151" lon="9.247561271740928"><ele>328.0</ele><time>2026-04-29T16:20:11Z</time></trkpt><trkpt lat="44.37456479967923" lon="9.247494099710774"><ele>328.0</ele><time>2026-04-29T16:20:12Z</time></trkpt><trkpt lat="44.37463074467224" lon="9.24744186500563"><ele>328.0</ele><time>2026-04-29T16:20:13Z</time></trkpt><trkpt lat="44.37469528502086" lon="9.247374737562929"><ele>328.0</ele><time>2026-04-29T16:20:14Z</time></trkpt><trkpt lat="44.37473931588222" lon="9.247284161138925"><ele>328.0</ele><time>2026-04-29T16:20:15Z</time></trkpt><trkpt lat="44.37478488826929" lon="9.24718261901889"><ele>332.59999999999997</ele><time>2026-04-29T16:20:16Z</time></trkpt><trkpt lat="44.374831683185015" lon="9.247059165023952"><ele>337.2</ele><time>2026-04-29T16:20:17Z</time></trkpt><trkpt lat="44.37487291422791" lon="9.246934014548092"><ele>341.8</ele><time>2026-04-29T16:20:18Z</time></trkpt><trkpt lat="44.37491003074574" lon="9.246810414426944"><ele>346.4</ele><time>2026-04-29T16:20:19Z</time></trkpt><trkpt lat="44.37492033520301" lon="9.246678643835832"><ele>351.0</ele><time>2026-04-29T16:20:20Z</time></trkpt><trkpt lat="44.37493467555312" lon="9.246534316465153"><ele>347.5</ele><time>2026-04-29T16:20:21Z</time></trkpt><trkpt lat="44.37492997964724" lon="9.246371172774658"><ele>344.0</ele><time>2026-04-29T16:20:22Z</time></trkpt><trkpt lat="44.37494791354226" lon="9.24619391131214"><ele>340.5</ele><time>2026-04-29T16:20:23Z</time></trkpt><trkpt lat="44.37496027180584" lon="9.246025590792083"><ele>337.0</ele><time>2026-04-29T16:20:24Z</time></trkpt><trkpt lat="44.374986639833786" lon="9.245879021532986"><ele>337.0</ele><time>2026-04-29T16:20:25Z</time></trkpt><trkpt lat="44.375023951287105" lon="9.245719729003754"><ele>337.0</ele><time>2026-04-29T16:20:26Z</time></trkpt><trkpt lat="44.375036397969225" lon="9.245562057138855"><ele>337.0</ele><time>2026-04-29T16:20:27Z</time></trkpt><trkpt lat="44.375037816591764" lon="9.245435038386729"><ele>337.0</ele><time>2026-04-29T16:20:28Z</time></trkpt><trkpt lat="44.375022660091844" lon="9.245294663906495"><ele>337.0</ele><time>2026-04-29T16:20:29Z</time></trkpt><trkpt lat="44.37500076919044" lon="9.24515686562173"><ele>334.66666666666663</ele><time>2026-04-29T16:20:30Z</time></trkpt><trkpt lat="44.37498692692251" lon="9.245041623533963"><ele>332.3333333333333</ele><time>2026-04-29T16:20:31Z</time></trkpt><trkpt lat="44.37501392888433" lon="9.244909794788477"><ele>330.0</ele><time>2026-04-29T16:20:33Z</time></trkpt><trkpt lat="44.37505946575892" lon="9.244842923362157"><ele>327.6666666666667</ele><time>2026-04-29T16:20:34Z</time></trkpt><trkpt lat="44.375130616183" lon="9.24477213914851"><ele>325.33333333333337</ele><time>2026-04-29T16:20:35Z</time></trkpt><trkpt lat="44.37520743324643" lon="9.244743935793423"><ele>323.0</ele><time>2026-04-29T16:20:36Z</time></trkpt><trkpt lat="44.375284360319455" lon="9.244755001567468"><ele>322.59999999999997</ele><time>2026-04-29T16:20:37Z</time></trkpt><trkpt lat="44.37537831004099" lon="9.244712691785164"><ele>322.2</ele><time>2026-04-29T16:20:38Z</time></trkpt><trkpt lat="44.37547501456612" lon="9.244677501000949"><ele>321.8</ele><time>2026-04-29T16:20:39Z</time></trkpt><trkpt lat="44.37556520646595" lon="9.244603633343111"><ele>321.4</ele><time>2026-04-29T16:20:40Z</time></trkpt><trkpt lat="44.375662420092304" lon="9.244499677610323"><ele>321.0</ele><time>2026-04-29T16:20:41Z</time></trkpt><trkpt lat="44.37576305459944" lon="9.244389753979517"><ele>321.0</ele><time>2026-04-29T16:20:42Z</time></trkpt><trkpt lat="44.375851400310964" lon="9.244288769070918"><ele>321.0</ele><time>2026-04-29T16:20:43Z</time></trkpt><trkpt lat="44.37593528529475" lon="9.244200248003208"><ele>321.0</ele><time>2026-04-29T16:20:44Z</time></trkpt><trkpt lat="44.37601714060125" lon="9.24412053488962"><ele>321.0</ele><time>2026-04-29T16:20:45Z</time></trkpt><trkpt lat="44.37611155415118" lon="9.24409511283035"><ele>321.0</ele><time>2026-04-29T16:20:46Z</time></trkpt><trkpt lat="44.37619938779375" lon="9.24405517387866"><ele>321.0</ele><time>2026-04-29T16:20:47Z</time></trkpt><trkpt lat="44.37628950050164" lon="9.244035625224534"><ele>321.0</ele><time>2026-04-29T16:20:48Z</time></trkpt><trkpt lat="44.376363669371955" lon="9.244001699597954"><ele>321.0</ele><time>2026-04-29T16:20:49Z</time></trkpt><trkpt lat="44.376430956253074" lon="9.243941284382275"><ele>321.0</ele><time>2026-04-29T16:20:50Z</time></trkpt><trkpt lat="44.376465808666694" lon="9.243837963556231"><ele>321.0</ele><time>2026-04-29T16:20:51Z</time></trkpt><trkpt lat="44.376493829214105" lon="9.243727669011204"><ele>321.0</ele><time>2026-04-29T16:20:52Z</time></trkpt><trkpt lat="44.376520350468354" lon="9.243635222668589"><ele>318.0</ele><time>2026-04-29T16:20:53Z</time></trkpt><trkpt lat="44.37658057781224" lon="9.243570641983332"><ele>315.0</ele><time>2026-04-29T16:20:54Z</time></trkpt><trkpt lat="44.376659957051295" lon="9.243524501427569"><ele>312.0</ele><time>2026-04-29T16:20:55Z</time></trkpt><trkpt lat="44.376742989185345" lon="9.243493965443344"><ele>309.0</ele><time>2026-04-29T16:20:56Z</time></trkpt><trkpt lat="44.37681966129864" lon="9.24349881684452"><ele>306.0</ele><time>2026-04-29T16:20:57Z</time></trkpt><trkpt lat="44.37688631568933" lon="9.24347409068548"><ele>303.0</ele><time>2026-04-29T16:20:58Z</time></trkpt><trkpt lat="44.37696206471354" lon="9.243486116989677"><ele>303.0</ele><time>2026-04-29T16:20:59Z</time></trkpt><trkpt lat="44.37703418186153" lon="9.243443058568635"><ele>303.0</ele><time>2026-04-29T16:21:00Z</time></trkpt><trkpt lat="44.37710206388575" lon="9.243408116510457"><ele>303.0</ele><time>2026-04-29T16:21:01Z</time></trkpt><trkpt lat="44.37716263515963" lon="9.243382457144008"><ele>303.0</ele><time>2026-04-29T16:21:02Z</time></trkpt><trkpt lat="44.3772289687135" lon="9.243334538777445"><ele>303.0</ele><time>2026-04-29T16:21:04Z</time></trkpt><trkpt lat="44.37729526158497" lon="9.243285309820042"><ele>303.0</ele><time>2026-04-29T16:21:34Z</time></trkpt><trkpt lat="44.377385179892364" lon="9.24322129808217"><ele>304.5</ele><time>2026-04-29T16:21:36Z</time></trkpt><trkpt lat="44.37744503999678" lon="9.243188028920146"><ele>306.0</ele><time>2026-04-29T16:21:37Z</time></trkpt><trkpt lat="44.3775421562979" lon="9.243193080329993"><ele>307.5</ele><time>2026-04-29T16:21:39Z</time></trkpt><trkpt lat="44.37760678845738" lon="9.243262673945193"><ele>309.0</ele><time>2026-04-29T16:21:41Z</time></trkpt><trkpt lat="44.37768428638896" lon="9.243386076171905"><ele>310.5</ele><time>2026-04-29T16:21:43Z</time></trkpt><trkpt lat="44.37774007424376" lon="9.243447556050565"><ele>312.0</ele><time>2026-04-29T16:21:44Z</time></trkpt><trkpt lat="44.37781773130139" lon="9.243494846359043"><ele>312.0</ele><time>2026-04-29T16:21:45Z</time></trkpt><trkpt lat="44.377926717663016" lon="9.243461546809213"><ele>312.0</ele><time>2026-04-29T16:21:47Z</time></trkpt><trkpt lat="44.37796616126877" lon="9.243319201757577"><ele>312.0</ele><time>2026-04-29T16:21:48Z</time></trkpt><trkpt lat="44.37796181945808" lon="9.243226773577597"><ele>312.0</ele><time>2026-04-29T16:21:49Z</time></trkpt><trkpt lat="44.37791631392092" lon="9.243122451478905"><ele>312.0</ele><time>2026-04-29T16:21:50Z</time></trkpt><trkpt lat="44.37785724115644" lon="9.243075067581337"><ele>312.0</ele><time>2026-04-29T16:21:51Z</time></trkpt><trkpt lat="44.37773471766471" lon="9.243026558779613"><ele>305.6666666666667</ele><time>2026-04-29T16:21:53Z</time></trkpt><trkpt lat="44.377671402044896" lon="9.242980758483458"><ele>299.3333333333333</ele><time>2026-04-29T16:21:54Z</time></trkpt><trkpt lat="44.37755148540161" lon="9.242936434672641"><ele>293.0</ele><time>2026-04-29T16:21:56Z</time></trkpt><trkpt lat="44.37748119941756" lon="9.24294806173841"><ele>286.66666666666663</ele><time>2026-04-29T16:21:57Z</time></trkpt><trkpt lat="44.37740738056317" lon="9.242967541470025"><ele>280.3333333333333</ele><time>2026-04-29T16:21:58Z</time></trkpt><trkpt lat="44.377321350276276" lon="9.243018178349507"><ele>274.0</ele><time>2026-04-29T16:21:59Z</time></trkpt><trkpt lat="44.37723323748399" lon="9.243078118598671"><ele>270.8</ele><time>2026-04-29T16:22:00Z</time></trkpt><trkpt lat="44.37715146591864" lon="9.243136008192108"><ele>267.59999999999997</ele><time>2026-04-29T16:22:01Z</time></trkpt><trkpt lat="44.377022420296555" lon="9.243173228089853"><ele>264.4</ele><time>2026-04-29T16:22:03Z</time></trkpt><trkpt lat="44.37691154389565" lon="9.243181357738019"><ele>261.2</ele><time>2026-04-29T16:22:04Z</time></trkpt><trkpt lat="44.376824518931926" lon="9.243130836956855"><ele>258.0</ele><time>2026-04-29T16:22:05Z</time></trkpt><trkpt lat="44.37676427164982" lon="9.243099312601474"><ele>258.0</ele><time>2026-04-29T16:22:06Z</time></trkpt><trkpt lat="44.37668368596146" lon="9.243065350464336"><ele>258.0</ele><time>2026-04-29T16:22:07Z</time></trkpt><trkpt lat="44.37660033458743" lon="9.24305469918013"><ele>258.0</ele><time>2026-04-29T16:22:08Z</time></trkpt><trkpt lat="44.376520565584805" lon="9.2430756682679"><ele>258.0</ele><time>2026-04-29T16:22:09Z</time></trkpt><trkpt lat="44.376447464863524" lon="9.243118046605613"><ele>258.0</ele><time>2026-04-29T16:22:10Z</time></trkpt><trkpt lat="44.37638293253461" lon="9.243187386521445"><ele>258.0</ele><time>2026-04-29T16:22:11Z</time></trkpt><trkpt lat="44.376323294736906" lon="9.243256344207001"><ele>261.8333333333333</ele><time>2026-04-29T16:22:12Z</time></trkpt><trkpt lat="44.376252898021264" lon="9.243335154715808"><ele>265.6666666666667</ele><time>2026-04-29T16:22:13Z</time></trkpt><trkpt lat="44.376204312431184" lon="9.243418603653781"><ele>269.5</ele><time>2026-04-29T16:22:14Z</time></trkpt><trkpt lat="44.37614871013445" lon="9.243485370894067"><ele>273.33333333333337</ele><time>2026-04-29T16:22:15Z</time></trkpt><trkpt lat="44.37607328812147" lon="9.243506833525975"><ele>277.1666666666667</ele><time>2026-04-29T16:22:16Z</time></trkpt><trkpt lat="44.3760025328332" lon="9.24352196854252"><ele>281.0</ele><time>2026-04-29T16:22:17Z</time></trkpt><trkpt lat="44.37592232995379" lon="9.243550836086902"><ele>281.0</ele><time>2026-04-29T16:22:18Z</time></trkpt><trkpt lat="44.375834798097095" lon="9.243596952549398"><ele>281.0</ele><time>2026-04-29T16:22:19Z</time></trkpt><trkpt lat="44.375739390923286" lon="9.243635690986894"><ele>281.0</ele><time>2026-04-29T16:22:20Z</time></trkpt><trkpt lat="44.37564152646058" lon="9.24367903069822"><ele>281.0</ele><time>2026-04-29T16:22:21Z</time></trkpt><trkpt lat="44.3755562038151" lon="9.243731462441945"><ele>281.0</ele><time>2026-04-29T16:22:22Z</time></trkpt><trkpt lat="44.37546695919563" lon="9.243780443468182"><ele>276.25</ele><time>2026-04-29T16:22:23Z</time></trkpt><trkpt lat="44.37536886302304" lon="9.243805650102418"><ele>271.5</ele><time>2026-04-29T16:22:24Z</time></trkpt><trkpt lat="44.375251197456215" lon="9.243824848536656"><ele>266.75</ele><time>2026-04-29T16:22:25Z</time></trkpt><trkpt lat="44.37510730598507" lon="9.243811014052646"><ele>262.0</ele><time>2026-04-29T16:22:26Z</time></trkpt><trkpt lat="44.37497928412955" lon="9.243795207362858"><ele>262.0</ele><time>2026-04-29T16:22:27Z</time></trkpt><trkpt lat="44.37485705383254" lon="9.243796051042494"><ele>262.0</ele><time>2026-04-29T16:22:28Z</time></trkpt><trkpt lat="44.374734688441556" lon="9.24379888280161"><ele>262.0</ele><time>2026-04-29T16:22:29Z</time></trkpt><trkpt lat="44.37462197836064" lon="9.243798672189598"><ele>262.0</ele><time>2026-04-29T16:22:30Z</time></trkpt><trkpt lat="44.37451442701044" lon="9.243792183926656"><ele>260.66666666666663</ele><time>2026-04-29T16:22:31Z</time></trkpt><trkpt lat="44.37440430555848" lon="9.243787015520178"><ele>259.3333333333333</ele><time>2026-04-29T16:22:32Z</time></trkpt><trkpt lat="44.374305312003564" lon="9.243791828138296"><ele>258.0</ele><time>2026-04-29T16:22:33Z</time></trkpt><trkpt lat="44.37422707903399" lon="9.243809225183286"><ele>256.6666666666667</ele><time>2026-04-29T16:22:34Z</time></trkpt><trkpt lat="44.37416423527502" lon="9.243854666797171"><ele>255.33333333333334</ele><time>2026-04-29T16:22:35Z</time></trkpt><trkpt lat="44.37410998763086" lon="9.243917813976621"><ele>254.0</ele><time>2026-04-29T16:22:36Z</time></trkpt><trkpt lat="44.37407538028249" lon="9.243994252321407"><ele>258.2</ele><time>2026-04-29T16:22:37Z</time></trkpt><trkpt lat="44.37403816719514" lon="9.24410298329092"><ele>262.4</ele><time>2026-04-29T16:22:38Z</time></trkpt><trkpt lat="44.37403080510364" lon="9.244244070530808"><ele>266.6</ele><time>2026-04-29T16:22:39Z</time></trkpt><trkpt lat="44.37402877261206" lon="9.244391172218677"><ele>270.8</ele><time>2026-04-29T16:22:40Z</time></trkpt><trkpt lat="44.3740268519994" lon="9.24456765089236"><ele>275.0</ele><time>2026-04-29T16:22:41Z</time></trkpt><trkpt lat="44.37402685199884" lon="9.244722493134326"><ele>276.2</ele><time>2026-04-29T16:22:42Z</time></trkpt><trkpt lat="44.37403560790421" lon="9.244864448225332"><ele>277.4</ele><time>2026-04-29T16:22:43Z</time></trkpt><trkpt lat="44.37403214620468" lon="9.245004760057432"><ele>278.6</ele><time>2026-04-29T16:22:44Z</time></trkpt><trkpt lat="44.374031259492064" lon="9.245142305510637"><ele>279.8</ele><time>2026-04-29T16:22:45Z</time></trkpt><trkpt lat="44.37402327562779" lon="9.24527679234378"><ele>281.0</ele><time>2026-04-29T16:22:46Z</time></trkpt><trkpt lat="44.37400083812254" lon="9.245399146483734"><ele>281.0</ele><time>2026-04-29T16:22:47Z</time></trkpt><trkpt lat="44.37397971452907" lon="9.24551472970246"><ele>281.0</ele><time>2026-04-29T16:22:48Z</time></trkpt><trkpt lat="44.373954119473176" lon="9.24562456115799"><ele>281.0</ele><time>2026-04-29T16:22:49Z</time></trkpt><trkpt lat="44.373925929761526" lon="9.245725276107708"><ele>281.0</ele><time>2026-04-29T16:22:50Z</time></trkpt><trkpt lat="44.37389589588616" lon="9.245821963272139"><ele>281.0</ele><time>2026-04-29T16:22:51Z</time></trkpt><trkpt lat="44.37385260766003" lon="9.245909483373097"><ele>281.0</ele><time>2026-04-29T16:22:52Z</time></trkpt><trkpt lat="44.37379271197764" lon="9.245963453564228"><ele>275.0</ele><time>2026-04-29T16:22:53Z</time></trkpt><trkpt lat="44.37369677960463" lon="9.245994323564965"><ele>269.0</ele><time>2026-04-29T16:22:54Z</time></trkpt><trkpt lat="44.373568453964154" lon="9.245985242568818"><ele>263.0</ele><time>2026-04-29T16:22:55Z</time></trkpt><trkpt lat="44.373435557722246" lon="9.246013369882453"><ele>257.0</ele><time>2026-04-29T16:22:56Z</time></trkpt><trkpt lat="44.373313428126444" lon="9.246084432144896"><ele>257.0</ele><time>2026-04-29T16:22:57Z</time></trkpt><trkpt lat="44.373465351542634" lon="9.245999822177929"><ele>257.0</ele><time>2026-04-29T16:22:58Z</time></trkpt><trkpt lat="44.37340636502858" lon="9.246053353645236"><ele>257.0</ele><time>2026-04-29T16:22:59Z</time></trkpt><trkpt lat="44.373350203173885" lon="9.246127812643168"><ele>257.0</ele><time>2026-04-29T16:23:00Z</time></trkpt><trkpt lat="44.37328490931291" lon="9.24614255277192"><ele>257.0</ele><time>2026-04-29T16:23:01Z</time></trkpt><trkpt lat="44.37321549472594" lon="9.246105536008857"><ele>257.0</ele><time>2026-04-29T16:23:03Z</time></trkpt><trkpt lat="44.373186525631276" lon="9.245971277297691"><ele>257.0</ele><time>2026-04-29T16:23:05Z</time></trkpt><trkpt lat="44.37325499251289" lon="9.245843142126215"><ele>257.0</ele><time>2026-04-29T16:23:07Z</time></trkpt><trkpt lat="44.37338231217601" lon="9.245784915674268"><ele>257.0</ele><time>2026-04-29T16:23:09Z</time></trkpt><trkpt lat="44.373457223874375" lon="9.245833959671538"><ele>257.0</ele><time>2026-04-29T16:23:10Z</time></trkpt><trkpt lat="44.373550282554746" lon="9.245847947546567"><ele>257.0</ele><time>2026-04-29T16:23:11Z</time></trkpt><trkpt lat="44.37363310308577" lon="9.245852430667298"><ele>257.0</ele><time>2026-04-29T16:23:12Z</time></trkpt><trkpt lat="44.37369567878002" lon="9.245840875520047"><ele>257.0</ele><time>2026-04-29T16:23:13Z</time></trkpt><trkpt lat="44.37375563298461" lon="9.245808256345665"><ele>257.0</ele><time>2026-04-29T16:23:14Z</time></trkpt><trkpt lat="44.373792665980815" lon="9.24570433996899"><ele>257.0</ele><time>2026-04-29T16:23:15Z</time></trkpt><trkpt lat="44.373818197651666" lon="9.245611666243153"><ele>257.0</ele><time>2026-04-29T16:23:16Z</time></trkpt><trkpt lat="44.373790407265695" lon="9.245477968337866"><ele>254.6</ele><time>2026-04-29T16:23:17Z</time></trkpt><trkpt lat="44.3737892268235" lon="9.245352030454608"><ele>252.2</ele><time>2026-04-29T16:23:18Z</time></trkpt><trkpt lat="44.37379723073098" lon="9.245218585182734"><ele>249.8</ele><time>2026-04-29T16:23:19Z</time></trkpt><trkpt lat="44.373799641406265" lon="9.245104239085125"><ele>247.4</ele><time>2026-04-29T16:23:20Z</time></trkpt><trkpt lat="44.373757026844316" lon="9.244974469258025"><ele>245.0</ele><time>2026-04-29T16:23:21Z</time></trkpt><trkpt lat="44.37370623944338" lon="9.244850855864023"><ele>243.6</ele><time>2026-04-29T16:23:22Z</time></trkpt><trkpt lat="44.37365361560248" lon="9.244712352957968"><ele>242.2</ele><time>2026-04-29T16:23:23Z</time></trkpt><trkpt lat="44.37360836057752" lon="9.244576439061266"><ele>240.8</ele><time>2026-04-29T16:23:24Z</time></trkpt><trkpt lat="44.37356451537383" lon="9.244460639141526"><ele>239.4</ele><time>2026-04-29T16:23:25Z</time></trkpt><trkpt lat="44.373527172514066" lon="9.244361135827509"><ele>238.0</ele><time>2026-04-29T16:23:26Z</time></trkpt><trkpt lat="44.373505595060756" lon="9.244201277344292"><ele>238.0</ele><time>2026-04-29T16:23:28Z</time></trkpt><trkpt lat="44.37352971981748" lon="9.244105141367879"><ele>238.0</ele><time>2026-04-29T16:23:29Z</time></trkpt><trkpt lat="44.373567034038665" lon="9.243976516282311"><ele>238.0</ele><time>2026-04-29T16:23:30Z</time></trkpt><trkpt lat="44.373610989149775" lon="9.243837070124016"><ele>238.0</ele><time>2026-04-29T16:23:31Z</time></trkpt><trkpt lat="44.3736634316277" lon="9.24372150991988"><ele>238.0</ele><time>2026-04-29T16:23:32Z</time></trkpt><trkpt lat="44.37372116013915" lon="9.243625514068313"><ele>235.2</ele><time>2026-04-29T16:23:33Z</time></trkpt><trkpt lat="44.37378482606604" lon="9.243497173156697"><ele>232.4</ele><time>2026-04-29T16:23:34Z</time></trkpt><trkpt lat="44.37386283708326" lon="9.243374163671932"><ele>229.59999999999997</ele><time>2026-04-29T16:23:35Z</time></trkpt><trkpt lat="44.373924592314296" lon="9.243242587237527"><ele>226.79999999999998</ele><time>2026-04-29T16:23:36Z</time></trkpt><trkpt lat="44.37397541334" lon="9.243124962553189"><ele>224.0</ele><time>2026-04-29T16:23:37Z</time></trkpt><trkpt lat="44.37401695278683" lon="9.243038158353393"><ele>224.00000000000003</ele><time>2026-04-29T16:23:38Z</time></trkpt><trkpt lat="44.374071904534" lon="9.242964971567568"><ele>224.0</ele><time>2026-04-29T16:23:39Z</time></trkpt><trkpt lat="44.3741535975548" lon="9.242938448785873"><ele>224.0</ele><time>2026-04-29T16:23:40Z</time></trkpt><trkpt lat="44.37422825804419" lon="9.242877120701904"><ele>224.0</ele><time>2026-04-29T16:23:41Z</time></trkpt><trkpt lat="44.37430512577037" lon="9.242842613837706"><ele>224.00000000000003</ele><time>2026-04-29T16:23:42Z</time></trkpt><trkpt lat="44.37438571999836" lon="9.242867071223422"><ele>224.0</ele><time>2026-04-29T16:23:43Z</time></trkpt><trkpt lat="44.374469638419214" lon="9.24288692220921"><ele>224.0</ele><time>2026-04-29T16:23:44Z</time></trkpt><trkpt lat="44.37456059706529" lon="9.24291088431493"><ele>223.99999999999997</ele><time>2026-04-29T16:23:45Z</time></trkpt><trkpt lat="44.37466584186378" lon="9.242938616038156"><ele>223.99999999999997</ele><time>2026-04-29T16:23:46Z</time></trkpt><trkpt lat="44.37478911820958" lon="9.242971233023267"><ele>224.0</ele><time>2026-04-29T16:23:47Z</time></trkpt><trkpt lat="44.37490581063753" lon="9.2429999053382"><ele>224.0</ele><time>2026-04-29T16:23:48Z</time></trkpt><trkpt lat="44.375009598662295" lon="9.243019827273127"><ele>225.00000000000003</ele><time>2026-04-29T16:23:49Z</time></trkpt><trkpt lat="44.37509374226026" lon="9.243024844376581"><ele>226.0</ele><time>2026-04-29T16:23:50Z</time></trkpt><trkpt lat="44.37517636746923" lon="9.24301209366723"><ele>227.0</ele><time>2026-04-29T16:23:51Z</time></trkpt><trkpt lat="44.37525412274509" lon="9.242985852763196"><ele>228.0</ele><time>2026-04-29T16:23:52Z</time></trkpt><trkpt lat="44.37532819510559" lon="9.242945853171461"><ele>229.00000000000003</ele><time>2026-04-29T16:23:53Z</time></trkpt><trkpt lat="44.375391645924424" lon="9.242900354956815"><ele>230.0</ele><time>2026-04-29T16:23:54Z</time></trkpt><trkpt lat="44.37544681244885" lon="9.242811778290132"><ele>230.00000000000003</ele><time>2026-04-29T16:23:55Z</time></trkpt><trkpt lat="44.37549417716077" lon="9.242722664149397"><ele>230.0</ele><time>2026-04-29T16:23:56Z</time></trkpt><trkpt lat="44.37551778416485" lon="9.24260686039961"><ele>230.0</ele><time>2026-04-29T16:23:57Z</time></trkpt><trkpt lat="44.375536746706416" lon="9.242475617754344"><ele>230.0</ele><time>2026-04-29T16:23:58Z</time></trkpt><trkpt lat="44.37557902528992" lon="9.242379717461205"><ele>230.00000000000003</ele><time>2026-04-29T16:23:59Z</time></trkpt><trkpt lat="44.37561636720908" lon="9.242298721527337"><ele>230.0</ele><time>2026-04-29T16:24:00Z</time></trkpt><trkpt lat="44.37572173277862" lon="9.242228649385016"><ele>226.8</ele><time>2026-04-29T16:24:02Z</time></trkpt><trkpt lat="44.37581663450402" lon="9.242191975285648"><ele>223.6</ele><time>2026-04-29T16:24:03Z</time></trkpt><trkpt lat="44.37588354793881" lon="9.242173926851109"><ele>220.39999999999998</ele><time>2026-04-29T16:24:04Z</time></trkpt><trkpt lat="44.37595481553907" lon="9.24218927416542"><ele>217.2</ele><time>2026-04-29T16:24:05Z</time></trkpt><trkpt lat="44.376023216924295" lon="9.242184610597135"><ele>214.0</ele><time>2026-04-29T16:24:06Z</time></trkpt><trkpt lat="44.37614714751709" lon="9.242285810828784"><ele>216.2</ele><time>2026-04-29T16:24:08Z</time></trkpt><trkpt lat="44.37623929644333" lon="9.242355716786731"><ele>218.39999999999998</ele><time>2026-04-29T16:24:09Z</time></trkpt><trkpt lat="44.3763372510432" lon="9.2423894502368"><ele>220.6</ele><time>2026-04-29T16:24:10Z</time></trkpt><trkpt lat="44.37644062198772" lon="9.242381403755763"><ele>222.8</ele><time>2026-04-29T16:24:11Z</time></trkpt><trkpt lat="44.37653014784489" lon="9.242349082631991"><ele>225.0</ele><time>2026-04-29T16:24:12Z</time></trkpt><trkpt lat="44.376613581399184" lon="9.242272545688342"><ele>225.0</ele><time>2026-04-29T16:24:13Z</time></trkpt><trkpt lat="44.376692974230394" lon="9.242181295226109"><ele>225.0</ele><time>2026-04-29T16:24:14Z</time></trkpt><trkpt lat="44.37677180956412" lon="9.242076258363918"><ele>225.0</ele><time>2026-04-29T16:24:15Z</time></trkpt><trkpt lat="44.376839470519776" lon="9.241950347338094"><ele>225.0</ele><time>2026-04-29T16:24:16Z</time></trkpt><trkpt lat="44.376897668939414" lon="9.241808717656046"><ele>225.0</ele><time>2026-04-29T16:24:17Z</time></trkpt><trkpt lat="44.376939255155904" lon="9.241678918877646"><ele>225.0</ele><time>2026-04-29T16:24:18Z</time></trkpt><trkpt lat="44.37697932779634" lon="9.241575520970782"><ele>225.0</ele><time>2026-04-29T16:24:19Z</time></trkpt><trkpt lat="44.377064555167905" lon="9.24146002861694"><ele>225.0</ele><time>2026-04-29T16:24:21Z</time></trkpt><trkpt lat="44.37712701202764" lon="9.241432847785735"><ele>225.0</ele><time>2026-04-29T16:24:22Z</time></trkpt><trkpt lat="44.37719880057829" lon="9.241459311576639"><ele>225.0</ele><time>2026-04-29T16:24:23Z</time></trkpt><trkpt lat="44.37728190214616" lon="9.241450036619328"><ele>225.0</ele><time>2026-04-29T16:24:24Z</time></trkpt><trkpt lat="44.37734510096485" lon="9.241419169469209"><ele>230.33333333333334</ele><time>2026-04-29T16:24:25Z</time></trkpt><trkpt lat="44.377394027781655" lon="9.241349479518858"><ele>235.66666666666669</ele><time>2026-04-29T16:24:26Z</time></trkpt><trkpt lat="44.377398438480455" lon="9.241192235612466"><ele>241.0</ele><time>2026-04-29T16:24:27Z</time></trkpt><trkpt lat="44.377410093309116" lon="9.241083282183247"><ele>246.33333333333334</ele><time>2026-04-29T16:24:28Z</time></trkpt><trkpt lat="44.3773940180968" lon="9.240987356472985"><ele>251.66666666666669</ele><time>2026-04-29T16:24:29Z</time></trkpt><trkpt lat="44.37735353291554" lon="9.24091898855252"><ele>257.0</ele><time>2026-04-29T16:24:30Z</time></trkpt><trkpt lat="44.37728573386824" lon="9.240869328172247"><ele>249.25</ele><time>2026-04-29T16:24:31Z</time></trkpt><trkpt lat="44.37716857400822" lon="9.240854033742595"><ele>241.5</ele><time>2026-04-29T16:24:32Z</time></trkpt><trkpt lat="44.37703816584386" lon="9.240843281555296"><ele>233.75</ele><time>2026-04-29T16:24:33Z</time></trkpt><trkpt lat="44.3769171129049" lon="9.240817921633376"><ele>226.0</ele><time>2026-04-29T16:24:34Z</time></trkpt><trkpt lat="44.37681615395108" lon="9.24078858165189"><ele>226.0</ele><time>2026-04-29T16:24:35Z</time></trkpt><trkpt lat="44.37671307157309" lon="9.24074243512824"><ele>226.0</ele><time>2026-04-29T16:24:36Z</time></trkpt><trkpt lat="44.37660961508506" lon="9.240659785212939"><ele>226.0</ele><time>2026-04-29T16:24:37Z</time></trkpt><trkpt lat="44.3764953053051" lon="9.240580416815341"><ele>226.0</ele><time>2026-04-29T16:24:38Z</time></trkpt><trkpt lat="44.376379649178894" lon="9.240503596833948"><ele>220.8</ele><time>2026-04-29T16:24:39Z</time></trkpt><trkpt lat="44.37627463755333" lon="9.24042350968193"><ele>215.60000000000002</ele><time>2026-04-29T16:24:40Z</time></trkpt><trkpt lat="44.37619717978509" lon="9.240382555640501"><ele>210.4</ele><time>2026-04-29T16:24:41Z</time></trkpt><trkpt lat="44.376107877201896" lon="9.240288617579514"><ele>205.2</ele><time>2026-04-29T16:24:43Z</time></trkpt><trkpt lat="44.37605869341071" lon="9.240210253009852"><ele>200.0</ele><time>2026-04-29T16:24:44Z</time></trkpt><trkpt lat="44.37602093297095" lon="9.240113820130235"><ele>200.00000000000003</ele><time>2026-04-29T16:24:45Z</time></trkpt><trkpt lat="44.3759867726393" lon="9.23998608436989"><ele>200.0</ele><time>2026-04-29T16:24:46Z</time></trkpt><trkpt lat="44.37596421677227" lon="9.239866849050136"><ele>200.0</ele><time>2026-04-29T16:24:47Z</time></trkpt><trkpt lat="44.37594801855417" lon="9.23975170709973"><ele>200.0</ele><time>2026-04-29T16:24:48Z</time></trkpt><trkpt lat="44.37594526658137" lon="9.239642461219216"><ele>200.00000000000003</ele><time>2026-04-29T16:24:49Z</time></trkpt><trkpt lat="44.37596188072415" lon="9.239525447589765"><ele>200.0</ele><time>2026-04-29T16:24:50Z</time></trkpt><trkpt lat="44.375988595729" lon="9.239386258807327"><ele>200.2</ele><time>2026-04-29T16:24:51Z</time></trkpt><trkpt lat="44.37600007034863" lon="9.239240002306875"><ele>200.4</ele><time>2026-04-29T16:24:52Z</time></trkpt><trkpt lat="44.37600217081955" lon="9.239102018412286"><ele>200.60000000000002</ele><time>2026-04-29T16:24:53Z</time></trkpt><trkpt lat="44.37600665605958" lon="9.238971464426582"><ele>200.8</ele><time>2026-04-29T16:24:54Z</time></trkpt><trkpt lat="44.37604494797714" lon="9.238840697224747"><ele>201.0</ele><time>2026-04-29T16:24:55Z</time></trkpt><trkpt lat="44.376079137695505" lon="9.23871638605034"><ele>199.5</ele><time>2026-04-29T16:24:56Z</time></trkpt><trkpt lat="44.376126669978625" lon="9.238564363386997"><ele>198.0</ele><time>2026-04-29T16:24:57Z</time></trkpt><trkpt lat="44.37618749684651" lon="9.23842006104418"><ele>196.5</ele><time>2026-04-29T16:24:58Z</time></trkpt><trkpt lat="44.37623617552407" lon="9.238280448337614"><ele>195.0</ele><time>2026-04-29T16:24:59Z</time></trkpt><trkpt lat="44.37631885376179" lon="9.238164757861416"><ele>199.66666666666666</ele><time>2026-04-29T16:25:00Z</time></trkpt><trkpt lat="44.37636929353663" lon="9.238038904566613"><ele>204.33333333333331</ele><time>2026-04-29T16:25:01Z</time></trkpt><trkpt lat="44.376418370256445" lon="9.237916790017339"><ele>209.0</ele><time>2026-04-29T16:25:02Z</time></trkpt><trkpt lat="44.37644894724073" lon="9.237794987037596"><ele>213.66666666666666</ele><time>2026-04-29T16:25:03Z</time></trkpt><trkpt lat="44.37647034653119" lon="9.237686635158397"><ele>218.33333333333331</ele><time>2026-04-29T16:25:04Z</time></trkpt><trkpt lat="44.3765110078513" lon="9.237603219868681"><ele>223.0</ele><time>2026-04-29T16:25:05Z</time></trkpt><trkpt lat="44.37656878677138" lon="9.237551398909181"><ele>222.99999999999997</ele><time>2026-04-29T16:25:06Z</time></trkpt><trkpt lat="44.376623118894955" lon="9.23749790058573"><ele>223.0</ele><time>2026-04-29T16:25:07Z</time></trkpt><trkpt lat="44.37668238327492" lon="9.237432184365215"><ele>223.0</ele><time>2026-04-29T16:25:08Z</time></trkpt><trkpt lat="44.37672404545739" lon="9.237306554713964"><ele>223.0</ele><time>2026-04-29T16:25:10Z</time></trkpt><trkpt lat="44.37670069149154" lon="9.237216565705333"><ele>222.99999999999997</ele><time>2026-04-29T16:25:11Z</time></trkpt><trkpt lat="44.37663142730309" lon="9.237151652862408"><ele>223.0</ele><time>2026-04-29T16:25:12Z</time></trkpt><trkpt lat="44.376511778337935" lon="9.237113855625623"><ele>222.0</ele><time>2026-04-29T16:25:14Z</time></trkpt><trkpt lat="44.37643553424675" lon="9.237183069850891"><ele>221.0</ele><time>2026-04-29T16:25:15Z</time></trkpt><trkpt lat="44.376346042384945" lon="9.237239194661548"><ele>220.0</ele><time>2026-04-29T16:25:16Z</time></trkpt><trkpt lat="44.376268686102" lon="9.237288223010868"><ele>219.0</ele><time>2026-04-29T16:25:17Z</time></trkpt><trkpt lat="44.37618552425898" lon="9.237340552046305"><ele>218.0</ele><time>2026-04-29T16:25:18Z</time></trkpt><trkpt lat="44.37610592322651" lon="9.23739610806455"><ele>218.00000000000003</ele><time>2026-04-29T16:25:19Z</time></trkpt><trkpt lat="44.37603498144461" lon="9.23746341230677"><ele>218.0</ele><time>2026-04-29T16:25:20Z</time></trkpt><trkpt lat="44.37595887778621" lon="9.237527598000646"><ele>218.0</ele><time>2026-04-29T16:25:21Z</time></trkpt><trkpt lat="44.37589417338717" lon="9.23760121494243"><ele>218.0</ele><time>2026-04-29T16:25:22Z</time></trkpt><trkpt lat="44.37582870699787" lon="9.237649505924539"><ele>218.00000000000003</ele><time>2026-04-29T16:25:23Z</time></trkpt><trkpt lat="44.37576550259567" lon="9.237716471874887"><ele>218.0</ele><time>2026-04-29T16:25:24Z</time></trkpt><trkpt lat="44.37569499547368" lon="9.237768048649636"><ele>218.00000000000003</ele><time>2026-04-29T16:25:25Z</time></trkpt><trkpt lat="44.37564919389162" lon="9.237852126100996"><ele>218.0</ele><time>2026-04-29T16:25:26Z</time></trkpt><trkpt lat="44.37559314742217" lon="9.237934997621094"><ele>218.0</ele><time>2026-04-29T16:25:27Z</time></trkpt><trkpt lat="44.375533952693296" lon="9.238018412304942"><ele>218.0</ele><time>2026-04-29T16:25:28Z</time></trkpt><trkpt lat="44.375475245325326" lon="9.238112998944837"><ele>218.00000000000003</ele><time>2026-04-29T16:25:29Z</time></trkpt><trkpt lat="44.37540632669367" lon="9.238203706784583"><ele>218.0</ele><time>2026-04-29T16:25:30Z</time></trkpt><trkpt lat="44.375326411542" lon="9.238267960671422"><ele>218.2</ele><time>2026-04-29T16:25:31Z</time></trkpt><trkpt lat="44.375267129685305" lon="9.23838849663347"><ele>218.4</ele><time>2026-04-29T16:25:32Z</time></trkpt><trkpt lat="44.37520655446269" lon="9.238482892839631"><ele>218.59999999999997</ele><time>2026-04-29T16:25:33Z</time></trkpt><trkpt lat="44.375154039847956" lon="9.238589556838328"><ele>218.79999999999998</ele><time>2026-04-29T16:25:34Z</time></trkpt><trkpt lat="44.37509739787488" lon="9.23870113046549"><ele>219.0</ele><time>2026-04-29T16:25:35Z</time></trkpt><trkpt lat="44.375036529941006" lon="9.23881821633985"><ele>219.0</ele><time>2026-04-29T16:25:36Z</time></trkpt><trkpt lat="44.374971825973134" lon="9.238927201395159"><ele>218.99999999999997</ele><time>2026-04-29T16:25:37Z</time></trkpt><trkpt lat="44.37491130743027" lon="9.23903178975164"><ele>218.99999999999997</ele><time>2026-04-29T16:25:38Z</time></trkpt><trkpt lat="44.37487039598812" lon="9.239159057859744"><ele>219.0</ele><time>2026-04-29T16:25:39Z</time></trkpt><trkpt lat="44.37482592845714" lon="9.23927261826711"><ele>219.0</ele><time>2026-04-29T16:25:40Z</time></trkpt><trkpt lat="44.374761487810254" lon="9.239371694250341"><ele>217.6</ele><time>2026-04-29T16:25:41Z</time></trkpt><trkpt lat="44.37469393679026" lon="9.239454727007965"><ele>216.2</ele><time>2026-04-29T16:25:42Z</time></trkpt><trkpt lat="44.374591420248706" lon="9.239508821883414"><ele>214.79999999999998</ele><time>2026-04-29T16:25:43Z</time></trkpt><trkpt lat="44.37447865178501" lon="9.239547370880981"><ele>213.39999999999998</ele><time>2026-04-29T16:25:44Z</time></trkpt><trkpt lat="44.374350611178144" lon="9.239570846328338"><ele>212.0</ele><time>2026-04-29T16:25:45Z</time></trkpt><trkpt lat="44.3742234807155" lon="9.239587538400869"><ele>212.0</ele><time>2026-04-29T16:25:46Z</time></trkpt><trkpt lat="44.3740938588704" lon="9.239597895571139"><ele>212.0</ele><time>2026-04-29T16:25:47Z</time></trkpt><trkpt lat="44.373967983489855" lon="9.239646637541844"><ele>212.0</ele><time>2026-04-29T16:25:48Z</time></trkpt><trkpt lat="44.3738478115981" lon="9.239718933735452"><ele>212.0</ele><time>2026-04-29T16:25:49Z</time></trkpt><trkpt lat="44.373739452335336" lon="9.239798251605619"><ele>205.0</ele><time>2026-04-29T16:25:50Z</time></trkpt><trkpt lat="44.37364799547156" lon="9.239890207329818"><ele>198.0</ele><time>2026-04-29T16:25:51Z</time></trkpt><trkpt lat="44.373551853464235" lon="9.239965911443457"><ele>191.0</ele><time>2026-04-29T16:25:52Z</time></trkpt><trkpt lat="44.37345969786454" lon="9.24001669431477"><ele>184.0</ele><time>2026-04-29T16:25:53Z</time></trkpt><trkpt lat="44.37336207914426" lon="9.240044907462666"><ele>177.0</ele><time>2026-04-29T16:25:54Z</time></trkpt><trkpt lat="44.37326403596223" lon="9.240022250028646"><ele>177.0</ele><time>2026-04-29T16:25:55Z</time></trkpt><trkpt lat="44.373154215489066" lon="9.239998963445196"><ele>177.0</ele><time>2026-04-29T16:25:56Z</time></trkpt><trkpt lat="44.37303493166253" lon="9.239956167377587"><ele>177.0</ele><time>2026-04-29T16:25:57Z</time></trkpt><trkpt lat="44.37291092785444" lon="9.239899301007243"><ele>177.0</ele><time>2026-04-29T16:25:58Z</time></trkpt><trkpt lat="44.37279331989739" lon="9.239849895335647"><ele>178.39999999999998</ele><time>2026-04-29T16:25:59Z</time></trkpt><trkpt lat="44.37268088721806" lon="9.239820386697447"><ele>179.79999999999998</ele><time>2026-04-29T16:26:00Z</time></trkpt><trkpt lat="44.372572689186875" lon="9.239800505256746"><ele>181.2</ele><time>2026-04-29T16:26:01Z</time></trkpt><trkpt lat="44.372477479408225" lon="9.239765658175434"><ele>182.6</ele><time>2026-04-29T16:26:02Z</time></trkpt><trkpt lat="44.37239611713339" lon="9.239720591908895"><ele>184.0</ele><time>2026-04-29T16:26:03Z</time></trkpt><trkpt lat="44.37231753057507" lon="9.23964402027436"><ele>184.0</ele><time>2026-04-29T16:26:04Z</time></trkpt><trkpt lat="44.372251699884536" lon="9.239524894302418"><ele>184.0</ele><time>2026-04-29T16:26:05Z</time></trkpt><trkpt lat="44.372187912996594" lon="9.239364703509683"><ele>184.0</ele><time>2026-04-29T16:26:06Z</time></trkpt><trkpt lat="44.37213119881852" lon="9.239211986482468"><ele>184.0</ele><time>2026-04-29T16:26:07Z</time></trkpt><trkpt lat="44.372090754742494" lon="9.23907266297133"><ele>176.75</ele><time>2026-04-29T16:26:08Z</time></trkpt><trkpt lat="44.37209017440665" lon="9.238907239605581"><ele>169.5</ele><time>2026-04-29T16:26:09Z</time></trkpt><trkpt lat="44.37205830135313" lon="9.23872105570172"><ele>162.25</ele><time>2026-04-29T16:26:10Z</time></trkpt><trkpt lat="44.37203238781797" lon="9.238553062464316"><ele>155.0</ele><time>2026-04-29T16:26:11Z</time></trkpt><trkpt lat="44.372013801668245" lon="9.238383393909409"><ele>155.0</ele><time>2026-04-29T16:26:12Z</time></trkpt><trkpt lat="44.372002514269575" lon="9.238223422306614"><ele>155.0</ele><time>2026-04-29T16:26:13Z</time></trkpt><trkpt lat="44.371999816964504" lon="9.238069947809182"><ele>155.0</ele><time>2026-04-29T16:26:14Z</time></trkpt><trkpt lat="44.37200892296319" lon="9.237935391185516"><ele>155.0</ele><time>2026-04-29T16:26:15Z</time></trkpt><trkpt lat="44.372023559827824" lon="9.237831562745198"><ele>155.0</ele><time>2026-04-29T16:26:16Z</time></trkpt><trkpt lat="44.37200735036656" lon="9.237733117173828"><ele>161.8</ele><time>2026-04-29T16:26:17Z</time></trkpt><trkpt lat="44.37195878938238" lon="9.23765193467977"><ele>168.6</ele><time>2026-04-29T16:26:18Z</time></trkpt><trkpt lat="44.37189163281548" lon="9.237613797407358"><ele>175.39999999999998</ele><time>2026-04-29T16:26:19Z</time></trkpt><trkpt lat="44.371810157896086" lon="9.237629604576314"><ele>182.2</ele><time>2026-04-29T16:26:20Z</time></trkpt><trkpt lat="44.37173025344127" lon="9.237692932361046"><ele>189.0</ele><time>2026-04-29T16:26:21Z</time></trkpt><trkpt lat="44.371616353177856" lon="9.237810787966213"><ele>189.0</ele><time>2026-04-29T16:26:22Z</time></trkpt><trkpt lat="44.37152389118342" lon="9.237951479273896"><ele>189.0</ele><time>2026-04-29T16:26:23Z</time></trkpt><trkpt lat="44.37144910196566" lon="9.238070789383599"><ele>189.0</ele><time>2026-04-29T16:26:24Z</time></trkpt><trkpt lat="44.371380240155965" lon="9.238165177396116"><ele>189.0</ele><time>2026-04-29T16:26:25Z</time></trkpt><trkpt lat="44.371302855018484" lon="9.238232581218048"><ele>189.0</ele><time>2026-04-29T16:26:26Z</time></trkpt><trkpt lat="44.37121669963534" lon="9.238281689607224"><ele>180.39999999999998</ele><time>2026-04-29T16:26:27Z</time></trkpt><trkpt lat="44.37111785573522" lon="9.238311110035845"><ele>171.79999999999998</ele><time>2026-04-29T16:26:28Z</time></trkpt><trkpt lat="44.370999436114786" lon="9.238325084216804"><ele>163.2</ele><time>2026-04-29T16:26:29Z</time></trkpt><trkpt lat="44.3708806374389" lon="9.238299123600848"><ele>154.6</ele><time>2026-04-29T16:26:30Z</time></trkpt><trkpt lat="44.37078223855914" lon="9.23831397119383"><ele>146.0</ele><time>2026-04-29T16:26:31Z</time></trkpt><trkpt lat="44.37068612152359" lon="9.23836850004727"><ele>146.0</ele><time>2026-04-29T16:26:32Z</time></trkpt><trkpt lat="44.37059308725154" lon="9.238439670247063"><ele>146.0</ele><time>2026-04-29T16:26:33Z</time></trkpt><trkpt lat="44.370517323862245" lon="9.238509592089725"><ele>146.0</ele><time>2026-04-29T16:26:34Z</time></trkpt><trkpt lat="44.3704299336621" lon="9.238542666567874"><ele>146.0</ele><time>2026-04-29T16:26:35Z</time></trkpt><trkpt lat="44.37035872669592" lon="9.238547999661604"><ele>146.0</ele><time>2026-04-29T16:26:36Z</time></trkpt><trkpt lat="44.370286848418445" lon="9.238514326880814"><ele>146.0</ele><time>2026-04-29T16:26:37Z</time></trkpt><trkpt lat="44.37022531504358" lon="9.238447595465576"><ele>144.0</ele><time>2026-04-29T16:26:38Z</time></trkpt><trkpt lat="44.370191210686635" lon="9.238330791725781"><ele>142.0</ele><time>2026-04-29T16:26:39Z</time></trkpt><trkpt lat="44.370162780117155" lon="9.238177279002795"><ele>140.0</ele><time>2026-04-29T16:26:40Z</time></trkpt><trkpt lat="44.370124613581424" lon="9.238001516111717"><ele>138.0</ele><time>2026-04-29T16:26:41Z</time></trkpt><trkpt lat="44.37008219572578" lon="9.237833452683441"><ele>138.0</ele><time>2026-04-29T16:26:42Z</time></trkpt><trkpt lat="44.370039384642425" lon="9.237679997354416"><ele>138.0</ele><time>2026-04-29T16:26:43Z</time></trkpt><trkpt lat="44.36999209484057" lon="9.237544897433374"><ele>138.0</ele><time>2026-04-29T16:26:44Z</time></trkpt><trkpt lat="44.36993576708309" lon="9.237420471945738"><ele>138.0</ele><time>2026-04-29T16:26:45Z</time></trkpt><trkpt lat="44.36989665975091" lon="9.237291841299298"><ele>138.0</ele><time>2026-04-29T16:26:46Z</time></trkpt><trkpt lat="44.36987667284998" lon="9.23715699772497"><ele>139.4</ele><time>2026-04-29T16:26:47Z</time></trkpt><trkpt lat="44.36986786405126" lon="9.237044149799118"><ele>140.8</ele><time>2026-04-29T16:26:48Z</time></trkpt><trkpt lat="44.36983754528571" lon="9.23695195413053"><ele>142.2</ele><time>2026-04-29T16:26:49Z</time></trkpt><trkpt lat="44.36977614368914" lon="9.236906272487042"><ele>143.6</ele><time>2026-04-29T16:26:50Z</time></trkpt><trkpt lat="44.36967353169969" lon="9.236886984252113"><ele>145.0</ele><time>2026-04-29T16:26:51Z</time></trkpt><trkpt lat="44.36954632755704" lon="9.236869330181015"><ele>145.0</ele><time>2026-04-29T16:26:52Z</time></trkpt><trkpt lat="44.36941507586488" lon="9.236801745545337"><ele>145.0</ele><time>2026-04-29T16:26:53Z</time></trkpt><trkpt lat="44.36930609916337" lon="9.236736636288551"><ele>145.0</ele><time>2026-04-29T16:26:54Z</time></trkpt><trkpt lat="44.36920284957936" lon="9.236713274382154"><ele>145.0</ele><time>2026-04-29T16:26:55Z</time></trkpt><trkpt lat="44.36909180393913" lon="9.236705012990326"><ele>145.0</ele><time>2026-04-29T16:26:56Z</time></trkpt><trkpt lat="44.3689744091159" lon="9.236720076260905"><ele>145.0</ele><time>2026-04-29T16:26:57Z</time></trkpt><trkpt lat="44.368851618717045" lon="9.236742069992287"><ele>145.0</ele><time>2026-04-29T16:26:58Z</time></trkpt><trkpt lat="44.36873579170851" lon="9.236765885060247"><ele>145.0</ele><time>2026-04-29T16:26:59Z</time></trkpt><trkpt lat="44.36863053483193" lon="9.236804976639496"><ele>141.8</ele><time>2026-04-29T16:27:00Z</time></trkpt><trkpt lat="44.368533204652145" lon="9.236838986870307"><ele>138.6</ele><time>2026-04-29T16:27:01Z</time></trkpt><trkpt lat="44.36844392443849" lon="9.23690146893345"><ele>135.4</ele><time>2026-04-29T16:27:02Z</time></trkpt><trkpt lat="44.368352668139174" lon="9.236927588096357"><ele>132.2</ele><time>2026-04-29T16:27:03Z</time></trkpt><trkpt lat="44.36826633040454" lon="9.236932486983024"><ele>129.0</ele><time>2026-04-29T16:27:04Z</time></trkpt><trkpt lat="44.36817937974491" lon="9.236917043050644"><ele>129.0</ele><time>2026-04-29T16:27:05Z</time></trkpt><trkpt lat="44.368105782687934" lon="9.23687132368749"><ele>129.0</ele><time>2026-04-29T16:27:06Z</time></trkpt><trkpt lat="44.36805542650162" lon="9.236796473629358"><ele>129.0</ele><time>2026-04-29T16:27:07Z</time></trkpt><trkpt lat="44.368000883361475" lon="9.236708395308668"><ele>129.0</ele><time>2026-04-29T16:27:08Z</time></trkpt><trkpt lat="44.36795594910767" lon="9.23661918424291"><ele>129.0</ele><time>2026-04-29T16:27:09Z</time></trkpt><trkpt lat="44.367905743779176" lon="9.236511542379715"><ele>129.0</ele><time>2026-04-29T16:27:10Z</time></trkpt><trkpt lat="44.367854821966326" lon="9.236402364204261"><ele>124.0</ele><time>2026-04-29T16:27:11Z</time></trkpt><trkpt lat="44.36779723715201" lon="9.236275084410426"><ele>119.0</ele><time>2026-04-29T16:27:12Z</time></trkpt><trkpt lat="44.367759570750884" lon="9.236188815043107"><ele>114.0</ele><time>2026-04-29T16:27:13Z</time></trkpt><trkpt lat="44.36772605877909" lon="9.236112058814763"><ele>109.0</ele><time>2026-04-29T16:27:14Z</time></trkpt><trkpt lat="44.367540662353164" lon="9.235921726147229"><ele>109.00000000000001</ele><time>2026-04-29T16:27:15Z</time></trkpt><trkpt lat="44.367473595714564" lon="9.235823881338403"><ele>109.0</ele><time>2026-04-29T16:27:16Z</time></trkpt><trkpt lat="44.36740579739218" lon="9.235729400138169"><ele>109.0</ele><time>2026-04-29T16:27:17Z</time></trkpt><trkpt lat="44.36735199568907" lon="9.235651206330646"><ele>109.0</ele><time>2026-04-29T16:27:18Z</time></trkpt><trkpt lat="44.3673224795525" lon="9.235544774629393"><ele>109.00000000000001</ele><time>2026-04-29T16:27:19Z</time></trkpt><trkpt lat="44.367336148471516" lon="9.235425190645833"><ele>109.0</ele><time>2026-04-29T16:27:20Z</time></trkpt><trkpt lat="44.367358794483046" lon="9.235288376300115"><ele>108.75</ele><time>2026-04-29T16:27:21Z</time></trkpt><trkpt lat="44.36738346352933" lon="9.235113120164677"><ele>108.5</ele><time>2026-04-29T16:27:22Z</time></trkpt><trkpt lat="44.36742930891856" lon="9.234904209915937"><ele>108.25</ele><time>2026-04-29T16:27:23Z</time></trkpt><trkpt lat="44.36748178447909" lon="9.234693664103853"><ele>108.0</ele><time>2026-04-29T16:27:24Z</time></trkpt><trkpt lat="44.36753205067841" lon="9.234490539942303"><ele>108.0</ele><time>2026-04-29T16:27:25Z</time></trkpt><trkpt lat="44.367588012326145" lon="9.234303177017706"><ele>108.0</ele><time>2026-04-29T16:27:26Z</time></trkpt><trkpt lat="44.367650256836406" lon="9.234126820218641"><ele>108.0</ele><time>2026-04-29T16:27:27Z</time></trkpt><trkpt lat="44.36770820186795" lon="9.23395555011603"><ele>108.0</ele><time>2026-04-29T16:27:28Z</time></trkpt><trkpt lat="44.36776652353752" lon="9.233798800278217"><ele>110.33333333333333</ele><time>2026-04-29T16:27:29Z</time></trkpt><trkpt lat="44.36781077298043" lon="9.233668408553193"><ele>112.66666666666666</ele><time>2026-04-29T16:27:30Z</time></trkpt><trkpt lat="44.36784327821658" lon="9.233572923181132"><ele>115.0</ele><time>2026-04-29T16:27:31Z</time></trkpt><trkpt lat="44.36784956889471" lon="9.233417014912963"><ele>117.33333333333333</ele><time>2026-04-29T16:27:33Z</time></trkpt><trkpt lat="44.36780524847053" lon="9.233340628284648"><ele>119.66666666666666</ele><time>2026-04-29T16:27:34Z</time></trkpt><trkpt lat="44.36773917037177" lon="9.23330553783117"><ele>122.0</ele><time>2026-04-29T16:27:35Z</time></trkpt><trkpt lat="44.36765952127269" lon="9.23333666728421"><ele>122.0</ele><time>2026-04-29T16:27:36Z</time></trkpt><trkpt lat="44.367597125498115" lon="9.233420976855609"><ele>122.0</ele><time>2026-04-29T16:27:37Z</time></trkpt><trkpt lat="44.36748464354763" lon="9.233522705267063"><ele>122.0</ele><time>2026-04-29T16:27:38Z</time></trkpt><trkpt lat="44.367371006825074" lon="9.233704650641755"><ele>122.0</ele><time>2026-04-29T16:27:39Z</time></trkpt><trkpt lat="44.36728253713146" lon="9.23388610629118"><ele>122.75</ele><time>2026-04-29T16:27:40Z</time></trkpt><trkpt lat="44.367179211738645" lon="9.234029408006856"><ele>123.5</ele><time>2026-04-29T16:27:41Z</time></trkpt><trkpt lat="44.36709179338117" lon="9.234180881232692"><ele>124.25</ele><time>2026-04-29T16:27:42Z</time></trkpt><trkpt lat="44.36699220636365" lon="9.234332186619596"><ele>125.0</ele><time>2026-04-29T16:27:43Z</time></trkpt><trkpt lat="44.36691741518701" lon="9.23449654329488"><ele>125.0</ele><time>2026-04-29T16:27:44Z</time></trkpt><trkpt lat="44.36685002545834" lon="9.234653399313558"><ele>125.0</ele><time>2026-04-29T16:27:45Z</time></trkpt><trkpt lat="44.366750035593626" lon="9.234795718619063"><ele>125.0</ele><time>2026-04-29T16:27:46Z</time></trkpt><trkpt lat="44.36668499039255" lon="9.234915945340669"><ele>125.0</ele><time>2026-04-29T16:27:47Z</time></trkpt><trkpt lat="44.366633598590234" lon="9.235062846251084"><ele>120.0</ele><time>2026-04-29T16:27:48Z</time></trkpt><trkpt lat="44.3665842381015" lon="9.235216096765136"><ele>115.0</ele><time>2026-04-29T16:27:49Z</time></trkpt><trkpt lat="44.36654306220839" lon="9.235350252940584"><ele>110.0</ele><time>2026-04-29T16:27:50Z</time></trkpt><trkpt lat="44.36649105109075" lon="9.235449901816182"><ele>105.0</ele><time>2026-04-29T16:27:51Z</time></trkpt><trkpt lat="44.36642398308193" lon="9.235552512992408"><ele>100.0</ele><time>2026-04-29T16:27:52Z</time></trkpt><trkpt lat="44.36633056609369" lon="9.235655040634889"><ele>94.2</ele><time>2026-04-29T16:27:53Z</time></trkpt><trkpt lat="44.366254565219585" lon="9.235716528715221"><ele>88.4</ele><time>2026-04-29T16:27:54Z</time></trkpt><trkpt lat="44.36614697343594" lon="9.235738616328376"><ele>82.6</ele><time>2026-04-29T16:27:55Z</time></trkpt><trkpt lat="44.36605263974853" lon="9.23572438011033"><ele>76.8</ele><time>2026-04-29T16:27:56Z</time></trkpt><trkpt lat="44.36595363195596" lon="9.235692567478853"><ele>71.0</ele><time>2026-04-29T16:27:57Z</time></trkpt><trkpt lat="44.36586890975608" lon="9.235657281200927"><ele>74.19999999999999</ele><time>2026-04-29T16:27:58Z</time></trkpt><trkpt lat="44.365790922754485" lon="9.235595749534195"><ele>77.39999999999999</ele><time>2026-04-29T16:27:59Z</time></trkpt><trkpt lat="44.36573767919137" lon="9.235512039140641"><ele>80.6</ele><time>2026-04-29T16:28:00Z</time></trkpt><trkpt lat="44.36567606942719" lon="9.235410549570062"><ele>83.8</ele><time>2026-04-29T16:28:01Z</time></trkpt><trkpt lat="44.365631300286765" lon="9.23528245038161"><ele>87.0</ele><time>2026-04-29T16:28:02Z</time></trkpt><trkpt lat="44.36560982353779" lon="9.235134550301938"><ele>87.0</ele><time>2026-04-29T16:28:03Z</time></trkpt><trkpt lat="44.365594938685916" lon="9.23495346323126"><ele>87.0</ele><time>2026-04-29T16:28:04Z</time></trkpt><trkpt lat="44.365563502828024" lon="9.234763539802568"><ele>87.0</ele><time>2026-04-29T16:28:05Z</time></trkpt><trkpt lat="44.365503710053275" lon="9.234560182773103"><ele>87.0</ele><time>2026-04-29T16:28:06Z</time></trkpt><trkpt lat="44.36543181726799" lon="9.234356614688043"><ele>89.0</ele><time>2026-04-29T16:28:07Z</time></trkpt><trkpt lat="44.36534700904761" lon="9.234167012373932"><ele>91.0</ele><time>2026-04-29T16:28:08Z</time></trkpt><trkpt lat="44.36526849432982" lon="9.234011170936393"><ele>93.0</ele><time>2026-04-29T16:28:09Z</time></trkpt><trkpt lat="44.36522521723887" lon="9.233882748942136"><ele>95.0</ele><time>2026-04-29T16:28:10Z</time></trkpt><trkpt lat="44.36518787237224" lon="9.233789932806616"><ele>95.0</ele><time>2026-04-29T16:28:11Z</time></trkpt><trkpt lat="44.36513515587133" lon="9.233721552887623"><ele>95.0</ele><time>2026-04-29T16:28:12Z</time></trkpt><trkpt lat="44.365056693543444" lon="9.233703851827576"><ele>95.0</ele><time>2026-04-29T16:28:13Z</time></trkpt><trkpt lat="44.36494842218735" lon="9.233733785218138"><ele>95.0</ele><time>2026-04-29T16:28:14Z</time></trkpt><trkpt lat="44.364847850112646" lon="9.233797348073734"><ele>95.0</ele><time>2026-04-29T16:28:15Z</time></trkpt><trkpt lat="44.36475981314416" lon="9.233827564331673"><ele>96.25</ele><time>2026-04-29T16:28:16Z</time></trkpt><trkpt lat="44.3646537539717" lon="9.233813455920368"><ele>97.5</ele><time>2026-04-29T16:28:17Z</time></trkpt><trkpt lat="44.364544252843345" lon="9.233773260684261"><ele>98.75</ele><time>2026-04-29T16:28:18Z</time></trkpt><trkpt lat="44.364422793871505" lon="9.233744493908864"><ele>100.0</ele><time>2026-04-29T16:28:19Z</time></trkpt><trkpt lat="44.36430224872975" lon="9.233773641996267"><ele>100.0</ele><time>2026-04-29T16:28:20Z</time></trkpt><trkpt lat="44.364167713544965" lon="9.23385597620648"><ele>100.0</ele><time>2026-04-29T16:28:21Z</time></trkpt><trkpt lat="44.36403343830556" lon="9.233959879346655"><ele>100.0</ele><time>2026-04-29T16:28:22Z</time></trkpt><trkpt lat="44.36390329946726" lon="9.234067776136559"><ele>94.5</ele><time>2026-04-29T16:28:23Z</time></trkpt><trkpt lat="44.3637619276391" lon="9.234170120811578"><ele>89.0</ele><time>2026-04-29T16:28:24Z</time></trkpt><trkpt lat="44.36364270414307" lon="9.234241469510156"><ele>83.5</ele><time>2026-04-29T16:28:25Z</time></trkpt><trkpt lat="44.36353329998584" lon="9.234346093154903"><ele>78.0</ele><time>2026-04-29T16:28:26Z</time></trkpt><trkpt lat="44.36342791834759" lon="9.234455309324307"><ele>78.0</ele><time>2026-04-29T16:28:27Z</time></trkpt><trkpt lat="44.363313698316325" lon="9.23455534233801"><ele>78.0</ele><time>2026-04-29T16:28:28Z</time></trkpt><trkpt lat="44.36321142212119" lon="9.234632746869226"><ele>78.0</ele><time>2026-04-29T16:28:29Z</time></trkpt><trkpt lat="44.36309913736271" lon="9.23469256240758"><ele>78.0</ele><time>2026-04-29T16:28:30.001Z</time></trkpt><trkpt lat="44.362985660397946" lon="9.234730463211394"><ele>77.5</ele><time>2026-04-29T16:28:31.001Z</time></trkpt><trkpt lat="44.36285015375861" lon="9.234772727161394"><ele>77.0</ele><time>2026-04-29T16:28:32Z</time></trkpt><trkpt lat="44.36272715540441" lon="9.234799105523138"><ele>76.5</ele><time>2026-04-29T16:28:33.001Z</time></trkpt><trkpt lat="44.36261984733815" lon="9.234826390339945"><ele>76.0</ele><time>2026-04-29T16:28:34Z</time></trkpt><trkpt lat="44.36251953608185" lon="9.234821668113204"><ele>76.0</ele><time>2026-04-29T16:28:35Z</time></trkpt><trkpt lat="44.36241374789436" lon="9.234806844355514"><ele>76.0</ele><time>2026-04-29T16:28:36Z</time></trkpt><trkpt lat="44.36231239137185" lon="9.23475539389498"><ele>76.0</ele><time>2026-04-29T16:28:37Z</time></trkpt><trkpt lat="44.362206632291596" lon="9.23467878678618"><ele>76.0</ele><time>2026-04-29T16:28:38Z</time></trkpt><trkpt lat="44.36211139783619" lon="9.234604068427396"><ele>76.0</ele><time>2026-04-29T16:28:39Z</time></trkpt><trkpt lat="44.36201938647438" lon="9.23452822898175"><ele>71.2</ele><time>2026-04-29T16:28:40Z</time></trkpt><trkpt lat="44.36193854844634" lon="9.234443521400028"><ele>66.39999999999999</ele><time>2026-04-29T16:28:41Z</time></trkpt><trkpt lat="44.361857614032054" lon="9.23434723088509"><ele>61.6</ele><time>2026-04-29T16:28:42Z</time></trkpt><trkpt lat="44.361791097690904" lon="9.234276344507048"><ele>56.8</ele><time>2026-04-29T16:28:43Z</time></trkpt><trkpt lat="44.36172292050798" lon="9.23421813180837"><ele>52.0</ele><time>2026-04-29T16:28:44Z</time></trkpt><trkpt lat="44.36164469164299" lon="9.234177944688595"><ele>51.99999999999999</ele><time>2026-04-29T16:28:45Z</time></trkpt><trkpt lat="44.36156572341454" lon="9.23415637305416"><ele>52.0</ele><time>2026-04-29T16:28:46Z</time></trkpt><trkpt lat="44.361475584390064" lon="9.234154697138676"><ele>52.0</ele><time>2026-04-29T16:28:47Z</time></trkpt><trkpt lat="44.361389077911696" lon="9.234157480035984"><ele>52.0</ele><time>2026-04-29T16:28:48Z</time></trkpt><trkpt lat="44.361310047964" lon="9.2341676004576"><ele>51.99999999999999</ele><time>2026-04-29T16:28:49Z</time></trkpt><trkpt lat="44.36124286520099" lon="9.234182989810874"><ele>52.0</ele><time>2026-04-29T16:28:50Z</time></trkpt><trkpt lat="44.36117302361854" lon="9.234203156464003"><ele>52.83333333333333</ele><time>2026-04-29T16:28:51Z</time></trkpt><trkpt lat="44.36111286844887" lon="9.234246880416418"><ele>53.666666666666664</ele><time>2026-04-29T16:28:52Z</time></trkpt><trkpt lat="44.36103051463424" lon="9.234364564238318"><ele>54.5</ele><time>2026-04-29T16:28:54Z</time></trkpt><trkpt lat="44.36100346744618" lon="9.234445021432611"><ele>55.33333333333333</ele><time>2026-04-29T16:28:55Z</time></trkpt><trkpt lat="44.36097733965835" lon="9.234525403963891"><ele>56.166666666666664</ele><time>2026-04-29T16:28:56Z</time></trkpt><trkpt lat="44.36096500681928" lon="9.23463923400507"><ele>57.0</ele><time>2026-04-29T16:28:57Z</time></trkpt><trkpt lat="44.360950611323716" lon="9.234740340353772"><ele>53.166666666666664</ele><time>2026-04-29T16:28:58Z</time></trkpt><trkpt lat="44.36094411233947" lon="9.234835754225603"><ele>49.333333333333336</ele><time>2026-04-29T16:28:59Z</time></trkpt><trkpt lat="44.36093488332958" lon="9.234927647941706"><ele>45.5</ele><time>2026-04-29T16:29:00Z</time></trkpt><trkpt lat="44.360928384426906" lon="9.235103276205015"><ele>41.66666666666667</ele><time>2026-04-29T16:29:02Z</time></trkpt><trkpt lat="44.360907569713504" lon="9.235187691468447"><ele>37.833333333333336</ele><time>2026-04-29T16:29:03Z</time></trkpt><trkpt lat="44.36087065210077" lon="9.235262590268091"><ele>34.0</ele><time>2026-04-29T16:29:04Z</time></trkpt><trkpt lat="44.36077103901519" lon="9.235361008113605"><ele>34.0</ele><time>2026-04-29T16:29:06Z</time></trkpt><trkpt lat="44.36070157326468" lon="9.2353477490834"><ele>34.0</ele><time>2026-04-29T16:29:07Z</time></trkpt><trkpt lat="44.36063427270802" lon="9.235312821726572"><ele>34.0</ele><time>2026-04-29T16:29:08Z</time></trkpt><trkpt lat="44.36055639152163" lon="9.235237358882872"><ele>34.0</ele><time>2026-04-29T16:29:09Z</time></trkpt><trkpt lat="44.3604575067102" lon="9.23514201267636"><ele>34.0</ele><time>2026-04-29T16:29:10Z</time></trkpt><trkpt lat="44.36036887626773" lon="9.235036957647935"><ele>33.833333333333336</ele><time>2026-04-29T16:29:11Z</time></trkpt><trkpt lat="44.3602989857605" lon="9.234917319561022"><ele>33.66666666666667</ele><time>2026-04-29T16:29:12Z</time></trkpt><trkpt lat="44.36025698106614" lon="9.234786083109586"><ele>33.5</ele><time>2026-04-29T16:29:13Z</time></trkpt><trkpt lat="44.36023129673794" lon="9.2346717404634"><ele>33.333333333333336</ele><time>2026-04-29T16:29:14Z</time></trkpt><trkpt lat="44.36021404682132" lon="9.234571263183058"><ele>33.166666666666664</ele><time>2026-04-29T16:29:15Z</time></trkpt><trkpt lat="44.360184382034106" lon="9.234475254449812"><ele>33.0</ele><time>2026-04-29T16:29:16Z</time></trkpt><trkpt lat="44.36012475841811" lon="9.234341344187847"><ele>35.333333333333336</ele><time>2026-04-29T16:29:18Z</time></trkpt><trkpt lat="44.36007959197773" lon="9.234264146255622"><ele>37.666666666666664</ele><time>2026-04-29T16:29:20Z</time></trkpt><trkpt lat="44.360028402179644" lon="9.234202750931718"><ele>40.0</ele><time>2026-04-29T16:29:22Z</time></trkpt><trkpt lat="44.35992757577587" lon="9.23412641040493"><ele>42.33333333333333</ele><time>2026-04-29T16:29:24Z</time></trkpt><trkpt lat="44.35986105164708" lon="9.23411413490053"><ele>44.666666666666664</ele><time>2026-04-29T16:29:25Z</time></trkpt><trkpt lat="44.359778946294284" lon="9.234138184267698"><ele>47.0</ele><time>2026-04-29T16:29:26Z</time></trkpt><trkpt lat="44.35970596710025" lon="9.234183890865616"><ele>46.285714285714285</ele><time>2026-04-29T16:29:27Z</time></trkpt><trkpt lat="44.359645220332595" lon="9.234252689736222"><ele>45.57142857142857</ele><time>2026-04-29T16:29:28Z</time></trkpt><trkpt lat="44.359593831167324" lon="9.234308786269377"><ele>44.85714285714286</ele><time>2026-04-29T16:29:29Z</time></trkpt><trkpt lat="44.359536590694965" lon="9.234370559451841"><ele>44.14285714285714</ele><time>2026-04-29T16:29:30Z</time></trkpt><trkpt lat="44.35948380280031" lon="9.234430152431202"><ele>43.42857142857143</ele><time>2026-04-29T16:29:31Z</time></trkpt><trkpt lat="44.35943225424427" lon="9.23448905478608"><ele>42.714285714285715</ele><time>2026-04-29T16:29:32Z</time></trkpt><trkpt lat="44.359383594105225" lon="9.234560902473563"><ele>42.0</ele><time>2026-04-29T16:29:33Z</time></trkpt><trkpt lat="44.35931118252662" lon="9.2346090670287"><ele>42.0</ele><time>2026-04-29T16:29:34Z</time></trkpt><trkpt lat="44.35925386494218" lon="9.234687466344518"><ele>42.0</ele><time>2026-04-29T16:29:35Z</time></trkpt><trkpt lat="44.359207770490166" lon="9.23477218430531"><ele>42.0</ele><time>2026-04-29T16:29:36Z</time></trkpt><trkpt lat="44.35917153609199" lon="9.234851200711393"><ele>42.0</ele><time>2026-04-29T16:29:37Z</time></trkpt><trkpt lat="44.35912722190626" lon="9.23494356142217"><ele>42.0</ele><time>2026-04-29T16:29:38Z</time></trkpt><trkpt lat="44.35907496199141" lon="9.235068013390412"><ele>42.0</ele><time>2026-04-29T16:29:40Z</time></trkpt><trkpt lat="44.359008831917734" lon="9.235126411463566"><ele>39.833333333333336</ele><time>2026-04-29T16:29:41Z</time></trkpt><trkpt lat="44.358938185188514" lon="9.2351764713196"><ele>37.666666666666664</ele><time>2026-04-29T16:29:42Z</time></trkpt><trkpt lat="44.3588636548548" lon="9.235216400515238"><ele>35.5</ele><time>2026-04-29T16:29:43Z</time></trkpt><trkpt lat="44.358788512217224" lon="9.23522825823187"><ele>33.33333333333333</ele><time>2026-04-29T16:29:44Z</time></trkpt><trkpt lat="44.35872605046015" lon="9.235210263668705"><ele>31.166666666666664</ele><time>2026-04-29T16:29:45Z</time></trkpt><trkpt lat="44.35863594476301" lon="9.23514547323293"><ele>29.0</ele><time>2026-04-29T16:29:47Z</time></trkpt><trkpt lat="44.35858504559654" lon="9.235083859311626"><ele>28.4</ele><time>2026-04-29T16:29:48Z</time></trkpt><trkpt lat="44.35852886826195" lon="9.23501094602336"><ele>27.799999999999997</ele><time>2026-04-29T16:29:49Z</time></trkpt><trkpt lat="44.358452822134446" lon="9.234930601299471"><ele>27.200000000000003</ele><time>2026-04-29T16:29:50Z</time></trkpt><trkpt lat="44.358365515438074" lon="9.234836425865671"><ele>26.6</ele><time>2026-04-29T16:29:51Z</time></trkpt><trkpt lat="44.358284552716135" lon="9.234704816906014"><ele>26.0</ele><time>2026-04-29T16:29:52Z</time></trkpt><trkpt lat="44.358187567231866" lon="9.234627704460241"><ele>26.200000000000003</ele><time>2026-04-29T16:29:53Z</time></trkpt><trkpt lat="44.358110374814565" lon="9.234555616152628"><ele>26.400000000000002</ele><time>2026-04-29T16:29:54Z</time></trkpt><trkpt lat="44.35801804900785" lon="9.234494842346779"><ele>26.6</ele><time>2026-04-29T16:29:55Z</time></trkpt><trkpt lat="44.35791716783429" lon="9.234446025020995"><ele>26.8</ele><time>2026-04-29T16:29:56Z</time></trkpt><trkpt lat="44.35781103442689" lon="9.23439784976058"><ele>27.0</ele><time>2026-04-29T16:29:57Z</time></trkpt><trkpt lat="44.35770866928707" lon="9.234347223689202"><ele>27.0</ele><time>2026-04-29T16:29:58Z</time></trkpt><trkpt lat="44.35761071634711" lon="9.234301160553573"><ele>27.000000000000004</ele><time>2026-04-29T16:29:59Z</time></trkpt><trkpt lat="44.35751910695574" lon="9.23425317725214"><ele>27.000000000000004</ele><time>2026-04-29T16:30:00Z</time></trkpt><trkpt lat="44.35743330727727" lon="9.234186667256575"><ele>27.0</ele><time>2026-04-29T16:30:01Z</time></trkpt><trkpt lat="44.35737886263311" lon="9.234121449663677"><ele>27.0</ele><time>2026-04-29T16:30:02Z</time></trkpt><trkpt lat="44.35725823307317" lon="9.234091267168692"><ele>26.333333333333332</ele><time>2026-04-29T16:30:03Z</time></trkpt><trkpt lat="44.35716918160606" lon="9.234055306906772"><ele>25.666666666666668</ele><time>2026-04-29T16:30:04Z</time></trkpt><trkpt lat="44.357080607225484" lon="9.234026206922302"><ele>25.0</ele><time>2026-04-29T16:30:05Z</time></trkpt><trkpt lat="44.35699646621894" lon="9.234000598733425"><ele>24.333333333333336</ele><time>2026-04-29T16:30:06Z</time></trkpt><trkpt lat="44.356907631737826" lon="9.23398485939668"><ele>23.666666666666668</ele><time>2026-04-29T16:30:07Z</time></trkpt><trkpt lat="44.35682244521034" lon="9.233972094550825"><ele>23.0</ele><time>2026-04-29T16:30:08Z</time></trkpt><trkpt lat="44.35674103252943" lon="9.233988179226484"><ele>23.0</ele><time>2026-04-29T16:30:09Z</time></trkpt><trkpt lat="44.35666167546063" lon="9.234028454481267"><ele>23.0</ele><time>2026-04-29T16:30:10Z</time></trkpt><trkpt lat="44.3565824507625" lon="9.234094131134938"><ele>23.0</ele><time>2026-04-29T16:30:11Z</time></trkpt><trkpt lat="44.356502548638886" lon="9.234181212110885"><ele>23.0</ele><time>2026-04-29T16:30:12Z</time></trkpt><trkpt lat="44.35643372867469" lon="9.234267026348816"><ele>23.0</ele><time>2026-04-29T16:30:13Z</time></trkpt><trkpt lat="44.35636739997913" lon="9.23435990672631"><ele>22.857142857142858</ele><time>2026-04-29T16:30:14Z</time></trkpt><trkpt lat="44.35631765500508" lon="9.234431577459054"><ele>22.71428571428571</ele><time>2026-04-29T16:30:15Z</time></trkpt><trkpt lat="44.35627010330241" lon="9.23450286033734"><ele>22.57142857142857</ele><time>2026-04-29T16:30:16Z</time></trkpt><trkpt lat="44.35622028519786" lon="9.234577789511052"><ele>22.42857142857143</ele><time>2026-04-29T16:30:17Z</time></trkpt><trkpt lat="44.35616493583615" lon="9.234661968450375"><ele>22.285714285714285</ele><time>2026-04-29T16:30:18Z</time></trkpt><trkpt lat="44.356115926494155" lon="9.234736506056391"><ele>22.142857142857142</ele><time>2026-04-29T16:30:19Z</time></trkpt><trkpt lat="44.356064829487934" lon="9.234815513377765"><ele>22.0</ele><time>2026-04-29T16:30:20Z</time></trkpt><trkpt lat="44.35601473740398" lon="9.23490176371255"><ele>22.0</ele><time>2026-04-29T16:30:21Z</time></trkpt><trkpt lat="44.35596840864719" lon="9.234989562485733"><ele>22.0</ele><time>2026-04-29T16:30:22Z</time></trkpt><trkpt lat="44.35592272467415" lon="9.235086577947177"><ele>22.0</ele><time>2026-04-29T16:30:23Z</time></trkpt><trkpt lat="44.35588620781515" lon="9.235175395439986"><ele>22.0</ele><time>2026-04-29T16:30:24Z</time></trkpt><trkpt lat="44.35585601005477" lon="9.23525974038202"><ele>22.0</ele><time>2026-04-29T16:30:25Z</time></trkpt><trkpt lat="44.355814351778236" lon="9.235330171155214"><ele>22.0</ele><time>2026-04-29T16:30:26Z</time></trkpt><trkpt lat="44.355739722563186" lon="9.235433587288364"><ele>22.0</ele><time>2026-04-29T16:30:28Z</time></trkpt><trkpt lat="44.355628276514544" lon="9.235482374000922"><ele>22.0</ele><time>2026-04-29T16:30:30Z</time></trkpt><trkpt lat="44.355553958391404" lon="9.235492000422246"><ele>22.0</ele><time>2026-04-29T16:30:31Z</time></trkpt><trkpt lat="44.355484493784246" lon="9.235489192450755"><ele>22.0</ele><time>2026-04-29T16:30:32Z</time></trkpt><trkpt lat="44.35541711709554" lon="9.23548942172983"><ele>22.0</ele><time>2026-04-29T16:30:33Z</time></trkpt><trkpt lat="44.35534702900872" lon="9.23548948453133"><ele>22.0</ele><time>2026-04-29T16:30:34Z</time></trkpt><trkpt lat="44.355274566986665" lon="9.235484504906752"><ele>22.333333333333332</ele><time>2026-04-29T16:30:35Z</time></trkpt><trkpt lat="44.355203745521806" lon="9.235484251636374"><ele>22.666666666666664</ele><time>2026-04-29T16:30:36Z</time></trkpt><trkpt lat="44.35513223225646" lon="9.235483658340602"><ele>23.0</ele><time>2026-04-29T16:30:37Z</time></trkpt><trkpt lat="44.35505756399853" lon="9.235479038447314"><ele>23.333333333333332</ele><time>2026-04-29T16:30:38Z</time></trkpt><trkpt lat="44.35499116981645" lon="9.235469808629341"><ele>23.666666666666668</ele><time>2026-04-29T16:30:39Z</time></trkpt><trkpt lat="44.35492630055412" lon="9.235472020734878"><ele>24.0</ele><time>2026-04-29T16:30:40Z</time></trkpt><trkpt lat="44.3548043663266" lon="9.235449152544625"><ele>23.5</ele><time>2026-04-29T16:30:42Z</time></trkpt><trkpt lat="44.35468088561714" lon="9.235442321794537"><ele>23.0</ele><time>2026-04-29T16:30:44Z</time></trkpt><trkpt lat="44.35460686215089" lon="9.235426678346734"><ele>22.5</ele><time>2026-04-29T16:30:45Z</time></trkpt><trkpt lat="44.35453327173966" lon="9.23539373684871"><ele>22.0</ele><time>2026-04-29T16:30:46Z</time></trkpt><trkpt lat="44.35445498238217" lon="9.235364944486255"><ele>21.5</ele><time>2026-04-29T16:30:47Z</time></trkpt><trkpt lat="44.35439065542411" lon="9.235321046530938"><ele>21.0</ele><time>2026-04-29T16:30:48Z</time></trkpt><trkpt lat="44.35432109453449" lon="9.235289920964954"><ele>21.0</ele><time>2026-04-29T16:30:49Z</time></trkpt><trkpt lat="44.3542497535957" lon="9.235256356508867"><ele>21.0</ele><time>2026-04-29T16:30:50Z</time></trkpt><trkpt lat="44.35416197784551" lon="9.235215059869903"><ele>21.0</ele><time>2026-04-29T16:30:51Z</time></trkpt><trkpt lat="44.354054844284526" lon="9.235161814521629"><ele>21.0</ele><time>2026-04-29T16:30:52Z</time></trkpt><trkpt lat="44.35395788345985" lon="9.235112053946269"><ele>21.0</ele><time>2026-04-29T16:30:53Z</time></trkpt><trkpt lat="44.353867754421096" lon="9.235064357811387"><ele>20.0</ele><time>2026-04-29T16:30:54Z</time></trkpt><trkpt lat="44.35378246860781" lon="9.235017083991625"><ele>19.0</ele><time>2026-04-29T16:30:55Z</time></trkpt><trkpt lat="44.35370435496113" lon="9.234969036339534"><ele>18.0</ele><time>2026-04-29T16:30:56Z</time></trkpt><trkpt lat="44.35362102094312" lon="9.234938743874268"><ele>17.0</ele><time>2026-04-29T16:30:57Z</time></trkpt><trkpt lat="44.35355272564624" lon="9.23488304477423"><ele>16.0</ele><time>2026-04-29T16:30:58Z</time></trkpt><trkpt lat="44.35348774305826" lon="9.234832587091699"><ele>15.0</ele><time>2026-04-29T16:30:59Z</time></trkpt><trkpt lat="44.353428045915734" lon="9.234784980877036"><ele>14.833333333333334</ele><time>2026-04-29T16:31:00Z</time></trkpt><trkpt lat="44.353338566439724" lon="9.234683184861456"><ele>14.666666666666668</ele><time>2026-04-29T16:31:02Z</time></trkpt><trkpt lat="44.353239377655036" lon="9.234593428136112"><ele>14.5</ele><time>2026-04-29T16:31:04Z</time></trkpt><trkpt lat="44.35318009475182" lon="9.234539781050348"><ele>14.333333333333334</ele><time>2026-04-29T16:31:05Z</time></trkpt><trkpt lat="44.35311952897136" lon="9.234484692871177"><ele>14.166666666666668</ele><time>2026-04-29T16:31:06Z</time></trkpt><trkpt lat="44.35305940230701" lon="9.23443010136592"><ele>14.0</ele><time>2026-04-29T16:31:07Z</time></trkpt><trkpt lat="44.353002021693996" lon="9.234378003119447"><ele>13.799999999999999</ele><time>2026-04-29T16:31:08Z</time></trkpt><trkpt lat="44.35290027286357" lon="9.234285471900142"><ele>13.599999999999998</ele><time>2026-04-29T16:31:10Z</time></trkpt><trkpt lat="44.352795562678374" lon="9.234194712056846"><ele>13.4</ele><time>2026-04-29T16:31:12Z</time></trkpt><trkpt lat="44.35270648145283" lon="9.23406148091731"><ele>13.2</ele><time>2026-04-29T16:31:14Z</time></trkpt><trkpt lat="44.35265676604057" lon="9.233996716321231"><ele>13.0</ele><time>2026-04-29T16:31:15Z</time></trkpt><trkpt lat="44.3525769424362" lon="9.233892729977933"><ele>13.0</ele><time>2026-04-29T16:31:17Z</time></trkpt><trkpt lat="44.35250691438414" lon="9.233804506478462"><ele>13.0</ele><time>2026-04-29T16:31:19Z</time></trkpt><trkpt lat="44.35240805373269" lon="9.233669841987469"><ele>13.0</ele><time>2026-04-29T16:31:22Z</time></trkpt><trkpt lat="44.35234267372537" lon="9.23361031638374"><ele>13.0</ele><time>2026-04-29T16:31:23Z</time></trkpt><trkpt lat="44.352269341652104" lon="9.233562127463152"><ele>13.0</ele><time>2026-04-29T16:31:24Z</time></trkpt><trkpt lat="44.35219399961177" lon="9.233531416417328"><ele>13.166666666666666</ele><time>2026-04-29T16:31:25Z</time></trkpt><trkpt lat="44.35212106221133" lon="9.233498900874725"><ele>13.333333333333332</ele><time>2026-04-29T16:31:26Z</time></trkpt><trkpt lat="44.352050314139746" lon="9.233470422573943"><ele>13.5</ele><time>2026-04-29T16:31:27Z</time></trkpt><trkpt lat="44.35197764596562" lon="9.2334382422194"><ele>13.666666666666668</ele><time>2026-04-29T16:31:28Z</time></trkpt><trkpt lat="44.35190461039634" lon="9.233398331182446"><ele>13.833333333333334</ele><time>2026-04-29T16:31:29Z</time></trkpt><trkpt lat="44.35182740637983" lon="9.233355798863832"><ele>14.0</ele><time>2026-04-29T16:31:30Z</time></trkpt><trkpt lat="44.35174962867123" lon="9.233320364833444"><ele>14.000000000000002</ele><time>2026-04-29T16:31:31Z</time></trkpt><trkpt lat="44.351679956826956" lon="9.233292168165107"><ele>14.0</ele><time>2026-04-29T16:31:32Z</time></trkpt><trkpt lat="44.35161026651596" lon="9.233263667047337"><ele>14.0</ele><time>2026-04-29T16:31:33Z</time></trkpt><trkpt lat="44.35154039865095" lon="9.233227881110928"><ele>14.0</ele><time>2026-04-29T16:31:34Z</time></trkpt><trkpt lat="44.35146434708868" lon="9.233207853607887"><ele>14.000000000000002</ele><time>2026-04-29T16:31:35Z</time></trkpt><trkpt lat="44.351388671270186" lon="9.2331713909958"><ele>14.0</ele><time>2026-04-29T16:31:36Z</time></trkpt><trkpt lat="44.351310895077994" lon="9.233143080616296"><ele>13.428571428571429</ele><time>2026-04-29T16:31:37Z</time></trkpt><trkpt lat="44.351243455786864" lon="9.233114042576547"><ele>12.857142857142858</ele><time>2026-04-29T16:31:38Z</time></trkpt><trkpt lat="44.351188389257814" lon="9.233069740648382"><ele>12.285714285714285</ele><time>2026-04-29T16:31:39Z</time></trkpt><trkpt lat="44.35111922340264" lon="9.233036989848836"><ele>11.714285714285715</ele><time>2026-04-29T16:31:41Z</time></trkpt><trkpt lat="44.35107539726977" lon="9.232961246209737"><ele>11.142857142857142</ele><time>2026-04-29T16:31:43Z</time></trkpt><trkpt lat="44.351108014286886" lon="9.232851028155174"><ele>10.571428571428571</ele><time>2026-04-29T16:31:45Z</time></trkpt><trkpt lat="44.35115410488424" lon="9.23276959382676"><ele>10.0</ele><time>2026-04-29T16:31:46Z</time></trkpt><trkpt lat="44.35118432555577" lon="9.232682889384776"><ele>10.0</ele><time>2026-04-29T16:31:47Z</time></trkpt><trkpt lat="44.351209778096425" lon="9.232599918646653"><ele>10.0</ele><time>2026-04-29T16:31:48Z</time></trkpt><trkpt lat="44.351232708336184" lon="9.232517840149665"><ele>10.0</ele><time>2026-04-29T16:31:49Z</time></trkpt><trkpt lat="44.35125535178763" lon="9.232381055845188"><ele>10.0</ele><time>2026-04-29T16:31:51Z</time></trkpt><trkpt lat="44.351234869237906" lon="9.23228397462166"><ele>10.0</ele><time>2026-04-29T16:31:53Z</time></trkpt><trkpt lat="44.351229266842736" lon="9.232183576981019"><ele>10.0</ele><time>2026-04-29T16:31:55Z</time></trkpt><trkpt lat="44.35110763772504" lon="9.232089898915133"><ele>9.666666666666668</ele><time>2026-04-29T16:31:59Z</time></trkpt><trkpt lat="44.35103881056764" lon="9.232063350206726"><ele>9.333333333333334</ele><time>2026-04-29T16:32:02Z</time></trkpt><trkpt lat="44.3509395513623" lon="9.231984043615432"><ele>9.0</ele><time>2026-04-29T16:32:04Z</time></trkpt><trkpt lat="44.35086141002346" lon="9.231972291346846"><ele>8.666666666666666</ele><time>2026-04-29T16:32:05Z</time></trkpt><trkpt lat="44.35080762726294" lon="9.231915343012203"><ele>8.333333333333332</ele><time>2026-04-29T16:32:07Z</time></trkpt><trkpt lat="44.35074882055256" lon="9.231835092789371"><ele>8.0</ele><time>2026-04-29T16:32:15Z</time></trkpt><trkpt lat="44.35068804680093" lon="9.231773425308049"><ele>7.999999999999999</ele><time>2026-04-29T16:32:20Z</time></trkpt><trkpt lat="44.35068120869095" lon="9.231648515473282"><ele>8.0</ele><time>2026-04-29T16:32:24Z</time></trkpt><trkpt lat="44.35073437029525" lon="9.231559734532192"><ele>8.0</ele><time>2026-04-29T16:32:26Z</time></trkpt><trkpt lat="44.35076686930511" lon="9.231482537689516"><ele>8.0</ele><time>2026-04-29T16:32:28Z</time></trkpt><trkpt lat="44.350805582072525" lon="9.231378842338094"><ele>7.999999999999999</ele><time>2026-04-29T16:32:31Z</time></trkpt><trkpt lat="44.350822061749504" lon="9.231267237510792"><ele>8.0</ele><time>2026-04-29T16:32:34Z</time></trkpt><trkpt lat="44.350820191453415" lon="9.231141524643258"><ele>7.833333333333333</ele><time>2026-04-29T16:32:37Z</time></trkpt><trkpt lat="44.35081602828084" lon="9.231033315159587"><ele>7.666666666666666</ele><time>2026-04-29T16:32:39Z</time></trkpt><trkpt lat="44.35080491182934" lon="9.230910883149795"><ele>7.5</ele><time>2026-04-29T16:32:41.999Z</time></trkpt><trkpt lat="44.350751275912216" lon="9.230861482408308"><ele>7.333333333333334</ele><time>2026-04-29T16:32:44.999Z</time></trkpt><trkpt lat="44.350701533180924" lon="9.230968841295539"><ele>7.166666666666667</ele><time>2026-04-29T16:41:05Z</time></trkpt><trkpt lat="44.35075862681207" lon="9.230868897265818"><ele>7.0</ele><time>2026-04-29T16:41:13Z</time></trkpt><trkpt lat="44.35069332105495" lon="9.230814695111745"><ele>7.0</ele><time>2026-04-29T16:44:26Z</time></trkpt><trkpt lat="44.35063369935023" lon="9.230725950801528"><ele>6.999999999999999</ele><time>2026-04-29T16:44:28Z</time></trkpt><trkpt lat="44.350601526765516" lon="9.230569484689395"><ele>6.999999999999999</ele><time>2026-04-29T16:44:30Z</time></trkpt><trkpt lat="44.350605697564745" lon="9.230407815306915"><ele>7.0</ele><time>2026-04-29T16:44:32Z</time></trkpt><trkpt lat="44.3506105824194" lon="9.230309551855713"><ele>7.0</ele><time>2026-04-29T16:44:33Z</time></trkpt><trkpt lat="44.3506178257578" lon="9.2302066654735"><ele>7.3999999999999995</ele><time>2026-04-29T16:44:34Z</time></trkpt><trkpt lat="44.350627870297366" lon="9.230024222917397"><ele>7.799999999999999</ele><time>2026-04-29T16:44:36Z</time></trkpt><trkpt lat="44.35063676888687" lon="9.229882752112653"><ele>8.2</ele><time>2026-04-29T16:44:38Z</time></trkpt><trkpt lat="44.350648180346404" lon="9.229738887518506"><ele>8.6</ele><time>2026-04-29T16:44:40Z</time></trkpt><trkpt lat="44.350652819572254" lon="9.229594604080756"><ele>9.0</ele><time>2026-04-29T16:44:42Z</time></trkpt><trkpt lat="44.350664429925445" lon="9.22945102899692"><ele>9.333333333333334</ele><time>2026-04-29T16:44:44Z</time></trkpt><trkpt lat="44.35066939255328" lon="9.229292825687665"><ele>9.666666666666666</ele><time>2026-04-29T16:44:46Z</time></trkpt><trkpt lat="44.35067538949662" lon="9.22920099224421"><ele>10.0</ele><time>2026-04-29T16:44:47Z</time></trkpt><trkpt lat="44.350676289604195" lon="9.229020716861585"><ele>10.333333333333332</ele><time>2026-04-29T16:44:49Z</time></trkpt><trkpt lat="44.350685301221084" lon="9.228927982290825"><ele>10.666666666666666</ele><time>2026-04-29T16:44:50Z</time></trkpt><trkpt lat="44.35069402229159" lon="9.228840429863558"><ele>11.0</ele><time>2026-04-29T16:44:51Z</time></trkpt><trkpt lat="44.350707977484255" lon="9.228685235711865"><ele>11.0</ele><time>2026-04-29T16:44:53Z</time></trkpt><trkpt lat="44.350665098757624" lon="9.228558177830461"><ele>11.0</ele><time>2026-04-29T16:44:55Z</time></trkpt><trkpt lat="44.35060962846031" lon="9.228509468466147"><ele>11.0</ele><time>2026-04-29T16:44:56Z</time></trkpt><trkpt lat="44.35052565947345" lon="9.228397160219595"><ele>11.0</ele><time>2026-04-29T16:44:58Z</time></trkpt><trkpt lat="44.350449543316984" lon="9.22829218888337"><ele>11.0</ele><time>2026-04-29T16:45:00Z</time></trkpt><trkpt lat="44.35036073752636" lon="9.228192202274363"><ele>11.0</ele><time>2026-04-29T16:45:02Z</time></trkpt><trkpt lat="44.350297844120696" lon="9.22807704636062"><ele>11.0</ele><time>2026-04-29T16:45:03.999Z</time></trkpt><trkpt lat="44.350270806259125" lon="9.22794898286531"><ele>11.0</ele><time>2026-04-29T16:45:05.999Z</time></trkpt><trkpt lat="44.35028709555102" lon="9.227845813383691"><ele>11.0</ele><time>2026-04-29T16:45:07.999Z</time></trkpt><trkpt lat="44.35032969678701" lon="9.227771402600993"><ele>11.0</ele><time>2026-04-29T16:45:08.999Z</time></trkpt><trkpt lat="44.35041529914358" lon="9.227628888594115"><ele>11.0</ele><time>2026-04-29T16:45:10.999Z</time></trkpt><trkpt lat="44.35047195173208" lon="9.227563012390421"><ele>11.0</ele><time>2026-04-29T16:45:11.999Z</time></trkpt><trkpt lat="44.35051317208559" lon="9.227473592741651"><ele>11.0</ele><time>2026-04-29T16:45:12.999Z</time></trkpt><trkpt lat="44.35057709181092" lon="9.227388557988537"><ele>11.0</ele><time>2026-04-29T16:45:14.999Z</time></trkpt><trkpt lat="44.35063823256805" lon="9.227304526082078"><ele>11.0</ele><time>2026-04-29T16:45:17.999Z</time></trkpt><trkpt lat="44.35071208943802" lon="9.227225946306808"><ele>11.0</ele><time>2026-04-29T16:45:19.999Z</time></trkpt><trkpt lat="44.350774727683664" lon="9.22716661514546"><ele>10.714285714285715</ele><time>2026-04-29T16:45:20.999Z</time></trkpt><trkpt lat="44.35075050565988" lon="9.227071075918051"><ele>10.428571428571429</ele><time>2026-04-29T16:45:22.999Z</time></trkpt><trkpt lat="44.3506999700783" lon="9.227003862175973"><ele>10.142857142857142</ele><time>2026-04-29T16:45:24.999Z</time></trkpt><trkpt lat="44.35063930894903" lon="9.22697658871457"><ele>9.857142857142858</ele><time>2026-04-29T16:45:25.999Z</time></trkpt><trkpt lat="44.350626337703076" lon="9.226875768722957"><ele>9.571428571428571</ele><time>2026-04-29T16:45:26.999Z</time></trkpt><trkpt lat="44.350552237554616" lon="9.226803485423801"><ele>9.285714285714286</ele><time>2026-04-29T16:45:28.999Z</time></trkpt><trkpt lat="44.35049795208693" lon="9.2267496649062"><ele>9.0</ele><time>2026-04-29T16:45:29.999Z</time></trkpt><trkpt lat="44.35039326621667" lon="9.226645875611299"><ele>9.0</ele><time>2026-04-29T16:45:31.999Z</time></trkpt><trkpt lat="44.35033355978058" lon="9.226555019595315"><ele>9.0</ele><time>2026-04-29T16:45:32.999Z</time></trkpt><trkpt lat="44.35027129484731" lon="9.22650703757402"><ele>9.0</ele><time>2026-04-29T16:45:34.999Z</time></trkpt><trkpt lat="44.35019338135195" lon="9.226404635678517"><ele>9.0</ele><time>2026-04-29T16:45:36.999Z</time></trkpt><trkpt lat="44.350123646730495" lon="9.226350344238545"><ele>9.0</ele><time>2026-04-29T16:45:38.999Z</time></trkpt><trkpt lat="44.35006639802634" lon="9.226288204509473"><ele>9.0</ele><time>2026-04-29T16:45:42.999Z</time></trkpt><trkpt lat="44.34996110575453" lon="9.226393790086094"><ele>9.0</ele><time>2026-04-29T16:45:46.999Z</time></trkpt><trkpt lat="44.34990994917857" lon="9.226493022547212"><ele>9.0</ele><time>2026-04-29T16:45:47.999Z</time></trkpt><trkpt lat="44.349874854026254" lon="9.226593447979687"><ele>9.0</ele><time>2026-04-29T16:45:48.999Z</time></trkpt><trkpt lat="44.34982158310592" lon="9.226690538234909"><ele>9.0</ele><time>2026-04-29T16:45:49.999Z</time></trkpt><trkpt lat="44.349776148455625" lon="9.226781605844488"><ele>9.0</ele><time>2026-04-29T16:45:50.999Z</time></trkpt><trkpt lat="44.3497406043611" lon="9.226856018443081"><ele>9.0</ele><time>2026-04-29T16:45:51.999Z</time></trkpt><trkpt lat="44.34969614423018" lon="9.22692378161322"><ele>8.833333333333334</ele><time>2026-04-29T16:45:52.999Z</time></trkpt><trkpt lat="44.349650065913124" lon="9.226998947364072"><ele>8.666666666666666</ele><time>2026-04-29T16:45:53.999Z</time></trkpt><trkpt lat="44.34958731855833" lon="9.227139841246897"><ele>8.5</ele><time>2026-04-29T16:45:55.999Z</time></trkpt><trkpt lat="44.34952047642795" lon="9.227248133619383"><ele>8.333333333333332</ele><time>2026-04-29T16:45:57.999Z</time></trkpt><trkpt lat="44.34948814241154" lon="9.227334920765045"><ele>8.166666666666666</ele><time>2026-04-29T16:45:59.999Z</time></trkpt><trkpt lat="44.349430811945666" lon="9.227417606878769"><ele>8.0</ele><time>2026-04-29T16:46:01.999Z</time></trkpt><trkpt lat="44.349395610129505" lon="9.227495961763848"><ele>8.600000000000001</ele><time>2026-04-29T16:46:02.999Z</time></trkpt><trkpt lat="44.34934380952034" lon="9.227623230874922"><ele>9.200000000000001</ele><time>2026-04-29T16:46:04.999Z</time></trkpt><trkpt lat="44.349286692654125" lon="9.227736373132016"><ele>9.8</ele><time>2026-04-29T16:46:06.999Z</time></trkpt><trkpt lat="44.349219057446646" lon="9.227822825691195"><ele>10.4</ele><time>2026-04-29T16:46:08.999Z</time></trkpt><trkpt lat="44.349087355174625" lon="9.22776808081454"><ele>11.0</ele><time>2026-04-29T16:46:25.999Z</time></trkpt><trkpt lat="44.349027201335076" lon="9.227729966427152"><ele>11.0</ele><time>2026-04-29T16:46:26.999Z</time></trkpt><trkpt lat="44.34897691699693" lon="9.227672284417851"><ele>11.0</ele><time>2026-04-29T16:46:27.999Z</time></trkpt><trkpt lat="44.3488856456204" lon="9.227586018116735"><ele>11.0</ele><time>2026-04-29T16:46:29.999Z</time></trkpt><trkpt lat="44.34881912471111" lon="9.227477198586753"><ele>11.0</ele><time>2026-04-29T16:46:32.999Z</time></trkpt><trkpt lat="44.348742710583174" lon="9.227366587200656"><ele>11.0</ele><time>2026-04-29T16:46:34.999Z</time></trkpt><trkpt lat="44.34868911386015" lon="9.227274162728682"><ele>10.0</ele><time>2026-04-29T16:46:36.999Z</time></trkpt><trkpt lat="44.348633152469276" lon="9.227160620465947"><ele>9.0</ele><time>2026-04-29T16:46:38.999Z</time></trkpt><trkpt lat="44.34857805890928" lon="9.22707650511915"><ele>8.0</ele><time>2026-04-29T16:46:40.999Z</time></trkpt><trkpt lat="44.34852234053707" lon="9.226991611192496"><ele>7.0</ele><time>2026-04-29T16:46:49.999Z</time></trkpt><trkpt lat="44.348584463298636" lon="9.226843177699164"><ele>6.0</ele><time>2026-04-29T16:46:56.999Z</time></trkpt><trkpt lat="44.34867782776005" lon="9.226751099610047"><ele>6.0</ele><time>2026-04-29T16:46:58.999Z</time></trkpt><trkpt lat="44.34873011221686" lon="9.226696033413843"><ele>6.0</ele><time>2026-04-29T16:46:59.999Z</time></trkpt><trkpt lat="44.348778595340995" lon="9.226632191262528"><ele>6.0</ele><time>2026-04-29T16:47:00.999Z</time></trkpt><trkpt lat="44.34883335018783" lon="9.226575628507295"><ele>6.0</ele><time>2026-04-29T16:47:01.999Z</time></trkpt><trkpt lat="44.34888551428876" lon="9.226514877527718"><ele>6.0</ele><time>2026-04-29T16:47:02.999Z</time></trkpt><trkpt lat="44.34898346452769" lon="9.226412334927181"><ele>6.0</ele><time>2026-04-29T16:47:04.999Z</time></trkpt><trkpt lat="44.349053747136765" lon="9.22632941323367"><ele>6.333333333333333</ele><time>2026-04-29T16:47:06.999Z</time></trkpt><trkpt lat="44.34911504679011" lon="9.226262063451951"><ele>6.666666666666666</ele><time>2026-04-29T16:47:08.999Z</time></trkpt><trkpt lat="44.34916834898214" lon="9.2262029359417"><ele>7.0</ele><time>2026-04-29T16:47:10.999Z</time></trkpt><trkpt lat="44.34922070217412" lon="9.226144947180801"><ele>7.333333333333333</ele><time>2026-04-29T16:47:12.999Z</time></trkpt><trkpt lat="44.34927369049297" lon="9.226091663283107"><ele>7.666666666666666</ele><time>2026-04-29T16:47:15.999Z</time></trkpt><trkpt lat="44.349316333156516" lon="9.226015634320149"><ele>8.0</ele><time>2026-04-29T16:47:40.999Z</time></trkpt><trkpt lat="44.34934905085174" lon="9.226203146665279"><ele>8.0</ele><time>2026-04-29T16:48:10Z</time></trkpt><trkpt lat="44.34938665078533" lon="9.226291910828113"><ele>8.0</ele><time>2026-04-29T16:48:17Z</time></trkpt><trkpt lat="44.34932930735165" lon="9.22636856075954"><ele>8.0</ele><time>2026-04-29T16:48:41Z</time></trkpt><trkpt lat="44.3492632723937" lon="9.22632548065618"><ele>8.0</ele><time>2026-04-29T16:48:46Z</time></trkpt><trkpt lat="44.349335893564515" lon="9.226450491612765"><ele>8.0</ele><time>2026-04-29T16:48:47Z</time></trkpt><trkpt lat="44.3494195994487" lon="9.22623075681835"><ele>7.999999999999999</ele><time>2026-04-29T16:48:49Z</time></trkpt><trkpt lat="44.349408525315226" lon="9.226342226554447"><ele>8.0</ele><time>2026-04-29T16:50:01Z</time></trkpt><trkpt lat="44.34935219291042" lon="9.226300736325427"><ele>8.0</ele><time>2026-04-29T16:50:14Z</time></trkpt><trkpt lat="44.34939411847746" lon="9.226218694218144"><ele>8.0</ele><time>2026-04-29T16:50:59Z</time></trkpt><trkpt lat="44.34945332963656" lon="9.226177985215353"><ele>7.999999999999999</ele><time>2026-04-29T16:51:26Z</time></trkpt><trkpt lat="44.34957754361691" lon="9.226155464788482"><ele>8.0</ele><time>2026-04-29T16:51:37Z</time></trkpt><trkpt lat="44.34949703265376" lon="9.226217349291698"><ele>7.999999999999999</ele><time>2026-04-29T16:51:43Z</time></trkpt><trkpt lat="44.34942970684346" lon="9.226262982693088"><ele>8.0</ele><time>2026-04-29T16:51:47Z</time></trkpt><trkpt lat="44.349341382800304" lon="9.226209778298637"><ele>8.0</ele><time>2026-04-29T16:51:56Z</time></trkpt><trkpt lat="44.34931232578907" lon="9.226129263282752"><ele>8.0</ele><time>2026-04-29T16:52:00Z</time></trkpt><trkpt lat="44.34929723007486" lon="9.226041829201549"><ele>7.999999999999999</ele><time>2026-04-29T16:52:04Z</time></trkpt><trkpt lat="44.34934365301708" lon="9.22614529318766"><ele>8.0</ele><time>2026-04-29T16:52:40Z</time></trkpt><trkpt lat="44.34940015674274" lon="9.226239656247927"><ele>8.0</ele><time>2026-04-29T16:52:42Z</time></trkpt><trkpt lat="44.34946845291956" lon="9.226253796567663"><ele>7.999999999999999</ele><time>2026-04-29T16:52:45Z</time></trkpt><trkpt lat="44.34953535571466" lon="9.226183739021268"><ele>8.0</ele><time>2026-04-29T16:52:48Z</time></trkpt><trkpt lat="44.34960432101967" lon="9.226190643774606"><ele>8.0</ele><time>2026-04-29T16:52:52.001Z</time></trkpt><trkpt lat="44.349558737123566" lon="9.226296908476662"><ele>7.999999999999999</ele><time>2026-04-29T16:53:23.001Z</time></trkpt><trkpt lat="44.34957938159579" lon="9.226208297739305"><ele>8.0</ele><time>2026-04-29T16:54:26.001Z</time></trkpt><trkpt lat="44.34951275215424" lon="9.2261752717658"><ele>8.0</ele><time>2026-04-29T16:54:32.001Z</time></trkpt><trkpt lat="44.34945292842206" lon="9.226221416329365"><ele>7.999999999999999</ele><time>2026-04-29T16:54:35.001Z</time></trkpt><trkpt lat="44.34940435122663" lon="9.226280904771171"><ele>8.0</ele><time>2026-04-29T16:54:39.001Z</time></trkpt><trkpt lat="44.349356217563944" lon="9.226135974430226"><ele>8.0</ele><time>2026-04-29T16:55:56.001Z</time></trkpt><trkpt lat="44.34944150593321" lon="9.226174259925566"><ele>8.0</ele><time>2026-04-29T16:57:11Z</time></trkpt><trkpt lat="44.349501272674615" lon="9.226131459550356"><ele>7.999999999999999</ele><time>2026-04-29T16:57:22Z</time></trkpt><trkpt lat="44.34956488627975" lon="9.226139266510357"><ele>8.0</ele><time>2026-04-29T16:57:27Z</time></trkpt><trkpt lat="44.349625386376395" lon="9.226211321195388"><ele>8.0</ele><time>2026-04-29T16:57:32Z</time></trkpt><trkpt lat="44.349636544692366" lon="9.226351152096807"><ele>7.999999999999999</ele><time>2026-04-29T16:57:58Z</time></trkpt><trkpt lat="44.3496171023333" lon="9.22626693367427"><ele>8.0</ele><time>2026-04-29T16:58:04Z</time></trkpt><trkpt lat="44.34958248987656" lon="9.22617835285878"><ele>8.0</ele><time>2026-04-29T16:58:13.001Z</time></trkpt><trkpt lat="44.34951212928674" lon="9.22616997085572"><ele>7.999999999999999</ele><time>2026-04-29T16:58:21.001Z</time></trkpt><trkpt lat="44.34944838968425" lon="9.226213033556084"><ele>8.0</ele><time>2026-04-29T16:58:25.001Z</time></trkpt><trkpt lat="44.34939174495609" lon="9.226266737684357"><ele>8.0</ele><time>2026-04-29T16:58:31.001Z</time></trkpt><trkpt lat="44.34931688187288" lon="9.22628254807083"><ele>8.0</ele><time>2026-04-29T16:59:01Z</time></trkpt><trkpt lat="44.3491718732236" lon="9.225928969689853"><ele>8.0</ele><time>2026-04-29T16:59:27Z</time></trkpt><trkpt lat="44.34862491793898" lon="9.226343966964473"><ele>8.0</ele><time>2026-04-29T16:59:31Z</time></trkpt><trkpt lat="44.34855174390404" lon="9.22636282623993"><ele>8.0</ele><time>2026-04-29T16:59:33Z</time></trkpt><trkpt lat="44.34910376702071" lon="9.226382921524998"><ele>8.0</ele><time>2026-04-29T17:00:53Z</time></trkpt><trkpt lat="44.34927496892305" lon="9.226274339197039"><ele>8.0</ele><time>2026-04-29T17:00:54Z</time></trkpt><trkpt lat="44.34919623942074" lon="9.226223361522884"><ele>8.0</ele><time>2026-04-29T17:01:01.001Z</time></trkpt><trkpt lat="44.34935195000923" lon="9.226259032520048"><ele>8.0</ele><time>2026-04-29T17:01:17Z</time></trkpt><trkpt lat="44.349409079601045" lon="9.226196962191443"><ele>8.0</ele><time>2026-04-29T17:01:23Z</time></trkpt><trkpt lat="44.34937717141999" lon="9.22628157522043"><ele>8.0</ele><time>2026-04-29T17:01:52Z</time></trkpt><trkpt lat="44.349369071673834" lon="9.226486555750324"><ele>8.0</ele><time>2026-04-29T17:02:10Z</time></trkpt><trkpt lat="44.34946953624646" lon="9.226669817140811"><ele>8.0</ele><time>2026-04-29T17:02:25Z</time></trkpt><trkpt lat="44.34954660693467" lon="9.226367906752872"><ele>8.0</ele><time>2026-04-29T17:02:35Z</time></trkpt><trkpt lat="44.34955074747562" lon="9.2260000343771"><ele>8.0</ele><time>2026-04-29T17:02:40Z</time></trkpt><trkpt lat="44.34953788702667" lon="9.226097931105862"><ele>8.0</ele><time>2026-04-29T17:02:41Z</time></trkpt><trkpt lat="44.3496830500288" lon="9.226138973423433"><ele>8.0</ele><time>2026-04-29T17:03:07Z</time></trkpt><trkpt lat="44.34965211436582" lon="9.226220408463128"><ele>8.0</ele><time>2026-04-29T17:03:10.022Z</time></trkpt><trkpt lat="44.34962927367943" lon="9.2263342347082"><ele>8.0</ele><time>2026-04-29T17:03:13Z</time></trkpt><trkpt lat="44.349621181803734" lon="9.226444608194177"><ele>8.0</ele><time>2026-04-29T17:03:16Z</time></trkpt><trkpt lat="44.349627689725274" lon="9.226557572544003"><ele>8.0</ele><time>2026-04-29T17:03:18Z</time></trkpt><trkpt lat="44.34930649092534" lon="9.226548874758478"><ele>7.999999999999999</ele><time>2026-04-29T17:03:19Z</time></trkpt><trkpt lat="44.34937120240932" lon="9.226549354893718"><ele>8.0</ele><time>2026-04-29T17:03:24Z</time></trkpt><trkpt lat="44.34934529479998" lon="9.226397098981986"><ele>8.0</ele><time>2026-04-29T17:03:36Z</time></trkpt><trkpt lat="44.34928259432946" lon="9.226356394158621"><ele>8.0</ele><time>2026-04-29T17:03:39Z</time></trkpt><trkpt lat="44.349372587346885" lon="9.22626611404974"><ele>7.999999999999999</ele><time>2026-04-29T17:03:48Z</time></trkpt><trkpt lat="44.34942025145736" lon="9.22620048929804"><ele>8.0</ele><time>2026-04-29T17:03:52Z</time></trkpt><trkpt lat="44.349495816184174" lon="9.226168568910607"><ele>8.0</ele><time>2026-04-29T17:03:59Z</time></trkpt><trkpt lat="44.34955853611239" lon="9.226141194340524"><ele>7.999999999999999</ele><time>2026-04-29T17:04:07Z</time></trkpt><trkpt lat="44.34959969825015" lon="9.22622712661256"><ele>8.0</ele><time>2026-04-29T17:04:13Z</time></trkpt><trkpt lat="44.34953942900877" lon="9.226194386804027"><ele>8.0</ele><time>2026-04-29T17:04:52.999Z</time></trkpt><trkpt lat="44.34947424502927" lon="9.226210801685628"><ele>7.999999999999999</ele><time>2026-04-29T17:04:55.999Z</time></trkpt><trkpt lat="44.34941115250349" lon="9.226267909718166"><ele>8.0</ele><time>2026-04-29T17:05:01.999Z</time></trkpt><trkpt lat="44.34933518914132" lon="9.226254981536956"><ele>8.0</ele><time>2026-04-29T17:05:08Z</time></trkpt><trkpt lat="44.34930702960819" lon="9.226148665043942"><ele>8.0</ele><time>2026-04-29T17:05:13Z</time></trkpt><trkpt lat="44.34928519336066" lon="9.226062264323655"><ele>7.999999999999999</ele><time>2026-04-29T17:05:19Z</time></trkpt><trkpt lat="44.34929679221998" lon="9.225961801685688"><ele>8.0</ele><time>2026-04-29T17:05:32Z</time></trkpt><trkpt lat="44.349338343873875" lon="9.225894704256321"><ele>8.0</ele><time>2026-04-29T17:05:38Z</time></trkpt><trkpt lat="44.34939851410112" lon="9.22583933830012"><ele>7.999999999999999</ele><time>2026-04-29T17:05:45Z</time></trkpt><trkpt lat="44.349450118391104" lon="9.225785576992843"><ele>8.0</ele><time>2026-04-29T17:05:54Z</time></trkpt><trkpt lat="44.3494023381963" lon="9.225866828822934"><ele>8.0</ele><time>2026-04-29T17:06:06Z</time></trkpt><trkpt lat="44.349355242812145" lon="9.225937557997751"><ele>7.999999999999999</ele><time>2026-04-29T17:06:11Z</time></trkpt><trkpt lat="44.349339284240344" lon="9.226038708187708"><ele>8.0</ele><time>2026-04-29T17:06:19Z</time></trkpt><trkpt lat="44.34931270367775" lon="9.226119458935603"><ele>8.0</ele><time>2026-04-29T17:06:28Z</time></trkpt><trkpt lat="44.3493843249989" lon="9.226154550608022"><ele>8.0</ele><time>2026-04-29T17:06:35Z</time></trkpt><trkpt lat="44.34941774390476" lon="9.226231404549003"><ele>7.999999999999999</ele><time>2026-04-29T17:06:39.999Z</time></trkpt><trkpt lat="44.34942496692727" lon="9.226321337714785"><ele>8.0</ele><time>2026-04-29T17:06:50.999Z</time></trkpt><trkpt lat="44.349635434378506" lon="9.226334821441423"><ele>8.666666666666666</ele><time>2026-04-29T17:07:28Z</time></trkpt><trkpt lat="44.349713821007946" lon="9.226261219330341"><ele>9.333333333333334</ele><time>2026-04-29T17:07:32Z</time></trkpt><trkpt lat="44.34981169757336" lon="9.22619470126451"><ele>10.0</ele><time>2026-04-29T17:07:35Z</time></trkpt><trkpt lat="44.350313381017564" lon="9.225699859989378"><ele>10.0</ele><time>2026-04-29T17:07:38Z</time></trkpt><trkpt lat="44.35038726304904" lon="9.225639920584095"><ele>10.0</ele><time>2026-04-29T17:07:40Z</time></trkpt><trkpt lat="44.35045469545294" lon="9.22560547093632"><ele>10.0</ele><time>2026-04-29T17:07:42Z</time></trkpt><trkpt lat="44.35002181159968" lon="9.226017647598391"><ele>8.0</ele><time>2026-04-29T17:07:43Z</time></trkpt><trkpt lat="44.34954573643855" lon="9.226262845952503"><ele>8.0</ele><time>2026-04-29T17:07:44Z</time></trkpt><trkpt lat="44.34937190423525" lon="9.22648704826821"><ele>8.0</ele><time>2026-04-29T17:07:58Z</time></trkpt><trkpt lat="44.34922388293254" lon="9.226571191110859"><ele>8.0</ele><time>2026-04-29T17:08:09Z</time></trkpt><trkpt lat="44.3492486473542" lon="9.226107029271098"><ele>8.0</ele><time>2026-04-29T17:08:14Z</time></trkpt><trkpt lat="44.34947350861343" lon="9.225967145661153"><ele>8.0</ele><time>2026-04-29T17:08:15Z</time></trkpt><trkpt lat="44.34955750421866" lon="9.225916440937254"><ele>8.0</ele><time>2026-04-29T17:08:20Z</time></trkpt><trkpt lat="44.349579417603515" lon="9.225803233584157"><ele>8.0</ele><time>2026-04-29T17:08:23Z</time></trkpt><trkpt lat="44.34957012539495" lon="9.225913354261863"><ele>7.999999999999999</ele><time>2026-04-29T17:08:26Z</time></trkpt><trkpt lat="44.34950774333605" lon="9.22598207383869"><ele>8.0</ele><time>2026-04-29T17:08:29Z</time></trkpt><trkpt lat="44.34949516829113" lon="9.226070816499279"><ele>8.0</ele><time>2026-04-29T17:08:38Z</time></trkpt><trkpt lat="44.349448922292225" lon="9.22613137590941"><ele>8.0</ele><time>2026-04-29T17:11:29.999Z</time></trkpt><trkpt lat="44.349477477223274" lon="9.226212271933491"><ele>7.999999999999999</ele><time>2026-04-29T17:15:08.999Z</time></trkpt><trkpt lat="44.3494498309844" lon="9.226117350546586"><ele>8.0</ele><time>2026-04-29T17:15:28.999Z</time></trkpt><trkpt lat="44.34950759619151" lon="9.226250708814682"><ele>7.999999999999999</ele><time>2026-04-29T17:28:17.999Z</time></trkpt><trkpt lat="44.349495769385165" lon="9.226155884560129"><ele>8.0</ele><time>2026-04-29T17:28:36Z</time></trkpt><trkpt lat="44.34948304202581" lon="9.226064899960345"><ele>8.0</ele><time>2026-04-29T17:29:46.999Z</time></trkpt><trkpt lat="44.34947277319403" lon="9.225936788627097"><ele>8.0</ele><time>2026-04-29T17:30:01.999Z</time></trkpt><trkpt lat="44.3494947998395" lon="9.226025323730436"><ele>7.999999999999999</ele><time>2026-04-29T17:30:18.999Z</time></trkpt><trkpt lat="44.349487943436536" lon="9.225844047769034"><ele>8.0</ele><time>2026-04-29T17:30:33Z</time></trkpt><trkpt lat="44.34947681665577" lon="9.225757039167348"><ele>8.0</ele><time>2026-04-29T17:30:35Z</time></trkpt><trkpt lat="44.34950533263136" lon="9.225938464326806"><ele>8.0</ele><time>2026-04-29T17:30:38Z</time></trkpt><trkpt lat="44.34951154323624" lon="9.226027004805506"><ele>8.0</ele><time>2026-04-29T17:30:40Z</time></trkpt><trkpt lat="44.349332225678424" lon="9.226514094952856"><ele>8.0</ele><time>2026-04-29T17:31:32Z</time></trkpt><trkpt lat="44.34925367781698" lon="9.226501699387304"><ele>8.0</ele><time>2026-04-29T17:31:36Z</time></trkpt><trkpt lat="44.34918394125847" lon="9.22648542384332"><ele>8.0</ele><time>2026-04-29T17:31:39Z</time></trkpt><trkpt lat="44.34886019215393" lon="9.226042712115893"><ele>8.0</ele><time>2026-04-29T17:31:48.999Z</time></trkpt><trkpt lat="44.34930220182989" lon="9.226362011775372"><ele>8.0</ele><time>2026-04-29T17:32:00.999Z</time></trkpt><trkpt lat="44.34941644823273" lon="9.226571441496631"><ele>8.0</ele><time>2026-04-29T17:32:01.999Z</time></trkpt><trkpt lat="44.34943293557636" lon="9.226315399477713"><ele>8.0</ele><time>2026-04-29T17:32:06.999Z</time></trkpt><trkpt lat="44.34941031215012" lon="9.226222580067613"><ele>8.0</ele><time>2026-04-29T17:32:14.999Z</time></trkpt><trkpt lat="44.349378200788834" lon="9.226145440726816"><ele>8.0</ele><time>2026-04-29T17:32:21.999Z</time></trkpt><trkpt lat="44.34932718044426" lon="9.226081411936615"><ele>7.999999999999999</ele><time>2026-04-29T17:32:38Z</time></trkpt><trkpt lat="44.34934755836368" lon="9.225990601951008"><ele>8.0</ele><time>2026-04-29T17:32:46Z</time></trkpt><trkpt lat="44.34940304587682" lon="9.225943113626686"><ele>8.0</ele><time>2026-04-29T17:32:55Z</time></trkpt><trkpt lat="44.34944036107904" lon="9.225855128569723"><ele>7.999999999999999</ele><time>2026-04-29T17:33:03Z</time></trkpt><trkpt lat="44.34946224602371" lon="9.225771456063576"><ele>8.0</ele><time>2026-04-29T17:33:09Z</time></trkpt><trkpt lat="44.34950367395454" lon="9.225691285408303"><ele>8.0</ele><time>2026-04-29T17:33:20Z</time></trkpt><trkpt lat="44.34954861858196" lon="9.225623327284971"><ele>7.857142857142857</ele><time>2026-04-29T17:33:27Z</time></trkpt><trkpt lat="44.34959861066736" lon="9.225549003190437"><ele>7.7142857142857135</ele><time>2026-04-29T17:33:36.999Z</time></trkpt><trkpt lat="44.34964679666703" lon="9.225489548665767"><ele>7.571428571428571</ele><time>2026-04-29T17:33:45.999Z</time></trkpt><trkpt lat="44.34967947771565" lon="9.225395844230585"><ele>7.428571428571429</ele><time>2026-04-29T17:33:57.999Z</time></trkpt><trkpt lat="44.349688031917694" lon="9.225305146566797"><ele>7.285714285714286</ele><time>2026-04-29T17:34:08.999Z</time></trkpt><trkpt lat="44.34971224358862" lon="9.22521836488413"><ele>7.142857142857142</ele><time>2026-04-29T17:34:14.999Z</time></trkpt><trkpt lat="44.34973940975051" lon="9.225124551083542"><ele>7.0</ele><time>2026-04-29T17:34:20.999Z</time></trkpt><trkpt lat="44.34977642709643" lon="9.225044810416394"><ele>7.000000000000001</ele><time>2026-04-29T17:34:28.999Z</time></trkpt><trkpt lat="44.3498423620275" lon="9.224896953452259"><ele>7.0</ele><time>2026-04-29T17:34:40Z</time></trkpt><trkpt lat="44.3498933195987" lon="9.224821008485623"><ele>7.0</ele><time>2026-04-29T17:34:49Z</time></trkpt><trkpt lat="44.34994680653329" lon="9.224746926829487"><ele>7.0</ele><time>2026-04-29T17:34:57Z</time></trkpt><trkpt lat="44.34999480848477" lon="9.22467231189235"><ele>7.000000000000001</ele><time>2026-04-29T17:35:05Z</time></trkpt><trkpt lat="44.35004926761793" lon="9.224722676089504"><ele>7.0</ele><time>2026-04-29T17:35:16Z</time></trkpt><trkpt lat="44.35009786064938" lon="9.224789001222748"><ele>7.0</ele><time>2026-04-29T17:35:24Z</time></trkpt><trkpt lat="44.35016182688999" lon="9.224851084328707"><ele>7.0</ele><time>2026-04-29T17:35:33Z</time></trkpt><trkpt lat="44.350224657692365" lon="9.224910464435089"><ele>7.0</ele><time>2026-04-29T17:35:41.999Z</time></trkpt><trkpt lat="44.350281308655056" lon="9.224961724371015"><ele>7.0</ele><time>2026-04-29T17:35:49.999Z</time></trkpt><trkpt lat="44.35032375819821" lon="9.225042357594809"><ele>7.0</ele><time>2026-04-29T17:35:55.999Z</time></trkpt><trkpt lat="44.35037889138173" lon="9.224974843363194"><ele>7.0</ele><time>2026-04-29T17:35:58.999Z</time></trkpt><trkpt lat="44.35041636503903" lon="9.224883161049243"><ele>7.0</ele><time>2026-04-29T17:36:01.999Z</time></trkpt><trkpt lat="44.350394382615676" lon="9.224794386679825"><ele>7.0</ele><time>2026-04-29T17:36:10.999Z</time></trkpt><trkpt lat="44.35034503430035" lon="9.224725833847929"><ele>7.0</ele><time>2026-04-29T17:36:17.999Z</time></trkpt><trkpt lat="44.35028797349782" lon="9.224674170170031"><ele>7.0</ele><time>2026-04-29T17:36:25.999Z</time></trkpt><trkpt lat="44.35023540334307" lon="9.224617817346333"><ele>7.0</ele><time>2026-04-29T17:36:32.999Z</time></trkpt><trkpt lat="44.35017188295992" lon="9.224560111411277"><ele>7.0</ele><time>2026-04-29T17:36:39.999Z</time></trkpt><trkpt lat="44.350166309737624" lon="9.224463635874244"><ele>7.0</ele><time>2026-04-29T17:36:52Z</time></trkpt><trkpt lat="44.3501992771744" lon="9.224387246311665"><ele>7.0</ele><time>2026-04-29T17:36:59Z</time></trkpt><trkpt lat="44.35023705347358" lon="9.224294981379465"><ele>7.0</ele><time>2026-04-29T17:37:07Z</time></trkpt><trkpt lat="44.35017036286769" lon="9.224308168286047"><ele>7.0</ele><time>2026-04-29T17:37:35Z</time></trkpt><trkpt lat="44.350144515727955" lon="9.224389709293321"><ele>7.0</ele><time>2026-04-29T17:37:40.999Z</time></trkpt><trkpt lat="44.350105180302364" lon="9.224467406244802"><ele>7.0</ele><time>2026-04-29T17:37:48.999Z</time></trkpt><trkpt lat="44.350064083812526" lon="9.224537131309893"><ele>7.0</ele><time>2026-04-29T17:37:56.999Z</time></trkpt><trkpt lat="44.350013825576845" lon="9.224603948292796"><ele>7.0</ele><time>2026-04-29T17:38:05.999Z</time></trkpt><trkpt lat="44.34997284380181" lon="9.224674039429221"><ele>7.0</ele><time>2026-04-29T17:38:11.999Z</time></trkpt><trkpt lat="44.349931221687555" lon="9.224740974207181"><ele>7.0</ele><time>2026-04-29T17:38:18.999Z</time></trkpt><trkpt lat="44.34988118661199" lon="9.22479883385225"><ele>7.0</ele><time>2026-04-29T17:38:29.999Z</time></trkpt><trkpt lat="44.3498381280487" lon="9.224867914221136"><ele>7.0</ele><time>2026-04-29T17:38:37.999Z</time></trkpt><trkpt lat="44.34978736295445" lon="9.2249293467408"><ele>7.0</ele><time>2026-04-29T17:38:47.999Z</time></trkpt><trkpt lat="44.34972673059749" lon="9.225000126749805"><ele>7.0</ele><time>2026-04-29T17:38:54Z</time></trkpt><trkpt lat="44.34967325636902" lon="9.225051401764294"><ele>7.0</ele><time>2026-04-29T17:38:59Z</time></trkpt><trkpt lat="44.349678789243896" lon="9.225152036544564"><ele>7.0</ele><time>2026-04-29T17:39:06Z</time></trkpt><trkpt lat="44.349678914511045" lon="9.225243540986254"><ele>7.0</ele><time>2026-04-29T17:39:17Z</time></trkpt><trkpt lat="44.34965392025018" lon="9.225332351699151"><ele>7.0</ele><time>2026-04-29T17:39:25Z</time></trkpt><trkpt lat="44.34963944486313" lon="9.225418846180553"><ele>7.0</ele><time>2026-04-29T17:39:35Z</time></trkpt><trkpt lat="44.349621775072684" lon="9.22552334160274"><ele>7.0</ele><time>2026-04-29T17:39:44Z</time></trkpt><trkpt lat="44.34959856590567" lon="9.22561077196198"><ele>7.0</ele><time>2026-04-29T17:39:51Z</time></trkpt><trkpt lat="44.34957963213541" lon="9.225705695761848"><ele>7.0</ele><time>2026-04-29T17:39:56.999Z</time></trkpt><trkpt lat="44.34963292631366" lon="9.225780042018759"><ele>7.0</ele><time>2026-04-29T17:40:04.999Z</time></trkpt><trkpt lat="44.34967661529852" lon="9.225858038243995"><ele>7.142857142857142</ele><time>2026-04-29T17:40:12.999Z</time></trkpt><trkpt lat="44.349701151949944" lon="9.225946107273922"><ele>7.285714285714286</ele><time>2026-04-29T17:40:20.999Z</time></trkpt><trkpt lat="44.34975351900615" lon="9.226007909332123"><ele>7.428571428571429</ele><time>2026-04-29T17:40:30.999Z</time></trkpt><trkpt lat="44.34982096914085" lon="9.225999559233516"><ele>7.571428571428571</ele><time>2026-04-29T17:40:40.999Z</time></trkpt><trkpt lat="44.34984639258863" lon="9.226088311960813"><ele>7.7142857142857135</ele><time>2026-04-29T17:40:48.999Z</time></trkpt><trkpt lat="44.34990592810876" lon="9.2261339650036"><ele>7.857142857142857</ele><time>2026-04-29T17:40:59Z</time></trkpt><trkpt lat="44.349870818138626" lon="9.226057549547438"><ele>8.0</ele><time>2026-04-29T17:41:17Z</time></trkpt><trkpt lat="44.34980233714987" lon="9.226037975604411"><ele>8.0</ele><time>2026-04-29T17:41:28Z</time></trkpt><trkpt lat="44.34975474874836" lon="9.225973320689047"><ele>7.999999999999999</ele><time>2026-04-29T17:41:36Z</time></trkpt><trkpt lat="44.349734091238105" lon="9.225876693982741"><ele>8.0</ele><time>2026-04-29T17:41:43Z</time></trkpt><trkpt lat="44.34970361354663" lon="9.225786750144664"><ele>8.0</ele><time>2026-04-29T17:41:56Z</time></trkpt><trkpt lat="44.349647919792474" lon="9.225741951439103"><ele>7.999999999999999</ele><time>2026-04-29T17:42:05Z</time></trkpt><trkpt lat="44.3495725275593" lon="9.225725737450185"><ele>8.0</ele><time>2026-04-29T17:42:09.999Z</time></trkpt><trkpt lat="44.34950926318622" lon="9.225782478340937"><ele>8.0</ele><time>2026-04-29T17:42:13.999Z</time></trkpt><trkpt lat="44.3494819139782" lon="9.225863990908332"><ele>8.0</ele><time>2026-04-29T17:42:18.999Z</time></trkpt><trkpt lat="44.34941777464136" lon="9.225878397626571"><ele>7.999999999999999</ele><time>2026-04-29T17:42:33.999Z</time></trkpt><trkpt lat="44.34933294578969" lon="9.22591615000254"><ele>8.0</ele><time>2026-04-29T17:43:36Z</time></trkpt><trkpt lat="44.349296928513596" lon="9.226002627129123"><ele>8.0</ele><time>2026-04-29T17:43:46Z</time></trkpt><trkpt lat="44.349259960201984" lon="9.226078035499816"><ele>7.999999999999999</ele><time>2026-04-29T17:43:54Z</time></trkpt><trkpt lat="44.34919887603302" lon="9.226112050776125"><ele>8.0</ele><time>2026-04-29T17:44:03Z</time></trkpt><trkpt lat="44.349178248547354" lon="9.226206237261394"><ele>8.0</ele><time>2026-04-29T17:44:09Z</time></trkpt><trkpt lat="44.34911508761314" lon="9.226211063156752"><ele>8.0</ele><time>2026-04-29T17:44:17.999Z</time></trkpt><trkpt lat="44.34906116601827" lon="9.22626963470734"><ele>7.999999999999999</ele><time>2026-04-29T17:44:26.999Z</time></trkpt><trkpt lat="44.34902434347943" lon="9.22635165655284"><ele>8.0</ele><time>2026-04-29T17:44:32.999Z</time></trkpt><trkpt lat="44.348961238850606" lon="9.226376263115922"><ele>8.0</ele><time>2026-04-29T17:44:39.999Z</time></trkpt><trkpt lat="44.34891566326294" lon="9.22645176997028"><ele>7.999999999999999</ele><time>2026-04-29T17:44:45.999Z</time></trkpt><trkpt lat="44.34886456875858" lon="9.226517977490538"><ele>8.0</ele><time>2026-04-29T17:44:53.999Z</time></trkpt><trkpt lat="44.34882072939979" lon="9.226590682809755"><ele>8.0</ele><time>2026-04-29T17:45:00.999Z</time></trkpt><trkpt lat="44.34876232126222" lon="9.226636923766115"><ele>7.7142857142857135</ele><time>2026-04-29T17:45:09Z</time></trkpt><trkpt lat="44.34869561908487" lon="9.226648208837757"><ele>7.428571428571428</ele><time>2026-04-29T17:45:17Z</time></trkpt><trkpt lat="44.348637698456656" lon="9.226702771198932"><ele>7.142857142857142</ele><time>2026-04-29T17:45:24Z</time></trkpt><trkpt lat="44.34859440398839" lon="9.22677535758463"><ele>6.857142857142857</ele><time>2026-04-29T17:45:29Z</time></trkpt><trkpt lat="44.348552810219445" lon="9.226860678948881"><ele>6.571428571428571</ele><time>2026-04-29T17:45:38Z</time></trkpt><trkpt lat="44.34851284033508" lon="9.226934011507982"><ele>6.285714285714285</ele><time>2026-04-29T17:45:45Z</time></trkpt><trkpt lat="44.348450174224126" lon="9.226961266025157"><ele>6.0</ele><time>2026-04-29T17:45:52Z</time></trkpt><trkpt lat="44.34839930510868" lon="9.227028326942293"><ele>5.999999999999999</ele><time>2026-04-29T17:45:59Z</time></trkpt><trkpt lat="44.34835509266264" lon="9.227092229240496"><ele>6.0</ele><time>2026-04-29T17:46:05Z</time></trkpt><trkpt lat="44.34829796547358" lon="9.22703713479602"><ele>6.0</ele><time>2026-04-29T17:46:24.999Z</time></trkpt><trkpt lat="44.348269599670544" lon="9.226953583563299"><ele>6.0</ele><time>2026-04-29T17:46:33.999Z</time></trkpt><trkpt lat="44.3482665934886" lon="9.22704617047558"><ele>6.0</ele><time>2026-04-29T17:46:56.999Z</time></trkpt><trkpt lat="44.348337472227406" lon="9.22706857375373"><ele>5.999999999999999</ele><time>2026-04-29T17:47:07.999Z</time></trkpt><trkpt lat="44.348409125026954" lon="9.227045253502196"><ele>6.0</ele><time>2026-04-29T17:47:15Z</time></trkpt><trkpt lat="44.34847530650391" lon="9.226990463676733"><ele>6.0</ele><time>2026-04-29T17:47:24Z</time></trkpt><trkpt lat="44.34852887290121" lon="9.22692333333473"><ele>6.0</ele><time>2026-04-29T17:47:33Z</time></trkpt><trkpt lat="44.34860022048735" lon="9.22687023281455"><ele>6.0</ele><time>2026-04-29T17:47:40Z</time></trkpt><trkpt lat="44.34864934584605" lon="9.226814848753252"><ele>6.0</ele><time>2026-04-29T17:47:47Z</time></trkpt><trkpt lat="44.348694719569686" lon="9.226748198843246"><ele>6.0</ele><time>2026-04-29T17:47:55Z</time></trkpt><trkpt lat="44.348733696229395" lon="9.226626570982555"><ele>6.0</ele><time>2026-04-29T17:48:05Z</time></trkpt><trkpt lat="44.34880684967506" lon="9.226563888410986"><ele>5.999999999999999</ele><time>2026-04-29T17:48:21Z</time></trkpt><trkpt lat="44.348840179115875" lon="9.226639931315557"><ele>6.0</ele><time>2026-04-29T17:48:26Z</time></trkpt><trkpt lat="44.348892446417764" lon="9.226541462154339"><ele>6.0</ele><time>2026-04-29T17:48:29Z</time></trkpt><trkpt lat="44.348938705273945" lon="9.226479034689245"><ele>6.0</ele><time>2026-04-29T17:48:47.999Z</time></trkpt><trkpt lat="44.34899422787288" lon="9.226420285842734"><ele>6.0</ele><time>2026-04-29T17:48:55.999Z</time></trkpt><trkpt lat="44.34905170559843" lon="9.22636113030707"><ele>5.999999999999999</ele><time>2026-04-29T17:49:04.999Z</time></trkpt><trkpt lat="44.349092470035146" lon="9.226287210579429"><ele>6.0</ele><time>2026-04-29T17:49:15.999Z</time></trkpt><trkpt lat="44.349155282493015" lon="9.22625000941813"><ele>6.285714285714285</ele><time>2026-04-29T17:49:27Z</time></trkpt><trkpt lat="44.349215474083216" lon="9.226207427281322"><ele>6.571428571428571</ele><time>2026-04-29T17:49:58Z</time></trkpt><trkpt lat="44.34927823511011" lon="9.22615600234196"><ele>6.857142857142857</ele><time>2026-04-29T17:50:07Z</time></trkpt><trkpt lat="44.34931852052625" lon="9.226082141914357"><ele>7.142857142857142</ele><time>2026-04-29T17:50:15Z</time></trkpt><trkpt lat="44.34937290495973" lon="9.226011937980498"><ele>7.428571428571428</ele><time>2026-04-29T17:50:37.999Z</time></trkpt><trkpt lat="44.34940127903269" lon="9.225931720152927"><ele>7.7142857142857135</ele><time>2026-04-29T17:50:44.999Z</time></trkpt><trkpt lat="44.349343730765014" lon="9.226030105708057"><ele>8.0</ele><time>2026-04-29T17:51:06.999Z</time></trkpt><trkpt lat="44.3493047528191" lon="9.225955958705901"><ele>8.0</ele><time>2026-04-29T17:51:43.999Z</time></trkpt><trkpt lat="44.34934292959596" lon="9.225880295561725"><ele>7.999999999999999</ele><time>2026-04-29T17:51:51.999Z</time></trkpt><trkpt lat="44.34940041373007" lon="9.225814325746017"><ele>8.0</ele><time>2026-04-29T17:51:58.999Z</time></trkpt><trkpt lat="44.34943309125671" lon="9.225736198763068"><ele>8.0</ele><time>2026-04-29T17:52:07.999Z</time></trkpt><trkpt lat="44.34938742199813" lon="9.22565434606363"><ele>7.999999999999999</ele><time>2026-04-29T17:52:30.999Z</time></trkpt><trkpt lat="44.349316884672035" lon="9.225619153058943"><ele>8.0</ele><time>2026-04-29T17:53:54Z</time></trkpt><trkpt lat="44.349388850667" lon="9.225623189899434"><ele>8.0</ele><time>2026-04-29T17:57:53Z</time></trkpt><trkpt lat="44.34941232642101" lon="9.225713940430046"><ele>8.0</ele><time>2026-04-29T17:58:11Z</time></trkpt><trkpt lat="44.34941006151328" lon="9.225807204166687"><ele>7.999999999999999</ele><time>2026-04-29T17:58:25Z</time></trkpt><trkpt lat="44.34935885062138" lon="9.225870452810934"><ele>8.0</ele><time>2026-04-29T17:58:34Z</time></trkpt><trkpt lat="44.349316249873475" lon="9.225942668404867"><ele>8.0</ele><time>2026-04-29T17:58:41Z</time></trkpt><trkpt lat="44.34926605829078" lon="9.226036384549218"><ele>7.999999999999999</ele><time>2026-04-29T17:58:48Z</time></trkpt><trkpt lat="44.34921016591914" lon="9.226101737882171"><ele>8.0</ele><time>2026-04-29T17:58:56Z</time></trkpt><trkpt lat="44.34915005814297" lon="9.22615738739142"><ele>8.0</ele><time>2026-04-29T17:59:04Z</time></trkpt><trkpt lat="44.34910988841087" lon="9.22624316288316"><ele>8.0</ele><time>2026-04-29T17:59:10Z</time></trkpt><trkpt lat="44.34906519533263" lon="9.226311505135913"><ele>7.999999999999999</ele><time>2026-04-29T17:59:17Z</time></trkpt><trkpt lat="44.34900153897683" lon="9.226355512879072"><ele>8.0</ele><time>2026-04-29T17:59:25Z</time></trkpt><trkpt lat="44.34894786253448" lon="9.226427565377564"><ele>8.0</ele><time>2026-04-29T17:59:31Z</time></trkpt><trkpt lat="44.34888510857094" lon="9.226500780060555"><ele>7.999999999999999</ele><time>2026-04-29T17:59:36Z</time></trkpt><trkpt lat="44.348827621461744" lon="9.226560469500509"><ele>8.0</ele><time>2026-04-29T17:59:43Z</time></trkpt><trkpt lat="44.348785174498786" lon="9.226632776363354"><ele>8.0</ele><time>2026-04-29T17:59:48Z</time></trkpt><trkpt lat="44.34872893687956" lon="9.226689982442142"><ele>7.7142857142857135</ele><time>2026-04-29T17:59:54Z</time></trkpt><trkpt lat="44.34866384288387" lon="9.226730433859126"><ele>7.428571428571428</ele><time>2026-04-29T18:00:01Z</time></trkpt><trkpt lat="44.34860886429158" lon="9.226783068660756"><ele>7.142857142857142</ele><time>2026-04-29T18:00:06Z</time></trkpt><trkpt lat="44.348573768205924" lon="9.22685935112336"><ele>6.857142857142857</ele><time>2026-04-29T18:00:11Z</time></trkpt><trkpt lat="44.34852192752049" lon="9.226932324049844"><ele>6.571428571428571</ele><time>2026-04-29T18:00:16Z</time></trkpt><trkpt lat="44.34847078778606" lon="9.226988478746533"><ele>6.285714285714285</ele><time>2026-04-29T18:00:21Z</time></trkpt><trkpt lat="44.348410788720244" lon="9.227037113292022"><ele>6.0</ele><time>2026-04-29T18:00:27Z</time></trkpt><trkpt lat="44.348347377572985" lon="9.22709386973883"><ele>5.999999999999999</ele><time>2026-04-29T18:00:33Z</time></trkpt><trkpt lat="44.34829996156601" lon="9.227176196458704"><ele>6.0</ele><time>2026-04-29T18:00:40Z</time></trkpt><trkpt lat="44.34825772545701" lon="9.227255222636623"><ele>6.0</ele><time>2026-04-29T18:00:46Z</time></trkpt><trkpt lat="44.348202709933595" lon="9.227304333508604"><ele>6.0</ele><time>2026-04-29T18:00:55Z</time></trkpt><trkpt lat="44.34816419686345" lon="9.227381306797877"><ele>6.0</ele><time>2026-04-29T18:00:59Z</time></trkpt><trkpt lat="44.34812051056526" lon="9.227467850286772"><ele>5.999999999999999</ele><time>2026-04-29T18:01:06Z</time></trkpt><trkpt lat="44.34805571919127" lon="9.227484002136473"><ele>6.0</ele><time>2026-04-29T18:01:16Z</time></trkpt><trkpt lat="44.348003220498725" lon="9.227549222305893"><ele>5.7142857142857135</ele><time>2026-04-29T18:01:21Z</time></trkpt><trkpt lat="44.34797290809449" lon="9.227627369737984"><ele>5.428571428571429</ele><time>2026-04-29T18:01:25Z</time></trkpt><trkpt lat="44.34791998591353" lon="9.22769187786242"><ele>5.142857142857142</ele><time>2026-04-29T18:01:30Z</time></trkpt><trkpt lat="44.34788374667729" lon="9.227764581251401"><ele>4.857142857142857</ele><time>2026-04-29T18:01:34Z</time></trkpt><trkpt lat="44.3478229236921" lon="9.227811937843935"><ele>4.571428571428571</ele><time>2026-04-29T18:01:41Z</time></trkpt><trkpt lat="44.34775625290487" lon="9.227856331924528"><ele>4.285714285714286</ele><time>2026-04-29T18:01:47Z</time></trkpt><trkpt lat="44.347704384724175" lon="9.22791525358329"><ele>4.0</ele><time>2026-04-29T18:01:52Z</time></trkpt><trkpt lat="44.34764568416239" lon="9.227970728474295"><ele>4.0</ele><time>2026-04-29T18:01:57Z</time></trkpt><trkpt lat="44.34759525201719" lon="9.228049393629528"><ele>3.9999999999999996</ele><time>2026-04-29T18:02:03Z</time></trkpt><trkpt lat="44.34752377295437" lon="9.228023981232182"><ele>4.0</ele><time>2026-04-29T18:02:17Z</time></trkpt><trkpt lat="44.34746396851034" lon="9.227991019974626"><ele>4.0</ele><time>2026-04-29T18:02:22Z</time></trkpt><trkpt lat="44.34740236203572" lon="9.227945856104357"><ele>3.9999999999999996</ele><time>2026-04-29T18:02:28Z</time></trkpt><trkpt lat="44.34734808068623" lon="9.22787719776237"><ele>4.0</ele><time>2026-04-29T18:02:35Z</time></trkpt><trkpt lat="44.34740793899007" lon="9.227935366894458"><ele>4.0</ele><time>2026-04-29T18:02:45Z</time></trkpt><trkpt lat="44.34742938327801" lon="9.228023678095777"><ele>4.0</ele><time>2026-04-29T18:02:59Z</time></trkpt><trkpt lat="44.347440126183976" lon="9.22811151843909"><ele>3.9999999999999996</ele><time>2026-04-29T18:03:03Z</time></trkpt><trkpt lat="44.34748090581204" lon="9.228184329134788"><ele>4.0</ele><time>2026-04-29T18:03:08Z</time></trkpt><trkpt lat="44.34752180070337" lon="9.228265227564558"><ele>4.0</ele><time>2026-04-29T18:03:15Z</time></trkpt><trkpt lat="44.34754527597538" lon="9.228349193424535"><ele>3.9999999999999996</ele><time>2026-04-29T18:03:22Z</time></trkpt><trkpt lat="44.34755531652743" lon="9.228450769127283"><ele>4.0</ele><time>2026-04-29T18:03:30Z</time></trkpt><trkpt lat="44.34756274700159" lon="9.228540211846358"><ele>4.0</ele><time>2026-04-29T18:03:36Z</time></trkpt><trkpt lat="44.34760725340598" lon="9.228613067607183"><ele>3.8000000000000003</ele><time>2026-04-29T18:03:41Z</time></trkpt><trkpt lat="44.34766268712313" lon="9.22867713936551"><ele>3.6000000000000005</ele><time>2026-04-29T18:03:47Z</time></trkpt><trkpt lat="44.34772008878455" lon="9.228740124506077"><ele>3.4</ele><time>2026-04-29T18:03:54Z</time></trkpt><trkpt lat="44.347776664131736" lon="9.228793092315383"><ele>3.2</ele><time>2026-04-29T18:03:59Z</time></trkpt><trkpt lat="44.347831082464424" lon="9.228849416848435"><ele>3.0</ele><time>2026-04-29T18:04:08Z</time></trkpt><trkpt lat="44.34751315811286" lon="9.228904847462934"><ele>3.0</ele><time>2026-04-29T18:04:14Z</time></trkpt><trkpt lat="44.347899557619286" lon="9.228908149481496"><ele>3.0</ele><time>2026-04-29T18:04:15Z</time></trkpt><trkpt lat="44.34797665292561" lon="9.228902436823036"><ele>2.75</ele><time>2026-04-29T18:04:19Z</time></trkpt><trkpt lat="44.34783534902282" lon="9.229178274427785"><ele>2.5</ele><time>2026-04-29T18:04:23Z</time></trkpt><trkpt lat="44.34788999265342" lon="9.22925381411346"><ele>2.25</ele><time>2026-04-29T18:04:32Z</time></trkpt><trkpt lat="44.347937798712714" lon="9.229316329728162"><ele>2.0</ele><time>2026-04-29T18:04:38Z</time></trkpt><trkpt lat="44.3479873914265" lon="9.22937917530264"><ele>2.0</ele><time>2026-04-29T18:04:43Z</time></trkpt><trkpt lat="44.348040229359825" lon="9.229444580817605"><ele>1.9999999999999998</ele><time>2026-04-29T18:04:52Z</time></trkpt><trkpt lat="44.34810516367525" lon="9.229460905970546"><ele>2.0</ele><time>2026-04-29T18:05:01Z</time></trkpt><trkpt lat="44.34813630641179" lon="9.22955190104143"><ele>2.0</ele><time>2026-04-29T18:05:05Z</time></trkpt><trkpt lat="44.34812925568252" lon="9.22964359959129"><ele>1.9999999999999998</ele><time>2026-04-29T18:05:11Z</time></trkpt><trkpt lat="44.3481373586956" lon="9.22973571348187"><ele>2.0</ele><time>2026-04-29T18:05:19Z</time></trkpt><trkpt lat="44.34816940161002" lon="9.229820449155937"><ele>2.0</ele><time>2026-04-29T18:05:26Z</time></trkpt><trkpt lat="44.348220814866046" lon="9.229908935665335"><ele>2.2857142857142856</ele><time>2026-04-29T18:05:36Z</time></trkpt><trkpt lat="44.34826519584612" lon="9.229974803153175"><ele>2.571428571428571</ele><time>2026-04-29T18:05:42Z</time></trkpt><trkpt lat="44.3483232775766" lon="9.23006176565466"><ele>2.8571428571428568</ele><time>2026-04-29T18:05:48.999Z</time></trkpt><trkpt lat="44.34837321488717" lon="9.230139757138001"><ele>3.142857142857143</ele><time>2026-04-29T18:05:53.999Z</time></trkpt><trkpt lat="44.3484177531104" lon="9.230210960210325"><ele>3.428571428571428</ele><time>2026-04-29T18:05:59.999Z</time></trkpt><trkpt lat="44.34846322802067" lon="9.23028366077317"><ele>3.714285714285714</ele><time>2026-04-29T18:06:07Z</time></trkpt><trkpt lat="44.34842039509764" lon="9.230358448416196"><ele>4.0</ele><time>2026-04-29T18:06:08Z</time></trkpt><trkpt lat="44.34848404473536" lon="9.230318387357407"><ele>4.0</ele><time>2026-04-29T18:06:09Z</time></trkpt><trkpt lat="44.34845626654758" lon="9.230417491718311"><ele>3.9999999999999996</ele><time>2026-04-29T18:06:15Z</time></trkpt><trkpt lat="44.34852088375323" lon="9.230417577932906"><ele>4.0</ele><time>2026-04-29T18:06:28Z</time></trkpt><trkpt lat="44.34854235835687" lon="9.230501861581983"><ele>4.0</ele><time>2026-04-29T18:06:42Z</time></trkpt><trkpt lat="44.34854677536304" lon="9.23059849298473"><ele>3.9999999999999996</ele><time>2026-04-29T18:06:51Z</time></trkpt><trkpt lat="44.348584536493355" lon="9.230684082816355"><ele>4.0</ele><time>2026-04-29T18:06:58Z</time></trkpt><trkpt lat="44.348586022484305" lon="9.230774950865266"><ele>4.0</ele><time>2026-04-29T18:07:05Z</time></trkpt><trkpt lat="44.34859974873346" lon="9.230860936199837"><ele>4.142857142857142</ele><time>2026-04-29T18:07:13Z</time></trkpt><trkpt lat="44.348611296637664" lon="9.230960953528227"><ele>4.285714285714286</ele><time>2026-04-29T18:07:22Z</time></trkpt><trkpt lat="44.348622640225905" lon="9.231053825193356"><ele>4.428571428571429</ele><time>2026-04-29T18:07:30Z</time></trkpt><trkpt lat="44.34861733121115" lon="9.23114333860844"><ele>4.571428571428571</ele><time>2026-04-29T18:07:38Z</time></trkpt><trkpt lat="44.34861911787556" lon="9.23124255634402"><ele>4.714285714285714</ele><time>2026-04-29T18:07:46Z</time></trkpt><trkpt lat="44.348628094767946" lon="9.231148130007112"><ele>4.857142857142857</ele><time>2026-04-29T18:08:16Z</time></trkpt><trkpt lat="44.348628499357396" lon="9.231058955659128"><ele>5.0</ele><time>2026-04-29T18:08:23Z</time></trkpt><trkpt lat="44.348605949255564" lon="9.23097571277166"><ele>5.0</ele><time>2026-04-29T18:08:29Z</time></trkpt><trkpt lat="44.34860697298951" lon="9.23088065955009"><ele>5.0</ele><time>2026-04-29T18:08:36Z</time></trkpt><trkpt lat="44.348590744092256" lon="9.23079036441893"><ele>5.0</ele><time>2026-04-29T18:08:44Z</time></trkpt><trkpt lat="44.34858210924364" lon="9.230691098650468"><ele>5.0</ele><time>2026-04-29T18:08:52Z</time></trkpt><trkpt lat="44.34857487304539" lon="9.230601564941178"><ele>5.0</ele><time>2026-04-29T18:08:58Z</time></trkpt><trkpt lat="44.34856557312747" lon="9.230509550824555"><ele>5.0</ele><time>2026-04-29T18:09:05Z</time></trkpt><trkpt lat="44.348624572757885" lon="9.23044300416015"><ele>5.0</ele><time>2026-04-29T18:09:15Z</time></trkpt><trkpt lat="44.34864923044428" lon="9.230348277895926"><ele>4.857142857142857</ele><time>2026-04-29T18:09:22Z</time></trkpt><trkpt lat="44.34862922769913" lon="9.230261885372308"><ele>4.714285714285714</ele><time>2026-04-29T18:09:28Z</time></trkpt><trkpt lat="44.348595147978685" lon="9.230180357214993"><ele>4.571428571428571</ele><time>2026-04-29T18:09:35Z</time></trkpt><trkpt lat="44.34864858319185" lon="9.2301175486929"><ele>4.428571428571429</ele><time>2026-04-29T18:09:42Z</time></trkpt><trkpt lat="44.3487186764243" lon="9.230095162229919"><ele>4.285714285714286</ele><time>2026-04-29T18:09:50Z</time></trkpt><trkpt lat="44.34878606700737" lon="9.230058066465222"><ele>4.142857142857142</ele><time>2026-04-29T18:10:09.999Z</time></trkpt><trkpt lat="44.34879731854777" lon="9.229968675329479"><ele>4.0</ele><time>2026-04-29T18:10:15.999Z</time></trkpt><trkpt lat="44.348779310537914" lon="9.229880108908484"><ele>4.0</ele><time>2026-04-29T18:10:31Z</time></trkpt><trkpt lat="44.34868042809859" lon="9.229814339930806"><ele>4.0</ele><time>2026-04-29T18:10:36Z</time></trkpt><trkpt lat="44.348741499089265" lon="9.22994464001186"><ele>4.0</ele><time>2026-04-29T18:10:40Z</time></trkpt><trkpt lat="44.34882608355003" lon="9.229890304014905"><ele>4.0</ele><time>2026-04-29T18:11:05Z</time></trkpt><trkpt lat="44.34885609267094" lon="9.22980284846694"><ele>4.0</ele><time>2026-04-29T18:11:09Z</time></trkpt><trkpt lat="44.34877886970302" lon="9.229792739913783"><ele>4.0</ele><time>2026-04-29T18:11:20Z</time></trkpt><trkpt lat="44.34871541225486" lon="9.229838844193633"><ele>3.9999999999999996</ele><time>2026-04-29T18:11:26Z</time></trkpt><trkpt lat="44.34865461876116" lon="9.229870239691117"><ele>4.0</ele><time>2026-04-29T18:11:33Z</time></trkpt><trkpt lat="44.34857435082013" lon="9.229838490997276"><ele>4.0</ele><time>2026-04-29T18:11:43Z</time></trkpt><trkpt lat="44.34864484717934" lon="9.229805099361778"><ele>3.9999999999999996</ele><time>2026-04-29T18:11:49Z</time></trkpt><trkpt lat="44.34856304147806" lon="9.22982974003855"><ele>4.0</ele><time>2026-04-29T18:12:26Z</time></trkpt><trkpt lat="44.34852056606253" lon="9.229751948635803"><ele>4.0</ele><time>2026-04-29T18:12:37Z</time></trkpt><trkpt lat="44.34844850611307" lon="9.229723684010166"><ele>4.0</ele><time>2026-04-29T18:13:02Z</time></trkpt><trkpt lat="44.348461992353265" lon="9.229835527567776"><ele>3.9999999999999996</ele><time>2026-04-29T18:13:09Z</time></trkpt><trkpt lat="44.3484539596857" lon="9.229928711170126"><ele>4.0</ele><time>2026-04-29T18:13:20Z</time></trkpt><trkpt lat="44.34849179357425" lon="9.23000685089116"><ele>4.0</ele><time>2026-04-29T18:13:30Z</time></trkpt><trkpt lat="44.348517619958585" lon="9.2300880404941"><ele>3.9999999999999996</ele><time>2026-04-29T18:13:39Z</time></trkpt><trkpt lat="44.34856242775926" lon="9.23015436217732"><ele>4.0</ele><time>2026-04-29T18:13:49Z</time></trkpt><trkpt lat="44.34860812419626" lon="9.230226048449449"><ele>4.0</ele><time>2026-04-29T18:13:58Z</time></trkpt><trkpt lat="44.34864068619054" lon="9.230305339879571"><ele>4.0</ele><time>2026-04-29T18:14:08Z</time></trkpt><trkpt lat="44.34866929687067" lon="9.230388177451948"><ele>3.9999999999999996</ele><time>2026-04-29T18:14:18Z</time></trkpt><trkpt lat="44.34867924666304" lon="9.230475836987786"><ele>4.0</ele><time>2026-04-29T18:14:27Z</time></trkpt><trkpt lat="44.34869520753092" lon="9.230561287972069"><ele>4.0</ele><time>2026-04-29T18:14:35Z</time></trkpt><trkpt lat="44.34870672200266" lon="9.23066642206252"><ele>3.9999999999999996</ele><time>2026-04-29T18:14:45Z</time></trkpt><trkpt lat="44.34871311679963" lon="9.230772595472805"><ele>4.0</ele><time>2026-04-29T18:14:55Z</time></trkpt><trkpt lat="44.34872313233239" lon="9.230861590575707"><ele>4.0</ele><time>2026-04-29T18:15:03Z</time></trkpt><trkpt lat="44.348728054653314" lon="9.230959643121375"><ele>4.142857142857142</ele><time>2026-04-29T18:15:11Z</time></trkpt><trkpt lat="44.348725023484874" lon="9.231048982693723"><ele>4.285714285714286</ele><time>2026-04-29T18:15:20Z</time></trkpt><trkpt lat="44.34871211337319" lon="9.231157873898029"><ele>4.428571428571429</ele><time>2026-04-29T18:15:30Z</time></trkpt><trkpt lat="44.348738978708624" lon="9.231241621653622"><ele>4.571428571428571</ele><time>2026-04-29T18:15:36Z</time></trkpt><trkpt lat="44.34872186921986" lon="9.231328199891136"><ele>4.714285714285714</ele><time>2026-04-29T18:15:45Z</time></trkpt><trkpt lat="44.34871494690924" lon="9.231425964239541"><ele>4.857142857142857</ele><time>2026-04-29T18:15:54Z</time></trkpt><trkpt lat="44.34875543383532" lon="9.231507995551292"><ele>5.0</ele><time>2026-04-29T18:16:03Z</time></trkpt><trkpt lat="44.34876533025339" lon="9.23159995685783"><ele>5.0</ele><time>2026-04-29T18:16:11Z</time></trkpt><trkpt lat="44.34876510141875" lon="9.231702406004525"><ele>5.0</ele><time>2026-04-29T18:16:19Z</time></trkpt><trkpt lat="44.34877259898072" lon="9.231810076389737"><ele>5.0</ele><time>2026-04-29T18:16:27Z</time></trkpt><trkpt lat="44.34875138354289" lon="9.23189480301453"><ele>5.0</ele><time>2026-04-29T18:16:35Z</time></trkpt><trkpt lat="44.34871622309777" lon="9.23197267884902"><ele>5.0</ele><time>2026-04-29T18:16:43Z</time></trkpt><trkpt lat="44.34870248538658" lon="9.232064639382074"><ele>5.0</ele><time>2026-04-29T18:16:54Z</time></trkpt><trkpt lat="44.348676413423505" lon="9.2321486000901"><ele>5.0</ele><time>2026-04-29T18:17:00Z</time></trkpt><trkpt lat="44.34865058654573" lon="9.232229277216751"><ele>4.714285714285714</ele><time>2026-04-29T18:17:07Z</time></trkpt><trkpt lat="44.34862439859444" lon="9.232320665205386"><ele>4.428571428571429</ele><time>2026-04-29T18:17:15Z</time></trkpt><trkpt lat="44.34860113941603" lon="9.232409152927968"><ele>4.142857142857142</ele><time>2026-04-29T18:17:26Z</time></trkpt><trkpt lat="44.34859677452583" lon="9.23249842020043"><ele>3.8571428571428568</ele><time>2026-04-29T18:17:34Z</time></trkpt><trkpt lat="44.34858709283075" lon="9.232592042786106"><ele>3.571428571428571</ele><time>2026-04-29T18:17:42Z</time></trkpt><trkpt lat="44.34856782474567" lon="9.232689092971416"><ele>3.2857142857142856</ele><time>2026-04-29T18:17:50Z</time></trkpt><trkpt lat="44.34855020279078" lon="9.232783647253221"><ele>3.0</ele><time>2026-04-29T18:17:58Z</time></trkpt><trkpt lat="44.34854997166309" lon="9.232875464014596"><ele>2.9999999999999996</ele><time>2026-04-29T18:18:06Z</time></trkpt><trkpt lat="44.34855997496613" lon="9.232962979562917"><ele>3.0</ele><time>2026-04-29T18:18:12Z</time></trkpt><trkpt lat="44.34854410350031" lon="9.23304893077066"><ele>3.0</ele><time>2026-04-29T18:18:20Z</time></trkpt><trkpt lat="44.348515543487395" lon="9.233132726231483"><ele>3.0</ele><time>2026-04-29T18:18:30Z</time></trkpt><trkpt lat="44.34849058194193" lon="9.233214061451433"><ele>3.0</ele><time>2026-04-29T18:18:42Z</time></trkpt><trkpt lat="44.34850596631997" lon="9.233316018871486"><ele>2.9999999999999996</ele><time>2026-04-29T18:18:55Z</time></trkpt><trkpt lat="44.34851364318288" lon="9.23342320423249"><ele>3.0</ele><time>2026-04-29T18:19:09Z</time></trkpt><trkpt lat="44.34851275614244" lon="9.233514203821711"><ele>3.1428571428571423</ele><time>2026-04-29T18:19:17Z</time></trkpt><trkpt lat="44.34854090463495" lon="9.233594494981366"><ele>3.2857142857142856</ele><time>2026-04-29T18:19:31Z</time></trkpt><trkpt lat="44.3484826772903" lon="9.233659018202145"><ele>3.4285714285714284</ele><time>2026-04-29T18:19:40Z</time></trkpt><trkpt lat="44.3484303758565" lon="9.23371018360376"><ele>3.571428571428571</ele><time>2026-04-29T18:19:44Z</time></trkpt><trkpt lat="44.348412209264005" lon="9.233801808723301"><ele>3.714285714285714</ele><time>2026-04-29T18:19:51Z</time></trkpt><trkpt lat="44.34840168134201" lon="9.233898718907719"><ele>3.8571428571428568</ele><time>2026-04-29T18:19:59Z</time></trkpt><trkpt lat="44.34840766312376" lon="9.233986411895996"><ele>4.0</ele><time>2026-04-29T18:20:07Z</time></trkpt><trkpt lat="44.348427411220406" lon="9.234071693937162"><ele>4.571428571428571</ele><time>2026-04-29T18:20:19Z</time></trkpt><trkpt lat="44.3483780877138" lon="9.234139478295486"><ele>5.142857142857142</ele><time>2026-04-29T18:20:27Z</time></trkpt><trkpt lat="44.34833790142379" lon="9.234208165065422"><ele>5.7142857142857135</ele><time>2026-04-29T18:20:37Z</time></trkpt><trkpt lat="44.348283701231516" lon="9.234268392518814"><ele>6.285714285714286</ele><time>2026-04-29T18:20:46Z</time></trkpt><trkpt lat="44.34822423593228" lon="9.234310458423217"><ele>6.857142857142856</ele><time>2026-04-29T18:20:55Z</time></trkpt><trkpt lat="44.3481670237424" lon="9.234362281171757"><ele>7.428571428571428</ele><time>2026-04-29T18:21:03Z</time></trkpt><trkpt lat="44.348121313932886" lon="9.234436636355543"><ele>8.0</ele><time>2026-04-29T18:21:12Z</time></trkpt><trkpt lat="44.34806508007022" lon="9.23447780295475"><ele>7.999999999999999</ele><time>2026-04-29T18:21:24Z</time></trkpt><trkpt lat="44.348058989681746" lon="9.234628563166561"><ele>8.0</ele><time>2026-04-29T18:21:40Z</time></trkpt><trkpt lat="44.348011378638795" lon="9.234687784007663"><ele>8.0</ele><time>2026-04-29T18:21:46Z</time></trkpt><trkpt lat="44.34797973123999" lon="9.234765067317156"><ele>8.0</ele><time>2026-04-29T18:21:54Z</time></trkpt><trkpt lat="44.34792731911734" lon="9.234848428893288"><ele>7.999999999999999</ele><time>2026-04-29T18:22:13Z</time></trkpt><trkpt lat="44.34793763295267" lon="9.234937763164398"><ele>8.0</ele><time>2026-04-29T18:22:26Z</time></trkpt><trkpt lat="44.34786260754953" lon="9.23492958489069"><ele>3.0</ele><time>2026-04-29T18:32:55.999Z</time></trkpt></trkseg></trk></gpx>